<?xml version="1.0" encoding="UTF-8" standalone="no" ?>
<gpx xmlns="http://www.topografix.com/GPX/1/1" xmlns:xsi="http://www.w3.org/2001/XMLSchema-instance" xsi:schemaLocation="http://www.topografix.com/GPX/1/1 http://www.topografix.com/GPX/1/1/gpx.xsd" version="1.1" creator="VisuGPX - https://www.visugpx.com">
  <metadata>
    <name>Plan d'eau, Berny sur Noye</name>
    <desc><![CDATA[Cœur et santé
46 pax]]></desc>
  </metadata>
  <trk>
    <name><![CDATA[Plan d'eau, Berny sur Noye_1]]></name>
    <trkseg>
      <trkpt lat="49.74653" lon="2.35432">
        <ele>51.8</ele>
        <time>2023-03-01T13:00:32Z</time>
      </trkpt>
      <trkpt lat="49.74579" lon="2.35386">
        <ele>51.8</ele>
        <time>2023-03-01T13:00:33Z</time>
      </trkpt>
      <trkpt lat="49.74577" lon="2.35387">
        <ele>51.9</ele>
        <time>2023-03-01T13:00:34Z</time>
      </trkpt>
      <trkpt lat="49.74576" lon="2.35387">
        <ele>51.9</ele>
        <time>2023-03-01T13:00:35Z</time>
      </trkpt>
      <trkpt lat="49.74576" lon="2.35387">
        <ele>51.9</ele>
        <time>2023-03-01T13:00:36Z</time>
      </trkpt>
      <trkpt lat="49.74575" lon="2.35387">
        <ele>51.9</ele>
        <time>2023-03-01T13:00:37Z</time>
      </trkpt>
      <trkpt lat="49.74577" lon="2.35382">
        <ele>51.9</ele>
        <time>2023-03-01T13:00:38Z</time>
      </trkpt>
      <trkpt lat="49.74579" lon="2.35376">
        <ele>51.9</ele>
        <time>2023-03-01T13:00:39Z</time>
      </trkpt>
      <trkpt lat="49.7458" lon="2.35372">
        <ele>52</ele>
        <time>2023-03-01T13:00:41Z</time>
      </trkpt>
      <trkpt lat="49.74581" lon="2.35369">
        <ele>52</ele>
        <time>2023-03-01T13:00:42Z</time>
      </trkpt>
      <trkpt lat="49.74581" lon="2.35368">
        <ele>52</ele>
        <time>2023-03-01T13:00:44Z</time>
      </trkpt>
      <trkpt lat="49.74581" lon="2.35367">
        <ele>52</ele>
        <time>2023-03-01T13:00:45Z</time>
      </trkpt>
      <trkpt lat="49.74581" lon="2.35365">
        <ele>52</ele>
        <time>2023-03-01T13:00:46Z</time>
      </trkpt>
      <trkpt lat="49.74581" lon="2.35363">
        <ele>52</ele>
        <time>2023-03-01T13:00:47Z</time>
      </trkpt>
      <trkpt lat="49.7458" lon="2.35362">
        <ele>52</ele>
        <time>2023-03-01T13:00:48Z</time>
      </trkpt>
      <trkpt lat="49.7458" lon="2.3536">
        <ele>52.1</ele>
        <time>2023-03-01T13:00:49Z</time>
      </trkpt>
      <trkpt lat="49.74579" lon="2.35359">
        <ele>52.1</ele>
        <time>2023-03-01T13:00:50Z</time>
      </trkpt>
      <trkpt lat="49.74578" lon="2.35358">
        <ele>52.1</ele>
        <time>2023-03-01T13:00:51Z</time>
      </trkpt>
      <trkpt lat="49.74577" lon="2.35357">
        <ele>52.1</ele>
        <time>2023-03-01T13:00:53Z</time>
      </trkpt>
      <trkpt lat="49.74576" lon="2.35356">
        <ele>52.1</ele>
        <time>2023-03-01T13:00:54Z</time>
      </trkpt>
      <trkpt lat="49.74576" lon="2.35355">
        <ele>52.1</ele>
        <time>2023-03-01T13:00:55Z</time>
      </trkpt>
      <trkpt lat="49.74574" lon="2.35355">
        <ele>52.1</ele>
        <time>2023-03-01T13:00:56Z</time>
      </trkpt>
      <trkpt lat="49.74573" lon="2.35355">
        <ele>52.1</ele>
        <time>2023-03-01T13:00:57Z</time>
      </trkpt>
      <trkpt lat="49.74572" lon="2.35354">
        <ele>52.2</ele>
        <time>2023-03-01T13:00:58Z</time>
      </trkpt>
      <trkpt lat="49.7457" lon="2.35353">
        <ele>52.2</ele>
        <time>2023-03-01T13:00:59Z</time>
      </trkpt>
      <trkpt lat="49.74568" lon="2.35353">
        <ele>52.2</ele>
        <time>2023-03-01T13:01:01Z</time>
      </trkpt>
      <trkpt lat="49.74567" lon="2.35353">
        <ele>52.2</ele>
        <time>2023-03-01T13:01:02Z</time>
      </trkpt>
      <trkpt lat="49.74566" lon="2.35352">
        <ele>52.2</ele>
        <time>2023-03-01T13:01:03Z</time>
      </trkpt>
      <trkpt lat="49.74565" lon="2.35352">
        <ele>52.2</ele>
        <time>2023-03-01T13:01:04Z</time>
      </trkpt>
      <trkpt lat="49.74564" lon="2.35352">
        <ele>52.2</ele>
        <time>2023-03-01T13:01:05Z</time>
      </trkpt>
      <trkpt lat="49.74563" lon="2.35351">
        <ele>52.3</ele>
        <time>2023-03-01T13:01:06Z</time>
      </trkpt>
      <trkpt lat="49.74561" lon="2.3535">
        <ele>52.3</ele>
        <time>2023-03-01T13:01:07Z</time>
      </trkpt>
      <trkpt lat="49.74561" lon="2.35349">
        <ele>52.3</ele>
        <time>2023-03-01T13:01:09Z</time>
      </trkpt>
      <trkpt lat="49.7456" lon="2.35348">
        <ele>52.3</ele>
        <time>2023-03-01T13:01:10Z</time>
      </trkpt>
      <trkpt lat="49.74559" lon="2.35348">
        <ele>52.3</ele>
        <time>2023-03-01T13:01:11Z</time>
      </trkpt>
      <trkpt lat="49.74558" lon="2.35347">
        <ele>52.3</ele>
        <time>2023-03-01T13:01:12Z</time>
      </trkpt>
      <trkpt lat="49.74557" lon="2.35347">
        <ele>52.3</ele>
        <time>2023-03-01T13:01:13Z</time>
      </trkpt>
      <trkpt lat="49.74555" lon="2.35346">
        <ele>52.3</ele>
        <time>2023-03-01T13:01:14Z</time>
      </trkpt>
      <trkpt lat="49.74554" lon="2.35346">
        <ele>52.3</ele>
        <time>2023-03-01T13:01:15Z</time>
      </trkpt>
      <trkpt lat="49.74553" lon="2.35345">
        <ele>52.3</ele>
        <time>2023-03-01T13:01:17Z</time>
      </trkpt>
      <trkpt lat="49.74553" lon="2.35345">
        <ele>52.4</ele>
        <time>2023-03-01T13:01:18Z</time>
      </trkpt>
      <trkpt lat="49.74551" lon="2.35344">
        <ele>52.4</ele>
        <time>2023-03-01T13:01:19Z</time>
      </trkpt>
      <trkpt lat="49.74549" lon="2.35342">
        <ele>52.4</ele>
        <time>2023-03-01T13:01:20Z</time>
      </trkpt>
      <trkpt lat="49.74548" lon="2.35342">
        <ele>52.4</ele>
        <time>2023-03-01T13:01:21Z</time>
      </trkpt>
      <trkpt lat="49.74547" lon="2.35341">
        <ele>52.4</ele>
        <time>2023-03-01T13:01:22Z</time>
      </trkpt>
      <trkpt lat="49.74546" lon="2.3534">
        <ele>52.4</ele>
        <time>2023-03-01T13:01:23Z</time>
      </trkpt>
      <trkpt lat="49.74545" lon="2.3534">
        <ele>52.4</ele>
        <time>2023-03-01T13:01:24Z</time>
      </trkpt>
      <trkpt lat="49.74543" lon="2.35339">
        <ele>52.4</ele>
        <time>2023-03-01T13:01:26Z</time>
      </trkpt>
      <trkpt lat="49.74542" lon="2.35339">
        <ele>52.4</ele>
        <time>2023-03-01T13:01:27Z</time>
      </trkpt>
      <trkpt lat="49.74541" lon="2.35339">
        <ele>52.4</ele>
        <time>2023-03-01T13:01:28Z</time>
      </trkpt>
      <trkpt lat="49.74539" lon="2.35338">
        <ele>52.5</ele>
        <time>2023-03-01T13:01:29Z</time>
      </trkpt>
      <trkpt lat="49.74538" lon="2.35338">
        <ele>52.5</ele>
        <time>2023-03-01T13:01:30Z</time>
      </trkpt>
      <trkpt lat="49.74537" lon="2.35337">
        <ele>52.5</ele>
        <time>2023-03-01T13:01:31Z</time>
      </trkpt>
      <trkpt lat="49.74536" lon="2.35337">
        <ele>52.4</ele>
        <time>2023-03-01T13:01:32Z</time>
      </trkpt>
      <trkpt lat="49.74534" lon="2.35336">
        <ele>52.4</ele>
        <time>2023-03-01T13:01:33Z</time>
      </trkpt>
      <trkpt lat="49.74533" lon="2.35336">
        <ele>52.4</ele>
        <time>2023-03-01T13:01:34Z</time>
      </trkpt>
      <trkpt lat="49.74531" lon="2.35335">
        <ele>52.4</ele>
        <time>2023-03-01T13:01:35Z</time>
      </trkpt>
      <trkpt lat="49.7453" lon="2.35335">
        <ele>52.4</ele>
        <time>2023-03-01T13:01:37Z</time>
      </trkpt>
      <trkpt lat="49.74528" lon="2.35334">
        <ele>52.4</ele>
        <time>2023-03-01T13:01:38Z</time>
      </trkpt>
      <trkpt lat="49.74526" lon="2.35333">
        <ele>52.4</ele>
        <time>2023-03-01T13:01:39Z</time>
      </trkpt>
      <trkpt lat="49.74526" lon="2.35332">
        <ele>52.4</ele>
        <time>2023-03-01T13:01:40Z</time>
      </trkpt>
      <trkpt lat="49.74524" lon="2.35331">
        <ele>52.4</ele>
        <time>2023-03-01T13:01:41Z</time>
      </trkpt>
      <trkpt lat="49.74523" lon="2.35331">
        <ele>52.4</ele>
        <time>2023-03-01T13:01:42Z</time>
      </trkpt>
      <trkpt lat="49.7452" lon="2.35329">
        <ele>52.4</ele>
        <time>2023-03-01T13:01:43Z</time>
      </trkpt>
      <trkpt lat="49.74519" lon="2.35328">
        <ele>52.4</ele>
        <time>2023-03-01T13:01:44Z</time>
      </trkpt>
      <trkpt lat="49.74518" lon="2.35327">
        <ele>52.3</ele>
        <time>2023-03-01T13:01:45Z</time>
      </trkpt>
      <trkpt lat="49.74517" lon="2.35326">
        <ele>52.3</ele>
        <time>2023-03-01T13:01:47Z</time>
      </trkpt>
      <trkpt lat="49.74516" lon="2.35326">
        <ele>52.3</ele>
        <time>2023-03-01T13:01:48Z</time>
      </trkpt>
      <trkpt lat="49.74514" lon="2.35324">
        <ele>52.3</ele>
        <time>2023-03-01T13:01:49Z</time>
      </trkpt>
      <trkpt lat="49.74513" lon="2.35324">
        <ele>52.3</ele>
        <time>2023-03-01T13:01:50Z</time>
      </trkpt>
      <trkpt lat="49.74512" lon="2.35323">
        <ele>52.3</ele>
        <time>2023-03-01T13:01:51Z</time>
      </trkpt>
      <trkpt lat="49.74511" lon="2.35322">
        <ele>52.3</ele>
        <time>2023-03-01T13:01:52Z</time>
      </trkpt>
      <trkpt lat="49.7451" lon="2.35321">
        <ele>52.3</ele>
        <time>2023-03-01T13:01:54Z</time>
      </trkpt>
      <trkpt lat="49.74507" lon="2.35319">
        <ele>52.3</ele>
        <time>2023-03-01T13:01:55Z</time>
      </trkpt>
      <trkpt lat="49.74506" lon="2.35319">
        <ele>52.3</ele>
        <time>2023-03-01T13:01:56Z</time>
      </trkpt>
      <trkpt lat="49.74504" lon="2.35317">
        <ele>52.3</ele>
        <time>2023-03-01T13:01:57Z</time>
      </trkpt>
      <trkpt lat="49.74504" lon="2.35317">
        <ele>52.3</ele>
        <time>2023-03-01T13:01:58Z</time>
      </trkpt>
      <trkpt lat="49.74503" lon="2.35316">
        <ele>52.3</ele>
        <time>2023-03-01T13:01:59Z</time>
      </trkpt>
      <trkpt lat="49.74502" lon="2.35316">
        <ele>52.3</ele>
        <time>2023-03-01T13:02:00Z</time>
      </trkpt>
      <trkpt lat="49.74501" lon="2.35315">
        <ele>52.3</ele>
        <time>2023-03-01T13:02:02Z</time>
      </trkpt>
      <trkpt lat="49.745" lon="2.35314">
        <ele>52.3</ele>
        <time>2023-03-01T13:02:03Z</time>
      </trkpt>
      <trkpt lat="49.74497" lon="2.35313">
        <ele>52.3</ele>
        <time>2023-03-01T13:02:04Z</time>
      </trkpt>
      <trkpt lat="49.74496" lon="2.35312">
        <ele>52.3</ele>
        <time>2023-03-01T13:02:05Z</time>
      </trkpt>
      <trkpt lat="49.74495" lon="2.35312">
        <ele>52.3</ele>
        <time>2023-03-01T13:02:06Z</time>
      </trkpt>
      <trkpt lat="49.74494" lon="2.35311">
        <ele>52.3</ele>
        <time>2023-03-01T13:02:07Z</time>
      </trkpt>
      <trkpt lat="49.74493" lon="2.35311">
        <ele>52.3</ele>
        <time>2023-03-01T13:02:08Z</time>
      </trkpt>
      <trkpt lat="49.74491" lon="2.3531">
        <ele>52.3</ele>
        <time>2023-03-01T13:02:09Z</time>
      </trkpt>
      <trkpt lat="49.7449" lon="2.35309">
        <ele>52.3</ele>
        <time>2023-03-01T13:02:10Z</time>
      </trkpt>
      <trkpt lat="49.74488" lon="2.35308">
        <ele>52.3</ele>
        <time>2023-03-01T13:02:11Z</time>
      </trkpt>
      <trkpt lat="49.74487" lon="2.35307">
        <ele>52.3</ele>
        <time>2023-03-01T13:02:13Z</time>
      </trkpt>
      <trkpt lat="49.74486" lon="2.35307">
        <ele>52.3</ele>
        <time>2023-03-01T13:02:14Z</time>
      </trkpt>
      <trkpt lat="49.74484" lon="2.35306">
        <ele>52.3</ele>
        <time>2023-03-01T13:02:15Z</time>
      </trkpt>
      <trkpt lat="49.74483" lon="2.35306">
        <ele>52.3</ele>
        <time>2023-03-01T13:02:16Z</time>
      </trkpt>
      <trkpt lat="49.74481" lon="2.35304">
        <ele>52.3</ele>
        <time>2023-03-01T13:02:17Z</time>
      </trkpt>
      <trkpt lat="49.7448" lon="2.35304">
        <ele>52.4</ele>
        <time>2023-03-01T13:02:18Z</time>
      </trkpt>
      <trkpt lat="49.74479" lon="2.35303">
        <ele>52.4</ele>
        <time>2023-03-01T13:02:19Z</time>
      </trkpt>
      <trkpt lat="49.74478" lon="2.35303">
        <ele>52.4</ele>
        <time>2023-03-01T13:02:20Z</time>
      </trkpt>
      <trkpt lat="49.74477" lon="2.35302">
        <ele>52.4</ele>
        <time>2023-03-01T13:02:21Z</time>
      </trkpt>
      <trkpt lat="49.74476" lon="2.35301">
        <ele>52.4</ele>
        <time>2023-03-01T13:02:22Z</time>
      </trkpt>
      <trkpt lat="49.74475" lon="2.35301">
        <ele>52.4</ele>
        <time>2023-03-01T13:02:23Z</time>
      </trkpt>
      <trkpt lat="49.74473" lon="2.353">
        <ele>52.4</ele>
        <time>2023-03-01T13:02:24Z</time>
      </trkpt>
      <trkpt lat="49.74471" lon="2.35299">
        <ele>52.4</ele>
        <time>2023-03-01T13:02:25Z</time>
      </trkpt>
      <trkpt lat="49.7447" lon="2.35298">
        <ele>52.4</ele>
        <time>2023-03-01T13:02:27Z</time>
      </trkpt>
      <trkpt lat="49.74469" lon="2.35298">
        <ele>52.4</ele>
        <time>2023-03-01T13:02:28Z</time>
      </trkpt>
      <trkpt lat="49.74467" lon="2.35296">
        <ele>52.4</ele>
        <time>2023-03-01T13:02:29Z</time>
      </trkpt>
      <trkpt lat="49.74466" lon="2.35295">
        <ele>52.4</ele>
        <time>2023-03-01T13:02:31Z</time>
      </trkpt>
      <trkpt lat="49.74465" lon="2.35294">
        <ele>52.4</ele>
        <time>2023-03-01T13:02:32Z</time>
      </trkpt>
      <trkpt lat="49.74463" lon="2.35293">
        <ele>52.4</ele>
        <time>2023-03-01T13:02:33Z</time>
      </trkpt>
      <trkpt lat="49.74462" lon="2.35293">
        <ele>52.4</ele>
        <time>2023-03-01T13:02:34Z</time>
      </trkpt>
      <trkpt lat="49.74462" lon="2.35292">
        <ele>52.4</ele>
        <time>2023-03-01T13:02:35Z</time>
      </trkpt>
      <trkpt lat="49.7446" lon="2.35291">
        <ele>52.4</ele>
        <time>2023-03-01T13:02:36Z</time>
      </trkpt>
      <trkpt lat="49.7446" lon="2.3529">
        <ele>52.4</ele>
        <time>2023-03-01T13:02:38Z</time>
      </trkpt>
      <trkpt lat="49.74459" lon="2.3529">
        <ele>52.4</ele>
        <time>2023-03-01T13:02:39Z</time>
      </trkpt>
      <trkpt lat="49.74458" lon="2.35289">
        <ele>52.4</ele>
        <time>2023-03-01T13:02:40Z</time>
      </trkpt>
      <trkpt lat="49.74457" lon="2.35288">
        <ele>52.4</ele>
        <time>2023-03-01T13:02:41Z</time>
      </trkpt>
      <trkpt lat="49.74455" lon="2.35286">
        <ele>52.3</ele>
        <time>2023-03-01T13:02:42Z</time>
      </trkpt>
      <trkpt lat="49.74454" lon="2.35285">
        <ele>52.3</ele>
        <time>2023-03-01T13:02:43Z</time>
      </trkpt>
      <trkpt lat="49.74453" lon="2.35284">
        <ele>52.3</ele>
        <time>2023-03-01T13:02:44Z</time>
      </trkpt>
      <trkpt lat="49.74452" lon="2.35284">
        <ele>52.3</ele>
        <time>2023-03-01T13:02:45Z</time>
      </trkpt>
      <trkpt lat="49.74452" lon="2.35283">
        <ele>52.3</ele>
        <time>2023-03-01T13:02:46Z</time>
      </trkpt>
      <trkpt lat="49.7445" lon="2.35282">
        <ele>52.3</ele>
        <time>2023-03-01T13:02:48Z</time>
      </trkpt>
      <trkpt lat="49.74449" lon="2.35281">
        <ele>52.3</ele>
        <time>2023-03-01T13:02:49Z</time>
      </trkpt>
      <trkpt lat="49.74448" lon="2.35279">
        <ele>52.3</ele>
        <time>2023-03-01T13:02:50Z</time>
      </trkpt>
      <trkpt lat="49.74447" lon="2.35278">
        <ele>52.3</ele>
        <time>2023-03-01T13:02:51Z</time>
      </trkpt>
      <trkpt lat="49.74446" lon="2.35277">
        <ele>52.3</ele>
        <time>2023-03-01T13:02:52Z</time>
      </trkpt>
      <trkpt lat="49.74445" lon="2.35276">
        <ele>52.3</ele>
        <time>2023-03-01T13:02:53Z</time>
      </trkpt>
      <trkpt lat="49.74443" lon="2.35275">
        <ele>52.3</ele>
        <time>2023-03-01T13:02:55Z</time>
      </trkpt>
      <trkpt lat="49.74442" lon="2.35274">
        <ele>52.3</ele>
        <time>2023-03-01T13:02:56Z</time>
      </trkpt>
      <trkpt lat="49.74441" lon="2.35274">
        <ele>52.3</ele>
        <time>2023-03-01T13:02:57Z</time>
      </trkpt>
      <trkpt lat="49.74439" lon="2.35274">
        <ele>52.3</ele>
        <time>2023-03-01T13:02:58Z</time>
      </trkpt>
      <trkpt lat="49.74438" lon="2.35273">
        <ele>52.3</ele>
        <time>2023-03-01T13:02:59Z</time>
      </trkpt>
      <trkpt lat="49.74437" lon="2.35273">
        <ele>52.3</ele>
        <time>2023-03-01T13:03:00Z</time>
      </trkpt>
      <trkpt lat="49.74436" lon="2.35273">
        <ele>52.3</ele>
        <time>2023-03-01T13:03:01Z</time>
      </trkpt>
      <trkpt lat="49.74434" lon="2.35273">
        <ele>52.3</ele>
        <time>2023-03-01T13:03:02Z</time>
      </trkpt>
      <trkpt lat="49.74433" lon="2.35273">
        <ele>52.3</ele>
        <time>2023-03-01T13:03:04Z</time>
      </trkpt>
      <trkpt lat="49.74431" lon="2.35272">
        <ele>52.3</ele>
        <time>2023-03-01T13:03:05Z</time>
      </trkpt>
      <trkpt lat="49.7443" lon="2.35272">
        <ele>52.3</ele>
        <time>2023-03-01T13:03:06Z</time>
      </trkpt>
      <trkpt lat="49.74428" lon="2.35272">
        <ele>52.3</ele>
        <time>2023-03-01T13:03:07Z</time>
      </trkpt>
      <trkpt lat="49.74427" lon="2.35271">
        <ele>52.3</ele>
        <time>2023-03-01T13:03:08Z</time>
      </trkpt>
      <trkpt lat="49.74426" lon="2.35271">
        <ele>52.3</ele>
        <time>2023-03-01T13:03:09Z</time>
      </trkpt>
      <trkpt lat="49.74424" lon="2.3527">
        <ele>52.3</ele>
        <time>2023-03-01T13:03:10Z</time>
      </trkpt>
      <trkpt lat="49.74422" lon="2.35269">
        <ele>52.3</ele>
        <time>2023-03-01T13:03:11Z</time>
      </trkpt>
      <trkpt lat="49.74421" lon="2.35269">
        <ele>52.3</ele>
        <time>2023-03-01T13:03:13Z</time>
      </trkpt>
      <trkpt lat="49.74419" lon="2.35268">
        <ele>52.3</ele>
        <time>2023-03-01T13:03:14Z</time>
      </trkpt>
      <trkpt lat="49.74418" lon="2.35267">
        <ele>52.3</ele>
        <time>2023-03-01T13:03:15Z</time>
      </trkpt>
      <trkpt lat="49.74416" lon="2.35266">
        <ele>52.3</ele>
        <time>2023-03-01T13:03:16Z</time>
      </trkpt>
      <trkpt lat="49.74415" lon="2.35265">
        <ele>52.3</ele>
        <time>2023-03-01T13:03:17Z</time>
      </trkpt>
      <trkpt lat="49.74414" lon="2.35264">
        <ele>52.3</ele>
        <time>2023-03-01T13:03:18Z</time>
      </trkpt>
      <trkpt lat="49.74413" lon="2.35263">
        <ele>52.3</ele>
        <time>2023-03-01T13:03:19Z</time>
      </trkpt>
      <trkpt lat="49.74411" lon="2.35262">
        <ele>52.3</ele>
        <time>2023-03-01T13:03:21Z</time>
      </trkpt>
      <trkpt lat="49.7441" lon="2.35261">
        <ele>52.3</ele>
        <time>2023-03-01T13:03:22Z</time>
      </trkpt>
      <trkpt lat="49.74408" lon="2.35259">
        <ele>52.4</ele>
        <time>2023-03-01T13:03:23Z</time>
      </trkpt>
      <trkpt lat="49.74407" lon="2.35259">
        <ele>52.4</ele>
        <time>2023-03-01T13:03:24Z</time>
      </trkpt>
      <trkpt lat="49.74406" lon="2.35258">
        <ele>52.4</ele>
        <time>2023-03-01T13:03:25Z</time>
      </trkpt>
      <trkpt lat="49.74405" lon="2.35257">
        <ele>52.4</ele>
        <time>2023-03-01T13:03:26Z</time>
      </trkpt>
      <trkpt lat="49.74404" lon="2.35256">
        <ele>52.4</ele>
        <time>2023-03-01T13:03:27Z</time>
      </trkpt>
      <trkpt lat="49.74402" lon="2.35255">
        <ele>52.4</ele>
        <time>2023-03-01T13:03:28Z</time>
      </trkpt>
      <trkpt lat="49.74402" lon="2.35254">
        <ele>52.4</ele>
        <time>2023-03-01T13:03:29Z</time>
      </trkpt>
      <trkpt lat="49.74401" lon="2.35253">
        <ele>52.4</ele>
        <time>2023-03-01T13:03:30Z</time>
      </trkpt>
      <trkpt lat="49.744" lon="2.35252">
        <ele>52.4</ele>
        <time>2023-03-01T13:03:32Z</time>
      </trkpt>
      <trkpt lat="49.74399" lon="2.35251">
        <ele>52.5</ele>
        <time>2023-03-01T13:03:33Z</time>
      </trkpt>
      <trkpt lat="49.74399" lon="2.3525">
        <ele>52.5</ele>
        <time>2023-03-01T13:03:34Z</time>
      </trkpt>
      <trkpt lat="49.74398" lon="2.35249">
        <ele>52.5</ele>
        <time>2023-03-01T13:03:35Z</time>
      </trkpt>
      <trkpt lat="49.74397" lon="2.35248">
        <ele>52.5</ele>
        <time>2023-03-01T13:03:36Z</time>
      </trkpt>
      <trkpt lat="49.74396" lon="2.35246">
        <ele>52.5</ele>
        <time>2023-03-01T13:03:37Z</time>
      </trkpt>
      <trkpt lat="49.74395" lon="2.35245">
        <ele>52.5</ele>
        <time>2023-03-01T13:03:39Z</time>
      </trkpt>
      <trkpt lat="49.74394" lon="2.35243">
        <ele>52.6</ele>
        <time>2023-03-01T13:03:40Z</time>
      </trkpt>
      <trkpt lat="49.74393" lon="2.3524">
        <ele>52.6</ele>
        <time>2023-03-01T13:03:41Z</time>
      </trkpt>
      <trkpt lat="49.74392" lon="2.35239">
        <ele>52.6</ele>
        <time>2023-03-01T13:03:43Z</time>
      </trkpt>
      <trkpt lat="49.74392" lon="2.35237">
        <ele>52.6</ele>
        <time>2023-03-01T13:03:44Z</time>
      </trkpt>
      <trkpt lat="49.74391" lon="2.35236">
        <ele>52.6</ele>
        <time>2023-03-01T13:03:45Z</time>
      </trkpt>
      <trkpt lat="49.7439" lon="2.35235">
        <ele>52.6</ele>
        <time>2023-03-01T13:03:46Z</time>
      </trkpt>
      <trkpt lat="49.7439" lon="2.35233">
        <ele>52.6</ele>
        <time>2023-03-01T13:03:47Z</time>
      </trkpt>
      <trkpt lat="49.74388" lon="2.35231">
        <ele>52.7</ele>
        <time>2023-03-01T13:03:48Z</time>
      </trkpt>
      <trkpt lat="49.74387" lon="2.3523">
        <ele>52.7</ele>
        <time>2023-03-01T13:03:49Z</time>
      </trkpt>
      <trkpt lat="49.74387" lon="2.35229">
        <ele>52.7</ele>
        <time>2023-03-01T13:03:50Z</time>
      </trkpt>
      <trkpt lat="49.74385" lon="2.35227">
        <ele>52.7</ele>
        <time>2023-03-01T13:03:51Z</time>
      </trkpt>
      <trkpt lat="49.74384" lon="2.35226">
        <ele>52.7</ele>
        <time>2023-03-01T13:03:53Z</time>
      </trkpt>
      <trkpt lat="49.74383" lon="2.35225">
        <ele>52.7</ele>
        <time>2023-03-01T13:03:54Z</time>
      </trkpt>
      <trkpt lat="49.74382" lon="2.35224">
        <ele>52.8</ele>
        <time>2023-03-01T13:03:55Z</time>
      </trkpt>
      <trkpt lat="49.74381" lon="2.35223">
        <ele>52.8</ele>
        <time>2023-03-01T13:03:56Z</time>
      </trkpt>
      <trkpt lat="49.74381" lon="2.35222">
        <ele>52.8</ele>
        <time>2023-03-01T13:03:57Z</time>
      </trkpt>
      <trkpt lat="49.7438" lon="2.3522">
        <ele>52.8</ele>
        <time>2023-03-01T13:03:58Z</time>
      </trkpt>
      <trkpt lat="49.74379" lon="2.35219">
        <ele>52.8</ele>
        <time>2023-03-01T13:03:59Z</time>
      </trkpt>
      <trkpt lat="49.74379" lon="2.35218">
        <ele>52.8</ele>
        <time>2023-03-01T13:04:00Z</time>
      </trkpt>
      <trkpt lat="49.74379" lon="2.35215">
        <ele>52.8</ele>
        <time>2023-03-01T13:04:02Z</time>
      </trkpt>
      <trkpt lat="49.74378" lon="2.35214">
        <ele>52.8</ele>
        <time>2023-03-01T13:04:03Z</time>
      </trkpt>
      <trkpt lat="49.74378" lon="2.35212">
        <ele>52.8</ele>
        <time>2023-03-01T13:04:04Z</time>
      </trkpt>
      <trkpt lat="49.74378" lon="2.35211">
        <ele>52.8</ele>
        <time>2023-03-01T13:04:05Z</time>
      </trkpt>
      <trkpt lat="49.74378" lon="2.35209">
        <ele>52.8</ele>
        <time>2023-03-01T13:04:06Z</time>
      </trkpt>
      <trkpt lat="49.74377" lon="2.35208">
        <ele>52.8</ele>
        <time>2023-03-01T13:04:07Z</time>
      </trkpt>
      <trkpt lat="49.74377" lon="2.35206">
        <ele>52.8</ele>
        <time>2023-03-01T13:04:08Z</time>
      </trkpt>
      <trkpt lat="49.74376" lon="2.35204">
        <ele>52.8</ele>
        <time>2023-03-01T13:04:09Z</time>
      </trkpt>
      <trkpt lat="49.74376" lon="2.35203">
        <ele>52.8</ele>
        <time>2023-03-01T13:04:10Z</time>
      </trkpt>
      <trkpt lat="49.74376" lon="2.35202">
        <ele>52.8</ele>
        <time>2023-03-01T13:04:12Z</time>
      </trkpt>
      <trkpt lat="49.74376" lon="2.352">
        <ele>52.8</ele>
        <time>2023-03-01T13:04:13Z</time>
      </trkpt>
      <trkpt lat="49.74376" lon="2.35199">
        <ele>52.8</ele>
        <time>2023-03-01T13:04:14Z</time>
      </trkpt>
      <trkpt lat="49.74375" lon="2.35196">
        <ele>52.8</ele>
        <time>2023-03-01T13:04:15Z</time>
      </trkpt>
      <trkpt lat="49.74375" lon="2.35195">
        <ele>52.8</ele>
        <time>2023-03-01T13:04:16Z</time>
      </trkpt>
      <trkpt lat="49.74374" lon="2.35192">
        <ele>52.8</ele>
        <time>2023-03-01T13:04:18Z</time>
      </trkpt>
      <trkpt lat="49.74373" lon="2.35191">
        <ele>52.8</ele>
        <time>2023-03-01T13:04:19Z</time>
      </trkpt>
      <trkpt lat="49.74373" lon="2.35189">
        <ele>52.8</ele>
        <time>2023-03-01T13:04:20Z</time>
      </trkpt>
      <trkpt lat="49.74372" lon="2.35187">
        <ele>52.8</ele>
        <time>2023-03-01T13:04:21Z</time>
      </trkpt>
      <trkpt lat="49.74372" lon="2.35185">
        <ele>52.8</ele>
        <time>2023-03-01T13:04:22Z</time>
      </trkpt>
      <trkpt lat="49.7437" lon="2.35181">
        <ele>52.7</ele>
        <time>2023-03-01T13:04:23Z</time>
      </trkpt>
      <trkpt lat="49.7437" lon="2.35179">
        <ele>52.7</ele>
        <time>2023-03-01T13:04:24Z</time>
      </trkpt>
      <trkpt lat="49.7437" lon="2.35178">
        <ele>52.7</ele>
        <time>2023-03-01T13:04:25Z</time>
      </trkpt>
      <trkpt lat="49.7437" lon="2.35176">
        <ele>52.7</ele>
        <time>2023-03-01T13:04:26Z</time>
      </trkpt>
      <trkpt lat="49.74369" lon="2.35175">
        <ele>52.7</ele>
        <time>2023-03-01T13:04:28Z</time>
      </trkpt>
      <trkpt lat="49.74369" lon="2.35173">
        <ele>52.7</ele>
        <time>2023-03-01T13:04:29Z</time>
      </trkpt>
      <trkpt lat="49.74368" lon="2.35172">
        <ele>52.7</ele>
        <time>2023-03-01T13:04:30Z</time>
      </trkpt>
      <trkpt lat="49.74368" lon="2.3517">
        <ele>52.7</ele>
        <time>2023-03-01T13:04:31Z</time>
      </trkpt>
      <trkpt lat="49.74367" lon="2.35168">
        <ele>52.7</ele>
        <time>2023-03-01T13:04:32Z</time>
      </trkpt>
      <trkpt lat="49.74367" lon="2.35166">
        <ele>52.6</ele>
        <time>2023-03-01T13:04:33Z</time>
      </trkpt>
      <trkpt lat="49.74366" lon="2.35164">
        <ele>52.6</ele>
        <time>2023-03-01T13:04:34Z</time>
      </trkpt>
      <trkpt lat="49.74366" lon="2.35163">
        <ele>52.6</ele>
        <time>2023-03-01T13:04:35Z</time>
      </trkpt>
      <trkpt lat="49.74365" lon="2.3516">
        <ele>52.6</ele>
        <time>2023-03-01T13:04:37Z</time>
      </trkpt>
      <trkpt lat="49.74364" lon="2.35158">
        <ele>52.6</ele>
        <time>2023-03-01T13:04:38Z</time>
      </trkpt>
      <trkpt lat="49.74364" lon="2.35156">
        <ele>52.6</ele>
        <time>2023-03-01T13:04:39Z</time>
      </trkpt>
      <trkpt lat="49.74363" lon="2.35154">
        <ele>52.5</ele>
        <time>2023-03-01T13:04:40Z</time>
      </trkpt>
      <trkpt lat="49.74362" lon="2.35152">
        <ele>52.5</ele>
        <time>2023-03-01T13:04:41Z</time>
      </trkpt>
      <trkpt lat="49.74362" lon="2.3515">
        <ele>52.5</ele>
        <time>2023-03-01T13:04:42Z</time>
      </trkpt>
      <trkpt lat="49.74361" lon="2.35148">
        <ele>52.5</ele>
        <time>2023-03-01T13:04:43Z</time>
      </trkpt>
      <trkpt lat="49.7436" lon="2.35146">
        <ele>52.5</ele>
        <time>2023-03-01T13:04:45Z</time>
      </trkpt>
      <trkpt lat="49.74359" lon="2.35144">
        <ele>52.4</ele>
        <time>2023-03-01T13:04:46Z</time>
      </trkpt>
      <trkpt lat="49.74357" lon="2.35141">
        <ele>52.4</ele>
        <time>2023-03-01T13:04:47Z</time>
      </trkpt>
      <trkpt lat="49.74356" lon="2.35139">
        <ele>52.4</ele>
        <time>2023-03-01T13:04:48Z</time>
      </trkpt>
      <trkpt lat="49.74356" lon="2.35139">
        <ele>52.4</ele>
        <time>2023-03-01T13:04:49Z</time>
      </trkpt>
      <trkpt lat="49.74355" lon="2.35137">
        <ele>52.4</ele>
        <time>2023-03-01T13:04:50Z</time>
      </trkpt>
      <trkpt lat="49.74354" lon="2.35136">
        <ele>52.4</ele>
        <time>2023-03-01T13:04:51Z</time>
      </trkpt>
      <trkpt lat="49.74353" lon="2.35134">
        <ele>52.4</ele>
        <time>2023-03-01T13:04:53Z</time>
      </trkpt>
      <trkpt lat="49.74352" lon="2.35133">
        <ele>52.4</ele>
        <time>2023-03-01T13:04:54Z</time>
      </trkpt>
      <trkpt lat="49.74351" lon="2.35131">
        <ele>52.4</ele>
        <time>2023-03-01T13:04:55Z</time>
      </trkpt>
      <trkpt lat="49.7435" lon="2.3513">
        <ele>52.4</ele>
        <time>2023-03-01T13:04:56Z</time>
      </trkpt>
      <trkpt lat="49.74347" lon="2.35129">
        <ele>52.4</ele>
        <time>2023-03-01T13:04:57Z</time>
      </trkpt>
      <trkpt lat="49.74346" lon="2.35128">
        <ele>52.4</ele>
        <time>2023-03-01T13:04:58Z</time>
      </trkpt>
      <trkpt lat="49.74344" lon="2.35127">
        <ele>52.4</ele>
        <time>2023-03-01T13:04:59Z</time>
      </trkpt>
      <trkpt lat="49.74343" lon="2.35126">
        <ele>52.4</ele>
        <time>2023-03-01T13:05:00Z</time>
      </trkpt>
      <trkpt lat="49.74342" lon="2.35126">
        <ele>52.4</ele>
        <time>2023-03-01T13:05:01Z</time>
      </trkpt>
      <trkpt lat="49.7434" lon="2.35124">
        <ele>52.4</ele>
        <time>2023-03-01T13:05:03Z</time>
      </trkpt>
      <trkpt lat="49.74339" lon="2.35123">
        <ele>52.4</ele>
        <time>2023-03-01T13:05:04Z</time>
      </trkpt>
      <trkpt lat="49.74338" lon="2.35122">
        <ele>52.4</ele>
        <time>2023-03-01T13:05:05Z</time>
      </trkpt>
      <trkpt lat="49.74336" lon="2.35121">
        <ele>52.4</ele>
        <time>2023-03-01T13:05:06Z</time>
      </trkpt>
      <trkpt lat="49.74334" lon="2.35119">
        <ele>52.4</ele>
        <time>2023-03-01T13:05:07Z</time>
      </trkpt>
      <trkpt lat="49.74333" lon="2.35118">
        <ele>52.4</ele>
        <time>2023-03-01T13:05:08Z</time>
      </trkpt>
      <trkpt lat="49.74333" lon="2.35119">
        <ele>52.4</ele>
        <time>2023-03-01T13:05:09Z</time>
      </trkpt>
      <trkpt lat="49.74332" lon="2.35118">
        <ele>52.5</ele>
        <time>2023-03-01T13:05:11Z</time>
      </trkpt>
      <trkpt lat="49.74331" lon="2.35118">
        <ele>52.5</ele>
        <time>2023-03-01T13:05:12Z</time>
      </trkpt>
      <trkpt lat="49.7433" lon="2.35116">
        <ele>52.5</ele>
        <time>2023-03-01T13:05:13Z</time>
      </trkpt>
      <trkpt lat="49.74329" lon="2.35115">
        <ele>52.5</ele>
        <time>2023-03-01T13:05:14Z</time>
      </trkpt>
      <trkpt lat="49.74328" lon="2.35113">
        <ele>52.5</ele>
        <time>2023-03-01T13:05:15Z</time>
      </trkpt>
      <trkpt lat="49.74326" lon="2.35112">
        <ele>52.5</ele>
        <time>2023-03-01T13:05:16Z</time>
      </trkpt>
      <trkpt lat="49.74325" lon="2.35111">
        <ele>52.5</ele>
        <time>2023-03-01T13:05:17Z</time>
      </trkpt>
      <trkpt lat="49.74324" lon="2.35109">
        <ele>52.5</ele>
        <time>2023-03-01T13:05:18Z</time>
      </trkpt>
      <trkpt lat="49.74322" lon="2.35107">
        <ele>52.5</ele>
        <time>2023-03-01T13:05:20Z</time>
      </trkpt>
      <trkpt lat="49.74321" lon="2.35106">
        <ele>52.5</ele>
        <time>2023-03-01T13:05:21Z</time>
      </trkpt>
      <trkpt lat="49.7432" lon="2.35105">
        <ele>52.5</ele>
        <time>2023-03-01T13:05:22Z</time>
      </trkpt>
      <trkpt lat="49.74318" lon="2.35104">
        <ele>52.5</ele>
        <time>2023-03-01T13:05:23Z</time>
      </trkpt>
      <trkpt lat="49.74317" lon="2.35102">
        <ele>52.6</ele>
        <time>2023-03-01T13:05:24Z</time>
      </trkpt>
      <trkpt lat="49.74316" lon="2.35101">
        <ele>52.6</ele>
        <time>2023-03-01T13:05:25Z</time>
      </trkpt>
      <trkpt lat="49.74315" lon="2.351">
        <ele>52.6</ele>
        <time>2023-03-01T13:05:26Z</time>
      </trkpt>
      <trkpt lat="49.74313" lon="2.35099">
        <ele>52.6</ele>
        <time>2023-03-01T13:05:28Z</time>
      </trkpt>
      <trkpt lat="49.74312" lon="2.35098">
        <ele>52.6</ele>
        <time>2023-03-01T13:05:29Z</time>
      </trkpt>
      <trkpt lat="49.74311" lon="2.35098">
        <ele>52.5</ele>
        <time>2023-03-01T13:05:30Z</time>
      </trkpt>
      <trkpt lat="49.74309" lon="2.35097">
        <ele>52.5</ele>
        <time>2023-03-01T13:05:31Z</time>
      </trkpt>
      <trkpt lat="49.74308" lon="2.35097">
        <ele>52.5</ele>
        <time>2023-03-01T13:05:32Z</time>
      </trkpt>
      <trkpt lat="49.74305" lon="2.35097">
        <ele>52.5</ele>
        <time>2023-03-01T13:05:34Z</time>
      </trkpt>
      <trkpt lat="49.74303" lon="2.35096">
        <ele>52.5</ele>
        <time>2023-03-01T13:05:36Z</time>
      </trkpt>
      <trkpt lat="49.74301" lon="2.35096">
        <ele>52.5</ele>
        <time>2023-03-01T13:05:37Z</time>
      </trkpt>
      <trkpt lat="49.743" lon="2.35095">
        <ele>52.5</ele>
        <time>2023-03-01T13:05:38Z</time>
      </trkpt>
      <trkpt lat="49.74298" lon="2.35094">
        <ele>52.5</ele>
        <time>2023-03-01T13:05:39Z</time>
      </trkpt>
      <trkpt lat="49.74297" lon="2.35094">
        <ele>52.5</ele>
        <time>2023-03-01T13:05:40Z</time>
      </trkpt>
      <trkpt lat="49.74295" lon="2.35093">
        <ele>52.5</ele>
        <time>2023-03-01T13:05:41Z</time>
      </trkpt>
      <trkpt lat="49.74294" lon="2.35092">
        <ele>52.5</ele>
        <time>2023-03-01T13:05:42Z</time>
      </trkpt>
      <trkpt lat="49.74292" lon="2.35091">
        <ele>52.5</ele>
        <time>2023-03-01T13:05:44Z</time>
      </trkpt>
      <trkpt lat="49.74291" lon="2.35091">
        <ele>52.5</ele>
        <time>2023-03-01T13:05:45Z</time>
      </trkpt>
      <trkpt lat="49.74289" lon="2.3509">
        <ele>52.5</ele>
        <time>2023-03-01T13:05:46Z</time>
      </trkpt>
      <trkpt lat="49.74288" lon="2.3509">
        <ele>52.5</ele>
        <time>2023-03-01T13:05:47Z</time>
      </trkpt>
      <trkpt lat="49.74287" lon="2.35089">
        <ele>52.5</ele>
        <time>2023-03-01T13:05:48Z</time>
      </trkpt>
      <trkpt lat="49.74285" lon="2.35089">
        <ele>52.5</ele>
        <time>2023-03-01T13:05:49Z</time>
      </trkpt>
      <trkpt lat="49.74284" lon="2.35088">
        <ele>52.5</ele>
        <time>2023-03-01T13:05:50Z</time>
      </trkpt>
      <trkpt lat="49.74281" lon="2.35088">
        <ele>52.5</ele>
        <time>2023-03-01T13:05:51Z</time>
      </trkpt>
      <trkpt lat="49.7428" lon="2.35087">
        <ele>52.5</ele>
        <time>2023-03-01T13:05:53Z</time>
      </trkpt>
      <trkpt lat="49.74278" lon="2.35087">
        <ele>52.5</ele>
        <time>2023-03-01T13:05:54Z</time>
      </trkpt>
      <trkpt lat="49.74277" lon="2.35086">
        <ele>52.5</ele>
        <time>2023-03-01T13:05:55Z</time>
      </trkpt>
      <trkpt lat="49.74276" lon="2.35086">
        <ele>52.5</ele>
        <time>2023-03-01T13:05:56Z</time>
      </trkpt>
      <trkpt lat="49.74274" lon="2.35085">
        <ele>52.6</ele>
        <time>2023-03-01T13:05:57Z</time>
      </trkpt>
      <trkpt lat="49.74271" lon="2.35084">
        <ele>52.6</ele>
        <time>2023-03-01T13:05:58Z</time>
      </trkpt>
      <trkpt lat="49.74271" lon="2.35084">
        <ele>52.6</ele>
        <time>2023-03-01T13:05:59Z</time>
      </trkpt>
      <trkpt lat="49.74269" lon="2.35083">
        <ele>52.6</ele>
        <time>2023-03-01T13:06:01Z</time>
      </trkpt>
      <trkpt lat="49.74268" lon="2.35083">
        <ele>52.6</ele>
        <time>2023-03-01T13:06:02Z</time>
      </trkpt>
      <trkpt lat="49.74266" lon="2.35082">
        <ele>52.6</ele>
        <time>2023-03-01T13:06:03Z</time>
      </trkpt>
      <trkpt lat="49.74265" lon="2.35081">
        <ele>52.6</ele>
        <time>2023-03-01T13:06:04Z</time>
      </trkpt>
      <trkpt lat="49.74264" lon="2.3508">
        <ele>52.6</ele>
        <time>2023-03-01T13:06:05Z</time>
      </trkpt>
      <trkpt lat="49.74262" lon="2.3508">
        <ele>52.7</ele>
        <time>2023-03-01T13:06:06Z</time>
      </trkpt>
      <trkpt lat="49.74261" lon="2.35079">
        <ele>52.7</ele>
        <time>2023-03-01T13:06:08Z</time>
      </trkpt>
      <trkpt lat="49.7426" lon="2.35078">
        <ele>52.7</ele>
        <time>2023-03-01T13:06:09Z</time>
      </trkpt>
      <trkpt lat="49.74258" lon="2.35077">
        <ele>52.7</ele>
        <time>2023-03-01T13:06:10Z</time>
      </trkpt>
      <trkpt lat="49.74257" lon="2.35076">
        <ele>52.7</ele>
        <time>2023-03-01T13:06:11Z</time>
      </trkpt>
      <trkpt lat="49.74256" lon="2.35076">
        <ele>52.7</ele>
        <time>2023-03-01T13:06:12Z</time>
      </trkpt>
      <trkpt lat="49.74254" lon="2.35074">
        <ele>52.7</ele>
        <time>2023-03-01T13:06:13Z</time>
      </trkpt>
      <trkpt lat="49.74254" lon="2.35074">
        <ele>52.7</ele>
        <time>2023-03-01T13:06:14Z</time>
      </trkpt>
      <trkpt lat="49.74253" lon="2.35073">
        <ele>52.7</ele>
        <time>2023-03-01T13:06:15Z</time>
      </trkpt>
      <trkpt lat="49.74251" lon="2.35071">
        <ele>52.7</ele>
        <time>2023-03-01T13:06:16Z</time>
      </trkpt>
      <trkpt lat="49.7425" lon="2.3507">
        <ele>52.7</ele>
        <time>2023-03-01T13:06:18Z</time>
      </trkpt>
      <trkpt lat="49.74249" lon="2.35069">
        <ele>52.7</ele>
        <time>2023-03-01T13:06:19Z</time>
      </trkpt>
      <trkpt lat="49.74249" lon="2.35068">
        <ele>52.7</ele>
        <time>2023-03-01T13:06:20Z</time>
      </trkpt>
      <trkpt lat="49.74247" lon="2.35067">
        <ele>52.7</ele>
        <time>2023-03-01T13:06:21Z</time>
      </trkpt>
      <trkpt lat="49.74246" lon="2.35066">
        <ele>52.7</ele>
        <time>2023-03-01T13:06:23Z</time>
      </trkpt>
      <trkpt lat="49.74245" lon="2.35064">
        <ele>52.7</ele>
        <time>2023-03-01T13:06:24Z</time>
      </trkpt>
      <trkpt lat="49.74244" lon="2.35064">
        <ele>52.7</ele>
        <time>2023-03-01T13:06:25Z</time>
      </trkpt>
      <trkpt lat="49.74243" lon="2.35063">
        <ele>52.7</ele>
        <time>2023-03-01T13:06:26Z</time>
      </trkpt>
      <trkpt lat="49.74241" lon="2.35063">
        <ele>52.7</ele>
        <time>2023-03-01T13:06:27Z</time>
      </trkpt>
      <trkpt lat="49.7424" lon="2.35062">
        <ele>52.7</ele>
        <time>2023-03-01T13:06:28Z</time>
      </trkpt>
      <trkpt lat="49.74239" lon="2.35062">
        <ele>52.7</ele>
        <time>2023-03-01T13:06:29Z</time>
      </trkpt>
      <trkpt lat="49.74238" lon="2.35062">
        <ele>52.7</ele>
        <time>2023-03-01T13:06:31Z</time>
      </trkpt>
      <trkpt lat="49.74237" lon="2.35062">
        <ele>52.7</ele>
        <time>2023-03-01T13:06:32Z</time>
      </trkpt>
      <trkpt lat="49.74236" lon="2.35062">
        <ele>52.7</ele>
        <time>2023-03-01T13:06:33Z</time>
      </trkpt>
      <trkpt lat="49.74235" lon="2.35062">
        <ele>52.7</ele>
        <time>2023-03-01T13:06:34Z</time>
      </trkpt>
      <trkpt lat="49.74234" lon="2.35062">
        <ele>52.7</ele>
        <time>2023-03-01T13:06:35Z</time>
      </trkpt>
      <trkpt lat="49.74233" lon="2.35061">
        <ele>52.7</ele>
        <time>2023-03-01T13:06:36Z</time>
      </trkpt>
      <trkpt lat="49.74233" lon="2.3506">
        <ele>52.7</ele>
        <time>2023-03-01T13:06:37Z</time>
      </trkpt>
      <trkpt lat="49.74232" lon="2.35057">
        <ele>52.7</ele>
        <time>2023-03-01T13:06:39Z</time>
      </trkpt>
      <trkpt lat="49.74231" lon="2.35056">
        <ele>52.7</ele>
        <time>2023-03-01T13:06:40Z</time>
      </trkpt>
      <trkpt lat="49.74231" lon="2.35056">
        <ele>52.7</ele>
        <time>2023-03-01T13:06:41Z</time>
      </trkpt>
      <trkpt lat="49.74229" lon="2.35053">
        <ele>52.7</ele>
        <time>2023-03-01T13:06:42Z</time>
      </trkpt>
      <trkpt lat="49.74229" lon="2.35053">
        <ele>52.7</ele>
        <time>2023-03-01T13:06:43Z</time>
      </trkpt>
      <trkpt lat="49.74228" lon="2.35052">
        <ele>52.7</ele>
        <time>2023-03-01T13:06:44Z</time>
      </trkpt>
      <trkpt lat="49.74227" lon="2.35051">
        <ele>52.7</ele>
        <time>2023-03-01T13:06:45Z</time>
      </trkpt>
      <trkpt lat="49.74227" lon="2.3505">
        <ele>52.7</ele>
        <time>2023-03-01T13:06:47Z</time>
      </trkpt>
      <trkpt lat="49.74226" lon="2.35049">
        <ele>52.7</ele>
        <time>2023-03-01T13:06:48Z</time>
      </trkpt>
      <trkpt lat="49.74223" lon="2.35047">
        <ele>52.7</ele>
        <time>2023-03-01T13:06:49Z</time>
      </trkpt>
      <trkpt lat="49.74223" lon="2.35046">
        <ele>52.7</ele>
        <time>2023-03-01T13:06:50Z</time>
      </trkpt>
      <trkpt lat="49.74222" lon="2.35046">
        <ele>52.7</ele>
        <time>2023-03-01T13:06:51Z</time>
      </trkpt>
      <trkpt lat="49.74221" lon="2.35044">
        <ele>52.7</ele>
        <time>2023-03-01T13:06:52Z</time>
      </trkpt>
      <trkpt lat="49.7422" lon="2.35043">
        <ele>52.7</ele>
        <time>2023-03-01T13:06:53Z</time>
      </trkpt>
      <trkpt lat="49.74219" lon="2.35042">
        <ele>52.7</ele>
        <time>2023-03-01T13:06:54Z</time>
      </trkpt>
      <trkpt lat="49.74217" lon="2.35041">
        <ele>52.7</ele>
        <time>2023-03-01T13:06:55Z</time>
      </trkpt>
      <trkpt lat="49.74217" lon="2.3504">
        <ele>52.7</ele>
        <time>2023-03-01T13:06:57Z</time>
      </trkpt>
      <trkpt lat="49.74216" lon="2.35039">
        <ele>52.7</ele>
        <time>2023-03-01T13:06:58Z</time>
      </trkpt>
      <trkpt lat="49.74214" lon="2.35038">
        <ele>52.6</ele>
        <time>2023-03-01T13:06:59Z</time>
      </trkpt>
      <trkpt lat="49.74213" lon="2.35038">
        <ele>52.6</ele>
        <time>2023-03-01T13:07:00Z</time>
      </trkpt>
      <trkpt lat="49.74211" lon="2.35037">
        <ele>52.6</ele>
        <time>2023-03-01T13:07:01Z</time>
      </trkpt>
      <trkpt lat="49.7421" lon="2.35036">
        <ele>52.6</ele>
        <time>2023-03-01T13:07:02Z</time>
      </trkpt>
      <trkpt lat="49.74209" lon="2.35035">
        <ele>52.6</ele>
        <time>2023-03-01T13:07:04Z</time>
      </trkpt>
      <trkpt lat="49.74207" lon="2.35034">
        <ele>52.6</ele>
        <time>2023-03-01T13:07:05Z</time>
      </trkpt>
      <trkpt lat="49.74206" lon="2.35033">
        <ele>52.5</ele>
        <time>2023-03-01T13:07:06Z</time>
      </trkpt>
      <trkpt lat="49.74204" lon="2.35032">
        <ele>52.5</ele>
        <time>2023-03-01T13:07:07Z</time>
      </trkpt>
      <trkpt lat="49.74203" lon="2.35031">
        <ele>52.5</ele>
        <time>2023-03-01T13:07:08Z</time>
      </trkpt>
      <trkpt lat="49.74201" lon="2.3503">
        <ele>52.5</ele>
        <time>2023-03-01T13:07:09Z</time>
      </trkpt>
      <trkpt lat="49.742" lon="2.3503">
        <ele>52.5</ele>
        <time>2023-03-01T13:07:10Z</time>
      </trkpt>
      <trkpt lat="49.74199" lon="2.35029">
        <ele>52.4</ele>
        <time>2023-03-01T13:07:11Z</time>
      </trkpt>
      <trkpt lat="49.74198" lon="2.35029">
        <ele>52.4</ele>
        <time>2023-03-01T13:07:13Z</time>
      </trkpt>
      <trkpt lat="49.74196" lon="2.35028">
        <ele>52.4</ele>
        <time>2023-03-01T13:07:14Z</time>
      </trkpt>
      <trkpt lat="49.74195" lon="2.35028">
        <ele>52.4</ele>
        <time>2023-03-01T13:07:15Z</time>
      </trkpt>
      <trkpt lat="49.74193" lon="2.35027">
        <ele>52.4</ele>
        <time>2023-03-01T13:07:16Z</time>
      </trkpt>
      <trkpt lat="49.74192" lon="2.35027">
        <ele>52.4</ele>
        <time>2023-03-01T13:07:17Z</time>
      </trkpt>
      <trkpt lat="49.74191" lon="2.35026">
        <ele>52.3</ele>
        <time>2023-03-01T13:07:18Z</time>
      </trkpt>
      <trkpt lat="49.74189" lon="2.35025">
        <ele>52.3</ele>
        <time>2023-03-01T13:07:19Z</time>
      </trkpt>
      <trkpt lat="49.74188" lon="2.35025">
        <ele>52.3</ele>
        <time>2023-03-01T13:07:21Z</time>
      </trkpt>
      <trkpt lat="49.74187" lon="2.35024">
        <ele>52.3</ele>
        <time>2023-03-01T13:07:22Z</time>
      </trkpt>
      <trkpt lat="49.74186" lon="2.35024">
        <ele>52.3</ele>
        <time>2023-03-01T13:07:23Z</time>
      </trkpt>
      <trkpt lat="49.74183" lon="2.35022">
        <ele>52.3</ele>
        <time>2023-03-01T13:07:24Z</time>
      </trkpt>
      <trkpt lat="49.74182" lon="2.35022">
        <ele>52.3</ele>
        <time>2023-03-01T13:07:25Z</time>
      </trkpt>
      <trkpt lat="49.74181" lon="2.35022">
        <ele>52.3</ele>
        <time>2023-03-01T13:07:26Z</time>
      </trkpt>
      <trkpt lat="49.7418" lon="2.35021">
        <ele>52.3</ele>
        <time>2023-03-01T13:07:27Z</time>
      </trkpt>
      <trkpt lat="49.74177" lon="2.3502">
        <ele>52.3</ele>
        <time>2023-03-01T13:07:28Z</time>
      </trkpt>
      <trkpt lat="49.74176" lon="2.3502">
        <ele>52.3</ele>
        <time>2023-03-01T13:07:29Z</time>
      </trkpt>
      <trkpt lat="49.74173" lon="2.35019">
        <ele>52.3</ele>
        <time>2023-03-01T13:07:31Z</time>
      </trkpt>
      <trkpt lat="49.74172" lon="2.35018">
        <ele>52.3</ele>
        <time>2023-03-01T13:07:32Z</time>
      </trkpt>
      <trkpt lat="49.7417" lon="2.35017">
        <ele>52.3</ele>
        <time>2023-03-01T13:07:33Z</time>
      </trkpt>
      <trkpt lat="49.74169" lon="2.35017">
        <ele>52.3</ele>
        <time>2023-03-01T13:07:35Z</time>
      </trkpt>
      <trkpt lat="49.74168" lon="2.35016">
        <ele>52.3</ele>
        <time>2023-03-01T13:07:36Z</time>
      </trkpt>
      <trkpt lat="49.74167" lon="2.35016">
        <ele>52.3</ele>
        <time>2023-03-01T13:07:37Z</time>
      </trkpt>
      <trkpt lat="49.74166" lon="2.35015">
        <ele>52.3</ele>
        <time>2023-03-01T13:07:38Z</time>
      </trkpt>
      <trkpt lat="49.74163" lon="2.35014">
        <ele>52.4</ele>
        <time>2023-03-01T13:07:39Z</time>
      </trkpt>
      <trkpt lat="49.74163" lon="2.35014">
        <ele>52.4</ele>
        <time>2023-03-01T13:07:40Z</time>
      </trkpt>
      <trkpt lat="49.74162" lon="2.35014">
        <ele>52.4</ele>
        <time>2023-03-01T13:07:41Z</time>
      </trkpt>
      <trkpt lat="49.74161" lon="2.35013">
        <ele>52.4</ele>
        <time>2023-03-01T13:07:42Z</time>
      </trkpt>
      <trkpt lat="49.74159" lon="2.35013">
        <ele>52.5</ele>
        <time>2023-03-01T13:07:43Z</time>
      </trkpt>
      <trkpt lat="49.74158" lon="2.35012">
        <ele>52.5</ele>
        <time>2023-03-01T13:07:45Z</time>
      </trkpt>
      <trkpt lat="49.74156" lon="2.35011">
        <ele>52.5</ele>
        <time>2023-03-01T13:07:46Z</time>
      </trkpt>
      <trkpt lat="49.74155" lon="2.3501">
        <ele>52.6</ele>
        <time>2023-03-01T13:07:47Z</time>
      </trkpt>
      <trkpt lat="49.74155" lon="2.3501">
        <ele>52.6</ele>
        <time>2023-03-01T13:07:48Z</time>
      </trkpt>
      <trkpt lat="49.74154" lon="2.35009">
        <ele>52.6</ele>
        <time>2023-03-01T13:07:49Z</time>
      </trkpt>
      <trkpt lat="49.74153" lon="2.35007">
        <ele>52.6</ele>
        <time>2023-03-01T13:07:50Z</time>
      </trkpt>
      <trkpt lat="49.74152" lon="2.35006">
        <ele>52.7</ele>
        <time>2023-03-01T13:07:51Z</time>
      </trkpt>
      <trkpt lat="49.74152" lon="2.35003">
        <ele>52.7</ele>
        <time>2023-03-01T13:07:53Z</time>
      </trkpt>
      <trkpt lat="49.74152" lon="2.35001">
        <ele>52.7</ele>
        <time>2023-03-01T13:07:54Z</time>
      </trkpt>
      <trkpt lat="49.74151" lon="2.35">
        <ele>52.7</ele>
        <time>2023-03-01T13:07:55Z</time>
      </trkpt>
      <trkpt lat="49.74152" lon="2.34998">
        <ele>52.7</ele>
        <time>2023-03-01T13:07:56Z</time>
      </trkpt>
      <trkpt lat="49.74152" lon="2.34996">
        <ele>52.7</ele>
        <time>2023-03-01T13:07:57Z</time>
      </trkpt>
      <trkpt lat="49.74152" lon="2.34994">
        <ele>52.7</ele>
        <time>2023-03-01T13:07:58Z</time>
      </trkpt>
      <trkpt lat="49.74154" lon="2.34992">
        <ele>52.7</ele>
        <time>2023-03-01T13:08:00Z</time>
      </trkpt>
      <trkpt lat="49.74155" lon="2.3499">
        <ele>52.7</ele>
        <time>2023-03-01T13:08:01Z</time>
      </trkpt>
      <trkpt lat="49.74156" lon="2.34988">
        <ele>52.8</ele>
        <time>2023-03-01T13:08:02Z</time>
      </trkpt>
      <trkpt lat="49.74157" lon="2.34987">
        <ele>52.8</ele>
        <time>2023-03-01T13:08:03Z</time>
      </trkpt>
      <trkpt lat="49.74159" lon="2.34985">
        <ele>52.8</ele>
        <time>2023-03-01T13:08:05Z</time>
      </trkpt>
      <trkpt lat="49.7416" lon="2.34984">
        <ele>52.8</ele>
        <time>2023-03-01T13:08:06Z</time>
      </trkpt>
      <trkpt lat="49.74161" lon="2.34982">
        <ele>52.8</ele>
        <time>2023-03-01T13:08:07Z</time>
      </trkpt>
      <trkpt lat="49.74163" lon="2.34978">
        <ele>52.8</ele>
        <time>2023-03-01T13:08:08Z</time>
      </trkpt>
      <trkpt lat="49.74164" lon="2.34976">
        <ele>52.8</ele>
        <time>2023-03-01T13:08:09Z</time>
      </trkpt>
      <trkpt lat="49.74164" lon="2.34974">
        <ele>52.8</ele>
        <time>2023-03-01T13:08:10Z</time>
      </trkpt>
      <trkpt lat="49.74165" lon="2.34973">
        <ele>52.8</ele>
        <time>2023-03-01T13:08:12Z</time>
      </trkpt>
      <trkpt lat="49.74165" lon="2.34971">
        <ele>52.8</ele>
        <time>2023-03-01T13:08:13Z</time>
      </trkpt>
      <trkpt lat="49.74167" lon="2.34967">
        <ele>52.8</ele>
        <time>2023-03-01T13:08:14Z</time>
      </trkpt>
      <trkpt lat="49.74167" lon="2.34966">
        <ele>52.8</ele>
        <time>2023-03-01T13:08:15Z</time>
      </trkpt>
      <trkpt lat="49.74168" lon="2.34964">
        <ele>52.8</ele>
        <time>2023-03-01T13:08:16Z</time>
      </trkpt>
      <trkpt lat="49.74168" lon="2.34962">
        <ele>52.8</ele>
        <time>2023-03-01T13:08:17Z</time>
      </trkpt>
      <trkpt lat="49.74169" lon="2.3496">
        <ele>52.8</ele>
        <time>2023-03-01T13:08:18Z</time>
      </trkpt>
      <trkpt lat="49.7417" lon="2.34957">
        <ele>52.8</ele>
        <time>2023-03-01T13:08:19Z</time>
      </trkpt>
      <trkpt lat="49.7417" lon="2.34955">
        <ele>52.8</ele>
        <time>2023-03-01T13:08:20Z</time>
      </trkpt>
      <trkpt lat="49.74171" lon="2.34952">
        <ele>52.8</ele>
        <time>2023-03-01T13:08:22Z</time>
      </trkpt>
      <trkpt lat="49.74172" lon="2.3495">
        <ele>52.8</ele>
        <time>2023-03-01T13:08:23Z</time>
      </trkpt>
      <trkpt lat="49.74173" lon="2.34948">
        <ele>52.8</ele>
        <time>2023-03-01T13:08:24Z</time>
      </trkpt>
      <trkpt lat="49.74173" lon="2.34946">
        <ele>52.8</ele>
        <time>2023-03-01T13:08:25Z</time>
      </trkpt>
      <trkpt lat="49.74174" lon="2.34944">
        <ele>52.8</ele>
        <time>2023-03-01T13:08:26Z</time>
      </trkpt>
      <trkpt lat="49.74175" lon="2.3494">
        <ele>52.9</ele>
        <time>2023-03-01T13:08:27Z</time>
      </trkpt>
      <trkpt lat="49.74175" lon="2.34938">
        <ele>52.9</ele>
        <time>2023-03-01T13:08:28Z</time>
      </trkpt>
      <trkpt lat="49.74175" lon="2.34936">
        <ele>52.9</ele>
        <time>2023-03-01T13:08:29Z</time>
      </trkpt>
      <trkpt lat="49.74176" lon="2.34935">
        <ele>52.9</ele>
        <time>2023-03-01T13:08:30Z</time>
      </trkpt>
      <trkpt lat="49.74176" lon="2.34934">
        <ele>52.9</ele>
        <time>2023-03-01T13:08:31Z</time>
      </trkpt>
      <trkpt lat="49.74176" lon="2.34932">
        <ele>52.9</ele>
        <time>2023-03-01T13:08:33Z</time>
      </trkpt>
      <trkpt lat="49.74176" lon="2.3493">
        <ele>52.9</ele>
        <time>2023-03-01T13:08:34Z</time>
      </trkpt>
      <trkpt lat="49.74176" lon="2.34927">
        <ele>52.9</ele>
        <time>2023-03-01T13:08:35Z</time>
      </trkpt>
      <trkpt lat="49.74176" lon="2.34925">
        <ele>52.9</ele>
        <time>2023-03-01T13:08:36Z</time>
      </trkpt>
      <trkpt lat="49.74176" lon="2.34923">
        <ele>52.9</ele>
        <time>2023-03-01T13:08:37Z</time>
      </trkpt>
      <trkpt lat="49.74175" lon="2.3492">
        <ele>52.9</ele>
        <time>2023-03-01T13:08:38Z</time>
      </trkpt>
      <trkpt lat="49.74175" lon="2.34918">
        <ele>52.9</ele>
        <time>2023-03-01T13:08:39Z</time>
      </trkpt>
      <trkpt lat="49.74175" lon="2.34915">
        <ele>52.9</ele>
        <time>2023-03-01T13:08:40Z</time>
      </trkpt>
      <trkpt lat="49.74175" lon="2.34913">
        <ele>52.9</ele>
        <time>2023-03-01T13:08:42Z</time>
      </trkpt>
      <trkpt lat="49.74175" lon="2.34912">
        <ele>52.9</ele>
        <time>2023-03-01T13:08:43Z</time>
      </trkpt>
      <trkpt lat="49.74174" lon="2.3491">
        <ele>52.9</ele>
        <time>2023-03-01T13:08:44Z</time>
      </trkpt>
      <trkpt lat="49.74174" lon="2.34908">
        <ele>52.9</ele>
        <time>2023-03-01T13:08:45Z</time>
      </trkpt>
      <trkpt lat="49.74173" lon="2.34907">
        <ele>52.9</ele>
        <time>2023-03-01T13:08:46Z</time>
      </trkpt>
      <trkpt lat="49.74173" lon="2.34905">
        <ele>52.9</ele>
        <time>2023-03-01T13:08:47Z</time>
      </trkpt>
      <trkpt lat="49.74172" lon="2.34904">
        <ele>52.9</ele>
        <time>2023-03-01T13:08:48Z</time>
      </trkpt>
      <trkpt lat="49.74172" lon="2.34902">
        <ele>52.9</ele>
        <time>2023-03-01T13:08:49Z</time>
      </trkpt>
      <trkpt lat="49.74172" lon="2.349">
        <ele>52.9</ele>
        <time>2023-03-01T13:08:50Z</time>
      </trkpt>
      <trkpt lat="49.74171" lon="2.34898">
        <ele>52.9</ele>
        <time>2023-03-01T13:08:52Z</time>
      </trkpt>
      <trkpt lat="49.74171" lon="2.34896">
        <ele>52.9</ele>
        <time>2023-03-01T13:08:53Z</time>
      </trkpt>
      <trkpt lat="49.74171" lon="2.34892">
        <ele>53</ele>
        <time>2023-03-01T13:08:54Z</time>
      </trkpt>
      <trkpt lat="49.74171" lon="2.34892">
        <ele>53</ele>
        <time>2023-03-01T13:08:55Z</time>
      </trkpt>
      <trkpt lat="49.74171" lon="2.3489">
        <ele>53</ele>
        <time>2023-03-01T13:08:57Z</time>
      </trkpt>
      <trkpt lat="49.74171" lon="2.34888">
        <ele>53</ele>
        <time>2023-03-01T13:08:58Z</time>
      </trkpt>
      <trkpt lat="49.74172" lon="2.34887">
        <ele>53</ele>
        <time>2023-03-01T13:08:59Z</time>
      </trkpt>
      <trkpt lat="49.74173" lon="2.34886">
        <ele>53</ele>
        <time>2023-03-01T13:09:02Z</time>
      </trkpt>
      <trkpt lat="49.74173" lon="2.34887">
        <ele>53</ele>
        <time>2023-03-01T13:09:04Z</time>
      </trkpt>
      <trkpt lat="49.74173" lon="2.34887">
        <ele>53</ele>
        <time>2023-03-01T13:09:05Z</time>
      </trkpt>
      <trkpt lat="49.74173" lon="2.34887">
        <ele>53</ele>
        <time>2023-03-01T13:09:06Z</time>
      </trkpt>
      <trkpt lat="49.74173" lon="2.34887">
        <ele>53</ele>
        <time>2023-03-01T13:09:08Z</time>
      </trkpt>
      <trkpt lat="49.74173" lon="2.34887">
        <ele>53</ele>
        <time>2023-03-01T13:09:09Z</time>
      </trkpt>
      <trkpt lat="49.74173" lon="2.34887">
        <ele>53</ele>
        <time>2023-03-01T13:09:10Z</time>
      </trkpt>
      <trkpt lat="49.74173" lon="2.34887">
        <ele>53</ele>
        <time>2023-03-01T13:09:12Z</time>
      </trkpt>
      <trkpt lat="49.74173" lon="2.34887">
        <ele>53</ele>
        <time>2023-03-01T13:09:13Z</time>
      </trkpt>
      <trkpt lat="49.74173" lon="2.34887">
        <ele>53</ele>
        <time>2023-03-01T13:09:14Z</time>
      </trkpt>
      <trkpt lat="49.74173" lon="2.34887">
        <ele>53</ele>
        <time>2023-03-01T13:09:15Z</time>
      </trkpt>
      <trkpt lat="49.74173" lon="2.34888">
        <ele>53</ele>
        <time>2023-03-01T13:09:16Z</time>
      </trkpt>
      <trkpt lat="49.74173" lon="2.34888">
        <ele>53</ele>
        <time>2023-03-01T13:09:17Z</time>
      </trkpt>
      <trkpt lat="49.74173" lon="2.34888">
        <ele>53</ele>
        <time>2023-03-01T13:09:18Z</time>
      </trkpt>
      <trkpt lat="49.74173" lon="2.34888">
        <ele>53</ele>
        <time>2023-03-01T13:09:20Z</time>
      </trkpt>
      <trkpt lat="49.74173" lon="2.34888">
        <ele>53</ele>
        <time>2023-03-01T13:09:21Z</time>
      </trkpt>
      <trkpt lat="49.74173" lon="2.34888">
        <ele>53</ele>
        <time>2023-03-01T13:09:22Z</time>
      </trkpt>
      <trkpt lat="49.74173" lon="2.34888">
        <ele>53</ele>
        <time>2023-03-01T13:09:23Z</time>
      </trkpt>
      <trkpt lat="49.74173" lon="2.34888">
        <ele>53</ele>
        <time>2023-03-01T13:09:24Z</time>
      </trkpt>
      <trkpt lat="49.74173" lon="2.34888">
        <ele>53</ele>
        <time>2023-03-01T13:09:25Z</time>
      </trkpt>
      <trkpt lat="49.74173" lon="2.34888">
        <ele>53</ele>
        <time>2023-03-01T13:09:26Z</time>
      </trkpt>
      <trkpt lat="49.74173" lon="2.34888">
        <ele>53</ele>
        <time>2023-03-01T13:09:27Z</time>
      </trkpt>
      <trkpt lat="49.74173" lon="2.34888">
        <ele>53</ele>
        <time>2023-03-01T13:09:28Z</time>
      </trkpt>
      <trkpt lat="49.74173" lon="2.34888">
        <ele>53</ele>
        <time>2023-03-01T13:09:29Z</time>
      </trkpt>
      <trkpt lat="49.74173" lon="2.34888">
        <ele>53</ele>
        <time>2023-03-01T13:09:30Z</time>
      </trkpt>
      <trkpt lat="49.74173" lon="2.34888">
        <ele>53</ele>
        <time>2023-03-01T13:09:31Z</time>
      </trkpt>
      <trkpt lat="49.74173" lon="2.34889">
        <ele>53</ele>
        <time>2023-03-01T13:09:32Z</time>
      </trkpt>
      <trkpt lat="49.74172" lon="2.34891">
        <ele>53</ele>
        <time>2023-03-01T13:09:33Z</time>
      </trkpt>
      <trkpt lat="49.74172" lon="2.34891">
        <ele>53</ele>
        <time>2023-03-01T13:09:34Z</time>
      </trkpt>
      <trkpt lat="49.74173" lon="2.34891">
        <ele>53</ele>
        <time>2023-03-01T13:09:35Z</time>
      </trkpt>
      <trkpt lat="49.74173" lon="2.3489">
        <ele>53</ele>
        <time>2023-03-01T13:09:36Z</time>
      </trkpt>
      <trkpt lat="49.74173" lon="2.34889">
        <ele>53</ele>
        <time>2023-03-01T13:09:37Z</time>
      </trkpt>
      <trkpt lat="49.74174" lon="2.34887">
        <ele>53</ele>
        <time>2023-03-01T13:09:38Z</time>
      </trkpt>
      <trkpt lat="49.74174" lon="2.34886">
        <ele>53.1</ele>
        <time>2023-03-01T13:09:40Z</time>
      </trkpt>
      <trkpt lat="49.74174" lon="2.34885">
        <ele>53.1</ele>
        <time>2023-03-01T13:09:41Z</time>
      </trkpt>
      <trkpt lat="49.74175" lon="2.34883">
        <ele>53.1</ele>
        <time>2023-03-01T13:09:42Z</time>
      </trkpt>
      <trkpt lat="49.74175" lon="2.34881">
        <ele>53.1</ele>
        <time>2023-03-01T13:09:43Z</time>
      </trkpt>
      <trkpt lat="49.74176" lon="2.34876">
        <ele>53.1</ele>
        <time>2023-03-01T13:09:44Z</time>
      </trkpt>
      <trkpt lat="49.74176" lon="2.34874">
        <ele>53.1</ele>
        <time>2023-03-01T13:09:45Z</time>
      </trkpt>
      <trkpt lat="49.74176" lon="2.34871">
        <ele>53.2</ele>
        <time>2023-03-01T13:09:47Z</time>
      </trkpt>
      <trkpt lat="49.74175" lon="2.3487">
        <ele>53.2</ele>
        <time>2023-03-01T13:09:48Z</time>
      </trkpt>
      <trkpt lat="49.74175" lon="2.34868">
        <ele>53.2</ele>
        <time>2023-03-01T13:09:49Z</time>
      </trkpt>
      <trkpt lat="49.74175" lon="2.34865">
        <ele>53.2</ele>
        <time>2023-03-01T13:09:50Z</time>
      </trkpt>
      <trkpt lat="49.74175" lon="2.34864">
        <ele>53.2</ele>
        <time>2023-03-01T13:09:51Z</time>
      </trkpt>
      <trkpt lat="49.74174" lon="2.34863">
        <ele>53.3</ele>
        <time>2023-03-01T13:09:52Z</time>
      </trkpt>
      <trkpt lat="49.74174" lon="2.34861">
        <ele>53.3</ele>
        <time>2023-03-01T13:09:53Z</time>
      </trkpt>
      <trkpt lat="49.74173" lon="2.34858">
        <ele>53.3</ele>
        <time>2023-03-01T13:09:55Z</time>
      </trkpt>
      <trkpt lat="49.74172" lon="2.34856">
        <ele>53.3</ele>
        <time>2023-03-01T13:09:56Z</time>
      </trkpt>
      <trkpt lat="49.74172" lon="2.34854">
        <ele>53.4</ele>
        <time>2023-03-01T13:09:57Z</time>
      </trkpt>
      <trkpt lat="49.74172" lon="2.34852">
        <ele>53.4</ele>
        <time>2023-03-01T13:09:58Z</time>
      </trkpt>
      <trkpt lat="49.74171" lon="2.34851">
        <ele>53.4</ele>
        <time>2023-03-01T13:09:59Z</time>
      </trkpt>
      <trkpt lat="49.74171" lon="2.34848">
        <ele>53.4</ele>
        <time>2023-03-01T13:10:00Z</time>
      </trkpt>
      <trkpt lat="49.74171" lon="2.34847">
        <ele>53.5</ele>
        <time>2023-03-01T13:10:02Z</time>
      </trkpt>
      <trkpt lat="49.74171" lon="2.34843">
        <ele>53.5</ele>
        <time>2023-03-01T13:10:03Z</time>
      </trkpt>
      <trkpt lat="49.7417" lon="2.34842">
        <ele>53.5</ele>
        <time>2023-03-01T13:10:04Z</time>
      </trkpt>
      <trkpt lat="49.7417" lon="2.3484">
        <ele>53.5</ele>
        <time>2023-03-01T13:10:05Z</time>
      </trkpt>
      <trkpt lat="49.7417" lon="2.34838">
        <ele>53.6</ele>
        <time>2023-03-01T13:10:06Z</time>
      </trkpt>
      <trkpt lat="49.7417" lon="2.34837">
        <ele>53.6</ele>
        <time>2023-03-01T13:10:07Z</time>
      </trkpt>
      <trkpt lat="49.74169" lon="2.34835">
        <ele>53.6</ele>
        <time>2023-03-01T13:10:08Z</time>
      </trkpt>
      <trkpt lat="49.74169" lon="2.34833">
        <ele>53.6</ele>
        <time>2023-03-01T13:10:10Z</time>
      </trkpt>
      <trkpt lat="49.74169" lon="2.34831">
        <ele>53.6</ele>
        <time>2023-03-01T13:10:11Z</time>
      </trkpt>
      <trkpt lat="49.74169" lon="2.3483">
        <ele>53.7</ele>
        <time>2023-03-01T13:10:12Z</time>
      </trkpt>
      <trkpt lat="49.74169" lon="2.34828">
        <ele>53.7</ele>
        <time>2023-03-01T13:10:13Z</time>
      </trkpt>
      <trkpt lat="49.74169" lon="2.34826">
        <ele>53.7</ele>
        <time>2023-03-01T13:10:14Z</time>
      </trkpt>
      <trkpt lat="49.74169" lon="2.34824">
        <ele>53.7</ele>
        <time>2023-03-01T13:10:15Z</time>
      </trkpt>
      <trkpt lat="49.74169" lon="2.34822">
        <ele>53.7</ele>
        <time>2023-03-01T13:10:16Z</time>
      </trkpt>
      <trkpt lat="49.74168" lon="2.34821">
        <ele>53.8</ele>
        <time>2023-03-01T13:10:17Z</time>
      </trkpt>
      <trkpt lat="49.74169" lon="2.34819">
        <ele>53.8</ele>
        <time>2023-03-01T13:10:18Z</time>
      </trkpt>
      <trkpt lat="49.74169" lon="2.34817">
        <ele>53.8</ele>
        <time>2023-03-01T13:10:20Z</time>
      </trkpt>
      <trkpt lat="49.7417" lon="2.34815">
        <ele>53.8</ele>
        <time>2023-03-01T13:10:21Z</time>
      </trkpt>
      <trkpt lat="49.7417" lon="2.34811">
        <ele>53.9</ele>
        <time>2023-03-01T13:10:22Z</time>
      </trkpt>
      <trkpt lat="49.7417" lon="2.3481">
        <ele>53.9</ele>
        <time>2023-03-01T13:10:23Z</time>
      </trkpt>
      <trkpt lat="49.7417" lon="2.34809">
        <ele>53.9</ele>
        <time>2023-03-01T13:10:24Z</time>
      </trkpt>
      <trkpt lat="49.7417" lon="2.34804">
        <ele>54</ele>
        <time>2023-03-01T13:10:25Z</time>
      </trkpt>
      <trkpt lat="49.7417" lon="2.34804">
        <ele>54</ele>
        <time>2023-03-01T13:10:26Z</time>
      </trkpt>
      <trkpt lat="49.7417" lon="2.34803">
        <ele>54</ele>
        <time>2023-03-01T13:10:27Z</time>
      </trkpt>
      <trkpt lat="49.7417" lon="2.34802">
        <ele>54</ele>
        <time>2023-03-01T13:10:28Z</time>
      </trkpt>
      <trkpt lat="49.74169" lon="2.348">
        <ele>54</ele>
        <time>2023-03-01T13:10:30Z</time>
      </trkpt>
      <trkpt lat="49.74169" lon="2.34798">
        <ele>54</ele>
        <time>2023-03-01T13:10:31Z</time>
      </trkpt>
      <trkpt lat="49.74168" lon="2.34797">
        <ele>54.1</ele>
        <time>2023-03-01T13:10:32Z</time>
      </trkpt>
      <trkpt lat="49.74168" lon="2.34795">
        <ele>54.1</ele>
        <time>2023-03-01T13:10:33Z</time>
      </trkpt>
      <trkpt lat="49.74168" lon="2.34793">
        <ele>54.1</ele>
        <time>2023-03-01T13:10:34Z</time>
      </trkpt>
      <trkpt lat="49.74167" lon="2.3479">
        <ele>54.1</ele>
        <time>2023-03-01T13:10:35Z</time>
      </trkpt>
      <trkpt lat="49.74167" lon="2.3479">
        <ele>54.1</ele>
        <time>2023-03-01T13:10:36Z</time>
      </trkpt>
      <trkpt lat="49.74167" lon="2.34788">
        <ele>54.1</ele>
        <time>2023-03-01T13:10:38Z</time>
      </trkpt>
      <trkpt lat="49.74167" lon="2.34786">
        <ele>54.2</ele>
        <time>2023-03-01T13:10:39Z</time>
      </trkpt>
      <trkpt lat="49.74166" lon="2.34784">
        <ele>54.2</ele>
        <time>2023-03-01T13:10:40Z</time>
      </trkpt>
      <trkpt lat="49.74166" lon="2.34781">
        <ele>54.2</ele>
        <time>2023-03-01T13:10:41Z</time>
      </trkpt>
      <trkpt lat="49.74166" lon="2.34778">
        <ele>54.2</ele>
        <time>2023-03-01T13:10:42Z</time>
      </trkpt>
      <trkpt lat="49.74166" lon="2.34777">
        <ele>54.3</ele>
        <time>2023-03-01T13:10:43Z</time>
      </trkpt>
      <trkpt lat="49.74166" lon="2.34775">
        <ele>54.3</ele>
        <time>2023-03-01T13:10:44Z</time>
      </trkpt>
      <trkpt lat="49.74166" lon="2.34772">
        <ele>54.3</ele>
        <time>2023-03-01T13:10:46Z</time>
      </trkpt>
      <trkpt lat="49.74165" lon="2.3477">
        <ele>54.3</ele>
        <time>2023-03-01T13:10:47Z</time>
      </trkpt>
      <trkpt lat="49.74165" lon="2.34768">
        <ele>54.3</ele>
        <time>2023-03-01T13:10:48Z</time>
      </trkpt>
      <trkpt lat="49.74165" lon="2.34766">
        <ele>54.4</ele>
        <time>2023-03-01T13:10:49Z</time>
      </trkpt>
      <trkpt lat="49.74165" lon="2.34763">
        <ele>54.4</ele>
        <time>2023-03-01T13:10:50Z</time>
      </trkpt>
      <trkpt lat="49.74165" lon="2.34761">
        <ele>54.4</ele>
        <time>2023-03-01T13:10:51Z</time>
      </trkpt>
      <trkpt lat="49.74165" lon="2.3476">
        <ele>54.4</ele>
        <time>2023-03-01T13:10:52Z</time>
      </trkpt>
      <trkpt lat="49.74165" lon="2.34758">
        <ele>54.4</ele>
        <time>2023-03-01T13:10:53Z</time>
      </trkpt>
      <trkpt lat="49.74165" lon="2.34757">
        <ele>54.5</ele>
        <time>2023-03-01T13:10:54Z</time>
      </trkpt>
      <trkpt lat="49.74165" lon="2.34755">
        <ele>54.5</ele>
        <time>2023-03-01T13:10:55Z</time>
      </trkpt>
      <trkpt lat="49.74165" lon="2.34754">
        <ele>54.5</ele>
        <time>2023-03-01T13:10:57Z</time>
      </trkpt>
      <trkpt lat="49.74165" lon="2.34752">
        <ele>54.5</ele>
        <time>2023-03-01T13:10:58Z</time>
      </trkpt>
      <trkpt lat="49.74165" lon="2.3475">
        <ele>54.5</ele>
        <time>2023-03-01T13:10:59Z</time>
      </trkpt>
      <trkpt lat="49.74164" lon="2.34745">
        <ele>54.6</ele>
        <time>2023-03-01T13:11:00Z</time>
      </trkpt>
      <trkpt lat="49.74164" lon="2.34744">
        <ele>54.6</ele>
        <time>2023-03-01T13:11:01Z</time>
      </trkpt>
      <trkpt lat="49.74164" lon="2.34742">
        <ele>54.6</ele>
        <time>2023-03-01T13:11:02Z</time>
      </trkpt>
      <trkpt lat="49.74164" lon="2.3474">
        <ele>54.6</ele>
        <time>2023-03-01T13:11:03Z</time>
      </trkpt>
      <trkpt lat="49.74164" lon="2.34737">
        <ele>54.6</ele>
        <time>2023-03-01T13:11:04Z</time>
      </trkpt>
      <trkpt lat="49.74164" lon="2.34734">
        <ele>54.6</ele>
        <time>2023-03-01T13:11:06Z</time>
      </trkpt>
      <trkpt lat="49.74164" lon="2.34731">
        <ele>54.7</ele>
        <time>2023-03-01T13:11:07Z</time>
      </trkpt>
      <trkpt lat="49.74164" lon="2.34729">
        <ele>54.7</ele>
        <time>2023-03-01T13:11:08Z</time>
      </trkpt>
      <trkpt lat="49.74164" lon="2.34728">
        <ele>54.7</ele>
        <time>2023-03-01T13:11:09Z</time>
      </trkpt>
      <trkpt lat="49.74164" lon="2.34723">
        <ele>54.7</ele>
        <time>2023-03-01T13:11:10Z</time>
      </trkpt>
      <trkpt lat="49.74163" lon="2.34721">
        <ele>54.8</ele>
        <time>2023-03-01T13:11:11Z</time>
      </trkpt>
      <trkpt lat="49.74163" lon="2.3472">
        <ele>54.8</ele>
        <time>2023-03-01T13:11:12Z</time>
      </trkpt>
      <trkpt lat="49.74163" lon="2.34719">
        <ele>54.8</ele>
        <time>2023-03-01T13:11:14Z</time>
      </trkpt>
      <trkpt lat="49.74163" lon="2.34718">
        <ele>54.8</ele>
        <time>2023-03-01T13:11:15Z</time>
      </trkpt>
      <trkpt lat="49.74163" lon="2.34715">
        <ele>54.8</ele>
        <time>2023-03-01T13:11:16Z</time>
      </trkpt>
      <trkpt lat="49.74163" lon="2.34713">
        <ele>54.9</ele>
        <time>2023-03-01T13:11:17Z</time>
      </trkpt>
      <trkpt lat="49.74163" lon="2.34711">
        <ele>54.9</ele>
        <time>2023-03-01T13:11:18Z</time>
      </trkpt>
      <trkpt lat="49.74164" lon="2.34709">
        <ele>54.9</ele>
        <time>2023-03-01T13:11:19Z</time>
      </trkpt>
      <trkpt lat="49.74164" lon="2.34706">
        <ele>55</ele>
        <time>2023-03-01T13:11:20Z</time>
      </trkpt>
      <trkpt lat="49.74164" lon="2.34704">
        <ele>55</ele>
        <time>2023-03-01T13:11:21Z</time>
      </trkpt>
      <trkpt lat="49.74164" lon="2.34703">
        <ele>55</ele>
        <time>2023-03-01T13:11:22Z</time>
      </trkpt>
      <trkpt lat="49.74164" lon="2.34701">
        <ele>55</ele>
        <time>2023-03-01T13:11:24Z</time>
      </trkpt>
      <trkpt lat="49.74164" lon="2.347">
        <ele>55</ele>
        <time>2023-03-01T13:11:25Z</time>
      </trkpt>
      <trkpt lat="49.74165" lon="2.347">
        <ele>55.1</ele>
        <time>2023-03-01T13:11:26Z</time>
      </trkpt>
      <trkpt lat="49.74165" lon="2.34698">
        <ele>55.1</ele>
        <time>2023-03-01T13:11:27Z</time>
      </trkpt>
      <trkpt lat="49.74164" lon="2.34697">
        <ele>55.1</ele>
        <time>2023-03-01T13:11:28Z</time>
      </trkpt>
      <trkpt lat="49.74164" lon="2.34695">
        <ele>55.1</ele>
        <time>2023-03-01T13:11:29Z</time>
      </trkpt>
      <trkpt lat="49.74165" lon="2.34695">
        <ele>55.1</ele>
        <time>2023-03-01T13:11:30Z</time>
      </trkpt>
      <trkpt lat="49.74165" lon="2.34694">
        <ele>55.1</ele>
        <time>2023-03-01T13:11:31Z</time>
      </trkpt>
      <trkpt lat="49.74165" lon="2.34692">
        <ele>55.3</ele>
        <time>2023-03-01T13:11:33Z</time>
      </trkpt>
      <trkpt lat="49.74165" lon="2.3469">
        <ele>55.3</ele>
        <time>2023-03-01T13:11:34Z</time>
      </trkpt>
      <trkpt lat="49.74164" lon="2.34688">
        <ele>55.4</ele>
        <time>2023-03-01T13:11:35Z</time>
      </trkpt>
      <trkpt lat="49.74165" lon="2.34688">
        <ele>55.4</ele>
        <time>2023-03-01T13:11:36Z</time>
      </trkpt>
      <trkpt lat="49.74165" lon="2.34687">
        <ele>55.4</ele>
        <time>2023-03-01T13:11:37Z</time>
      </trkpt>
      <trkpt lat="49.74164" lon="2.34685">
        <ele>55.5</ele>
        <time>2023-03-01T13:11:39Z</time>
      </trkpt>
      <trkpt lat="49.74164" lon="2.34683">
        <ele>55.5</ele>
        <time>2023-03-01T13:11:40Z</time>
      </trkpt>
      <trkpt lat="49.74163" lon="2.3468">
        <ele>55.6</ele>
        <time>2023-03-01T13:11:41Z</time>
      </trkpt>
      <trkpt lat="49.74162" lon="2.34679">
        <ele>55.6</ele>
        <time>2023-03-01T13:11:42Z</time>
      </trkpt>
      <trkpt lat="49.74161" lon="2.34678">
        <ele>55.6</ele>
        <time>2023-03-01T13:11:43Z</time>
      </trkpt>
      <trkpt lat="49.74161" lon="2.34677">
        <ele>55.7</ele>
        <time>2023-03-01T13:11:44Z</time>
      </trkpt>
      <trkpt lat="49.74161" lon="2.34674">
        <ele>55.7</ele>
        <time>2023-03-01T13:11:45Z</time>
      </trkpt>
      <trkpt lat="49.74161" lon="2.34674">
        <ele>55.7</ele>
        <time>2023-03-01T13:11:47Z</time>
      </trkpt>
      <trkpt lat="49.74161" lon="2.34671">
        <ele>55.8</ele>
        <time>2023-03-01T13:11:49Z</time>
      </trkpt>
      <trkpt lat="49.74161" lon="2.3467">
        <ele>55.8</ele>
        <time>2023-03-01T13:11:50Z</time>
      </trkpt>
      <trkpt lat="49.74163" lon="2.34668">
        <ele>55.9</ele>
        <time>2023-03-01T13:11:51Z</time>
      </trkpt>
      <trkpt lat="49.74163" lon="2.34667">
        <ele>55.9</ele>
        <time>2023-03-01T13:11:52Z</time>
      </trkpt>
      <trkpt lat="49.74163" lon="2.34665">
        <ele>55.9</ele>
        <time>2023-03-01T13:11:54Z</time>
      </trkpt>
      <trkpt lat="49.74162" lon="2.34662">
        <ele>56</ele>
        <time>2023-03-01T13:11:55Z</time>
      </trkpt>
      <trkpt lat="49.74162" lon="2.34661">
        <ele>56</ele>
        <time>2023-03-01T13:11:57Z</time>
      </trkpt>
      <trkpt lat="49.74162" lon="2.34659">
        <ele>56</ele>
        <time>2023-03-01T13:11:58Z</time>
      </trkpt>
      <trkpt lat="49.74162" lon="2.34658">
        <ele>56</ele>
        <time>2023-03-01T13:11:59Z</time>
      </trkpt>
      <trkpt lat="49.74162" lon="2.34656">
        <ele>56</ele>
        <time>2023-03-01T13:12:00Z</time>
      </trkpt>
      <trkpt lat="49.74162" lon="2.34653">
        <ele>56.1</ele>
        <time>2023-03-01T13:12:01Z</time>
      </trkpt>
      <trkpt lat="49.74162" lon="2.34651">
        <ele>56.1</ele>
        <time>2023-03-01T13:12:02Z</time>
      </trkpt>
      <trkpt lat="49.74161" lon="2.3465">
        <ele>56.1</ele>
        <time>2023-03-01T13:12:03Z</time>
      </trkpt>
      <trkpt lat="49.74161" lon="2.34648">
        <ele>56.1</ele>
        <time>2023-03-01T13:12:04Z</time>
      </trkpt>
      <trkpt lat="49.74161" lon="2.34646">
        <ele>56.1</ele>
        <time>2023-03-01T13:12:05Z</time>
      </trkpt>
      <trkpt lat="49.74162" lon="2.34642">
        <ele>56.2</ele>
        <time>2023-03-01T13:12:06Z</time>
      </trkpt>
      <trkpt lat="49.74161" lon="2.3464">
        <ele>56.2</ele>
        <time>2023-03-01T13:12:08Z</time>
      </trkpt>
      <trkpt lat="49.74161" lon="2.34639">
        <ele>56.2</ele>
        <time>2023-03-01T13:12:09Z</time>
      </trkpt>
      <trkpt lat="49.74161" lon="2.34637">
        <ele>56.2</ele>
        <time>2023-03-01T13:12:10Z</time>
      </trkpt>
      <trkpt lat="49.74162" lon="2.34635">
        <ele>56.2</ele>
        <time>2023-03-01T13:12:11Z</time>
      </trkpt>
      <trkpt lat="49.74162" lon="2.34634">
        <ele>56.2</ele>
        <time>2023-03-01T13:12:12Z</time>
      </trkpt>
      <trkpt lat="49.74163" lon="2.34634">
        <ele>56.2</ele>
        <time>2023-03-01T13:12:13Z</time>
      </trkpt>
      <trkpt lat="49.74163" lon="2.34633">
        <ele>56.3</ele>
        <time>2023-03-01T13:12:14Z</time>
      </trkpt>
      <trkpt lat="49.74163" lon="2.34632">
        <ele>56.3</ele>
        <time>2023-03-01T13:12:15Z</time>
      </trkpt>
      <trkpt lat="49.74163" lon="2.34631">
        <ele>56.3</ele>
        <time>2023-03-01T13:12:16Z</time>
      </trkpt>
      <trkpt lat="49.74163" lon="2.34629">
        <ele>56.3</ele>
        <time>2023-03-01T13:12:17Z</time>
      </trkpt>
      <trkpt lat="49.74163" lon="2.34627">
        <ele>56.3</ele>
        <time>2023-03-01T13:12:18Z</time>
      </trkpt>
      <trkpt lat="49.74163" lon="2.34626">
        <ele>56.3</ele>
        <time>2023-03-01T13:12:19Z</time>
      </trkpt>
      <trkpt lat="49.74163" lon="2.34624">
        <ele>56.3</ele>
        <time>2023-03-01T13:12:21Z</time>
      </trkpt>
      <trkpt lat="49.74164" lon="2.34623">
        <ele>56.3</ele>
        <time>2023-03-01T13:12:22Z</time>
      </trkpt>
      <trkpt lat="49.74164" lon="2.34621">
        <ele>56.3</ele>
        <time>2023-03-01T13:12:23Z</time>
      </trkpt>
      <trkpt lat="49.74164" lon="2.34619">
        <ele>56.3</ele>
        <time>2023-03-01T13:12:24Z</time>
      </trkpt>
      <trkpt lat="49.74165" lon="2.34618">
        <ele>56.3</ele>
        <time>2023-03-01T13:12:25Z</time>
      </trkpt>
      <trkpt lat="49.74165" lon="2.34616">
        <ele>56.3</ele>
        <time>2023-03-01T13:12:26Z</time>
      </trkpt>
      <trkpt lat="49.74165" lon="2.34615">
        <ele>56.3</ele>
        <time>2023-03-01T13:12:27Z</time>
      </trkpt>
      <trkpt lat="49.74166" lon="2.34613">
        <ele>56.3</ele>
        <time>2023-03-01T13:12:28Z</time>
      </trkpt>
      <trkpt lat="49.74166" lon="2.34611">
        <ele>56.4</ele>
        <time>2023-03-01T13:12:30Z</time>
      </trkpt>
      <trkpt lat="49.74166" lon="2.34609">
        <ele>56.4</ele>
        <time>2023-03-01T13:12:31Z</time>
      </trkpt>
      <trkpt lat="49.74166" lon="2.34608">
        <ele>56.4</ele>
        <time>2023-03-01T13:12:32Z</time>
      </trkpt>
      <trkpt lat="49.74166" lon="2.34606">
        <ele>56.4</ele>
        <time>2023-03-01T13:12:33Z</time>
      </trkpt>
      <trkpt lat="49.74166" lon="2.34603">
        <ele>56.4</ele>
        <time>2023-03-01T13:12:34Z</time>
      </trkpt>
      <trkpt lat="49.74166" lon="2.34601">
        <ele>56.4</ele>
        <time>2023-03-01T13:12:35Z</time>
      </trkpt>
      <trkpt lat="49.74166" lon="2.346">
        <ele>56.4</ele>
        <time>2023-03-01T13:12:36Z</time>
      </trkpt>
      <trkpt lat="49.74166" lon="2.34598">
        <ele>56.4</ele>
        <time>2023-03-01T13:12:37Z</time>
      </trkpt>
      <trkpt lat="49.74165" lon="2.34596">
        <ele>56.4</ele>
        <time>2023-03-01T13:12:38Z</time>
      </trkpt>
      <trkpt lat="49.74165" lon="2.34595">
        <ele>56.4</ele>
        <time>2023-03-01T13:12:39Z</time>
      </trkpt>
      <trkpt lat="49.74165" lon="2.34593">
        <ele>56.4</ele>
        <time>2023-03-01T13:12:40Z</time>
      </trkpt>
      <trkpt lat="49.74165" lon="2.34591">
        <ele>56.4</ele>
        <time>2023-03-01T13:12:42Z</time>
      </trkpt>
      <trkpt lat="49.74165" lon="2.3459">
        <ele>56.4</ele>
        <time>2023-03-01T13:12:43Z</time>
      </trkpt>
      <trkpt lat="49.74165" lon="2.34588">
        <ele>56.3</ele>
        <time>2023-03-01T13:12:44Z</time>
      </trkpt>
      <trkpt lat="49.74165" lon="2.34585">
        <ele>56.3</ele>
        <time>2023-03-01T13:12:45Z</time>
      </trkpt>
      <trkpt lat="49.74165" lon="2.34583">
        <ele>56.3</ele>
        <time>2023-03-01T13:12:46Z</time>
      </trkpt>
      <trkpt lat="49.74165" lon="2.34582">
        <ele>56.3</ele>
        <time>2023-03-01T13:12:48Z</time>
      </trkpt>
      <trkpt lat="49.74164" lon="2.3458">
        <ele>56.3</ele>
        <time>2023-03-01T13:12:49Z</time>
      </trkpt>
      <trkpt lat="49.74164" lon="2.34578">
        <ele>56.3</ele>
        <time>2023-03-01T13:12:50Z</time>
      </trkpt>
      <trkpt lat="49.74164" lon="2.34575">
        <ele>56.3</ele>
        <time>2023-03-01T13:12:51Z</time>
      </trkpt>
      <trkpt lat="49.74164" lon="2.34574">
        <ele>56.3</ele>
        <time>2023-03-01T13:12:52Z</time>
      </trkpt>
      <trkpt lat="49.74164" lon="2.34572">
        <ele>56.3</ele>
        <time>2023-03-01T13:12:53Z</time>
      </trkpt>
      <trkpt lat="49.74164" lon="2.34571">
        <ele>56.3</ele>
        <time>2023-03-01T13:12:54Z</time>
      </trkpt>
      <trkpt lat="49.74164" lon="2.34569">
        <ele>56.2</ele>
        <time>2023-03-01T13:12:55Z</time>
      </trkpt>
      <trkpt lat="49.74163" lon="2.34566">
        <ele>56.2</ele>
        <time>2023-03-01T13:12:56Z</time>
      </trkpt>
      <trkpt lat="49.74163" lon="2.34563">
        <ele>56.2</ele>
        <time>2023-03-01T13:12:58Z</time>
      </trkpt>
      <trkpt lat="49.74163" lon="2.34562">
        <ele>56.2</ele>
        <time>2023-03-01T13:12:59Z</time>
      </trkpt>
      <trkpt lat="49.74163" lon="2.3456">
        <ele>56.1</ele>
        <time>2023-03-01T13:13:00Z</time>
      </trkpt>
      <trkpt lat="49.74163" lon="2.34557">
        <ele>56.1</ele>
        <time>2023-03-01T13:13:01Z</time>
      </trkpt>
      <trkpt lat="49.74163" lon="2.34556">
        <ele>56.1</ele>
        <time>2023-03-01T13:13:02Z</time>
      </trkpt>
      <trkpt lat="49.74163" lon="2.34554">
        <ele>56</ele>
        <time>2023-03-01T13:13:03Z</time>
      </trkpt>
      <trkpt lat="49.74162" lon="2.34552">
        <ele>56</ele>
        <time>2023-03-01T13:13:04Z</time>
      </trkpt>
      <trkpt lat="49.74162" lon="2.3455">
        <ele>56</ele>
        <time>2023-03-01T13:13:05Z</time>
      </trkpt>
      <trkpt lat="49.74162" lon="2.34548">
        <ele>55.9</ele>
        <time>2023-03-01T13:13:07Z</time>
      </trkpt>
      <trkpt lat="49.74162" lon="2.34544">
        <ele>55.8</ele>
        <time>2023-03-01T13:13:08Z</time>
      </trkpt>
      <trkpt lat="49.74162" lon="2.34543">
        <ele>55.8</ele>
        <time>2023-03-01T13:13:09Z</time>
      </trkpt>
      <trkpt lat="49.74162" lon="2.34542">
        <ele>55.7</ele>
        <time>2023-03-01T13:13:10Z</time>
      </trkpt>
      <trkpt lat="49.74162" lon="2.34539">
        <ele>55.6</ele>
        <time>2023-03-01T13:13:11Z</time>
      </trkpt>
      <trkpt lat="49.74162" lon="2.34537">
        <ele>55.6</ele>
        <time>2023-03-01T13:13:12Z</time>
      </trkpt>
      <trkpt lat="49.74162" lon="2.34536">
        <ele>55.6</ele>
        <time>2023-03-01T13:13:13Z</time>
      </trkpt>
      <trkpt lat="49.74162" lon="2.34533">
        <ele>55.4</ele>
        <time>2023-03-01T13:13:15Z</time>
      </trkpt>
      <trkpt lat="49.74162" lon="2.34531">
        <ele>55.4</ele>
        <time>2023-03-01T13:13:16Z</time>
      </trkpt>
      <trkpt lat="49.74162" lon="2.3453">
        <ele>55.4</ele>
        <time>2023-03-01T13:13:17Z</time>
      </trkpt>
      <trkpt lat="49.74162" lon="2.34528">
        <ele>55.3</ele>
        <time>2023-03-01T13:13:18Z</time>
      </trkpt>
      <trkpt lat="49.74162" lon="2.34526">
        <ele>55.2</ele>
        <time>2023-03-01T13:13:19Z</time>
      </trkpt>
      <trkpt lat="49.74162" lon="2.34524">
        <ele>55.1</ele>
        <time>2023-03-01T13:13:20Z</time>
      </trkpt>
      <trkpt lat="49.74162" lon="2.34521">
        <ele>55</ele>
        <time>2023-03-01T13:13:21Z</time>
      </trkpt>
      <trkpt lat="49.74163" lon="2.3452">
        <ele>55</ele>
        <time>2023-03-01T13:13:22Z</time>
      </trkpt>
      <trkpt lat="49.74163" lon="2.34518">
        <ele>54.9</ele>
        <time>2023-03-01T13:13:23Z</time>
      </trkpt>
      <trkpt lat="49.74164" lon="2.34517">
        <ele>54.8</ele>
        <time>2023-03-01T13:13:24Z</time>
      </trkpt>
      <trkpt lat="49.74164" lon="2.34515">
        <ele>54.7</ele>
        <time>2023-03-01T13:13:25Z</time>
      </trkpt>
      <trkpt lat="49.74165" lon="2.34513">
        <ele>54.6</ele>
        <time>2023-03-01T13:13:27Z</time>
      </trkpt>
      <trkpt lat="49.74166" lon="2.34511">
        <ele>54.5</ele>
        <time>2023-03-01T13:13:28Z</time>
      </trkpt>
      <trkpt lat="49.74167" lon="2.3451">
        <ele>54.5</ele>
        <time>2023-03-01T13:13:29Z</time>
      </trkpt>
      <trkpt lat="49.74169" lon="2.34508">
        <ele>54.3</ele>
        <time>2023-03-01T13:13:30Z</time>
      </trkpt>
      <trkpt lat="49.74171" lon="2.34507">
        <ele>54.2</ele>
        <time>2023-03-01T13:13:31Z</time>
      </trkpt>
      <trkpt lat="49.74171" lon="2.34506">
        <ele>54.2</ele>
        <time>2023-03-01T13:13:32Z</time>
      </trkpt>
      <trkpt lat="49.74172" lon="2.34506">
        <ele>54.1</ele>
        <time>2023-03-01T13:13:33Z</time>
      </trkpt>
      <trkpt lat="49.74173" lon="2.34505">
        <ele>54.1</ele>
        <time>2023-03-01T13:13:34Z</time>
      </trkpt>
      <trkpt lat="49.74175" lon="2.34504">
        <ele>54</ele>
        <time>2023-03-01T13:13:35Z</time>
      </trkpt>
      <trkpt lat="49.74176" lon="2.34502">
        <ele>53.9</ele>
        <time>2023-03-01T13:13:36Z</time>
      </trkpt>
      <trkpt lat="49.74178" lon="2.34501">
        <ele>53.8</ele>
        <time>2023-03-01T13:13:37Z</time>
      </trkpt>
      <trkpt lat="49.74179" lon="2.34501">
        <ele>53.8</ele>
        <time>2023-03-01T13:13:39Z</time>
      </trkpt>
      <trkpt lat="49.7418" lon="2.345">
        <ele>53.8</ele>
        <time>2023-03-01T13:13:40Z</time>
      </trkpt>
      <trkpt lat="49.74182" lon="2.345">
        <ele>53.7</ele>
        <time>2023-03-01T13:13:41Z</time>
      </trkpt>
      <trkpt lat="49.74183" lon="2.34499">
        <ele>53.7</ele>
        <time>2023-03-01T13:13:42Z</time>
      </trkpt>
      <trkpt lat="49.74185" lon="2.34498">
        <ele>53.6</ele>
        <time>2023-03-01T13:13:43Z</time>
      </trkpt>
      <trkpt lat="49.74186" lon="2.34498">
        <ele>53.6</ele>
        <time>2023-03-01T13:13:44Z</time>
      </trkpt>
      <trkpt lat="49.74188" lon="2.34497">
        <ele>53.6</ele>
        <time>2023-03-01T13:13:45Z</time>
      </trkpt>
      <trkpt lat="49.74189" lon="2.34496">
        <ele>53.5</ele>
        <time>2023-03-01T13:13:46Z</time>
      </trkpt>
      <trkpt lat="49.7419" lon="2.34495">
        <ele>53.5</ele>
        <time>2023-03-01T13:13:47Z</time>
      </trkpt>
      <trkpt lat="49.74192" lon="2.34495">
        <ele>53.5</ele>
        <time>2023-03-01T13:13:48Z</time>
      </trkpt>
      <trkpt lat="49.74193" lon="2.34494">
        <ele>53.5</ele>
        <time>2023-03-01T13:13:49Z</time>
      </trkpt>
      <trkpt lat="49.74195" lon="2.34493">
        <ele>53.5</ele>
        <time>2023-03-01T13:13:50Z</time>
      </trkpt>
      <trkpt lat="49.74197" lon="2.34492">
        <ele>53.5</ele>
        <time>2023-03-01T13:13:51Z</time>
      </trkpt>
      <trkpt lat="49.74199" lon="2.34491">
        <ele>53.5</ele>
        <time>2023-03-01T13:13:52Z</time>
      </trkpt>
      <trkpt lat="49.742" lon="2.3449">
        <ele>53.5</ele>
        <time>2023-03-01T13:13:54Z</time>
      </trkpt>
      <trkpt lat="49.74201" lon="2.3449">
        <ele>53.5</ele>
        <time>2023-03-01T13:13:55Z</time>
      </trkpt>
      <trkpt lat="49.74203" lon="2.34488">
        <ele>53.5</ele>
        <time>2023-03-01T13:13:56Z</time>
      </trkpt>
      <trkpt lat="49.74204" lon="2.34488">
        <ele>53.5</ele>
        <time>2023-03-01T13:13:57Z</time>
      </trkpt>
      <trkpt lat="49.74205" lon="2.34487">
        <ele>53.5</ele>
        <time>2023-03-01T13:13:58Z</time>
      </trkpt>
      <trkpt lat="49.74206" lon="2.34487">
        <ele>53.5</ele>
        <time>2023-03-01T13:13:59Z</time>
      </trkpt>
      <trkpt lat="49.74208" lon="2.34487">
        <ele>53.6</ele>
        <time>2023-03-01T13:14:00Z</time>
      </trkpt>
      <trkpt lat="49.7421" lon="2.34486">
        <ele>53.6</ele>
        <time>2023-03-01T13:14:01Z</time>
      </trkpt>
      <trkpt lat="49.74211" lon="2.34486">
        <ele>53.6</ele>
        <time>2023-03-01T13:14:03Z</time>
      </trkpt>
      <trkpt lat="49.74212" lon="2.34486">
        <ele>53.6</ele>
        <time>2023-03-01T13:14:04Z</time>
      </trkpt>
      <trkpt lat="49.74214" lon="2.34485">
        <ele>53.7</ele>
        <time>2023-03-01T13:14:05Z</time>
      </trkpt>
      <trkpt lat="49.74215" lon="2.34485">
        <ele>53.7</ele>
        <time>2023-03-01T13:14:06Z</time>
      </trkpt>
      <trkpt lat="49.74216" lon="2.34484">
        <ele>53.7</ele>
        <time>2023-03-01T13:14:07Z</time>
      </trkpt>
      <trkpt lat="49.74218" lon="2.34483">
        <ele>53.7</ele>
        <time>2023-03-01T13:14:08Z</time>
      </trkpt>
      <trkpt lat="49.74219" lon="2.34483">
        <ele>53.7</ele>
        <time>2023-03-01T13:14:09Z</time>
      </trkpt>
      <trkpt lat="49.7422" lon="2.34482">
        <ele>53.8</ele>
        <time>2023-03-01T13:14:10Z</time>
      </trkpt>
      <trkpt lat="49.74222" lon="2.34481">
        <ele>53.8</ele>
        <time>2023-03-01T13:14:11Z</time>
      </trkpt>
      <trkpt lat="49.74223" lon="2.34481">
        <ele>53.8</ele>
        <time>2023-03-01T13:14:12Z</time>
      </trkpt>
      <trkpt lat="49.74225" lon="2.3448">
        <ele>53.9</ele>
        <time>2023-03-01T13:14:13Z</time>
      </trkpt>
      <trkpt lat="49.74225" lon="2.3448">
        <ele>53.9</ele>
        <time>2023-03-01T13:14:15Z</time>
      </trkpt>
      <trkpt lat="49.74226" lon="2.34479">
        <ele>53.9</ele>
        <time>2023-03-01T13:14:16Z</time>
      </trkpt>
      <trkpt lat="49.74228" lon="2.34478">
        <ele>53.9</ele>
        <time>2023-03-01T13:14:17Z</time>
      </trkpt>
      <trkpt lat="49.74229" lon="2.34478">
        <ele>54</ele>
        <time>2023-03-01T13:14:18Z</time>
      </trkpt>
      <trkpt lat="49.7423" lon="2.34477">
        <ele>54</ele>
        <time>2023-03-01T13:14:19Z</time>
      </trkpt>
      <trkpt lat="49.74231" lon="2.34477">
        <ele>54</ele>
        <time>2023-03-01T13:14:20Z</time>
      </trkpt>
      <trkpt lat="49.74232" lon="2.34476">
        <ele>54.1</ele>
        <time>2023-03-01T13:14:21Z</time>
      </trkpt>
      <trkpt lat="49.74233" lon="2.34476">
        <ele>54.1</ele>
        <time>2023-03-01T13:14:22Z</time>
      </trkpt>
      <trkpt lat="49.74234" lon="2.34475">
        <ele>54.1</ele>
        <time>2023-03-01T13:14:23Z</time>
      </trkpt>
      <trkpt lat="49.74236" lon="2.34475">
        <ele>54.1</ele>
        <time>2023-03-01T13:14:24Z</time>
      </trkpt>
      <trkpt lat="49.74237" lon="2.34475">
        <ele>54.2</ele>
        <time>2023-03-01T13:14:26Z</time>
      </trkpt>
      <trkpt lat="49.74239" lon="2.34474">
        <ele>54.2</ele>
        <time>2023-03-01T13:14:27Z</time>
      </trkpt>
      <trkpt lat="49.7424" lon="2.34474">
        <ele>54.3</ele>
        <time>2023-03-01T13:14:28Z</time>
      </trkpt>
      <trkpt lat="49.7424" lon="2.34474">
        <ele>54.3</ele>
        <time>2023-03-01T13:14:29Z</time>
      </trkpt>
      <trkpt lat="49.74241" lon="2.34473">
        <ele>54.3</ele>
        <time>2023-03-01T13:14:30Z</time>
      </trkpt>
      <trkpt lat="49.74243" lon="2.34472">
        <ele>54.4</ele>
        <time>2023-03-01T13:14:31Z</time>
      </trkpt>
      <trkpt lat="49.74244" lon="2.34471">
        <ele>54.4</ele>
        <time>2023-03-01T13:14:32Z</time>
      </trkpt>
      <trkpt lat="49.74245" lon="2.3447">
        <ele>54.4</ele>
        <time>2023-03-01T13:14:33Z</time>
      </trkpt>
      <trkpt lat="49.74246" lon="2.34469">
        <ele>54.5</ele>
        <time>2023-03-01T13:14:34Z</time>
      </trkpt>
      <trkpt lat="49.74247" lon="2.34469">
        <ele>54.5</ele>
        <time>2023-03-01T13:14:35Z</time>
      </trkpt>
      <trkpt lat="49.74248" lon="2.34468">
        <ele>54.6</ele>
        <time>2023-03-01T13:14:36Z</time>
      </trkpt>
      <trkpt lat="49.74249" lon="2.34467">
        <ele>54.6</ele>
        <time>2023-03-01T13:14:37Z</time>
      </trkpt>
      <trkpt lat="49.7425" lon="2.34466">
        <ele>54.6</ele>
        <time>2023-03-01T13:14:39Z</time>
      </trkpt>
      <trkpt lat="49.74251" lon="2.34465">
        <ele>54.7</ele>
        <time>2023-03-01T13:14:40Z</time>
      </trkpt>
      <trkpt lat="49.74252" lon="2.34464">
        <ele>54.7</ele>
        <time>2023-03-01T13:14:41Z</time>
      </trkpt>
      <trkpt lat="49.74253" lon="2.34464">
        <ele>54.8</ele>
        <time>2023-03-01T13:14:42Z</time>
      </trkpt>
      <trkpt lat="49.74254" lon="2.34463">
        <ele>54.8</ele>
        <time>2023-03-01T13:14:43Z</time>
      </trkpt>
      <trkpt lat="49.74255" lon="2.34462">
        <ele>54.9</ele>
        <time>2023-03-01T13:14:44Z</time>
      </trkpt>
      <trkpt lat="49.74255" lon="2.34462">
        <ele>54.9</ele>
        <time>2023-03-01T13:14:45Z</time>
      </trkpt>
      <trkpt lat="49.74256" lon="2.34461">
        <ele>54.9</ele>
        <time>2023-03-01T13:14:46Z</time>
      </trkpt>
      <trkpt lat="49.74257" lon="2.3446">
        <ele>55</ele>
        <time>2023-03-01T13:14:47Z</time>
      </trkpt>
      <trkpt lat="49.74258" lon="2.34459">
        <ele>55</ele>
        <time>2023-03-01T13:14:48Z</time>
      </trkpt>
      <trkpt lat="49.74259" lon="2.34459">
        <ele>55.1</ele>
        <time>2023-03-01T13:14:49Z</time>
      </trkpt>
      <trkpt lat="49.7426" lon="2.34458">
        <ele>55.1</ele>
        <time>2023-03-01T13:14:50Z</time>
      </trkpt>
      <trkpt lat="49.74261" lon="2.34457">
        <ele>55.2</ele>
        <time>2023-03-01T13:14:52Z</time>
      </trkpt>
      <trkpt lat="49.74262" lon="2.34456">
        <ele>55.2</ele>
        <time>2023-03-01T13:14:53Z</time>
      </trkpt>
      <trkpt lat="49.74263" lon="2.34456">
        <ele>55.2</ele>
        <time>2023-03-01T13:14:54Z</time>
      </trkpt>
      <trkpt lat="49.74264" lon="2.34455">
        <ele>55.3</ele>
        <time>2023-03-01T13:14:55Z</time>
      </trkpt>
      <trkpt lat="49.74266" lon="2.34454">
        <ele>55.4</ele>
        <time>2023-03-01T13:14:56Z</time>
      </trkpt>
      <trkpt lat="49.74267" lon="2.34453">
        <ele>55.4</ele>
        <time>2023-03-01T13:14:57Z</time>
      </trkpt>
      <trkpt lat="49.74268" lon="2.34453">
        <ele>55.5</ele>
        <time>2023-03-01T13:14:58Z</time>
      </trkpt>
      <trkpt lat="49.74269" lon="2.34451">
        <ele>55.5</ele>
        <time>2023-03-01T13:14:59Z</time>
      </trkpt>
      <trkpt lat="49.7427" lon="2.3445">
        <ele>55.5</ele>
        <time>2023-03-01T13:15:00Z</time>
      </trkpt>
      <trkpt lat="49.7427" lon="2.34448">
        <ele>55.5</ele>
        <time>2023-03-01T13:15:02Z</time>
      </trkpt>
      <trkpt lat="49.74271" lon="2.34446">
        <ele>55.5</ele>
        <time>2023-03-01T13:15:03Z</time>
      </trkpt>
      <trkpt lat="49.74271" lon="2.34445">
        <ele>55.5</ele>
        <time>2023-03-01T13:15:04Z</time>
      </trkpt>
      <trkpt lat="49.74271" lon="2.34443">
        <ele>55.5</ele>
        <time>2023-03-01T13:15:05Z</time>
      </trkpt>
      <trkpt lat="49.74269" lon="2.34439">
        <ele>55.4</ele>
        <time>2023-03-01T13:15:06Z</time>
      </trkpt>
      <trkpt lat="49.74269" lon="2.34438">
        <ele>55.4</ele>
        <time>2023-03-01T13:15:07Z</time>
      </trkpt>
      <trkpt lat="49.74268" lon="2.34436">
        <ele>55.4</ele>
        <time>2023-03-01T13:15:09Z</time>
      </trkpt>
      <trkpt lat="49.74267" lon="2.34434">
        <ele>55.4</ele>
        <time>2023-03-01T13:15:10Z</time>
      </trkpt>
      <trkpt lat="49.74265" lon="2.34433">
        <ele>55.4</ele>
        <time>2023-03-01T13:15:11Z</time>
      </trkpt>
      <trkpt lat="49.74263" lon="2.34433">
        <ele>55.4</ele>
        <time>2023-03-01T13:15:12Z</time>
      </trkpt>
      <trkpt lat="49.74262" lon="2.34433">
        <ele>55.4</ele>
        <time>2023-03-01T13:15:13Z</time>
      </trkpt>
      <trkpt lat="49.74261" lon="2.34433">
        <ele>55.4</ele>
        <time>2023-03-01T13:15:14Z</time>
      </trkpt>
      <trkpt lat="49.7426" lon="2.34433">
        <ele>55.4</ele>
        <time>2023-03-01T13:15:15Z</time>
      </trkpt>
      <trkpt lat="49.74258" lon="2.34432">
        <ele>55.3</ele>
        <time>2023-03-01T13:15:16Z</time>
      </trkpt>
      <trkpt lat="49.74257" lon="2.34432">
        <ele>55.3</ele>
        <time>2023-03-01T13:15:18Z</time>
      </trkpt>
      <trkpt lat="49.74256" lon="2.34431">
        <ele>55.3</ele>
        <time>2023-03-01T13:15:19Z</time>
      </trkpt>
      <trkpt lat="49.74255" lon="2.3443">
        <ele>55.3</ele>
        <time>2023-03-01T13:15:20Z</time>
      </trkpt>
      <trkpt lat="49.74254" lon="2.3443">
        <ele>55.3</ele>
        <time>2023-03-01T13:15:21Z</time>
      </trkpt>
      <trkpt lat="49.74253" lon="2.34429">
        <ele>55.3</ele>
        <time>2023-03-01T13:15:22Z</time>
      </trkpt>
      <trkpt lat="49.74253" lon="2.34429">
        <ele>55.3</ele>
        <time>2023-03-01T13:15:23Z</time>
      </trkpt>
      <trkpt lat="49.74253" lon="2.34429">
        <ele>55.3</ele>
        <time>2023-03-01T13:15:25Z</time>
      </trkpt>
      <trkpt lat="49.74253" lon="2.34429">
        <ele>55.3</ele>
        <time>2023-03-01T13:15:28Z</time>
      </trkpt>
      <trkpt lat="49.74252" lon="2.34429">
        <ele>55.3</ele>
        <time>2023-03-01T13:15:29Z</time>
      </trkpt>
      <trkpt lat="49.74252" lon="2.34429">
        <ele>55.3</ele>
        <time>2023-03-01T13:15:30Z</time>
      </trkpt>
      <trkpt lat="49.74252" lon="2.34429">
        <ele>55.3</ele>
        <time>2023-03-01T13:15:32Z</time>
      </trkpt>
      <trkpt lat="49.74252" lon="2.34429">
        <ele>55.3</ele>
        <time>2023-03-01T13:15:33Z</time>
      </trkpt>
      <trkpt lat="49.74252" lon="2.34428">
        <ele>55.3</ele>
        <time>2023-03-01T13:15:34Z</time>
      </trkpt>
      <trkpt lat="49.74252" lon="2.34428">
        <ele>55.3</ele>
        <time>2023-03-01T13:15:35Z</time>
      </trkpt>
      <trkpt lat="49.74252" lon="2.34428">
        <ele>55.3</ele>
        <time>2023-03-01T13:15:37Z</time>
      </trkpt>
      <trkpt lat="49.74252" lon="2.34428">
        <ele>55.3</ele>
        <time>2023-03-01T13:15:39Z</time>
      </trkpt>
      <trkpt lat="49.74252" lon="2.34428">
        <ele>55.3</ele>
        <time>2023-03-01T13:15:41Z</time>
      </trkpt>
      <trkpt lat="49.74252" lon="2.34428">
        <ele>55.3</ele>
        <time>2023-03-01T13:15:42Z</time>
      </trkpt>
      <trkpt lat="49.74251" lon="2.34428">
        <ele>55.3</ele>
        <time>2023-03-01T13:15:43Z</time>
      </trkpt>
      <trkpt lat="49.74251" lon="2.34428">
        <ele>55.3</ele>
        <time>2023-03-01T13:15:44Z</time>
      </trkpt>
      <trkpt lat="49.74251" lon="2.34428">
        <ele>55.3</ele>
        <time>2023-03-01T13:15:45Z</time>
      </trkpt>
      <trkpt lat="49.74251" lon="2.34428">
        <ele>55.3</ele>
        <time>2023-03-01T13:15:46Z</time>
      </trkpt>
      <trkpt lat="49.74251" lon="2.34428">
        <ele>55.3</ele>
        <time>2023-03-01T13:15:47Z</time>
      </trkpt>
      <trkpt lat="49.74251" lon="2.34428">
        <ele>55.3</ele>
        <time>2023-03-01T13:15:48Z</time>
      </trkpt>
      <trkpt lat="49.74251" lon="2.34428">
        <ele>55.3</ele>
        <time>2023-03-01T13:15:49Z</time>
      </trkpt>
      <trkpt lat="49.74251" lon="2.34428">
        <ele>55.3</ele>
        <time>2023-03-01T13:15:51Z</time>
      </trkpt>
      <trkpt lat="49.74251" lon="2.34428">
        <ele>55.3</ele>
        <time>2023-03-01T13:15:52Z</time>
      </trkpt>
      <trkpt lat="49.74251" lon="2.34428">
        <ele>55.3</ele>
        <time>2023-03-01T13:15:53Z</time>
      </trkpt>
      <trkpt lat="49.74251" lon="2.34428">
        <ele>55.3</ele>
        <time>2023-03-01T13:15:55Z</time>
      </trkpt>
      <trkpt lat="49.7425" lon="2.34428">
        <ele>55.3</ele>
        <time>2023-03-01T13:15:56Z</time>
      </trkpt>
      <trkpt lat="49.7425" lon="2.34428">
        <ele>55.3</ele>
        <time>2023-03-01T13:15:57Z</time>
      </trkpt>
      <trkpt lat="49.7425" lon="2.34428">
        <ele>55.3</ele>
        <time>2023-03-01T13:15:58Z</time>
      </trkpt>
      <trkpt lat="49.7425" lon="2.34428">
        <ele>55.3</ele>
        <time>2023-03-01T13:15:59Z</time>
      </trkpt>
      <trkpt lat="49.7425" lon="2.34428">
        <ele>55.3</ele>
        <time>2023-03-01T13:16:00Z</time>
      </trkpt>
      <trkpt lat="49.7425" lon="2.34428">
        <ele>55.3</ele>
        <time>2023-03-01T13:16:01Z</time>
      </trkpt>
      <trkpt lat="49.7425" lon="2.34428">
        <ele>55.3</ele>
        <time>2023-03-01T13:16:02Z</time>
      </trkpt>
      <trkpt lat="49.7425" lon="2.34428">
        <ele>55.2</ele>
        <time>2023-03-01T13:16:03Z</time>
      </trkpt>
      <trkpt lat="49.7425" lon="2.34428">
        <ele>55.2</ele>
        <time>2023-03-01T13:16:04Z</time>
      </trkpt>
      <trkpt lat="49.7425" lon="2.34428">
        <ele>55.2</ele>
        <time>2023-03-01T13:16:05Z</time>
      </trkpt>
      <trkpt lat="49.7425" lon="2.34428">
        <ele>55.2</ele>
        <time>2023-03-01T13:16:07Z</time>
      </trkpt>
      <trkpt lat="49.74249" lon="2.34427">
        <ele>55.2</ele>
        <time>2023-03-01T13:16:08Z</time>
      </trkpt>
      <trkpt lat="49.74249" lon="2.34427">
        <ele>55.2</ele>
        <time>2023-03-01T13:16:09Z</time>
      </trkpt>
      <trkpt lat="49.74249" lon="2.34427">
        <ele>55.2</ele>
        <time>2023-03-01T13:16:10Z</time>
      </trkpt>
      <trkpt lat="49.74249" lon="2.34427">
        <ele>55.2</ele>
        <time>2023-03-01T13:16:11Z</time>
      </trkpt>
      <trkpt lat="49.74249" lon="2.34427">
        <ele>55.2</ele>
        <time>2023-03-01T13:16:12Z</time>
      </trkpt>
      <trkpt lat="49.74249" lon="2.34427">
        <ele>55.2</ele>
        <time>2023-03-01T13:16:14Z</time>
      </trkpt>
      <trkpt lat="49.74249" lon="2.34427">
        <ele>55.2</ele>
        <time>2023-03-01T13:16:15Z</time>
      </trkpt>
      <trkpt lat="49.74249" lon="2.34427">
        <ele>55.2</ele>
        <time>2023-03-01T13:16:16Z</time>
      </trkpt>
      <trkpt lat="49.74249" lon="2.34427">
        <ele>55.2</ele>
        <time>2023-03-01T13:16:17Z</time>
      </trkpt>
      <trkpt lat="49.74249" lon="2.34427">
        <ele>55.2</ele>
        <time>2023-03-01T13:16:18Z</time>
      </trkpt>
      <trkpt lat="49.74248" lon="2.34427">
        <ele>55.2</ele>
        <time>2023-03-01T13:16:19Z</time>
      </trkpt>
      <trkpt lat="49.74248" lon="2.34427">
        <ele>55.2</ele>
        <time>2023-03-01T13:16:20Z</time>
      </trkpt>
      <trkpt lat="49.74248" lon="2.34427">
        <ele>55.2</ele>
        <time>2023-03-01T13:16:22Z</time>
      </trkpt>
      <trkpt lat="49.74248" lon="2.34427">
        <ele>55.2</ele>
        <time>2023-03-01T13:16:23Z</time>
      </trkpt>
      <trkpt lat="49.74248" lon="2.34427">
        <ele>55.2</ele>
        <time>2023-03-01T13:16:24Z</time>
      </trkpt>
      <trkpt lat="49.74248" lon="2.34427">
        <ele>55.2</ele>
        <time>2023-03-01T13:16:26Z</time>
      </trkpt>
      <trkpt lat="49.74248" lon="2.34427">
        <ele>55.2</ele>
        <time>2023-03-01T13:16:28Z</time>
      </trkpt>
      <trkpt lat="49.74248" lon="2.34427">
        <ele>55.2</ele>
        <time>2023-03-01T13:16:29Z</time>
      </trkpt>
      <trkpt lat="49.74248" lon="2.34427">
        <ele>55.2</ele>
        <time>2023-03-01T13:16:30Z</time>
      </trkpt>
      <trkpt lat="49.74247" lon="2.34426">
        <ele>55.2</ele>
        <time>2023-03-01T13:16:31Z</time>
      </trkpt>
      <trkpt lat="49.74246" lon="2.34425">
        <ele>55.2</ele>
        <time>2023-03-01T13:16:32Z</time>
      </trkpt>
      <trkpt lat="49.74245" lon="2.34424">
        <ele>55.2</ele>
        <time>2023-03-01T13:16:34Z</time>
      </trkpt>
      <trkpt lat="49.74244" lon="2.34424">
        <ele>55.2</ele>
        <time>2023-03-01T13:16:35Z</time>
      </trkpt>
      <trkpt lat="49.74243" lon="2.34423">
        <ele>55.2</ele>
        <time>2023-03-01T13:16:36Z</time>
      </trkpt>
      <trkpt lat="49.74242" lon="2.34421">
        <ele>55.2</ele>
        <time>2023-03-01T13:16:37Z</time>
      </trkpt>
      <trkpt lat="49.74241" lon="2.3442">
        <ele>55.2</ele>
        <time>2023-03-01T13:16:38Z</time>
      </trkpt>
      <trkpt lat="49.7424" lon="2.34418">
        <ele>55.1</ele>
        <time>2023-03-01T13:16:39Z</time>
      </trkpt>
      <trkpt lat="49.74239" lon="2.34417">
        <ele>55.1</ele>
        <time>2023-03-01T13:16:40Z</time>
      </trkpt>
      <trkpt lat="49.74237" lon="2.34415">
        <ele>55.1</ele>
        <time>2023-03-01T13:16:42Z</time>
      </trkpt>
      <trkpt lat="49.74236" lon="2.34413">
        <ele>55.1</ele>
        <time>2023-03-01T13:16:43Z</time>
      </trkpt>
      <trkpt lat="49.74235" lon="2.34412">
        <ele>55.1</ele>
        <time>2023-03-01T13:16:44Z</time>
      </trkpt>
      <trkpt lat="49.74234" lon="2.34409">
        <ele>55.1</ele>
        <time>2023-03-01T13:16:45Z</time>
      </trkpt>
      <trkpt lat="49.74233" lon="2.34408">
        <ele>55.1</ele>
        <time>2023-03-01T13:16:46Z</time>
      </trkpt>
      <trkpt lat="49.74232" lon="2.34407">
        <ele>55.1</ele>
        <time>2023-03-01T13:16:47Z</time>
      </trkpt>
      <trkpt lat="49.7423" lon="2.34405">
        <ele>55.1</ele>
        <time>2023-03-01T13:16:49Z</time>
      </trkpt>
      <trkpt lat="49.74229" lon="2.34405">
        <ele>55.1</ele>
        <time>2023-03-01T13:16:50Z</time>
      </trkpt>
      <trkpt lat="49.74229" lon="2.34404">
        <ele>55.1</ele>
        <time>2023-03-01T13:16:51Z</time>
      </trkpt>
      <trkpt lat="49.74227" lon="2.34402">
        <ele>55.1</ele>
        <time>2023-03-01T13:16:52Z</time>
      </trkpt>
      <trkpt lat="49.74226" lon="2.34402">
        <ele>55</ele>
        <time>2023-03-01T13:16:53Z</time>
      </trkpt>
      <trkpt lat="49.74224" lon="2.344">
        <ele>55</ele>
        <time>2023-03-01T13:16:54Z</time>
      </trkpt>
      <trkpt lat="49.74223" lon="2.344">
        <ele>55</ele>
        <time>2023-03-01T13:16:55Z</time>
      </trkpt>
      <trkpt lat="49.74223" lon="2.34399">
        <ele>55</ele>
        <time>2023-03-01T13:16:56Z</time>
      </trkpt>
      <trkpt lat="49.74221" lon="2.34398">
        <ele>55</ele>
        <time>2023-03-01T13:16:58Z</time>
      </trkpt>
      <trkpt lat="49.7422" lon="2.34397">
        <ele>55</ele>
        <time>2023-03-01T13:16:59Z</time>
      </trkpt>
      <trkpt lat="49.74219" lon="2.34396">
        <ele>55</ele>
        <time>2023-03-01T13:17:00Z</time>
      </trkpt>
      <trkpt lat="49.74218" lon="2.34395">
        <ele>55</ele>
        <time>2023-03-01T13:17:01Z</time>
      </trkpt>
      <trkpt lat="49.74216" lon="2.34394">
        <ele>55</ele>
        <time>2023-03-01T13:17:02Z</time>
      </trkpt>
      <trkpt lat="49.74215" lon="2.34393">
        <ele>55</ele>
        <time>2023-03-01T13:17:03Z</time>
      </trkpt>
      <trkpt lat="49.74213" lon="2.34392">
        <ele>55</ele>
        <time>2023-03-01T13:17:04Z</time>
      </trkpt>
      <trkpt lat="49.74213" lon="2.34391">
        <ele>55</ele>
        <time>2023-03-01T13:17:05Z</time>
      </trkpt>
      <trkpt lat="49.74212" lon="2.3439">
        <ele>55</ele>
        <time>2023-03-01T13:17:06Z</time>
      </trkpt>
      <trkpt lat="49.7421" lon="2.34389">
        <ele>55</ele>
        <time>2023-03-01T13:17:08Z</time>
      </trkpt>
      <trkpt lat="49.7421" lon="2.34388">
        <ele>55</ele>
        <time>2023-03-01T13:17:09Z</time>
      </trkpt>
      <trkpt lat="49.74208" lon="2.34386">
        <ele>55</ele>
        <time>2023-03-01T13:17:10Z</time>
      </trkpt>
      <trkpt lat="49.74207" lon="2.34385">
        <ele>55</ele>
        <time>2023-03-01T13:17:11Z</time>
      </trkpt>
      <trkpt lat="49.74207" lon="2.34384">
        <ele>55</ele>
        <time>2023-03-01T13:17:12Z</time>
      </trkpt>
      <trkpt lat="49.74206" lon="2.34383">
        <ele>55</ele>
        <time>2023-03-01T13:17:13Z</time>
      </trkpt>
      <trkpt lat="49.74205" lon="2.34382">
        <ele>55</ele>
        <time>2023-03-01T13:17:14Z</time>
      </trkpt>
      <trkpt lat="49.74204" lon="2.34381">
        <ele>55</ele>
        <time>2023-03-01T13:17:15Z</time>
      </trkpt>
      <trkpt lat="49.74203" lon="2.34379">
        <ele>55</ele>
        <time>2023-03-01T13:17:16Z</time>
      </trkpt>
      <trkpt lat="49.74202" lon="2.34377">
        <ele>55</ele>
        <time>2023-03-01T13:17:17Z</time>
      </trkpt>
      <trkpt lat="49.74201" lon="2.34376">
        <ele>55</ele>
        <time>2023-03-01T13:17:19Z</time>
      </trkpt>
      <trkpt lat="49.74201" lon="2.34375">
        <ele>55</ele>
        <time>2023-03-01T13:17:20Z</time>
      </trkpt>
      <trkpt lat="49.742" lon="2.34373">
        <ele>55</ele>
        <time>2023-03-01T13:17:21Z</time>
      </trkpt>
      <trkpt lat="49.74199" lon="2.34371">
        <ele>55</ele>
        <time>2023-03-01T13:17:22Z</time>
      </trkpt>
      <trkpt lat="49.74198" lon="2.34369">
        <ele>55</ele>
        <time>2023-03-01T13:17:23Z</time>
      </trkpt>
      <trkpt lat="49.74198" lon="2.34368">
        <ele>55</ele>
        <time>2023-03-01T13:17:25Z</time>
      </trkpt>
      <trkpt lat="49.74197" lon="2.34367">
        <ele>55</ele>
        <time>2023-03-01T13:17:26Z</time>
      </trkpt>
      <trkpt lat="49.74196" lon="2.34366">
        <ele>55</ele>
        <time>2023-03-01T13:17:27Z</time>
      </trkpt>
      <trkpt lat="49.74196" lon="2.34365">
        <ele>55</ele>
        <time>2023-03-01T13:17:28Z</time>
      </trkpt>
      <trkpt lat="49.74195" lon="2.34364">
        <ele>55</ele>
        <time>2023-03-01T13:17:29Z</time>
      </trkpt>
      <trkpt lat="49.74195" lon="2.34362">
        <ele>55</ele>
        <time>2023-03-01T13:17:30Z</time>
      </trkpt>
      <trkpt lat="49.74194" lon="2.34361">
        <ele>55</ele>
        <time>2023-03-01T13:17:31Z</time>
      </trkpt>
      <trkpt lat="49.74193" lon="2.34358">
        <ele>55</ele>
        <time>2023-03-01T13:17:32Z</time>
      </trkpt>
      <trkpt lat="49.74193" lon="2.34357">
        <ele>55</ele>
        <time>2023-03-01T13:17:34Z</time>
      </trkpt>
      <trkpt lat="49.74192" lon="2.34356">
        <ele>55</ele>
        <time>2023-03-01T13:17:35Z</time>
      </trkpt>
      <trkpt lat="49.74191" lon="2.34354">
        <ele>55</ele>
        <time>2023-03-01T13:17:36Z</time>
      </trkpt>
      <trkpt lat="49.7419" lon="2.34353">
        <ele>55</ele>
        <time>2023-03-01T13:17:37Z</time>
      </trkpt>
      <trkpt lat="49.74189" lon="2.34352">
        <ele>55</ele>
        <time>2023-03-01T13:17:38Z</time>
      </trkpt>
      <trkpt lat="49.74189" lon="2.34351">
        <ele>55</ele>
        <time>2023-03-01T13:17:39Z</time>
      </trkpt>
      <trkpt lat="49.74188" lon="2.3435">
        <ele>55</ele>
        <time>2023-03-01T13:17:40Z</time>
      </trkpt>
      <trkpt lat="49.74187" lon="2.34349">
        <ele>55</ele>
        <time>2023-03-01T13:17:41Z</time>
      </trkpt>
      <trkpt lat="49.74186" lon="2.34347">
        <ele>55</ele>
        <time>2023-03-01T13:17:42Z</time>
      </trkpt>
      <trkpt lat="49.74185" lon="2.34347">
        <ele>55</ele>
        <time>2023-03-01T13:17:43Z</time>
      </trkpt>
      <trkpt lat="49.74184" lon="2.34345">
        <ele>54.9</ele>
        <time>2023-03-01T13:17:45Z</time>
      </trkpt>
      <trkpt lat="49.74183" lon="2.34344">
        <ele>54.9</ele>
        <time>2023-03-01T13:17:46Z</time>
      </trkpt>
      <trkpt lat="49.74181" lon="2.34343">
        <ele>54.9</ele>
        <time>2023-03-01T13:17:47Z</time>
      </trkpt>
      <trkpt lat="49.7418" lon="2.34341">
        <ele>54.9</ele>
        <time>2023-03-01T13:17:48Z</time>
      </trkpt>
      <trkpt lat="49.74179" lon="2.3434">
        <ele>54.9</ele>
        <time>2023-03-01T13:17:49Z</time>
      </trkpt>
      <trkpt lat="49.74177" lon="2.34339">
        <ele>54.9</ele>
        <time>2023-03-01T13:17:50Z</time>
      </trkpt>
      <trkpt lat="49.74176" lon="2.34338">
        <ele>54.9</ele>
        <time>2023-03-01T13:17:51Z</time>
      </trkpt>
      <trkpt lat="49.74175" lon="2.34337">
        <ele>54.9</ele>
        <time>2023-03-01T13:17:52Z</time>
      </trkpt>
      <trkpt lat="49.74175" lon="2.34337">
        <ele>54.9</ele>
        <time>2023-03-01T13:17:54Z</time>
      </trkpt>
      <trkpt lat="49.74174" lon="2.34336">
        <ele>54.9</ele>
        <time>2023-03-01T13:17:55Z</time>
      </trkpt>
      <trkpt lat="49.74173" lon="2.34335">
        <ele>54.9</ele>
        <time>2023-03-01T13:17:56Z</time>
      </trkpt>
      <trkpt lat="49.74171" lon="2.34333">
        <ele>54.9</ele>
        <time>2023-03-01T13:17:57Z</time>
      </trkpt>
      <trkpt lat="49.74171" lon="2.34332">
        <ele>54.9</ele>
        <time>2023-03-01T13:17:58Z</time>
      </trkpt>
      <trkpt lat="49.7417" lon="2.34331">
        <ele>54.9</ele>
        <time>2023-03-01T13:17:59Z</time>
      </trkpt>
      <trkpt lat="49.74169" lon="2.34329">
        <ele>54.9</ele>
        <time>2023-03-01T13:18:00Z</time>
      </trkpt>
      <trkpt lat="49.74169" lon="2.34327">
        <ele>54.9</ele>
        <time>2023-03-01T13:18:01Z</time>
      </trkpt>
      <trkpt lat="49.74168" lon="2.34326">
        <ele>54.9</ele>
        <time>2023-03-01T13:18:02Z</time>
      </trkpt>
      <trkpt lat="49.74167" lon="2.34322">
        <ele>54.9</ele>
        <time>2023-03-01T13:18:03Z</time>
      </trkpt>
      <trkpt lat="49.74166" lon="2.34321">
        <ele>54.8</ele>
        <time>2023-03-01T13:18:05Z</time>
      </trkpt>
      <trkpt lat="49.74166" lon="2.34319">
        <ele>54.8</ele>
        <time>2023-03-01T13:18:06Z</time>
      </trkpt>
      <trkpt lat="49.74165" lon="2.34318">
        <ele>54.8</ele>
        <time>2023-03-01T13:18:07Z</time>
      </trkpt>
      <trkpt lat="49.74165" lon="2.34317">
        <ele>54.8</ele>
        <time>2023-03-01T13:18:08Z</time>
      </trkpt>
      <trkpt lat="49.74164" lon="2.34316">
        <ele>54.8</ele>
        <time>2023-03-01T13:18:09Z</time>
      </trkpt>
      <trkpt lat="49.74164" lon="2.34315">
        <ele>54.8</ele>
        <time>2023-03-01T13:18:10Z</time>
      </trkpt>
      <trkpt lat="49.74163" lon="2.34314">
        <ele>54.8</ele>
        <time>2023-03-01T13:18:11Z</time>
      </trkpt>
      <trkpt lat="49.7416" lon="2.34312">
        <ele>54.8</ele>
        <time>2023-03-01T13:18:12Z</time>
      </trkpt>
      <trkpt lat="49.7416" lon="2.34311">
        <ele>54.8</ele>
        <time>2023-03-01T13:18:14Z</time>
      </trkpt>
      <trkpt lat="49.74159" lon="2.34311">
        <ele>54.8</ele>
        <time>2023-03-01T13:18:15Z</time>
      </trkpt>
      <trkpt lat="49.74158" lon="2.3431">
        <ele>54.8</ele>
        <time>2023-03-01T13:18:16Z</time>
      </trkpt>
      <trkpt lat="49.74157" lon="2.34308">
        <ele>54.8</ele>
        <time>2023-03-01T13:18:17Z</time>
      </trkpt>
      <trkpt lat="49.74156" lon="2.34307">
        <ele>54.8</ele>
        <time>2023-03-01T13:18:18Z</time>
      </trkpt>
      <trkpt lat="49.74154" lon="2.34306">
        <ele>54.8</ele>
        <time>2023-03-01T13:18:19Z</time>
      </trkpt>
      <trkpt lat="49.74153" lon="2.34305">
        <ele>54.8</ele>
        <time>2023-03-01T13:18:20Z</time>
      </trkpt>
      <trkpt lat="49.74152" lon="2.34304">
        <ele>54.8</ele>
        <time>2023-03-01T13:18:21Z</time>
      </trkpt>
      <trkpt lat="49.7415" lon="2.34302">
        <ele>54.8</ele>
        <time>2023-03-01T13:18:23Z</time>
      </trkpt>
      <trkpt lat="49.7415" lon="2.34301">
        <ele>54.8</ele>
        <time>2023-03-01T13:18:24Z</time>
      </trkpt>
      <trkpt lat="49.74148" lon="2.34299">
        <ele>54.8</ele>
        <time>2023-03-01T13:18:25Z</time>
      </trkpt>
      <trkpt lat="49.74148" lon="2.34299">
        <ele>54.8</ele>
        <time>2023-03-01T13:18:26Z</time>
      </trkpt>
      <trkpt lat="49.74147" lon="2.34298">
        <ele>54.8</ele>
        <time>2023-03-01T13:18:27Z</time>
      </trkpt>
      <trkpt lat="49.74146" lon="2.34297">
        <ele>54.8</ele>
        <time>2023-03-01T13:18:28Z</time>
      </trkpt>
      <trkpt lat="49.74144" lon="2.34296">
        <ele>54.8</ele>
        <time>2023-03-01T13:18:29Z</time>
      </trkpt>
      <trkpt lat="49.74143" lon="2.34296">
        <ele>54.8</ele>
        <time>2023-03-01T13:18:30Z</time>
      </trkpt>
      <trkpt lat="49.74141" lon="2.34295">
        <ele>54.8</ele>
        <time>2023-03-01T13:18:31Z</time>
      </trkpt>
      <trkpt lat="49.7414" lon="2.34295">
        <ele>54.8</ele>
        <time>2023-03-01T13:18:33Z</time>
      </trkpt>
      <trkpt lat="49.74138" lon="2.34295">
        <ele>54.8</ele>
        <time>2023-03-01T13:18:34Z</time>
      </trkpt>
      <trkpt lat="49.74137" lon="2.34294">
        <ele>54.8</ele>
        <time>2023-03-01T13:18:35Z</time>
      </trkpt>
      <trkpt lat="49.74136" lon="2.34294">
        <ele>54.8</ele>
        <time>2023-03-01T13:18:36Z</time>
      </trkpt>
      <trkpt lat="49.74134" lon="2.34294">
        <ele>54.8</ele>
        <time>2023-03-01T13:18:37Z</time>
      </trkpt>
      <trkpt lat="49.74132" lon="2.34293">
        <ele>54.8</ele>
        <time>2023-03-01T13:18:38Z</time>
      </trkpt>
      <trkpt lat="49.74132" lon="2.34292">
        <ele>54.8</ele>
        <time>2023-03-01T13:18:39Z</time>
      </trkpt>
      <trkpt lat="49.7413" lon="2.34291">
        <ele>54.8</ele>
        <time>2023-03-01T13:18:40Z</time>
      </trkpt>
      <trkpt lat="49.74129" lon="2.3429">
        <ele>54.8</ele>
        <time>2023-03-01T13:18:41Z</time>
      </trkpt>
      <trkpt lat="49.74128" lon="2.34289">
        <ele>54.8</ele>
        <time>2023-03-01T13:18:42Z</time>
      </trkpt>
      <trkpt lat="49.74127" lon="2.34288">
        <ele>54.8</ele>
        <time>2023-03-01T13:18:43Z</time>
      </trkpt>
      <trkpt lat="49.74126" lon="2.34287">
        <ele>54.8</ele>
        <time>2023-03-01T13:18:45Z</time>
      </trkpt>
      <trkpt lat="49.74124" lon="2.34286">
        <ele>54.8</ele>
        <time>2023-03-01T13:18:46Z</time>
      </trkpt>
      <trkpt lat="49.74123" lon="2.34285">
        <ele>54.9</ele>
        <time>2023-03-01T13:18:47Z</time>
      </trkpt>
      <trkpt lat="49.74121" lon="2.34283">
        <ele>54.9</ele>
        <time>2023-03-01T13:18:48Z</time>
      </trkpt>
      <trkpt lat="49.74121" lon="2.34283">
        <ele>54.9</ele>
        <time>2023-03-01T13:18:49Z</time>
      </trkpt>
      <trkpt lat="49.74119" lon="2.34282">
        <ele>54.9</ele>
        <time>2023-03-01T13:18:50Z</time>
      </trkpt>
      <trkpt lat="49.74118" lon="2.34281">
        <ele>54.9</ele>
        <time>2023-03-01T13:18:51Z</time>
      </trkpt>
      <trkpt lat="49.74117" lon="2.34279">
        <ele>54.9</ele>
        <time>2023-03-01T13:18:53Z</time>
      </trkpt>
      <trkpt lat="49.74116" lon="2.34279">
        <ele>54.9</ele>
        <time>2023-03-01T13:18:54Z</time>
      </trkpt>
      <trkpt lat="49.74114" lon="2.34277">
        <ele>54.9</ele>
        <time>2023-03-01T13:18:55Z</time>
      </trkpt>
      <trkpt lat="49.74113" lon="2.34277">
        <ele>54.9</ele>
        <time>2023-03-01T13:18:56Z</time>
      </trkpt>
      <trkpt lat="49.74113" lon="2.34276">
        <ele>54.9</ele>
        <time>2023-03-01T13:18:57Z</time>
      </trkpt>
      <trkpt lat="49.74111" lon="2.34274">
        <ele>54.9</ele>
        <time>2023-03-01T13:18:58Z</time>
      </trkpt>
      <trkpt lat="49.7411" lon="2.34274">
        <ele>54.9</ele>
        <time>2023-03-01T13:18:59Z</time>
      </trkpt>
      <trkpt lat="49.74109" lon="2.34273">
        <ele>54.9</ele>
        <time>2023-03-01T13:19:00Z</time>
      </trkpt>
      <trkpt lat="49.74107" lon="2.34271">
        <ele>55</ele>
        <time>2023-03-01T13:19:02Z</time>
      </trkpt>
      <trkpt lat="49.74106" lon="2.3427">
        <ele>55</ele>
        <time>2023-03-01T13:19:03Z</time>
      </trkpt>
      <trkpt lat="49.74104" lon="2.34269">
        <ele>55</ele>
        <time>2023-03-01T13:19:04Z</time>
      </trkpt>
      <trkpt lat="49.74104" lon="2.34268">
        <ele>55</ele>
        <time>2023-03-01T13:19:05Z</time>
      </trkpt>
      <trkpt lat="49.74103" lon="2.34267">
        <ele>55</ele>
        <time>2023-03-01T13:19:06Z</time>
      </trkpt>
      <trkpt lat="49.74102" lon="2.34267">
        <ele>55</ele>
        <time>2023-03-01T13:19:07Z</time>
      </trkpt>
      <trkpt lat="49.741" lon="2.34265">
        <ele>55</ele>
        <time>2023-03-01T13:19:08Z</time>
      </trkpt>
      <trkpt lat="49.74098" lon="2.34264">
        <ele>55</ele>
        <time>2023-03-01T13:19:09Z</time>
      </trkpt>
      <trkpt lat="49.74097" lon="2.34263">
        <ele>55</ele>
        <time>2023-03-01T13:19:10Z</time>
      </trkpt>
      <trkpt lat="49.74096" lon="2.34262">
        <ele>55</ele>
        <time>2023-03-01T13:19:12Z</time>
      </trkpt>
      <trkpt lat="49.74096" lon="2.34261">
        <ele>55</ele>
        <time>2023-03-01T13:19:13Z</time>
      </trkpt>
      <trkpt lat="49.74095" lon="2.34261">
        <ele>55</ele>
        <time>2023-03-01T13:19:14Z</time>
      </trkpt>
      <trkpt lat="49.74094" lon="2.3426">
        <ele>55</ele>
        <time>2023-03-01T13:19:15Z</time>
      </trkpt>
      <trkpt lat="49.74092" lon="2.34258">
        <ele>55.1</ele>
        <time>2023-03-01T13:19:16Z</time>
      </trkpt>
      <trkpt lat="49.74091" lon="2.34258">
        <ele>55.1</ele>
        <time>2023-03-01T13:19:17Z</time>
      </trkpt>
      <trkpt lat="49.7409" lon="2.34257">
        <ele>55.1</ele>
        <time>2023-03-01T13:19:18Z</time>
      </trkpt>
      <trkpt lat="49.74088" lon="2.34255">
        <ele>55.1</ele>
        <time>2023-03-01T13:19:19Z</time>
      </trkpt>
      <trkpt lat="49.74087" lon="2.34255">
        <ele>55.1</ele>
        <time>2023-03-01T13:19:21Z</time>
      </trkpt>
      <trkpt lat="49.74086" lon="2.34254">
        <ele>55.1</ele>
        <time>2023-03-01T13:19:22Z</time>
      </trkpt>
      <trkpt lat="49.74085" lon="2.34252">
        <ele>55.1</ele>
        <time>2023-03-01T13:19:23Z</time>
      </trkpt>
      <trkpt lat="49.74084" lon="2.34251">
        <ele>55.1</ele>
        <time>2023-03-01T13:19:24Z</time>
      </trkpt>
      <trkpt lat="49.74083" lon="2.3425">
        <ele>55.1</ele>
        <time>2023-03-01T13:19:25Z</time>
      </trkpt>
      <trkpt lat="49.74081" lon="2.34249">
        <ele>55.1</ele>
        <time>2023-03-01T13:19:26Z</time>
      </trkpt>
      <trkpt lat="49.74079" lon="2.34247">
        <ele>55.1</ele>
        <time>2023-03-01T13:19:27Z</time>
      </trkpt>
      <trkpt lat="49.74078" lon="2.34246">
        <ele>55.1</ele>
        <time>2023-03-01T13:19:28Z</time>
      </trkpt>
      <trkpt lat="49.74077" lon="2.34245">
        <ele>55.1</ele>
        <time>2023-03-01T13:19:29Z</time>
      </trkpt>
      <trkpt lat="49.74076" lon="2.34244">
        <ele>55.1</ele>
        <time>2023-03-01T13:19:31Z</time>
      </trkpt>
      <trkpt lat="49.74075" lon="2.34243">
        <ele>55.1</ele>
        <time>2023-03-01T13:19:32Z</time>
      </trkpt>
      <trkpt lat="49.74074" lon="2.34242">
        <ele>55.1</ele>
        <time>2023-03-01T13:19:33Z</time>
      </trkpt>
      <trkpt lat="49.74072" lon="2.34241">
        <ele>55.1</ele>
        <time>2023-03-01T13:19:34Z</time>
      </trkpt>
      <trkpt lat="49.74071" lon="2.3424">
        <ele>55.1</ele>
        <time>2023-03-01T13:19:35Z</time>
      </trkpt>
      <trkpt lat="49.7407" lon="2.34239">
        <ele>55.1</ele>
        <time>2023-03-01T13:19:36Z</time>
      </trkpt>
      <trkpt lat="49.74068" lon="2.34236">
        <ele>55.1</ele>
        <time>2023-03-01T13:19:38Z</time>
      </trkpt>
      <trkpt lat="49.74067" lon="2.34236">
        <ele>55.2</ele>
        <time>2023-03-01T13:19:39Z</time>
      </trkpt>
      <trkpt lat="49.74065" lon="2.34235">
        <ele>55.2</ele>
        <time>2023-03-01T13:19:41Z</time>
      </trkpt>
      <trkpt lat="49.74064" lon="2.34234">
        <ele>55.2</ele>
        <time>2023-03-01T13:19:42Z</time>
      </trkpt>
      <trkpt lat="49.74063" lon="2.34233">
        <ele>55.2</ele>
        <time>2023-03-01T13:19:43Z</time>
      </trkpt>
      <trkpt lat="49.7406" lon="2.34231">
        <ele>55.2</ele>
        <time>2023-03-01T13:19:44Z</time>
      </trkpt>
      <trkpt lat="49.74059" lon="2.3423">
        <ele>55.2</ele>
        <time>2023-03-01T13:19:46Z</time>
      </trkpt>
      <trkpt lat="49.74057" lon="2.34229">
        <ele>55.2</ele>
        <time>2023-03-01T13:19:47Z</time>
      </trkpt>
      <trkpt lat="49.74056" lon="2.34229">
        <ele>55.2</ele>
        <time>2023-03-01T13:19:48Z</time>
      </trkpt>
      <trkpt lat="49.74055" lon="2.34228">
        <ele>55.2</ele>
        <time>2023-03-01T13:19:49Z</time>
      </trkpt>
      <trkpt lat="49.74054" lon="2.34227">
        <ele>55.2</ele>
        <time>2023-03-01T13:19:50Z</time>
      </trkpt>
      <trkpt lat="49.74053" lon="2.34226">
        <ele>55.2</ele>
        <time>2023-03-01T13:19:51Z</time>
      </trkpt>
      <trkpt lat="49.74052" lon="2.34225">
        <ele>55.2</ele>
        <time>2023-03-01T13:19:53Z</time>
      </trkpt>
      <trkpt lat="49.74051" lon="2.34224">
        <ele>55.2</ele>
        <time>2023-03-01T13:19:54Z</time>
      </trkpt>
      <trkpt lat="49.74049" lon="2.34224">
        <ele>55.2</ele>
        <time>2023-03-01T13:19:55Z</time>
      </trkpt>
      <trkpt lat="49.74048" lon="2.34223">
        <ele>55.3</ele>
        <time>2023-03-01T13:19:56Z</time>
      </trkpt>
      <trkpt lat="49.74046" lon="2.34222">
        <ele>55.3</ele>
        <time>2023-03-01T13:19:57Z</time>
      </trkpt>
      <trkpt lat="49.74045" lon="2.34221">
        <ele>55.3</ele>
        <time>2023-03-01T13:19:58Z</time>
      </trkpt>
      <trkpt lat="49.74044" lon="2.34221">
        <ele>55.3</ele>
        <time>2023-03-01T13:19:59Z</time>
      </trkpt>
      <trkpt lat="49.74043" lon="2.3422">
        <ele>55.3</ele>
        <time>2023-03-01T13:20:00Z</time>
      </trkpt>
      <trkpt lat="49.74042" lon="2.34219">
        <ele>55.3</ele>
        <time>2023-03-01T13:20:02Z</time>
      </trkpt>
      <trkpt lat="49.74041" lon="2.34219">
        <ele>55.3</ele>
        <time>2023-03-01T13:20:03Z</time>
      </trkpt>
      <trkpt lat="49.74039" lon="2.34217">
        <ele>55.3</ele>
        <time>2023-03-01T13:20:04Z</time>
      </trkpt>
      <trkpt lat="49.74038" lon="2.34216">
        <ele>55.4</ele>
        <time>2023-03-01T13:20:05Z</time>
      </trkpt>
      <trkpt lat="49.74036" lon="2.34216">
        <ele>55.4</ele>
        <time>2023-03-01T13:20:06Z</time>
      </trkpt>
      <trkpt lat="49.74034" lon="2.34214">
        <ele>55.4</ele>
        <time>2023-03-01T13:20:07Z</time>
      </trkpt>
      <trkpt lat="49.74033" lon="2.34214">
        <ele>55.4</ele>
        <time>2023-03-01T13:20:08Z</time>
      </trkpt>
      <trkpt lat="49.74031" lon="2.34213">
        <ele>55.4</ele>
        <time>2023-03-01T13:20:10Z</time>
      </trkpt>
      <trkpt lat="49.7403" lon="2.34212">
        <ele>55.4</ele>
        <time>2023-03-01T13:20:11Z</time>
      </trkpt>
      <trkpt lat="49.74029" lon="2.34212">
        <ele>55.4</ele>
        <time>2023-03-01T13:20:12Z</time>
      </trkpt>
      <trkpt lat="49.74028" lon="2.34211">
        <ele>55.4</ele>
        <time>2023-03-01T13:20:13Z</time>
      </trkpt>
      <trkpt lat="49.74026" lon="2.3421">
        <ele>55.5</ele>
        <time>2023-03-01T13:20:14Z</time>
      </trkpt>
      <trkpt lat="49.74024" lon="2.34209">
        <ele>55.5</ele>
        <time>2023-03-01T13:20:15Z</time>
      </trkpt>
      <trkpt lat="49.74023" lon="2.34209">
        <ele>55.5</ele>
        <time>2023-03-01T13:20:16Z</time>
      </trkpt>
      <trkpt lat="49.74022" lon="2.34209">
        <ele>55.5</ele>
        <time>2023-03-01T13:20:17Z</time>
      </trkpt>
      <trkpt lat="49.74021" lon="2.34207">
        <ele>55.5</ele>
        <time>2023-03-01T13:20:19Z</time>
      </trkpt>
      <trkpt lat="49.74019" lon="2.34207">
        <ele>55.5</ele>
        <time>2023-03-01T13:20:20Z</time>
      </trkpt>
      <trkpt lat="49.74018" lon="2.34206">
        <ele>55.5</ele>
        <time>2023-03-01T13:20:21Z</time>
      </trkpt>
      <trkpt lat="49.74017" lon="2.34206">
        <ele>55.5</ele>
        <time>2023-03-01T13:20:22Z</time>
      </trkpt>
      <trkpt lat="49.74015" lon="2.34205">
        <ele>55.5</ele>
        <time>2023-03-01T13:20:23Z</time>
      </trkpt>
      <trkpt lat="49.74014" lon="2.34204">
        <ele>55.5</ele>
        <time>2023-03-01T13:20:24Z</time>
      </trkpt>
      <trkpt lat="49.74012" lon="2.34204">
        <ele>55.5</ele>
        <time>2023-03-01T13:20:26Z</time>
      </trkpt>
      <trkpt lat="49.74011" lon="2.34203">
        <ele>55.5</ele>
        <time>2023-03-01T13:20:27Z</time>
      </trkpt>
      <trkpt lat="49.7401" lon="2.34203">
        <ele>55.6</ele>
        <time>2023-03-01T13:20:28Z</time>
      </trkpt>
      <trkpt lat="49.74009" lon="2.34202">
        <ele>55.6</ele>
        <time>2023-03-01T13:20:29Z</time>
      </trkpt>
      <trkpt lat="49.74008" lon="2.34202">
        <ele>55.6</ele>
        <time>2023-03-01T13:20:30Z</time>
      </trkpt>
      <trkpt lat="49.74006" lon="2.34201">
        <ele>55.6</ele>
        <time>2023-03-01T13:20:31Z</time>
      </trkpt>
      <trkpt lat="49.74005" lon="2.342">
        <ele>55.6</ele>
        <time>2023-03-01T13:20:33Z</time>
      </trkpt>
      <trkpt lat="49.74003" lon="2.34199">
        <ele>55.6</ele>
        <time>2023-03-01T13:20:34Z</time>
      </trkpt>
      <trkpt lat="49.74002" lon="2.34198">
        <ele>55.6</ele>
        <time>2023-03-01T13:20:35Z</time>
      </trkpt>
      <trkpt lat="49.74001" lon="2.34198">
        <ele>55.6</ele>
        <time>2023-03-01T13:20:36Z</time>
      </trkpt>
      <trkpt lat="49.74" lon="2.34197">
        <ele>55.6</ele>
        <time>2023-03-01T13:20:37Z</time>
      </trkpt>
      <trkpt lat="49.73998" lon="2.34195">
        <ele>55.6</ele>
        <time>2023-03-01T13:20:38Z</time>
      </trkpt>
      <trkpt lat="49.73997" lon="2.34195">
        <ele>55.6</ele>
        <time>2023-03-01T13:20:39Z</time>
      </trkpt>
      <trkpt lat="49.73996" lon="2.34193">
        <ele>55.7</ele>
        <time>2023-03-01T13:20:41Z</time>
      </trkpt>
      <trkpt lat="49.73995" lon="2.34193">
        <ele>55.7</ele>
        <time>2023-03-01T13:20:42Z</time>
      </trkpt>
      <trkpt lat="49.73992" lon="2.34191">
        <ele>55.7</ele>
        <time>2023-03-01T13:20:43Z</time>
      </trkpt>
      <trkpt lat="49.73991" lon="2.3419">
        <ele>55.7</ele>
        <time>2023-03-01T13:20:45Z</time>
      </trkpt>
      <trkpt lat="49.7399" lon="2.34189">
        <ele>55.7</ele>
        <time>2023-03-01T13:20:46Z</time>
      </trkpt>
      <trkpt lat="49.73989" lon="2.34188">
        <ele>55.7</ele>
        <time>2023-03-01T13:20:47Z</time>
      </trkpt>
      <trkpt lat="49.73988" lon="2.34187">
        <ele>55.7</ele>
        <time>2023-03-01T13:20:48Z</time>
      </trkpt>
      <trkpt lat="49.73987" lon="2.34186">
        <ele>55.7</ele>
        <time>2023-03-01T13:20:49Z</time>
      </trkpt>
      <trkpt lat="49.73986" lon="2.34185">
        <ele>55.7</ele>
        <time>2023-03-01T13:20:50Z</time>
      </trkpt>
      <trkpt lat="49.73984" lon="2.34184">
        <ele>55.7</ele>
        <time>2023-03-01T13:20:51Z</time>
      </trkpt>
      <trkpt lat="49.73983" lon="2.34183">
        <ele>55.7</ele>
        <time>2023-03-01T13:20:52Z</time>
      </trkpt>
      <trkpt lat="49.73982" lon="2.34182">
        <ele>55.7</ele>
        <time>2023-03-01T13:20:54Z</time>
      </trkpt>
      <trkpt lat="49.73981" lon="2.34181">
        <ele>55.7</ele>
        <time>2023-03-01T13:20:55Z</time>
      </trkpt>
      <trkpt lat="49.73979" lon="2.34179">
        <ele>55.7</ele>
        <time>2023-03-01T13:20:56Z</time>
      </trkpt>
      <trkpt lat="49.73978" lon="2.34178">
        <ele>55.7</ele>
        <time>2023-03-01T13:20:57Z</time>
      </trkpt>
      <trkpt lat="49.73977" lon="2.34177">
        <ele>55.7</ele>
        <time>2023-03-01T13:20:58Z</time>
      </trkpt>
      <trkpt lat="49.73976" lon="2.34176">
        <ele>55.7</ele>
        <time>2023-03-01T13:20:59Z</time>
      </trkpt>
      <trkpt lat="49.73974" lon="2.34175">
        <ele>55.7</ele>
        <time>2023-03-01T13:21:00Z</time>
      </trkpt>
      <trkpt lat="49.73973" lon="2.34174">
        <ele>55.7</ele>
        <time>2023-03-01T13:21:01Z</time>
      </trkpt>
      <trkpt lat="49.73972" lon="2.34173">
        <ele>55.7</ele>
        <time>2023-03-01T13:21:02Z</time>
      </trkpt>
      <trkpt lat="49.7397" lon="2.34172">
        <ele>55.7</ele>
        <time>2023-03-01T13:21:04Z</time>
      </trkpt>
      <trkpt lat="49.73969" lon="2.34171">
        <ele>55.7</ele>
        <time>2023-03-01T13:21:05Z</time>
      </trkpt>
      <trkpt lat="49.73968" lon="2.34171">
        <ele>55.8</ele>
        <time>2023-03-01T13:21:06Z</time>
      </trkpt>
      <trkpt lat="49.73967" lon="2.3417">
        <ele>55.8</ele>
        <time>2023-03-01T13:21:07Z</time>
      </trkpt>
      <trkpt lat="49.73965" lon="2.34169">
        <ele>55.8</ele>
        <time>2023-03-01T13:21:08Z</time>
      </trkpt>
      <trkpt lat="49.73964" lon="2.34168">
        <ele>55.8</ele>
        <time>2023-03-01T13:21:09Z</time>
      </trkpt>
      <trkpt lat="49.73963" lon="2.34168">
        <ele>55.8</ele>
        <time>2023-03-01T13:21:10Z</time>
      </trkpt>
      <trkpt lat="49.7396" lon="2.34166">
        <ele>55.8</ele>
        <time>2023-03-01T13:21:12Z</time>
      </trkpt>
      <trkpt lat="49.73958" lon="2.34165">
        <ele>55.8</ele>
        <time>2023-03-01T13:21:13Z</time>
      </trkpt>
      <trkpt lat="49.73957" lon="2.34164">
        <ele>55.8</ele>
        <time>2023-03-01T13:21:15Z</time>
      </trkpt>
      <trkpt lat="49.73956" lon="2.34163">
        <ele>55.8</ele>
        <time>2023-03-01T13:21:16Z</time>
      </trkpt>
      <trkpt lat="49.73954" lon="2.34162">
        <ele>55.8</ele>
        <time>2023-03-01T13:21:17Z</time>
      </trkpt>
      <trkpt lat="49.73952" lon="2.34161">
        <ele>55.8</ele>
        <time>2023-03-01T13:21:18Z</time>
      </trkpt>
      <trkpt lat="49.73951" lon="2.3416">
        <ele>55.8</ele>
        <time>2023-03-01T13:21:19Z</time>
      </trkpt>
      <trkpt lat="49.73949" lon="2.34159">
        <ele>55.8</ele>
        <time>2023-03-01T13:21:20Z</time>
      </trkpt>
      <trkpt lat="49.73948" lon="2.34158">
        <ele>55.8</ele>
        <time>2023-03-01T13:21:21Z</time>
      </trkpt>
      <trkpt lat="49.73948" lon="2.34158">
        <ele>55.8</ele>
        <time>2023-03-01T13:21:22Z</time>
      </trkpt>
      <trkpt lat="49.73946" lon="2.34157">
        <ele>55.8</ele>
        <time>2023-03-01T13:21:24Z</time>
      </trkpt>
      <trkpt lat="49.73944" lon="2.34156">
        <ele>55.8</ele>
        <time>2023-03-01T13:21:25Z</time>
      </trkpt>
      <trkpt lat="49.73943" lon="2.34155">
        <ele>55.8</ele>
        <time>2023-03-01T13:21:26Z</time>
      </trkpt>
      <trkpt lat="49.73942" lon="2.34154">
        <ele>55.8</ele>
        <time>2023-03-01T13:21:27Z</time>
      </trkpt>
      <trkpt lat="49.73941" lon="2.34153">
        <ele>55.8</ele>
        <time>2023-03-01T13:21:28Z</time>
      </trkpt>
      <trkpt lat="49.73939" lon="2.34152">
        <ele>55.8</ele>
        <time>2023-03-01T13:21:29Z</time>
      </trkpt>
      <trkpt lat="49.73938" lon="2.34151">
        <ele>55.8</ele>
        <time>2023-03-01T13:21:30Z</time>
      </trkpt>
      <trkpt lat="49.73936" lon="2.3415">
        <ele>55.8</ele>
        <time>2023-03-01T13:21:32Z</time>
      </trkpt>
      <trkpt lat="49.73935" lon="2.34149">
        <ele>55.9</ele>
        <time>2023-03-01T13:21:33Z</time>
      </trkpt>
      <trkpt lat="49.73933" lon="2.34148">
        <ele>55.9</ele>
        <time>2023-03-01T13:21:34Z</time>
      </trkpt>
      <trkpt lat="49.73933" lon="2.34147">
        <ele>55.9</ele>
        <time>2023-03-01T13:21:35Z</time>
      </trkpt>
      <trkpt lat="49.73932" lon="2.34146">
        <ele>55.9</ele>
        <time>2023-03-01T13:21:36Z</time>
      </trkpt>
      <trkpt lat="49.7393" lon="2.34145">
        <ele>55.9</ele>
        <time>2023-03-01T13:21:37Z</time>
      </trkpt>
      <trkpt lat="49.73929" lon="2.34144">
        <ele>55.9</ele>
        <time>2023-03-01T13:21:38Z</time>
      </trkpt>
      <trkpt lat="49.73928" lon="2.34143">
        <ele>55.9</ele>
        <time>2023-03-01T13:21:39Z</time>
      </trkpt>
      <trkpt lat="49.73926" lon="2.34141">
        <ele>55.9</ele>
        <time>2023-03-01T13:21:40Z</time>
      </trkpt>
      <trkpt lat="49.73925" lon="2.34141">
        <ele>55.9</ele>
        <time>2023-03-01T13:21:42Z</time>
      </trkpt>
      <trkpt lat="49.73924" lon="2.3414">
        <ele>55.9</ele>
        <time>2023-03-01T13:21:43Z</time>
      </trkpt>
      <trkpt lat="49.73922" lon="2.34139">
        <ele>55.9</ele>
        <time>2023-03-01T13:21:44Z</time>
      </trkpt>
      <trkpt lat="49.73921" lon="2.34139">
        <ele>55.9</ele>
        <time>2023-03-01T13:21:45Z</time>
      </trkpt>
      <trkpt lat="49.7392" lon="2.34138">
        <ele>56</ele>
        <time>2023-03-01T13:21:46Z</time>
      </trkpt>
      <trkpt lat="49.73919" lon="2.34138">
        <ele>56</ele>
        <time>2023-03-01T13:21:47Z</time>
      </trkpt>
      <trkpt lat="49.73917" lon="2.34137">
        <ele>56</ele>
        <time>2023-03-01T13:21:49Z</time>
      </trkpt>
      <trkpt lat="49.73916" lon="2.34137">
        <ele>56</ele>
        <time>2023-03-01T13:21:50Z</time>
      </trkpt>
      <trkpt lat="49.73915" lon="2.34136">
        <ele>56</ele>
        <time>2023-03-01T13:21:51Z</time>
      </trkpt>
      <trkpt lat="49.73914" lon="2.34136">
        <ele>56</ele>
        <time>2023-03-01T13:21:52Z</time>
      </trkpt>
      <trkpt lat="49.73913" lon="2.34136">
        <ele>56</ele>
        <time>2023-03-01T13:21:53Z</time>
      </trkpt>
      <trkpt lat="49.73912" lon="2.34136">
        <ele>56.1</ele>
        <time>2023-03-01T13:21:54Z</time>
      </trkpt>
      <trkpt lat="49.73911" lon="2.34135">
        <ele>56.1</ele>
        <time>2023-03-01T13:21:55Z</time>
      </trkpt>
      <trkpt lat="49.73909" lon="2.34134">
        <ele>56.1</ele>
        <time>2023-03-01T13:21:56Z</time>
      </trkpt>
      <trkpt lat="49.73908" lon="2.34134">
        <ele>56.1</ele>
        <time>2023-03-01T13:21:58Z</time>
      </trkpt>
      <trkpt lat="49.73907" lon="2.34133">
        <ele>56.1</ele>
        <time>2023-03-01T13:21:59Z</time>
      </trkpt>
      <trkpt lat="49.73906" lon="2.34133">
        <ele>56.2</ele>
        <time>2023-03-01T13:22:00Z</time>
      </trkpt>
      <trkpt lat="49.73905" lon="2.34133">
        <ele>56.2</ele>
        <time>2023-03-01T13:22:01Z</time>
      </trkpt>
      <trkpt lat="49.73904" lon="2.34133">
        <ele>56.2</ele>
        <time>2023-03-01T13:22:02Z</time>
      </trkpt>
      <trkpt lat="49.73903" lon="2.34133">
        <ele>56.2</ele>
        <time>2023-03-01T13:22:03Z</time>
      </trkpt>
      <trkpt lat="49.73902" lon="2.34132">
        <ele>56.2</ele>
        <time>2023-03-01T13:22:04Z</time>
      </trkpt>
      <trkpt lat="49.73901" lon="2.34132">
        <ele>56.2</ele>
        <time>2023-03-01T13:22:06Z</time>
      </trkpt>
      <trkpt lat="49.73899" lon="2.34131">
        <ele>56.3</ele>
        <time>2023-03-01T13:22:07Z</time>
      </trkpt>
      <trkpt lat="49.73898" lon="2.34131">
        <ele>56.3</ele>
        <time>2023-03-01T13:22:08Z</time>
      </trkpt>
      <trkpt lat="49.73898" lon="2.34129">
        <ele>56.3</ele>
        <time>2023-03-01T13:22:10Z</time>
      </trkpt>
      <trkpt lat="49.73897" lon="2.34128">
        <ele>56.3</ele>
        <time>2023-03-01T13:22:11Z</time>
      </trkpt>
      <trkpt lat="49.73896" lon="2.34127">
        <ele>56.3</ele>
        <time>2023-03-01T13:22:12Z</time>
      </trkpt>
      <trkpt lat="49.73895" lon="2.34126">
        <ele>56.3</ele>
        <time>2023-03-01T13:22:13Z</time>
      </trkpt>
      <trkpt lat="49.73894" lon="2.34125">
        <ele>56.4</ele>
        <time>2023-03-01T13:22:14Z</time>
      </trkpt>
      <trkpt lat="49.73893" lon="2.34124">
        <ele>56.4</ele>
        <time>2023-03-01T13:22:15Z</time>
      </trkpt>
      <trkpt lat="49.73892" lon="2.34123">
        <ele>56.4</ele>
        <time>2023-03-01T13:22:17Z</time>
      </trkpt>
      <trkpt lat="49.73892" lon="2.34122">
        <ele>56.4</ele>
        <time>2023-03-01T13:22:18Z</time>
      </trkpt>
      <trkpt lat="49.7389" lon="2.34121">
        <ele>56.4</ele>
        <time>2023-03-01T13:22:19Z</time>
      </trkpt>
      <trkpt lat="49.7389" lon="2.3412">
        <ele>56.4</ele>
        <time>2023-03-01T13:22:20Z</time>
      </trkpt>
      <trkpt lat="49.73889" lon="2.34119">
        <ele>56.5</ele>
        <time>2023-03-01T13:22:21Z</time>
      </trkpt>
      <trkpt lat="49.73889" lon="2.34118">
        <ele>56.5</ele>
        <time>2023-03-01T13:22:23Z</time>
      </trkpt>
      <trkpt lat="49.73888" lon="2.34117">
        <ele>56.5</ele>
        <time>2023-03-01T13:22:24Z</time>
      </trkpt>
      <trkpt lat="49.73887" lon="2.34116">
        <ele>56.5</ele>
        <time>2023-03-01T13:22:25Z</time>
      </trkpt>
      <trkpt lat="49.73886" lon="2.34116">
        <ele>56.5</ele>
        <time>2023-03-01T13:22:26Z</time>
      </trkpt>
      <trkpt lat="49.73885" lon="2.34115">
        <ele>56.5</ele>
        <time>2023-03-01T13:22:27Z</time>
      </trkpt>
      <trkpt lat="49.73885" lon="2.34114">
        <ele>56.5</ele>
        <time>2023-03-01T13:22:28Z</time>
      </trkpt>
      <trkpt lat="49.73884" lon="2.34112">
        <ele>56.6</ele>
        <time>2023-03-01T13:22:29Z</time>
      </trkpt>
      <trkpt lat="49.73883" lon="2.34111">
        <ele>56.6</ele>
        <time>2023-03-01T13:22:30Z</time>
      </trkpt>
      <trkpt lat="49.73883" lon="2.3411">
        <ele>56.6</ele>
        <time>2023-03-01T13:22:31Z</time>
      </trkpt>
      <trkpt lat="49.73882" lon="2.34109">
        <ele>56.6</ele>
        <time>2023-03-01T13:22:32Z</time>
      </trkpt>
      <trkpt lat="49.73881" lon="2.34108">
        <ele>56.6</ele>
        <time>2023-03-01T13:22:33Z</time>
      </trkpt>
      <trkpt lat="49.73879" lon="2.34105">
        <ele>56.6</ele>
        <time>2023-03-01T13:22:35Z</time>
      </trkpt>
      <trkpt lat="49.73879" lon="2.34105">
        <ele>56.6</ele>
        <time>2023-03-01T13:22:36Z</time>
      </trkpt>
      <trkpt lat="49.73878" lon="2.34104">
        <ele>56.6</ele>
        <time>2023-03-01T13:22:37Z</time>
      </trkpt>
      <trkpt lat="49.73877" lon="2.34103">
        <ele>56.7</ele>
        <time>2023-03-01T13:22:38Z</time>
      </trkpt>
      <trkpt lat="49.73876" lon="2.34101">
        <ele>56.7</ele>
        <time>2023-03-01T13:22:39Z</time>
      </trkpt>
      <trkpt lat="49.73876" lon="2.34101">
        <ele>56.7</ele>
        <time>2023-03-01T13:22:40Z</time>
      </trkpt>
      <trkpt lat="49.73876" lon="2.341">
        <ele>56.7</ele>
        <time>2023-03-01T13:22:41Z</time>
      </trkpt>
      <trkpt lat="49.73876" lon="2.34099">
        <ele>56.7</ele>
        <time>2023-03-01T13:22:42Z</time>
      </trkpt>
      <trkpt lat="49.73875" lon="2.34098">
        <ele>56.7</ele>
        <time>2023-03-01T13:22:43Z</time>
      </trkpt>
      <trkpt lat="49.73875" lon="2.34096">
        <ele>56.7</ele>
        <time>2023-03-01T13:22:44Z</time>
      </trkpt>
      <trkpt lat="49.73875" lon="2.34095">
        <ele>56.7</ele>
        <time>2023-03-01T13:22:46Z</time>
      </trkpt>
      <trkpt lat="49.73875" lon="2.34094">
        <ele>56.7</ele>
        <time>2023-03-01T13:22:47Z</time>
      </trkpt>
      <trkpt lat="49.73874" lon="2.34092">
        <ele>56.7</ele>
        <time>2023-03-01T13:22:48Z</time>
      </trkpt>
      <trkpt lat="49.73874" lon="2.34091">
        <ele>56.7</ele>
        <time>2023-03-01T13:22:49Z</time>
      </trkpt>
      <trkpt lat="49.73873" lon="2.34089">
        <ele>56.7</ele>
        <time>2023-03-01T13:22:50Z</time>
      </trkpt>
      <trkpt lat="49.73873" lon="2.34088">
        <ele>56.7</ele>
        <time>2023-03-01T13:22:51Z</time>
      </trkpt>
      <trkpt lat="49.73873" lon="2.34087">
        <ele>56.8</ele>
        <time>2023-03-01T13:22:52Z</time>
      </trkpt>
      <trkpt lat="49.73872" lon="2.34085">
        <ele>56.8</ele>
        <time>2023-03-01T13:22:53Z</time>
      </trkpt>
      <trkpt lat="49.73873" lon="2.34084">
        <ele>56.8</ele>
        <time>2023-03-01T13:22:54Z</time>
      </trkpt>
      <trkpt lat="49.73874" lon="2.34084">
        <ele>56.8</ele>
        <time>2023-03-01T13:22:55Z</time>
      </trkpt>
      <trkpt lat="49.73875" lon="2.34084">
        <ele>56.8</ele>
        <time>2023-03-01T13:22:56Z</time>
      </trkpt>
      <trkpt lat="49.73876" lon="2.34082">
        <ele>56.8</ele>
        <time>2023-03-01T13:22:58Z</time>
      </trkpt>
      <trkpt lat="49.73875" lon="2.34081">
        <ele>56.8</ele>
        <time>2023-03-01T13:22:59Z</time>
      </trkpt>
      <trkpt lat="49.73875" lon="2.34079">
        <ele>56.9</ele>
        <time>2023-03-01T13:23:00Z</time>
      </trkpt>
      <trkpt lat="49.73874" lon="2.34077">
        <ele>56.9</ele>
        <time>2023-03-01T13:23:01Z</time>
      </trkpt>
      <trkpt lat="49.73874" lon="2.34076">
        <ele>56.9</ele>
        <time>2023-03-01T13:23:02Z</time>
      </trkpt>
      <trkpt lat="49.73873" lon="2.34074">
        <ele>56.9</ele>
        <time>2023-03-01T13:23:03Z</time>
      </trkpt>
      <trkpt lat="49.73873" lon="2.34073">
        <ele>56.9</ele>
        <time>2023-03-01T13:23:04Z</time>
      </trkpt>
      <trkpt lat="49.73872" lon="2.34072">
        <ele>56.9</ele>
        <time>2023-03-01T13:23:06Z</time>
      </trkpt>
      <trkpt lat="49.73872" lon="2.3407">
        <ele>56.9</ele>
        <time>2023-03-01T13:23:07Z</time>
      </trkpt>
      <trkpt lat="49.73871" lon="2.34069">
        <ele>57</ele>
        <time>2023-03-01T13:23:08Z</time>
      </trkpt>
      <trkpt lat="49.7387" lon="2.34068">
        <ele>57</ele>
        <time>2023-03-01T13:23:09Z</time>
      </trkpt>
      <trkpt lat="49.7387" lon="2.34066">
        <ele>57</ele>
        <time>2023-03-01T13:23:10Z</time>
      </trkpt>
      <trkpt lat="49.73869" lon="2.34065">
        <ele>57</ele>
        <time>2023-03-01T13:23:11Z</time>
      </trkpt>
      <trkpt lat="49.73869" lon="2.34064">
        <ele>57</ele>
        <time>2023-03-01T13:23:12Z</time>
      </trkpt>
      <trkpt lat="49.73868" lon="2.34062">
        <ele>57</ele>
        <time>2023-03-01T13:23:14Z</time>
      </trkpt>
      <trkpt lat="49.73868" lon="2.34061">
        <ele>57.1</ele>
        <time>2023-03-01T13:23:15Z</time>
      </trkpt>
      <trkpt lat="49.73868" lon="2.3406">
        <ele>57.1</ele>
        <time>2023-03-01T13:23:16Z</time>
      </trkpt>
      <trkpt lat="49.73867" lon="2.34058">
        <ele>57.1</ele>
        <time>2023-03-01T13:23:17Z</time>
      </trkpt>
      <trkpt lat="49.73866" lon="2.34057">
        <ele>57.1</ele>
        <time>2023-03-01T13:23:18Z</time>
      </trkpt>
      <trkpt lat="49.73865" lon="2.34054">
        <ele>57.1</ele>
        <time>2023-03-01T13:23:19Z</time>
      </trkpt>
      <trkpt lat="49.73865" lon="2.34053">
        <ele>57.2</ele>
        <time>2023-03-01T13:23:20Z</time>
      </trkpt>
      <trkpt lat="49.73864" lon="2.3405">
        <ele>57.2</ele>
        <time>2023-03-01T13:23:22Z</time>
      </trkpt>
      <trkpt lat="49.73863" lon="2.34049">
        <ele>57.2</ele>
        <time>2023-03-01T13:23:23Z</time>
      </trkpt>
      <trkpt lat="49.73863" lon="2.34048">
        <ele>57.2</ele>
        <time>2023-03-01T13:23:24Z</time>
      </trkpt>
      <trkpt lat="49.73862" lon="2.34046">
        <ele>57.3</ele>
        <time>2023-03-01T13:23:25Z</time>
      </trkpt>
      <trkpt lat="49.73861" lon="2.34044">
        <ele>57.3</ele>
        <time>2023-03-01T13:23:26Z</time>
      </trkpt>
      <trkpt lat="49.7386" lon="2.34042">
        <ele>57.4</ele>
        <time>2023-03-01T13:23:27Z</time>
      </trkpt>
      <trkpt lat="49.73859" lon="2.3404">
        <ele>57.4</ele>
        <time>2023-03-01T13:23:28Z</time>
      </trkpt>
      <trkpt lat="49.73858" lon="2.34037">
        <ele>57.4</ele>
        <time>2023-03-01T13:23:29Z</time>
      </trkpt>
      <trkpt lat="49.73857" lon="2.34036">
        <ele>57.5</ele>
        <time>2023-03-01T13:23:30Z</time>
      </trkpt>
      <trkpt lat="49.73856" lon="2.34034">
        <ele>57.5</ele>
        <time>2023-03-01T13:23:32Z</time>
      </trkpt>
      <trkpt lat="49.73855" lon="2.34032">
        <ele>57.5</ele>
        <time>2023-03-01T13:23:33Z</time>
      </trkpt>
      <trkpt lat="49.73853" lon="2.34028">
        <ele>57.6</ele>
        <time>2023-03-01T13:23:34Z</time>
      </trkpt>
      <trkpt lat="49.73852" lon="2.34027">
        <ele>57.6</ele>
        <time>2023-03-01T13:23:35Z</time>
      </trkpt>
      <trkpt lat="49.73851" lon="2.34025">
        <ele>57.6</ele>
        <time>2023-03-01T13:23:36Z</time>
      </trkpt>
      <trkpt lat="49.7385" lon="2.34024">
        <ele>57.7</ele>
        <time>2023-03-01T13:23:37Z</time>
      </trkpt>
      <trkpt lat="49.73848" lon="2.34021">
        <ele>57.7</ele>
        <time>2023-03-01T13:23:38Z</time>
      </trkpt>
      <trkpt lat="49.73847" lon="2.34019">
        <ele>57.7</ele>
        <time>2023-03-01T13:23:39Z</time>
      </trkpt>
      <trkpt lat="49.73846" lon="2.34018">
        <ele>57.8</ele>
        <time>2023-03-01T13:23:40Z</time>
      </trkpt>
      <trkpt lat="49.73845" lon="2.34017">
        <ele>57.8</ele>
        <time>2023-03-01T13:23:41Z</time>
      </trkpt>
      <trkpt lat="49.73844" lon="2.34015">
        <ele>57.8</ele>
        <time>2023-03-01T13:23:42Z</time>
      </trkpt>
      <trkpt lat="49.73842" lon="2.34012">
        <ele>57.9</ele>
        <time>2023-03-01T13:23:44Z</time>
      </trkpt>
      <trkpt lat="49.73841" lon="2.34011">
        <ele>57.9</ele>
        <time>2023-03-01T13:23:45Z</time>
      </trkpt>
      <trkpt lat="49.7384" lon="2.3401">
        <ele>57.9</ele>
        <time>2023-03-01T13:23:46Z</time>
      </trkpt>
      <trkpt lat="49.73839" lon="2.34008">
        <ele>57.9</ele>
        <time>2023-03-01T13:23:47Z</time>
      </trkpt>
      <trkpt lat="49.73837" lon="2.34005">
        <ele>57.9</ele>
        <time>2023-03-01T13:23:48Z</time>
      </trkpt>
      <trkpt lat="49.73837" lon="2.34004">
        <ele>57.9</ele>
        <time>2023-03-01T13:23:49Z</time>
      </trkpt>
      <trkpt lat="49.73837" lon="2.34003">
        <ele>57.9</ele>
        <time>2023-03-01T13:23:50Z</time>
      </trkpt>
      <trkpt lat="49.73835" lon="2.34">
        <ele>58</ele>
        <time>2023-03-01T13:23:51Z</time>
      </trkpt>
      <trkpt lat="49.73835" lon="2.33999">
        <ele>58</ele>
        <time>2023-03-01T13:23:53Z</time>
      </trkpt>
      <trkpt lat="49.73834" lon="2.33998">
        <ele>58</ele>
        <time>2023-03-01T13:23:54Z</time>
      </trkpt>
      <trkpt lat="49.73833" lon="2.33996">
        <ele>58</ele>
        <time>2023-03-01T13:23:55Z</time>
      </trkpt>
      <trkpt lat="49.73832" lon="2.33995">
        <ele>58</ele>
        <time>2023-03-01T13:23:56Z</time>
      </trkpt>
      <trkpt lat="49.73831" lon="2.33993">
        <ele>58</ele>
        <time>2023-03-01T13:23:57Z</time>
      </trkpt>
      <trkpt lat="49.73831" lon="2.33992">
        <ele>58.1</ele>
        <time>2023-03-01T13:23:58Z</time>
      </trkpt>
      <trkpt lat="49.73829" lon="2.3399">
        <ele>58.1</ele>
        <time>2023-03-01T13:23:59Z</time>
      </trkpt>
      <trkpt lat="49.73828" lon="2.33988">
        <ele>58.1</ele>
        <time>2023-03-01T13:24:00Z</time>
      </trkpt>
      <trkpt lat="49.73827" lon="2.33986">
        <ele>58.1</ele>
        <time>2023-03-01T13:24:01Z</time>
      </trkpt>
      <trkpt lat="49.73826" lon="2.33985">
        <ele>58.1</ele>
        <time>2023-03-01T13:24:02Z</time>
      </trkpt>
      <trkpt lat="49.73824" lon="2.33982">
        <ele>58.2</ele>
        <time>2023-03-01T13:24:04Z</time>
      </trkpt>
      <trkpt lat="49.73823" lon="2.33981">
        <ele>58.2</ele>
        <time>2023-03-01T13:24:05Z</time>
      </trkpt>
      <trkpt lat="49.73822" lon="2.3398">
        <ele>58.2</ele>
        <time>2023-03-01T13:24:06Z</time>
      </trkpt>
      <trkpt lat="49.73821" lon="2.33978">
        <ele>58.2</ele>
        <time>2023-03-01T13:24:07Z</time>
      </trkpt>
      <trkpt lat="49.7382" lon="2.33977">
        <ele>58.3</ele>
        <time>2023-03-01T13:24:08Z</time>
      </trkpt>
      <trkpt lat="49.73818" lon="2.33975">
        <ele>58.3</ele>
        <time>2023-03-01T13:24:09Z</time>
      </trkpt>
      <trkpt lat="49.73817" lon="2.33973">
        <ele>58.3</ele>
        <time>2023-03-01T13:24:10Z</time>
      </trkpt>
      <trkpt lat="49.73816" lon="2.33972">
        <ele>58.3</ele>
        <time>2023-03-01T13:24:11Z</time>
      </trkpt>
      <trkpt lat="49.73815" lon="2.3397">
        <ele>58.3</ele>
        <time>2023-03-01T13:24:12Z</time>
      </trkpt>
      <trkpt lat="49.73814" lon="2.33969">
        <ele>58.3</ele>
        <time>2023-03-01T13:24:13Z</time>
      </trkpt>
      <trkpt lat="49.73812" lon="2.33966">
        <ele>58.4</ele>
        <time>2023-03-01T13:24:14Z</time>
      </trkpt>
      <trkpt lat="49.73811" lon="2.33965">
        <ele>58.4</ele>
        <time>2023-03-01T13:24:16Z</time>
      </trkpt>
      <trkpt lat="49.73811" lon="2.33963">
        <ele>58.4</ele>
        <time>2023-03-01T13:24:17Z</time>
      </trkpt>
      <trkpt lat="49.7381" lon="2.33962">
        <ele>58.4</ele>
        <time>2023-03-01T13:24:18Z</time>
      </trkpt>
      <trkpt lat="49.73809" lon="2.33961">
        <ele>58.4</ele>
        <time>2023-03-01T13:24:19Z</time>
      </trkpt>
      <trkpt lat="49.73808" lon="2.33959">
        <ele>58.4</ele>
        <time>2023-03-01T13:24:20Z</time>
      </trkpt>
      <trkpt lat="49.73807" lon="2.33958">
        <ele>58.5</ele>
        <time>2023-03-01T13:24:22Z</time>
      </trkpt>
      <trkpt lat="49.73806" lon="2.33957">
        <ele>58.5</ele>
        <time>2023-03-01T13:24:23Z</time>
      </trkpt>
      <trkpt lat="49.73806" lon="2.33956">
        <ele>58.5</ele>
        <time>2023-03-01T13:24:24Z</time>
      </trkpt>
      <trkpt lat="49.73804" lon="2.33955">
        <ele>58.5</ele>
        <time>2023-03-01T13:24:25Z</time>
      </trkpt>
      <trkpt lat="49.73804" lon="2.33954">
        <ele>58.5</ele>
        <time>2023-03-01T13:24:26Z</time>
      </trkpt>
      <trkpt lat="49.73803" lon="2.33953">
        <ele>58.5</ele>
        <time>2023-03-01T13:24:27Z</time>
      </trkpt>
      <trkpt lat="49.73803" lon="2.33953">
        <ele>58.5</ele>
        <time>2023-03-01T13:24:28Z</time>
      </trkpt>
      <trkpt lat="49.73802" lon="2.33952">
        <ele>58.6</ele>
        <time>2023-03-01T13:24:29Z</time>
      </trkpt>
      <trkpt lat="49.73802" lon="2.3395">
        <ele>58.6</ele>
        <time>2023-03-01T13:24:30Z</time>
      </trkpt>
      <trkpt lat="49.73801" lon="2.33949">
        <ele>58.6</ele>
        <time>2023-03-01T13:24:31Z</time>
      </trkpt>
      <trkpt lat="49.738" lon="2.33949">
        <ele>58.6</ele>
        <time>2023-03-01T13:24:33Z</time>
      </trkpt>
      <trkpt lat="49.738" lon="2.33948">
        <ele>58.6</ele>
        <time>2023-03-01T13:24:34Z</time>
      </trkpt>
      <trkpt lat="49.73799" lon="2.33947">
        <ele>58.6</ele>
        <time>2023-03-01T13:24:35Z</time>
      </trkpt>
      <trkpt lat="49.73799" lon="2.33946">
        <ele>58.6</ele>
        <time>2023-03-01T13:24:36Z</time>
      </trkpt>
      <trkpt lat="49.73798" lon="2.33946">
        <ele>58.6</ele>
        <time>2023-03-01T13:24:37Z</time>
      </trkpt>
      <trkpt lat="49.73798" lon="2.33945">
        <ele>58.7</ele>
        <time>2023-03-01T13:24:38Z</time>
      </trkpt>
      <trkpt lat="49.73797" lon="2.33944">
        <ele>58.7</ele>
        <time>2023-03-01T13:24:39Z</time>
      </trkpt>
      <trkpt lat="49.73796" lon="2.33942">
        <ele>58.7</ele>
        <time>2023-03-01T13:24:40Z</time>
      </trkpt>
      <trkpt lat="49.73795" lon="2.33941">
        <ele>58.7</ele>
        <time>2023-03-01T13:24:42Z</time>
      </trkpt>
      <trkpt lat="49.73794" lon="2.3394">
        <ele>58.7</ele>
        <time>2023-03-01T13:24:43Z</time>
      </trkpt>
      <trkpt lat="49.73794" lon="2.33939">
        <ele>58.8</ele>
        <time>2023-03-01T13:24:44Z</time>
      </trkpt>
      <trkpt lat="49.73793" lon="2.33937">
        <ele>58.8</ele>
        <time>2023-03-01T13:24:45Z</time>
      </trkpt>
      <trkpt lat="49.73792" lon="2.33935">
        <ele>58.8</ele>
        <time>2023-03-01T13:24:46Z</time>
      </trkpt>
      <trkpt lat="49.73791" lon="2.33934">
        <ele>58.8</ele>
        <time>2023-03-01T13:24:47Z</time>
      </trkpt>
      <trkpt lat="49.7379" lon="2.33932">
        <ele>58.9</ele>
        <time>2023-03-01T13:24:49Z</time>
      </trkpt>
      <trkpt lat="49.73789" lon="2.3393">
        <ele>58.9</ele>
        <time>2023-03-01T13:24:50Z</time>
      </trkpt>
      <trkpt lat="49.73788" lon="2.33929">
        <ele>59</ele>
        <time>2023-03-01T13:24:51Z</time>
      </trkpt>
      <trkpt lat="49.73787" lon="2.33928">
        <ele>59</ele>
        <time>2023-03-01T13:24:52Z</time>
      </trkpt>
      <trkpt lat="49.73786" lon="2.33927">
        <ele>59</ele>
        <time>2023-03-01T13:24:53Z</time>
      </trkpt>
      <trkpt lat="49.73785" lon="2.33926">
        <ele>59</ele>
        <time>2023-03-01T13:24:55Z</time>
      </trkpt>
      <trkpt lat="49.73784" lon="2.33924">
        <ele>59.1</ele>
        <time>2023-03-01T13:24:56Z</time>
      </trkpt>
      <trkpt lat="49.73782" lon="2.33923">
        <ele>59.1</ele>
        <time>2023-03-01T13:24:57Z</time>
      </trkpt>
      <trkpt lat="49.73781" lon="2.33921">
        <ele>59.2</ele>
        <time>2023-03-01T13:24:58Z</time>
      </trkpt>
      <trkpt lat="49.7378" lon="2.3392">
        <ele>59.2</ele>
        <time>2023-03-01T13:24:59Z</time>
      </trkpt>
      <trkpt lat="49.73778" lon="2.33919">
        <ele>59.3</ele>
        <time>2023-03-01T13:25:00Z</time>
      </trkpt>
      <trkpt lat="49.73778" lon="2.33918">
        <ele>59.3</ele>
        <time>2023-03-01T13:25:01Z</time>
      </trkpt>
      <trkpt lat="49.73776" lon="2.33916">
        <ele>59.3</ele>
        <time>2023-03-01T13:25:03Z</time>
      </trkpt>
      <trkpt lat="49.73775" lon="2.33915">
        <ele>59.4</ele>
        <time>2023-03-01T13:25:04Z</time>
      </trkpt>
      <trkpt lat="49.73774" lon="2.33914">
        <ele>59.4</ele>
        <time>2023-03-01T13:25:05Z</time>
      </trkpt>
      <trkpt lat="49.73773" lon="2.33912">
        <ele>59.5</ele>
        <time>2023-03-01T13:25:06Z</time>
      </trkpt>
      <trkpt lat="49.73772" lon="2.33911">
        <ele>59.5</ele>
        <time>2023-03-01T13:25:07Z</time>
      </trkpt>
      <trkpt lat="49.73772" lon="2.3391">
        <ele>59.5</ele>
        <time>2023-03-01T13:25:08Z</time>
      </trkpt>
      <trkpt lat="49.73771" lon="2.33908">
        <ele>59.5</ele>
        <time>2023-03-01T13:25:09Z</time>
      </trkpt>
      <trkpt lat="49.73769" lon="2.33906">
        <ele>59.6</ele>
        <time>2023-03-01T13:25:10Z</time>
      </trkpt>
      <trkpt lat="49.73769" lon="2.33905">
        <ele>59.6</ele>
        <time>2023-03-01T13:25:11Z</time>
      </trkpt>
      <trkpt lat="49.73768" lon="2.33904">
        <ele>59.7</ele>
        <time>2023-03-01T13:25:13Z</time>
      </trkpt>
      <trkpt lat="49.73767" lon="2.33903">
        <ele>59.7</ele>
        <time>2023-03-01T13:25:14Z</time>
      </trkpt>
      <trkpt lat="49.73766" lon="2.33901">
        <ele>59.7</ele>
        <time>2023-03-01T13:25:15Z</time>
      </trkpt>
      <trkpt lat="49.73765" lon="2.339">
        <ele>59.8</ele>
        <time>2023-03-01T13:25:16Z</time>
      </trkpt>
      <trkpt lat="49.73765" lon="2.33899">
        <ele>59.8</ele>
        <time>2023-03-01T13:25:17Z</time>
      </trkpt>
      <trkpt lat="49.73764" lon="2.33898">
        <ele>59.8</ele>
        <time>2023-03-01T13:25:18Z</time>
      </trkpt>
      <trkpt lat="49.73763" lon="2.33896">
        <ele>59.8</ele>
        <time>2023-03-01T13:25:19Z</time>
      </trkpt>
      <trkpt lat="49.73761" lon="2.33893">
        <ele>59.9</ele>
        <time>2023-03-01T13:25:20Z</time>
      </trkpt>
      <trkpt lat="49.7376" lon="2.33892">
        <ele>59.9</ele>
        <time>2023-03-01T13:25:21Z</time>
      </trkpt>
      <trkpt lat="49.73759" lon="2.33891">
        <ele>59.9</ele>
        <time>2023-03-01T13:25:23Z</time>
      </trkpt>
      <trkpt lat="49.73758" lon="2.3389">
        <ele>60</ele>
        <time>2023-03-01T13:25:24Z</time>
      </trkpt>
      <trkpt lat="49.73758" lon="2.33889">
        <ele>60</ele>
        <time>2023-03-01T13:25:25Z</time>
      </trkpt>
      <trkpt lat="49.73757" lon="2.33888">
        <ele>60</ele>
        <time>2023-03-01T13:25:26Z</time>
      </trkpt>
      <trkpt lat="49.73756" lon="2.33886">
        <ele>60.1</ele>
        <time>2023-03-01T13:25:28Z</time>
      </trkpt>
      <trkpt lat="49.73755" lon="2.33885">
        <ele>60.1</ele>
        <time>2023-03-01T13:25:29Z</time>
      </trkpt>
      <trkpt lat="49.73754" lon="2.33884">
        <ele>60.1</ele>
        <time>2023-03-01T13:25:30Z</time>
      </trkpt>
      <trkpt lat="49.73753" lon="2.33882">
        <ele>60.1</ele>
        <time>2023-03-01T13:25:31Z</time>
      </trkpt>
      <trkpt lat="49.73752" lon="2.33881">
        <ele>60.2</ele>
        <time>2023-03-01T13:25:32Z</time>
      </trkpt>
      <trkpt lat="49.73752" lon="2.3388">
        <ele>60.2</ele>
        <time>2023-03-01T13:25:33Z</time>
      </trkpt>
      <trkpt lat="49.73751" lon="2.33879">
        <ele>60.2</ele>
        <time>2023-03-01T13:25:34Z</time>
      </trkpt>
      <trkpt lat="49.73749" lon="2.33877">
        <ele>60.2</ele>
        <time>2023-03-01T13:25:35Z</time>
      </trkpt>
      <trkpt lat="49.73749" lon="2.33876">
        <ele>60.3</ele>
        <time>2023-03-01T13:25:36Z</time>
      </trkpt>
      <trkpt lat="49.73748" lon="2.33875">
        <ele>60.3</ele>
        <time>2023-03-01T13:25:37Z</time>
      </trkpt>
      <trkpt lat="49.73747" lon="2.33874">
        <ele>60.3</ele>
        <time>2023-03-01T13:25:38Z</time>
      </trkpt>
      <trkpt lat="49.73746" lon="2.33873">
        <ele>60.3</ele>
        <time>2023-03-01T13:25:40Z</time>
      </trkpt>
      <trkpt lat="49.73745" lon="2.33872">
        <ele>60.3</ele>
        <time>2023-03-01T13:25:41Z</time>
      </trkpt>
      <trkpt lat="49.73745" lon="2.3387">
        <ele>60.4</ele>
        <time>2023-03-01T13:25:42Z</time>
      </trkpt>
      <trkpt lat="49.73744" lon="2.33869">
        <ele>60.4</ele>
        <time>2023-03-01T13:25:43Z</time>
      </trkpt>
      <trkpt lat="49.73744" lon="2.33868">
        <ele>60.4</ele>
        <time>2023-03-01T13:25:44Z</time>
      </trkpt>
      <trkpt lat="49.73743" lon="2.33867">
        <ele>60.4</ele>
        <time>2023-03-01T13:25:45Z</time>
      </trkpt>
      <trkpt lat="49.73743" lon="2.33867">
        <ele>60.4</ele>
        <time>2023-03-01T13:25:46Z</time>
      </trkpt>
      <trkpt lat="49.73742" lon="2.33866">
        <ele>60.4</ele>
        <time>2023-03-01T13:25:47Z</time>
      </trkpt>
      <trkpt lat="49.73741" lon="2.33865">
        <ele>60.5</ele>
        <time>2023-03-01T13:25:48Z</time>
      </trkpt>
      <trkpt lat="49.73741" lon="2.33863">
        <ele>60.5</ele>
        <time>2023-03-01T13:25:49Z</time>
      </trkpt>
      <trkpt lat="49.73739" lon="2.33861">
        <ele>60.5</ele>
        <time>2023-03-01T13:25:50Z</time>
      </trkpt>
      <trkpt lat="49.73739" lon="2.3386">
        <ele>60.5</ele>
        <time>2023-03-01T13:25:52Z</time>
      </trkpt>
      <trkpt lat="49.73738" lon="2.33859">
        <ele>60.5</ele>
        <time>2023-03-01T13:25:53Z</time>
      </trkpt>
      <trkpt lat="49.73738" lon="2.33858">
        <ele>60.5</ele>
        <time>2023-03-01T13:25:54Z</time>
      </trkpt>
      <trkpt lat="49.73737" lon="2.33857">
        <ele>60.6</ele>
        <time>2023-03-01T13:25:55Z</time>
      </trkpt>
      <trkpt lat="49.73736" lon="2.33857">
        <ele>60.6</ele>
        <time>2023-03-01T13:25:56Z</time>
      </trkpt>
      <trkpt lat="49.73736" lon="2.33856">
        <ele>60.6</ele>
        <time>2023-03-01T13:25:58Z</time>
      </trkpt>
      <trkpt lat="49.73735" lon="2.33855">
        <ele>60.6</ele>
        <time>2023-03-01T13:25:59Z</time>
      </trkpt>
      <trkpt lat="49.73735" lon="2.33853">
        <ele>60.6</ele>
        <time>2023-03-01T13:26:00Z</time>
      </trkpt>
      <trkpt lat="49.73734" lon="2.33851">
        <ele>60.6</ele>
        <time>2023-03-01T13:26:01Z</time>
      </trkpt>
      <trkpt lat="49.73734" lon="2.3385">
        <ele>60.6</ele>
        <time>2023-03-01T13:26:03Z</time>
      </trkpt>
      <trkpt lat="49.73734" lon="2.33849">
        <ele>60.6</ele>
        <time>2023-03-01T13:26:04Z</time>
      </trkpt>
      <trkpt lat="49.73734" lon="2.33848">
        <ele>60.6</ele>
        <time>2023-03-01T13:26:05Z</time>
      </trkpt>
      <trkpt lat="49.73733" lon="2.33846">
        <ele>60.6</ele>
        <time>2023-03-01T13:26:06Z</time>
      </trkpt>
      <trkpt lat="49.73733" lon="2.33845">
        <ele>60.7</ele>
        <time>2023-03-01T13:26:07Z</time>
      </trkpt>
      <trkpt lat="49.73732" lon="2.33844">
        <ele>60.7</ele>
        <time>2023-03-01T13:26:08Z</time>
      </trkpt>
      <trkpt lat="49.73732" lon="2.33843">
        <ele>60.7</ele>
        <time>2023-03-01T13:26:09Z</time>
      </trkpt>
      <trkpt lat="49.73732" lon="2.33841">
        <ele>60.7</ele>
        <time>2023-03-01T13:26:10Z</time>
      </trkpt>
      <trkpt lat="49.73732" lon="2.33841">
        <ele>60.7</ele>
        <time>2023-03-01T13:26:11Z</time>
      </trkpt>
      <trkpt lat="49.73732" lon="2.3384">
        <ele>60.7</ele>
        <time>2023-03-01T13:26:12Z</time>
      </trkpt>
      <trkpt lat="49.73731" lon="2.33839">
        <ele>60.7</ele>
        <time>2023-03-01T13:26:14Z</time>
      </trkpt>
      <trkpt lat="49.73731" lon="2.33838">
        <ele>60.7</ele>
        <time>2023-03-01T13:26:15Z</time>
      </trkpt>
      <trkpt lat="49.7373" lon="2.33836">
        <ele>60.7</ele>
        <time>2023-03-01T13:26:16Z</time>
      </trkpt>
      <trkpt lat="49.7373" lon="2.33835">
        <ele>60.7</ele>
        <time>2023-03-01T13:26:17Z</time>
      </trkpt>
      <trkpt lat="49.73729" lon="2.33833">
        <ele>60.7</ele>
        <time>2023-03-01T13:26:18Z</time>
      </trkpt>
      <trkpt lat="49.73728" lon="2.33832">
        <ele>60.8</ele>
        <time>2023-03-01T13:26:19Z</time>
      </trkpt>
      <trkpt lat="49.73727" lon="2.33829">
        <ele>60.8</ele>
        <time>2023-03-01T13:26:20Z</time>
      </trkpt>
      <trkpt lat="49.73726" lon="2.33828">
        <ele>60.8</ele>
        <time>2023-03-01T13:26:21Z</time>
      </trkpt>
      <trkpt lat="49.73725" lon="2.33827">
        <ele>60.8</ele>
        <time>2023-03-01T13:26:23Z</time>
      </trkpt>
      <trkpt lat="49.73724" lon="2.33825">
        <ele>60.8</ele>
        <time>2023-03-01T13:26:24Z</time>
      </trkpt>
      <trkpt lat="49.73723" lon="2.33824">
        <ele>60.8</ele>
        <time>2023-03-01T13:26:25Z</time>
      </trkpt>
      <trkpt lat="49.73722" lon="2.33822">
        <ele>60.8</ele>
        <time>2023-03-01T13:26:26Z</time>
      </trkpt>
      <trkpt lat="49.73721" lon="2.3382">
        <ele>60.9</ele>
        <time>2023-03-01T13:26:27Z</time>
      </trkpt>
      <trkpt lat="49.7372" lon="2.33819">
        <ele>60.9</ele>
        <time>2023-03-01T13:26:28Z</time>
      </trkpt>
      <trkpt lat="49.7372" lon="2.33818">
        <ele>60.9</ele>
        <time>2023-03-01T13:26:29Z</time>
      </trkpt>
      <trkpt lat="49.73719" lon="2.33815">
        <ele>60.9</ele>
        <time>2023-03-01T13:26:30Z</time>
      </trkpt>
      <trkpt lat="49.73718" lon="2.33813">
        <ele>60.9</ele>
        <time>2023-03-01T13:26:32Z</time>
      </trkpt>
      <trkpt lat="49.73717" lon="2.33812">
        <ele>60.9</ele>
        <time>2023-03-01T13:26:33Z</time>
      </trkpt>
      <trkpt lat="49.73716" lon="2.3381">
        <ele>60.9</ele>
        <time>2023-03-01T13:26:34Z</time>
      </trkpt>
      <trkpt lat="49.73716" lon="2.33809">
        <ele>60.9</ele>
        <time>2023-03-01T13:26:35Z</time>
      </trkpt>
      <trkpt lat="49.73715" lon="2.33807">
        <ele>61</ele>
        <time>2023-03-01T13:26:36Z</time>
      </trkpt>
      <trkpt lat="49.73714" lon="2.33805">
        <ele>61</ele>
        <time>2023-03-01T13:26:37Z</time>
      </trkpt>
      <trkpt lat="49.73713" lon="2.33804">
        <ele>61</ele>
        <time>2023-03-01T13:26:38Z</time>
      </trkpt>
      <trkpt lat="49.73712" lon="2.33802">
        <ele>61</ele>
        <time>2023-03-01T13:26:39Z</time>
      </trkpt>
      <trkpt lat="49.7371" lon="2.338">
        <ele>61</ele>
        <time>2023-03-01T13:26:41Z</time>
      </trkpt>
      <trkpt lat="49.73709" lon="2.33798">
        <ele>61</ele>
        <time>2023-03-01T13:26:42Z</time>
      </trkpt>
      <trkpt lat="49.73708" lon="2.33796">
        <ele>61</ele>
        <time>2023-03-01T13:26:43Z</time>
      </trkpt>
      <trkpt lat="49.73707" lon="2.33795">
        <ele>61</ele>
        <time>2023-03-01T13:26:44Z</time>
      </trkpt>
      <trkpt lat="49.73705" lon="2.33792">
        <ele>61.1</ele>
        <time>2023-03-01T13:26:45Z</time>
      </trkpt>
      <trkpt lat="49.73704" lon="2.33791">
        <ele>61.1</ele>
        <time>2023-03-01T13:26:46Z</time>
      </trkpt>
      <trkpt lat="49.73703" lon="2.33789">
        <ele>61.1</ele>
        <time>2023-03-01T13:26:47Z</time>
      </trkpt>
      <trkpt lat="49.73702" lon="2.33786">
        <ele>61.1</ele>
        <time>2023-03-01T13:26:49Z</time>
      </trkpt>
      <trkpt lat="49.73701" lon="2.33784">
        <ele>61.1</ele>
        <time>2023-03-01T13:26:50Z</time>
      </trkpt>
      <trkpt lat="49.737" lon="2.33782">
        <ele>61.2</ele>
        <time>2023-03-01T13:26:51Z</time>
      </trkpt>
      <trkpt lat="49.73699" lon="2.33781">
        <ele>61.2</ele>
        <time>2023-03-01T13:26:52Z</time>
      </trkpt>
      <trkpt lat="49.73698" lon="2.33779">
        <ele>61.2</ele>
        <time>2023-03-01T13:26:53Z</time>
      </trkpt>
      <trkpt lat="49.73697" lon="2.33777">
        <ele>61.2</ele>
        <time>2023-03-01T13:26:54Z</time>
      </trkpt>
      <trkpt lat="49.73695" lon="2.33775">
        <ele>61.3</ele>
        <time>2023-03-01T13:26:55Z</time>
      </trkpt>
      <trkpt lat="49.73694" lon="2.33772">
        <ele>61.3</ele>
        <time>2023-03-01T13:26:57Z</time>
      </trkpt>
      <trkpt lat="49.73694" lon="2.33771">
        <ele>61.3</ele>
        <time>2023-03-01T13:26:58Z</time>
      </trkpt>
      <trkpt lat="49.73693" lon="2.3377">
        <ele>61.3</ele>
        <time>2023-03-01T13:26:59Z</time>
      </trkpt>
      <trkpt lat="49.73692" lon="2.33768">
        <ele>61.4</ele>
        <time>2023-03-01T13:27:00Z</time>
      </trkpt>
      <trkpt lat="49.73691" lon="2.33766">
        <ele>61.4</ele>
        <time>2023-03-01T13:27:01Z</time>
      </trkpt>
      <trkpt lat="49.7369" lon="2.33765">
        <ele>61.4</ele>
        <time>2023-03-01T13:27:02Z</time>
      </trkpt>
      <trkpt lat="49.73689" lon="2.33762">
        <ele>61.5</ele>
        <time>2023-03-01T13:27:04Z</time>
      </trkpt>
      <trkpt lat="49.73688" lon="2.33761">
        <ele>61.5</ele>
        <time>2023-03-01T13:27:05Z</time>
      </trkpt>
      <trkpt lat="49.73686" lon="2.33758">
        <ele>61.6</ele>
        <time>2023-03-01T13:27:06Z</time>
      </trkpt>
      <trkpt lat="49.73686" lon="2.33757">
        <ele>61.6</ele>
        <time>2023-03-01T13:27:07Z</time>
      </trkpt>
      <trkpt lat="49.73685" lon="2.33756">
        <ele>61.6</ele>
        <time>2023-03-01T13:27:08Z</time>
      </trkpt>
      <trkpt lat="49.73684" lon="2.33754">
        <ele>61.6</ele>
        <time>2023-03-01T13:27:09Z</time>
      </trkpt>
      <trkpt lat="49.73683" lon="2.33752">
        <ele>61.7</ele>
        <time>2023-03-01T13:27:10Z</time>
      </trkpt>
      <trkpt lat="49.73682" lon="2.33751">
        <ele>61.7</ele>
        <time>2023-03-01T13:27:12Z</time>
      </trkpt>
      <trkpt lat="49.73682" lon="2.33749">
        <ele>61.7</ele>
        <time>2023-03-01T13:27:13Z</time>
      </trkpt>
      <trkpt lat="49.7368" lon="2.33747">
        <ele>61.8</ele>
        <time>2023-03-01T13:27:14Z</time>
      </trkpt>
      <trkpt lat="49.73679" lon="2.33746">
        <ele>61.8</ele>
        <time>2023-03-01T13:27:15Z</time>
      </trkpt>
      <trkpt lat="49.73678" lon="2.33744">
        <ele>61.8</ele>
        <time>2023-03-01T13:27:16Z</time>
      </trkpt>
      <trkpt lat="49.73676" lon="2.33742">
        <ele>61.9</ele>
        <time>2023-03-01T13:27:17Z</time>
      </trkpt>
      <trkpt lat="49.73675" lon="2.33742">
        <ele>61.9</ele>
        <time>2023-03-01T13:27:18Z</time>
      </trkpt>
      <trkpt lat="49.73675" lon="2.33741">
        <ele>61.9</ele>
        <time>2023-03-01T13:27:19Z</time>
      </trkpt>
      <trkpt lat="49.73673" lon="2.33739">
        <ele>62</ele>
        <time>2023-03-01T13:27:20Z</time>
      </trkpt>
      <trkpt lat="49.73672" lon="2.33738">
        <ele>62</ele>
        <time>2023-03-01T13:27:22Z</time>
      </trkpt>
      <trkpt lat="49.73671" lon="2.33737">
        <ele>62</ele>
        <time>2023-03-01T13:27:23Z</time>
      </trkpt>
      <trkpt lat="49.7367" lon="2.33736">
        <ele>62.1</ele>
        <time>2023-03-01T13:27:24Z</time>
      </trkpt>
      <trkpt lat="49.73669" lon="2.33735">
        <ele>62.1</ele>
        <time>2023-03-01T13:27:25Z</time>
      </trkpt>
      <trkpt lat="49.73668" lon="2.33733">
        <ele>62.1</ele>
        <time>2023-03-01T13:27:26Z</time>
      </trkpt>
      <trkpt lat="49.73667" lon="2.33732">
        <ele>62.2</ele>
        <time>2023-03-01T13:27:27Z</time>
      </trkpt>
      <trkpt lat="49.73666" lon="2.33731">
        <ele>62.2</ele>
        <time>2023-03-01T13:27:28Z</time>
      </trkpt>
      <trkpt lat="49.73665" lon="2.33729">
        <ele>62.2</ele>
        <time>2023-03-01T13:27:29Z</time>
      </trkpt>
      <trkpt lat="49.73663" lon="2.33727">
        <ele>62.3</ele>
        <time>2023-03-01T13:27:31Z</time>
      </trkpt>
      <trkpt lat="49.73663" lon="2.33726">
        <ele>62.3</ele>
        <time>2023-03-01T13:27:32Z</time>
      </trkpt>
      <trkpt lat="49.73662" lon="2.33724">
        <ele>62.3</ele>
        <time>2023-03-01T13:27:33Z</time>
      </trkpt>
      <trkpt lat="49.73661" lon="2.33723">
        <ele>62.3</ele>
        <time>2023-03-01T13:27:34Z</time>
      </trkpt>
      <trkpt lat="49.73661" lon="2.33721">
        <ele>62.4</ele>
        <time>2023-03-01T13:27:35Z</time>
      </trkpt>
      <trkpt lat="49.73659" lon="2.33719">
        <ele>62.4</ele>
        <time>2023-03-01T13:27:36Z</time>
      </trkpt>
      <trkpt lat="49.73658" lon="2.33717">
        <ele>62.5</ele>
        <time>2023-03-01T13:27:38Z</time>
      </trkpt>
      <trkpt lat="49.73657" lon="2.33716">
        <ele>62.5</ele>
        <time>2023-03-01T13:27:39Z</time>
      </trkpt>
      <trkpt lat="49.73657" lon="2.33715">
        <ele>62.5</ele>
        <time>2023-03-01T13:27:40Z</time>
      </trkpt>
      <trkpt lat="49.73656" lon="2.33713">
        <ele>62.5</ele>
        <time>2023-03-01T13:27:41Z</time>
      </trkpt>
      <trkpt lat="49.73655" lon="2.33712">
        <ele>62.6</ele>
        <time>2023-03-01T13:27:42Z</time>
      </trkpt>
      <trkpt lat="49.73654" lon="2.33711">
        <ele>62.6</ele>
        <time>2023-03-01T13:27:43Z</time>
      </trkpt>
      <trkpt lat="49.73653" lon="2.33708">
        <ele>62.6</ele>
        <time>2023-03-01T13:27:44Z</time>
      </trkpt>
      <trkpt lat="49.73652" lon="2.33707">
        <ele>62.6</ele>
        <time>2023-03-01T13:27:45Z</time>
      </trkpt>
      <trkpt lat="49.73652" lon="2.33706">
        <ele>62.7</ele>
        <time>2023-03-01T13:27:46Z</time>
      </trkpt>
      <trkpt lat="49.73651" lon="2.33703">
        <ele>62.7</ele>
        <time>2023-03-01T13:27:48Z</time>
      </trkpt>
      <trkpt lat="49.7365" lon="2.33702">
        <ele>62.7</ele>
        <time>2023-03-01T13:27:49Z</time>
      </trkpt>
      <trkpt lat="49.73649" lon="2.33701">
        <ele>62.7</ele>
        <time>2023-03-01T13:27:50Z</time>
      </trkpt>
      <trkpt lat="49.73647" lon="2.33699">
        <ele>62.8</ele>
        <time>2023-03-01T13:27:51Z</time>
      </trkpt>
      <trkpt lat="49.73647" lon="2.33699">
        <ele>62.8</ele>
        <time>2023-03-01T13:27:52Z</time>
      </trkpt>
      <trkpt lat="49.73646" lon="2.33698">
        <ele>62.8</ele>
        <time>2023-03-01T13:27:53Z</time>
      </trkpt>
      <trkpt lat="49.73645" lon="2.33696">
        <ele>62.9</ele>
        <time>2023-03-01T13:27:54Z</time>
      </trkpt>
      <trkpt lat="49.73644" lon="2.33695">
        <ele>62.9</ele>
        <time>2023-03-01T13:27:55Z</time>
      </trkpt>
      <trkpt lat="49.73643" lon="2.33695">
        <ele>62.9</ele>
        <time>2023-03-01T13:27:56Z</time>
      </trkpt>
      <trkpt lat="49.73642" lon="2.33694">
        <ele>62.9</ele>
        <time>2023-03-01T13:27:58Z</time>
      </trkpt>
      <trkpt lat="49.73641" lon="2.33693">
        <ele>63</ele>
        <time>2023-03-01T13:27:59Z</time>
      </trkpt>
      <trkpt lat="49.7364" lon="2.33692">
        <ele>63</ele>
        <time>2023-03-01T13:28:00Z</time>
      </trkpt>
      <trkpt lat="49.73639" lon="2.3369">
        <ele>63</ele>
        <time>2023-03-01T13:28:01Z</time>
      </trkpt>
      <trkpt lat="49.73638" lon="2.33689">
        <ele>63</ele>
        <time>2023-03-01T13:28:02Z</time>
      </trkpt>
      <trkpt lat="49.73638" lon="2.33688">
        <ele>63.1</ele>
        <time>2023-03-01T13:28:03Z</time>
      </trkpt>
      <trkpt lat="49.73637" lon="2.33687">
        <ele>63.1</ele>
        <time>2023-03-01T13:28:04Z</time>
      </trkpt>
      <trkpt lat="49.73636" lon="2.33686">
        <ele>63.1</ele>
        <time>2023-03-01T13:28:05Z</time>
      </trkpt>
      <trkpt lat="49.73634" lon="2.33684">
        <ele>63.2</ele>
        <time>2023-03-01T13:28:07Z</time>
      </trkpt>
      <trkpt lat="49.73633" lon="2.33683">
        <ele>63.2</ele>
        <time>2023-03-01T13:28:08Z</time>
      </trkpt>
      <trkpt lat="49.73633" lon="2.33682">
        <ele>63.2</ele>
        <time>2023-03-01T13:28:09Z</time>
      </trkpt>
      <trkpt lat="49.73632" lon="2.33681">
        <ele>63.3</ele>
        <time>2023-03-01T13:28:10Z</time>
      </trkpt>
      <trkpt lat="49.7363" lon="2.33679">
        <ele>63.3</ele>
        <time>2023-03-01T13:28:11Z</time>
      </trkpt>
      <trkpt lat="49.7363" lon="2.33679">
        <ele>63.4</ele>
        <time>2023-03-01T13:28:12Z</time>
      </trkpt>
      <trkpt lat="49.73629" lon="2.33678">
        <ele>63.4</ele>
        <time>2023-03-01T13:28:13Z</time>
      </trkpt>
      <trkpt lat="49.73628" lon="2.33677">
        <ele>63.4</ele>
        <time>2023-03-01T13:28:15Z</time>
      </trkpt>
      <trkpt lat="49.73626" lon="2.33676">
        <ele>63.5</ele>
        <time>2023-03-01T13:28:16Z</time>
      </trkpt>
      <trkpt lat="49.73625" lon="2.33675">
        <ele>63.6</ele>
        <time>2023-03-01T13:28:17Z</time>
      </trkpt>
      <trkpt lat="49.73623" lon="2.33674">
        <ele>63.7</ele>
        <time>2023-03-01T13:28:18Z</time>
      </trkpt>
      <trkpt lat="49.73622" lon="2.33673">
        <ele>63.7</ele>
        <time>2023-03-01T13:28:19Z</time>
      </trkpt>
      <trkpt lat="49.73621" lon="2.33673">
        <ele>63.7</ele>
        <time>2023-03-01T13:28:20Z</time>
      </trkpt>
      <trkpt lat="49.73619" lon="2.33671">
        <ele>63.8</ele>
        <time>2023-03-01T13:28:21Z</time>
      </trkpt>
      <trkpt lat="49.73618" lon="2.33671">
        <ele>63.9</ele>
        <time>2023-03-01T13:28:23Z</time>
      </trkpt>
      <trkpt lat="49.73617" lon="2.33671">
        <ele>63.9</ele>
        <time>2023-03-01T13:28:24Z</time>
      </trkpt>
      <trkpt lat="49.73616" lon="2.3367">
        <ele>64</ele>
        <time>2023-03-01T13:28:25Z</time>
      </trkpt>
      <trkpt lat="49.73615" lon="2.33668">
        <ele>64</ele>
        <time>2023-03-01T13:28:26Z</time>
      </trkpt>
      <trkpt lat="49.73614" lon="2.33667">
        <ele>64.1</ele>
        <time>2023-03-01T13:28:27Z</time>
      </trkpt>
      <trkpt lat="49.73613" lon="2.33666">
        <ele>64.1</ele>
        <time>2023-03-01T13:28:28Z</time>
      </trkpt>
      <trkpt lat="49.73612" lon="2.33665">
        <ele>64.2</ele>
        <time>2023-03-01T13:28:29Z</time>
      </trkpt>
      <trkpt lat="49.7361" lon="2.33663">
        <ele>64.3</ele>
        <time>2023-03-01T13:28:30Z</time>
      </trkpt>
      <trkpt lat="49.73609" lon="2.33662">
        <ele>64.3</ele>
        <time>2023-03-01T13:28:32Z</time>
      </trkpt>
      <trkpt lat="49.73608" lon="2.33661">
        <ele>64.4</ele>
        <time>2023-03-01T13:28:33Z</time>
      </trkpt>
      <trkpt lat="49.73607" lon="2.3366">
        <ele>64.4</ele>
        <time>2023-03-01T13:28:34Z</time>
      </trkpt>
      <trkpt lat="49.73606" lon="2.33659">
        <ele>64.5</ele>
        <time>2023-03-01T13:28:35Z</time>
      </trkpt>
      <trkpt lat="49.73605" lon="2.33657">
        <ele>64.5</ele>
        <time>2023-03-01T13:28:36Z</time>
      </trkpt>
      <trkpt lat="49.73604" lon="2.33656">
        <ele>64.5</ele>
        <time>2023-03-01T13:28:37Z</time>
      </trkpt>
      <trkpt lat="49.73602" lon="2.33655">
        <ele>64.6</ele>
        <time>2023-03-01T13:28:38Z</time>
      </trkpt>
      <trkpt lat="49.73601" lon="2.33654">
        <ele>64.6</ele>
        <time>2023-03-01T13:28:40Z</time>
      </trkpt>
      <trkpt lat="49.73601" lon="2.33653">
        <ele>64.6</ele>
        <time>2023-03-01T13:28:41Z</time>
      </trkpt>
      <trkpt lat="49.73599" lon="2.33652">
        <ele>64.7</ele>
        <time>2023-03-01T13:28:42Z</time>
      </trkpt>
      <trkpt lat="49.73598" lon="2.33651">
        <ele>64.7</ele>
        <time>2023-03-01T13:28:43Z</time>
      </trkpt>
      <trkpt lat="49.73596" lon="2.33649">
        <ele>64.7</ele>
        <time>2023-03-01T13:28:44Z</time>
      </trkpt>
      <trkpt lat="49.73596" lon="2.33648">
        <ele>64.7</ele>
        <time>2023-03-01T13:28:45Z</time>
      </trkpt>
      <trkpt lat="49.73595" lon="2.33647">
        <ele>64.7</ele>
        <time>2023-03-01T13:28:46Z</time>
      </trkpt>
      <trkpt lat="49.73594" lon="2.33646">
        <ele>64.8</ele>
        <time>2023-03-01T13:28:47Z</time>
      </trkpt>
      <trkpt lat="49.73593" lon="2.33645">
        <ele>64.8</ele>
        <time>2023-03-01T13:28:48Z</time>
      </trkpt>
      <trkpt lat="49.73592" lon="2.33643">
        <ele>64.8</ele>
        <time>2023-03-01T13:28:50Z</time>
      </trkpt>
      <trkpt lat="49.7359" lon="2.33642">
        <ele>64.8</ele>
        <time>2023-03-01T13:28:51Z</time>
      </trkpt>
      <trkpt lat="49.7359" lon="2.33641">
        <ele>64.8</ele>
        <time>2023-03-01T13:28:52Z</time>
      </trkpt>
      <trkpt lat="49.73589" lon="2.33639">
        <ele>64.8</ele>
        <time>2023-03-01T13:28:54Z</time>
      </trkpt>
      <trkpt lat="49.73587" lon="2.33638">
        <ele>64.9</ele>
        <time>2023-03-01T13:28:55Z</time>
      </trkpt>
      <trkpt lat="49.73586" lon="2.33637">
        <ele>64.9</ele>
        <time>2023-03-01T13:28:56Z</time>
      </trkpt>
      <trkpt lat="49.73585" lon="2.33636">
        <ele>64.9</ele>
        <time>2023-03-01T13:28:57Z</time>
      </trkpt>
      <trkpt lat="49.73584" lon="2.33636">
        <ele>64.9</ele>
        <time>2023-03-01T13:28:58Z</time>
      </trkpt>
      <trkpt lat="49.73583" lon="2.33635">
        <ele>64.9</ele>
        <time>2023-03-01T13:28:59Z</time>
      </trkpt>
      <trkpt lat="49.73582" lon="2.33634">
        <ele>64.9</ele>
        <time>2023-03-01T13:29:00Z</time>
      </trkpt>
      <trkpt lat="49.73581" lon="2.33632">
        <ele>65</ele>
        <time>2023-03-01T13:29:02Z</time>
      </trkpt>
      <trkpt lat="49.7358" lon="2.33631">
        <ele>65</ele>
        <time>2023-03-01T13:29:03Z</time>
      </trkpt>
      <trkpt lat="49.7358" lon="2.3363">
        <ele>65</ele>
        <time>2023-03-01T13:29:04Z</time>
      </trkpt>
      <trkpt lat="49.73579" lon="2.33629">
        <ele>65</ele>
        <time>2023-03-01T13:29:05Z</time>
      </trkpt>
      <trkpt lat="49.73578" lon="2.33627">
        <ele>65</ele>
        <time>2023-03-01T13:29:06Z</time>
      </trkpt>
      <trkpt lat="49.73577" lon="2.33626">
        <ele>65</ele>
        <time>2023-03-01T13:29:08Z</time>
      </trkpt>
      <trkpt lat="49.73576" lon="2.33625">
        <ele>65</ele>
        <time>2023-03-01T13:29:09Z</time>
      </trkpt>
      <trkpt lat="49.73575" lon="2.33624">
        <ele>65</ele>
        <time>2023-03-01T13:29:10Z</time>
      </trkpt>
      <trkpt lat="49.73574" lon="2.33623">
        <ele>65</ele>
        <time>2023-03-01T13:29:11Z</time>
      </trkpt>
      <trkpt lat="49.73574" lon="2.33622">
        <ele>65</ele>
        <time>2023-03-01T13:29:12Z</time>
      </trkpt>
      <trkpt lat="49.73573" lon="2.3362">
        <ele>65</ele>
        <time>2023-03-01T13:29:13Z</time>
      </trkpt>
      <trkpt lat="49.73572" lon="2.33619">
        <ele>65</ele>
        <time>2023-03-01T13:29:14Z</time>
      </trkpt>
      <trkpt lat="49.73572" lon="2.33618">
        <ele>65</ele>
        <time>2023-03-01T13:29:15Z</time>
      </trkpt>
      <trkpt lat="49.73571" lon="2.33617">
        <ele>65</ele>
        <time>2023-03-01T13:29:16Z</time>
      </trkpt>
      <trkpt lat="49.7357" lon="2.33616">
        <ele>65</ele>
        <time>2023-03-01T13:29:18Z</time>
      </trkpt>
      <trkpt lat="49.73569" lon="2.33615">
        <ele>65</ele>
        <time>2023-03-01T13:29:19Z</time>
      </trkpt>
      <trkpt lat="49.73568" lon="2.33614">
        <ele>65</ele>
        <time>2023-03-01T13:29:20Z</time>
      </trkpt>
      <trkpt lat="49.73567" lon="2.33613">
        <ele>65</ele>
        <time>2023-03-01T13:29:21Z</time>
      </trkpt>
      <trkpt lat="49.73565" lon="2.33612">
        <ele>65</ele>
        <time>2023-03-01T13:29:22Z</time>
      </trkpt>
      <trkpt lat="49.73564" lon="2.33612">
        <ele>65</ele>
        <time>2023-03-01T13:29:23Z</time>
      </trkpt>
      <trkpt lat="49.73563" lon="2.33611">
        <ele>65</ele>
        <time>2023-03-01T13:29:24Z</time>
      </trkpt>
      <trkpt lat="49.73562" lon="2.3361">
        <ele>65</ele>
        <time>2023-03-01T13:29:25Z</time>
      </trkpt>
      <trkpt lat="49.73562" lon="2.3361">
        <ele>65</ele>
        <time>2023-03-01T13:29:26Z</time>
      </trkpt>
      <trkpt lat="49.7356" lon="2.33608">
        <ele>65</ele>
        <time>2023-03-01T13:29:27Z</time>
      </trkpt>
      <trkpt lat="49.73559" lon="2.33607">
        <ele>65</ele>
        <time>2023-03-01T13:29:29Z</time>
      </trkpt>
      <trkpt lat="49.73557" lon="2.33606">
        <ele>65</ele>
        <time>2023-03-01T13:29:30Z</time>
      </trkpt>
      <trkpt lat="49.73556" lon="2.33605">
        <ele>65</ele>
        <time>2023-03-01T13:29:31Z</time>
      </trkpt>
      <trkpt lat="49.73555" lon="2.33604">
        <ele>65</ele>
        <time>2023-03-01T13:29:32Z</time>
      </trkpt>
      <trkpt lat="49.73554" lon="2.33604">
        <ele>65</ele>
        <time>2023-03-01T13:29:33Z</time>
      </trkpt>
      <trkpt lat="49.73553" lon="2.33603">
        <ele>65</ele>
        <time>2023-03-01T13:29:34Z</time>
      </trkpt>
      <trkpt lat="49.73552" lon="2.33602">
        <ele>64.9</ele>
        <time>2023-03-01T13:29:35Z</time>
      </trkpt>
      <trkpt lat="49.7355" lon="2.33601">
        <ele>64.9</ele>
        <time>2023-03-01T13:29:36Z</time>
      </trkpt>
      <trkpt lat="49.7355" lon="2.336">
        <ele>64.9</ele>
        <time>2023-03-01T13:29:38Z</time>
      </trkpt>
      <trkpt lat="49.73549" lon="2.336">
        <ele>64.9</ele>
        <time>2023-03-01T13:29:39Z</time>
      </trkpt>
      <trkpt lat="49.73547" lon="2.33598">
        <ele>64.9</ele>
        <time>2023-03-01T13:29:40Z</time>
      </trkpt>
      <trkpt lat="49.73546" lon="2.33597">
        <ele>64.9</ele>
        <time>2023-03-01T13:29:41Z</time>
      </trkpt>
      <trkpt lat="49.73545" lon="2.33596">
        <ele>64.9</ele>
        <time>2023-03-01T13:29:42Z</time>
      </trkpt>
      <trkpt lat="49.73545" lon="2.33595">
        <ele>64.9</ele>
        <time>2023-03-01T13:29:43Z</time>
      </trkpt>
      <trkpt lat="49.73544" lon="2.33595">
        <ele>64.9</ele>
        <time>2023-03-01T13:29:44Z</time>
      </trkpt>
      <trkpt lat="49.73543" lon="2.33593">
        <ele>64.9</ele>
        <time>2023-03-01T13:29:45Z</time>
      </trkpt>
      <trkpt lat="49.73541" lon="2.33592">
        <ele>64.9</ele>
        <time>2023-03-01T13:29:46Z</time>
      </trkpt>
      <trkpt lat="49.7354" lon="2.33591">
        <ele>64.9</ele>
        <time>2023-03-01T13:29:47Z</time>
      </trkpt>
      <trkpt lat="49.7354" lon="2.3359">
        <ele>64.9</ele>
        <time>2023-03-01T13:29:48Z</time>
      </trkpt>
      <trkpt lat="49.73539" lon="2.33589">
        <ele>64.9</ele>
        <time>2023-03-01T13:29:50Z</time>
      </trkpt>
      <trkpt lat="49.73538" lon="2.33588">
        <ele>64.9</ele>
        <time>2023-03-01T13:29:51Z</time>
      </trkpt>
      <trkpt lat="49.73536" lon="2.33586">
        <ele>64.9</ele>
        <time>2023-03-01T13:29:52Z</time>
      </trkpt>
      <trkpt lat="49.73535" lon="2.33584">
        <ele>64.9</ele>
        <time>2023-03-01T13:29:53Z</time>
      </trkpt>
      <trkpt lat="49.73534" lon="2.33582">
        <ele>64.9</ele>
        <time>2023-03-01T13:29:54Z</time>
      </trkpt>
      <trkpt lat="49.73533" lon="2.33581">
        <ele>64.9</ele>
        <time>2023-03-01T13:29:56Z</time>
      </trkpt>
      <trkpt lat="49.73532" lon="2.3358">
        <ele>64.9</ele>
        <time>2023-03-01T13:29:57Z</time>
      </trkpt>
      <trkpt lat="49.73531" lon="2.3358">
        <ele>64.9</ele>
        <time>2023-03-01T13:29:58Z</time>
      </trkpt>
      <trkpt lat="49.7353" lon="2.33579">
        <ele>64.9</ele>
        <time>2023-03-01T13:29:59Z</time>
      </trkpt>
      <trkpt lat="49.7353" lon="2.33578">
        <ele>64.9</ele>
        <time>2023-03-01T13:30:00Z</time>
      </trkpt>
      <trkpt lat="49.73529" lon="2.33577">
        <ele>64.9</ele>
        <time>2023-03-01T13:30:01Z</time>
      </trkpt>
      <trkpt lat="49.73528" lon="2.33575">
        <ele>64.9</ele>
        <time>2023-03-01T13:30:02Z</time>
      </trkpt>
      <trkpt lat="49.73527" lon="2.33574">
        <ele>64.9</ele>
        <time>2023-03-01T13:30:03Z</time>
      </trkpt>
      <trkpt lat="49.73526" lon="2.33571">
        <ele>64.9</ele>
        <time>2023-03-01T13:30:04Z</time>
      </trkpt>
      <trkpt lat="49.73526" lon="2.3357">
        <ele>64.9</ele>
        <time>2023-03-01T13:30:06Z</time>
      </trkpt>
      <trkpt lat="49.73525" lon="2.33569">
        <ele>64.9</ele>
        <time>2023-03-01T13:30:07Z</time>
      </trkpt>
      <trkpt lat="49.73524" lon="2.33568">
        <ele>64.9</ele>
        <time>2023-03-01T13:30:08Z</time>
      </trkpt>
      <trkpt lat="49.73524" lon="2.33567">
        <ele>64.9</ele>
        <time>2023-03-01T13:30:09Z</time>
      </trkpt>
      <trkpt lat="49.73523" lon="2.33566">
        <ele>64.9</ele>
        <time>2023-03-01T13:30:10Z</time>
      </trkpt>
      <trkpt lat="49.73522" lon="2.33565">
        <ele>64.9</ele>
        <time>2023-03-01T13:30:11Z</time>
      </trkpt>
      <trkpt lat="49.73521" lon="2.33564">
        <ele>64.9</ele>
        <time>2023-03-01T13:30:12Z</time>
      </trkpt>
      <trkpt lat="49.73521" lon="2.33564">
        <ele>64.9</ele>
        <time>2023-03-01T13:30:14Z</time>
      </trkpt>
      <trkpt lat="49.7352" lon="2.33563">
        <ele>64.9</ele>
        <time>2023-03-01T13:30:15Z</time>
      </trkpt>
      <trkpt lat="49.7352" lon="2.33562">
        <ele>65</ele>
        <time>2023-03-01T13:30:16Z</time>
      </trkpt>
      <trkpt lat="49.73519" lon="2.33561">
        <ele>65</ele>
        <time>2023-03-01T13:30:17Z</time>
      </trkpt>
      <trkpt lat="49.73518" lon="2.3356">
        <ele>65</ele>
        <time>2023-03-01T13:30:18Z</time>
      </trkpt>
      <trkpt lat="49.73517" lon="2.3356">
        <ele>65</ele>
        <time>2023-03-01T13:30:19Z</time>
      </trkpt>
      <trkpt lat="49.73516" lon="2.33559">
        <ele>65</ele>
        <time>2023-03-01T13:30:20Z</time>
      </trkpt>
      <trkpt lat="49.73516" lon="2.33558">
        <ele>65</ele>
        <time>2023-03-01T13:30:22Z</time>
      </trkpt>
      <trkpt lat="49.73514" lon="2.33556">
        <ele>65</ele>
        <time>2023-03-01T13:30:23Z</time>
      </trkpt>
      <trkpt lat="49.73513" lon="2.33554">
        <ele>65</ele>
        <time>2023-03-01T13:30:24Z</time>
      </trkpt>
      <trkpt lat="49.73513" lon="2.33553">
        <ele>65</ele>
        <time>2023-03-01T13:30:25Z</time>
      </trkpt>
      <trkpt lat="49.73512" lon="2.33552">
        <ele>65</ele>
        <time>2023-03-01T13:30:26Z</time>
      </trkpt>
      <trkpt lat="49.7351" lon="2.3355">
        <ele>65</ele>
        <time>2023-03-01T13:30:28Z</time>
      </trkpt>
      <trkpt lat="49.73509" lon="2.33548">
        <ele>65</ele>
        <time>2023-03-01T13:30:29Z</time>
      </trkpt>
      <trkpt lat="49.73508" lon="2.33547">
        <ele>65</ele>
        <time>2023-03-01T13:30:30Z</time>
      </trkpt>
      <trkpt lat="49.73507" lon="2.33545">
        <ele>65</ele>
        <time>2023-03-01T13:30:31Z</time>
      </trkpt>
      <trkpt lat="49.73506" lon="2.33543">
        <ele>65</ele>
        <time>2023-03-01T13:30:32Z</time>
      </trkpt>
      <trkpt lat="49.73505" lon="2.33542">
        <ele>65</ele>
        <time>2023-03-01T13:30:33Z</time>
      </trkpt>
      <trkpt lat="49.73504" lon="2.3354">
        <ele>65.1</ele>
        <time>2023-03-01T13:30:34Z</time>
      </trkpt>
      <trkpt lat="49.73503" lon="2.33538">
        <ele>65.1</ele>
        <time>2023-03-01T13:30:36Z</time>
      </trkpt>
      <trkpt lat="49.73501" lon="2.33534">
        <ele>65.1</ele>
        <time>2023-03-01T13:30:37Z</time>
      </trkpt>
      <trkpt lat="49.73501" lon="2.33534">
        <ele>65.1</ele>
        <time>2023-03-01T13:30:38Z</time>
      </trkpt>
      <trkpt lat="49.735" lon="2.33531">
        <ele>65.1</ele>
        <time>2023-03-01T13:30:40Z</time>
      </trkpt>
      <trkpt lat="49.73499" lon="2.3353">
        <ele>65.1</ele>
        <time>2023-03-01T13:30:41Z</time>
      </trkpt>
      <trkpt lat="49.73498" lon="2.33528">
        <ele>65.1</ele>
        <time>2023-03-01T13:30:42Z</time>
      </trkpt>
      <trkpt lat="49.73498" lon="2.33527">
        <ele>65.1</ele>
        <time>2023-03-01T13:30:43Z</time>
      </trkpt>
      <trkpt lat="49.73497" lon="2.33526">
        <ele>65.1</ele>
        <time>2023-03-01T13:30:44Z</time>
      </trkpt>
      <trkpt lat="49.73497" lon="2.33524">
        <ele>65.1</ele>
        <time>2023-03-01T13:30:45Z</time>
      </trkpt>
      <trkpt lat="49.73496" lon="2.33523">
        <ele>65.1</ele>
        <time>2023-03-01T13:30:46Z</time>
      </trkpt>
      <trkpt lat="49.73495" lon="2.33522">
        <ele>65.1</ele>
        <time>2023-03-01T13:30:47Z</time>
      </trkpt>
      <trkpt lat="49.73495" lon="2.33521">
        <ele>65.2</ele>
        <time>2023-03-01T13:30:49Z</time>
      </trkpt>
      <trkpt lat="49.73494" lon="2.3352">
        <ele>65.2</ele>
        <time>2023-03-01T13:30:50Z</time>
      </trkpt>
      <trkpt lat="49.73493" lon="2.33519">
        <ele>65.2</ele>
        <time>2023-03-01T13:30:51Z</time>
      </trkpt>
      <trkpt lat="49.73492" lon="2.33517">
        <ele>65.2</ele>
        <time>2023-03-01T13:30:52Z</time>
      </trkpt>
      <trkpt lat="49.73492" lon="2.33517">
        <ele>65.2</ele>
        <time>2023-03-01T13:30:53Z</time>
      </trkpt>
      <trkpt lat="49.73491" lon="2.33517">
        <ele>65.2</ele>
        <time>2023-03-01T13:30:54Z</time>
      </trkpt>
      <trkpt lat="49.7349" lon="2.33516">
        <ele>65.2</ele>
        <time>2023-03-01T13:30:55Z</time>
      </trkpt>
      <trkpt lat="49.7349" lon="2.33516">
        <ele>65.2</ele>
        <time>2023-03-01T13:30:57Z</time>
      </trkpt>
      <trkpt lat="49.73489" lon="2.33514">
        <ele>65.2</ele>
        <time>2023-03-01T13:30:58Z</time>
      </trkpt>
      <trkpt lat="49.73488" lon="2.33514">
        <ele>65.2</ele>
        <time>2023-03-01T13:30:59Z</time>
      </trkpt>
      <trkpt lat="49.73487" lon="2.33512">
        <ele>65.2</ele>
        <time>2023-03-01T13:31:00Z</time>
      </trkpt>
      <trkpt lat="49.73487" lon="2.33511">
        <ele>65.3</ele>
        <time>2023-03-01T13:31:01Z</time>
      </trkpt>
      <trkpt lat="49.73486" lon="2.33509">
        <ele>65.3</ele>
        <time>2023-03-01T13:31:02Z</time>
      </trkpt>
      <trkpt lat="49.73485" lon="2.33508">
        <ele>65.3</ele>
        <time>2023-03-01T13:31:03Z</time>
      </trkpt>
      <trkpt lat="49.73484" lon="2.33506">
        <ele>65.3</ele>
        <time>2023-03-01T13:31:05Z</time>
      </trkpt>
      <trkpt lat="49.73483" lon="2.33505">
        <ele>65.3</ele>
        <time>2023-03-01T13:31:06Z</time>
      </trkpt>
      <trkpt lat="49.73483" lon="2.33503">
        <ele>65.3</ele>
        <time>2023-03-01T13:31:07Z</time>
      </trkpt>
      <trkpt lat="49.73482" lon="2.33503">
        <ele>65.3</ele>
        <time>2023-03-01T13:31:08Z</time>
      </trkpt>
      <trkpt lat="49.73482" lon="2.33502">
        <ele>65.4</ele>
        <time>2023-03-01T13:31:09Z</time>
      </trkpt>
      <trkpt lat="49.73482" lon="2.33501">
        <ele>65.4</ele>
        <time>2023-03-01T13:31:10Z</time>
      </trkpt>
      <trkpt lat="49.73481" lon="2.335">
        <ele>65.4</ele>
        <time>2023-03-01T13:31:11Z</time>
      </trkpt>
      <trkpt lat="49.7348" lon="2.33498">
        <ele>65.4</ele>
        <time>2023-03-01T13:31:12Z</time>
      </trkpt>
      <trkpt lat="49.7348" lon="2.33497">
        <ele>65.4</ele>
        <time>2023-03-01T13:31:14Z</time>
      </trkpt>
      <trkpt lat="49.73479" lon="2.33496">
        <ele>65.4</ele>
        <time>2023-03-01T13:31:15Z</time>
      </trkpt>
      <trkpt lat="49.73478" lon="2.33495">
        <ele>65.4</ele>
        <time>2023-03-01T13:31:16Z</time>
      </trkpt>
      <trkpt lat="49.73477" lon="2.33493">
        <ele>65.5</ele>
        <time>2023-03-01T13:31:17Z</time>
      </trkpt>
      <trkpt lat="49.73477" lon="2.33492">
        <ele>65.5</ele>
        <time>2023-03-01T13:31:18Z</time>
      </trkpt>
      <trkpt lat="49.73476" lon="2.33491">
        <ele>65.5</ele>
        <time>2023-03-01T13:31:19Z</time>
      </trkpt>
      <trkpt lat="49.73475" lon="2.3349">
        <ele>65.5</ele>
        <time>2023-03-01T13:31:20Z</time>
      </trkpt>
      <trkpt lat="49.73474" lon="2.33489">
        <ele>65.5</ele>
        <time>2023-03-01T13:31:21Z</time>
      </trkpt>
      <trkpt lat="49.73473" lon="2.33487">
        <ele>65.5</ele>
        <time>2023-03-01T13:31:23Z</time>
      </trkpt>
      <trkpt lat="49.73472" lon="2.33486">
        <ele>65.6</ele>
        <time>2023-03-01T13:31:24Z</time>
      </trkpt>
      <trkpt lat="49.73471" lon="2.33485">
        <ele>65.6</ele>
        <time>2023-03-01T13:31:25Z</time>
      </trkpt>
      <trkpt lat="49.7347" lon="2.33484">
        <ele>65.6</ele>
        <time>2023-03-01T13:31:26Z</time>
      </trkpt>
      <trkpt lat="49.73469" lon="2.33482">
        <ele>65.6</ele>
        <time>2023-03-01T13:31:27Z</time>
      </trkpt>
      <trkpt lat="49.73468" lon="2.33481">
        <ele>65.7</ele>
        <time>2023-03-01T13:31:28Z</time>
      </trkpt>
      <trkpt lat="49.73466" lon="2.33479">
        <ele>65.7</ele>
        <time>2023-03-01T13:31:29Z</time>
      </trkpt>
      <trkpt lat="49.73465" lon="2.33478">
        <ele>65.7</ele>
        <time>2023-03-01T13:31:31Z</time>
      </trkpt>
      <trkpt lat="49.73465" lon="2.33477">
        <ele>65.7</ele>
        <time>2023-03-01T13:31:32Z</time>
      </trkpt>
      <trkpt lat="49.73463" lon="2.33474">
        <ele>65.8</ele>
        <time>2023-03-01T13:31:33Z</time>
      </trkpt>
      <trkpt lat="49.73462" lon="2.33473">
        <ele>65.8</ele>
        <time>2023-03-01T13:31:34Z</time>
      </trkpt>
      <trkpt lat="49.73461" lon="2.33471">
        <ele>65.8</ele>
        <time>2023-03-01T13:31:35Z</time>
      </trkpt>
      <trkpt lat="49.7346" lon="2.33469">
        <ele>65.9</ele>
        <time>2023-03-01T13:31:36Z</time>
      </trkpt>
      <trkpt lat="49.73459" lon="2.33467">
        <ele>65.9</ele>
        <time>2023-03-01T13:31:37Z</time>
      </trkpt>
      <trkpt lat="49.73458" lon="2.33466">
        <ele>65.9</ele>
        <time>2023-03-01T13:31:38Z</time>
      </trkpt>
      <trkpt lat="49.73457" lon="2.33463">
        <ele>66</ele>
        <time>2023-03-01T13:31:40Z</time>
      </trkpt>
      <trkpt lat="49.73456" lon="2.33462">
        <ele>66</ele>
        <time>2023-03-01T13:31:41Z</time>
      </trkpt>
      <trkpt lat="49.73455" lon="2.33461">
        <ele>66</ele>
        <time>2023-03-01T13:31:42Z</time>
      </trkpt>
      <trkpt lat="49.73454" lon="2.33459">
        <ele>66</ele>
        <time>2023-03-01T13:31:43Z</time>
      </trkpt>
      <trkpt lat="49.73453" lon="2.33457">
        <ele>66.1</ele>
        <time>2023-03-01T13:31:44Z</time>
      </trkpt>
      <trkpt lat="49.73452" lon="2.33455">
        <ele>66.1</ele>
        <time>2023-03-01T13:31:45Z</time>
      </trkpt>
      <trkpt lat="49.73451" lon="2.33454">
        <ele>66.1</ele>
        <time>2023-03-01T13:31:46Z</time>
      </trkpt>
      <trkpt lat="49.7345" lon="2.33452">
        <ele>66.1</ele>
        <time>2023-03-01T13:31:47Z</time>
      </trkpt>
      <trkpt lat="49.73449" lon="2.33451">
        <ele>66.2</ele>
        <time>2023-03-01T13:31:48Z</time>
      </trkpt>
      <trkpt lat="49.73448" lon="2.33449">
        <ele>66.2</ele>
        <time>2023-03-01T13:31:50Z</time>
      </trkpt>
      <trkpt lat="49.73448" lon="2.33448">
        <ele>66.2</ele>
        <time>2023-03-01T13:31:51Z</time>
      </trkpt>
      <trkpt lat="49.73447" lon="2.33447">
        <ele>66.2</ele>
        <time>2023-03-01T13:31:52Z</time>
      </trkpt>
      <trkpt lat="49.73445" lon="2.33444">
        <ele>66.3</ele>
        <time>2023-03-01T13:31:53Z</time>
      </trkpt>
      <trkpt lat="49.73445" lon="2.33443">
        <ele>66.3</ele>
        <time>2023-03-01T13:31:54Z</time>
      </trkpt>
      <trkpt lat="49.73444" lon="2.33442">
        <ele>66.3</ele>
        <time>2023-03-01T13:31:55Z</time>
      </trkpt>
      <trkpt lat="49.73443" lon="2.33441">
        <ele>66.3</ele>
        <time>2023-03-01T13:31:56Z</time>
      </trkpt>
      <trkpt lat="49.73442" lon="2.33439">
        <ele>66.4</ele>
        <time>2023-03-01T13:31:57Z</time>
      </trkpt>
      <trkpt lat="49.73442" lon="2.33438">
        <ele>66.4</ele>
        <time>2023-03-01T13:31:58Z</time>
      </trkpt>
      <trkpt lat="49.73442" lon="2.33438">
        <ele>66.4</ele>
        <time>2023-03-01T13:32:00Z</time>
      </trkpt>
      <trkpt lat="49.73441" lon="2.33436">
        <ele>66.4</ele>
        <time>2023-03-01T13:32:01Z</time>
      </trkpt>
      <trkpt lat="49.7344" lon="2.33435">
        <ele>66.4</ele>
        <time>2023-03-01T13:32:02Z</time>
      </trkpt>
      <trkpt lat="49.73439" lon="2.33434">
        <ele>66.5</ele>
        <time>2023-03-01T13:32:03Z</time>
      </trkpt>
      <trkpt lat="49.73438" lon="2.33433">
        <ele>66.5</ele>
        <time>2023-03-01T13:32:04Z</time>
      </trkpt>
      <trkpt lat="49.73438" lon="2.33432">
        <ele>66.5</ele>
        <time>2023-03-01T13:32:05Z</time>
      </trkpt>
      <trkpt lat="49.73437" lon="2.3343">
        <ele>66.5</ele>
        <time>2023-03-01T13:32:06Z</time>
      </trkpt>
      <trkpt lat="49.73436" lon="2.33429">
        <ele>66.6</ele>
        <time>2023-03-01T13:32:07Z</time>
      </trkpt>
      <trkpt lat="49.73436" lon="2.33428">
        <ele>66.6</ele>
        <time>2023-03-01T13:32:08Z</time>
      </trkpt>
      <trkpt lat="49.73434" lon="2.33426">
        <ele>66.6</ele>
        <time>2023-03-01T13:32:10Z</time>
      </trkpt>
      <trkpt lat="49.73433" lon="2.33425">
        <ele>66.6</ele>
        <time>2023-03-01T13:32:11Z</time>
      </trkpt>
      <trkpt lat="49.73433" lon="2.33424">
        <ele>66.7</ele>
        <time>2023-03-01T13:32:12Z</time>
      </trkpt>
      <trkpt lat="49.73432" lon="2.33423">
        <ele>66.7</ele>
        <time>2023-03-01T13:32:13Z</time>
      </trkpt>
      <trkpt lat="49.73432" lon="2.33422">
        <ele>66.7</ele>
        <time>2023-03-01T13:32:15Z</time>
      </trkpt>
      <trkpt lat="49.73432" lon="2.33421">
        <ele>66.7</ele>
        <time>2023-03-01T13:32:16Z</time>
      </trkpt>
      <trkpt lat="49.73432" lon="2.3342">
        <ele>66.7</ele>
        <time>2023-03-01T13:32:17Z</time>
      </trkpt>
      <trkpt lat="49.73431" lon="2.33419">
        <ele>66.7</ele>
        <time>2023-03-01T13:32:18Z</time>
      </trkpt>
      <trkpt lat="49.73431" lon="2.33418">
        <ele>66.8</ele>
        <time>2023-03-01T13:32:19Z</time>
      </trkpt>
      <trkpt lat="49.7343" lon="2.33417">
        <ele>66.8</ele>
        <time>2023-03-01T13:32:20Z</time>
      </trkpt>
      <trkpt lat="49.73429" lon="2.33416">
        <ele>66.8</ele>
        <time>2023-03-01T13:32:21Z</time>
      </trkpt>
      <trkpt lat="49.73428" lon="2.33413">
        <ele>66.9</ele>
        <time>2023-03-01T13:32:22Z</time>
      </trkpt>
      <trkpt lat="49.73427" lon="2.33411">
        <ele>66.9</ele>
        <time>2023-03-01T13:32:23Z</time>
      </trkpt>
      <trkpt lat="49.73426" lon="2.3341">
        <ele>66.9</ele>
        <time>2023-03-01T13:32:25Z</time>
      </trkpt>
      <trkpt lat="49.73426" lon="2.33409">
        <ele>66.9</ele>
        <time>2023-03-01T13:32:26Z</time>
      </trkpt>
      <trkpt lat="49.73425" lon="2.33408">
        <ele>67</ele>
        <time>2023-03-01T13:32:27Z</time>
      </trkpt>
      <trkpt lat="49.73425" lon="2.33407">
        <ele>67</ele>
        <time>2023-03-01T13:32:28Z</time>
      </trkpt>
      <trkpt lat="49.73423" lon="2.33404">
        <ele>67</ele>
        <time>2023-03-01T13:32:29Z</time>
      </trkpt>
      <trkpt lat="49.73423" lon="2.33403">
        <ele>67.1</ele>
        <time>2023-03-01T13:32:30Z</time>
      </trkpt>
      <trkpt lat="49.73422" lon="2.33402">
        <ele>67.1</ele>
        <time>2023-03-01T13:32:31Z</time>
      </trkpt>
      <trkpt lat="49.73421" lon="2.334">
        <ele>67.1</ele>
        <time>2023-03-01T13:32:32Z</time>
      </trkpt>
      <trkpt lat="49.7342" lon="2.33399">
        <ele>67.2</ele>
        <time>2023-03-01T13:32:33Z</time>
      </trkpt>
      <trkpt lat="49.73419" lon="2.33397">
        <ele>67.2</ele>
        <time>2023-03-01T13:32:35Z</time>
      </trkpt>
      <trkpt lat="49.73418" lon="2.33395">
        <ele>67.2</ele>
        <time>2023-03-01T13:32:36Z</time>
      </trkpt>
      <trkpt lat="49.73417" lon="2.33394">
        <ele>67.3</ele>
        <time>2023-03-01T13:32:37Z</time>
      </trkpt>
      <trkpt lat="49.73416" lon="2.33392">
        <ele>67.3</ele>
        <time>2023-03-01T13:32:38Z</time>
      </trkpt>
      <trkpt lat="49.73415" lon="2.33391">
        <ele>67.3</ele>
        <time>2023-03-01T13:32:39Z</time>
      </trkpt>
      <trkpt lat="49.73415" lon="2.3339">
        <ele>67.4</ele>
        <time>2023-03-01T13:32:40Z</time>
      </trkpt>
      <trkpt lat="49.73414" lon="2.33389">
        <ele>67.4</ele>
        <time>2023-03-01T13:32:41Z</time>
      </trkpt>
      <trkpt lat="49.73413" lon="2.33387">
        <ele>67.4</ele>
        <time>2023-03-01T13:32:42Z</time>
      </trkpt>
      <trkpt lat="49.73412" lon="2.33386">
        <ele>67.4</ele>
        <time>2023-03-01T13:32:43Z</time>
      </trkpt>
      <trkpt lat="49.73411" lon="2.33384">
        <ele>67.5</ele>
        <time>2023-03-01T13:32:45Z</time>
      </trkpt>
      <trkpt lat="49.7341" lon="2.33382">
        <ele>67.5</ele>
        <time>2023-03-01T13:32:46Z</time>
      </trkpt>
      <trkpt lat="49.73409" lon="2.33381">
        <ele>67.6</ele>
        <time>2023-03-01T13:32:47Z</time>
      </trkpt>
      <trkpt lat="49.73408" lon="2.33379">
        <ele>67.6</ele>
        <time>2023-03-01T13:32:48Z</time>
      </trkpt>
      <trkpt lat="49.73407" lon="2.33376">
        <ele>67.7</ele>
        <time>2023-03-01T13:32:49Z</time>
      </trkpt>
      <trkpt lat="49.73406" lon="2.33375">
        <ele>67.7</ele>
        <time>2023-03-01T13:32:50Z</time>
      </trkpt>
      <trkpt lat="49.73406" lon="2.33374">
        <ele>67.7</ele>
        <time>2023-03-01T13:32:51Z</time>
      </trkpt>
      <trkpt lat="49.73404" lon="2.33371">
        <ele>67.8</ele>
        <time>2023-03-01T13:32:52Z</time>
      </trkpt>
      <trkpt lat="49.73404" lon="2.3337">
        <ele>67.8</ele>
        <time>2023-03-01T13:32:54Z</time>
      </trkpt>
      <trkpt lat="49.73404" lon="2.33369">
        <ele>67.8</ele>
        <time>2023-03-01T13:32:55Z</time>
      </trkpt>
      <trkpt lat="49.73402" lon="2.33367">
        <ele>67.9</ele>
        <time>2023-03-01T13:32:56Z</time>
      </trkpt>
      <trkpt lat="49.73402" lon="2.33366">
        <ele>67.9</ele>
        <time>2023-03-01T13:32:57Z</time>
      </trkpt>
      <trkpt lat="49.73401" lon="2.33365">
        <ele>67.9</ele>
        <time>2023-03-01T13:32:58Z</time>
      </trkpt>
      <trkpt lat="49.734" lon="2.33362">
        <ele>68</ele>
        <time>2023-03-01T13:32:59Z</time>
      </trkpt>
      <trkpt lat="49.734" lon="2.33361">
        <ele>68</ele>
        <time>2023-03-01T13:33:00Z</time>
      </trkpt>
      <trkpt lat="49.73399" lon="2.3336">
        <ele>68.1</ele>
        <time>2023-03-01T13:33:01Z</time>
      </trkpt>
      <trkpt lat="49.73398" lon="2.33358">
        <ele>68.1</ele>
        <time>2023-03-01T13:33:03Z</time>
      </trkpt>
      <trkpt lat="49.73397" lon="2.33357">
        <ele>68.2</ele>
        <time>2023-03-01T13:33:04Z</time>
      </trkpt>
      <trkpt lat="49.73396" lon="2.33355">
        <ele>68.2</ele>
        <time>2023-03-01T13:33:05Z</time>
      </trkpt>
      <trkpt lat="49.73395" lon="2.33354">
        <ele>68.3</ele>
        <time>2023-03-01T13:33:06Z</time>
      </trkpt>
      <trkpt lat="49.73394" lon="2.33351">
        <ele>68.4</ele>
        <time>2023-03-01T13:33:07Z</time>
      </trkpt>
      <trkpt lat="49.73393" lon="2.3335">
        <ele>68.4</ele>
        <time>2023-03-01T13:33:08Z</time>
      </trkpt>
      <trkpt lat="49.73392" lon="2.33349">
        <ele>68.4</ele>
        <time>2023-03-01T13:33:09Z</time>
      </trkpt>
      <trkpt lat="49.73392" lon="2.33347">
        <ele>68.5</ele>
        <time>2023-03-01T13:33:11Z</time>
      </trkpt>
      <trkpt lat="49.73391" lon="2.33346">
        <ele>68.5</ele>
        <time>2023-03-01T13:33:12Z</time>
      </trkpt>
      <trkpt lat="49.73389" lon="2.33343">
        <ele>68.6</ele>
        <time>2023-03-01T13:33:13Z</time>
      </trkpt>
      <trkpt lat="49.73389" lon="2.33341">
        <ele>68.7</ele>
        <time>2023-03-01T13:33:14Z</time>
      </trkpt>
      <trkpt lat="49.73388" lon="2.3334">
        <ele>68.7</ele>
        <time>2023-03-01T13:33:15Z</time>
      </trkpt>
      <trkpt lat="49.73387" lon="2.33338">
        <ele>68.8</ele>
        <time>2023-03-01T13:33:16Z</time>
      </trkpt>
      <trkpt lat="49.73385" lon="2.33335">
        <ele>68.9</ele>
        <time>2023-03-01T13:33:17Z</time>
      </trkpt>
      <trkpt lat="49.73384" lon="2.33334">
        <ele>68.9</ele>
        <time>2023-03-01T13:33:18Z</time>
      </trkpt>
      <trkpt lat="49.73383" lon="2.33333">
        <ele>68.9</ele>
        <time>2023-03-01T13:33:20Z</time>
      </trkpt>
      <trkpt lat="49.73382" lon="2.33331">
        <ele>69</ele>
        <time>2023-03-01T13:33:21Z</time>
      </trkpt>
      <trkpt lat="49.73381" lon="2.33329">
        <ele>69</ele>
        <time>2023-03-01T13:33:22Z</time>
      </trkpt>
      <trkpt lat="49.7338" lon="2.33327">
        <ele>69.1</ele>
        <time>2023-03-01T13:33:23Z</time>
      </trkpt>
      <trkpt lat="49.73379" lon="2.33326">
        <ele>69.1</ele>
        <time>2023-03-01T13:33:24Z</time>
      </trkpt>
      <trkpt lat="49.73379" lon="2.33325">
        <ele>69.1</ele>
        <time>2023-03-01T13:33:25Z</time>
      </trkpt>
      <trkpt lat="49.73378" lon="2.33324">
        <ele>69.2</ele>
        <time>2023-03-01T13:33:26Z</time>
      </trkpt>
      <trkpt lat="49.73377" lon="2.33322">
        <ele>69.2</ele>
        <time>2023-03-01T13:33:27Z</time>
      </trkpt>
      <trkpt lat="49.73376" lon="2.3332">
        <ele>69.3</ele>
        <time>2023-03-01T13:33:29Z</time>
      </trkpt>
      <trkpt lat="49.73375" lon="2.33319">
        <ele>69.3</ele>
        <time>2023-03-01T13:33:30Z</time>
      </trkpt>
      <trkpt lat="49.73374" lon="2.33317">
        <ele>69.3</ele>
        <time>2023-03-01T13:33:31Z</time>
      </trkpt>
      <trkpt lat="49.73372" lon="2.33314">
        <ele>69.4</ele>
        <time>2023-03-01T13:33:32Z</time>
      </trkpt>
      <trkpt lat="49.73371" lon="2.33313">
        <ele>69.4</ele>
        <time>2023-03-01T13:33:33Z</time>
      </trkpt>
      <trkpt lat="49.7337" lon="2.33312">
        <ele>69.4</ele>
        <time>2023-03-01T13:33:34Z</time>
      </trkpt>
      <trkpt lat="49.73369" lon="2.33311">
        <ele>69.5</ele>
        <time>2023-03-01T13:33:35Z</time>
      </trkpt>
      <trkpt lat="49.73368" lon="2.33309">
        <ele>69.5</ele>
        <time>2023-03-01T13:33:37Z</time>
      </trkpt>
      <trkpt lat="49.73367" lon="2.33307">
        <ele>69.5</ele>
        <time>2023-03-01T13:33:38Z</time>
      </trkpt>
      <trkpt lat="49.73366" lon="2.33306">
        <ele>69.6</ele>
        <time>2023-03-01T13:33:39Z</time>
      </trkpt>
      <trkpt lat="49.73365" lon="2.33305">
        <ele>69.6</ele>
        <time>2023-03-01T13:33:40Z</time>
      </trkpt>
      <trkpt lat="49.73364" lon="2.33304">
        <ele>69.6</ele>
        <time>2023-03-01T13:33:41Z</time>
      </trkpt>
      <trkpt lat="49.73364" lon="2.33302">
        <ele>69.6</ele>
        <time>2023-03-01T13:33:42Z</time>
      </trkpt>
      <trkpt lat="49.73363" lon="2.33301">
        <ele>69.7</ele>
        <time>2023-03-01T13:33:43Z</time>
      </trkpt>
      <trkpt lat="49.73362" lon="2.333">
        <ele>69.7</ele>
        <time>2023-03-01T13:33:45Z</time>
      </trkpt>
      <trkpt lat="49.73361" lon="2.33299">
        <ele>69.7</ele>
        <time>2023-03-01T13:33:46Z</time>
      </trkpt>
      <trkpt lat="49.7336" lon="2.33298">
        <ele>69.7</ele>
        <time>2023-03-01T13:33:47Z</time>
      </trkpt>
      <trkpt lat="49.73359" lon="2.33296">
        <ele>69.8</ele>
        <time>2023-03-01T13:33:48Z</time>
      </trkpt>
      <trkpt lat="49.73359" lon="2.33296">
        <ele>69.8</ele>
        <time>2023-03-01T13:33:49Z</time>
      </trkpt>
      <trkpt lat="49.73358" lon="2.33295">
        <ele>69.8</ele>
        <time>2023-03-01T13:33:50Z</time>
      </trkpt>
      <trkpt lat="49.73357" lon="2.33294">
        <ele>69.8</ele>
        <time>2023-03-01T13:33:51Z</time>
      </trkpt>
      <trkpt lat="49.73356" lon="2.33292">
        <ele>69.9</ele>
        <time>2023-03-01T13:33:53Z</time>
      </trkpt>
      <trkpt lat="49.73355" lon="2.3329">
        <ele>69.9</ele>
        <time>2023-03-01T13:33:54Z</time>
      </trkpt>
      <trkpt lat="49.73354" lon="2.3329">
        <ele>69.9</ele>
        <time>2023-03-01T13:33:55Z</time>
      </trkpt>
      <trkpt lat="49.73353" lon="2.33289">
        <ele>69.9</ele>
        <time>2023-03-01T13:33:56Z</time>
      </trkpt>
      <trkpt lat="49.73353" lon="2.33288">
        <ele>69.9</ele>
        <time>2023-03-01T13:33:57Z</time>
      </trkpt>
      <trkpt lat="49.73352" lon="2.33287">
        <ele>70</ele>
        <time>2023-03-01T13:33:59Z</time>
      </trkpt>
      <trkpt lat="49.73351" lon="2.33287">
        <ele>70</ele>
        <time>2023-03-01T13:34:00Z</time>
      </trkpt>
      <trkpt lat="49.73351" lon="2.33285">
        <ele>70</ele>
        <time>2023-03-01T13:34:01Z</time>
      </trkpt>
      <trkpt lat="49.7335" lon="2.33285">
        <ele>70</ele>
        <time>2023-03-01T13:34:02Z</time>
      </trkpt>
      <trkpt lat="49.7335" lon="2.33283">
        <ele>70</ele>
        <time>2023-03-01T13:34:03Z</time>
      </trkpt>
      <trkpt lat="49.7335" lon="2.33283">
        <ele>70</ele>
        <time>2023-03-01T13:34:04Z</time>
      </trkpt>
      <trkpt lat="49.7335" lon="2.33282">
        <ele>70</ele>
        <time>2023-03-01T13:34:05Z</time>
      </trkpt>
      <trkpt lat="49.7335" lon="2.33281">
        <ele>70.1</ele>
        <time>2023-03-01T13:34:07Z</time>
      </trkpt>
      <trkpt lat="49.73351" lon="2.3328">
        <ele>70.1</ele>
        <time>2023-03-01T13:34:08Z</time>
      </trkpt>
      <trkpt lat="49.73351" lon="2.33281">
        <ele>70.1</ele>
        <time>2023-03-01T13:34:09Z</time>
      </trkpt>
      <trkpt lat="49.73351" lon="2.33281">
        <ele>70.1</ele>
        <time>2023-03-01T13:34:11Z</time>
      </trkpt>
      <trkpt lat="49.73351" lon="2.33281">
        <ele>70.1</ele>
        <time>2023-03-01T13:34:12Z</time>
      </trkpt>
      <trkpt lat="49.73352" lon="2.33282">
        <ele>70.1</ele>
        <time>2023-03-01T13:34:14Z</time>
      </trkpt>
      <trkpt lat="49.73352" lon="2.33282">
        <ele>70.1</ele>
        <time>2023-03-01T13:34:15Z</time>
      </trkpt>
      <trkpt lat="49.73352" lon="2.33283">
        <ele>70.1</ele>
        <time>2023-03-01T13:34:16Z</time>
      </trkpt>
      <trkpt lat="49.73352" lon="2.33283">
        <ele>70.1</ele>
        <time>2023-03-01T13:34:18Z</time>
      </trkpt>
      <trkpt lat="49.73352" lon="2.33283">
        <ele>70.1</ele>
        <time>2023-03-01T13:34:19Z</time>
      </trkpt>
      <trkpt lat="49.73352" lon="2.33283">
        <ele>70.1</ele>
        <time>2023-03-01T13:34:20Z</time>
      </trkpt>
      <trkpt lat="49.73352" lon="2.33283">
        <ele>70.1</ele>
        <time>2023-03-01T13:34:22Z</time>
      </trkpt>
      <trkpt lat="49.73352" lon="2.33284">
        <ele>70.1</ele>
        <time>2023-03-01T13:34:23Z</time>
      </trkpt>
      <trkpt lat="49.73352" lon="2.33284">
        <ele>70.1</ele>
        <time>2023-03-01T13:34:24Z</time>
      </trkpt>
      <trkpt lat="49.73352" lon="2.33284">
        <ele>70.1</ele>
        <time>2023-03-01T13:34:25Z</time>
      </trkpt>
      <trkpt lat="49.73352" lon="2.33284">
        <ele>70.1</ele>
        <time>2023-03-01T13:34:26Z</time>
      </trkpt>
      <trkpt lat="49.73352" lon="2.33284">
        <ele>70.1</ele>
        <time>2023-03-01T13:34:27Z</time>
      </trkpt>
      <trkpt lat="49.73352" lon="2.33284">
        <ele>70.1</ele>
        <time>2023-03-01T13:34:28Z</time>
      </trkpt>
      <trkpt lat="49.73352" lon="2.33284">
        <ele>70.1</ele>
        <time>2023-03-01T13:34:29Z</time>
      </trkpt>
      <trkpt lat="49.73352" lon="2.33284">
        <ele>70.1</ele>
        <time>2023-03-01T13:34:30Z</time>
      </trkpt>
      <trkpt lat="49.73352" lon="2.33284">
        <ele>70.1</ele>
        <time>2023-03-01T13:34:31Z</time>
      </trkpt>
      <trkpt lat="49.73352" lon="2.33284">
        <ele>70.1</ele>
        <time>2023-03-01T13:34:32Z</time>
      </trkpt>
      <trkpt lat="49.73352" lon="2.33284">
        <ele>70.1</ele>
        <time>2023-03-01T13:34:33Z</time>
      </trkpt>
      <trkpt lat="49.73352" lon="2.33284">
        <ele>70.1</ele>
        <time>2023-03-01T13:34:34Z</time>
      </trkpt>
      <trkpt lat="49.73352" lon="2.33284">
        <ele>70.1</ele>
        <time>2023-03-01T13:34:35Z</time>
      </trkpt>
      <trkpt lat="49.73352" lon="2.33284">
        <ele>70.1</ele>
        <time>2023-03-01T13:34:36Z</time>
      </trkpt>
      <trkpt lat="49.73352" lon="2.33284">
        <ele>70.1</ele>
        <time>2023-03-01T13:34:37Z</time>
      </trkpt>
      <trkpt lat="49.73352" lon="2.33284">
        <ele>70.1</ele>
        <time>2023-03-01T13:34:38Z</time>
      </trkpt>
      <trkpt lat="49.73352" lon="2.33284">
        <ele>70.1</ele>
        <time>2023-03-01T13:34:39Z</time>
      </trkpt>
      <trkpt lat="49.73352" lon="2.33284">
        <ele>70.1</ele>
        <time>2023-03-01T13:34:40Z</time>
      </trkpt>
      <trkpt lat="49.73352" lon="2.33284">
        <ele>70.1</ele>
        <time>2023-03-01T13:34:41Z</time>
      </trkpt>
      <trkpt lat="49.73352" lon="2.33284">
        <ele>70.1</ele>
        <time>2023-03-01T13:34:42Z</time>
      </trkpt>
      <trkpt lat="49.73352" lon="2.33284">
        <ele>70.1</ele>
        <time>2023-03-01T13:34:44Z</time>
      </trkpt>
      <trkpt lat="49.73352" lon="2.33284">
        <ele>70.1</ele>
        <time>2023-03-01T13:34:45Z</time>
      </trkpt>
      <trkpt lat="49.73352" lon="2.33284">
        <ele>70.1</ele>
        <time>2023-03-01T13:34:46Z</time>
      </trkpt>
      <trkpt lat="49.73352" lon="2.33284">
        <ele>70.1</ele>
        <time>2023-03-01T13:34:47Z</time>
      </trkpt>
      <trkpt lat="49.73352" lon="2.33284">
        <ele>70.2</ele>
        <time>2023-03-01T13:34:48Z</time>
      </trkpt>
      <trkpt lat="49.73352" lon="2.33284">
        <ele>70.2</ele>
        <time>2023-03-01T13:34:49Z</time>
      </trkpt>
      <trkpt lat="49.73351" lon="2.33284">
        <ele>70.2</ele>
        <time>2023-03-01T13:34:50Z</time>
      </trkpt>
      <trkpt lat="49.73351" lon="2.33284">
        <ele>70.2</ele>
        <time>2023-03-01T13:34:51Z</time>
      </trkpt>
      <trkpt lat="49.73351" lon="2.33283">
        <ele>70.2</ele>
        <time>2023-03-01T13:34:52Z</time>
      </trkpt>
      <trkpt lat="49.73351" lon="2.33283">
        <ele>70.2</ele>
        <time>2023-03-01T13:34:53Z</time>
      </trkpt>
      <trkpt lat="49.73351" lon="2.33283">
        <ele>70.2</ele>
        <time>2023-03-01T13:34:54Z</time>
      </trkpt>
      <trkpt lat="49.73351" lon="2.33283">
        <ele>70.2</ele>
        <time>2023-03-01T13:34:55Z</time>
      </trkpt>
      <trkpt lat="49.73351" lon="2.33283">
        <ele>70.2</ele>
        <time>2023-03-01T13:34:57Z</time>
      </trkpt>
      <trkpt lat="49.73351" lon="2.33283">
        <ele>70.2</ele>
        <time>2023-03-01T13:34:58Z</time>
      </trkpt>
      <trkpt lat="49.73351" lon="2.33283">
        <ele>70.2</ele>
        <time>2023-03-01T13:34:59Z</time>
      </trkpt>
      <trkpt lat="49.73351" lon="2.33283">
        <ele>70.2</ele>
        <time>2023-03-01T13:35:00Z</time>
      </trkpt>
      <trkpt lat="49.73351" lon="2.33283">
        <ele>70.2</ele>
        <time>2023-03-01T13:35:01Z</time>
      </trkpt>
      <trkpt lat="49.73351" lon="2.33283">
        <ele>70.2</ele>
        <time>2023-03-01T13:35:02Z</time>
      </trkpt>
      <trkpt lat="49.73351" lon="2.33283">
        <ele>70.2</ele>
        <time>2023-03-01T13:35:03Z</time>
      </trkpt>
      <trkpt lat="49.73351" lon="2.33283">
        <ele>70.2</ele>
        <time>2023-03-01T13:35:04Z</time>
      </trkpt>
      <trkpt lat="49.73351" lon="2.33283">
        <ele>70.2</ele>
        <time>2023-03-01T13:35:06Z</time>
      </trkpt>
      <trkpt lat="49.73351" lon="2.33283">
        <ele>70.2</ele>
        <time>2023-03-01T13:35:07Z</time>
      </trkpt>
      <trkpt lat="49.73351" lon="2.33283">
        <ele>70.2</ele>
        <time>2023-03-01T13:35:08Z</time>
      </trkpt>
      <trkpt lat="49.73351" lon="2.33283">
        <ele>70.2</ele>
        <time>2023-03-01T13:35:09Z</time>
      </trkpt>
      <trkpt lat="49.73351" lon="2.33283">
        <ele>70.2</ele>
        <time>2023-03-01T13:35:10Z</time>
      </trkpt>
      <trkpt lat="49.73351" lon="2.33283">
        <ele>70.2</ele>
        <time>2023-03-01T13:35:12Z</time>
      </trkpt>
      <trkpt lat="49.73351" lon="2.33283">
        <ele>70.2</ele>
        <time>2023-03-01T13:35:13Z</time>
      </trkpt>
      <trkpt lat="49.73351" lon="2.33283">
        <ele>70.2</ele>
        <time>2023-03-01T13:35:14Z</time>
      </trkpt>
      <trkpt lat="49.73351" lon="2.33283">
        <ele>70.2</ele>
        <time>2023-03-01T13:35:15Z</time>
      </trkpt>
      <trkpt lat="49.73351" lon="2.33283">
        <ele>70.2</ele>
        <time>2023-03-01T13:35:16Z</time>
      </trkpt>
      <trkpt lat="49.73351" lon="2.33283">
        <ele>70.2</ele>
        <time>2023-03-01T13:35:17Z</time>
      </trkpt>
      <trkpt lat="49.73351" lon="2.33283">
        <ele>70.2</ele>
        <time>2023-03-01T13:35:18Z</time>
      </trkpt>
      <trkpt lat="49.73351" lon="2.33283">
        <ele>70.2</ele>
        <time>2023-03-01T13:35:19Z</time>
      </trkpt>
      <trkpt lat="49.73351" lon="2.33283">
        <ele>70.2</ele>
        <time>2023-03-01T13:35:20Z</time>
      </trkpt>
      <trkpt lat="49.73351" lon="2.33283">
        <ele>70.2</ele>
        <time>2023-03-01T13:35:21Z</time>
      </trkpt>
      <trkpt lat="49.73351" lon="2.33283">
        <ele>70.2</ele>
        <time>2023-03-01T13:35:22Z</time>
      </trkpt>
      <trkpt lat="49.73351" lon="2.33283">
        <ele>70.2</ele>
        <time>2023-03-01T13:35:23Z</time>
      </trkpt>
      <trkpt lat="49.73351" lon="2.33283">
        <ele>70.2</ele>
        <time>2023-03-01T13:35:25Z</time>
      </trkpt>
      <trkpt lat="49.73351" lon="2.33283">
        <ele>70.2</ele>
        <time>2023-03-01T13:35:26Z</time>
      </trkpt>
      <trkpt lat="49.73351" lon="2.33283">
        <ele>70.2</ele>
        <time>2023-03-01T13:35:27Z</time>
      </trkpt>
      <trkpt lat="49.73351" lon="2.33283">
        <ele>70.2</ele>
        <time>2023-03-01T13:35:28Z</time>
      </trkpt>
      <trkpt lat="49.73351" lon="2.33283">
        <ele>70.2</ele>
        <time>2023-03-01T13:35:29Z</time>
      </trkpt>
      <trkpt lat="49.73351" lon="2.33282">
        <ele>70.2</ele>
        <time>2023-03-01T13:35:30Z</time>
      </trkpt>
      <trkpt lat="49.73351" lon="2.33282">
        <ele>70.2</ele>
        <time>2023-03-01T13:35:31Z</time>
      </trkpt>
      <trkpt lat="49.7335" lon="2.33282">
        <ele>70.2</ele>
        <time>2023-03-01T13:35:32Z</time>
      </trkpt>
      <trkpt lat="49.7335" lon="2.33282">
        <ele>70.2</ele>
        <time>2023-03-01T13:35:33Z</time>
      </trkpt>
      <trkpt lat="49.7335" lon="2.33282">
        <ele>70.2</ele>
        <time>2023-03-01T13:35:34Z</time>
      </trkpt>
      <trkpt lat="49.7335" lon="2.33282">
        <ele>70.2</ele>
        <time>2023-03-01T13:35:35Z</time>
      </trkpt>
      <trkpt lat="49.7335" lon="2.33282">
        <ele>70.2</ele>
        <time>2023-03-01T13:35:36Z</time>
      </trkpt>
      <trkpt lat="49.7335" lon="2.33282">
        <ele>70.2</ele>
        <time>2023-03-01T13:35:37Z</time>
      </trkpt>
      <trkpt lat="49.7335" lon="2.33282">
        <ele>70.2</ele>
        <time>2023-03-01T13:35:38Z</time>
      </trkpt>
      <trkpt lat="49.7335" lon="2.33282">
        <ele>70.2</ele>
        <time>2023-03-01T13:35:39Z</time>
      </trkpt>
      <trkpt lat="49.7335" lon="2.33282">
        <ele>70.2</ele>
        <time>2023-03-01T13:35:40Z</time>
      </trkpt>
      <trkpt lat="49.7335" lon="2.33282">
        <ele>70.2</ele>
        <time>2023-03-01T13:35:41Z</time>
      </trkpt>
      <trkpt lat="49.7335" lon="2.33282">
        <ele>70.2</ele>
        <time>2023-03-01T13:35:42Z</time>
      </trkpt>
      <trkpt lat="49.7335" lon="2.33282">
        <ele>70.2</ele>
        <time>2023-03-01T13:35:43Z</time>
      </trkpt>
      <trkpt lat="49.7335" lon="2.33282">
        <ele>70.2</ele>
        <time>2023-03-01T13:35:44Z</time>
      </trkpt>
      <trkpt lat="49.7335" lon="2.33282">
        <ele>70.2</ele>
        <time>2023-03-01T13:35:45Z</time>
      </trkpt>
      <trkpt lat="49.7335" lon="2.33282">
        <ele>70.2</ele>
        <time>2023-03-01T13:35:46Z</time>
      </trkpt>
      <trkpt lat="49.7335" lon="2.33282">
        <ele>70.2</ele>
        <time>2023-03-01T13:35:47Z</time>
      </trkpt>
      <trkpt lat="49.7335" lon="2.33282">
        <ele>70.2</ele>
        <time>2023-03-01T13:35:48Z</time>
      </trkpt>
      <trkpt lat="49.7335" lon="2.33282">
        <ele>70.2</ele>
        <time>2023-03-01T13:35:50Z</time>
      </trkpt>
      <trkpt lat="49.7335" lon="2.33282">
        <ele>70.2</ele>
        <time>2023-03-01T13:35:51Z</time>
      </trkpt>
      <trkpt lat="49.7335" lon="2.33282">
        <ele>70.2</ele>
        <time>2023-03-01T13:35:52Z</time>
      </trkpt>
      <trkpt lat="49.7335" lon="2.33282">
        <ele>70.2</ele>
        <time>2023-03-01T13:35:54Z</time>
      </trkpt>
      <trkpt lat="49.7335" lon="2.33282">
        <ele>70.2</ele>
        <time>2023-03-01T13:35:55Z</time>
      </trkpt>
      <trkpt lat="49.7335" lon="2.33282">
        <ele>70.2</ele>
        <time>2023-03-01T13:35:56Z</time>
      </trkpt>
      <trkpt lat="49.7335" lon="2.33282">
        <ele>70.2</ele>
        <time>2023-03-01T13:35:57Z</time>
      </trkpt>
      <trkpt lat="49.7335" lon="2.33282">
        <ele>70.2</ele>
        <time>2023-03-01T13:35:58Z</time>
      </trkpt>
      <trkpt lat="49.7335" lon="2.33282">
        <ele>70.2</ele>
        <time>2023-03-01T13:35:59Z</time>
      </trkpt>
      <trkpt lat="49.7335" lon="2.33282">
        <ele>70.2</ele>
        <time>2023-03-01T13:36:01Z</time>
      </trkpt>
      <trkpt lat="49.7335" lon="2.33282">
        <ele>70.2</ele>
        <time>2023-03-01T13:36:02Z</time>
      </trkpt>
      <trkpt lat="49.7335" lon="2.33282">
        <ele>70.2</ele>
        <time>2023-03-01T13:36:03Z</time>
      </trkpt>
      <trkpt lat="49.7335" lon="2.33282">
        <ele>70.2</ele>
        <time>2023-03-01T13:36:05Z</time>
      </trkpt>
      <trkpt lat="49.7335" lon="2.33282">
        <ele>70.2</ele>
        <time>2023-03-01T13:36:06Z</time>
      </trkpt>
      <trkpt lat="49.7335" lon="2.33282">
        <ele>70.2</ele>
        <time>2023-03-01T13:36:07Z</time>
      </trkpt>
      <trkpt lat="49.7335" lon="2.33282">
        <ele>70.2</ele>
        <time>2023-03-01T13:36:08Z</time>
      </trkpt>
      <trkpt lat="49.7335" lon="2.33281">
        <ele>70.2</ele>
        <time>2023-03-01T13:36:09Z</time>
      </trkpt>
      <trkpt lat="49.7335" lon="2.33281">
        <ele>70.2</ele>
        <time>2023-03-01T13:36:10Z</time>
      </trkpt>
      <trkpt lat="49.7335" lon="2.33281">
        <ele>70.2</ele>
        <time>2023-03-01T13:36:11Z</time>
      </trkpt>
      <trkpt lat="49.7335" lon="2.33281">
        <ele>70.2</ele>
        <time>2023-03-01T13:36:12Z</time>
      </trkpt>
      <trkpt lat="49.7335" lon="2.33281">
        <ele>70.2</ele>
        <time>2023-03-01T13:36:13Z</time>
      </trkpt>
      <trkpt lat="49.7335" lon="2.33281">
        <ele>70.2</ele>
        <time>2023-03-01T13:36:14Z</time>
      </trkpt>
      <trkpt lat="49.73349" lon="2.33281">
        <ele>70.2</ele>
        <time>2023-03-01T13:36:15Z</time>
      </trkpt>
      <trkpt lat="49.73349" lon="2.33281">
        <ele>70.2</ele>
        <time>2023-03-01T13:36:16Z</time>
      </trkpt>
      <trkpt lat="49.73349" lon="2.33281">
        <ele>70.2</ele>
        <time>2023-03-01T13:36:17Z</time>
      </trkpt>
      <trkpt lat="49.73349" lon="2.33281">
        <ele>70.2</ele>
        <time>2023-03-01T13:36:18Z</time>
      </trkpt>
      <trkpt lat="49.73349" lon="2.33281">
        <ele>70.2</ele>
        <time>2023-03-01T13:36:19Z</time>
      </trkpt>
      <trkpt lat="49.73349" lon="2.33281">
        <ele>70.2</ele>
        <time>2023-03-01T13:36:20Z</time>
      </trkpt>
      <trkpt lat="49.73349" lon="2.33281">
        <ele>70.2</ele>
        <time>2023-03-01T13:36:22Z</time>
      </trkpt>
      <trkpt lat="49.73349" lon="2.33281">
        <ele>70.2</ele>
        <time>2023-03-01T13:36:23Z</time>
      </trkpt>
      <trkpt lat="49.73349" lon="2.33281">
        <ele>70.2</ele>
        <time>2023-03-01T13:36:24Z</time>
      </trkpt>
      <trkpt lat="49.73349" lon="2.33281">
        <ele>70.2</ele>
        <time>2023-03-01T13:36:25Z</time>
      </trkpt>
      <trkpt lat="49.73349" lon="2.33281">
        <ele>70.2</ele>
        <time>2023-03-01T13:36:26Z</time>
      </trkpt>
      <trkpt lat="49.73349" lon="2.33281">
        <ele>70.2</ele>
        <time>2023-03-01T13:36:27Z</time>
      </trkpt>
      <trkpt lat="49.73349" lon="2.33281">
        <ele>70.2</ele>
        <time>2023-03-01T13:36:28Z</time>
      </trkpt>
      <trkpt lat="49.73349" lon="2.33281">
        <ele>70.2</ele>
        <time>2023-03-01T13:36:29Z</time>
      </trkpt>
      <trkpt lat="49.73349" lon="2.33281">
        <ele>70.2</ele>
        <time>2023-03-01T13:36:30Z</time>
      </trkpt>
      <trkpt lat="49.73349" lon="2.33281">
        <ele>70.2</ele>
        <time>2023-03-01T13:36:31Z</time>
      </trkpt>
      <trkpt lat="49.73349" lon="2.33281">
        <ele>70.2</ele>
        <time>2023-03-01T13:36:32Z</time>
      </trkpt>
      <trkpt lat="49.73349" lon="2.33281">
        <ele>70.2</ele>
        <time>2023-03-01T13:36:33Z</time>
      </trkpt>
      <trkpt lat="49.73349" lon="2.33281">
        <ele>70.2</ele>
        <time>2023-03-01T13:36:34Z</time>
      </trkpt>
      <trkpt lat="49.73349" lon="2.33281">
        <ele>70.2</ele>
        <time>2023-03-01T13:36:35Z</time>
      </trkpt>
      <trkpt lat="49.73349" lon="2.33281">
        <ele>70.2</ele>
        <time>2023-03-01T13:36:36Z</time>
      </trkpt>
      <trkpt lat="49.73349" lon="2.33281">
        <ele>70.2</ele>
        <time>2023-03-01T13:36:37Z</time>
      </trkpt>
      <trkpt lat="49.73349" lon="2.33281">
        <ele>70.2</ele>
        <time>2023-03-01T13:36:38Z</time>
      </trkpt>
      <trkpt lat="49.73349" lon="2.33281">
        <ele>70.2</ele>
        <time>2023-03-01T13:36:39Z</time>
      </trkpt>
      <trkpt lat="49.73349" lon="2.33281">
        <ele>70.2</ele>
        <time>2023-03-01T13:36:40Z</time>
      </trkpt>
      <trkpt lat="49.73349" lon="2.33281">
        <ele>70.2</ele>
        <time>2023-03-01T13:36:41Z</time>
      </trkpt>
      <trkpt lat="49.73349" lon="2.33281">
        <ele>70.2</ele>
        <time>2023-03-01T13:36:42Z</time>
      </trkpt>
      <trkpt lat="49.73349" lon="2.33281">
        <ele>70.2</ele>
        <time>2023-03-01T13:36:43Z</time>
      </trkpt>
      <trkpt lat="49.73349" lon="2.33281">
        <ele>70.2</ele>
        <time>2023-03-01T13:36:44Z</time>
      </trkpt>
      <trkpt lat="49.73348" lon="2.33278">
        <ele>70.3</ele>
        <time>2023-03-01T13:36:46Z</time>
      </trkpt>
      <trkpt lat="49.73349" lon="2.33277">
        <ele>70.3</ele>
        <time>2023-03-01T13:36:47Z</time>
      </trkpt>
      <trkpt lat="49.73349" lon="2.33275">
        <ele>70.3</ele>
        <time>2023-03-01T13:36:48Z</time>
      </trkpt>
      <trkpt lat="49.73349" lon="2.33274">
        <ele>70.3</ele>
        <time>2023-03-01T13:36:49Z</time>
      </trkpt>
      <trkpt lat="49.73351" lon="2.33271">
        <ele>70.3</ele>
        <time>2023-03-01T13:36:51Z</time>
      </trkpt>
      <trkpt lat="49.73352" lon="2.3327">
        <ele>70.3</ele>
        <time>2023-03-01T13:36:53Z</time>
      </trkpt>
      <trkpt lat="49.73353" lon="2.33267">
        <ele>70.2</ele>
        <time>2023-03-01T13:36:54Z</time>
      </trkpt>
      <trkpt lat="49.73354" lon="2.33266">
        <ele>70.2</ele>
        <time>2023-03-01T13:36:55Z</time>
      </trkpt>
      <trkpt lat="49.73355" lon="2.33265">
        <ele>70.2</ele>
        <time>2023-03-01T13:36:56Z</time>
      </trkpt>
      <trkpt lat="49.73356" lon="2.33264">
        <ele>70.2</ele>
        <time>2023-03-01T13:36:57Z</time>
      </trkpt>
      <trkpt lat="49.73357" lon="2.33263">
        <ele>70.2</ele>
        <time>2023-03-01T13:36:59Z</time>
      </trkpt>
      <trkpt lat="49.73359" lon="2.33261">
        <ele>70.1</ele>
        <time>2023-03-01T13:37:00Z</time>
      </trkpt>
      <trkpt lat="49.7336" lon="2.3326">
        <ele>70.1</ele>
        <time>2023-03-01T13:37:01Z</time>
      </trkpt>
      <trkpt lat="49.73361" lon="2.3326">
        <ele>70.1</ele>
        <time>2023-03-01T13:37:02Z</time>
      </trkpt>
      <trkpt lat="49.73362" lon="2.33259">
        <ele>70.1</ele>
        <time>2023-03-01T13:37:03Z</time>
      </trkpt>
      <trkpt lat="49.73364" lon="2.33258">
        <ele>70.1</ele>
        <time>2023-03-01T13:37:04Z</time>
      </trkpt>
      <trkpt lat="49.73365" lon="2.33258">
        <ele>70</ele>
        <time>2023-03-01T13:37:05Z</time>
      </trkpt>
      <trkpt lat="49.73367" lon="2.33257">
        <ele>70</ele>
        <time>2023-03-01T13:37:07Z</time>
      </trkpt>
      <trkpt lat="49.73368" lon="2.33257">
        <ele>70</ele>
        <time>2023-03-01T13:37:08Z</time>
      </trkpt>
      <trkpt lat="49.7337" lon="2.33256">
        <ele>70</ele>
        <time>2023-03-01T13:37:09Z</time>
      </trkpt>
      <trkpt lat="49.73372" lon="2.33256">
        <ele>69.9</ele>
        <time>2023-03-01T13:37:10Z</time>
      </trkpt>
      <trkpt lat="49.73373" lon="2.33255">
        <ele>69.9</ele>
        <time>2023-03-01T13:37:11Z</time>
      </trkpt>
      <trkpt lat="49.73374" lon="2.33254">
        <ele>69.9</ele>
        <time>2023-03-01T13:37:12Z</time>
      </trkpt>
      <trkpt lat="49.73376" lon="2.33254">
        <ele>69.9</ele>
        <time>2023-03-01T13:37:14Z</time>
      </trkpt>
      <trkpt lat="49.73377" lon="2.33253">
        <ele>69.9</ele>
        <time>2023-03-01T13:37:15Z</time>
      </trkpt>
      <trkpt lat="49.73378" lon="2.33253">
        <ele>69.9</ele>
        <time>2023-03-01T13:37:16Z</time>
      </trkpt>
      <trkpt lat="49.7338" lon="2.33252">
        <ele>69.9</ele>
        <time>2023-03-01T13:37:17Z</time>
      </trkpt>
      <trkpt lat="49.73381" lon="2.33252">
        <ele>69.8</ele>
        <time>2023-03-01T13:37:18Z</time>
      </trkpt>
      <trkpt lat="49.73384" lon="2.33252">
        <ele>69.8</ele>
        <time>2023-03-01T13:37:19Z</time>
      </trkpt>
      <trkpt lat="49.73384" lon="2.33252">
        <ele>69.8</ele>
        <time>2023-03-01T13:37:21Z</time>
      </trkpt>
      <trkpt lat="49.73385" lon="2.33252">
        <ele>69.8</ele>
        <time>2023-03-01T13:37:22Z</time>
      </trkpt>
      <trkpt lat="49.73386" lon="2.33251">
        <ele>69.8</ele>
        <time>2023-03-01T13:37:23Z</time>
      </trkpt>
      <trkpt lat="49.73388" lon="2.33251">
        <ele>69.8</ele>
        <time>2023-03-01T13:37:24Z</time>
      </trkpt>
      <trkpt lat="49.73389" lon="2.3325">
        <ele>69.8</ele>
        <time>2023-03-01T13:37:25Z</time>
      </trkpt>
      <trkpt lat="49.7339" lon="2.3325">
        <ele>69.8</ele>
        <time>2023-03-01T13:37:26Z</time>
      </trkpt>
      <trkpt lat="49.73391" lon="2.33249">
        <ele>69.8</ele>
        <time>2023-03-01T13:37:27Z</time>
      </trkpt>
      <trkpt lat="49.73392" lon="2.33249">
        <ele>69.8</ele>
        <time>2023-03-01T13:37:29Z</time>
      </trkpt>
      <trkpt lat="49.73393" lon="2.33248">
        <ele>69.7</ele>
        <time>2023-03-01T13:37:30Z</time>
      </trkpt>
      <trkpt lat="49.73394" lon="2.33248">
        <ele>69.7</ele>
        <time>2023-03-01T13:37:31Z</time>
      </trkpt>
      <trkpt lat="49.73395" lon="2.33247">
        <ele>69.7</ele>
        <time>2023-03-01T13:37:32Z</time>
      </trkpt>
      <trkpt lat="49.73396" lon="2.33247">
        <ele>69.7</ele>
        <time>2023-03-01T13:37:33Z</time>
      </trkpt>
      <trkpt lat="49.73398" lon="2.33246">
        <ele>69.7</ele>
        <time>2023-03-01T13:37:34Z</time>
      </trkpt>
      <trkpt lat="49.73399" lon="2.33245">
        <ele>69.7</ele>
        <time>2023-03-01T13:37:36Z</time>
      </trkpt>
      <trkpt lat="49.734" lon="2.33245">
        <ele>69.7</ele>
        <time>2023-03-01T13:37:37Z</time>
      </trkpt>
      <trkpt lat="49.73401" lon="2.33244">
        <ele>69.7</ele>
        <time>2023-03-01T13:37:38Z</time>
      </trkpt>
      <trkpt lat="49.73402" lon="2.33243">
        <ele>69.7</ele>
        <time>2023-03-01T13:37:39Z</time>
      </trkpt>
      <trkpt lat="49.73403" lon="2.33243">
        <ele>69.7</ele>
        <time>2023-03-01T13:37:40Z</time>
      </trkpt>
      <trkpt lat="49.73404" lon="2.33242">
        <ele>69.7</ele>
        <time>2023-03-01T13:37:41Z</time>
      </trkpt>
      <trkpt lat="49.73405" lon="2.33242">
        <ele>69.7</ele>
        <time>2023-03-01T13:37:42Z</time>
      </trkpt>
      <trkpt lat="49.73406" lon="2.33241">
        <ele>69.7</ele>
        <time>2023-03-01T13:37:43Z</time>
      </trkpt>
      <trkpt lat="49.73407" lon="2.33241">
        <ele>69.7</ele>
        <time>2023-03-01T13:37:45Z</time>
      </trkpt>
      <trkpt lat="49.73408" lon="2.3324">
        <ele>69.7</ele>
        <time>2023-03-01T13:37:46Z</time>
      </trkpt>
      <trkpt lat="49.73409" lon="2.3324">
        <ele>69.7</ele>
        <time>2023-03-01T13:37:47Z</time>
      </trkpt>
      <trkpt lat="49.7341" lon="2.33239">
        <ele>69.7</ele>
        <time>2023-03-01T13:37:48Z</time>
      </trkpt>
      <trkpt lat="49.73412" lon="2.33238">
        <ele>69.7</ele>
        <time>2023-03-01T13:37:49Z</time>
      </trkpt>
      <trkpt lat="49.73412" lon="2.33238">
        <ele>69.7</ele>
        <time>2023-03-01T13:37:50Z</time>
      </trkpt>
      <trkpt lat="49.73414" lon="2.33238">
        <ele>69.7</ele>
        <time>2023-03-01T13:37:51Z</time>
      </trkpt>
      <trkpt lat="49.73415" lon="2.33237">
        <ele>69.7</ele>
        <time>2023-03-01T13:37:52Z</time>
      </trkpt>
      <trkpt lat="49.73416" lon="2.33237">
        <ele>69.7</ele>
        <time>2023-03-01T13:37:54Z</time>
      </trkpt>
      <trkpt lat="49.73417" lon="2.33237">
        <ele>69.7</ele>
        <time>2023-03-01T13:37:55Z</time>
      </trkpt>
      <trkpt lat="49.73418" lon="2.33236">
        <ele>69.7</ele>
        <time>2023-03-01T13:37:56Z</time>
      </trkpt>
      <trkpt lat="49.73419" lon="2.33236">
        <ele>69.7</ele>
        <time>2023-03-01T13:37:57Z</time>
      </trkpt>
      <trkpt lat="49.7342" lon="2.33236">
        <ele>69.7</ele>
        <time>2023-03-01T13:37:58Z</time>
      </trkpt>
      <trkpt lat="49.73422" lon="2.33236">
        <ele>69.6</ele>
        <time>2023-03-01T13:37:59Z</time>
      </trkpt>
      <trkpt lat="49.73423" lon="2.33235">
        <ele>69.6</ele>
        <time>2023-03-01T13:38:00Z</time>
      </trkpt>
      <trkpt lat="49.73424" lon="2.33235">
        <ele>69.6</ele>
        <time>2023-03-01T13:38:02Z</time>
      </trkpt>
      <trkpt lat="49.73425" lon="2.33235">
        <ele>69.6</ele>
        <time>2023-03-01T13:38:03Z</time>
      </trkpt>
      <trkpt lat="49.73427" lon="2.33234">
        <ele>69.6</ele>
        <time>2023-03-01T13:38:04Z</time>
      </trkpt>
      <trkpt lat="49.73429" lon="2.33234">
        <ele>69.6</ele>
        <time>2023-03-01T13:38:05Z</time>
      </trkpt>
      <trkpt lat="49.7343" lon="2.33233">
        <ele>69.6</ele>
        <time>2023-03-01T13:38:06Z</time>
      </trkpt>
      <trkpt lat="49.73431" lon="2.33232">
        <ele>69.6</ele>
        <time>2023-03-01T13:38:07Z</time>
      </trkpt>
      <trkpt lat="49.73432" lon="2.33232">
        <ele>69.6</ele>
        <time>2023-03-01T13:38:08Z</time>
      </trkpt>
      <trkpt lat="49.73433" lon="2.3323">
        <ele>69.6</ele>
        <time>2023-03-01T13:38:09Z</time>
      </trkpt>
      <trkpt lat="49.73434" lon="2.33229">
        <ele>69.6</ele>
        <time>2023-03-01T13:38:10Z</time>
      </trkpt>
      <trkpt lat="49.73435" lon="2.33228">
        <ele>69.6</ele>
        <time>2023-03-01T13:38:12Z</time>
      </trkpt>
      <trkpt lat="49.73436" lon="2.33226">
        <ele>69.6</ele>
        <time>2023-03-01T13:38:13Z</time>
      </trkpt>
      <trkpt lat="49.73437" lon="2.33224">
        <ele>69.6</ele>
        <time>2023-03-01T13:38:14Z</time>
      </trkpt>
      <trkpt lat="49.73438" lon="2.33222">
        <ele>69.6</ele>
        <time>2023-03-01T13:38:15Z</time>
      </trkpt>
      <trkpt lat="49.73439" lon="2.33219">
        <ele>69.6</ele>
        <time>2023-03-01T13:38:16Z</time>
      </trkpt>
      <trkpt lat="49.73439" lon="2.33218">
        <ele>69.6</ele>
        <time>2023-03-01T13:38:17Z</time>
      </trkpt>
      <trkpt lat="49.7344" lon="2.33217">
        <ele>69.6</ele>
        <time>2023-03-01T13:38:18Z</time>
      </trkpt>
      <trkpt lat="49.7344" lon="2.33215">
        <ele>69.6</ele>
        <time>2023-03-01T13:38:19Z</time>
      </trkpt>
      <trkpt lat="49.73441" lon="2.33213">
        <ele>69.7</ele>
        <time>2023-03-01T13:38:20Z</time>
      </trkpt>
      <trkpt lat="49.73442" lon="2.33212">
        <ele>69.7</ele>
        <time>2023-03-01T13:38:21Z</time>
      </trkpt>
      <trkpt lat="49.73442" lon="2.3321">
        <ele>69.7</ele>
        <time>2023-03-01T13:38:22Z</time>
      </trkpt>
      <trkpt lat="49.73443" lon="2.33208">
        <ele>69.7</ele>
        <time>2023-03-01T13:38:24Z</time>
      </trkpt>
      <trkpt lat="49.73444" lon="2.33206">
        <ele>69.7</ele>
        <time>2023-03-01T13:38:25Z</time>
      </trkpt>
      <trkpt lat="49.73444" lon="2.33204">
        <ele>69.7</ele>
        <time>2023-03-01T13:38:26Z</time>
      </trkpt>
      <trkpt lat="49.73445" lon="2.33202">
        <ele>69.7</ele>
        <time>2023-03-01T13:38:27Z</time>
      </trkpt>
      <trkpt lat="49.73445" lon="2.332">
        <ele>69.7</ele>
        <time>2023-03-01T13:38:28Z</time>
      </trkpt>
      <trkpt lat="49.73445" lon="2.33199">
        <ele>69.7</ele>
        <time>2023-03-01T13:38:29Z</time>
      </trkpt>
      <trkpt lat="49.73446" lon="2.33196">
        <ele>69.7</ele>
        <time>2023-03-01T13:38:30Z</time>
      </trkpt>
      <trkpt lat="49.73446" lon="2.33195">
        <ele>69.7</ele>
        <time>2023-03-01T13:38:31Z</time>
      </trkpt>
      <trkpt lat="49.73446" lon="2.33193">
        <ele>69.7</ele>
        <time>2023-03-01T13:38:32Z</time>
      </trkpt>
      <trkpt lat="49.73446" lon="2.33192">
        <ele>69.7</ele>
        <time>2023-03-01T13:38:34Z</time>
      </trkpt>
      <trkpt lat="49.73446" lon="2.33189">
        <ele>69.7</ele>
        <time>2023-03-01T13:38:35Z</time>
      </trkpt>
      <trkpt lat="49.73446" lon="2.33188">
        <ele>69.7</ele>
        <time>2023-03-01T13:38:36Z</time>
      </trkpt>
      <trkpt lat="49.73447" lon="2.33186">
        <ele>69.8</ele>
        <time>2023-03-01T13:38:37Z</time>
      </trkpt>
      <trkpt lat="49.73447" lon="2.33184">
        <ele>69.8</ele>
        <time>2023-03-01T13:38:38Z</time>
      </trkpt>
      <trkpt lat="49.73447" lon="2.33183">
        <ele>69.8</ele>
        <time>2023-03-01T13:38:39Z</time>
      </trkpt>
      <trkpt lat="49.73447" lon="2.33181">
        <ele>69.8</ele>
        <time>2023-03-01T13:38:40Z</time>
      </trkpt>
      <trkpt lat="49.73448" lon="2.33179">
        <ele>69.8</ele>
        <time>2023-03-01T13:38:41Z</time>
      </trkpt>
      <trkpt lat="49.73448" lon="2.33176">
        <ele>69.8</ele>
        <time>2023-03-01T13:38:43Z</time>
      </trkpt>
      <trkpt lat="49.73449" lon="2.33175">
        <ele>69.8</ele>
        <time>2023-03-01T13:38:44Z</time>
      </trkpt>
      <trkpt lat="49.73449" lon="2.33173">
        <ele>69.8</ele>
        <time>2023-03-01T13:38:45Z</time>
      </trkpt>
      <trkpt lat="49.73449" lon="2.3317">
        <ele>69.9</ele>
        <time>2023-03-01T13:38:46Z</time>
      </trkpt>
      <trkpt lat="49.7345" lon="2.33169">
        <ele>69.9</ele>
        <time>2023-03-01T13:38:47Z</time>
      </trkpt>
      <trkpt lat="49.7345" lon="2.33168">
        <ele>69.9</ele>
        <time>2023-03-01T13:38:48Z</time>
      </trkpt>
      <trkpt lat="49.7345" lon="2.33166">
        <ele>69.9</ele>
        <time>2023-03-01T13:38:50Z</time>
      </trkpt>
      <trkpt lat="49.7345" lon="2.33164">
        <ele>69.9</ele>
        <time>2023-03-01T13:38:51Z</time>
      </trkpt>
      <trkpt lat="49.7345" lon="2.33163">
        <ele>69.9</ele>
        <time>2023-03-01T13:38:52Z</time>
      </trkpt>
      <trkpt lat="49.73451" lon="2.33161">
        <ele>70</ele>
        <time>2023-03-01T13:38:53Z</time>
      </trkpt>
      <trkpt lat="49.73451" lon="2.33158">
        <ele>70</ele>
        <time>2023-03-01T13:38:54Z</time>
      </trkpt>
      <trkpt lat="49.73451" lon="2.33156">
        <ele>70</ele>
        <time>2023-03-01T13:38:55Z</time>
      </trkpt>
      <trkpt lat="49.73452" lon="2.33154">
        <ele>70</ele>
        <time>2023-03-01T13:38:56Z</time>
      </trkpt>
      <trkpt lat="49.73452" lon="2.33152">
        <ele>70</ele>
        <time>2023-03-01T13:38:57Z</time>
      </trkpt>
      <trkpt lat="49.73452" lon="2.3315">
        <ele>70.1</ele>
        <time>2023-03-01T13:38:58Z</time>
      </trkpt>
      <trkpt lat="49.73453" lon="2.33146">
        <ele>70.1</ele>
        <time>2023-03-01T13:38:59Z</time>
      </trkpt>
      <trkpt lat="49.73453" lon="2.33144">
        <ele>70.1</ele>
        <time>2023-03-01T13:39:01Z</time>
      </trkpt>
      <trkpt lat="49.73454" lon="2.33143">
        <ele>70.2</ele>
        <time>2023-03-01T13:39:02Z</time>
      </trkpt>
      <trkpt lat="49.73454" lon="2.33142">
        <ele>70.2</ele>
        <time>2023-03-01T13:39:03Z</time>
      </trkpt>
      <trkpt lat="49.73455" lon="2.3314">
        <ele>70.2</ele>
        <time>2023-03-01T13:39:04Z</time>
      </trkpt>
      <trkpt lat="49.73455" lon="2.33138">
        <ele>70.2</ele>
        <time>2023-03-01T13:39:05Z</time>
      </trkpt>
      <trkpt lat="49.73456" lon="2.33136">
        <ele>70.2</ele>
        <time>2023-03-01T13:39:06Z</time>
      </trkpt>
      <trkpt lat="49.73456" lon="2.33133">
        <ele>70.3</ele>
        <time>2023-03-01T13:39:07Z</time>
      </trkpt>
      <trkpt lat="49.73457" lon="2.33131">
        <ele>70.3</ele>
        <time>2023-03-01T13:39:09Z</time>
      </trkpt>
      <trkpt lat="49.73457" lon="2.3313">
        <ele>70.3</ele>
        <time>2023-03-01T13:39:10Z</time>
      </trkpt>
      <trkpt lat="49.73457" lon="2.33128">
        <ele>70.4</ele>
        <time>2023-03-01T13:39:11Z</time>
      </trkpt>
      <trkpt lat="49.73458" lon="2.33127">
        <ele>70.4</ele>
        <time>2023-03-01T13:39:12Z</time>
      </trkpt>
      <trkpt lat="49.73458" lon="2.33125">
        <ele>70.4</ele>
        <time>2023-03-01T13:39:13Z</time>
      </trkpt>
      <trkpt lat="49.73459" lon="2.33124">
        <ele>70.4</ele>
        <time>2023-03-01T13:39:14Z</time>
      </trkpt>
      <trkpt lat="49.7346" lon="2.33122">
        <ele>70.5</ele>
        <time>2023-03-01T13:39:15Z</time>
      </trkpt>
      <trkpt lat="49.73461" lon="2.3312">
        <ele>70.5</ele>
        <time>2023-03-01T13:39:17Z</time>
      </trkpt>
      <trkpt lat="49.73462" lon="2.33118">
        <ele>70.6</ele>
        <time>2023-03-01T13:39:18Z</time>
      </trkpt>
      <trkpt lat="49.73463" lon="2.33117">
        <ele>70.6</ele>
        <time>2023-03-01T13:39:19Z</time>
      </trkpt>
      <trkpt lat="49.73464" lon="2.33116">
        <ele>70.6</ele>
        <time>2023-03-01T13:39:20Z</time>
      </trkpt>
      <trkpt lat="49.73464" lon="2.33115">
        <ele>70.7</ele>
        <time>2023-03-01T13:39:21Z</time>
      </trkpt>
      <trkpt lat="49.73465" lon="2.33114">
        <ele>70.7</ele>
        <time>2023-03-01T13:39:23Z</time>
      </trkpt>
      <trkpt lat="49.73466" lon="2.33112">
        <ele>70.7</ele>
        <time>2023-03-01T13:39:24Z</time>
      </trkpt>
      <trkpt lat="49.73468" lon="2.3311">
        <ele>70.8</ele>
        <time>2023-03-01T13:39:25Z</time>
      </trkpt>
      <trkpt lat="49.73468" lon="2.3311">
        <ele>70.8</ele>
        <time>2023-03-01T13:39:26Z</time>
      </trkpt>
      <trkpt lat="49.73469" lon="2.33109">
        <ele>70.9</ele>
        <time>2023-03-01T13:39:27Z</time>
      </trkpt>
      <trkpt lat="49.7347" lon="2.33108">
        <ele>70.9</ele>
        <time>2023-03-01T13:39:28Z</time>
      </trkpt>
      <trkpt lat="49.73472" lon="2.33107">
        <ele>70.9</ele>
        <time>2023-03-01T13:39:29Z</time>
      </trkpt>
      <trkpt lat="49.73473" lon="2.33106">
        <ele>71</ele>
        <time>2023-03-01T13:39:31Z</time>
      </trkpt>
      <trkpt lat="49.73474" lon="2.33105">
        <ele>71</ele>
        <time>2023-03-01T13:39:32Z</time>
      </trkpt>
      <trkpt lat="49.73476" lon="2.33104">
        <ele>71.1</ele>
        <time>2023-03-01T13:39:33Z</time>
      </trkpt>
      <trkpt lat="49.73477" lon="2.33103">
        <ele>71.1</ele>
        <time>2023-03-01T13:39:34Z</time>
      </trkpt>
      <trkpt lat="49.73478" lon="2.33102">
        <ele>71.2</ele>
        <time>2023-03-01T13:39:35Z</time>
      </trkpt>
      <trkpt lat="49.73478" lon="2.33102">
        <ele>71.2</ele>
        <time>2023-03-01T13:39:36Z</time>
      </trkpt>
      <trkpt lat="49.73479" lon="2.33101">
        <ele>71.2</ele>
        <time>2023-03-01T13:39:38Z</time>
      </trkpt>
      <trkpt lat="49.7348" lon="2.331">
        <ele>71.3</ele>
        <time>2023-03-01T13:39:39Z</time>
      </trkpt>
      <trkpt lat="49.73482" lon="2.33098">
        <ele>71.4</ele>
        <time>2023-03-01T13:39:40Z</time>
      </trkpt>
      <trkpt lat="49.73483" lon="2.33097">
        <ele>71.4</ele>
        <time>2023-03-01T13:39:41Z</time>
      </trkpt>
      <trkpt lat="49.73483" lon="2.33096">
        <ele>71.4</ele>
        <time>2023-03-01T13:39:42Z</time>
      </trkpt>
      <trkpt lat="49.73484" lon="2.33095">
        <ele>71.4</ele>
        <time>2023-03-01T13:39:43Z</time>
      </trkpt>
      <trkpt lat="49.73485" lon="2.33095">
        <ele>71.5</ele>
        <time>2023-03-01T13:39:44Z</time>
      </trkpt>
      <trkpt lat="49.73486" lon="2.33093">
        <ele>71.5</ele>
        <time>2023-03-01T13:39:46Z</time>
      </trkpt>
      <trkpt lat="49.73487" lon="2.33092">
        <ele>71.5</ele>
        <time>2023-03-01T13:39:47Z</time>
      </trkpt>
      <trkpt lat="49.73488" lon="2.33091">
        <ele>71.6</ele>
        <time>2023-03-01T13:39:48Z</time>
      </trkpt>
      <trkpt lat="49.73489" lon="2.3309">
        <ele>71.6</ele>
        <time>2023-03-01T13:39:49Z</time>
      </trkpt>
      <trkpt lat="49.7349" lon="2.33089">
        <ele>71.7</ele>
        <time>2023-03-01T13:39:50Z</time>
      </trkpt>
      <trkpt lat="49.7349" lon="2.33088">
        <ele>71.7</ele>
        <time>2023-03-01T13:39:51Z</time>
      </trkpt>
      <trkpt lat="49.73491" lon="2.33086">
        <ele>71.7</ele>
        <time>2023-03-01T13:39:52Z</time>
      </trkpt>
      <trkpt lat="49.73492" lon="2.33085">
        <ele>71.8</ele>
        <time>2023-03-01T13:39:54Z</time>
      </trkpt>
      <trkpt lat="49.73493" lon="2.33082">
        <ele>71.8</ele>
        <time>2023-03-01T13:39:55Z</time>
      </trkpt>
      <trkpt lat="49.73493" lon="2.33081">
        <ele>71.9</ele>
        <time>2023-03-01T13:39:56Z</time>
      </trkpt>
      <trkpt lat="49.73494" lon="2.3308">
        <ele>71.9</ele>
        <time>2023-03-01T13:39:57Z</time>
      </trkpt>
      <trkpt lat="49.73495" lon="2.33078">
        <ele>71.9</ele>
        <time>2023-03-01T13:39:58Z</time>
      </trkpt>
      <trkpt lat="49.73495" lon="2.33077">
        <ele>72</ele>
        <time>2023-03-01T13:39:59Z</time>
      </trkpt>
      <trkpt lat="49.73496" lon="2.33075">
        <ele>72</ele>
        <time>2023-03-01T13:40:00Z</time>
      </trkpt>
      <trkpt lat="49.73497" lon="2.33074">
        <ele>72</ele>
        <time>2023-03-01T13:40:02Z</time>
      </trkpt>
      <trkpt lat="49.73498" lon="2.33072">
        <ele>72.1</ele>
        <time>2023-03-01T13:40:03Z</time>
      </trkpt>
      <trkpt lat="49.73499" lon="2.3307">
        <ele>72.1</ele>
        <time>2023-03-01T13:40:04Z</time>
      </trkpt>
      <trkpt lat="49.735" lon="2.33069">
        <ele>72.1</ele>
        <time>2023-03-01T13:40:05Z</time>
      </trkpt>
      <trkpt lat="49.735" lon="2.33068">
        <ele>72.2</ele>
        <time>2023-03-01T13:40:06Z</time>
      </trkpt>
      <trkpt lat="49.73501" lon="2.33067">
        <ele>72.2</ele>
        <time>2023-03-01T13:40:07Z</time>
      </trkpt>
      <trkpt lat="49.73502" lon="2.33066">
        <ele>72.2</ele>
        <time>2023-03-01T13:40:08Z</time>
      </trkpt>
      <trkpt lat="49.73503" lon="2.33064">
        <ele>72.3</ele>
        <time>2023-03-01T13:40:10Z</time>
      </trkpt>
      <trkpt lat="49.73504" lon="2.33063">
        <ele>72.3</ele>
        <time>2023-03-01T13:40:11Z</time>
      </trkpt>
      <trkpt lat="49.73505" lon="2.3306">
        <ele>72.3</ele>
        <time>2023-03-01T13:40:12Z</time>
      </trkpt>
      <trkpt lat="49.73506" lon="2.33059">
        <ele>72.3</ele>
        <time>2023-03-01T13:40:13Z</time>
      </trkpt>
      <trkpt lat="49.73506" lon="2.33058">
        <ele>72.4</ele>
        <time>2023-03-01T13:40:14Z</time>
      </trkpt>
      <trkpt lat="49.73508" lon="2.33056">
        <ele>72.4</ele>
        <time>2023-03-01T13:40:15Z</time>
      </trkpt>
      <trkpt lat="49.73508" lon="2.33055">
        <ele>72.4</ele>
        <time>2023-03-01T13:40:16Z</time>
      </trkpt>
      <trkpt lat="49.73509" lon="2.33054">
        <ele>72.4</ele>
        <time>2023-03-01T13:40:17Z</time>
      </trkpt>
      <trkpt lat="49.7351" lon="2.33051">
        <ele>72.5</ele>
        <time>2023-03-01T13:40:18Z</time>
      </trkpt>
      <trkpt lat="49.73511" lon="2.33049">
        <ele>72.5</ele>
        <time>2023-03-01T13:40:20Z</time>
      </trkpt>
      <trkpt lat="49.73511" lon="2.33048">
        <ele>72.5</ele>
        <time>2023-03-01T13:40:21Z</time>
      </trkpt>
      <trkpt lat="49.73512" lon="2.33046">
        <ele>72.5</ele>
        <time>2023-03-01T13:40:22Z</time>
      </trkpt>
      <trkpt lat="49.73513" lon="2.33043">
        <ele>72.5</ele>
        <time>2023-03-01T13:40:23Z</time>
      </trkpt>
      <trkpt lat="49.73513" lon="2.33041">
        <ele>72.5</ele>
        <time>2023-03-01T13:40:24Z</time>
      </trkpt>
      <trkpt lat="49.73514" lon="2.33039">
        <ele>72.5</ele>
        <time>2023-03-01T13:40:25Z</time>
      </trkpt>
      <trkpt lat="49.73514" lon="2.33037">
        <ele>72.5</ele>
        <time>2023-03-01T13:40:26Z</time>
      </trkpt>
      <trkpt lat="49.73514" lon="2.33036">
        <ele>72.5</ele>
        <time>2023-03-01T13:40:27Z</time>
      </trkpt>
      <trkpt lat="49.73515" lon="2.33033">
        <ele>72.5</ele>
        <time>2023-03-01T13:40:29Z</time>
      </trkpt>
      <trkpt lat="49.73515" lon="2.33032">
        <ele>72.5</ele>
        <time>2023-03-01T13:40:30Z</time>
      </trkpt>
      <trkpt lat="49.73516" lon="2.33029">
        <ele>72.5</ele>
        <time>2023-03-01T13:40:31Z</time>
      </trkpt>
      <trkpt lat="49.73516" lon="2.33026">
        <ele>72.5</ele>
        <time>2023-03-01T13:40:32Z</time>
      </trkpt>
      <trkpt lat="49.73517" lon="2.33025">
        <ele>72.5</ele>
        <time>2023-03-01T13:40:33Z</time>
      </trkpt>
      <trkpt lat="49.73517" lon="2.33024">
        <ele>72.5</ele>
        <time>2023-03-01T13:40:34Z</time>
      </trkpt>
      <trkpt lat="49.73517" lon="2.33022">
        <ele>72.5</ele>
        <time>2023-03-01T13:40:36Z</time>
      </trkpt>
      <trkpt lat="49.73517" lon="2.33021">
        <ele>72.5</ele>
        <time>2023-03-01T13:40:37Z</time>
      </trkpt>
      <trkpt lat="49.73517" lon="2.33019">
        <ele>72.5</ele>
        <time>2023-03-01T13:40:38Z</time>
      </trkpt>
      <trkpt lat="49.73518" lon="2.33017">
        <ele>72.5</ele>
        <time>2023-03-01T13:40:39Z</time>
      </trkpt>
      <trkpt lat="49.73518" lon="2.33015">
        <ele>72.5</ele>
        <time>2023-03-01T13:40:40Z</time>
      </trkpt>
      <trkpt lat="49.73518" lon="2.33014">
        <ele>72.5</ele>
        <time>2023-03-01T13:40:41Z</time>
      </trkpt>
      <trkpt lat="49.73519" lon="2.33012">
        <ele>72.5</ele>
        <time>2023-03-01T13:40:42Z</time>
      </trkpt>
      <trkpt lat="49.73519" lon="2.33011">
        <ele>72.5</ele>
        <time>2023-03-01T13:40:44Z</time>
      </trkpt>
      <trkpt lat="49.7352" lon="2.33009">
        <ele>72.4</ele>
        <time>2023-03-01T13:40:45Z</time>
      </trkpt>
      <trkpt lat="49.7352" lon="2.33007">
        <ele>72.4</ele>
        <time>2023-03-01T13:40:46Z</time>
      </trkpt>
      <trkpt lat="49.73521" lon="2.33006">
        <ele>72.4</ele>
        <time>2023-03-01T13:40:47Z</time>
      </trkpt>
      <trkpt lat="49.73521" lon="2.33002">
        <ele>72.4</ele>
        <time>2023-03-01T13:40:48Z</time>
      </trkpt>
      <trkpt lat="49.73522" lon="2.33">
        <ele>72.4</ele>
        <time>2023-03-01T13:40:49Z</time>
      </trkpt>
      <trkpt lat="49.73522" lon="2.32999">
        <ele>72.4</ele>
        <time>2023-03-01T13:40:50Z</time>
      </trkpt>
      <trkpt lat="49.73522" lon="2.32997">
        <ele>72.3</ele>
        <time>2023-03-01T13:40:51Z</time>
      </trkpt>
      <trkpt lat="49.73522" lon="2.32995">
        <ele>72.3</ele>
        <time>2023-03-01T13:40:52Z</time>
      </trkpt>
      <trkpt lat="49.73523" lon="2.32993">
        <ele>72.3</ele>
        <time>2023-03-01T13:40:54Z</time>
      </trkpt>
      <trkpt lat="49.73523" lon="2.32991">
        <ele>72.3</ele>
        <time>2023-03-01T13:40:55Z</time>
      </trkpt>
      <trkpt lat="49.73523" lon="2.32988">
        <ele>72.2</ele>
        <time>2023-03-01T13:40:56Z</time>
      </trkpt>
      <trkpt lat="49.73523" lon="2.32985">
        <ele>72.2</ele>
        <time>2023-03-01T13:40:57Z</time>
      </trkpt>
      <trkpt lat="49.73524" lon="2.32984">
        <ele>72.2</ele>
        <time>2023-03-01T13:40:58Z</time>
      </trkpt>
      <trkpt lat="49.73524" lon="2.32982">
        <ele>72.1</ele>
        <time>2023-03-01T13:40:59Z</time>
      </trkpt>
      <trkpt lat="49.73524" lon="2.3298">
        <ele>72.1</ele>
        <time>2023-03-01T13:41:00Z</time>
      </trkpt>
      <trkpt lat="49.73524" lon="2.32978">
        <ele>72.1</ele>
        <time>2023-03-01T13:41:01Z</time>
      </trkpt>
      <trkpt lat="49.73524" lon="2.32976">
        <ele>72.1</ele>
        <time>2023-03-01T13:41:02Z</time>
      </trkpt>
      <trkpt lat="49.73525" lon="2.32974">
        <ele>72</ele>
        <time>2023-03-01T13:41:04Z</time>
      </trkpt>
      <trkpt lat="49.73525" lon="2.32971">
        <ele>72</ele>
        <time>2023-03-01T13:41:05Z</time>
      </trkpt>
      <trkpt lat="49.73525" lon="2.32969">
        <ele>72</ele>
        <time>2023-03-01T13:41:06Z</time>
      </trkpt>
      <trkpt lat="49.73525" lon="2.32966">
        <ele>71.9</ele>
        <time>2023-03-01T13:41:07Z</time>
      </trkpt>
      <trkpt lat="49.73526" lon="2.32964">
        <ele>71.9</ele>
        <time>2023-03-01T13:41:08Z</time>
      </trkpt>
      <trkpt lat="49.73526" lon="2.32963">
        <ele>71.9</ele>
        <time>2023-03-01T13:41:09Z</time>
      </trkpt>
      <trkpt lat="49.73526" lon="2.3296">
        <ele>71.9</ele>
        <time>2023-03-01T13:41:10Z</time>
      </trkpt>
      <trkpt lat="49.73526" lon="2.3296">
        <ele>71.9</ele>
        <time>2023-03-01T13:41:12Z</time>
      </trkpt>
      <trkpt lat="49.73527" lon="2.32958">
        <ele>71.9</ele>
        <time>2023-03-01T13:41:13Z</time>
      </trkpt>
      <trkpt lat="49.73528" lon="2.32955">
        <ele>71.8</ele>
        <time>2023-03-01T13:41:14Z</time>
      </trkpt>
      <trkpt lat="49.73528" lon="2.32953">
        <ele>71.8</ele>
        <time>2023-03-01T13:41:15Z</time>
      </trkpt>
      <trkpt lat="49.73529" lon="2.32952">
        <ele>71.8</ele>
        <time>2023-03-01T13:41:16Z</time>
      </trkpt>
      <trkpt lat="49.73529" lon="2.32951">
        <ele>71.8</ele>
        <time>2023-03-01T13:41:17Z</time>
      </trkpt>
      <trkpt lat="49.7353" lon="2.32949">
        <ele>71.8</ele>
        <time>2023-03-01T13:41:18Z</time>
      </trkpt>
      <trkpt lat="49.7353" lon="2.32947">
        <ele>71.8</ele>
        <time>2023-03-01T13:41:19Z</time>
      </trkpt>
      <trkpt lat="49.73531" lon="2.32945">
        <ele>71.8</ele>
        <time>2023-03-01T13:41:20Z</time>
      </trkpt>
      <trkpt lat="49.73531" lon="2.32944">
        <ele>71.8</ele>
        <time>2023-03-01T13:41:22Z</time>
      </trkpt>
      <trkpt lat="49.73531" lon="2.32942">
        <ele>71.8</ele>
        <time>2023-03-01T13:41:23Z</time>
      </trkpt>
      <trkpt lat="49.73531" lon="2.32939">
        <ele>71.8</ele>
        <time>2023-03-01T13:41:24Z</time>
      </trkpt>
      <trkpt lat="49.73532" lon="2.32937">
        <ele>71.8</ele>
        <time>2023-03-01T13:41:25Z</time>
      </trkpt>
      <trkpt lat="49.73532" lon="2.32936">
        <ele>71.8</ele>
        <time>2023-03-01T13:41:26Z</time>
      </trkpt>
      <trkpt lat="49.73532" lon="2.32934">
        <ele>71.8</ele>
        <time>2023-03-01T13:41:27Z</time>
      </trkpt>
      <trkpt lat="49.73532" lon="2.32933">
        <ele>71.8</ele>
        <time>2023-03-01T13:41:28Z</time>
      </trkpt>
      <trkpt lat="49.73533" lon="2.32931">
        <ele>71.8</ele>
        <time>2023-03-01T13:41:30Z</time>
      </trkpt>
      <trkpt lat="49.73533" lon="2.32929">
        <ele>71.8</ele>
        <time>2023-03-01T13:41:31Z</time>
      </trkpt>
      <trkpt lat="49.73534" lon="2.32927">
        <ele>71.8</ele>
        <time>2023-03-01T13:41:32Z</time>
      </trkpt>
      <trkpt lat="49.73534" lon="2.32926">
        <ele>71.8</ele>
        <time>2023-03-01T13:41:33Z</time>
      </trkpt>
      <trkpt lat="49.73535" lon="2.32924">
        <ele>71.8</ele>
        <time>2023-03-01T13:41:34Z</time>
      </trkpt>
      <trkpt lat="49.73535" lon="2.32922">
        <ele>71.8</ele>
        <time>2023-03-01T13:41:35Z</time>
      </trkpt>
      <trkpt lat="49.73535" lon="2.32921">
        <ele>71.8</ele>
        <time>2023-03-01T13:41:36Z</time>
      </trkpt>
      <trkpt lat="49.73536" lon="2.32919">
        <ele>71.8</ele>
        <time>2023-03-01T13:41:38Z</time>
      </trkpt>
      <trkpt lat="49.73536" lon="2.32918">
        <ele>71.8</ele>
        <time>2023-03-01T13:41:39Z</time>
      </trkpt>
      <trkpt lat="49.73537" lon="2.32916">
        <ele>71.8</ele>
        <time>2023-03-01T13:41:40Z</time>
      </trkpt>
      <trkpt lat="49.73538" lon="2.32914">
        <ele>71.8</ele>
        <time>2023-03-01T13:41:41Z</time>
      </trkpt>
      <trkpt lat="49.73538" lon="2.32913">
        <ele>71.8</ele>
        <time>2023-03-01T13:41:42Z</time>
      </trkpt>
      <trkpt lat="49.73538" lon="2.32911">
        <ele>71.8</ele>
        <time>2023-03-01T13:41:43Z</time>
      </trkpt>
      <trkpt lat="49.73539" lon="2.3291">
        <ele>71.8</ele>
        <time>2023-03-01T13:41:44Z</time>
      </trkpt>
      <trkpt lat="49.73539" lon="2.32907">
        <ele>71.8</ele>
        <time>2023-03-01T13:41:46Z</time>
      </trkpt>
      <trkpt lat="49.73539" lon="2.32906">
        <ele>71.8</ele>
        <time>2023-03-01T13:41:47Z</time>
      </trkpt>
      <trkpt lat="49.7354" lon="2.32905">
        <ele>71.8</ele>
        <time>2023-03-01T13:41:48Z</time>
      </trkpt>
      <trkpt lat="49.7354" lon="2.32903">
        <ele>71.8</ele>
        <time>2023-03-01T13:41:49Z</time>
      </trkpt>
      <trkpt lat="49.7354" lon="2.32901">
        <ele>71.8</ele>
        <time>2023-03-01T13:41:50Z</time>
      </trkpt>
      <trkpt lat="49.73541" lon="2.32899">
        <ele>71.8</ele>
        <time>2023-03-01T13:41:51Z</time>
      </trkpt>
      <trkpt lat="49.73541" lon="2.32897">
        <ele>71.8</ele>
        <time>2023-03-01T13:41:52Z</time>
      </trkpt>
      <trkpt lat="49.73541" lon="2.32895">
        <ele>71.8</ele>
        <time>2023-03-01T13:41:53Z</time>
      </trkpt>
      <trkpt lat="49.73542" lon="2.32893">
        <ele>71.8</ele>
        <time>2023-03-01T13:41:55Z</time>
      </trkpt>
      <trkpt lat="49.73542" lon="2.3289">
        <ele>71.9</ele>
        <time>2023-03-01T13:41:56Z</time>
      </trkpt>
      <trkpt lat="49.73543" lon="2.32889">
        <ele>71.9</ele>
        <time>2023-03-01T13:41:57Z</time>
      </trkpt>
      <trkpt lat="49.73543" lon="2.32887">
        <ele>71.9</ele>
        <time>2023-03-01T13:41:58Z</time>
      </trkpt>
      <trkpt lat="49.73544" lon="2.32885">
        <ele>71.9</ele>
        <time>2023-03-01T13:41:59Z</time>
      </trkpt>
      <trkpt lat="49.73544" lon="2.32884">
        <ele>71.9</ele>
        <time>2023-03-01T13:42:00Z</time>
      </trkpt>
      <trkpt lat="49.73544" lon="2.32881">
        <ele>71.9</ele>
        <time>2023-03-01T13:42:01Z</time>
      </trkpt>
      <trkpt lat="49.73545" lon="2.3288">
        <ele>72</ele>
        <time>2023-03-01T13:42:02Z</time>
      </trkpt>
      <trkpt lat="49.73545" lon="2.32878">
        <ele>72</ele>
        <time>2023-03-01T13:42:04Z</time>
      </trkpt>
      <trkpt lat="49.73546" lon="2.32877">
        <ele>72</ele>
        <time>2023-03-01T13:42:05Z</time>
      </trkpt>
      <trkpt lat="49.73547" lon="2.32874">
        <ele>72</ele>
        <time>2023-03-01T13:42:06Z</time>
      </trkpt>
      <trkpt lat="49.73547" lon="2.32873">
        <ele>72.1</ele>
        <time>2023-03-01T13:42:07Z</time>
      </trkpt>
      <trkpt lat="49.73548" lon="2.32872">
        <ele>72.1</ele>
        <time>2023-03-01T13:42:08Z</time>
      </trkpt>
      <trkpt lat="49.73548" lon="2.32871">
        <ele>72.1</ele>
        <time>2023-03-01T13:42:09Z</time>
      </trkpt>
      <trkpt lat="49.73549" lon="2.32869">
        <ele>72.1</ele>
        <time>2023-03-01T13:42:10Z</time>
      </trkpt>
      <trkpt lat="49.7355" lon="2.32867">
        <ele>72.1</ele>
        <time>2023-03-01T13:42:11Z</time>
      </trkpt>
      <trkpt lat="49.7355" lon="2.32866">
        <ele>72.1</ele>
        <time>2023-03-01T13:42:12Z</time>
      </trkpt>
      <trkpt lat="49.7355" lon="2.32863">
        <ele>72.2</ele>
        <time>2023-03-01T13:42:14Z</time>
      </trkpt>
      <trkpt lat="49.73551" lon="2.32862">
        <ele>72.2</ele>
        <time>2023-03-01T13:42:15Z</time>
      </trkpt>
      <trkpt lat="49.73551" lon="2.3286">
        <ele>72.2</ele>
        <time>2023-03-01T13:42:16Z</time>
      </trkpt>
      <trkpt lat="49.73551" lon="2.32859">
        <ele>72.2</ele>
        <time>2023-03-01T13:42:17Z</time>
      </trkpt>
      <trkpt lat="49.73551" lon="2.32857">
        <ele>72.3</ele>
        <time>2023-03-01T13:42:18Z</time>
      </trkpt>
      <trkpt lat="49.73551" lon="2.32855">
        <ele>72.3</ele>
        <time>2023-03-01T13:42:19Z</time>
      </trkpt>
      <trkpt lat="49.73552" lon="2.32853">
        <ele>72.3</ele>
        <time>2023-03-01T13:42:20Z</time>
      </trkpt>
      <trkpt lat="49.73552" lon="2.3285">
        <ele>72.3</ele>
        <time>2023-03-01T13:42:21Z</time>
      </trkpt>
      <trkpt lat="49.73552" lon="2.32849">
        <ele>72.4</ele>
        <time>2023-03-01T13:42:22Z</time>
      </trkpt>
      <trkpt lat="49.73552" lon="2.32847">
        <ele>72.4</ele>
        <time>2023-03-01T13:42:24Z</time>
      </trkpt>
      <trkpt lat="49.73552" lon="2.32845">
        <ele>72.4</ele>
        <time>2023-03-01T13:42:25Z</time>
      </trkpt>
      <trkpt lat="49.73552" lon="2.32842">
        <ele>72.4</ele>
        <time>2023-03-01T13:42:26Z</time>
      </trkpt>
      <trkpt lat="49.73553" lon="2.3284">
        <ele>72.4</ele>
        <time>2023-03-01T13:42:27Z</time>
      </trkpt>
      <trkpt lat="49.73553" lon="2.32839">
        <ele>72.5</ele>
        <time>2023-03-01T13:42:28Z</time>
      </trkpt>
      <trkpt lat="49.73553" lon="2.32837">
        <ele>72.5</ele>
        <time>2023-03-01T13:42:29Z</time>
      </trkpt>
      <trkpt lat="49.73553" lon="2.32835">
        <ele>72.5</ele>
        <time>2023-03-01T13:42:30Z</time>
      </trkpt>
      <trkpt lat="49.73553" lon="2.32832">
        <ele>72.5</ele>
        <time>2023-03-01T13:42:31Z</time>
      </trkpt>
      <trkpt lat="49.73553" lon="2.32831">
        <ele>72.5</ele>
        <time>2023-03-01T13:42:32Z</time>
      </trkpt>
      <trkpt lat="49.73553" lon="2.3283">
        <ele>72.6</ele>
        <time>2023-03-01T13:42:33Z</time>
      </trkpt>
      <trkpt lat="49.73553" lon="2.32828">
        <ele>72.6</ele>
        <time>2023-03-01T13:42:35Z</time>
      </trkpt>
      <trkpt lat="49.73553" lon="2.32825">
        <ele>72.6</ele>
        <time>2023-03-01T13:42:36Z</time>
      </trkpt>
      <trkpt lat="49.73553" lon="2.32824">
        <ele>72.6</ele>
        <time>2023-03-01T13:42:37Z</time>
      </trkpt>
      <trkpt lat="49.73554" lon="2.32822">
        <ele>72.6</ele>
        <time>2023-03-01T13:42:38Z</time>
      </trkpt>
      <trkpt lat="49.73554" lon="2.3282">
        <ele>72.6</ele>
        <time>2023-03-01T13:42:39Z</time>
      </trkpt>
      <trkpt lat="49.73554" lon="2.32818">
        <ele>72.7</ele>
        <time>2023-03-01T13:42:40Z</time>
      </trkpt>
      <trkpt lat="49.73554" lon="2.32816">
        <ele>72.7</ele>
        <time>2023-03-01T13:42:41Z</time>
      </trkpt>
      <trkpt lat="49.73554" lon="2.32813">
        <ele>72.7</ele>
        <time>2023-03-01T13:42:43Z</time>
      </trkpt>
      <trkpt lat="49.73554" lon="2.32811">
        <ele>72.7</ele>
        <time>2023-03-01T13:42:44Z</time>
      </trkpt>
      <trkpt lat="49.73554" lon="2.3281">
        <ele>72.7</ele>
        <time>2023-03-01T13:42:45Z</time>
      </trkpt>
      <trkpt lat="49.73555" lon="2.32807">
        <ele>72.8</ele>
        <time>2023-03-01T13:42:46Z</time>
      </trkpt>
      <trkpt lat="49.73555" lon="2.32806">
        <ele>72.8</ele>
        <time>2023-03-01T13:42:47Z</time>
      </trkpt>
      <trkpt lat="49.73555" lon="2.32804">
        <ele>72.8</ele>
        <time>2023-03-01T13:42:48Z</time>
      </trkpt>
      <trkpt lat="49.73555" lon="2.32802">
        <ele>72.8</ele>
        <time>2023-03-01T13:42:49Z</time>
      </trkpt>
      <trkpt lat="49.73555" lon="2.328">
        <ele>72.8</ele>
        <time>2023-03-01T13:42:50Z</time>
      </trkpt>
      <trkpt lat="49.73556" lon="2.32798">
        <ele>72.8</ele>
        <time>2023-03-01T13:42:51Z</time>
      </trkpt>
      <trkpt lat="49.73556" lon="2.32796">
        <ele>72.9</ele>
        <time>2023-03-01T13:42:53Z</time>
      </trkpt>
      <trkpt lat="49.73556" lon="2.32793">
        <ele>72.9</ele>
        <time>2023-03-01T13:42:54Z</time>
      </trkpt>
      <trkpt lat="49.73557" lon="2.32791">
        <ele>72.9</ele>
        <time>2023-03-01T13:42:55Z</time>
      </trkpt>
      <trkpt lat="49.73557" lon="2.32788">
        <ele>72.9</ele>
        <time>2023-03-01T13:42:56Z</time>
      </trkpt>
      <trkpt lat="49.73558" lon="2.32787">
        <ele>72.9</ele>
        <time>2023-03-01T13:42:57Z</time>
      </trkpt>
      <trkpt lat="49.73558" lon="2.32785">
        <ele>72.9</ele>
        <time>2023-03-01T13:42:58Z</time>
      </trkpt>
      <trkpt lat="49.73559" lon="2.32783">
        <ele>72.9</ele>
        <time>2023-03-01T13:43:00Z</time>
      </trkpt>
      <trkpt lat="49.73559" lon="2.32782">
        <ele>73</ele>
        <time>2023-03-01T13:43:01Z</time>
      </trkpt>
      <trkpt lat="49.7356" lon="2.32778">
        <ele>73</ele>
        <time>2023-03-01T13:43:02Z</time>
      </trkpt>
      <trkpt lat="49.73561" lon="2.32777">
        <ele>73</ele>
        <time>2023-03-01T13:43:03Z</time>
      </trkpt>
      <trkpt lat="49.73561" lon="2.32774">
        <ele>73</ele>
        <time>2023-03-01T13:43:05Z</time>
      </trkpt>
      <trkpt lat="49.73562" lon="2.32771">
        <ele>73</ele>
        <time>2023-03-01T13:43:06Z</time>
      </trkpt>
      <trkpt lat="49.73562" lon="2.3277">
        <ele>73</ele>
        <time>2023-03-01T13:43:07Z</time>
      </trkpt>
      <trkpt lat="49.73562" lon="2.32768">
        <ele>73</ele>
        <time>2023-03-01T13:43:08Z</time>
      </trkpt>
      <trkpt lat="49.73563" lon="2.32767">
        <ele>73</ele>
        <time>2023-03-01T13:43:09Z</time>
      </trkpt>
      <trkpt lat="49.73563" lon="2.32765">
        <ele>73</ele>
        <time>2023-03-01T13:43:11Z</time>
      </trkpt>
      <trkpt lat="49.73563" lon="2.32762">
        <ele>73.1</ele>
        <time>2023-03-01T13:43:12Z</time>
      </trkpt>
      <trkpt lat="49.73564" lon="2.3276">
        <ele>73.1</ele>
        <time>2023-03-01T13:43:13Z</time>
      </trkpt>
      <trkpt lat="49.73564" lon="2.32757">
        <ele>73.1</ele>
        <time>2023-03-01T13:43:15Z</time>
      </trkpt>
      <trkpt lat="49.73565" lon="2.32756">
        <ele>73.1</ele>
        <time>2023-03-01T13:43:16Z</time>
      </trkpt>
      <trkpt lat="49.73565" lon="2.32753">
        <ele>73.1</ele>
        <time>2023-03-01T13:43:17Z</time>
      </trkpt>
      <trkpt lat="49.73565" lon="2.32751">
        <ele>73.1</ele>
        <time>2023-03-01T13:43:18Z</time>
      </trkpt>
      <trkpt lat="49.73566" lon="2.32749">
        <ele>73.1</ele>
        <time>2023-03-01T13:43:19Z</time>
      </trkpt>
      <trkpt lat="49.73566" lon="2.32747">
        <ele>73.1</ele>
        <time>2023-03-01T13:43:20Z</time>
      </trkpt>
      <trkpt lat="49.73567" lon="2.32744">
        <ele>73.2</ele>
        <time>2023-03-01T13:43:21Z</time>
      </trkpt>
      <trkpt lat="49.73567" lon="2.32742">
        <ele>73.2</ele>
        <time>2023-03-01T13:43:23Z</time>
      </trkpt>
      <trkpt lat="49.73567" lon="2.3274">
        <ele>73.2</ele>
        <time>2023-03-01T13:43:24Z</time>
      </trkpt>
      <trkpt lat="49.73567" lon="2.32739">
        <ele>73.2</ele>
        <time>2023-03-01T13:43:25Z</time>
      </trkpt>
      <trkpt lat="49.73568" lon="2.32737">
        <ele>73.2</ele>
        <time>2023-03-01T13:43:26Z</time>
      </trkpt>
      <trkpt lat="49.73568" lon="2.32735">
        <ele>73.2</ele>
        <time>2023-03-01T13:43:28Z</time>
      </trkpt>
      <trkpt lat="49.73568" lon="2.32733">
        <ele>73.2</ele>
        <time>2023-03-01T13:43:29Z</time>
      </trkpt>
      <trkpt lat="49.73569" lon="2.32731">
        <ele>73.2</ele>
        <time>2023-03-01T13:43:30Z</time>
      </trkpt>
      <trkpt lat="49.73569" lon="2.32728">
        <ele>73.3</ele>
        <time>2023-03-01T13:43:31Z</time>
      </trkpt>
      <trkpt lat="49.7357" lon="2.32726">
        <ele>73.3</ele>
        <time>2023-03-01T13:43:32Z</time>
      </trkpt>
      <trkpt lat="49.7357" lon="2.32724">
        <ele>73.3</ele>
        <time>2023-03-01T13:43:33Z</time>
      </trkpt>
      <trkpt lat="49.7357" lon="2.32723">
        <ele>73.3</ele>
        <time>2023-03-01T13:43:34Z</time>
      </trkpt>
      <trkpt lat="49.73571" lon="2.3272">
        <ele>73.3</ele>
        <time>2023-03-01T13:43:36Z</time>
      </trkpt>
      <trkpt lat="49.73571" lon="2.32718">
        <ele>73.3</ele>
        <time>2023-03-01T13:43:37Z</time>
      </trkpt>
      <trkpt lat="49.73571" lon="2.32717">
        <ele>73.4</ele>
        <time>2023-03-01T13:43:38Z</time>
      </trkpt>
      <trkpt lat="49.73571" lon="2.32713">
        <ele>73.4</ele>
        <time>2023-03-01T13:43:39Z</time>
      </trkpt>
      <trkpt lat="49.73572" lon="2.32711">
        <ele>73.4</ele>
        <time>2023-03-01T13:43:40Z</time>
      </trkpt>
      <trkpt lat="49.73572" lon="2.3271">
        <ele>73.4</ele>
        <time>2023-03-01T13:43:41Z</time>
      </trkpt>
      <trkpt lat="49.73572" lon="2.32708">
        <ele>73.4</ele>
        <time>2023-03-01T13:43:43Z</time>
      </trkpt>
      <trkpt lat="49.73572" lon="2.32705">
        <ele>73.4</ele>
        <time>2023-03-01T13:43:44Z</time>
      </trkpt>
      <trkpt lat="49.73572" lon="2.32702">
        <ele>73.5</ele>
        <time>2023-03-01T13:43:45Z</time>
      </trkpt>
      <trkpt lat="49.73572" lon="2.327">
        <ele>73.5</ele>
        <time>2023-03-01T13:43:46Z</time>
      </trkpt>
      <trkpt lat="49.73572" lon="2.32699">
        <ele>73.5</ele>
        <time>2023-03-01T13:43:47Z</time>
      </trkpt>
      <trkpt lat="49.73572" lon="2.32697">
        <ele>73.5</ele>
        <time>2023-03-01T13:43:48Z</time>
      </trkpt>
      <trkpt lat="49.73573" lon="2.32695">
        <ele>73.5</ele>
        <time>2023-03-01T13:43:49Z</time>
      </trkpt>
      <trkpt lat="49.73573" lon="2.32693">
        <ele>73.5</ele>
        <time>2023-03-01T13:43:50Z</time>
      </trkpt>
      <trkpt lat="49.73573" lon="2.32691">
        <ele>73.5</ele>
        <time>2023-03-01T13:43:52Z</time>
      </trkpt>
      <trkpt lat="49.73573" lon="2.3269">
        <ele>73.5</ele>
        <time>2023-03-01T13:43:53Z</time>
      </trkpt>
      <trkpt lat="49.73573" lon="2.32688">
        <ele>73.6</ele>
        <time>2023-03-01T13:43:54Z</time>
      </trkpt>
      <trkpt lat="49.73574" lon="2.32687">
        <ele>73.6</ele>
        <time>2023-03-01T13:43:55Z</time>
      </trkpt>
      <trkpt lat="49.73574" lon="2.32685">
        <ele>73.6</ele>
        <time>2023-03-01T13:43:56Z</time>
      </trkpt>
      <trkpt lat="49.73575" lon="2.32684">
        <ele>73.6</ele>
        <time>2023-03-01T13:43:57Z</time>
      </trkpt>
      <trkpt lat="49.73576" lon="2.32682">
        <ele>73.6</ele>
        <time>2023-03-01T13:43:58Z</time>
      </trkpt>
      <trkpt lat="49.73576" lon="2.32681">
        <ele>73.6</ele>
        <time>2023-03-01T13:43:59Z</time>
      </trkpt>
      <trkpt lat="49.73576" lon="2.32679">
        <ele>73.7</ele>
        <time>2023-03-01T13:44:01Z</time>
      </trkpt>
      <trkpt lat="49.73577" lon="2.32678">
        <ele>73.7</ele>
        <time>2023-03-01T13:44:02Z</time>
      </trkpt>
      <trkpt lat="49.73577" lon="2.32677">
        <ele>73.7</ele>
        <time>2023-03-01T13:44:03Z</time>
      </trkpt>
      <trkpt lat="49.73578" lon="2.32675">
        <ele>73.7</ele>
        <time>2023-03-01T13:44:04Z</time>
      </trkpt>
      <trkpt lat="49.73578" lon="2.32671">
        <ele>73.7</ele>
        <time>2023-03-01T13:44:06Z</time>
      </trkpt>
      <trkpt lat="49.73578" lon="2.3267">
        <ele>73.8</ele>
        <time>2023-03-01T13:44:08Z</time>
      </trkpt>
      <trkpt lat="49.73579" lon="2.32668">
        <ele>73.8</ele>
        <time>2023-03-01T13:44:09Z</time>
      </trkpt>
      <trkpt lat="49.73579" lon="2.32666">
        <ele>73.8</ele>
        <time>2023-03-01T13:44:10Z</time>
      </trkpt>
      <trkpt lat="49.73579" lon="2.32664">
        <ele>73.8</ele>
        <time>2023-03-01T13:44:11Z</time>
      </trkpt>
      <trkpt lat="49.73579" lon="2.32661">
        <ele>73.8</ele>
        <time>2023-03-01T13:44:12Z</time>
      </trkpt>
      <trkpt lat="49.73579" lon="2.32659">
        <ele>73.9</ele>
        <time>2023-03-01T13:44:13Z</time>
      </trkpt>
      <trkpt lat="49.7358" lon="2.32657">
        <ele>73.9</ele>
        <time>2023-03-01T13:44:14Z</time>
      </trkpt>
      <trkpt lat="49.7358" lon="2.32655">
        <ele>73.9</ele>
        <time>2023-03-01T13:44:16Z</time>
      </trkpt>
      <trkpt lat="49.7358" lon="2.32652">
        <ele>74</ele>
        <time>2023-03-01T13:44:17Z</time>
      </trkpt>
      <trkpt lat="49.7358" lon="2.3265">
        <ele>74</ele>
        <time>2023-03-01T13:44:18Z</time>
      </trkpt>
      <trkpt lat="49.73581" lon="2.32647">
        <ele>74</ele>
        <time>2023-03-01T13:44:19Z</time>
      </trkpt>
      <trkpt lat="49.73581" lon="2.32645">
        <ele>74</ele>
        <time>2023-03-01T13:44:20Z</time>
      </trkpt>
      <trkpt lat="49.73581" lon="2.32643">
        <ele>74</ele>
        <time>2023-03-01T13:44:21Z</time>
      </trkpt>
      <trkpt lat="49.73581" lon="2.3264">
        <ele>74.1</ele>
        <time>2023-03-01T13:44:22Z</time>
      </trkpt>
      <trkpt lat="49.73581" lon="2.32638">
        <ele>74.1</ele>
        <time>2023-03-01T13:44:23Z</time>
      </trkpt>
      <trkpt lat="49.73581" lon="2.32636">
        <ele>74.1</ele>
        <time>2023-03-01T13:44:24Z</time>
      </trkpt>
      <trkpt lat="49.73581" lon="2.32634">
        <ele>74.1</ele>
        <time>2023-03-01T13:44:25Z</time>
      </trkpt>
      <trkpt lat="49.73581" lon="2.32631">
        <ele>74.2</ele>
        <time>2023-03-01T13:44:27Z</time>
      </trkpt>
      <trkpt lat="49.73581" lon="2.32629">
        <ele>74.2</ele>
        <time>2023-03-01T13:44:28Z</time>
      </trkpt>
      <trkpt lat="49.73581" lon="2.32627">
        <ele>74.2</ele>
        <time>2023-03-01T13:44:29Z</time>
      </trkpt>
      <trkpt lat="49.73582" lon="2.32623">
        <ele>74.3</ele>
        <time>2023-03-01T13:44:30Z</time>
      </trkpt>
      <trkpt lat="49.73582" lon="2.32622">
        <ele>74.3</ele>
        <time>2023-03-01T13:44:31Z</time>
      </trkpt>
      <trkpt lat="49.73582" lon="2.3262">
        <ele>74.3</ele>
        <time>2023-03-01T13:44:32Z</time>
      </trkpt>
      <trkpt lat="49.73582" lon="2.32619">
        <ele>74.3</ele>
        <time>2023-03-01T13:44:33Z</time>
      </trkpt>
      <trkpt lat="49.73582" lon="2.32617">
        <ele>74.3</ele>
        <time>2023-03-01T13:44:35Z</time>
      </trkpt>
      <trkpt lat="49.73583" lon="2.32615">
        <ele>74.4</ele>
        <time>2023-03-01T13:44:36Z</time>
      </trkpt>
      <trkpt lat="49.73583" lon="2.32612">
        <ele>74.4</ele>
        <time>2023-03-01T13:44:37Z</time>
      </trkpt>
      <trkpt lat="49.73583" lon="2.32611">
        <ele>74.4</ele>
        <time>2023-03-01T13:44:38Z</time>
      </trkpt>
      <trkpt lat="49.73583" lon="2.32609">
        <ele>74.4</ele>
        <time>2023-03-01T13:44:39Z</time>
      </trkpt>
      <trkpt lat="49.73584" lon="2.32608">
        <ele>74.4</ele>
        <time>2023-03-01T13:44:40Z</time>
      </trkpt>
      <trkpt lat="49.73584" lon="2.32607">
        <ele>74.5</ele>
        <time>2023-03-01T13:44:41Z</time>
      </trkpt>
      <trkpt lat="49.73584" lon="2.32604">
        <ele>74.5</ele>
        <time>2023-03-01T13:44:42Z</time>
      </trkpt>
      <trkpt lat="49.73585" lon="2.32603">
        <ele>74.5</ele>
        <time>2023-03-01T13:44:44Z</time>
      </trkpt>
      <trkpt lat="49.73585" lon="2.32601">
        <ele>74.5</ele>
        <time>2023-03-01T13:44:45Z</time>
      </trkpt>
      <trkpt lat="49.73586" lon="2.32599">
        <ele>74.6</ele>
        <time>2023-03-01T13:44:46Z</time>
      </trkpt>
      <trkpt lat="49.73586" lon="2.32598">
        <ele>74.6</ele>
        <time>2023-03-01T13:44:47Z</time>
      </trkpt>
      <trkpt lat="49.73586" lon="2.32597">
        <ele>74.6</ele>
        <time>2023-03-01T13:44:48Z</time>
      </trkpt>
      <trkpt lat="49.73587" lon="2.32597">
        <ele>74.6</ele>
        <time>2023-03-01T13:44:49Z</time>
      </trkpt>
      <trkpt lat="49.73587" lon="2.32596">
        <ele>74.6</ele>
        <time>2023-03-01T13:44:51Z</time>
      </trkpt>
      <trkpt lat="49.73588" lon="2.32593">
        <ele>74.7</ele>
        <time>2023-03-01T13:44:52Z</time>
      </trkpt>
      <trkpt lat="49.73588" lon="2.32593">
        <ele>74.7</ele>
        <time>2023-03-01T13:44:53Z</time>
      </trkpt>
      <trkpt lat="49.73587" lon="2.32592">
        <ele>74.7</ele>
        <time>2023-03-01T13:44:55Z</time>
      </trkpt>
      <trkpt lat="49.73587" lon="2.32592">
        <ele>74.7</ele>
        <time>2023-03-01T13:44:56Z</time>
      </trkpt>
      <trkpt lat="49.73587" lon="2.32591">
        <ele>74.7</ele>
        <time>2023-03-01T13:44:57Z</time>
      </trkpt>
      <trkpt lat="49.73587" lon="2.3259">
        <ele>74.7</ele>
        <time>2023-03-01T13:44:59Z</time>
      </trkpt>
      <trkpt lat="49.73587" lon="2.32591">
        <ele>74.7</ele>
        <time>2023-03-01T13:45:00Z</time>
      </trkpt>
      <trkpt lat="49.73587" lon="2.32591">
        <ele>74.7</ele>
        <time>2023-03-01T13:45:02Z</time>
      </trkpt>
      <trkpt lat="49.73587" lon="2.32591">
        <ele>74.7</ele>
        <time>2023-03-01T13:45:03Z</time>
      </trkpt>
      <trkpt lat="49.73587" lon="2.32591">
        <ele>74.7</ele>
        <time>2023-03-01T13:45:05Z</time>
      </trkpt>
      <trkpt lat="49.73587" lon="2.32591">
        <ele>74.7</ele>
        <time>2023-03-01T13:45:06Z</time>
      </trkpt>
      <trkpt lat="49.73587" lon="2.32591">
        <ele>74.8</ele>
        <time>2023-03-01T13:45:07Z</time>
      </trkpt>
      <trkpt lat="49.73587" lon="2.32591">
        <ele>74.8</ele>
        <time>2023-03-01T13:45:09Z</time>
      </trkpt>
      <trkpt lat="49.73587" lon="2.32591">
        <ele>74.8</ele>
        <time>2023-03-01T13:45:10Z</time>
      </trkpt>
      <trkpt lat="49.73587" lon="2.32591">
        <ele>74.8</ele>
        <time>2023-03-01T13:45:11Z</time>
      </trkpt>
      <trkpt lat="49.73587" lon="2.32592">
        <ele>74.8</ele>
        <time>2023-03-01T13:45:12Z</time>
      </trkpt>
      <trkpt lat="49.73587" lon="2.32592">
        <ele>74.8</ele>
        <time>2023-03-01T13:45:13Z</time>
      </trkpt>
      <trkpt lat="49.73587" lon="2.32592">
        <ele>74.8</ele>
        <time>2023-03-01T13:45:14Z</time>
      </trkpt>
      <trkpt lat="49.73587" lon="2.32592">
        <ele>74.8</ele>
        <time>2023-03-01T13:45:15Z</time>
      </trkpt>
      <trkpt lat="49.73587" lon="2.32592">
        <ele>74.8</ele>
        <time>2023-03-01T13:45:16Z</time>
      </trkpt>
      <trkpt lat="49.73587" lon="2.32592">
        <ele>74.8</ele>
        <time>2023-03-01T13:45:17Z</time>
      </trkpt>
      <trkpt lat="49.73587" lon="2.32592">
        <ele>74.8</ele>
        <time>2023-03-01T13:45:18Z</time>
      </trkpt>
      <trkpt lat="49.73587" lon="2.32592">
        <ele>74.8</ele>
        <time>2023-03-01T13:45:19Z</time>
      </trkpt>
      <trkpt lat="49.73587" lon="2.32592">
        <ele>74.8</ele>
        <time>2023-03-01T13:45:20Z</time>
      </trkpt>
      <trkpt lat="49.73587" lon="2.32592">
        <ele>74.8</ele>
        <time>2023-03-01T13:45:21Z</time>
      </trkpt>
      <trkpt lat="49.73587" lon="2.32592">
        <ele>74.8</ele>
        <time>2023-03-01T13:45:22Z</time>
      </trkpt>
      <trkpt lat="49.73587" lon="2.32594">
        <ele>74.8</ele>
        <time>2023-03-01T13:45:23Z</time>
      </trkpt>
      <trkpt lat="49.73587" lon="2.32595">
        <ele>74.8</ele>
        <time>2023-03-01T13:45:24Z</time>
      </trkpt>
      <trkpt lat="49.73587" lon="2.32595">
        <ele>74.8</ele>
        <time>2023-03-01T13:45:25Z</time>
      </trkpt>
      <trkpt lat="49.73587" lon="2.32595">
        <ele>74.8</ele>
        <time>2023-03-01T13:45:26Z</time>
      </trkpt>
      <trkpt lat="49.73587" lon="2.32594">
        <ele>74.9</ele>
        <time>2023-03-01T13:45:27Z</time>
      </trkpt>
      <trkpt lat="49.73587" lon="2.32594">
        <ele>74.9</ele>
        <time>2023-03-01T13:45:28Z</time>
      </trkpt>
      <trkpt lat="49.73587" lon="2.32594">
        <ele>74.9</ele>
        <time>2023-03-01T13:45:29Z</time>
      </trkpt>
      <trkpt lat="49.73588" lon="2.32594">
        <ele>74.9</ele>
        <time>2023-03-01T13:45:30Z</time>
      </trkpt>
      <trkpt lat="49.73588" lon="2.32594">
        <ele>74.9</ele>
        <time>2023-03-01T13:45:31Z</time>
      </trkpt>
      <trkpt lat="49.73588" lon="2.32594">
        <ele>74.9</ele>
        <time>2023-03-01T13:45:32Z</time>
      </trkpt>
      <trkpt lat="49.73588" lon="2.32594">
        <ele>74.9</ele>
        <time>2023-03-01T13:45:34Z</time>
      </trkpt>
      <trkpt lat="49.73589" lon="2.32594">
        <ele>74.9</ele>
        <time>2023-03-01T13:45:36Z</time>
      </trkpt>
      <trkpt lat="49.73589" lon="2.32595">
        <ele>75</ele>
        <time>2023-03-01T13:45:38Z</time>
      </trkpt>
      <trkpt lat="49.73589" lon="2.32595">
        <ele>75</ele>
        <time>2023-03-01T13:45:39Z</time>
      </trkpt>
      <trkpt lat="49.73589" lon="2.32595">
        <ele>75</ele>
        <time>2023-03-01T13:45:40Z</time>
      </trkpt>
      <trkpt lat="49.73589" lon="2.32595">
        <ele>75</ele>
        <time>2023-03-01T13:45:42Z</time>
      </trkpt>
      <trkpt lat="49.73589" lon="2.32594">
        <ele>75</ele>
        <time>2023-03-01T13:45:43Z</time>
      </trkpt>
      <trkpt lat="49.7359" lon="2.32594">
        <ele>75</ele>
        <time>2023-03-01T13:45:45Z</time>
      </trkpt>
      <trkpt lat="49.7359" lon="2.32594">
        <ele>75</ele>
        <time>2023-03-01T13:45:46Z</time>
      </trkpt>
      <trkpt lat="49.7359" lon="2.32594">
        <ele>75</ele>
        <time>2023-03-01T13:45:47Z</time>
      </trkpt>
      <trkpt lat="49.7359" lon="2.32594">
        <ele>75</ele>
        <time>2023-03-01T13:45:48Z</time>
      </trkpt>
      <trkpt lat="49.7359" lon="2.32594">
        <ele>75</ele>
        <time>2023-03-01T13:45:49Z</time>
      </trkpt>
      <trkpt lat="49.7359" lon="2.32594">
        <ele>75</ele>
        <time>2023-03-01T13:45:50Z</time>
      </trkpt>
      <trkpt lat="49.7359" lon="2.32594">
        <ele>75</ele>
        <time>2023-03-01T13:45:51Z</time>
      </trkpt>
      <trkpt lat="49.7359" lon="2.32594">
        <ele>75</ele>
        <time>2023-03-01T13:45:52Z</time>
      </trkpt>
      <trkpt lat="49.7359" lon="2.32594">
        <ele>75</ele>
        <time>2023-03-01T13:45:53Z</time>
      </trkpt>
      <trkpt lat="49.7359" lon="2.32594">
        <ele>75</ele>
        <time>2023-03-01T13:45:54Z</time>
      </trkpt>
      <trkpt lat="49.7359" lon="2.32594">
        <ele>75</ele>
        <time>2023-03-01T13:45:55Z</time>
      </trkpt>
      <trkpt lat="49.7359" lon="2.32594">
        <ele>75</ele>
        <time>2023-03-01T13:45:56Z</time>
      </trkpt>
      <trkpt lat="49.7359" lon="2.32594">
        <ele>75</ele>
        <time>2023-03-01T13:45:57Z</time>
      </trkpt>
      <trkpt lat="49.7359" lon="2.32594">
        <ele>75</ele>
        <time>2023-03-01T13:45:58Z</time>
      </trkpt>
      <trkpt lat="49.7359" lon="2.32594">
        <ele>75</ele>
        <time>2023-03-01T13:45:59Z</time>
      </trkpt>
      <trkpt lat="49.7359" lon="2.32594">
        <ele>75</ele>
        <time>2023-03-01T13:46:00Z</time>
      </trkpt>
      <trkpt lat="49.7359" lon="2.32594">
        <ele>75</ele>
        <time>2023-03-01T13:46:01Z</time>
      </trkpt>
      <trkpt lat="49.7359" lon="2.32594">
        <ele>75</ele>
        <time>2023-03-01T13:46:03Z</time>
      </trkpt>
      <trkpt lat="49.7359" lon="2.32594">
        <ele>75</ele>
        <time>2023-03-01T13:46:04Z</time>
      </trkpt>
      <trkpt lat="49.7359" lon="2.32594">
        <ele>75</ele>
        <time>2023-03-01T13:46:05Z</time>
      </trkpt>
      <trkpt lat="49.7359" lon="2.32594">
        <ele>75</ele>
        <time>2023-03-01T13:46:06Z</time>
      </trkpt>
      <trkpt lat="49.7359" lon="2.32594">
        <ele>75</ele>
        <time>2023-03-01T13:46:07Z</time>
      </trkpt>
      <trkpt lat="49.7359" lon="2.32594">
        <ele>75</ele>
        <time>2023-03-01T13:46:08Z</time>
      </trkpt>
      <trkpt lat="49.7359" lon="2.32594">
        <ele>75</ele>
        <time>2023-03-01T13:46:09Z</time>
      </trkpt>
      <trkpt lat="49.7359" lon="2.32594">
        <ele>75</ele>
        <time>2023-03-01T13:46:10Z</time>
      </trkpt>
      <trkpt lat="49.7359" lon="2.32594">
        <ele>75</ele>
        <time>2023-03-01T13:46:11Z</time>
      </trkpt>
      <trkpt lat="49.7359" lon="2.32594">
        <ele>75</ele>
        <time>2023-03-01T13:46:12Z</time>
      </trkpt>
      <trkpt lat="49.7359" lon="2.32594">
        <ele>75</ele>
        <time>2023-03-01T13:46:13Z</time>
      </trkpt>
      <trkpt lat="49.7359" lon="2.32594">
        <ele>75</ele>
        <time>2023-03-01T13:46:14Z</time>
      </trkpt>
      <trkpt lat="49.7359" lon="2.32594">
        <ele>75</ele>
        <time>2023-03-01T13:46:15Z</time>
      </trkpt>
      <trkpt lat="49.7359" lon="2.32594">
        <ele>75</ele>
        <time>2023-03-01T13:46:16Z</time>
      </trkpt>
      <trkpt lat="49.7359" lon="2.32594">
        <ele>75</ele>
        <time>2023-03-01T13:46:17Z</time>
      </trkpt>
      <trkpt lat="49.7359" lon="2.32594">
        <ele>75</ele>
        <time>2023-03-01T13:46:19Z</time>
      </trkpt>
      <trkpt lat="49.7359" lon="2.32594">
        <ele>75</ele>
        <time>2023-03-01T13:46:20Z</time>
      </trkpt>
      <trkpt lat="49.7359" lon="2.32594">
        <ele>75</ele>
        <time>2023-03-01T13:46:21Z</time>
      </trkpt>
      <trkpt lat="49.7359" lon="2.32594">
        <ele>75</ele>
        <time>2023-03-01T13:46:22Z</time>
      </trkpt>
      <trkpt lat="49.7359" lon="2.32594">
        <ele>75</ele>
        <time>2023-03-01T13:46:23Z</time>
      </trkpt>
      <trkpt lat="49.7359" lon="2.32594">
        <ele>75</ele>
        <time>2023-03-01T13:46:25Z</time>
      </trkpt>
      <trkpt lat="49.7359" lon="2.32594">
        <ele>75</ele>
        <time>2023-03-01T13:46:26Z</time>
      </trkpt>
      <trkpt lat="49.7359" lon="2.32594">
        <ele>75</ele>
        <time>2023-03-01T13:46:27Z</time>
      </trkpt>
      <trkpt lat="49.7359" lon="2.32594">
        <ele>75</ele>
        <time>2023-03-01T13:46:28Z</time>
      </trkpt>
      <trkpt lat="49.7359" lon="2.32594">
        <ele>75</ele>
        <time>2023-03-01T13:46:29Z</time>
      </trkpt>
      <trkpt lat="49.7359" lon="2.32594">
        <ele>75</ele>
        <time>2023-03-01T13:46:30Z</time>
      </trkpt>
      <trkpt lat="49.7359" lon="2.32594">
        <ele>75</ele>
        <time>2023-03-01T13:46:31Z</time>
      </trkpt>
      <trkpt lat="49.7359" lon="2.32594">
        <ele>75</ele>
        <time>2023-03-01T13:46:32Z</time>
      </trkpt>
      <trkpt lat="49.7359" lon="2.32594">
        <ele>75</ele>
        <time>2023-03-01T13:46:33Z</time>
      </trkpt>
      <trkpt lat="49.7359" lon="2.32594">
        <ele>75</ele>
        <time>2023-03-01T13:46:34Z</time>
      </trkpt>
      <trkpt lat="49.7359" lon="2.32594">
        <ele>75</ele>
        <time>2023-03-01T13:46:35Z</time>
      </trkpt>
      <trkpt lat="49.7359" lon="2.32594">
        <ele>75</ele>
        <time>2023-03-01T13:46:36Z</time>
      </trkpt>
      <trkpt lat="49.7359" lon="2.32594">
        <ele>75</ele>
        <time>2023-03-01T13:46:38Z</time>
      </trkpt>
      <trkpt lat="49.7359" lon="2.32594">
        <ele>75</ele>
        <time>2023-03-01T13:46:39Z</time>
      </trkpt>
      <trkpt lat="49.7359" lon="2.32594">
        <ele>75</ele>
        <time>2023-03-01T13:46:40Z</time>
      </trkpt>
      <trkpt lat="49.7359" lon="2.32594">
        <ele>75</ele>
        <time>2023-03-01T13:46:41Z</time>
      </trkpt>
      <trkpt lat="49.7359" lon="2.32594">
        <ele>75</ele>
        <time>2023-03-01T13:46:42Z</time>
      </trkpt>
      <trkpt lat="49.7359" lon="2.32594">
        <ele>75</ele>
        <time>2023-03-01T13:46:43Z</time>
      </trkpt>
      <trkpt lat="49.7359" lon="2.32594">
        <ele>75</ele>
        <time>2023-03-01T13:46:44Z</time>
      </trkpt>
      <trkpt lat="49.7359" lon="2.32594">
        <ele>75</ele>
        <time>2023-03-01T13:46:45Z</time>
      </trkpt>
      <trkpt lat="49.7359" lon="2.32594">
        <ele>75</ele>
        <time>2023-03-01T13:46:46Z</time>
      </trkpt>
      <trkpt lat="49.7359" lon="2.32594">
        <ele>75</ele>
        <time>2023-03-01T13:46:47Z</time>
      </trkpt>
      <trkpt lat="49.7359" lon="2.32594">
        <ele>75</ele>
        <time>2023-03-01T13:46:49Z</time>
      </trkpt>
      <trkpt lat="49.7359" lon="2.32594">
        <ele>75</ele>
        <time>2023-03-01T13:46:50Z</time>
      </trkpt>
      <trkpt lat="49.7359" lon="2.32594">
        <ele>75</ele>
        <time>2023-03-01T13:46:51Z</time>
      </trkpt>
      <trkpt lat="49.7359" lon="2.32594">
        <ele>75</ele>
        <time>2023-03-01T13:46:52Z</time>
      </trkpt>
      <trkpt lat="49.7359" lon="2.32594">
        <ele>75</ele>
        <time>2023-03-01T13:46:53Z</time>
      </trkpt>
      <trkpt lat="49.7359" lon="2.32594">
        <ele>75</ele>
        <time>2023-03-01T13:46:54Z</time>
      </trkpt>
      <trkpt lat="49.7359" lon="2.32594">
        <ele>75</ele>
        <time>2023-03-01T13:46:55Z</time>
      </trkpt>
      <trkpt lat="49.7359" lon="2.32594">
        <ele>75</ele>
        <time>2023-03-01T13:46:56Z</time>
      </trkpt>
      <trkpt lat="49.7359" lon="2.32594">
        <ele>75</ele>
        <time>2023-03-01T13:46:58Z</time>
      </trkpt>
      <trkpt lat="49.7359" lon="2.32594">
        <ele>75</ele>
        <time>2023-03-01T13:46:59Z</time>
      </trkpt>
      <trkpt lat="49.7359" lon="2.32594">
        <ele>75</ele>
        <time>2023-03-01T13:47:00Z</time>
      </trkpt>
      <trkpt lat="49.7359" lon="2.32594">
        <ele>75</ele>
        <time>2023-03-01T13:47:01Z</time>
      </trkpt>
      <trkpt lat="49.7359" lon="2.32594">
        <ele>75</ele>
        <time>2023-03-01T13:47:02Z</time>
      </trkpt>
      <trkpt lat="49.7359" lon="2.32594">
        <ele>75</ele>
        <time>2023-03-01T13:47:04Z</time>
      </trkpt>
      <trkpt lat="49.7359" lon="2.32594">
        <ele>75</ele>
        <time>2023-03-01T13:47:05Z</time>
      </trkpt>
      <trkpt lat="49.7359" lon="2.32594">
        <ele>75</ele>
        <time>2023-03-01T13:47:06Z</time>
      </trkpt>
      <trkpt lat="49.7359" lon="2.32594">
        <ele>75</ele>
        <time>2023-03-01T13:47:07Z</time>
      </trkpt>
      <trkpt lat="49.7359" lon="2.32594">
        <ele>75</ele>
        <time>2023-03-01T13:47:09Z</time>
      </trkpt>
      <trkpt lat="49.7359" lon="2.32594">
        <ele>75</ele>
        <time>2023-03-01T13:47:10Z</time>
      </trkpt>
      <trkpt lat="49.7359" lon="2.32594">
        <ele>75</ele>
        <time>2023-03-01T13:47:11Z</time>
      </trkpt>
      <trkpt lat="49.7359" lon="2.32594">
        <ele>75</ele>
        <time>2023-03-01T13:47:12Z</time>
      </trkpt>
      <trkpt lat="49.7359" lon="2.32594">
        <ele>75</ele>
        <time>2023-03-01T13:47:13Z</time>
      </trkpt>
      <trkpt lat="49.7359" lon="2.32594">
        <ele>75</ele>
        <time>2023-03-01T13:47:14Z</time>
      </trkpt>
      <trkpt lat="49.7359" lon="2.32594">
        <ele>75</ele>
        <time>2023-03-01T13:47:15Z</time>
      </trkpt>
      <trkpt lat="49.7359" lon="2.32594">
        <ele>75</ele>
        <time>2023-03-01T13:47:16Z</time>
      </trkpt>
      <trkpt lat="49.7359" lon="2.32594">
        <ele>75</ele>
        <time>2023-03-01T13:47:17Z</time>
      </trkpt>
      <trkpt lat="49.7359" lon="2.32594">
        <ele>75</ele>
        <time>2023-03-01T13:47:18Z</time>
      </trkpt>
      <trkpt lat="49.7359" lon="2.32594">
        <ele>75</ele>
        <time>2023-03-01T13:47:19Z</time>
      </trkpt>
      <trkpt lat="49.7359" lon="2.32594">
        <ele>75</ele>
        <time>2023-03-01T13:47:20Z</time>
      </trkpt>
      <trkpt lat="49.7359" lon="2.32594">
        <ele>75</ele>
        <time>2023-03-01T13:47:21Z</time>
      </trkpt>
      <trkpt lat="49.7359" lon="2.32594">
        <ele>75</ele>
        <time>2023-03-01T13:47:22Z</time>
      </trkpt>
      <trkpt lat="49.7359" lon="2.32594">
        <ele>75</ele>
        <time>2023-03-01T13:47:23Z</time>
      </trkpt>
      <trkpt lat="49.7359" lon="2.32594">
        <ele>75</ele>
        <time>2023-03-01T13:47:24Z</time>
      </trkpt>
      <trkpt lat="49.7359" lon="2.32594">
        <ele>75</ele>
        <time>2023-03-01T13:47:26Z</time>
      </trkpt>
      <trkpt lat="49.73589" lon="2.32596">
        <ele>75</ele>
        <time>2023-03-01T13:47:28Z</time>
      </trkpt>
      <trkpt lat="49.73588" lon="2.32596">
        <ele>75.1</ele>
        <time>2023-03-01T13:47:29Z</time>
      </trkpt>
      <trkpt lat="49.73587" lon="2.32596">
        <ele>75.1</ele>
        <time>2023-03-01T13:47:30Z</time>
      </trkpt>
      <trkpt lat="49.73587" lon="2.32595">
        <ele>75.1</ele>
        <time>2023-03-01T13:47:32Z</time>
      </trkpt>
      <trkpt lat="49.73588" lon="2.32594">
        <ele>75.1</ele>
        <time>2023-03-01T13:47:33Z</time>
      </trkpt>
      <trkpt lat="49.73588" lon="2.32593">
        <ele>75.2</ele>
        <time>2023-03-01T13:47:34Z</time>
      </trkpt>
      <trkpt lat="49.73588" lon="2.32592">
        <ele>75.2</ele>
        <time>2023-03-01T13:47:36Z</time>
      </trkpt>
      <trkpt lat="49.73589" lon="2.32591">
        <ele>75.2</ele>
        <time>2023-03-01T13:47:37Z</time>
      </trkpt>
      <trkpt lat="49.7359" lon="2.32589">
        <ele>75.5</ele>
        <time>2023-03-01T13:47:38Z</time>
      </trkpt>
      <trkpt lat="49.73592" lon="2.32587">
        <ele>75.6</ele>
        <time>2023-03-01T13:47:40Z</time>
      </trkpt>
      <trkpt lat="49.73592" lon="2.32586">
        <ele>75.6</ele>
        <time>2023-03-01T13:47:41Z</time>
      </trkpt>
      <trkpt lat="49.73593" lon="2.32585">
        <ele>75.7</ele>
        <time>2023-03-01T13:47:42Z</time>
      </trkpt>
      <trkpt lat="49.73595" lon="2.32584">
        <ele>75.7</ele>
        <time>2023-03-01T13:47:44Z</time>
      </trkpt>
      <trkpt lat="49.73596" lon="2.32583">
        <ele>75.8</ele>
        <time>2023-03-01T13:47:45Z</time>
      </trkpt>
      <trkpt lat="49.73596" lon="2.32583">
        <ele>75.8</ele>
        <time>2023-03-01T13:47:46Z</time>
      </trkpt>
      <trkpt lat="49.73597" lon="2.32582">
        <ele>75.8</ele>
        <time>2023-03-01T13:47:47Z</time>
      </trkpt>
      <trkpt lat="49.73598" lon="2.32581">
        <ele>75.9</ele>
        <time>2023-03-01T13:47:48Z</time>
      </trkpt>
      <trkpt lat="49.73599" lon="2.3258">
        <ele>75.9</ele>
        <time>2023-03-01T13:47:49Z</time>
      </trkpt>
      <trkpt lat="49.736" lon="2.3258">
        <ele>76</ele>
        <time>2023-03-01T13:47:50Z</time>
      </trkpt>
      <trkpt lat="49.736" lon="2.32578">
        <ele>76</ele>
        <time>2023-03-01T13:47:51Z</time>
      </trkpt>
      <trkpt lat="49.73602" lon="2.32577">
        <ele>76.1</ele>
        <time>2023-03-01T13:47:53Z</time>
      </trkpt>
      <trkpt lat="49.73602" lon="2.32577">
        <ele>76.1</ele>
        <time>2023-03-01T13:47:54Z</time>
      </trkpt>
      <trkpt lat="49.73604" lon="2.32576">
        <ele>76.1</ele>
        <time>2023-03-01T13:47:55Z</time>
      </trkpt>
      <trkpt lat="49.73604" lon="2.32576">
        <ele>76.2</ele>
        <time>2023-03-01T13:47:56Z</time>
      </trkpt>
      <trkpt lat="49.73606" lon="2.32575">
        <ele>76.2</ele>
        <time>2023-03-01T13:47:57Z</time>
      </trkpt>
      <trkpt lat="49.73607" lon="2.32574">
        <ele>76.3</ele>
        <time>2023-03-01T13:47:59Z</time>
      </trkpt>
      <trkpt lat="49.73608" lon="2.32574">
        <ele>76.3</ele>
        <time>2023-03-01T13:48:00Z</time>
      </trkpt>
      <trkpt lat="49.73609" lon="2.32574">
        <ele>76.4</ele>
        <time>2023-03-01T13:48:01Z</time>
      </trkpt>
      <trkpt lat="49.73611" lon="2.32574">
        <ele>76.4</ele>
        <time>2023-03-01T13:48:02Z</time>
      </trkpt>
      <trkpt lat="49.73612" lon="2.32573">
        <ele>76.5</ele>
        <time>2023-03-01T13:48:03Z</time>
      </trkpt>
      <trkpt lat="49.73613" lon="2.32573">
        <ele>76.5</ele>
        <time>2023-03-01T13:48:04Z</time>
      </trkpt>
      <trkpt lat="49.73614" lon="2.32572">
        <ele>76.6</ele>
        <time>2023-03-01T13:48:06Z</time>
      </trkpt>
      <trkpt lat="49.73616" lon="2.32571">
        <ele>76.6</ele>
        <time>2023-03-01T13:48:07Z</time>
      </trkpt>
      <trkpt lat="49.73618" lon="2.3257">
        <ele>76.7</ele>
        <time>2023-03-01T13:48:08Z</time>
      </trkpt>
      <trkpt lat="49.73618" lon="2.3257">
        <ele>76.7</ele>
        <time>2023-03-01T13:48:09Z</time>
      </trkpt>
      <trkpt lat="49.73619" lon="2.32569">
        <ele>76.8</ele>
        <time>2023-03-01T13:48:10Z</time>
      </trkpt>
      <trkpt lat="49.7362" lon="2.32569">
        <ele>76.8</ele>
        <time>2023-03-01T13:48:11Z</time>
      </trkpt>
      <trkpt lat="49.73622" lon="2.32568">
        <ele>76.9</ele>
        <time>2023-03-01T13:48:12Z</time>
      </trkpt>
      <trkpt lat="49.73623" lon="2.32567">
        <ele>77</ele>
        <time>2023-03-01T13:48:14Z</time>
      </trkpt>
      <trkpt lat="49.73624" lon="2.32567">
        <ele>77</ele>
        <time>2023-03-01T13:48:15Z</time>
      </trkpt>
      <trkpt lat="49.73626" lon="2.32567">
        <ele>77.1</ele>
        <time>2023-03-01T13:48:16Z</time>
      </trkpt>
      <trkpt lat="49.73627" lon="2.32566">
        <ele>77.2</ele>
        <time>2023-03-01T13:48:17Z</time>
      </trkpt>
      <trkpt lat="49.73628" lon="2.32566">
        <ele>77.2</ele>
        <time>2023-03-01T13:48:18Z</time>
      </trkpt>
      <trkpt lat="49.73629" lon="2.32566">
        <ele>77.3</ele>
        <time>2023-03-01T13:48:19Z</time>
      </trkpt>
      <trkpt lat="49.7363" lon="2.32566">
        <ele>77.3</ele>
        <time>2023-03-01T13:48:21Z</time>
      </trkpt>
      <trkpt lat="49.73631" lon="2.32565">
        <ele>77.4</ele>
        <time>2023-03-01T13:48:22Z</time>
      </trkpt>
      <trkpt lat="49.73632" lon="2.32565">
        <ele>77.5</ele>
        <time>2023-03-01T13:48:23Z</time>
      </trkpt>
      <trkpt lat="49.73633" lon="2.32564">
        <ele>77.6</ele>
        <time>2023-03-01T13:48:24Z</time>
      </trkpt>
      <trkpt lat="49.73634" lon="2.32564">
        <ele>77.6</ele>
        <time>2023-03-01T13:48:25Z</time>
      </trkpt>
      <trkpt lat="49.73635" lon="2.32563">
        <ele>77.7</ele>
        <time>2023-03-01T13:48:26Z</time>
      </trkpt>
      <trkpt lat="49.73636" lon="2.32563">
        <ele>77.8</ele>
        <time>2023-03-01T13:48:27Z</time>
      </trkpt>
      <trkpt lat="49.73638" lon="2.32562">
        <ele>77.9</ele>
        <time>2023-03-01T13:48:29Z</time>
      </trkpt>
      <trkpt lat="49.73639" lon="2.32562">
        <ele>78</ele>
        <time>2023-03-01T13:48:30Z</time>
      </trkpt>
      <trkpt lat="49.7364" lon="2.32561">
        <ele>78.1</ele>
        <time>2023-03-01T13:48:31Z</time>
      </trkpt>
      <trkpt lat="49.73642" lon="2.32561">
        <ele>78.1</ele>
        <time>2023-03-01T13:48:32Z</time>
      </trkpt>
      <trkpt lat="49.73643" lon="2.32561">
        <ele>78.2</ele>
        <time>2023-03-01T13:48:33Z</time>
      </trkpt>
      <trkpt lat="49.73644" lon="2.3256">
        <ele>78.3</ele>
        <time>2023-03-01T13:48:34Z</time>
      </trkpt>
      <trkpt lat="49.73645" lon="2.3256">
        <ele>78.4</ele>
        <time>2023-03-01T13:48:35Z</time>
      </trkpt>
      <trkpt lat="49.73646" lon="2.3256">
        <ele>78.5</ele>
        <time>2023-03-01T13:48:37Z</time>
      </trkpt>
      <trkpt lat="49.73647" lon="2.32559">
        <ele>78.6</ele>
        <time>2023-03-01T13:48:38Z</time>
      </trkpt>
      <trkpt lat="49.73648" lon="2.32559">
        <ele>78.7</ele>
        <time>2023-03-01T13:48:39Z</time>
      </trkpt>
      <trkpt lat="49.73649" lon="2.32559">
        <ele>78.7</ele>
        <time>2023-03-01T13:48:40Z</time>
      </trkpt>
      <trkpt lat="49.73651" lon="2.3256">
        <ele>78.8</ele>
        <time>2023-03-01T13:48:41Z</time>
      </trkpt>
      <trkpt lat="49.73652" lon="2.3256">
        <ele>78.9</ele>
        <time>2023-03-01T13:48:42Z</time>
      </trkpt>
      <trkpt lat="49.73653" lon="2.3256">
        <ele>79</ele>
        <time>2023-03-01T13:48:44Z</time>
      </trkpt>
      <trkpt lat="49.73654" lon="2.3256">
        <ele>79.1</ele>
        <time>2023-03-01T13:48:45Z</time>
      </trkpt>
      <trkpt lat="49.73655" lon="2.3256">
        <ele>79.2</ele>
        <time>2023-03-01T13:48:46Z</time>
      </trkpt>
      <trkpt lat="49.73656" lon="2.3256">
        <ele>79.3</ele>
        <time>2023-03-01T13:48:47Z</time>
      </trkpt>
      <trkpt lat="49.73657" lon="2.3256">
        <ele>79.4</ele>
        <time>2023-03-01T13:48:48Z</time>
      </trkpt>
      <trkpt lat="49.73658" lon="2.3256">
        <ele>79.5</ele>
        <time>2023-03-01T13:48:49Z</time>
      </trkpt>
      <trkpt lat="49.73659" lon="2.3256">
        <ele>79.5</ele>
        <time>2023-03-01T13:48:51Z</time>
      </trkpt>
      <trkpt lat="49.7366" lon="2.3256">
        <ele>79.6</ele>
        <time>2023-03-01T13:48:52Z</time>
      </trkpt>
      <trkpt lat="49.73662" lon="2.32559">
        <ele>79.7</ele>
        <time>2023-03-01T13:48:53Z</time>
      </trkpt>
      <trkpt lat="49.73663" lon="2.32559">
        <ele>79.8</ele>
        <time>2023-03-01T13:48:54Z</time>
      </trkpt>
      <trkpt lat="49.73664" lon="2.32559">
        <ele>79.9</ele>
        <time>2023-03-01T13:48:55Z</time>
      </trkpt>
      <trkpt lat="49.73665" lon="2.32559">
        <ele>80</ele>
        <time>2023-03-01T13:48:56Z</time>
      </trkpt>
      <trkpt lat="49.73666" lon="2.32559">
        <ele>80.1</ele>
        <time>2023-03-01T13:48:57Z</time>
      </trkpt>
      <trkpt lat="49.73667" lon="2.32559">
        <ele>80.2</ele>
        <time>2023-03-01T13:48:59Z</time>
      </trkpt>
      <trkpt lat="49.73668" lon="2.32559">
        <ele>80.3</ele>
        <time>2023-03-01T13:49:00Z</time>
      </trkpt>
      <trkpt lat="49.73669" lon="2.32559">
        <ele>80.4</ele>
        <time>2023-03-01T13:49:01Z</time>
      </trkpt>
      <trkpt lat="49.7367" lon="2.32559">
        <ele>80.5</ele>
        <time>2023-03-01T13:49:02Z</time>
      </trkpt>
      <trkpt lat="49.73671" lon="2.32559">
        <ele>80.5</ele>
        <time>2023-03-01T13:49:03Z</time>
      </trkpt>
      <trkpt lat="49.73672" lon="2.3256">
        <ele>80.6</ele>
        <time>2023-03-01T13:49:05Z</time>
      </trkpt>
      <trkpt lat="49.73673" lon="2.3256">
        <ele>80.7</ele>
        <time>2023-03-01T13:49:06Z</time>
      </trkpt>
      <trkpt lat="49.73675" lon="2.3256">
        <ele>80.9</ele>
        <time>2023-03-01T13:49:07Z</time>
      </trkpt>
      <trkpt lat="49.73676" lon="2.3256">
        <ele>80.9</ele>
        <time>2023-03-01T13:49:08Z</time>
      </trkpt>
      <trkpt lat="49.73677" lon="2.32561">
        <ele>81</ele>
        <time>2023-03-01T13:49:10Z</time>
      </trkpt>
      <trkpt lat="49.73678" lon="2.32561">
        <ele>81.1</ele>
        <time>2023-03-01T13:49:11Z</time>
      </trkpt>
      <trkpt lat="49.73679" lon="2.32561">
        <ele>81.2</ele>
        <time>2023-03-01T13:49:12Z</time>
      </trkpt>
      <trkpt lat="49.7368" lon="2.32561">
        <ele>81.3</ele>
        <time>2023-03-01T13:49:13Z</time>
      </trkpt>
      <trkpt lat="49.73681" lon="2.32561">
        <ele>81.4</ele>
        <time>2023-03-01T13:49:15Z</time>
      </trkpt>
      <trkpt lat="49.73682" lon="2.32562">
        <ele>81.5</ele>
        <time>2023-03-01T13:49:16Z</time>
      </trkpt>
      <trkpt lat="49.73683" lon="2.32562">
        <ele>81.6</ele>
        <time>2023-03-01T13:49:17Z</time>
      </trkpt>
      <trkpt lat="49.73684" lon="2.32562">
        <ele>81.7</ele>
        <time>2023-03-01T13:49:18Z</time>
      </trkpt>
      <trkpt lat="49.73685" lon="2.32562">
        <ele>81.7</ele>
        <time>2023-03-01T13:49:19Z</time>
      </trkpt>
      <trkpt lat="49.73686" lon="2.32562">
        <ele>81.8</ele>
        <time>2023-03-01T13:49:20Z</time>
      </trkpt>
      <trkpt lat="49.73687" lon="2.32562">
        <ele>81.9</ele>
        <time>2023-03-01T13:49:22Z</time>
      </trkpt>
      <trkpt lat="49.73688" lon="2.32562">
        <ele>82</ele>
        <time>2023-03-01T13:49:23Z</time>
      </trkpt>
      <trkpt lat="49.7369" lon="2.32562">
        <ele>82.1</ele>
        <time>2023-03-01T13:49:24Z</time>
      </trkpt>
      <trkpt lat="49.73691" lon="2.32562">
        <ele>82.2</ele>
        <time>2023-03-01T13:49:25Z</time>
      </trkpt>
      <trkpt lat="49.73692" lon="2.32562">
        <ele>82.3</ele>
        <time>2023-03-01T13:49:26Z</time>
      </trkpt>
      <trkpt lat="49.73693" lon="2.32563">
        <ele>82.3</ele>
        <time>2023-03-01T13:49:28Z</time>
      </trkpt>
      <trkpt lat="49.73694" lon="2.32563">
        <ele>82.4</ele>
        <time>2023-03-01T13:49:29Z</time>
      </trkpt>
      <trkpt lat="49.73695" lon="2.32563">
        <ele>82.5</ele>
        <time>2023-03-01T13:49:30Z</time>
      </trkpt>
      <trkpt lat="49.73696" lon="2.32563">
        <ele>82.6</ele>
        <time>2023-03-01T13:49:31Z</time>
      </trkpt>
      <trkpt lat="49.73697" lon="2.32563">
        <ele>82.7</ele>
        <time>2023-03-01T13:49:32Z</time>
      </trkpt>
      <trkpt lat="49.73698" lon="2.32563">
        <ele>82.7</ele>
        <time>2023-03-01T13:49:33Z</time>
      </trkpt>
      <trkpt lat="49.73699" lon="2.32564">
        <ele>82.8</ele>
        <time>2023-03-01T13:49:35Z</time>
      </trkpt>
      <trkpt lat="49.737" lon="2.32564">
        <ele>82.9</ele>
        <time>2023-03-01T13:49:36Z</time>
      </trkpt>
      <trkpt lat="49.73702" lon="2.32564">
        <ele>83</ele>
        <time>2023-03-01T13:49:37Z</time>
      </trkpt>
      <trkpt lat="49.73703" lon="2.32564">
        <ele>83.1</ele>
        <time>2023-03-01T13:49:39Z</time>
      </trkpt>
      <trkpt lat="49.73704" lon="2.32565">
        <ele>83.2</ele>
        <time>2023-03-01T13:49:40Z</time>
      </trkpt>
      <trkpt lat="49.73705" lon="2.32565">
        <ele>83.3</ele>
        <time>2023-03-01T13:49:41Z</time>
      </trkpt>
      <trkpt lat="49.73706" lon="2.32565">
        <ele>83.4</ele>
        <time>2023-03-01T13:49:42Z</time>
      </trkpt>
      <trkpt lat="49.73707" lon="2.32565">
        <ele>83.4</ele>
        <time>2023-03-01T13:49:43Z</time>
      </trkpt>
      <trkpt lat="49.73708" lon="2.32565">
        <ele>83.5</ele>
        <time>2023-03-01T13:49:44Z</time>
      </trkpt>
      <trkpt lat="49.73709" lon="2.32566">
        <ele>83.6</ele>
        <time>2023-03-01T13:49:45Z</time>
      </trkpt>
      <trkpt lat="49.73711" lon="2.32566">
        <ele>83.8</ele>
        <time>2023-03-01T13:49:47Z</time>
      </trkpt>
      <trkpt lat="49.73712" lon="2.32567">
        <ele>83.8</ele>
        <time>2023-03-01T13:49:48Z</time>
      </trkpt>
      <trkpt lat="49.73713" lon="2.32567">
        <ele>83.9</ele>
        <time>2023-03-01T13:49:49Z</time>
      </trkpt>
      <trkpt lat="49.73715" lon="2.32567">
        <ele>84</ele>
        <time>2023-03-01T13:49:51Z</time>
      </trkpt>
      <trkpt lat="49.73716" lon="2.32567">
        <ele>84.1</ele>
        <time>2023-03-01T13:49:53Z</time>
      </trkpt>
      <trkpt lat="49.73717" lon="2.32567">
        <ele>84.2</ele>
        <time>2023-03-01T13:49:54Z</time>
      </trkpt>
      <trkpt lat="49.73718" lon="2.32568">
        <ele>84.3</ele>
        <time>2023-03-01T13:49:55Z</time>
      </trkpt>
      <trkpt lat="49.7372" lon="2.32568">
        <ele>84.4</ele>
        <time>2023-03-01T13:49:56Z</time>
      </trkpt>
      <trkpt lat="49.73722" lon="2.32569">
        <ele>84.5</ele>
        <time>2023-03-01T13:49:57Z</time>
      </trkpt>
      <trkpt lat="49.73722" lon="2.32569">
        <ele>84.6</ele>
        <time>2023-03-01T13:49:59Z</time>
      </trkpt>
      <trkpt lat="49.73723" lon="2.3257">
        <ele>84.6</ele>
        <time>2023-03-01T13:50:00Z</time>
      </trkpt>
      <trkpt lat="49.73724" lon="2.3257">
        <ele>84.7</ele>
        <time>2023-03-01T13:50:01Z</time>
      </trkpt>
      <trkpt lat="49.73725" lon="2.32571">
        <ele>84.8</ele>
        <time>2023-03-01T13:50:02Z</time>
      </trkpt>
      <trkpt lat="49.73726" lon="2.32571">
        <ele>84.8</ele>
        <time>2023-03-01T13:50:03Z</time>
      </trkpt>
      <trkpt lat="49.73727" lon="2.32572">
        <ele>84.9</ele>
        <time>2023-03-01T13:50:04Z</time>
      </trkpt>
      <trkpt lat="49.73728" lon="2.32573">
        <ele>85</ele>
        <time>2023-03-01T13:50:05Z</time>
      </trkpt>
      <trkpt lat="49.73728" lon="2.32574">
        <ele>85</ele>
        <time>2023-03-01T13:50:06Z</time>
      </trkpt>
      <trkpt lat="49.73729" lon="2.32575">
        <ele>85.1</ele>
        <time>2023-03-01T13:50:08Z</time>
      </trkpt>
      <trkpt lat="49.7373" lon="2.32575">
        <ele>85.2</ele>
        <time>2023-03-01T13:50:09Z</time>
      </trkpt>
      <trkpt lat="49.73731" lon="2.32575">
        <ele>85.2</ele>
        <time>2023-03-01T13:50:10Z</time>
      </trkpt>
      <trkpt lat="49.73732" lon="2.32576">
        <ele>85.3</ele>
        <time>2023-03-01T13:50:11Z</time>
      </trkpt>
      <trkpt lat="49.73733" lon="2.32576">
        <ele>85.4</ele>
        <time>2023-03-01T13:50:12Z</time>
      </trkpt>
      <trkpt lat="49.73734" lon="2.32576">
        <ele>85.4</ele>
        <time>2023-03-01T13:50:13Z</time>
      </trkpt>
      <trkpt lat="49.73735" lon="2.32576">
        <ele>85.5</ele>
        <time>2023-03-01T13:50:14Z</time>
      </trkpt>
      <trkpt lat="49.73735" lon="2.32577">
        <ele>85.6</ele>
        <time>2023-03-01T13:50:15Z</time>
      </trkpt>
      <trkpt lat="49.73736" lon="2.32577">
        <ele>85.6</ele>
        <time>2023-03-01T13:50:17Z</time>
      </trkpt>
      <trkpt lat="49.73737" lon="2.32578">
        <ele>85.7</ele>
        <time>2023-03-01T13:50:18Z</time>
      </trkpt>
      <trkpt lat="49.73738" lon="2.32578">
        <ele>85.7</ele>
        <time>2023-03-01T13:50:19Z</time>
      </trkpt>
      <trkpt lat="49.73739" lon="2.32579">
        <ele>85.8</ele>
        <time>2023-03-01T13:50:20Z</time>
      </trkpt>
      <trkpt lat="49.7374" lon="2.3258">
        <ele>85.9</ele>
        <time>2023-03-01T13:50:21Z</time>
      </trkpt>
      <trkpt lat="49.73741" lon="2.3258">
        <ele>86</ele>
        <time>2023-03-01T13:50:22Z</time>
      </trkpt>
      <trkpt lat="49.73742" lon="2.32581">
        <ele>86</ele>
        <time>2023-03-01T13:50:23Z</time>
      </trkpt>
      <trkpt lat="49.73743" lon="2.32582">
        <ele>86.1</ele>
        <time>2023-03-01T13:50:24Z</time>
      </trkpt>
      <trkpt lat="49.73744" lon="2.32583">
        <ele>86.2</ele>
        <time>2023-03-01T13:50:25Z</time>
      </trkpt>
      <trkpt lat="49.73746" lon="2.32584">
        <ele>86.3</ele>
        <time>2023-03-01T13:50:26Z</time>
      </trkpt>
      <trkpt lat="49.73746" lon="2.32584">
        <ele>86.4</ele>
        <time>2023-03-01T13:50:28Z</time>
      </trkpt>
      <trkpt lat="49.73747" lon="2.32585">
        <ele>86.4</ele>
        <time>2023-03-01T13:50:29Z</time>
      </trkpt>
      <trkpt lat="49.73748" lon="2.32585">
        <ele>86.5</ele>
        <time>2023-03-01T13:50:30Z</time>
      </trkpt>
      <trkpt lat="49.73749" lon="2.32586">
        <ele>86.6</ele>
        <time>2023-03-01T13:50:31Z</time>
      </trkpt>
      <trkpt lat="49.7375" lon="2.32586">
        <ele>86.6</ele>
        <time>2023-03-01T13:50:32Z</time>
      </trkpt>
      <trkpt lat="49.73751" lon="2.32587">
        <ele>86.7</ele>
        <time>2023-03-01T13:50:33Z</time>
      </trkpt>
      <trkpt lat="49.73752" lon="2.32587">
        <ele>86.8</ele>
        <time>2023-03-01T13:50:35Z</time>
      </trkpt>
      <trkpt lat="49.73753" lon="2.32588">
        <ele>86.8</ele>
        <time>2023-03-01T13:50:36Z</time>
      </trkpt>
      <trkpt lat="49.73754" lon="2.32588">
        <ele>86.9</ele>
        <time>2023-03-01T13:50:37Z</time>
      </trkpt>
      <trkpt lat="49.73755" lon="2.32589">
        <ele>87</ele>
        <time>2023-03-01T13:50:38Z</time>
      </trkpt>
      <trkpt lat="49.73756" lon="2.32589">
        <ele>87</ele>
        <time>2023-03-01T13:50:39Z</time>
      </trkpt>
      <trkpt lat="49.73759" lon="2.3259">
        <ele>87.2</ele>
        <time>2023-03-01T13:50:40Z</time>
      </trkpt>
      <trkpt lat="49.7376" lon="2.3259">
        <ele>87.2</ele>
        <time>2023-03-01T13:50:41Z</time>
      </trkpt>
      <trkpt lat="49.73761" lon="2.32591">
        <ele>87.3</ele>
        <time>2023-03-01T13:50:43Z</time>
      </trkpt>
      <trkpt lat="49.73762" lon="2.32591">
        <ele>87.4</ele>
        <time>2023-03-01T13:50:44Z</time>
      </trkpt>
      <trkpt lat="49.73763" lon="2.32591">
        <ele>87.4</ele>
        <time>2023-03-01T13:50:45Z</time>
      </trkpt>
      <trkpt lat="49.73764" lon="2.32591">
        <ele>87.5</ele>
        <time>2023-03-01T13:50:46Z</time>
      </trkpt>
      <trkpt lat="49.73764" lon="2.32592">
        <ele>87.5</ele>
        <time>2023-03-01T13:50:47Z</time>
      </trkpt>
      <trkpt lat="49.73766" lon="2.32592">
        <ele>87.6</ele>
        <time>2023-03-01T13:50:48Z</time>
      </trkpt>
      <trkpt lat="49.73767" lon="2.32592">
        <ele>87.7</ele>
        <time>2023-03-01T13:50:49Z</time>
      </trkpt>
      <trkpt lat="49.73768" lon="2.32592">
        <ele>87.8</ele>
        <time>2023-03-01T13:50:51Z</time>
      </trkpt>
      <trkpt lat="49.73769" lon="2.32592">
        <ele>87.9</ele>
        <time>2023-03-01T13:50:52Z</time>
      </trkpt>
      <trkpt lat="49.7377" lon="2.32592">
        <ele>88</ele>
        <time>2023-03-01T13:50:53Z</time>
      </trkpt>
      <trkpt lat="49.73771" lon="2.32592">
        <ele>88</ele>
        <time>2023-03-01T13:50:54Z</time>
      </trkpt>
      <trkpt lat="49.73772" lon="2.32592">
        <ele>88.1</ele>
        <time>2023-03-01T13:50:55Z</time>
      </trkpt>
      <trkpt lat="49.73773" lon="2.32592">
        <ele>88.2</ele>
        <time>2023-03-01T13:50:56Z</time>
      </trkpt>
      <trkpt lat="49.73775" lon="2.32592">
        <ele>88.3</ele>
        <time>2023-03-01T13:50:57Z</time>
      </trkpt>
      <trkpt lat="49.73776" lon="2.32592">
        <ele>88.4</ele>
        <time>2023-03-01T13:50:58Z</time>
      </trkpt>
      <trkpt lat="49.73777" lon="2.32592">
        <ele>88.4</ele>
        <time>2023-03-01T13:50:59Z</time>
      </trkpt>
      <trkpt lat="49.73778" lon="2.32592">
        <ele>88.5</ele>
        <time>2023-03-01T13:51:01Z</time>
      </trkpt>
      <trkpt lat="49.73779" lon="2.32592">
        <ele>88.6</ele>
        <time>2023-03-01T13:51:02Z</time>
      </trkpt>
      <trkpt lat="49.7378" lon="2.32593">
        <ele>88.7</ele>
        <time>2023-03-01T13:51:03Z</time>
      </trkpt>
      <trkpt lat="49.73781" lon="2.32593">
        <ele>88.8</ele>
        <time>2023-03-01T13:51:04Z</time>
      </trkpt>
      <trkpt lat="49.73782" lon="2.32593">
        <ele>88.9</ele>
        <time>2023-03-01T13:51:05Z</time>
      </trkpt>
      <trkpt lat="49.73783" lon="2.32594">
        <ele>88.9</ele>
        <time>2023-03-01T13:51:06Z</time>
      </trkpt>
      <trkpt lat="49.73784" lon="2.32594">
        <ele>89.1</ele>
        <time>2023-03-01T13:51:07Z</time>
      </trkpt>
      <trkpt lat="49.73785" lon="2.32594">
        <ele>89.2</ele>
        <time>2023-03-01T13:51:08Z</time>
      </trkpt>
      <trkpt lat="49.73786" lon="2.32595">
        <ele>89.3</ele>
        <time>2023-03-01T13:51:10Z</time>
      </trkpt>
      <trkpt lat="49.73788" lon="2.32595">
        <ele>89.4</ele>
        <time>2023-03-01T13:51:11Z</time>
      </trkpt>
      <trkpt lat="49.73789" lon="2.32595">
        <ele>89.5</ele>
        <time>2023-03-01T13:51:12Z</time>
      </trkpt>
      <trkpt lat="49.7379" lon="2.32595">
        <ele>89.6</ele>
        <time>2023-03-01T13:51:13Z</time>
      </trkpt>
      <trkpt lat="49.73791" lon="2.32595">
        <ele>89.7</ele>
        <time>2023-03-01T13:51:15Z</time>
      </trkpt>
      <trkpt lat="49.73792" lon="2.32595">
        <ele>89.7</ele>
        <time>2023-03-01T13:51:16Z</time>
      </trkpt>
      <trkpt lat="49.73793" lon="2.32595">
        <ele>89.8</ele>
        <time>2023-03-01T13:51:17Z</time>
      </trkpt>
      <trkpt lat="49.73794" lon="2.32595">
        <ele>89.9</ele>
        <time>2023-03-01T13:51:18Z</time>
      </trkpt>
      <trkpt lat="49.73795" lon="2.32595">
        <ele>90</ele>
        <time>2023-03-01T13:51:19Z</time>
      </trkpt>
      <trkpt lat="49.73797" lon="2.32596">
        <ele>90.1</ele>
        <time>2023-03-01T13:51:21Z</time>
      </trkpt>
      <trkpt lat="49.73798" lon="2.32596">
        <ele>90.2</ele>
        <time>2023-03-01T13:51:22Z</time>
      </trkpt>
      <trkpt lat="49.73799" lon="2.32596">
        <ele>90.3</ele>
        <time>2023-03-01T13:51:23Z</time>
      </trkpt>
      <trkpt lat="49.738" lon="2.32596">
        <ele>90.4</ele>
        <time>2023-03-01T13:51:25Z</time>
      </trkpt>
      <trkpt lat="49.73801" lon="2.32595">
        <ele>90.5</ele>
        <time>2023-03-01T13:51:26Z</time>
      </trkpt>
      <trkpt lat="49.73802" lon="2.32595">
        <ele>90.6</ele>
        <time>2023-03-01T13:51:27Z</time>
      </trkpt>
      <trkpt lat="49.73803" lon="2.32595">
        <ele>90.7</ele>
        <time>2023-03-01T13:51:28Z</time>
      </trkpt>
      <trkpt lat="49.73804" lon="2.32595">
        <ele>90.7</ele>
        <time>2023-03-01T13:51:29Z</time>
      </trkpt>
      <trkpt lat="49.73805" lon="2.32595">
        <ele>90.8</ele>
        <time>2023-03-01T13:51:30Z</time>
      </trkpt>
      <trkpt lat="49.73806" lon="2.32595">
        <ele>90.9</ele>
        <time>2023-03-01T13:51:32Z</time>
      </trkpt>
      <trkpt lat="49.73807" lon="2.32595">
        <ele>91</ele>
        <time>2023-03-01T13:51:33Z</time>
      </trkpt>
      <trkpt lat="49.73809" lon="2.32594">
        <ele>91.1</ele>
        <time>2023-03-01T13:51:34Z</time>
      </trkpt>
      <trkpt lat="49.7381" lon="2.32594">
        <ele>91.2</ele>
        <time>2023-03-01T13:51:35Z</time>
      </trkpt>
      <trkpt lat="49.73811" lon="2.32595">
        <ele>91.3</ele>
        <time>2023-03-01T13:51:36Z</time>
      </trkpt>
      <trkpt lat="49.73812" lon="2.32595">
        <ele>91.3</ele>
        <time>2023-03-01T13:51:37Z</time>
      </trkpt>
      <trkpt lat="49.73812" lon="2.32595">
        <ele>91.4</ele>
        <time>2023-03-01T13:51:39Z</time>
      </trkpt>
      <trkpt lat="49.73814" lon="2.32595">
        <ele>91.5</ele>
        <time>2023-03-01T13:51:40Z</time>
      </trkpt>
      <trkpt lat="49.73815" lon="2.32596">
        <ele>91.6</ele>
        <time>2023-03-01T13:51:41Z</time>
      </trkpt>
      <trkpt lat="49.73816" lon="2.32596">
        <ele>91.7</ele>
        <time>2023-03-01T13:51:42Z</time>
      </trkpt>
      <trkpt lat="49.73817" lon="2.32596">
        <ele>91.8</ele>
        <time>2023-03-01T13:51:43Z</time>
      </trkpt>
      <trkpt lat="49.73818" lon="2.32597">
        <ele>91.8</ele>
        <time>2023-03-01T13:51:45Z</time>
      </trkpt>
      <trkpt lat="49.73819" lon="2.32597">
        <ele>91.9</ele>
        <time>2023-03-01T13:51:46Z</time>
      </trkpt>
      <trkpt lat="49.7382" lon="2.32597">
        <ele>92</ele>
        <time>2023-03-01T13:51:47Z</time>
      </trkpt>
      <trkpt lat="49.73821" lon="2.32597">
        <ele>92.1</ele>
        <time>2023-03-01T13:51:48Z</time>
      </trkpt>
      <trkpt lat="49.73822" lon="2.32598">
        <ele>92.1</ele>
        <time>2023-03-01T13:51:49Z</time>
      </trkpt>
      <trkpt lat="49.73823" lon="2.32598">
        <ele>92.2</ele>
        <time>2023-03-01T13:51:50Z</time>
      </trkpt>
      <trkpt lat="49.73823" lon="2.32598">
        <ele>92.3</ele>
        <time>2023-03-01T13:51:51Z</time>
      </trkpt>
      <trkpt lat="49.73825" lon="2.32598">
        <ele>92.3</ele>
        <time>2023-03-01T13:51:52Z</time>
      </trkpt>
      <trkpt lat="49.73825" lon="2.32598">
        <ele>92.4</ele>
        <time>2023-03-01T13:51:53Z</time>
      </trkpt>
      <trkpt lat="49.73826" lon="2.32598">
        <ele>92.5</ele>
        <time>2023-03-01T13:51:55Z</time>
      </trkpt>
      <trkpt lat="49.73828" lon="2.32598">
        <ele>92.6</ele>
        <time>2023-03-01T13:51:56Z</time>
      </trkpt>
      <trkpt lat="49.73829" lon="2.32599">
        <ele>92.7</ele>
        <time>2023-03-01T13:51:57Z</time>
      </trkpt>
      <trkpt lat="49.7383" lon="2.32599">
        <ele>92.7</ele>
        <time>2023-03-01T13:51:58Z</time>
      </trkpt>
      <trkpt lat="49.73831" lon="2.32599">
        <ele>92.8</ele>
        <time>2023-03-01T13:52:00Z</time>
      </trkpt>
      <trkpt lat="49.73832" lon="2.32599">
        <ele>92.9</ele>
        <time>2023-03-01T13:52:01Z</time>
      </trkpt>
      <trkpt lat="49.73833" lon="2.32599">
        <ele>93</ele>
        <time>2023-03-01T13:52:02Z</time>
      </trkpt>
      <trkpt lat="49.73834" lon="2.32599">
        <ele>93</ele>
        <time>2023-03-01T13:52:03Z</time>
      </trkpt>
      <trkpt lat="49.73836" lon="2.326">
        <ele>93.2</ele>
        <time>2023-03-01T13:52:04Z</time>
      </trkpt>
      <trkpt lat="49.73837" lon="2.326">
        <ele>93.2</ele>
        <time>2023-03-01T13:52:05Z</time>
      </trkpt>
      <trkpt lat="49.73837" lon="2.326">
        <ele>93.3</ele>
        <time>2023-03-01T13:52:06Z</time>
      </trkpt>
      <trkpt lat="49.73838" lon="2.326">
        <ele>93.3</ele>
        <time>2023-03-01T13:52:07Z</time>
      </trkpt>
      <trkpt lat="49.73839" lon="2.326">
        <ele>93.4</ele>
        <time>2023-03-01T13:52:09Z</time>
      </trkpt>
      <trkpt lat="49.7384" lon="2.32601">
        <ele>93.4</ele>
        <time>2023-03-01T13:52:10Z</time>
      </trkpt>
      <trkpt lat="49.73841" lon="2.32601">
        <ele>93.5</ele>
        <time>2023-03-01T13:52:11Z</time>
      </trkpt>
      <trkpt lat="49.73842" lon="2.32602">
        <ele>93.6</ele>
        <time>2023-03-01T13:52:12Z</time>
      </trkpt>
      <trkpt lat="49.73843" lon="2.32602">
        <ele>93.7</ele>
        <time>2023-03-01T13:52:13Z</time>
      </trkpt>
      <trkpt lat="49.73844" lon="2.32602">
        <ele>93.7</ele>
        <time>2023-03-01T13:52:14Z</time>
      </trkpt>
      <trkpt lat="49.73845" lon="2.32602">
        <ele>93.8</ele>
        <time>2023-03-01T13:52:16Z</time>
      </trkpt>
      <trkpt lat="49.73846" lon="2.32603">
        <ele>93.9</ele>
        <time>2023-03-01T13:52:17Z</time>
      </trkpt>
      <trkpt lat="49.73847" lon="2.32603">
        <ele>94</ele>
        <time>2023-03-01T13:52:18Z</time>
      </trkpt>
      <trkpt lat="49.73849" lon="2.32603">
        <ele>94</ele>
        <time>2023-03-01T13:52:19Z</time>
      </trkpt>
      <trkpt lat="49.7385" lon="2.32603">
        <ele>94.1</ele>
        <time>2023-03-01T13:52:20Z</time>
      </trkpt>
      <trkpt lat="49.73851" lon="2.32603">
        <ele>94.1</ele>
        <time>2023-03-01T13:52:21Z</time>
      </trkpt>
      <trkpt lat="49.73852" lon="2.32604">
        <ele>94.3</ele>
        <time>2023-03-01T13:52:22Z</time>
      </trkpt>
      <trkpt lat="49.73853" lon="2.32604">
        <ele>94.3</ele>
        <time>2023-03-01T13:52:23Z</time>
      </trkpt>
      <trkpt lat="49.73855" lon="2.32604">
        <ele>94.4</ele>
        <time>2023-03-01T13:52:25Z</time>
      </trkpt>
      <trkpt lat="49.73856" lon="2.32605">
        <ele>94.4</ele>
        <time>2023-03-01T13:52:26Z</time>
      </trkpt>
      <trkpt lat="49.73857" lon="2.32605">
        <ele>94.5</ele>
        <time>2023-03-01T13:52:27Z</time>
      </trkpt>
      <trkpt lat="49.73858" lon="2.32605">
        <ele>94.6</ele>
        <time>2023-03-01T13:52:28Z</time>
      </trkpt>
      <trkpt lat="49.73859" lon="2.32605">
        <ele>94.6</ele>
        <time>2023-03-01T13:52:29Z</time>
      </trkpt>
      <trkpt lat="49.7386" lon="2.32606">
        <ele>94.7</ele>
        <time>2023-03-01T13:52:30Z</time>
      </trkpt>
      <trkpt lat="49.73861" lon="2.32606">
        <ele>94.8</ele>
        <time>2023-03-01T13:52:32Z</time>
      </trkpt>
      <trkpt lat="49.73863" lon="2.32607">
        <ele>94.9</ele>
        <time>2023-03-01T13:52:33Z</time>
      </trkpt>
      <trkpt lat="49.73864" lon="2.32607">
        <ele>95</ele>
        <time>2023-03-01T13:52:34Z</time>
      </trkpt>
      <trkpt lat="49.73865" lon="2.32607">
        <ele>95</ele>
        <time>2023-03-01T13:52:35Z</time>
      </trkpt>
      <trkpt lat="49.73866" lon="2.32608">
        <ele>95.1</ele>
        <time>2023-03-01T13:52:36Z</time>
      </trkpt>
      <trkpt lat="49.73867" lon="2.32608">
        <ele>95.1</ele>
        <time>2023-03-01T13:52:37Z</time>
      </trkpt>
      <trkpt lat="49.73868" lon="2.32609">
        <ele>95.2</ele>
        <time>2023-03-01T13:52:38Z</time>
      </trkpt>
      <trkpt lat="49.73869" lon="2.32609">
        <ele>95.3</ele>
        <time>2023-03-01T13:52:40Z</time>
      </trkpt>
      <trkpt lat="49.7387" lon="2.32609">
        <ele>95.3</ele>
        <time>2023-03-01T13:52:41Z</time>
      </trkpt>
      <trkpt lat="49.73871" lon="2.32609">
        <ele>95.4</ele>
        <time>2023-03-01T13:52:42Z</time>
      </trkpt>
      <trkpt lat="49.73872" lon="2.3261">
        <ele>95.5</ele>
        <time>2023-03-01T13:52:43Z</time>
      </trkpt>
      <trkpt lat="49.73874" lon="2.3261">
        <ele>95.6</ele>
        <time>2023-03-01T13:52:45Z</time>
      </trkpt>
      <trkpt lat="49.73876" lon="2.3261">
        <ele>95.7</ele>
        <time>2023-03-01T13:52:47Z</time>
      </trkpt>
      <trkpt lat="49.73877" lon="2.32611">
        <ele>95.7</ele>
        <time>2023-03-01T13:52:48Z</time>
      </trkpt>
      <trkpt lat="49.73878" lon="2.32611">
        <ele>95.8</ele>
        <time>2023-03-01T13:52:49Z</time>
      </trkpt>
      <trkpt lat="49.73879" lon="2.32611">
        <ele>95.9</ele>
        <time>2023-03-01T13:52:50Z</time>
      </trkpt>
      <trkpt lat="49.7388" lon="2.32611">
        <ele>95.9</ele>
        <time>2023-03-01T13:52:51Z</time>
      </trkpt>
      <trkpt lat="49.73881" lon="2.32611">
        <ele>96</ele>
        <time>2023-03-01T13:52:52Z</time>
      </trkpt>
      <trkpt lat="49.73882" lon="2.32612">
        <ele>96</ele>
        <time>2023-03-01T13:52:54Z</time>
      </trkpt>
      <trkpt lat="49.73883" lon="2.32612">
        <ele>96.1</ele>
        <time>2023-03-01T13:52:55Z</time>
      </trkpt>
      <trkpt lat="49.73884" lon="2.32612">
        <ele>96.2</ele>
        <time>2023-03-01T13:52:56Z</time>
      </trkpt>
      <trkpt lat="49.73885" lon="2.32613">
        <ele>96.3</ele>
        <time>2023-03-01T13:52:57Z</time>
      </trkpt>
      <trkpt lat="49.73886" lon="2.32613">
        <ele>96.3</ele>
        <time>2023-03-01T13:52:58Z</time>
      </trkpt>
      <trkpt lat="49.73887" lon="2.32613">
        <ele>96.4</ele>
        <time>2023-03-01T13:53:00Z</time>
      </trkpt>
      <trkpt lat="49.73888" lon="2.32614">
        <ele>96.5</ele>
        <time>2023-03-01T13:53:01Z</time>
      </trkpt>
      <trkpt lat="49.73889" lon="2.32614">
        <ele>96.5</ele>
        <time>2023-03-01T13:53:02Z</time>
      </trkpt>
      <trkpt lat="49.7389" lon="2.32615">
        <ele>96.6</ele>
        <time>2023-03-01T13:53:03Z</time>
      </trkpt>
      <trkpt lat="49.73891" lon="2.32615">
        <ele>96.6</ele>
        <time>2023-03-01T13:53:04Z</time>
      </trkpt>
      <trkpt lat="49.73892" lon="2.32615">
        <ele>96.7</ele>
        <time>2023-03-01T13:53:05Z</time>
      </trkpt>
      <trkpt lat="49.73893" lon="2.32615">
        <ele>96.8</ele>
        <time>2023-03-01T13:53:06Z</time>
      </trkpt>
      <trkpt lat="49.73895" lon="2.32616">
        <ele>96.9</ele>
        <time>2023-03-01T13:53:08Z</time>
      </trkpt>
      <trkpt lat="49.73896" lon="2.32616">
        <ele>96.9</ele>
        <time>2023-03-01T13:53:09Z</time>
      </trkpt>
      <trkpt lat="49.73897" lon="2.32616">
        <ele>97</ele>
        <time>2023-03-01T13:53:10Z</time>
      </trkpt>
      <trkpt lat="49.73898" lon="2.32616">
        <ele>97.1</ele>
        <time>2023-03-01T13:53:11Z</time>
      </trkpt>
      <trkpt lat="49.73899" lon="2.32616">
        <ele>97.1</ele>
        <time>2023-03-01T13:53:13Z</time>
      </trkpt>
      <trkpt lat="49.739" lon="2.32616">
        <ele>97.2</ele>
        <time>2023-03-01T13:53:14Z</time>
      </trkpt>
      <trkpt lat="49.73901" lon="2.32616">
        <ele>97.3</ele>
        <time>2023-03-01T13:53:15Z</time>
      </trkpt>
      <trkpt lat="49.73903" lon="2.32617">
        <ele>97.3</ele>
        <time>2023-03-01T13:53:16Z</time>
      </trkpt>
      <trkpt lat="49.73904" lon="2.32617">
        <ele>97.4</ele>
        <time>2023-03-01T13:53:17Z</time>
      </trkpt>
      <trkpt lat="49.73906" lon="2.32617">
        <ele>97.5</ele>
        <time>2023-03-01T13:53:18Z</time>
      </trkpt>
      <trkpt lat="49.73907" lon="2.32617">
        <ele>97.5</ele>
        <time>2023-03-01T13:53:20Z</time>
      </trkpt>
      <trkpt lat="49.73908" lon="2.32617">
        <ele>97.6</ele>
        <time>2023-03-01T13:53:21Z</time>
      </trkpt>
      <trkpt lat="49.73909" lon="2.32617">
        <ele>97.7</ele>
        <time>2023-03-01T13:53:22Z</time>
      </trkpt>
      <trkpt lat="49.7391" lon="2.32617">
        <ele>97.7</ele>
        <time>2023-03-01T13:53:23Z</time>
      </trkpt>
      <trkpt lat="49.73911" lon="2.32617">
        <ele>97.8</ele>
        <time>2023-03-01T13:53:24Z</time>
      </trkpt>
      <trkpt lat="49.73913" lon="2.32617">
        <ele>97.9</ele>
        <time>2023-03-01T13:53:26Z</time>
      </trkpt>
      <trkpt lat="49.73914" lon="2.32617">
        <ele>97.9</ele>
        <time>2023-03-01T13:53:27Z</time>
      </trkpt>
      <trkpt lat="49.73916" lon="2.32617">
        <ele>98</ele>
        <time>2023-03-01T13:53:28Z</time>
      </trkpt>
      <trkpt lat="49.73917" lon="2.32617">
        <ele>98.1</ele>
        <time>2023-03-01T13:53:29Z</time>
      </trkpt>
      <trkpt lat="49.73918" lon="2.32617">
        <ele>98.2</ele>
        <time>2023-03-01T13:53:30Z</time>
      </trkpt>
      <trkpt lat="49.73919" lon="2.32617">
        <ele>98.2</ele>
        <time>2023-03-01T13:53:31Z</time>
      </trkpt>
      <trkpt lat="49.73921" lon="2.32617">
        <ele>98.3</ele>
        <time>2023-03-01T13:53:33Z</time>
      </trkpt>
      <trkpt lat="49.73922" lon="2.32617">
        <ele>98.4</ele>
        <time>2023-03-01T13:53:34Z</time>
      </trkpt>
      <trkpt lat="49.73923" lon="2.32618">
        <ele>98.5</ele>
        <time>2023-03-01T13:53:35Z</time>
      </trkpt>
      <trkpt lat="49.73925" lon="2.32618">
        <ele>98.5</ele>
        <time>2023-03-01T13:53:37Z</time>
      </trkpt>
      <trkpt lat="49.73926" lon="2.32618">
        <ele>98.6</ele>
        <time>2023-03-01T13:53:38Z</time>
      </trkpt>
      <trkpt lat="49.73928" lon="2.32619">
        <ele>98.7</ele>
        <time>2023-03-01T13:53:39Z</time>
      </trkpt>
      <trkpt lat="49.73929" lon="2.32619">
        <ele>98.8</ele>
        <time>2023-03-01T13:53:40Z</time>
      </trkpt>
      <trkpt lat="49.7393" lon="2.32619">
        <ele>98.8</ele>
        <time>2023-03-01T13:53:42Z</time>
      </trkpt>
      <trkpt lat="49.73931" lon="2.3262">
        <ele>98.9</ele>
        <time>2023-03-01T13:53:43Z</time>
      </trkpt>
      <trkpt lat="49.73932" lon="2.32619">
        <ele>98.9</ele>
        <time>2023-03-01T13:53:44Z</time>
      </trkpt>
      <trkpt lat="49.73932" lon="2.32619">
        <ele>98.9</ele>
        <time>2023-03-01T13:53:45Z</time>
      </trkpt>
      <trkpt lat="49.73933" lon="2.32618">
        <ele>98.9</ele>
        <time>2023-03-01T13:53:46Z</time>
      </trkpt>
      <trkpt lat="49.73934" lon="2.32618">
        <ele>98.9</ele>
        <time>2023-03-01T13:53:48Z</time>
      </trkpt>
      <trkpt lat="49.73935" lon="2.32617">
        <ele>98.9</ele>
        <time>2023-03-01T13:53:49Z</time>
      </trkpt>
      <trkpt lat="49.73935" lon="2.32617">
        <ele>98.9</ele>
        <time>2023-03-01T13:53:50Z</time>
      </trkpt>
      <trkpt lat="49.73936" lon="2.32617">
        <ele>99</ele>
        <time>2023-03-01T13:53:51Z</time>
      </trkpt>
      <trkpt lat="49.73937" lon="2.32617">
        <ele>99</ele>
        <time>2023-03-01T13:53:52Z</time>
      </trkpt>
      <trkpt lat="49.73937" lon="2.32617">
        <ele>99</ele>
        <time>2023-03-01T13:53:53Z</time>
      </trkpt>
      <trkpt lat="49.73938" lon="2.32616">
        <ele>99</ele>
        <time>2023-03-01T13:53:54Z</time>
      </trkpt>
      <trkpt lat="49.73938" lon="2.32616">
        <ele>99</ele>
        <time>2023-03-01T13:53:55Z</time>
      </trkpt>
      <trkpt lat="49.73939" lon="2.32616">
        <ele>99</ele>
        <time>2023-03-01T13:53:56Z</time>
      </trkpt>
      <trkpt lat="49.73939" lon="2.32617">
        <ele>99</ele>
        <time>2023-03-01T13:53:58Z</time>
      </trkpt>
      <trkpt lat="49.73939" lon="2.32619">
        <ele>99</ele>
        <time>2023-03-01T13:53:59Z</time>
      </trkpt>
      <trkpt lat="49.73939" lon="2.32621">
        <ele>99</ele>
        <time>2023-03-01T13:54:00Z</time>
      </trkpt>
      <trkpt lat="49.7394" lon="2.3262">
        <ele>99</ele>
        <time>2023-03-01T13:54:02Z</time>
      </trkpt>
      <trkpt lat="49.7394" lon="2.32619">
        <ele>99</ele>
        <time>2023-03-01T13:54:03Z</time>
      </trkpt>
      <trkpt lat="49.73939" lon="2.32618">
        <ele>99</ele>
        <time>2023-03-01T13:54:05Z</time>
      </trkpt>
      <trkpt lat="49.73939" lon="2.32618">
        <ele>99</ele>
        <time>2023-03-01T13:54:06Z</time>
      </trkpt>
      <trkpt lat="49.73939" lon="2.32618">
        <ele>99</ele>
        <time>2023-03-01T13:54:08Z</time>
      </trkpt>
      <trkpt lat="49.73939" lon="2.32618">
        <ele>99</ele>
        <time>2023-03-01T13:54:09Z</time>
      </trkpt>
      <trkpt lat="49.73938" lon="2.32618">
        <ele>99</ele>
        <time>2023-03-01T13:54:10Z</time>
      </trkpt>
      <trkpt lat="49.73938" lon="2.32617">
        <ele>99</ele>
        <time>2023-03-01T13:54:12Z</time>
      </trkpt>
      <trkpt lat="49.73938" lon="2.32616">
        <ele>99</ele>
        <time>2023-03-01T13:54:13Z</time>
      </trkpt>
      <trkpt lat="49.73938" lon="2.32615">
        <ele>99</ele>
        <time>2023-03-01T13:54:14Z</time>
      </trkpt>
      <trkpt lat="49.73937" lon="2.32614">
        <ele>99</ele>
        <time>2023-03-01T13:54:15Z</time>
      </trkpt>
      <trkpt lat="49.73936" lon="2.32612">
        <ele>99</ele>
        <time>2023-03-01T13:54:16Z</time>
      </trkpt>
      <trkpt lat="49.73935" lon="2.32611">
        <ele>99</ele>
        <time>2023-03-01T13:54:17Z</time>
      </trkpt>
      <trkpt lat="49.73934" lon="2.32609">
        <ele>99</ele>
        <time>2023-03-01T13:54:18Z</time>
      </trkpt>
      <trkpt lat="49.73933" lon="2.32607">
        <ele>98.9</ele>
        <time>2023-03-01T13:54:20Z</time>
      </trkpt>
      <trkpt lat="49.73932" lon="2.32606">
        <ele>98.9</ele>
        <time>2023-03-01T13:54:21Z</time>
      </trkpt>
      <trkpt lat="49.73932" lon="2.32604">
        <ele>98.9</ele>
        <time>2023-03-01T13:54:22Z</time>
      </trkpt>
      <trkpt lat="49.73931" lon="2.32603">
        <ele>98.9</ele>
        <time>2023-03-01T13:54:23Z</time>
      </trkpt>
      <trkpt lat="49.7393" lon="2.32602">
        <ele>98.9</ele>
        <time>2023-03-01T13:54:24Z</time>
      </trkpt>
      <trkpt lat="49.7393" lon="2.326">
        <ele>98.9</ele>
        <time>2023-03-01T13:54:25Z</time>
      </trkpt>
      <trkpt lat="49.73929" lon="2.32599">
        <ele>98.9</ele>
        <time>2023-03-01T13:54:27Z</time>
      </trkpt>
      <trkpt lat="49.73929" lon="2.32597">
        <ele>98.9</ele>
        <time>2023-03-01T13:54:28Z</time>
      </trkpt>
      <trkpt lat="49.73929" lon="2.32595">
        <ele>98.9</ele>
        <time>2023-03-01T13:54:29Z</time>
      </trkpt>
      <trkpt lat="49.73928" lon="2.32594">
        <ele>98.9</ele>
        <time>2023-03-01T13:54:30Z</time>
      </trkpt>
      <trkpt lat="49.73928" lon="2.32592">
        <ele>98.9</ele>
        <time>2023-03-01T13:54:31Z</time>
      </trkpt>
      <trkpt lat="49.73928" lon="2.32591">
        <ele>98.9</ele>
        <time>2023-03-01T13:54:32Z</time>
      </trkpt>
      <trkpt lat="49.73928" lon="2.32589">
        <ele>98.9</ele>
        <time>2023-03-01T13:54:34Z</time>
      </trkpt>
      <trkpt lat="49.73928" lon="2.32587">
        <ele>98.8</ele>
        <time>2023-03-01T13:54:35Z</time>
      </trkpt>
      <trkpt lat="49.73927" lon="2.32584">
        <ele>98.8</ele>
        <time>2023-03-01T13:54:36Z</time>
      </trkpt>
      <trkpt lat="49.73927" lon="2.32583">
        <ele>98.8</ele>
        <time>2023-03-01T13:54:37Z</time>
      </trkpt>
      <trkpt lat="49.73927" lon="2.32582">
        <ele>98.8</ele>
        <time>2023-03-01T13:54:38Z</time>
      </trkpt>
      <trkpt lat="49.73926" lon="2.3258">
        <ele>98.8</ele>
        <time>2023-03-01T13:54:39Z</time>
      </trkpt>
      <trkpt lat="49.73926" lon="2.32578">
        <ele>98.8</ele>
        <time>2023-03-01T13:54:40Z</time>
      </trkpt>
      <trkpt lat="49.73926" lon="2.32577">
        <ele>98.8</ele>
        <time>2023-03-01T13:54:42Z</time>
      </trkpt>
      <trkpt lat="49.73926" lon="2.32575">
        <ele>98.8</ele>
        <time>2023-03-01T13:54:43Z</time>
      </trkpt>
      <trkpt lat="49.73926" lon="2.32574">
        <ele>98.8</ele>
        <time>2023-03-01T13:54:44Z</time>
      </trkpt>
      <trkpt lat="49.73926" lon="2.32572">
        <ele>98.8</ele>
        <time>2023-03-01T13:54:45Z</time>
      </trkpt>
      <trkpt lat="49.73925" lon="2.3257">
        <ele>98.8</ele>
        <time>2023-03-01T13:54:46Z</time>
      </trkpt>
      <trkpt lat="49.73925" lon="2.32568">
        <ele>98.8</ele>
        <time>2023-03-01T13:54:47Z</time>
      </trkpt>
      <trkpt lat="49.73925" lon="2.32567">
        <ele>98.8</ele>
        <time>2023-03-01T13:54:48Z</time>
      </trkpt>
      <trkpt lat="49.73924" lon="2.32565">
        <ele>98.7</ele>
        <time>2023-03-01T13:54:50Z</time>
      </trkpt>
      <trkpt lat="49.73924" lon="2.32564">
        <ele>98.7</ele>
        <time>2023-03-01T13:54:51Z</time>
      </trkpt>
      <trkpt lat="49.73924" lon="2.32562">
        <ele>98.7</ele>
        <time>2023-03-01T13:54:52Z</time>
      </trkpt>
      <trkpt lat="49.73923" lon="2.32559">
        <ele>98.7</ele>
        <time>2023-03-01T13:54:53Z</time>
      </trkpt>
      <trkpt lat="49.73923" lon="2.32558">
        <ele>98.7</ele>
        <time>2023-03-01T13:54:54Z</time>
      </trkpt>
      <trkpt lat="49.73923" lon="2.32557">
        <ele>98.7</ele>
        <time>2023-03-01T13:54:55Z</time>
      </trkpt>
      <trkpt lat="49.73922" lon="2.32554">
        <ele>98.7</ele>
        <time>2023-03-01T13:54:56Z</time>
      </trkpt>
      <trkpt lat="49.73922" lon="2.32552">
        <ele>98.7</ele>
        <time>2023-03-01T13:54:57Z</time>
      </trkpt>
      <trkpt lat="49.73922" lon="2.32551">
        <ele>98.7</ele>
        <time>2023-03-01T13:54:59Z</time>
      </trkpt>
      <trkpt lat="49.73922" lon="2.32549">
        <ele>98.7</ele>
        <time>2023-03-01T13:55:00Z</time>
      </trkpt>
      <trkpt lat="49.73921" lon="2.32548">
        <ele>98.6</ele>
        <time>2023-03-01T13:55:01Z</time>
      </trkpt>
      <trkpt lat="49.73921" lon="2.32546">
        <ele>98.6</ele>
        <time>2023-03-01T13:55:02Z</time>
      </trkpt>
      <trkpt lat="49.73921" lon="2.32545">
        <ele>98.6</ele>
        <time>2023-03-01T13:55:03Z</time>
      </trkpt>
      <trkpt lat="49.73921" lon="2.32543">
        <ele>98.6</ele>
        <time>2023-03-01T13:55:04Z</time>
      </trkpt>
      <trkpt lat="49.7392" lon="2.32541">
        <ele>98.6</ele>
        <time>2023-03-01T13:55:05Z</time>
      </trkpt>
      <trkpt lat="49.7392" lon="2.32539">
        <ele>98.6</ele>
        <time>2023-03-01T13:55:07Z</time>
      </trkpt>
      <trkpt lat="49.7392" lon="2.32537">
        <ele>98.6</ele>
        <time>2023-03-01T13:55:08Z</time>
      </trkpt>
      <trkpt lat="49.7392" lon="2.32536">
        <ele>98.6</ele>
        <time>2023-03-01T13:55:09Z</time>
      </trkpt>
      <trkpt lat="49.73919" lon="2.32532">
        <ele>98.5</ele>
        <time>2023-03-01T13:55:10Z</time>
      </trkpt>
      <trkpt lat="49.73918" lon="2.3253">
        <ele>98.5</ele>
        <time>2023-03-01T13:55:11Z</time>
      </trkpt>
      <trkpt lat="49.73918" lon="2.32528">
        <ele>98.5</ele>
        <time>2023-03-01T13:55:12Z</time>
      </trkpt>
      <trkpt lat="49.73918" lon="2.32525">
        <ele>98.5</ele>
        <time>2023-03-01T13:55:13Z</time>
      </trkpt>
      <trkpt lat="49.73918" lon="2.32523">
        <ele>98.4</ele>
        <time>2023-03-01T13:55:15Z</time>
      </trkpt>
      <trkpt lat="49.73918" lon="2.32522">
        <ele>98.4</ele>
        <time>2023-03-01T13:55:16Z</time>
      </trkpt>
      <trkpt lat="49.73918" lon="2.3252">
        <ele>98.4</ele>
        <time>2023-03-01T13:55:17Z</time>
      </trkpt>
      <trkpt lat="49.73918" lon="2.32517">
        <ele>98.4</ele>
        <time>2023-03-01T13:55:18Z</time>
      </trkpt>
      <trkpt lat="49.73918" lon="2.32514">
        <ele>98.4</ele>
        <time>2023-03-01T13:55:19Z</time>
      </trkpt>
      <trkpt lat="49.73918" lon="2.32513">
        <ele>98.3</ele>
        <time>2023-03-01T13:55:21Z</time>
      </trkpt>
      <trkpt lat="49.73918" lon="2.32511">
        <ele>98.3</ele>
        <time>2023-03-01T13:55:22Z</time>
      </trkpt>
      <trkpt lat="49.73917" lon="2.32509">
        <ele>98.3</ele>
        <time>2023-03-01T13:55:23Z</time>
      </trkpt>
      <trkpt lat="49.73917" lon="2.32507">
        <ele>98.3</ele>
        <time>2023-03-01T13:55:24Z</time>
      </trkpt>
      <trkpt lat="49.73917" lon="2.32506">
        <ele>98.3</ele>
        <time>2023-03-01T13:55:25Z</time>
      </trkpt>
      <trkpt lat="49.73917" lon="2.32504">
        <ele>98.3</ele>
        <time>2023-03-01T13:55:26Z</time>
      </trkpt>
      <trkpt lat="49.73917" lon="2.32503">
        <ele>98.3</ele>
        <time>2023-03-01T13:55:27Z</time>
      </trkpt>
      <trkpt lat="49.73916" lon="2.32501">
        <ele>98.2</ele>
        <time>2023-03-01T13:55:29Z</time>
      </trkpt>
      <trkpt lat="49.73916" lon="2.325">
        <ele>98.2</ele>
        <time>2023-03-01T13:55:30Z</time>
      </trkpt>
      <trkpt lat="49.73916" lon="2.32498">
        <ele>98.2</ele>
        <time>2023-03-01T13:55:31Z</time>
      </trkpt>
      <trkpt lat="49.73915" lon="2.32496">
        <ele>98.2</ele>
        <time>2023-03-01T13:55:32Z</time>
      </trkpt>
      <trkpt lat="49.73915" lon="2.32495">
        <ele>98.2</ele>
        <time>2023-03-01T13:55:33Z</time>
      </trkpt>
      <trkpt lat="49.73915" lon="2.32493">
        <ele>98.2</ele>
        <time>2023-03-01T13:55:34Z</time>
      </trkpt>
      <trkpt lat="49.73915" lon="2.32491">
        <ele>98.2</ele>
        <time>2023-03-01T13:55:35Z</time>
      </trkpt>
      <trkpt lat="49.73915" lon="2.3249">
        <ele>98.2</ele>
        <time>2023-03-01T13:55:37Z</time>
      </trkpt>
      <trkpt lat="49.73915" lon="2.32488">
        <ele>98.1</ele>
        <time>2023-03-01T13:55:38Z</time>
      </trkpt>
      <trkpt lat="49.73915" lon="2.32487">
        <ele>98.1</ele>
        <time>2023-03-01T13:55:39Z</time>
      </trkpt>
      <trkpt lat="49.73915" lon="2.32485">
        <ele>98.1</ele>
        <time>2023-03-01T13:55:40Z</time>
      </trkpt>
      <trkpt lat="49.73915" lon="2.32483">
        <ele>98.1</ele>
        <time>2023-03-01T13:55:42Z</time>
      </trkpt>
      <trkpt lat="49.73915" lon="2.32481">
        <ele>98.1</ele>
        <time>2023-03-01T13:55:43Z</time>
      </trkpt>
      <trkpt lat="49.73914" lon="2.32477">
        <ele>98.1</ele>
        <time>2023-03-01T13:55:44Z</time>
      </trkpt>
      <trkpt lat="49.73914" lon="2.32476">
        <ele>98</ele>
        <time>2023-03-01T13:55:46Z</time>
      </trkpt>
      <trkpt lat="49.73914" lon="2.32474">
        <ele>98</ele>
        <time>2023-03-01T13:55:47Z</time>
      </trkpt>
      <trkpt lat="49.73914" lon="2.32473">
        <ele>98</ele>
        <time>2023-03-01T13:55:48Z</time>
      </trkpt>
      <trkpt lat="49.73914" lon="2.32471">
        <ele>98</ele>
        <time>2023-03-01T13:55:49Z</time>
      </trkpt>
      <trkpt lat="49.73914" lon="2.32469">
        <ele>98</ele>
        <time>2023-03-01T13:55:50Z</time>
      </trkpt>
      <trkpt lat="49.73913" lon="2.32467">
        <ele>98</ele>
        <time>2023-03-01T13:55:51Z</time>
      </trkpt>
      <trkpt lat="49.73913" lon="2.32465">
        <ele>98</ele>
        <time>2023-03-01T13:55:52Z</time>
      </trkpt>
      <trkpt lat="49.73912" lon="2.32463">
        <ele>97.9</ele>
        <time>2023-03-01T13:55:54Z</time>
      </trkpt>
      <trkpt lat="49.73912" lon="2.32461">
        <ele>97.9</ele>
        <time>2023-03-01T13:55:55Z</time>
      </trkpt>
      <trkpt lat="49.73912" lon="2.32459">
        <ele>97.9</ele>
        <time>2023-03-01T13:55:56Z</time>
      </trkpt>
      <trkpt lat="49.73911" lon="2.32456">
        <ele>97.9</ele>
        <time>2023-03-01T13:55:57Z</time>
      </trkpt>
      <trkpt lat="49.73911" lon="2.32454">
        <ele>97.9</ele>
        <time>2023-03-01T13:55:58Z</time>
      </trkpt>
      <trkpt lat="49.7391" lon="2.32453">
        <ele>97.9</ele>
        <time>2023-03-01T13:55:59Z</time>
      </trkpt>
      <trkpt lat="49.7391" lon="2.32451">
        <ele>97.9</ele>
        <time>2023-03-01T13:56:00Z</time>
      </trkpt>
      <trkpt lat="49.7391" lon="2.32449">
        <ele>97.8</ele>
        <time>2023-03-01T13:56:01Z</time>
      </trkpt>
      <trkpt lat="49.7391" lon="2.32446">
        <ele>97.8</ele>
        <time>2023-03-01T13:56:02Z</time>
      </trkpt>
      <trkpt lat="49.73909" lon="2.32444">
        <ele>97.8</ele>
        <time>2023-03-01T13:56:04Z</time>
      </trkpt>
      <trkpt lat="49.73909" lon="2.32442">
        <ele>97.8</ele>
        <time>2023-03-01T13:56:05Z</time>
      </trkpt>
      <trkpt lat="49.73908" lon="2.32439">
        <ele>97.8</ele>
        <time>2023-03-01T13:56:06Z</time>
      </trkpt>
      <trkpt lat="49.73908" lon="2.32438">
        <ele>97.8</ele>
        <time>2023-03-01T13:56:07Z</time>
      </trkpt>
      <trkpt lat="49.73908" lon="2.32436">
        <ele>97.8</ele>
        <time>2023-03-01T13:56:08Z</time>
      </trkpt>
      <trkpt lat="49.73908" lon="2.32434">
        <ele>97.8</ele>
        <time>2023-03-01T13:56:09Z</time>
      </trkpt>
      <trkpt lat="49.73907" lon="2.32433">
        <ele>97.8</ele>
        <time>2023-03-01T13:56:10Z</time>
      </trkpt>
      <trkpt lat="49.73907" lon="2.32431">
        <ele>97.8</ele>
        <time>2023-03-01T13:56:12Z</time>
      </trkpt>
      <trkpt lat="49.73907" lon="2.3243">
        <ele>97.7</ele>
        <time>2023-03-01T13:56:13Z</time>
      </trkpt>
      <trkpt lat="49.73906" lon="2.32428">
        <ele>97.7</ele>
        <time>2023-03-01T13:56:14Z</time>
      </trkpt>
      <trkpt lat="49.73906" lon="2.32426">
        <ele>97.7</ele>
        <time>2023-03-01T13:56:15Z</time>
      </trkpt>
      <trkpt lat="49.73905" lon="2.32423">
        <ele>97.7</ele>
        <time>2023-03-01T13:56:16Z</time>
      </trkpt>
      <trkpt lat="49.73905" lon="2.32422">
        <ele>97.7</ele>
        <time>2023-03-01T13:56:18Z</time>
      </trkpt>
      <trkpt lat="49.73904" lon="2.3242">
        <ele>97.7</ele>
        <time>2023-03-01T13:56:19Z</time>
      </trkpt>
      <trkpt lat="49.73904" lon="2.32417">
        <ele>97.7</ele>
        <time>2023-03-01T13:56:20Z</time>
      </trkpt>
      <trkpt lat="49.73904" lon="2.32416">
        <ele>97.7</ele>
        <time>2023-03-01T13:56:21Z</time>
      </trkpt>
      <trkpt lat="49.73904" lon="2.32415">
        <ele>97.7</ele>
        <time>2023-03-01T13:56:22Z</time>
      </trkpt>
      <trkpt lat="49.73904" lon="2.32412">
        <ele>97.6</ele>
        <time>2023-03-01T13:56:23Z</time>
      </trkpt>
      <trkpt lat="49.73904" lon="2.3241">
        <ele>97.6</ele>
        <time>2023-03-01T13:56:25Z</time>
      </trkpt>
      <trkpt lat="49.73904" lon="2.32409">
        <ele>97.6</ele>
        <time>2023-03-01T13:56:26Z</time>
      </trkpt>
      <trkpt lat="49.73904" lon="2.32407">
        <ele>97.6</ele>
        <time>2023-03-01T13:56:27Z</time>
      </trkpt>
      <trkpt lat="49.73904" lon="2.32405">
        <ele>97.6</ele>
        <time>2023-03-01T13:56:28Z</time>
      </trkpt>
      <trkpt lat="49.73904" lon="2.32403">
        <ele>97.6</ele>
        <time>2023-03-01T13:56:29Z</time>
      </trkpt>
      <trkpt lat="49.73904" lon="2.324">
        <ele>97.6</ele>
        <time>2023-03-01T13:56:30Z</time>
      </trkpt>
      <trkpt lat="49.73904" lon="2.32399">
        <ele>97.6</ele>
        <time>2023-03-01T13:56:31Z</time>
      </trkpt>
      <trkpt lat="49.73904" lon="2.32396">
        <ele>97.6</ele>
        <time>2023-03-01T13:56:32Z</time>
      </trkpt>
      <trkpt lat="49.73904" lon="2.32394">
        <ele>97.6</ele>
        <time>2023-03-01T13:56:33Z</time>
      </trkpt>
      <trkpt lat="49.73904" lon="2.32392">
        <ele>97.6</ele>
        <time>2023-03-01T13:56:34Z</time>
      </trkpt>
      <trkpt lat="49.73904" lon="2.32391">
        <ele>97.6</ele>
        <time>2023-03-01T13:56:35Z</time>
      </trkpt>
      <trkpt lat="49.73903" lon="2.32388">
        <ele>97.6</ele>
        <time>2023-03-01T13:56:37Z</time>
      </trkpt>
      <trkpt lat="49.73903" lon="2.32386">
        <ele>97.6</ele>
        <time>2023-03-01T13:56:38Z</time>
      </trkpt>
      <trkpt lat="49.73903" lon="2.32383">
        <ele>97.6</ele>
        <time>2023-03-01T13:56:39Z</time>
      </trkpt>
      <trkpt lat="49.73903" lon="2.32381">
        <ele>97.6</ele>
        <time>2023-03-01T13:56:40Z</time>
      </trkpt>
      <trkpt lat="49.73902" lon="2.32377">
        <ele>97.7</ele>
        <time>2023-03-01T13:56:41Z</time>
      </trkpt>
      <trkpt lat="49.73902" lon="2.32375">
        <ele>97.7</ele>
        <time>2023-03-01T13:56:43Z</time>
      </trkpt>
      <trkpt lat="49.73902" lon="2.32374">
        <ele>97.7</ele>
        <time>2023-03-01T13:56:44Z</time>
      </trkpt>
      <trkpt lat="49.73902" lon="2.32372">
        <ele>97.7</ele>
        <time>2023-03-01T13:56:45Z</time>
      </trkpt>
      <trkpt lat="49.73902" lon="2.32371">
        <ele>97.7</ele>
        <time>2023-03-01T13:56:46Z</time>
      </trkpt>
      <trkpt lat="49.73902" lon="2.32369">
        <ele>97.7</ele>
        <time>2023-03-01T13:56:47Z</time>
      </trkpt>
      <trkpt lat="49.73902" lon="2.32367">
        <ele>97.8</ele>
        <time>2023-03-01T13:56:48Z</time>
      </trkpt>
      <trkpt lat="49.73901" lon="2.32365">
        <ele>97.8</ele>
        <time>2023-03-01T13:56:50Z</time>
      </trkpt>
      <trkpt lat="49.73901" lon="2.32362">
        <ele>97.8</ele>
        <time>2023-03-01T13:56:51Z</time>
      </trkpt>
      <trkpt lat="49.73901" lon="2.32361">
        <ele>97.8</ele>
        <time>2023-03-01T13:56:52Z</time>
      </trkpt>
      <trkpt lat="49.73901" lon="2.32359">
        <ele>97.8</ele>
        <time>2023-03-01T13:56:53Z</time>
      </trkpt>
      <trkpt lat="49.739" lon="2.32357">
        <ele>97.9</ele>
        <time>2023-03-01T13:56:54Z</time>
      </trkpt>
      <trkpt lat="49.739" lon="2.32355">
        <ele>97.9</ele>
        <time>2023-03-01T13:56:55Z</time>
      </trkpt>
      <trkpt lat="49.73899" lon="2.32351">
        <ele>97.9</ele>
        <time>2023-03-01T13:56:57Z</time>
      </trkpt>
      <trkpt lat="49.73899" lon="2.32349">
        <ele>98</ele>
        <time>2023-03-01T13:56:58Z</time>
      </trkpt>
      <trkpt lat="49.73898" lon="2.32347">
        <ele>98</ele>
        <time>2023-03-01T13:56:59Z</time>
      </trkpt>
      <trkpt lat="49.73898" lon="2.32344">
        <ele>98</ele>
        <time>2023-03-01T13:57:01Z</time>
      </trkpt>
      <trkpt lat="49.73898" lon="2.32343">
        <ele>98.1</ele>
        <time>2023-03-01T13:57:02Z</time>
      </trkpt>
      <trkpt lat="49.73897" lon="2.32342">
        <ele>98.1</ele>
        <time>2023-03-01T13:57:03Z</time>
      </trkpt>
      <trkpt lat="49.73897" lon="2.3234">
        <ele>98.1</ele>
        <time>2023-03-01T13:57:05Z</time>
      </trkpt>
      <trkpt lat="49.73897" lon="2.32338">
        <ele>98.1</ele>
        <time>2023-03-01T13:57:06Z</time>
      </trkpt>
      <trkpt lat="49.73897" lon="2.32336">
        <ele>98.2</ele>
        <time>2023-03-01T13:57:07Z</time>
      </trkpt>
      <trkpt lat="49.73896" lon="2.32333">
        <ele>98.2</ele>
        <time>2023-03-01T13:57:08Z</time>
      </trkpt>
      <trkpt lat="49.73896" lon="2.32332">
        <ele>98.2</ele>
        <time>2023-03-01T13:57:09Z</time>
      </trkpt>
      <trkpt lat="49.73896" lon="2.32331">
        <ele>98.3</ele>
        <time>2023-03-01T13:57:10Z</time>
      </trkpt>
      <trkpt lat="49.73896" lon="2.32329">
        <ele>98.3</ele>
        <time>2023-03-01T13:57:11Z</time>
      </trkpt>
      <trkpt lat="49.73896" lon="2.32328">
        <ele>98.3</ele>
        <time>2023-03-01T13:57:12Z</time>
      </trkpt>
      <trkpt lat="49.73896" lon="2.32326">
        <ele>98.3</ele>
        <time>2023-03-01T13:57:13Z</time>
      </trkpt>
      <trkpt lat="49.73896" lon="2.32324">
        <ele>98.4</ele>
        <time>2023-03-01T13:57:14Z</time>
      </trkpt>
      <trkpt lat="49.73896" lon="2.32322">
        <ele>98.4</ele>
        <time>2023-03-01T13:57:15Z</time>
      </trkpt>
      <trkpt lat="49.73896" lon="2.3232">
        <ele>98.4</ele>
        <time>2023-03-01T13:57:17Z</time>
      </trkpt>
      <trkpt lat="49.73895" lon="2.32317">
        <ele>98.5</ele>
        <time>2023-03-01T13:57:18Z</time>
      </trkpt>
      <trkpt lat="49.73895" lon="2.32316">
        <ele>98.5</ele>
        <time>2023-03-01T13:57:19Z</time>
      </trkpt>
      <trkpt lat="49.73895" lon="2.32314">
        <ele>98.5</ele>
        <time>2023-03-01T13:57:20Z</time>
      </trkpt>
      <trkpt lat="49.73895" lon="2.32311">
        <ele>98.5</ele>
        <time>2023-03-01T13:57:21Z</time>
      </trkpt>
      <trkpt lat="49.73895" lon="2.3231">
        <ele>98.5</ele>
        <time>2023-03-01T13:57:22Z</time>
      </trkpt>
      <trkpt lat="49.73895" lon="2.32309">
        <ele>98.6</ele>
        <time>2023-03-01T13:57:23Z</time>
      </trkpt>
      <trkpt lat="49.73894" lon="2.32307">
        <ele>98.6</ele>
        <time>2023-03-01T13:57:24Z</time>
      </trkpt>
      <trkpt lat="49.73894" lon="2.32305">
        <ele>98.6</ele>
        <time>2023-03-01T13:57:25Z</time>
      </trkpt>
      <trkpt lat="49.73893" lon="2.32303">
        <ele>98.6</ele>
        <time>2023-03-01T13:57:27Z</time>
      </trkpt>
      <trkpt lat="49.73893" lon="2.323">
        <ele>98.7</ele>
        <time>2023-03-01T13:57:28Z</time>
      </trkpt>
      <trkpt lat="49.73893" lon="2.32298">
        <ele>98.7</ele>
        <time>2023-03-01T13:57:29Z</time>
      </trkpt>
      <trkpt lat="49.73892" lon="2.32295">
        <ele>98.7</ele>
        <time>2023-03-01T13:57:30Z</time>
      </trkpt>
      <trkpt lat="49.73892" lon="2.32293">
        <ele>98.7</ele>
        <time>2023-03-01T13:57:32Z</time>
      </trkpt>
      <trkpt lat="49.73892" lon="2.32292">
        <ele>98.7</ele>
        <time>2023-03-01T13:57:33Z</time>
      </trkpt>
      <trkpt lat="49.73892" lon="2.32289">
        <ele>98.8</ele>
        <time>2023-03-01T13:57:34Z</time>
      </trkpt>
      <trkpt lat="49.73892" lon="2.32288">
        <ele>98.8</ele>
        <time>2023-03-01T13:57:35Z</time>
      </trkpt>
      <trkpt lat="49.73892" lon="2.32286">
        <ele>98.8</ele>
        <time>2023-03-01T13:57:36Z</time>
      </trkpt>
      <trkpt lat="49.73892" lon="2.32285">
        <ele>98.8</ele>
        <time>2023-03-01T13:57:37Z</time>
      </trkpt>
      <trkpt lat="49.73891" lon="2.32283">
        <ele>98.8</ele>
        <time>2023-03-01T13:57:38Z</time>
      </trkpt>
      <trkpt lat="49.73891" lon="2.32281">
        <ele>98.8</ele>
        <time>2023-03-01T13:57:39Z</time>
      </trkpt>
      <trkpt lat="49.73891" lon="2.32279">
        <ele>98.9</ele>
        <time>2023-03-01T13:57:40Z</time>
      </trkpt>
      <trkpt lat="49.73891" lon="2.32278">
        <ele>98.9</ele>
        <time>2023-03-01T13:57:42Z</time>
      </trkpt>
      <trkpt lat="49.73891" lon="2.32276">
        <ele>98.9</ele>
        <time>2023-03-01T13:57:43Z</time>
      </trkpt>
      <trkpt lat="49.7389" lon="2.32274">
        <ele>98.9</ele>
        <time>2023-03-01T13:57:44Z</time>
      </trkpt>
      <trkpt lat="49.7389" lon="2.32272">
        <ele>98.9</ele>
        <time>2023-03-01T13:57:45Z</time>
      </trkpt>
      <trkpt lat="49.7389" lon="2.32271">
        <ele>98.9</ele>
        <time>2023-03-01T13:57:46Z</time>
      </trkpt>
      <trkpt lat="49.7389" lon="2.32269">
        <ele>99</ele>
        <time>2023-03-01T13:57:47Z</time>
      </trkpt>
      <trkpt lat="49.7389" lon="2.32267">
        <ele>99</ele>
        <time>2023-03-01T13:57:48Z</time>
      </trkpt>
      <trkpt lat="49.7389" lon="2.32266">
        <ele>99</ele>
        <time>2023-03-01T13:57:49Z</time>
      </trkpt>
      <trkpt lat="49.73889" lon="2.32264">
        <ele>99</ele>
        <time>2023-03-01T13:57:50Z</time>
      </trkpt>
      <trkpt lat="49.73889" lon="2.32263">
        <ele>99</ele>
        <time>2023-03-01T13:57:52Z</time>
      </trkpt>
      <trkpt lat="49.73889" lon="2.32261">
        <ele>99</ele>
        <time>2023-03-01T13:57:53Z</time>
      </trkpt>
      <trkpt lat="49.73889" lon="2.32258">
        <ele>99.1</ele>
        <time>2023-03-01T13:57:54Z</time>
      </trkpt>
      <trkpt lat="49.73888" lon="2.32257">
        <ele>99.1</ele>
        <time>2023-03-01T13:57:55Z</time>
      </trkpt>
      <trkpt lat="49.73888" lon="2.32256">
        <ele>99.1</ele>
        <time>2023-03-01T13:57:56Z</time>
      </trkpt>
      <trkpt lat="49.73888" lon="2.32253">
        <ele>99.1</ele>
        <time>2023-03-01T13:57:57Z</time>
      </trkpt>
      <trkpt lat="49.73887" lon="2.32251">
        <ele>99.1</ele>
        <time>2023-03-01T13:57:58Z</time>
      </trkpt>
      <trkpt lat="49.73887" lon="2.3225">
        <ele>99.1</ele>
        <time>2023-03-01T13:57:59Z</time>
      </trkpt>
      <trkpt lat="49.73887" lon="2.32248">
        <ele>99.2</ele>
        <time>2023-03-01T13:58:01Z</time>
      </trkpt>
      <trkpt lat="49.73887" lon="2.32247">
        <ele>99.2</ele>
        <time>2023-03-01T13:58:02Z</time>
      </trkpt>
      <trkpt lat="49.73887" lon="2.32245">
        <ele>99.2</ele>
        <time>2023-03-01T13:58:03Z</time>
      </trkpt>
      <trkpt lat="49.73886" lon="2.32243">
        <ele>99.2</ele>
        <time>2023-03-01T13:58:04Z</time>
      </trkpt>
      <trkpt lat="49.73886" lon="2.32241">
        <ele>99.2</ele>
        <time>2023-03-01T13:58:05Z</time>
      </trkpt>
      <trkpt lat="49.73886" lon="2.32238">
        <ele>99.2</ele>
        <time>2023-03-01T13:58:06Z</time>
      </trkpt>
      <trkpt lat="49.73885" lon="2.32236">
        <ele>99.2</ele>
        <time>2023-03-01T13:58:07Z</time>
      </trkpt>
      <trkpt lat="49.73885" lon="2.32235">
        <ele>99.2</ele>
        <time>2023-03-01T13:58:08Z</time>
      </trkpt>
      <trkpt lat="49.73885" lon="2.32231">
        <ele>99.3</ele>
        <time>2023-03-01T13:58:09Z</time>
      </trkpt>
      <trkpt lat="49.73884" lon="2.3223">
        <ele>99.3</ele>
        <time>2023-03-01T13:58:11Z</time>
      </trkpt>
      <trkpt lat="49.73884" lon="2.32228">
        <ele>99.3</ele>
        <time>2023-03-01T13:58:12Z</time>
      </trkpt>
      <trkpt lat="49.73884" lon="2.32226">
        <ele>99.3</ele>
        <time>2023-03-01T13:58:13Z</time>
      </trkpt>
      <trkpt lat="49.73884" lon="2.32224">
        <ele>99.3</ele>
        <time>2023-03-01T13:58:14Z</time>
      </trkpt>
      <trkpt lat="49.73884" lon="2.32222">
        <ele>99.3</ele>
        <time>2023-03-01T13:58:16Z</time>
      </trkpt>
      <trkpt lat="49.73883" lon="2.32219">
        <ele>99.3</ele>
        <time>2023-03-01T13:58:17Z</time>
      </trkpt>
      <trkpt lat="49.73883" lon="2.32217">
        <ele>99.4</ele>
        <time>2023-03-01T13:58:18Z</time>
      </trkpt>
      <trkpt lat="49.73882" lon="2.32215">
        <ele>99.4</ele>
        <time>2023-03-01T13:58:19Z</time>
      </trkpt>
      <trkpt lat="49.73882" lon="2.32214">
        <ele>99.4</ele>
        <time>2023-03-01T13:58:20Z</time>
      </trkpt>
      <trkpt lat="49.73882" lon="2.32212">
        <ele>99.4</ele>
        <time>2023-03-01T13:58:21Z</time>
      </trkpt>
      <trkpt lat="49.73882" lon="2.3221">
        <ele>99.4</ele>
        <time>2023-03-01T13:58:22Z</time>
      </trkpt>
      <trkpt lat="49.73882" lon="2.32208">
        <ele>99.5</ele>
        <time>2023-03-01T13:58:24Z</time>
      </trkpt>
      <trkpt lat="49.73881" lon="2.32206">
        <ele>99.5</ele>
        <time>2023-03-01T13:58:25Z</time>
      </trkpt>
      <trkpt lat="49.73881" lon="2.32204">
        <ele>99.5</ele>
        <time>2023-03-01T13:58:26Z</time>
      </trkpt>
      <trkpt lat="49.73881" lon="2.32201">
        <ele>99.5</ele>
        <time>2023-03-01T13:58:27Z</time>
      </trkpt>
      <trkpt lat="49.73881" lon="2.32199">
        <ele>99.5</ele>
        <time>2023-03-01T13:58:28Z</time>
      </trkpt>
      <trkpt lat="49.73881" lon="2.32197">
        <ele>99.6</ele>
        <time>2023-03-01T13:58:29Z</time>
      </trkpt>
      <trkpt lat="49.73881" lon="2.32196">
        <ele>99.6</ele>
        <time>2023-03-01T13:58:31Z</time>
      </trkpt>
      <trkpt lat="49.73881" lon="2.32194">
        <ele>99.6</ele>
        <time>2023-03-01T13:58:32Z</time>
      </trkpt>
      <trkpt lat="49.73881" lon="2.32193">
        <ele>99.6</ele>
        <time>2023-03-01T13:58:33Z</time>
      </trkpt>
      <trkpt lat="49.73881" lon="2.32191">
        <ele>99.7</ele>
        <time>2023-03-01T13:58:34Z</time>
      </trkpt>
      <trkpt lat="49.73881" lon="2.32188">
        <ele>99.7</ele>
        <time>2023-03-01T13:58:35Z</time>
      </trkpt>
      <trkpt lat="49.73881" lon="2.32186">
        <ele>99.7</ele>
        <time>2023-03-01T13:58:36Z</time>
      </trkpt>
      <trkpt lat="49.73881" lon="2.32185">
        <ele>99.7</ele>
        <time>2023-03-01T13:58:37Z</time>
      </trkpt>
      <trkpt lat="49.7388" lon="2.32183">
        <ele>99.8</ele>
        <time>2023-03-01T13:58:38Z</time>
      </trkpt>
      <trkpt lat="49.7388" lon="2.32182">
        <ele>99.8</ele>
        <time>2023-03-01T13:58:40Z</time>
      </trkpt>
      <trkpt lat="49.7388" lon="2.3218">
        <ele>99.8</ele>
        <time>2023-03-01T13:58:41Z</time>
      </trkpt>
      <trkpt lat="49.7388" lon="2.32178">
        <ele>99.9</ele>
        <time>2023-03-01T13:58:42Z</time>
      </trkpt>
      <trkpt lat="49.73881" lon="2.32176">
        <ele>99.9</ele>
        <time>2023-03-01T13:58:43Z</time>
      </trkpt>
      <trkpt lat="49.73881" lon="2.32175">
        <ele>99.9</ele>
        <time>2023-03-01T13:58:44Z</time>
      </trkpt>
      <trkpt lat="49.7388" lon="2.32173">
        <ele>99.9</ele>
        <time>2023-03-01T13:58:45Z</time>
      </trkpt>
      <trkpt lat="49.7388" lon="2.32171">
        <ele>100</ele>
        <time>2023-03-01T13:58:46Z</time>
      </trkpt>
      <trkpt lat="49.7388" lon="2.3217">
        <ele>100</ele>
        <time>2023-03-01T13:58:47Z</time>
      </trkpt>
      <trkpt lat="49.7388" lon="2.32168">
        <ele>100</ele>
        <time>2023-03-01T13:58:49Z</time>
      </trkpt>
      <trkpt lat="49.73879" lon="2.32166">
        <ele>100</ele>
        <time>2023-03-01T13:58:50Z</time>
      </trkpt>
      <trkpt lat="49.73879" lon="2.32164">
        <ele>100.1</ele>
        <time>2023-03-01T13:58:51Z</time>
      </trkpt>
      <trkpt lat="49.73879" lon="2.32162">
        <ele>100.1</ele>
        <time>2023-03-01T13:58:52Z</time>
      </trkpt>
      <trkpt lat="49.73879" lon="2.3216">
        <ele>100.1</ele>
        <time>2023-03-01T13:58:53Z</time>
      </trkpt>
      <trkpt lat="49.73878" lon="2.32159">
        <ele>100.2</ele>
        <time>2023-03-01T13:58:54Z</time>
      </trkpt>
      <trkpt lat="49.73878" lon="2.32157">
        <ele>100.2</ele>
        <time>2023-03-01T13:58:55Z</time>
      </trkpt>
      <trkpt lat="49.73878" lon="2.32155">
        <ele>100.2</ele>
        <time>2023-03-01T13:58:56Z</time>
      </trkpt>
      <trkpt lat="49.73878" lon="2.32154">
        <ele>100.3</ele>
        <time>2023-03-01T13:58:57Z</time>
      </trkpt>
      <trkpt lat="49.73878" lon="2.32152">
        <ele>100.3</ele>
        <time>2023-03-01T13:58:59Z</time>
      </trkpt>
      <trkpt lat="49.73878" lon="2.3215">
        <ele>100.3</ele>
        <time>2023-03-01T13:59:00Z</time>
      </trkpt>
      <trkpt lat="49.73877" lon="2.32147">
        <ele>100.4</ele>
        <time>2023-03-01T13:59:01Z</time>
      </trkpt>
      <trkpt lat="49.73877" lon="2.32146">
        <ele>100.4</ele>
        <time>2023-03-01T13:59:02Z</time>
      </trkpt>
      <trkpt lat="49.73877" lon="2.32145">
        <ele>100.4</ele>
        <time>2023-03-01T13:59:03Z</time>
      </trkpt>
      <trkpt lat="49.73876" lon="2.32143">
        <ele>100.4</ele>
        <time>2023-03-01T13:59:04Z</time>
      </trkpt>
      <trkpt lat="49.73876" lon="2.32141">
        <ele>100.5</ele>
        <time>2023-03-01T13:59:05Z</time>
      </trkpt>
      <trkpt lat="49.73876" lon="2.32138">
        <ele>100.5</ele>
        <time>2023-03-01T13:59:07Z</time>
      </trkpt>
      <trkpt lat="49.73875" lon="2.32136">
        <ele>100.5</ele>
        <time>2023-03-01T13:59:08Z</time>
      </trkpt>
      <trkpt lat="49.73875" lon="2.32134">
        <ele>100.6</ele>
        <time>2023-03-01T13:59:09Z</time>
      </trkpt>
      <trkpt lat="49.73875" lon="2.32132">
        <ele>100.6</ele>
        <time>2023-03-01T13:59:10Z</time>
      </trkpt>
      <trkpt lat="49.73874" lon="2.3213">
        <ele>100.6</ele>
        <time>2023-03-01T13:59:11Z</time>
      </trkpt>
      <trkpt lat="49.73874" lon="2.32129">
        <ele>100.7</ele>
        <time>2023-03-01T13:59:13Z</time>
      </trkpt>
      <trkpt lat="49.73874" lon="2.32126">
        <ele>100.7</ele>
        <time>2023-03-01T13:59:14Z</time>
      </trkpt>
      <trkpt lat="49.73873" lon="2.32124">
        <ele>100.7</ele>
        <time>2023-03-01T13:59:15Z</time>
      </trkpt>
      <trkpt lat="49.73873" lon="2.32121">
        <ele>100.8</ele>
        <time>2023-03-01T13:59:16Z</time>
      </trkpt>
      <trkpt lat="49.73873" lon="2.32119">
        <ele>100.8</ele>
        <time>2023-03-01T13:59:17Z</time>
      </trkpt>
      <trkpt lat="49.73873" lon="2.32118">
        <ele>100.8</ele>
        <time>2023-03-01T13:59:18Z</time>
      </trkpt>
      <trkpt lat="49.73873" lon="2.32117">
        <ele>100.8</ele>
        <time>2023-03-01T13:59:19Z</time>
      </trkpt>
      <trkpt lat="49.73872" lon="2.32115">
        <ele>100.9</ele>
        <time>2023-03-01T13:59:20Z</time>
      </trkpt>
      <trkpt lat="49.73872" lon="2.32112">
        <ele>100.9</ele>
        <time>2023-03-01T13:59:22Z</time>
      </trkpt>
      <trkpt lat="49.73872" lon="2.3211">
        <ele>100.9</ele>
        <time>2023-03-01T13:59:23Z</time>
      </trkpt>
      <trkpt lat="49.73872" lon="2.32108">
        <ele>100.9</ele>
        <time>2023-03-01T13:59:24Z</time>
      </trkpt>
      <trkpt lat="49.73871" lon="2.32105">
        <ele>101</ele>
        <time>2023-03-01T13:59:25Z</time>
      </trkpt>
      <trkpt lat="49.73871" lon="2.32103">
        <ele>101</ele>
        <time>2023-03-01T13:59:26Z</time>
      </trkpt>
      <trkpt lat="49.73871" lon="2.321">
        <ele>101</ele>
        <time>2023-03-01T13:59:27Z</time>
      </trkpt>
      <trkpt lat="49.7387" lon="2.32099">
        <ele>101</ele>
        <time>2023-03-01T13:59:28Z</time>
      </trkpt>
      <trkpt lat="49.7387" lon="2.32097">
        <ele>101.1</ele>
        <time>2023-03-01T13:59:30Z</time>
      </trkpt>
      <trkpt lat="49.7387" lon="2.32095">
        <ele>101.1</ele>
        <time>2023-03-01T13:59:31Z</time>
      </trkpt>
      <trkpt lat="49.73869" lon="2.32093">
        <ele>101.1</ele>
        <time>2023-03-01T13:59:32Z</time>
      </trkpt>
      <trkpt lat="49.73869" lon="2.32091">
        <ele>101.1</ele>
        <time>2023-03-01T13:59:33Z</time>
      </trkpt>
      <trkpt lat="49.73869" lon="2.32089">
        <ele>101.1</ele>
        <time>2023-03-01T13:59:35Z</time>
      </trkpt>
      <trkpt lat="49.73868" lon="2.32087">
        <ele>101.2</ele>
        <time>2023-03-01T13:59:36Z</time>
      </trkpt>
      <trkpt lat="49.73868" lon="2.32085">
        <ele>101.2</ele>
        <time>2023-03-01T13:59:37Z</time>
      </trkpt>
      <trkpt lat="49.73867" lon="2.32082">
        <ele>101.2</ele>
        <time>2023-03-01T13:59:38Z</time>
      </trkpt>
      <trkpt lat="49.73867" lon="2.3208">
        <ele>101.2</ele>
        <time>2023-03-01T13:59:39Z</time>
      </trkpt>
      <trkpt lat="49.73867" lon="2.32078">
        <ele>101.3</ele>
        <time>2023-03-01T13:59:40Z</time>
      </trkpt>
      <trkpt lat="49.73867" lon="2.32076">
        <ele>101.3</ele>
        <time>2023-03-01T13:59:41Z</time>
      </trkpt>
      <trkpt lat="49.73866" lon="2.32074">
        <ele>101.3</ele>
        <time>2023-03-01T13:59:43Z</time>
      </trkpt>
      <trkpt lat="49.73866" lon="2.32071">
        <ele>101.3</ele>
        <time>2023-03-01T13:59:44Z</time>
      </trkpt>
      <trkpt lat="49.73866" lon="2.3207">
        <ele>101.4</ele>
        <time>2023-03-01T13:59:45Z</time>
      </trkpt>
      <trkpt lat="49.73865" lon="2.32068">
        <ele>101.4</ele>
        <time>2023-03-01T13:59:46Z</time>
      </trkpt>
      <trkpt lat="49.73865" lon="2.32065">
        <ele>101.4</ele>
        <time>2023-03-01T13:59:47Z</time>
      </trkpt>
      <trkpt lat="49.73865" lon="2.32064">
        <ele>101.4</ele>
        <time>2023-03-01T13:59:48Z</time>
      </trkpt>
      <trkpt lat="49.73865" lon="2.32062">
        <ele>101.4</ele>
        <time>2023-03-01T13:59:49Z</time>
      </trkpt>
      <trkpt lat="49.73864" lon="2.32058">
        <ele>101.5</ele>
        <time>2023-03-01T13:59:50Z</time>
      </trkpt>
      <trkpt lat="49.73864" lon="2.32057">
        <ele>101.5</ele>
        <time>2023-03-01T13:59:52Z</time>
      </trkpt>
      <trkpt lat="49.73864" lon="2.32055">
        <ele>101.5</ele>
        <time>2023-03-01T13:59:53Z</time>
      </trkpt>
      <trkpt lat="49.73863" lon="2.32053">
        <ele>101.5</ele>
        <time>2023-03-01T13:59:54Z</time>
      </trkpt>
      <trkpt lat="49.73863" lon="2.32051">
        <ele>101.5</ele>
        <time>2023-03-01T13:59:55Z</time>
      </trkpt>
      <trkpt lat="49.73863" lon="2.32049">
        <ele>101.6</ele>
        <time>2023-03-01T13:59:56Z</time>
      </trkpt>
      <trkpt lat="49.73862" lon="2.32047">
        <ele>101.6</ele>
        <time>2023-03-01T13:59:58Z</time>
      </trkpt>
      <trkpt lat="49.73862" lon="2.32045">
        <ele>101.6</ele>
        <time>2023-03-01T13:59:59Z</time>
      </trkpt>
      <trkpt lat="49.73862" lon="2.32043">
        <ele>101.6</ele>
        <time>2023-03-01T14:00:00Z</time>
      </trkpt>
      <trkpt lat="49.73862" lon="2.3204">
        <ele>101.6</ele>
        <time>2023-03-01T14:00:01Z</time>
      </trkpt>
      <trkpt lat="49.73861" lon="2.32038">
        <ele>101.6</ele>
        <time>2023-03-01T14:00:02Z</time>
      </trkpt>
      <trkpt lat="49.73861" lon="2.32036">
        <ele>101.7</ele>
        <time>2023-03-01T14:00:03Z</time>
      </trkpt>
      <trkpt lat="49.73861" lon="2.32034">
        <ele>101.7</ele>
        <time>2023-03-01T14:00:04Z</time>
      </trkpt>
      <trkpt lat="49.73861" lon="2.32031">
        <ele>101.7</ele>
        <time>2023-03-01T14:00:06Z</time>
      </trkpt>
      <trkpt lat="49.73861" lon="2.32029">
        <ele>101.7</ele>
        <time>2023-03-01T14:00:07Z</time>
      </trkpt>
      <trkpt lat="49.73861" lon="2.32027">
        <ele>101.7</ele>
        <time>2023-03-01T14:00:08Z</time>
      </trkpt>
      <trkpt lat="49.7386" lon="2.32025">
        <ele>101.8</ele>
        <time>2023-03-01T14:00:09Z</time>
      </trkpt>
      <trkpt lat="49.7386" lon="2.32023">
        <ele>101.8</ele>
        <time>2023-03-01T14:00:10Z</time>
      </trkpt>
      <trkpt lat="49.7386" lon="2.32021">
        <ele>101.8</ele>
        <time>2023-03-01T14:00:12Z</time>
      </trkpt>
      <trkpt lat="49.7386" lon="2.32019">
        <ele>101.8</ele>
        <time>2023-03-01T14:00:13Z</time>
      </trkpt>
      <trkpt lat="49.73859" lon="2.32015">
        <ele>101.9</ele>
        <time>2023-03-01T14:00:14Z</time>
      </trkpt>
      <trkpt lat="49.73859" lon="2.32014">
        <ele>101.9</ele>
        <time>2023-03-01T14:00:15Z</time>
      </trkpt>
      <trkpt lat="49.73859" lon="2.32012">
        <ele>101.9</ele>
        <time>2023-03-01T14:00:16Z</time>
      </trkpt>
      <trkpt lat="49.73859" lon="2.32009">
        <ele>101.9</ele>
        <time>2023-03-01T14:00:17Z</time>
      </trkpt>
      <trkpt lat="49.73859" lon="2.32008">
        <ele>102</ele>
        <time>2023-03-01T14:00:18Z</time>
      </trkpt>
      <trkpt lat="49.73859" lon="2.32006">
        <ele>102</ele>
        <time>2023-03-01T14:00:19Z</time>
      </trkpt>
      <trkpt lat="49.73859" lon="2.32004">
        <ele>102</ele>
        <time>2023-03-01T14:00:20Z</time>
      </trkpt>
      <trkpt lat="49.73859" lon="2.32003">
        <ele>102</ele>
        <time>2023-03-01T14:00:21Z</time>
      </trkpt>
      <trkpt lat="49.73858" lon="2.32">
        <ele>102.1</ele>
        <time>2023-03-01T14:00:23Z</time>
      </trkpt>
      <trkpt lat="49.73858" lon="2.31997">
        <ele>102.1</ele>
        <time>2023-03-01T14:00:24Z</time>
      </trkpt>
      <trkpt lat="49.73858" lon="2.31996">
        <ele>102.1</ele>
        <time>2023-03-01T14:00:25Z</time>
      </trkpt>
      <trkpt lat="49.73857" lon="2.31994">
        <ele>102.1</ele>
        <time>2023-03-01T14:00:26Z</time>
      </trkpt>
      <trkpt lat="49.73857" lon="2.31993">
        <ele>102.1</ele>
        <time>2023-03-01T14:00:27Z</time>
      </trkpt>
      <trkpt lat="49.73857" lon="2.31991">
        <ele>102.2</ele>
        <time>2023-03-01T14:00:28Z</time>
      </trkpt>
      <trkpt lat="49.73857" lon="2.31989">
        <ele>102.2</ele>
        <time>2023-03-01T14:00:29Z</time>
      </trkpt>
      <trkpt lat="49.73857" lon="2.31988">
        <ele>102.2</ele>
        <time>2023-03-01T14:00:30Z</time>
      </trkpt>
      <trkpt lat="49.73856" lon="2.31986">
        <ele>102.2</ele>
        <time>2023-03-01T14:00:32Z</time>
      </trkpt>
      <trkpt lat="49.73856" lon="2.31984">
        <ele>102.2</ele>
        <time>2023-03-01T14:00:33Z</time>
      </trkpt>
      <trkpt lat="49.73855" lon="2.31983">
        <ele>102.3</ele>
        <time>2023-03-01T14:00:34Z</time>
      </trkpt>
      <trkpt lat="49.73855" lon="2.31982">
        <ele>102.3</ele>
        <time>2023-03-01T14:00:35Z</time>
      </trkpt>
      <trkpt lat="49.73854" lon="2.31981">
        <ele>102.3</ele>
        <time>2023-03-01T14:00:36Z</time>
      </trkpt>
      <trkpt lat="49.73854" lon="2.31981">
        <ele>102.3</ele>
        <time>2023-03-01T14:00:37Z</time>
      </trkpt>
      <trkpt lat="49.73854" lon="2.31979">
        <ele>102.3</ele>
        <time>2023-03-01T14:00:38Z</time>
      </trkpt>
      <trkpt lat="49.73853" lon="2.31978">
        <ele>102.3</ele>
        <time>2023-03-01T14:00:39Z</time>
      </trkpt>
      <trkpt lat="49.73853" lon="2.31977">
        <ele>102.3</ele>
        <time>2023-03-01T14:00:41Z</time>
      </trkpt>
      <trkpt lat="49.73852" lon="2.31975">
        <ele>102.4</ele>
        <time>2023-03-01T14:00:42Z</time>
      </trkpt>
      <trkpt lat="49.73852" lon="2.31973">
        <ele>102.4</ele>
        <time>2023-03-01T14:00:43Z</time>
      </trkpt>
      <trkpt lat="49.73852" lon="2.31972">
        <ele>102.4</ele>
        <time>2023-03-01T14:00:44Z</time>
      </trkpt>
      <trkpt lat="49.73851" lon="2.31971">
        <ele>102.4</ele>
        <time>2023-03-01T14:00:45Z</time>
      </trkpt>
      <trkpt lat="49.73851" lon="2.31969">
        <ele>102.4</ele>
        <time>2023-03-01T14:00:46Z</time>
      </trkpt>
      <trkpt lat="49.7385" lon="2.31968">
        <ele>102.4</ele>
        <time>2023-03-01T14:00:47Z</time>
      </trkpt>
      <trkpt lat="49.7385" lon="2.31966">
        <ele>102.5</ele>
        <time>2023-03-01T14:00:48Z</time>
      </trkpt>
      <trkpt lat="49.7385" lon="2.31965">
        <ele>102.5</ele>
        <time>2023-03-01T14:00:49Z</time>
      </trkpt>
      <trkpt lat="49.7385" lon="2.31963">
        <ele>102.5</ele>
        <time>2023-03-01T14:00:51Z</time>
      </trkpt>
      <trkpt lat="49.73849" lon="2.31962">
        <ele>102.5</ele>
        <time>2023-03-01T14:00:52Z</time>
      </trkpt>
      <trkpt lat="49.73849" lon="2.31959">
        <ele>102.5</ele>
        <time>2023-03-01T14:00:53Z</time>
      </trkpt>
      <trkpt lat="49.73849" lon="2.31958">
        <ele>102.5</ele>
        <time>2023-03-01T14:00:54Z</time>
      </trkpt>
      <trkpt lat="49.73848" lon="2.31956">
        <ele>102.6</ele>
        <time>2023-03-01T14:00:55Z</time>
      </trkpt>
      <trkpt lat="49.73848" lon="2.31955">
        <ele>102.6</ele>
        <time>2023-03-01T14:00:56Z</time>
      </trkpt>
      <trkpt lat="49.73848" lon="2.31954">
        <ele>102.6</ele>
        <time>2023-03-01T14:00:57Z</time>
      </trkpt>
      <trkpt lat="49.73847" lon="2.31953">
        <ele>102.6</ele>
        <time>2023-03-01T14:00:58Z</time>
      </trkpt>
      <trkpt lat="49.73848" lon="2.31953">
        <ele>102.6</ele>
        <time>2023-03-01T14:01:00Z</time>
      </trkpt>
      <trkpt lat="49.73848" lon="2.31952">
        <ele>102.6</ele>
        <time>2023-03-01T14:01:01Z</time>
      </trkpt>
      <trkpt lat="49.73849" lon="2.31952">
        <ele>102.6</ele>
        <time>2023-03-01T14:01:02Z</time>
      </trkpt>
      <trkpt lat="49.73849" lon="2.31951">
        <ele>102.6</ele>
        <time>2023-03-01T14:01:03Z</time>
      </trkpt>
      <trkpt lat="49.73849" lon="2.31951">
        <ele>102.6</ele>
        <time>2023-03-01T14:01:04Z</time>
      </trkpt>
      <trkpt lat="49.73848" lon="2.3195">
        <ele>102.6</ele>
        <time>2023-03-01T14:01:06Z</time>
      </trkpt>
      <trkpt lat="49.73848" lon="2.3195">
        <ele>102.6</ele>
        <time>2023-03-01T14:01:07Z</time>
      </trkpt>
      <trkpt lat="49.73848" lon="2.31949">
        <ele>102.6</ele>
        <time>2023-03-01T14:01:08Z</time>
      </trkpt>
      <trkpt lat="49.73848" lon="2.31948">
        <ele>102.6</ele>
        <time>2023-03-01T14:01:10Z</time>
      </trkpt>
      <trkpt lat="49.73848" lon="2.31947">
        <ele>102.6</ele>
        <time>2023-03-01T14:01:11Z</time>
      </trkpt>
      <trkpt lat="49.73848" lon="2.31946">
        <ele>102.6</ele>
        <time>2023-03-01T14:01:12Z</time>
      </trkpt>
      <trkpt lat="49.73847" lon="2.31945">
        <ele>102.7</ele>
        <time>2023-03-01T14:01:14Z</time>
      </trkpt>
      <trkpt lat="49.73847" lon="2.31944">
        <ele>102.7</ele>
        <time>2023-03-01T14:01:15Z</time>
      </trkpt>
      <trkpt lat="49.73847" lon="2.31943">
        <ele>102.7</ele>
        <time>2023-03-01T14:01:16Z</time>
      </trkpt>
      <trkpt lat="49.73847" lon="2.31941">
        <ele>102.7</ele>
        <time>2023-03-01T14:01:18Z</time>
      </trkpt>
      <trkpt lat="49.73846" lon="2.3194">
        <ele>102.7</ele>
        <time>2023-03-01T14:01:19Z</time>
      </trkpt>
      <trkpt lat="49.73846" lon="2.31939">
        <ele>102.7</ele>
        <time>2023-03-01T14:01:21Z</time>
      </trkpt>
      <trkpt lat="49.73847" lon="2.31939">
        <ele>102.7</ele>
        <time>2023-03-01T14:01:23Z</time>
      </trkpt>
      <trkpt lat="49.73848" lon="2.31939">
        <ele>102.7</ele>
        <time>2023-03-01T14:01:25Z</time>
      </trkpt>
      <trkpt lat="49.73848" lon="2.3194">
        <ele>102.7</ele>
        <time>2023-03-01T14:01:26Z</time>
      </trkpt>
      <trkpt lat="49.73848" lon="2.3194">
        <ele>102.7</ele>
        <time>2023-03-01T14:01:27Z</time>
      </trkpt>
      <trkpt lat="49.73848" lon="2.31941">
        <ele>102.7</ele>
        <time>2023-03-01T14:01:29Z</time>
      </trkpt>
      <trkpt lat="49.73848" lon="2.31942">
        <ele>102.7</ele>
        <time>2023-03-01T14:01:30Z</time>
      </trkpt>
      <trkpt lat="49.73848" lon="2.31942">
        <ele>102.7</ele>
        <time>2023-03-01T14:01:31Z</time>
      </trkpt>
      <trkpt lat="49.73848" lon="2.31943">
        <ele>102.7</ele>
        <time>2023-03-01T14:01:33Z</time>
      </trkpt>
      <trkpt lat="49.73848" lon="2.31943">
        <ele>102.8</ele>
        <time>2023-03-01T14:01:34Z</time>
      </trkpt>
      <trkpt lat="49.73848" lon="2.31944">
        <ele>102.8</ele>
        <time>2023-03-01T14:01:36Z</time>
      </trkpt>
      <trkpt lat="49.73848" lon="2.31944">
        <ele>102.8</ele>
        <time>2023-03-01T14:01:38Z</time>
      </trkpt>
      <trkpt lat="49.73848" lon="2.31944">
        <ele>102.8</ele>
        <time>2023-03-01T14:01:39Z</time>
      </trkpt>
      <trkpt lat="49.73849" lon="2.31944">
        <ele>102.8</ele>
        <time>2023-03-01T14:01:40Z</time>
      </trkpt>
      <trkpt lat="49.73849" lon="2.31944">
        <ele>102.8</ele>
        <time>2023-03-01T14:01:41Z</time>
      </trkpt>
      <trkpt lat="49.73849" lon="2.31944">
        <ele>102.8</ele>
        <time>2023-03-01T14:01:42Z</time>
      </trkpt>
      <trkpt lat="49.73849" lon="2.31944">
        <ele>102.8</ele>
        <time>2023-03-01T14:01:43Z</time>
      </trkpt>
      <trkpt lat="49.73849" lon="2.31944">
        <ele>102.8</ele>
        <time>2023-03-01T14:01:45Z</time>
      </trkpt>
      <trkpt lat="49.73849" lon="2.31944">
        <ele>102.8</ele>
        <time>2023-03-01T14:01:46Z</time>
      </trkpt>
      <trkpt lat="49.73849" lon="2.31944">
        <ele>102.8</ele>
        <time>2023-03-01T14:01:47Z</time>
      </trkpt>
      <trkpt lat="49.73849" lon="2.31944">
        <ele>102.8</ele>
        <time>2023-03-01T14:01:48Z</time>
      </trkpt>
      <trkpt lat="49.73849" lon="2.31944">
        <ele>102.8</ele>
        <time>2023-03-01T14:01:49Z</time>
      </trkpt>
      <trkpt lat="49.73849" lon="2.31944">
        <ele>102.8</ele>
        <time>2023-03-01T14:01:50Z</time>
      </trkpt>
      <trkpt lat="49.73849" lon="2.31944">
        <ele>102.8</ele>
        <time>2023-03-01T14:01:51Z</time>
      </trkpt>
      <trkpt lat="49.73849" lon="2.31944">
        <ele>102.8</ele>
        <time>2023-03-01T14:01:52Z</time>
      </trkpt>
      <trkpt lat="49.73849" lon="2.31944">
        <ele>102.8</ele>
        <time>2023-03-01T14:01:53Z</time>
      </trkpt>
      <trkpt lat="49.73849" lon="2.31944">
        <ele>102.8</ele>
        <time>2023-03-01T14:01:54Z</time>
      </trkpt>
      <trkpt lat="49.73849" lon="2.31944">
        <ele>102.8</ele>
        <time>2023-03-01T14:01:55Z</time>
      </trkpt>
      <trkpt lat="49.73849" lon="2.31944">
        <ele>102.8</ele>
        <time>2023-03-01T14:01:56Z</time>
      </trkpt>
      <trkpt lat="49.73849" lon="2.31944">
        <ele>102.8</ele>
        <time>2023-03-01T14:01:57Z</time>
      </trkpt>
      <trkpt lat="49.73849" lon="2.31944">
        <ele>102.8</ele>
        <time>2023-03-01T14:01:58Z</time>
      </trkpt>
      <trkpt lat="49.73849" lon="2.31944">
        <ele>102.8</ele>
        <time>2023-03-01T14:01:59Z</time>
      </trkpt>
      <trkpt lat="49.73849" lon="2.31944">
        <ele>102.8</ele>
        <time>2023-03-01T14:02:00Z</time>
      </trkpt>
      <trkpt lat="49.73849" lon="2.31947">
        <ele>102.8</ele>
        <time>2023-03-01T14:02:02Z</time>
      </trkpt>
      <trkpt lat="49.7385" lon="2.31948">
        <ele>102.8</ele>
        <time>2023-03-01T14:02:03Z</time>
      </trkpt>
      <trkpt lat="49.7385" lon="2.31948">
        <ele>102.8</ele>
        <time>2023-03-01T14:02:04Z</time>
      </trkpt>
      <trkpt lat="49.7385" lon="2.31948">
        <ele>102.8</ele>
        <time>2023-03-01T14:02:05Z</time>
      </trkpt>
      <trkpt lat="49.7385" lon="2.31948">
        <ele>102.8</ele>
        <time>2023-03-01T14:02:06Z</time>
      </trkpt>
      <trkpt lat="49.7385" lon="2.31947">
        <ele>102.8</ele>
        <time>2023-03-01T14:02:08Z</time>
      </trkpt>
      <trkpt lat="49.7385" lon="2.31947">
        <ele>102.8</ele>
        <time>2023-03-01T14:02:09Z</time>
      </trkpt>
      <trkpt lat="49.7385" lon="2.31947">
        <ele>102.8</ele>
        <time>2023-03-01T14:02:10Z</time>
      </trkpt>
      <trkpt lat="49.7385" lon="2.31947">
        <ele>102.8</ele>
        <time>2023-03-01T14:02:11Z</time>
      </trkpt>
      <trkpt lat="49.7385" lon="2.31947">
        <ele>102.8</ele>
        <time>2023-03-01T14:02:12Z</time>
      </trkpt>
      <trkpt lat="49.7385" lon="2.31947">
        <ele>102.8</ele>
        <time>2023-03-01T14:02:13Z</time>
      </trkpt>
      <trkpt lat="49.7385" lon="2.31947">
        <ele>102.8</ele>
        <time>2023-03-01T14:02:14Z</time>
      </trkpt>
      <trkpt lat="49.7385" lon="2.31947">
        <ele>102.8</ele>
        <time>2023-03-01T14:02:15Z</time>
      </trkpt>
      <trkpt lat="49.7385" lon="2.31945">
        <ele>102.8</ele>
        <time>2023-03-01T14:02:16Z</time>
      </trkpt>
      <trkpt lat="49.7385" lon="2.31942">
        <ele>102.9</ele>
        <time>2023-03-01T14:02:18Z</time>
      </trkpt>
      <trkpt lat="49.73849" lon="2.31941">
        <ele>102.9</ele>
        <time>2023-03-01T14:02:19Z</time>
      </trkpt>
      <trkpt lat="49.73849" lon="2.3194">
        <ele>102.9</ele>
        <time>2023-03-01T14:02:20Z</time>
      </trkpt>
      <trkpt lat="49.73849" lon="2.31938">
        <ele>102.9</ele>
        <time>2023-03-01T14:02:22Z</time>
      </trkpt>
      <trkpt lat="49.73849" lon="2.31937">
        <ele>102.9</ele>
        <time>2023-03-01T14:02:24Z</time>
      </trkpt>
      <trkpt lat="49.73849" lon="2.31936">
        <ele>102.9</ele>
        <time>2023-03-01T14:02:25Z</time>
      </trkpt>
      <trkpt lat="49.73848" lon="2.31935">
        <ele>102.9</ele>
        <time>2023-03-01T14:02:26Z</time>
      </trkpt>
      <trkpt lat="49.73848" lon="2.31933">
        <ele>102.9</ele>
        <time>2023-03-01T14:02:27Z</time>
      </trkpt>
      <trkpt lat="49.73847" lon="2.3193">
        <ele>103</ele>
        <time>2023-03-01T14:02:28Z</time>
      </trkpt>
      <trkpt lat="49.73847" lon="2.31928">
        <ele>103</ele>
        <time>2023-03-01T14:02:29Z</time>
      </trkpt>
      <trkpt lat="49.73846" lon="2.31926">
        <ele>103</ele>
        <time>2023-03-01T14:02:30Z</time>
      </trkpt>
      <trkpt lat="49.73846" lon="2.31923">
        <ele>103</ele>
        <time>2023-03-01T14:02:31Z</time>
      </trkpt>
      <trkpt lat="49.73845" lon="2.31919">
        <ele>103</ele>
        <time>2023-03-01T14:02:33Z</time>
      </trkpt>
      <trkpt lat="49.73844" lon="2.31918">
        <ele>103</ele>
        <time>2023-03-01T14:02:34Z</time>
      </trkpt>
      <trkpt lat="49.73844" lon="2.31916">
        <ele>103</ele>
        <time>2023-03-01T14:02:35Z</time>
      </trkpt>
      <trkpt lat="49.73843" lon="2.31914">
        <ele>103</ele>
        <time>2023-03-01T14:02:36Z</time>
      </trkpt>
      <trkpt lat="49.73842" lon="2.31912">
        <ele>103</ele>
        <time>2023-03-01T14:02:37Z</time>
      </trkpt>
      <trkpt lat="49.73841" lon="2.31909">
        <ele>103.1</ele>
        <time>2023-03-01T14:02:38Z</time>
      </trkpt>
      <trkpt lat="49.7384" lon="2.31907">
        <ele>103.1</ele>
        <time>2023-03-01T14:02:39Z</time>
      </trkpt>
      <trkpt lat="49.7384" lon="2.31906">
        <ele>103.1</ele>
        <time>2023-03-01T14:02:40Z</time>
      </trkpt>
      <trkpt lat="49.73839" lon="2.31904">
        <ele>103.1</ele>
        <time>2023-03-01T14:02:42Z</time>
      </trkpt>
      <trkpt lat="49.73838" lon="2.31902">
        <ele>103.1</ele>
        <time>2023-03-01T14:02:43Z</time>
      </trkpt>
      <trkpt lat="49.73837" lon="2.31901">
        <ele>103.1</ele>
        <time>2023-03-01T14:02:44Z</time>
      </trkpt>
      <trkpt lat="49.73837" lon="2.319">
        <ele>103.1</ele>
        <time>2023-03-01T14:02:45Z</time>
      </trkpt>
      <trkpt lat="49.73835" lon="2.31896">
        <ele>103.1</ele>
        <time>2023-03-01T14:02:46Z</time>
      </trkpt>
      <trkpt lat="49.73835" lon="2.31895">
        <ele>103.1</ele>
        <time>2023-03-01T14:02:47Z</time>
      </trkpt>
      <trkpt lat="49.73834" lon="2.31894">
        <ele>103.1</ele>
        <time>2023-03-01T14:02:48Z</time>
      </trkpt>
      <trkpt lat="49.73834" lon="2.31893">
        <ele>103.1</ele>
        <time>2023-03-01T14:02:50Z</time>
      </trkpt>
      <trkpt lat="49.73834" lon="2.31891">
        <ele>103.1</ele>
        <time>2023-03-01T14:02:51Z</time>
      </trkpt>
      <trkpt lat="49.73833" lon="2.31889">
        <ele>103.1</ele>
        <time>2023-03-01T14:02:52Z</time>
      </trkpt>
      <trkpt lat="49.73833" lon="2.31887">
        <ele>103.1</ele>
        <time>2023-03-01T14:02:53Z</time>
      </trkpt>
      <trkpt lat="49.73833" lon="2.31886">
        <ele>103.1</ele>
        <time>2023-03-01T14:02:54Z</time>
      </trkpt>
      <trkpt lat="49.73832" lon="2.31885">
        <ele>103.1</ele>
        <time>2023-03-01T14:02:55Z</time>
      </trkpt>
      <trkpt lat="49.73832" lon="2.31886">
        <ele>103.1</ele>
        <time>2023-03-01T14:02:57Z</time>
      </trkpt>
      <trkpt lat="49.73831" lon="2.31886">
        <ele>103.1</ele>
        <time>2023-03-01T14:02:58Z</time>
      </trkpt>
      <trkpt lat="49.73831" lon="2.31884">
        <ele>103.1</ele>
        <time>2023-03-01T14:02:59Z</time>
      </trkpt>
      <trkpt lat="49.73832" lon="2.31883">
        <ele>103.2</ele>
        <time>2023-03-01T14:03:00Z</time>
      </trkpt>
      <trkpt lat="49.73832" lon="2.31882">
        <ele>103.2</ele>
        <time>2023-03-01T14:03:01Z</time>
      </trkpt>
      <trkpt lat="49.73832" lon="2.31881">
        <ele>103.2</ele>
        <time>2023-03-01T14:03:02Z</time>
      </trkpt>
      <trkpt lat="49.73831" lon="2.31879">
        <ele>103.2</ele>
        <time>2023-03-01T14:03:03Z</time>
      </trkpt>
      <trkpt lat="49.73831" lon="2.31878">
        <ele>103.2</ele>
        <time>2023-03-01T14:03:05Z</time>
      </trkpt>
      <trkpt lat="49.73831" lon="2.31877">
        <ele>103.2</ele>
        <time>2023-03-01T14:03:06Z</time>
      </trkpt>
      <trkpt lat="49.73831" lon="2.31875">
        <ele>103.2</ele>
        <time>2023-03-01T14:03:07Z</time>
      </trkpt>
      <trkpt lat="49.7383" lon="2.31873">
        <ele>103.2</ele>
        <time>2023-03-01T14:03:08Z</time>
      </trkpt>
      <trkpt lat="49.7383" lon="2.31872">
        <ele>103.2</ele>
        <time>2023-03-01T14:03:10Z</time>
      </trkpt>
      <trkpt lat="49.7383" lon="2.31871">
        <ele>103.2</ele>
        <time>2023-03-01T14:03:11Z</time>
      </trkpt>
      <trkpt lat="49.73829" lon="2.3187">
        <ele>103.2</ele>
        <time>2023-03-01T14:03:12Z</time>
      </trkpt>
      <trkpt lat="49.73829" lon="2.31868">
        <ele>103.2</ele>
        <time>2023-03-01T14:03:13Z</time>
      </trkpt>
      <trkpt lat="49.73829" lon="2.31867">
        <ele>103.2</ele>
        <time>2023-03-01T14:03:14Z</time>
      </trkpt>
      <trkpt lat="49.73828" lon="2.31865">
        <ele>103.2</ele>
        <time>2023-03-01T14:03:15Z</time>
      </trkpt>
      <trkpt lat="49.73828" lon="2.31863">
        <ele>103.2</ele>
        <time>2023-03-01T14:03:17Z</time>
      </trkpt>
      <trkpt lat="49.73827" lon="2.31861">
        <ele>103.2</ele>
        <time>2023-03-01T14:03:18Z</time>
      </trkpt>
      <trkpt lat="49.73827" lon="2.31859">
        <ele>103.2</ele>
        <time>2023-03-01T14:03:19Z</time>
      </trkpt>
      <trkpt lat="49.73826" lon="2.31856">
        <ele>103.3</ele>
        <time>2023-03-01T14:03:20Z</time>
      </trkpt>
      <trkpt lat="49.73826" lon="2.31855">
        <ele>103.3</ele>
        <time>2023-03-01T14:03:21Z</time>
      </trkpt>
      <trkpt lat="49.73826" lon="2.31854">
        <ele>103.3</ele>
        <time>2023-03-01T14:03:22Z</time>
      </trkpt>
      <trkpt lat="49.73825" lon="2.31851">
        <ele>103.3</ele>
        <time>2023-03-01T14:03:24Z</time>
      </trkpt>
      <trkpt lat="49.73825" lon="2.31849">
        <ele>103.3</ele>
        <time>2023-03-01T14:03:25Z</time>
      </trkpt>
      <trkpt lat="49.73824" lon="2.31848">
        <ele>103.3</ele>
        <time>2023-03-01T14:03:26Z</time>
      </trkpt>
      <trkpt lat="49.73824" lon="2.31847">
        <ele>103.3</ele>
        <time>2023-03-01T14:03:27Z</time>
      </trkpt>
      <trkpt lat="49.73824" lon="2.31845">
        <ele>103.3</ele>
        <time>2023-03-01T14:03:28Z</time>
      </trkpt>
      <trkpt lat="49.73824" lon="2.31843">
        <ele>103.3</ele>
        <time>2023-03-01T14:03:29Z</time>
      </trkpt>
      <trkpt lat="49.73823" lon="2.31841">
        <ele>103.3</ele>
        <time>2023-03-01T14:03:30Z</time>
      </trkpt>
      <trkpt lat="49.73823" lon="2.3184">
        <ele>103.3</ele>
        <time>2023-03-01T14:03:32Z</time>
      </trkpt>
      <trkpt lat="49.73823" lon="2.31839">
        <ele>103.3</ele>
        <time>2023-03-01T14:03:33Z</time>
      </trkpt>
      <trkpt lat="49.73822" lon="2.31837">
        <ele>103.3</ele>
        <time>2023-03-01T14:03:34Z</time>
      </trkpt>
      <trkpt lat="49.73822" lon="2.31837">
        <ele>103.3</ele>
        <time>2023-03-01T14:03:35Z</time>
      </trkpt>
      <trkpt lat="49.73822" lon="2.31836">
        <ele>103.3</ele>
        <time>2023-03-01T14:03:36Z</time>
      </trkpt>
      <trkpt lat="49.73821" lon="2.31836">
        <ele>103.3</ele>
        <time>2023-03-01T14:03:37Z</time>
      </trkpt>
      <trkpt lat="49.73822" lon="2.31835">
        <ele>103.3</ele>
        <time>2023-03-01T14:03:39Z</time>
      </trkpt>
      <trkpt lat="49.73822" lon="2.31834">
        <ele>103.3</ele>
        <time>2023-03-01T14:03:40Z</time>
      </trkpt>
      <trkpt lat="49.73822" lon="2.31834">
        <ele>103.3</ele>
        <time>2023-03-01T14:03:41Z</time>
      </trkpt>
      <trkpt lat="49.73822" lon="2.31833">
        <ele>103.3</ele>
        <time>2023-03-01T14:03:42Z</time>
      </trkpt>
      <trkpt lat="49.73822" lon="2.31833">
        <ele>103.3</ele>
        <time>2023-03-01T14:03:43Z</time>
      </trkpt>
      <trkpt lat="49.73822" lon="2.31831">
        <ele>103.3</ele>
        <time>2023-03-01T14:03:45Z</time>
      </trkpt>
      <trkpt lat="49.73824" lon="2.31832">
        <ele>103.3</ele>
        <time>2023-03-01T14:03:48Z</time>
      </trkpt>
      <trkpt lat="49.73824" lon="2.31833">
        <ele>103.3</ele>
        <time>2023-03-01T14:03:50Z</time>
      </trkpt>
      <trkpt lat="49.73825" lon="2.31833">
        <ele>103.3</ele>
        <time>2023-03-01T14:03:52Z</time>
      </trkpt>
      <trkpt lat="49.73825" lon="2.31834">
        <ele>103.3</ele>
        <time>2023-03-01T14:03:53Z</time>
      </trkpt>
      <trkpt lat="49.73825" lon="2.31833">
        <ele>103.3</ele>
        <time>2023-03-01T14:03:54Z</time>
      </trkpt>
      <trkpt lat="49.73825" lon="2.31833">
        <ele>103.3</ele>
        <time>2023-03-01T14:03:55Z</time>
      </trkpt>
      <trkpt lat="49.73825" lon="2.31833">
        <ele>103.3</ele>
        <time>2023-03-01T14:03:57Z</time>
      </trkpt>
      <trkpt lat="49.73825" lon="2.31833">
        <ele>103.3</ele>
        <time>2023-03-01T14:03:58Z</time>
      </trkpt>
      <trkpt lat="49.73825" lon="2.31833">
        <ele>103.3</ele>
        <time>2023-03-01T14:04:00Z</time>
      </trkpt>
      <trkpt lat="49.73825" lon="2.31833">
        <ele>103.3</ele>
        <time>2023-03-01T14:04:01Z</time>
      </trkpt>
      <trkpt lat="49.73825" lon="2.31833">
        <ele>103.3</ele>
        <time>2023-03-01T14:04:03Z</time>
      </trkpt>
      <trkpt lat="49.73825" lon="2.31834">
        <ele>103.3</ele>
        <time>2023-03-01T14:04:04Z</time>
      </trkpt>
      <trkpt lat="49.73825" lon="2.31834">
        <ele>103.3</ele>
        <time>2023-03-01T14:04:05Z</time>
      </trkpt>
      <trkpt lat="49.73825" lon="2.31834">
        <ele>103.3</ele>
        <time>2023-03-01T14:04:06Z</time>
      </trkpt>
      <trkpt lat="49.73825" lon="2.31834">
        <ele>103.3</ele>
        <time>2023-03-01T14:04:07Z</time>
      </trkpt>
      <trkpt lat="49.73825" lon="2.31834">
        <ele>103.3</ele>
        <time>2023-03-01T14:04:08Z</time>
      </trkpt>
      <trkpt lat="49.73825" lon="2.31834">
        <ele>103.3</ele>
        <time>2023-03-01T14:04:09Z</time>
      </trkpt>
      <trkpt lat="49.73825" lon="2.31834">
        <ele>103.3</ele>
        <time>2023-03-01T14:04:10Z</time>
      </trkpt>
      <trkpt lat="49.73824" lon="2.31831">
        <ele>103.3</ele>
        <time>2023-03-01T14:04:11Z</time>
      </trkpt>
      <trkpt lat="49.73822" lon="2.31829">
        <ele>103.3</ele>
        <time>2023-03-01T14:04:12Z</time>
      </trkpt>
      <trkpt lat="49.73822" lon="2.31828">
        <ele>103.3</ele>
        <time>2023-03-01T14:04:13Z</time>
      </trkpt>
      <trkpt lat="49.73821" lon="2.31827">
        <ele>103.3</ele>
        <time>2023-03-01T14:04:14Z</time>
      </trkpt>
      <trkpt lat="49.73821" lon="2.31826">
        <ele>103.3</ele>
        <time>2023-03-01T14:04:15Z</time>
      </trkpt>
      <trkpt lat="49.73821" lon="2.31826">
        <ele>103.3</ele>
        <time>2023-03-01T14:04:17Z</time>
      </trkpt>
      <trkpt lat="49.73821" lon="2.31826">
        <ele>103.3</ele>
        <time>2023-03-01T14:04:18Z</time>
      </trkpt>
      <trkpt lat="49.7382" lon="2.31825">
        <ele>103.3</ele>
        <time>2023-03-01T14:04:19Z</time>
      </trkpt>
      <trkpt lat="49.7382" lon="2.31825">
        <ele>103.3</ele>
        <time>2023-03-01T14:04:20Z</time>
      </trkpt>
      <trkpt lat="49.7382" lon="2.31825">
        <ele>103.3</ele>
        <time>2023-03-01T14:04:21Z</time>
      </trkpt>
      <trkpt lat="49.7382" lon="2.31825">
        <ele>103.3</ele>
        <time>2023-03-01T14:04:22Z</time>
      </trkpt>
      <trkpt lat="49.7382" lon="2.31825">
        <ele>103.3</ele>
        <time>2023-03-01T14:04:23Z</time>
      </trkpt>
      <trkpt lat="49.7382" lon="2.31825">
        <ele>103.3</ele>
        <time>2023-03-01T14:04:24Z</time>
      </trkpt>
      <trkpt lat="49.7382" lon="2.31825">
        <ele>103.3</ele>
        <time>2023-03-01T14:04:26Z</time>
      </trkpt>
      <trkpt lat="49.7382" lon="2.31825">
        <ele>103.3</ele>
        <time>2023-03-01T14:04:27Z</time>
      </trkpt>
      <trkpt lat="49.7382" lon="2.31825">
        <ele>103.3</ele>
        <time>2023-03-01T14:04:28Z</time>
      </trkpt>
      <trkpt lat="49.7382" lon="2.31825">
        <ele>103.3</ele>
        <time>2023-03-01T14:04:29Z</time>
      </trkpt>
      <trkpt lat="49.7382" lon="2.31825">
        <ele>103.3</ele>
        <time>2023-03-01T14:04:30Z</time>
      </trkpt>
      <trkpt lat="49.7382" lon="2.31825">
        <ele>103.3</ele>
        <time>2023-03-01T14:04:31Z</time>
      </trkpt>
      <trkpt lat="49.7382" lon="2.31825">
        <ele>103.3</ele>
        <time>2023-03-01T14:04:33Z</time>
      </trkpt>
      <trkpt lat="49.7382" lon="2.31825">
        <ele>103.3</ele>
        <time>2023-03-01T14:04:34Z</time>
      </trkpt>
      <trkpt lat="49.7382" lon="2.31825">
        <ele>103.3</ele>
        <time>2023-03-01T14:04:36Z</time>
      </trkpt>
      <trkpt lat="49.7382" lon="2.31825">
        <ele>103.3</ele>
        <time>2023-03-01T14:04:37Z</time>
      </trkpt>
      <trkpt lat="49.7382" lon="2.31825">
        <ele>103.3</ele>
        <time>2023-03-01T14:04:38Z</time>
      </trkpt>
      <trkpt lat="49.7382" lon="2.31825">
        <ele>103.3</ele>
        <time>2023-03-01T14:04:39Z</time>
      </trkpt>
      <trkpt lat="49.7382" lon="2.31825">
        <ele>103.3</ele>
        <time>2023-03-01T14:04:41Z</time>
      </trkpt>
      <trkpt lat="49.7382" lon="2.31826">
        <ele>103.3</ele>
        <time>2023-03-01T14:04:42Z</time>
      </trkpt>
      <trkpt lat="49.7382" lon="2.31825">
        <ele>103.3</ele>
        <time>2023-03-01T14:04:44Z</time>
      </trkpt>
      <trkpt lat="49.7382" lon="2.31825">
        <ele>103.3</ele>
        <time>2023-03-01T14:04:45Z</time>
      </trkpt>
      <trkpt lat="49.7382" lon="2.31825">
        <ele>103.3</ele>
        <time>2023-03-01T14:04:46Z</time>
      </trkpt>
      <trkpt lat="49.7382" lon="2.31825">
        <ele>103.3</ele>
        <time>2023-03-01T14:04:47Z</time>
      </trkpt>
      <trkpt lat="49.7382" lon="2.31825">
        <ele>103.3</ele>
        <time>2023-03-01T14:04:48Z</time>
      </trkpt>
      <trkpt lat="49.7382" lon="2.31824">
        <ele>103.3</ele>
        <time>2023-03-01T14:04:49Z</time>
      </trkpt>
      <trkpt lat="49.7382" lon="2.31824">
        <ele>103.3</ele>
        <time>2023-03-01T14:04:50Z</time>
      </trkpt>
      <trkpt lat="49.7382" lon="2.31824">
        <ele>103.3</ele>
        <time>2023-03-01T14:04:51Z</time>
      </trkpt>
      <trkpt lat="49.7382" lon="2.31823">
        <ele>103.3</ele>
        <time>2023-03-01T14:04:53Z</time>
      </trkpt>
      <trkpt lat="49.73819" lon="2.31822">
        <ele>103.3</ele>
        <time>2023-03-01T14:04:54Z</time>
      </trkpt>
      <trkpt lat="49.73819" lon="2.31822">
        <ele>103.3</ele>
        <time>2023-03-01T14:04:55Z</time>
      </trkpt>
      <trkpt lat="49.73819" lon="2.31822">
        <ele>103.3</ele>
        <time>2023-03-01T14:04:56Z</time>
      </trkpt>
      <trkpt lat="49.73819" lon="2.31821">
        <ele>103.3</ele>
        <time>2023-03-01T14:04:58Z</time>
      </trkpt>
      <trkpt lat="49.73819" lon="2.3182">
        <ele>103.3</ele>
        <time>2023-03-01T14:04:59Z</time>
      </trkpt>
      <trkpt lat="49.73819" lon="2.31819">
        <ele>103.3</ele>
        <time>2023-03-01T14:05:00Z</time>
      </trkpt>
      <trkpt lat="49.73819" lon="2.31818">
        <ele>103.3</ele>
        <time>2023-03-01T14:05:01Z</time>
      </trkpt>
      <trkpt lat="49.73819" lon="2.31817">
        <ele>103.3</ele>
        <time>2023-03-01T14:05:02Z</time>
      </trkpt>
      <trkpt lat="49.73819" lon="2.31816">
        <ele>103.3</ele>
        <time>2023-03-01T14:05:03Z</time>
      </trkpt>
      <trkpt lat="49.73818" lon="2.31813">
        <ele>103.3</ele>
        <time>2023-03-01T14:05:05Z</time>
      </trkpt>
      <trkpt lat="49.73817" lon="2.31811">
        <ele>103.3</ele>
        <time>2023-03-01T14:05:07Z</time>
      </trkpt>
      <trkpt lat="49.73817" lon="2.31809">
        <ele>103.3</ele>
        <time>2023-03-01T14:05:08Z</time>
      </trkpt>
      <trkpt lat="49.73817" lon="2.31806">
        <ele>103.3</ele>
        <time>2023-03-01T14:05:10Z</time>
      </trkpt>
      <trkpt lat="49.73817" lon="2.31805">
        <ele>103.3</ele>
        <time>2023-03-01T14:05:12Z</time>
      </trkpt>
      <trkpt lat="49.73817" lon="2.31804">
        <ele>103.3</ele>
        <time>2023-03-01T14:05:13Z</time>
      </trkpt>
      <trkpt lat="49.73816" lon="2.31802">
        <ele>103.3</ele>
        <time>2023-03-01T14:05:14Z</time>
      </trkpt>
      <trkpt lat="49.73816" lon="2.318">
        <ele>103.3</ele>
        <time>2023-03-01T14:05:15Z</time>
      </trkpt>
      <trkpt lat="49.73816" lon="2.31799">
        <ele>103.3</ele>
        <time>2023-03-01T14:05:17Z</time>
      </trkpt>
      <trkpt lat="49.73817" lon="2.31799">
        <ele>103.3</ele>
        <time>2023-03-01T14:05:18Z</time>
      </trkpt>
      <trkpt lat="49.73818" lon="2.31798">
        <ele>103.3</ele>
        <time>2023-03-01T14:05:19Z</time>
      </trkpt>
      <trkpt lat="49.73818" lon="2.31799">
        <ele>103.3</ele>
        <time>2023-03-01T14:05:21Z</time>
      </trkpt>
      <trkpt lat="49.73818" lon="2.31799">
        <ele>103.3</ele>
        <time>2023-03-01T14:05:22Z</time>
      </trkpt>
      <trkpt lat="49.73818" lon="2.31799">
        <ele>103.3</ele>
        <time>2023-03-01T14:05:24Z</time>
      </trkpt>
      <trkpt lat="49.73819" lon="2.318">
        <ele>103.3</ele>
        <time>2023-03-01T14:05:25Z</time>
      </trkpt>
      <trkpt lat="49.73819" lon="2.318">
        <ele>103.3</ele>
        <time>2023-03-01T14:05:27Z</time>
      </trkpt>
      <trkpt lat="49.73819" lon="2.318">
        <ele>103.3</ele>
        <time>2023-03-01T14:05:28Z</time>
      </trkpt>
      <trkpt lat="49.73819" lon="2.31801">
        <ele>103.3</ele>
        <time>2023-03-01T14:05:29Z</time>
      </trkpt>
      <trkpt lat="49.73819" lon="2.31801">
        <ele>103.3</ele>
        <time>2023-03-01T14:05:31Z</time>
      </trkpt>
      <trkpt lat="49.73819" lon="2.31801">
        <ele>103.3</ele>
        <time>2023-03-01T14:05:32Z</time>
      </trkpt>
      <trkpt lat="49.73819" lon="2.318">
        <ele>103.3</ele>
        <time>2023-03-01T14:05:33Z</time>
      </trkpt>
      <trkpt lat="49.73819" lon="2.318">
        <ele>103.3</ele>
        <time>2023-03-01T14:05:34Z</time>
      </trkpt>
      <trkpt lat="49.73819" lon="2.318">
        <ele>103.3</ele>
        <time>2023-03-01T14:05:35Z</time>
      </trkpt>
      <trkpt lat="49.73819" lon="2.31799">
        <ele>103.3</ele>
        <time>2023-03-01T14:05:36Z</time>
      </trkpt>
      <trkpt lat="49.73818" lon="2.31797">
        <ele>103.3</ele>
        <time>2023-03-01T14:05:37Z</time>
      </trkpt>
      <trkpt lat="49.73818" lon="2.31796">
        <ele>103.3</ele>
        <time>2023-03-01T14:05:39Z</time>
      </trkpt>
      <trkpt lat="49.73818" lon="2.31794">
        <ele>103.3</ele>
        <time>2023-03-01T14:05:40Z</time>
      </trkpt>
      <trkpt lat="49.73818" lon="2.31793">
        <ele>103.3</ele>
        <time>2023-03-01T14:05:41Z</time>
      </trkpt>
      <trkpt lat="49.73817" lon="2.31792">
        <ele>103.3</ele>
        <time>2023-03-01T14:05:42Z</time>
      </trkpt>
      <trkpt lat="49.73817" lon="2.31789">
        <ele>103.3</ele>
        <time>2023-03-01T14:05:43Z</time>
      </trkpt>
      <trkpt lat="49.73816" lon="2.31787">
        <ele>103.3</ele>
        <time>2023-03-01T14:05:44Z</time>
      </trkpt>
      <trkpt lat="49.73815" lon="2.31784">
        <ele>103.3</ele>
        <time>2023-03-01T14:05:46Z</time>
      </trkpt>
      <trkpt lat="49.73814" lon="2.3178">
        <ele>103.3</ele>
        <time>2023-03-01T14:05:47Z</time>
      </trkpt>
      <trkpt lat="49.73814" lon="2.31778">
        <ele>103.2</ele>
        <time>2023-03-01T14:05:48Z</time>
      </trkpt>
      <trkpt lat="49.73813" lon="2.31774">
        <ele>103.2</ele>
        <time>2023-03-01T14:05:49Z</time>
      </trkpt>
      <trkpt lat="49.73812" lon="2.31772">
        <ele>103.2</ele>
        <time>2023-03-01T14:05:51Z</time>
      </trkpt>
      <trkpt lat="49.73812" lon="2.3177">
        <ele>103.2</ele>
        <time>2023-03-01T14:05:52Z</time>
      </trkpt>
      <trkpt lat="49.73811" lon="2.31768">
        <ele>103.2</ele>
        <time>2023-03-01T14:05:53Z</time>
      </trkpt>
      <trkpt lat="49.7381" lon="2.31763">
        <ele>103.2</ele>
        <time>2023-03-01T14:05:54Z</time>
      </trkpt>
      <trkpt lat="49.7381" lon="2.31762">
        <ele>103.2</ele>
        <time>2023-03-01T14:05:55Z</time>
      </trkpt>
      <trkpt lat="49.73809" lon="2.31759">
        <ele>103.2</ele>
        <time>2023-03-01T14:05:56Z</time>
      </trkpt>
      <trkpt lat="49.73808" lon="2.31756">
        <ele>103.2</ele>
        <time>2023-03-01T14:05:57Z</time>
      </trkpt>
      <trkpt lat="49.73808" lon="2.31753">
        <ele>103.2</ele>
        <time>2023-03-01T14:05:58Z</time>
      </trkpt>
      <trkpt lat="49.73807" lon="2.31752">
        <ele>103.2</ele>
        <time>2023-03-01T14:06:00Z</time>
      </trkpt>
      <trkpt lat="49.73807" lon="2.3175">
        <ele>103.1</ele>
        <time>2023-03-01T14:06:01Z</time>
      </trkpt>
      <trkpt lat="49.73806" lon="2.31748">
        <ele>103.1</ele>
        <time>2023-03-01T14:06:02Z</time>
      </trkpt>
      <trkpt lat="49.73806" lon="2.31746">
        <ele>103.1</ele>
        <time>2023-03-01T14:06:03Z</time>
      </trkpt>
      <trkpt lat="49.73805" lon="2.31743">
        <ele>103.1</ele>
        <time>2023-03-01T14:06:04Z</time>
      </trkpt>
      <trkpt lat="49.73804" lon="2.3174">
        <ele>103.1</ele>
        <time>2023-03-01T14:06:05Z</time>
      </trkpt>
      <trkpt lat="49.73803" lon="2.31739">
        <ele>103.1</ele>
        <time>2023-03-01T14:06:06Z</time>
      </trkpt>
      <trkpt lat="49.73803" lon="2.31738">
        <ele>103.1</ele>
        <time>2023-03-01T14:06:07Z</time>
      </trkpt>
      <trkpt lat="49.73802" lon="2.31735">
        <ele>103.1</ele>
        <time>2023-03-01T14:06:08Z</time>
      </trkpt>
      <trkpt lat="49.73802" lon="2.31734">
        <ele>103.1</ele>
        <time>2023-03-01T14:06:10Z</time>
      </trkpt>
      <trkpt lat="49.73801" lon="2.31732">
        <ele>103</ele>
        <time>2023-03-01T14:06:11Z</time>
      </trkpt>
      <trkpt lat="49.73801" lon="2.31729">
        <ele>103</ele>
        <time>2023-03-01T14:06:12Z</time>
      </trkpt>
      <trkpt lat="49.73801" lon="2.31728">
        <ele>103</ele>
        <time>2023-03-01T14:06:13Z</time>
      </trkpt>
      <trkpt lat="49.738" lon="2.31727">
        <ele>103</ele>
        <time>2023-03-01T14:06:14Z</time>
      </trkpt>
      <trkpt lat="49.738" lon="2.31728">
        <ele>103</ele>
        <time>2023-03-01T14:06:15Z</time>
      </trkpt>
      <trkpt lat="49.738" lon="2.3173">
        <ele>103</ele>
        <time>2023-03-01T14:06:17Z</time>
      </trkpt>
      <trkpt lat="49.73801" lon="2.3173">
        <ele>103</ele>
        <time>2023-03-01T14:06:18Z</time>
      </trkpt>
      <trkpt lat="49.73802" lon="2.31729">
        <ele>103</ele>
        <time>2023-03-01T14:06:20Z</time>
      </trkpt>
      <trkpt lat="49.73801" lon="2.31727">
        <ele>103</ele>
        <time>2023-03-01T14:06:21Z</time>
      </trkpt>
      <trkpt lat="49.73801" lon="2.31725">
        <ele>102.9</ele>
        <time>2023-03-01T14:06:22Z</time>
      </trkpt>
      <trkpt lat="49.73801" lon="2.31723">
        <ele>102.9</ele>
        <time>2023-03-01T14:06:23Z</time>
      </trkpt>
      <trkpt lat="49.738" lon="2.3172">
        <ele>102.9</ele>
        <time>2023-03-01T14:06:24Z</time>
      </trkpt>
      <trkpt lat="49.738" lon="2.31719">
        <ele>102.9</ele>
        <time>2023-03-01T14:06:25Z</time>
      </trkpt>
      <trkpt lat="49.73799" lon="2.31715">
        <ele>102.9</ele>
        <time>2023-03-01T14:06:26Z</time>
      </trkpt>
      <trkpt lat="49.73799" lon="2.31714">
        <ele>102.9</ele>
        <time>2023-03-01T14:06:28Z</time>
      </trkpt>
      <trkpt lat="49.73799" lon="2.31712">
        <ele>102.9</ele>
        <time>2023-03-01T14:06:29Z</time>
      </trkpt>
      <trkpt lat="49.73799" lon="2.31711">
        <ele>102.9</ele>
        <time>2023-03-01T14:06:30Z</time>
      </trkpt>
      <trkpt lat="49.73798" lon="2.31709">
        <ele>102.9</ele>
        <time>2023-03-01T14:06:31Z</time>
      </trkpt>
      <trkpt lat="49.73798" lon="2.31707">
        <ele>102.8</ele>
        <time>2023-03-01T14:06:32Z</time>
      </trkpt>
      <trkpt lat="49.73798" lon="2.31706">
        <ele>102.8</ele>
        <time>2023-03-01T14:06:33Z</time>
      </trkpt>
      <trkpt lat="49.73797" lon="2.31703">
        <ele>102.8</ele>
        <time>2023-03-01T14:06:34Z</time>
      </trkpt>
      <trkpt lat="49.73796" lon="2.31701">
        <ele>102.8</ele>
        <time>2023-03-01T14:06:35Z</time>
      </trkpt>
      <trkpt lat="49.73796" lon="2.31699">
        <ele>102.8</ele>
        <time>2023-03-01T14:06:36Z</time>
      </trkpt>
      <trkpt lat="49.73796" lon="2.31698">
        <ele>102.8</ele>
        <time>2023-03-01T14:06:37Z</time>
      </trkpt>
      <trkpt lat="49.73795" lon="2.31695">
        <ele>102.8</ele>
        <time>2023-03-01T14:06:39Z</time>
      </trkpt>
      <trkpt lat="49.73795" lon="2.31693">
        <ele>102.8</ele>
        <time>2023-03-01T14:06:40Z</time>
      </trkpt>
      <trkpt lat="49.73795" lon="2.31692">
        <ele>102.8</ele>
        <time>2023-03-01T14:06:41Z</time>
      </trkpt>
      <trkpt lat="49.73795" lon="2.31689">
        <ele>102.8</ele>
        <time>2023-03-01T14:06:42Z</time>
      </trkpt>
      <trkpt lat="49.73795" lon="2.31687">
        <ele>102.8</ele>
        <time>2023-03-01T14:06:43Z</time>
      </trkpt>
      <trkpt lat="49.73795" lon="2.31686">
        <ele>102.8</ele>
        <time>2023-03-01T14:06:44Z</time>
      </trkpt>
      <trkpt lat="49.73795" lon="2.31684">
        <ele>102.8</ele>
        <time>2023-03-01T14:06:45Z</time>
      </trkpt>
      <trkpt lat="49.73795" lon="2.31683">
        <ele>102.8</ele>
        <time>2023-03-01T14:06:46Z</time>
      </trkpt>
      <trkpt lat="49.73795" lon="2.31681">
        <ele>102.8</ele>
        <time>2023-03-01T14:06:48Z</time>
      </trkpt>
      <trkpt lat="49.73795" lon="2.31678">
        <ele>102.8</ele>
        <time>2023-03-01T14:06:49Z</time>
      </trkpt>
      <trkpt lat="49.73795" lon="2.31677">
        <ele>102.8</ele>
        <time>2023-03-01T14:06:50Z</time>
      </trkpt>
      <trkpt lat="49.73794" lon="2.31675">
        <ele>102.8</ele>
        <time>2023-03-01T14:06:51Z</time>
      </trkpt>
      <trkpt lat="49.73794" lon="2.31674">
        <ele>102.8</ele>
        <time>2023-03-01T14:06:52Z</time>
      </trkpt>
      <trkpt lat="49.73793" lon="2.31672">
        <ele>102.8</ele>
        <time>2023-03-01T14:06:53Z</time>
      </trkpt>
      <trkpt lat="49.73792" lon="2.31669">
        <ele>102.8</ele>
        <time>2023-03-01T14:06:54Z</time>
      </trkpt>
      <trkpt lat="49.73792" lon="2.31668">
        <ele>102.8</ele>
        <time>2023-03-01T14:06:55Z</time>
      </trkpt>
      <trkpt lat="49.73792" lon="2.31667">
        <ele>102.8</ele>
        <time>2023-03-01T14:06:56Z</time>
      </trkpt>
      <trkpt lat="49.73791" lon="2.31665">
        <ele>102.8</ele>
        <time>2023-03-01T14:06:58Z</time>
      </trkpt>
      <trkpt lat="49.73791" lon="2.31663">
        <ele>102.9</ele>
        <time>2023-03-01T14:06:59Z</time>
      </trkpt>
      <trkpt lat="49.7379" lon="2.31661">
        <ele>102.9</ele>
        <time>2023-03-01T14:07:00Z</time>
      </trkpt>
      <trkpt lat="49.7379" lon="2.3166">
        <ele>102.9</ele>
        <time>2023-03-01T14:07:01Z</time>
      </trkpt>
      <trkpt lat="49.73789" lon="2.31658">
        <ele>102.9</ele>
        <time>2023-03-01T14:07:02Z</time>
      </trkpt>
      <trkpt lat="49.73789" lon="2.31657">
        <ele>102.9</ele>
        <time>2023-03-01T14:07:03Z</time>
      </trkpt>
      <trkpt lat="49.73788" lon="2.31655">
        <ele>102.9</ele>
        <time>2023-03-01T14:07:04Z</time>
      </trkpt>
      <trkpt lat="49.73788" lon="2.31654">
        <ele>102.9</ele>
        <time>2023-03-01T14:07:05Z</time>
      </trkpt>
      <trkpt lat="49.73788" lon="2.31653">
        <ele>102.9</ele>
        <time>2023-03-01T14:07:06Z</time>
      </trkpt>
      <trkpt lat="49.73788" lon="2.31652">
        <ele>102.9</ele>
        <time>2023-03-01T14:07:08Z</time>
      </trkpt>
      <trkpt lat="49.73787" lon="2.31651">
        <ele>102.9</ele>
        <time>2023-03-01T14:07:09Z</time>
      </trkpt>
      <trkpt lat="49.73787" lon="2.31649">
        <ele>102.9</ele>
        <time>2023-03-01T14:07:10Z</time>
      </trkpt>
      <trkpt lat="49.73786" lon="2.31647">
        <ele>102.9</ele>
        <time>2023-03-01T14:07:11Z</time>
      </trkpt>
      <trkpt lat="49.73786" lon="2.31646">
        <ele>102.9</ele>
        <time>2023-03-01T14:07:12Z</time>
      </trkpt>
      <trkpt lat="49.73786" lon="2.31645">
        <ele>103</ele>
        <time>2023-03-01T14:07:13Z</time>
      </trkpt>
      <trkpt lat="49.73785" lon="2.31643">
        <ele>103</ele>
        <time>2023-03-01T14:07:14Z</time>
      </trkpt>
      <trkpt lat="49.73785" lon="2.31643">
        <ele>103</ele>
        <time>2023-03-01T14:07:15Z</time>
      </trkpt>
      <trkpt lat="49.73785" lon="2.31641">
        <ele>103</ele>
        <time>2023-03-01T14:07:16Z</time>
      </trkpt>
      <trkpt lat="49.73785" lon="2.3164">
        <ele>103</ele>
        <time>2023-03-01T14:07:18Z</time>
      </trkpt>
      <trkpt lat="49.73785" lon="2.31638">
        <ele>103</ele>
        <time>2023-03-01T14:07:19Z</time>
      </trkpt>
      <trkpt lat="49.73784" lon="2.31636">
        <ele>103</ele>
        <time>2023-03-01T14:07:20Z</time>
      </trkpt>
      <trkpt lat="49.73784" lon="2.31634">
        <ele>103</ele>
        <time>2023-03-01T14:07:21Z</time>
      </trkpt>
      <trkpt lat="49.73784" lon="2.31631">
        <ele>103.1</ele>
        <time>2023-03-01T14:07:22Z</time>
      </trkpt>
      <trkpt lat="49.73783" lon="2.3163">
        <ele>103.1</ele>
        <time>2023-03-01T14:07:23Z</time>
      </trkpt>
      <trkpt lat="49.73783" lon="2.31628">
        <ele>103.1</ele>
        <time>2023-03-01T14:07:25Z</time>
      </trkpt>
      <trkpt lat="49.73783" lon="2.31627">
        <ele>103.1</ele>
        <time>2023-03-01T14:07:26Z</time>
      </trkpt>
      <trkpt lat="49.73782" lon="2.31625">
        <ele>103.1</ele>
        <time>2023-03-01T14:07:27Z</time>
      </trkpt>
      <trkpt lat="49.73782" lon="2.31624">
        <ele>103.1</ele>
        <time>2023-03-01T14:07:28Z</time>
      </trkpt>
      <trkpt lat="49.73781" lon="2.31621">
        <ele>103.2</ele>
        <time>2023-03-01T14:07:30Z</time>
      </trkpt>
      <trkpt lat="49.73781" lon="2.31619">
        <ele>103.2</ele>
        <time>2023-03-01T14:07:31Z</time>
      </trkpt>
      <trkpt lat="49.7378" lon="2.31618">
        <ele>103.2</ele>
        <time>2023-03-01T14:07:32Z</time>
      </trkpt>
      <trkpt lat="49.7378" lon="2.31616">
        <ele>103.2</ele>
        <time>2023-03-01T14:07:33Z</time>
      </trkpt>
      <trkpt lat="49.73779" lon="2.31613">
        <ele>103.2</ele>
        <time>2023-03-01T14:07:34Z</time>
      </trkpt>
      <trkpt lat="49.73779" lon="2.31612">
        <ele>103.2</ele>
        <time>2023-03-01T14:07:35Z</time>
      </trkpt>
      <trkpt lat="49.73779" lon="2.3161">
        <ele>103.2</ele>
        <time>2023-03-01T14:07:36Z</time>
      </trkpt>
      <trkpt lat="49.73778" lon="2.31608">
        <ele>103.3</ele>
        <time>2023-03-01T14:07:37Z</time>
      </trkpt>
      <trkpt lat="49.73778" lon="2.31607">
        <ele>103.3</ele>
        <time>2023-03-01T14:07:38Z</time>
      </trkpt>
      <trkpt lat="49.73777" lon="2.31604">
        <ele>103.3</ele>
        <time>2023-03-01T14:07:39Z</time>
      </trkpt>
      <trkpt lat="49.73777" lon="2.31603">
        <ele>103.3</ele>
        <time>2023-03-01T14:07:41Z</time>
      </trkpt>
      <trkpt lat="49.73777" lon="2.31602">
        <ele>103.3</ele>
        <time>2023-03-01T14:07:42Z</time>
      </trkpt>
      <trkpt lat="49.73776" lon="2.316">
        <ele>103.3</ele>
        <time>2023-03-01T14:07:43Z</time>
      </trkpt>
      <trkpt lat="49.73776" lon="2.31598">
        <ele>103.3</ele>
        <time>2023-03-01T14:07:44Z</time>
      </trkpt>
      <trkpt lat="49.73775" lon="2.31596">
        <ele>103.3</ele>
        <time>2023-03-01T14:07:45Z</time>
      </trkpt>
      <trkpt lat="49.73775" lon="2.31595">
        <ele>103.3</ele>
        <time>2023-03-01T14:07:46Z</time>
      </trkpt>
      <trkpt lat="49.73775" lon="2.31592">
        <ele>103.3</ele>
        <time>2023-03-01T14:07:47Z</time>
      </trkpt>
      <trkpt lat="49.73775" lon="2.3159">
        <ele>103.3</ele>
        <time>2023-03-01T14:07:48Z</time>
      </trkpt>
      <trkpt lat="49.73774" lon="2.31589">
        <ele>103.3</ele>
        <time>2023-03-01T14:07:49Z</time>
      </trkpt>
      <trkpt lat="49.73774" lon="2.31588">
        <ele>103.3</ele>
        <time>2023-03-01T14:07:50Z</time>
      </trkpt>
      <trkpt lat="49.73774" lon="2.31586">
        <ele>103.3</ele>
        <time>2023-03-01T14:07:52Z</time>
      </trkpt>
      <trkpt lat="49.73774" lon="2.31585">
        <ele>103.4</ele>
        <time>2023-03-01T14:07:53Z</time>
      </trkpt>
      <trkpt lat="49.73773" lon="2.31583">
        <ele>103.4</ele>
        <time>2023-03-01T14:07:54Z</time>
      </trkpt>
      <trkpt lat="49.73773" lon="2.31581">
        <ele>103.4</ele>
        <time>2023-03-01T14:07:55Z</time>
      </trkpt>
      <trkpt lat="49.73772" lon="2.31579">
        <ele>103.4</ele>
        <time>2023-03-01T14:07:56Z</time>
      </trkpt>
      <trkpt lat="49.73772" lon="2.31577">
        <ele>103.4</ele>
        <time>2023-03-01T14:07:57Z</time>
      </trkpt>
      <trkpt lat="49.73772" lon="2.31576">
        <ele>103.4</ele>
        <time>2023-03-01T14:07:58Z</time>
      </trkpt>
      <trkpt lat="49.73771" lon="2.31574">
        <ele>103.4</ele>
        <time>2023-03-01T14:07:59Z</time>
      </trkpt>
      <trkpt lat="49.73771" lon="2.31573">
        <ele>103.4</ele>
        <time>2023-03-01T14:08:00Z</time>
      </trkpt>
      <trkpt lat="49.73771" lon="2.31571">
        <ele>103.4</ele>
        <time>2023-03-01T14:08:01Z</time>
      </trkpt>
      <trkpt lat="49.7377" lon="2.31569">
        <ele>103.5</ele>
        <time>2023-03-01T14:08:03Z</time>
      </trkpt>
      <trkpt lat="49.7377" lon="2.31567">
        <ele>103.5</ele>
        <time>2023-03-01T14:08:04Z</time>
      </trkpt>
      <trkpt lat="49.73769" lon="2.31564">
        <ele>103.5</ele>
        <time>2023-03-01T14:08:05Z</time>
      </trkpt>
      <trkpt lat="49.73769" lon="2.31562">
        <ele>103.5</ele>
        <time>2023-03-01T14:08:06Z</time>
      </trkpt>
      <trkpt lat="49.73769" lon="2.3156">
        <ele>103.5</ele>
        <time>2023-03-01T14:08:07Z</time>
      </trkpt>
      <trkpt lat="49.73768" lon="2.31558">
        <ele>103.5</ele>
        <time>2023-03-01T14:08:08Z</time>
      </trkpt>
      <trkpt lat="49.73767" lon="2.31554">
        <ele>103.5</ele>
        <time>2023-03-01T14:08:09Z</time>
      </trkpt>
      <trkpt lat="49.73767" lon="2.31553">
        <ele>103.5</ele>
        <time>2023-03-01T14:08:11Z</time>
      </trkpt>
      <trkpt lat="49.73766" lon="2.31551">
        <ele>103.6</ele>
        <time>2023-03-01T14:08:12Z</time>
      </trkpt>
      <trkpt lat="49.73766" lon="2.31549">
        <ele>103.6</ele>
        <time>2023-03-01T14:08:13Z</time>
      </trkpt>
      <trkpt lat="49.73765" lon="2.31545">
        <ele>103.6</ele>
        <time>2023-03-01T14:08:14Z</time>
      </trkpt>
      <trkpt lat="49.73764" lon="2.31544">
        <ele>103.6</ele>
        <time>2023-03-01T14:08:15Z</time>
      </trkpt>
      <trkpt lat="49.73763" lon="2.3154">
        <ele>103.6</ele>
        <time>2023-03-01T14:08:16Z</time>
      </trkpt>
      <trkpt lat="49.73763" lon="2.31539">
        <ele>103.6</ele>
        <time>2023-03-01T14:08:17Z</time>
      </trkpt>
      <trkpt lat="49.73762" lon="2.31538">
        <ele>103.6</ele>
        <time>2023-03-01T14:08:18Z</time>
      </trkpt>
      <trkpt lat="49.73761" lon="2.31534">
        <ele>103.6</ele>
        <time>2023-03-01T14:08:19Z</time>
      </trkpt>
      <trkpt lat="49.73761" lon="2.31533">
        <ele>103.6</ele>
        <time>2023-03-01T14:08:21Z</time>
      </trkpt>
      <trkpt lat="49.73761" lon="2.31532">
        <ele>103.6</ele>
        <time>2023-03-01T14:08:22Z</time>
      </trkpt>
      <trkpt lat="49.7376" lon="2.31529">
        <ele>103.6</ele>
        <time>2023-03-01T14:08:23Z</time>
      </trkpt>
      <trkpt lat="49.7376" lon="2.31528">
        <ele>103.6</ele>
        <time>2023-03-01T14:08:24Z</time>
      </trkpt>
      <trkpt lat="49.7376" lon="2.31527">
        <ele>103.6</ele>
        <time>2023-03-01T14:08:25Z</time>
      </trkpt>
      <trkpt lat="49.73759" lon="2.31525">
        <ele>103.6</ele>
        <time>2023-03-01T14:08:26Z</time>
      </trkpt>
      <trkpt lat="49.73759" lon="2.31523">
        <ele>103.6</ele>
        <time>2023-03-01T14:08:27Z</time>
      </trkpt>
      <trkpt lat="49.73758" lon="2.31521">
        <ele>103.6</ele>
        <time>2023-03-01T14:08:28Z</time>
      </trkpt>
      <trkpt lat="49.73758" lon="2.31517">
        <ele>103.6</ele>
        <time>2023-03-01T14:08:29Z</time>
      </trkpt>
      <trkpt lat="49.73758" lon="2.31516">
        <ele>103.6</ele>
        <time>2023-03-01T14:08:30Z</time>
      </trkpt>
      <trkpt lat="49.73757" lon="2.31515">
        <ele>103.6</ele>
        <time>2023-03-01T14:08:32Z</time>
      </trkpt>
      <trkpt lat="49.73757" lon="2.31513">
        <ele>103.6</ele>
        <time>2023-03-01T14:08:33Z</time>
      </trkpt>
      <trkpt lat="49.73757" lon="2.31512">
        <ele>103.7</ele>
        <time>2023-03-01T14:08:34Z</time>
      </trkpt>
      <trkpt lat="49.73757" lon="2.3151">
        <ele>103.7</ele>
        <time>2023-03-01T14:08:35Z</time>
      </trkpt>
      <trkpt lat="49.73757" lon="2.31509">
        <ele>103.7</ele>
        <time>2023-03-01T14:08:36Z</time>
      </trkpt>
      <trkpt lat="49.73756" lon="2.31507">
        <ele>103.7</ele>
        <time>2023-03-01T14:08:37Z</time>
      </trkpt>
      <trkpt lat="49.73756" lon="2.31505">
        <ele>103.7</ele>
        <time>2023-03-01T14:08:38Z</time>
      </trkpt>
      <trkpt lat="49.73756" lon="2.31504">
        <ele>103.7</ele>
        <time>2023-03-01T14:08:39Z</time>
      </trkpt>
      <trkpt lat="49.73755" lon="2.31501">
        <ele>103.7</ele>
        <time>2023-03-01T14:08:41Z</time>
      </trkpt>
      <trkpt lat="49.73755" lon="2.31499">
        <ele>103.6</ele>
        <time>2023-03-01T14:08:42Z</time>
      </trkpt>
      <trkpt lat="49.73755" lon="2.31497">
        <ele>103.6</ele>
        <time>2023-03-01T14:08:43Z</time>
      </trkpt>
      <trkpt lat="49.73754" lon="2.31496">
        <ele>103.6</ele>
        <time>2023-03-01T14:08:44Z</time>
      </trkpt>
      <trkpt lat="49.73754" lon="2.31494">
        <ele>103.6</ele>
        <time>2023-03-01T14:08:45Z</time>
      </trkpt>
      <trkpt lat="49.73754" lon="2.31492">
        <ele>103.6</ele>
        <time>2023-03-01T14:08:46Z</time>
      </trkpt>
      <trkpt lat="49.73754" lon="2.3149">
        <ele>103.6</ele>
        <time>2023-03-01T14:08:48Z</time>
      </trkpt>
      <trkpt lat="49.73753" lon="2.31488">
        <ele>103.6</ele>
        <time>2023-03-01T14:08:49Z</time>
      </trkpt>
      <trkpt lat="49.73753" lon="2.31486">
        <ele>103.6</ele>
        <time>2023-03-01T14:08:50Z</time>
      </trkpt>
      <trkpt lat="49.73753" lon="2.31485">
        <ele>103.6</ele>
        <time>2023-03-01T14:08:51Z</time>
      </trkpt>
      <trkpt lat="49.73753" lon="2.31483">
        <ele>103.6</ele>
        <time>2023-03-01T14:08:52Z</time>
      </trkpt>
      <trkpt lat="49.73754" lon="2.31482">
        <ele>103.6</ele>
        <time>2023-03-01T14:08:53Z</time>
      </trkpt>
      <trkpt lat="49.73754" lon="2.31479">
        <ele>103.6</ele>
        <time>2023-03-01T14:08:55Z</time>
      </trkpt>
      <trkpt lat="49.73755" lon="2.31479">
        <ele>103.6</ele>
        <time>2023-03-01T14:08:57Z</time>
      </trkpt>
      <trkpt lat="49.73756" lon="2.3148">
        <ele>103.6</ele>
        <time>2023-03-01T14:08:59Z</time>
      </trkpt>
      <trkpt lat="49.73755" lon="2.31479">
        <ele>103.6</ele>
        <time>2023-03-01T14:09:00Z</time>
      </trkpt>
      <trkpt lat="49.73755" lon="2.31479">
        <ele>103.6</ele>
        <time>2023-03-01T14:09:02Z</time>
      </trkpt>
      <trkpt lat="49.73755" lon="2.31479">
        <ele>103.6</ele>
        <time>2023-03-01T14:09:03Z</time>
      </trkpt>
      <trkpt lat="49.73755" lon="2.31478">
        <ele>103.6</ele>
        <time>2023-03-01T14:09:04Z</time>
      </trkpt>
      <trkpt lat="49.73755" lon="2.31478">
        <ele>103.6</ele>
        <time>2023-03-01T14:09:06Z</time>
      </trkpt>
      <trkpt lat="49.73755" lon="2.31477">
        <ele>103.6</ele>
        <time>2023-03-01T14:09:07Z</time>
      </trkpt>
      <trkpt lat="49.73755" lon="2.31478">
        <ele>103.6</ele>
        <time>2023-03-01T14:09:09Z</time>
      </trkpt>
      <trkpt lat="49.73755" lon="2.31477">
        <ele>103.6</ele>
        <time>2023-03-01T14:09:10Z</time>
      </trkpt>
      <trkpt lat="49.73755" lon="2.31477">
        <ele>103.6</ele>
        <time>2023-03-01T14:09:11Z</time>
      </trkpt>
      <trkpt lat="49.73754" lon="2.31477">
        <ele>103.6</ele>
        <time>2023-03-01T14:09:13Z</time>
      </trkpt>
      <trkpt lat="49.73754" lon="2.31476">
        <ele>103.6</ele>
        <time>2023-03-01T14:09:14Z</time>
      </trkpt>
      <trkpt lat="49.73754" lon="2.31475">
        <ele>103.6</ele>
        <time>2023-03-01T14:09:15Z</time>
      </trkpt>
      <trkpt lat="49.73754" lon="2.31474">
        <ele>103.7</ele>
        <time>2023-03-01T14:09:17Z</time>
      </trkpt>
      <trkpt lat="49.73753" lon="2.31473">
        <ele>103.7</ele>
        <time>2023-03-01T14:09:18Z</time>
      </trkpt>
      <trkpt lat="49.73753" lon="2.31472">
        <ele>103.8</ele>
        <time>2023-03-01T14:09:19Z</time>
      </trkpt>
      <trkpt lat="49.73752" lon="2.3147">
        <ele>103.8</ele>
        <time>2023-03-01T14:09:20Z</time>
      </trkpt>
      <trkpt lat="49.73752" lon="2.31468">
        <ele>103.8</ele>
        <time>2023-03-01T14:09:22Z</time>
      </trkpt>
      <trkpt lat="49.73752" lon="2.31467">
        <ele>103.9</ele>
        <time>2023-03-01T14:09:24Z</time>
      </trkpt>
      <trkpt lat="49.73752" lon="2.31466">
        <ele>103.9</ele>
        <time>2023-03-01T14:09:26Z</time>
      </trkpt>
      <trkpt lat="49.73752" lon="2.31466">
        <ele>103.9</ele>
        <time>2023-03-01T14:09:27Z</time>
      </trkpt>
      <trkpt lat="49.73752" lon="2.31467">
        <ele>103.9</ele>
        <time>2023-03-01T14:09:29Z</time>
      </trkpt>
      <trkpt lat="49.73752" lon="2.31467">
        <ele>103.9</ele>
        <time>2023-03-01T14:09:30Z</time>
      </trkpt>
      <trkpt lat="49.73752" lon="2.31467">
        <ele>103.9</ele>
        <time>2023-03-01T14:09:32Z</time>
      </trkpt>
      <trkpt lat="49.73752" lon="2.31467">
        <ele>103.9</ele>
        <time>2023-03-01T14:09:33Z</time>
      </trkpt>
      <trkpt lat="49.73752" lon="2.31467">
        <ele>103.9</ele>
        <time>2023-03-01T14:09:35Z</time>
      </trkpt>
      <trkpt lat="49.73752" lon="2.31467">
        <ele>103.9</ele>
        <time>2023-03-01T14:09:36Z</time>
      </trkpt>
      <trkpt lat="49.73752" lon="2.31467">
        <ele>103.9</ele>
        <time>2023-03-01T14:09:37Z</time>
      </trkpt>
      <trkpt lat="49.73752" lon="2.31467">
        <ele>103.9</ele>
        <time>2023-03-01T14:09:38Z</time>
      </trkpt>
      <trkpt lat="49.73752" lon="2.31467">
        <ele>103.9</ele>
        <time>2023-03-01T14:09:39Z</time>
      </trkpt>
      <trkpt lat="49.73752" lon="2.31467">
        <ele>103.9</ele>
        <time>2023-03-01T14:09:40Z</time>
      </trkpt>
      <trkpt lat="49.73752" lon="2.31467">
        <ele>103.9</ele>
        <time>2023-03-01T14:09:42Z</time>
      </trkpt>
      <trkpt lat="49.73752" lon="2.31467">
        <ele>103.9</ele>
        <time>2023-03-01T14:09:43Z</time>
      </trkpt>
      <trkpt lat="49.73752" lon="2.31467">
        <ele>103.9</ele>
        <time>2023-03-01T14:09:44Z</time>
      </trkpt>
      <trkpt lat="49.73752" lon="2.31467">
        <ele>103.9</ele>
        <time>2023-03-01T14:09:45Z</time>
      </trkpt>
      <trkpt lat="49.73752" lon="2.31467">
        <ele>103.9</ele>
        <time>2023-03-01T14:09:47Z</time>
      </trkpt>
      <trkpt lat="49.73752" lon="2.31467">
        <ele>103.9</ele>
        <time>2023-03-01T14:09:48Z</time>
      </trkpt>
      <trkpt lat="49.73752" lon="2.31467">
        <ele>103.9</ele>
        <time>2023-03-01T14:09:49Z</time>
      </trkpt>
      <trkpt lat="49.73752" lon="2.31467">
        <ele>103.9</ele>
        <time>2023-03-01T14:09:51Z</time>
      </trkpt>
      <trkpt lat="49.73752" lon="2.31472">
        <ele>104</ele>
        <time>2023-03-01T14:09:52Z</time>
      </trkpt>
      <trkpt lat="49.73751" lon="2.31472">
        <ele>104</ele>
        <time>2023-03-01T14:09:54Z</time>
      </trkpt>
      <trkpt lat="49.73751" lon="2.31473">
        <ele>104</ele>
        <time>2023-03-01T14:09:55Z</time>
      </trkpt>
      <trkpt lat="49.73751" lon="2.31473">
        <ele>104</ele>
        <time>2023-03-01T14:09:56Z</time>
      </trkpt>
      <trkpt lat="49.73751" lon="2.31473">
        <ele>104</ele>
        <time>2023-03-01T14:09:57Z</time>
      </trkpt>
      <trkpt lat="49.73751" lon="2.31473">
        <ele>104</ele>
        <time>2023-03-01T14:09:58Z</time>
      </trkpt>
      <trkpt lat="49.73751" lon="2.31473">
        <ele>104</ele>
        <time>2023-03-01T14:09:59Z</time>
      </trkpt>
      <trkpt lat="49.73751" lon="2.31473">
        <ele>104</ele>
        <time>2023-03-01T14:10:00Z</time>
      </trkpt>
      <trkpt lat="49.73751" lon="2.31473">
        <ele>104</ele>
        <time>2023-03-01T14:10:01Z</time>
      </trkpt>
      <trkpt lat="49.73751" lon="2.31473">
        <ele>104</ele>
        <time>2023-03-01T14:10:03Z</time>
      </trkpt>
      <trkpt lat="49.73751" lon="2.31473">
        <ele>104</ele>
        <time>2023-03-01T14:10:04Z</time>
      </trkpt>
      <trkpt lat="49.73751" lon="2.31473">
        <ele>104</ele>
        <time>2023-03-01T14:10:05Z</time>
      </trkpt>
      <trkpt lat="49.73751" lon="2.31473">
        <ele>104</ele>
        <time>2023-03-01T14:10:06Z</time>
      </trkpt>
      <trkpt lat="49.73751" lon="2.31473">
        <ele>104</ele>
        <time>2023-03-01T14:10:08Z</time>
      </trkpt>
      <trkpt lat="49.73751" lon="2.31473">
        <ele>104</ele>
        <time>2023-03-01T14:10:09Z</time>
      </trkpt>
      <trkpt lat="49.73751" lon="2.31473">
        <ele>104</ele>
        <time>2023-03-01T14:10:10Z</time>
      </trkpt>
      <trkpt lat="49.73751" lon="2.31473">
        <ele>104</ele>
        <time>2023-03-01T14:10:11Z</time>
      </trkpt>
      <trkpt lat="49.73751" lon="2.31473">
        <ele>104</ele>
        <time>2023-03-01T14:10:12Z</time>
      </trkpt>
      <trkpt lat="49.73751" lon="2.31473">
        <ele>104</ele>
        <time>2023-03-01T14:10:13Z</time>
      </trkpt>
      <trkpt lat="49.73751" lon="2.31474">
        <ele>104.1</ele>
        <time>2023-03-01T14:10:15Z</time>
      </trkpt>
      <trkpt lat="49.7375" lon="2.31474">
        <ele>104.1</ele>
        <time>2023-03-01T14:10:17Z</time>
      </trkpt>
      <trkpt lat="49.7375" lon="2.31475">
        <ele>104.1</ele>
        <time>2023-03-01T14:10:19Z</time>
      </trkpt>
      <trkpt lat="49.7375" lon="2.31475">
        <ele>104.1</ele>
        <time>2023-03-01T14:10:20Z</time>
      </trkpt>
      <trkpt lat="49.7375" lon="2.31475">
        <ele>104.1</ele>
        <time>2023-03-01T14:10:21Z</time>
      </trkpt>
      <trkpt lat="49.7375" lon="2.31475">
        <ele>104.1</ele>
        <time>2023-03-01T14:10:23Z</time>
      </trkpt>
      <trkpt lat="49.7375" lon="2.31475">
        <ele>104.1</ele>
        <time>2023-03-01T14:10:24Z</time>
      </trkpt>
      <trkpt lat="49.7375" lon="2.31475">
        <ele>104.1</ele>
        <time>2023-03-01T14:10:25Z</time>
      </trkpt>
      <trkpt lat="49.7375" lon="2.31475">
        <ele>104.1</ele>
        <time>2023-03-01T14:10:27Z</time>
      </trkpt>
      <trkpt lat="49.7375" lon="2.31475">
        <ele>104.1</ele>
        <time>2023-03-01T14:10:28Z</time>
      </trkpt>
      <trkpt lat="49.7375" lon="2.31475">
        <ele>104.1</ele>
        <time>2023-03-01T14:10:30Z</time>
      </trkpt>
      <trkpt lat="49.7375" lon="2.31475">
        <ele>104.1</ele>
        <time>2023-03-01T14:10:31Z</time>
      </trkpt>
      <trkpt lat="49.7375" lon="2.31475">
        <ele>104.1</ele>
        <time>2023-03-01T14:10:32Z</time>
      </trkpt>
      <trkpt lat="49.73751" lon="2.31475">
        <ele>104.2</ele>
        <time>2023-03-01T14:10:33Z</time>
      </trkpt>
      <trkpt lat="49.73751" lon="2.31475">
        <ele>104.2</ele>
        <time>2023-03-01T14:10:35Z</time>
      </trkpt>
      <trkpt lat="49.73751" lon="2.31475">
        <ele>104.2</ele>
        <time>2023-03-01T14:10:36Z</time>
      </trkpt>
      <trkpt lat="49.73751" lon="2.31475">
        <ele>104.2</ele>
        <time>2023-03-01T14:10:37Z</time>
      </trkpt>
      <trkpt lat="49.73751" lon="2.31475">
        <ele>104.2</ele>
        <time>2023-03-01T14:10:39Z</time>
      </trkpt>
      <trkpt lat="49.73751" lon="2.31475">
        <ele>104.2</ele>
        <time>2023-03-01T14:10:40Z</time>
      </trkpt>
      <trkpt lat="49.73751" lon="2.31475">
        <ele>104.2</ele>
        <time>2023-03-01T14:10:41Z</time>
      </trkpt>
      <trkpt lat="49.73751" lon="2.31475">
        <ele>104.2</ele>
        <time>2023-03-01T14:10:42Z</time>
      </trkpt>
      <trkpt lat="49.73751" lon="2.31475">
        <ele>104.2</ele>
        <time>2023-03-01T14:10:43Z</time>
      </trkpt>
      <trkpt lat="49.73751" lon="2.31475">
        <ele>104.2</ele>
        <time>2023-03-01T14:10:44Z</time>
      </trkpt>
      <trkpt lat="49.73751" lon="2.31475">
        <ele>104.2</ele>
        <time>2023-03-01T14:10:45Z</time>
      </trkpt>
      <trkpt lat="49.73751" lon="2.31475">
        <ele>104.2</ele>
        <time>2023-03-01T14:10:46Z</time>
      </trkpt>
      <trkpt lat="49.73751" lon="2.31475">
        <ele>104.2</ele>
        <time>2023-03-01T14:10:47Z</time>
      </trkpt>
      <trkpt lat="49.73751" lon="2.31475">
        <ele>104.2</ele>
        <time>2023-03-01T14:10:48Z</time>
      </trkpt>
      <trkpt lat="49.73751" lon="2.31475">
        <ele>104.2</ele>
        <time>2023-03-01T14:10:49Z</time>
      </trkpt>
      <trkpt lat="49.73751" lon="2.31475">
        <ele>104.2</ele>
        <time>2023-03-01T14:10:50Z</time>
      </trkpt>
      <trkpt lat="49.73751" lon="2.31475">
        <ele>104.2</ele>
        <time>2023-03-01T14:10:51Z</time>
      </trkpt>
      <trkpt lat="49.73751" lon="2.31475">
        <ele>104.2</ele>
        <time>2023-03-01T14:10:52Z</time>
      </trkpt>
      <trkpt lat="49.73751" lon="2.31475">
        <ele>104.2</ele>
        <time>2023-03-01T14:10:53Z</time>
      </trkpt>
      <trkpt lat="49.73751" lon="2.31475">
        <ele>104.2</ele>
        <time>2023-03-01T14:10:54Z</time>
      </trkpt>
      <trkpt lat="49.73751" lon="2.31475">
        <ele>104.2</ele>
        <time>2023-03-01T14:10:55Z</time>
      </trkpt>
      <trkpt lat="49.73751" lon="2.31475">
        <ele>104.2</ele>
        <time>2023-03-01T14:10:56Z</time>
      </trkpt>
      <trkpt lat="49.73751" lon="2.31475">
        <ele>104.2</ele>
        <time>2023-03-01T14:10:57Z</time>
      </trkpt>
      <trkpt lat="49.73751" lon="2.31475">
        <ele>104.2</ele>
        <time>2023-03-01T14:10:58Z</time>
      </trkpt>
      <trkpt lat="49.73751" lon="2.31475">
        <ele>104.2</ele>
        <time>2023-03-01T14:10:59Z</time>
      </trkpt>
      <trkpt lat="49.73751" lon="2.31475">
        <ele>104.2</ele>
        <time>2023-03-01T14:11:00Z</time>
      </trkpt>
      <trkpt lat="49.73751" lon="2.31475">
        <ele>104.2</ele>
        <time>2023-03-01T14:11:01Z</time>
      </trkpt>
      <trkpt lat="49.73751" lon="2.31475">
        <ele>104.2</ele>
        <time>2023-03-01T14:11:02Z</time>
      </trkpt>
      <trkpt lat="49.73751" lon="2.31475">
        <ele>104.2</ele>
        <time>2023-03-01T14:11:03Z</time>
      </trkpt>
      <trkpt lat="49.73751" lon="2.31475">
        <ele>104.2</ele>
        <time>2023-03-01T14:11:05Z</time>
      </trkpt>
      <trkpt lat="49.73751" lon="2.31475">
        <ele>104.2</ele>
        <time>2023-03-01T14:11:06Z</time>
      </trkpt>
      <trkpt lat="49.73751" lon="2.31475">
        <ele>104.2</ele>
        <time>2023-03-01T14:11:07Z</time>
      </trkpt>
      <trkpt lat="49.73751" lon="2.31475">
        <ele>104.2</ele>
        <time>2023-03-01T14:11:08Z</time>
      </trkpt>
      <trkpt lat="49.73751" lon="2.31475">
        <ele>104.2</ele>
        <time>2023-03-01T14:11:09Z</time>
      </trkpt>
      <trkpt lat="49.73751" lon="2.31475">
        <ele>104.2</ele>
        <time>2023-03-01T14:11:10Z</time>
      </trkpt>
      <trkpt lat="49.73751" lon="2.31475">
        <ele>104.2</ele>
        <time>2023-03-01T14:11:11Z</time>
      </trkpt>
      <trkpt lat="49.73751" lon="2.31475">
        <ele>104.2</ele>
        <time>2023-03-01T14:11:12Z</time>
      </trkpt>
      <trkpt lat="49.73751" lon="2.31475">
        <ele>104.2</ele>
        <time>2023-03-01T14:11:13Z</time>
      </trkpt>
      <trkpt lat="49.73751" lon="2.31475">
        <ele>104.2</ele>
        <time>2023-03-01T14:11:14Z</time>
      </trkpt>
      <trkpt lat="49.73751" lon="2.31475">
        <ele>104.2</ele>
        <time>2023-03-01T14:11:15Z</time>
      </trkpt>
      <trkpt lat="49.73751" lon="2.31475">
        <ele>104.2</ele>
        <time>2023-03-01T14:11:16Z</time>
      </trkpt>
      <trkpt lat="49.73751" lon="2.31475">
        <ele>104.2</ele>
        <time>2023-03-01T14:11:17Z</time>
      </trkpt>
      <trkpt lat="49.73751" lon="2.31475">
        <ele>104.2</ele>
        <time>2023-03-01T14:11:18Z</time>
      </trkpt>
      <trkpt lat="49.7375" lon="2.31473">
        <ele>104.2</ele>
        <time>2023-03-01T14:11:19Z</time>
      </trkpt>
      <trkpt lat="49.7375" lon="2.31471">
        <ele>104.2</ele>
        <time>2023-03-01T14:11:21Z</time>
      </trkpt>
      <trkpt lat="49.7375" lon="2.31471">
        <ele>104.2</ele>
        <time>2023-03-01T14:11:22Z</time>
      </trkpt>
      <trkpt lat="49.7375" lon="2.31471">
        <ele>104.3</ele>
        <time>2023-03-01T14:11:24Z</time>
      </trkpt>
      <trkpt lat="49.73751" lon="2.31471">
        <ele>104.3</ele>
        <time>2023-03-01T14:11:25Z</time>
      </trkpt>
      <trkpt lat="49.73752" lon="2.3147">
        <ele>104.3</ele>
        <time>2023-03-01T14:11:26Z</time>
      </trkpt>
      <trkpt lat="49.73753" lon="2.3147">
        <ele>104.3</ele>
        <time>2023-03-01T14:11:27Z</time>
      </trkpt>
      <trkpt lat="49.73755" lon="2.31469">
        <ele>104.4</ele>
        <time>2023-03-01T14:11:28Z</time>
      </trkpt>
      <trkpt lat="49.73756" lon="2.31469">
        <ele>104.5</ele>
        <time>2023-03-01T14:11:29Z</time>
      </trkpt>
      <trkpt lat="49.73757" lon="2.31469">
        <ele>104.5</ele>
        <time>2023-03-01T14:11:30Z</time>
      </trkpt>
      <trkpt lat="49.73759" lon="2.31469">
        <ele>104.5</ele>
        <time>2023-03-01T14:11:32Z</time>
      </trkpt>
      <trkpt lat="49.7376" lon="2.31469">
        <ele>104.6</ele>
        <time>2023-03-01T14:11:33Z</time>
      </trkpt>
      <trkpt lat="49.73763" lon="2.3147">
        <ele>104.7</ele>
        <time>2023-03-01T14:11:34Z</time>
      </trkpt>
      <trkpt lat="49.73764" lon="2.3147">
        <ele>104.7</ele>
        <time>2023-03-01T14:11:36Z</time>
      </trkpt>
      <trkpt lat="49.73765" lon="2.3147">
        <ele>104.8</ele>
        <time>2023-03-01T14:11:37Z</time>
      </trkpt>
      <trkpt lat="49.73766" lon="2.3147">
        <ele>104.8</ele>
        <time>2023-03-01T14:11:38Z</time>
      </trkpt>
      <trkpt lat="49.73767" lon="2.3147">
        <ele>104.8</ele>
        <time>2023-03-01T14:11:39Z</time>
      </trkpt>
      <trkpt lat="49.73769" lon="2.3147">
        <ele>104.9</ele>
        <time>2023-03-01T14:11:40Z</time>
      </trkpt>
      <trkpt lat="49.7377" lon="2.3147">
        <ele>104.9</ele>
        <time>2023-03-01T14:11:42Z</time>
      </trkpt>
      <trkpt lat="49.73771" lon="2.3147">
        <ele>105</ele>
        <time>2023-03-01T14:11:44Z</time>
      </trkpt>
      <trkpt lat="49.73771" lon="2.31469">
        <ele>105</ele>
        <time>2023-03-01T14:11:45Z</time>
      </trkpt>
      <trkpt lat="49.73772" lon="2.31469">
        <ele>105.1</ele>
        <time>2023-03-01T14:11:46Z</time>
      </trkpt>
      <trkpt lat="49.73773" lon="2.31469">
        <ele>105.1</ele>
        <time>2023-03-01T14:11:47Z</time>
      </trkpt>
      <trkpt lat="49.73774" lon="2.31469">
        <ele>105.1</ele>
        <time>2023-03-01T14:11:48Z</time>
      </trkpt>
      <trkpt lat="49.73776" lon="2.31469">
        <ele>105.2</ele>
        <time>2023-03-01T14:11:49Z</time>
      </trkpt>
      <trkpt lat="49.73778" lon="2.31469">
        <ele>105.3</ele>
        <time>2023-03-01T14:11:50Z</time>
      </trkpt>
      <trkpt lat="49.73779" lon="2.31469">
        <ele>105.3</ele>
        <time>2023-03-01T14:11:52Z</time>
      </trkpt>
      <trkpt lat="49.7378" lon="2.31468">
        <ele>105.4</ele>
        <time>2023-03-01T14:11:53Z</time>
      </trkpt>
      <trkpt lat="49.73782" lon="2.31468">
        <ele>105.4</ele>
        <time>2023-03-01T14:11:54Z</time>
      </trkpt>
      <trkpt lat="49.73783" lon="2.31468">
        <ele>105.5</ele>
        <time>2023-03-01T14:11:55Z</time>
      </trkpt>
      <trkpt lat="49.73785" lon="2.31469">
        <ele>105.6</ele>
        <time>2023-03-01T14:11:56Z</time>
      </trkpt>
      <trkpt lat="49.73786" lon="2.31469">
        <ele>105.6</ele>
        <time>2023-03-01T14:11:57Z</time>
      </trkpt>
      <trkpt lat="49.73787" lon="2.31469">
        <ele>105.7</ele>
        <time>2023-03-01T14:11:58Z</time>
      </trkpt>
      <trkpt lat="49.73789" lon="2.31469">
        <ele>105.7</ele>
        <time>2023-03-01T14:12:00Z</time>
      </trkpt>
      <trkpt lat="49.7379" lon="2.31469">
        <ele>105.8</ele>
        <time>2023-03-01T14:12:01Z</time>
      </trkpt>
      <trkpt lat="49.73791" lon="2.31469">
        <ele>105.8</ele>
        <time>2023-03-01T14:12:02Z</time>
      </trkpt>
      <trkpt lat="49.73792" lon="2.31469">
        <ele>105.9</ele>
        <time>2023-03-01T14:12:03Z</time>
      </trkpt>
      <trkpt lat="49.73793" lon="2.31469">
        <ele>105.9</ele>
        <time>2023-03-01T14:12:04Z</time>
      </trkpt>
      <trkpt lat="49.73796" lon="2.31469">
        <ele>106</ele>
        <time>2023-03-01T14:12:05Z</time>
      </trkpt>
      <trkpt lat="49.73797" lon="2.31469">
        <ele>106.1</ele>
        <time>2023-03-01T14:12:07Z</time>
      </trkpt>
      <trkpt lat="49.73798" lon="2.31469">
        <ele>106.1</ele>
        <time>2023-03-01T14:12:08Z</time>
      </trkpt>
      <trkpt lat="49.73799" lon="2.31468">
        <ele>106.2</ele>
        <time>2023-03-01T14:12:09Z</time>
      </trkpt>
      <trkpt lat="49.738" lon="2.31468">
        <ele>106.2</ele>
        <time>2023-03-01T14:12:10Z</time>
      </trkpt>
      <trkpt lat="49.73801" lon="2.31468">
        <ele>106.3</ele>
        <time>2023-03-01T14:12:11Z</time>
      </trkpt>
      <trkpt lat="49.73802" lon="2.31468">
        <ele>106.3</ele>
        <time>2023-03-01T14:12:12Z</time>
      </trkpt>
      <trkpt lat="49.73803" lon="2.31467">
        <ele>106.4</ele>
        <time>2023-03-01T14:12:14Z</time>
      </trkpt>
      <trkpt lat="49.73805" lon="2.31467">
        <ele>106.4</ele>
        <time>2023-03-01T14:12:15Z</time>
      </trkpt>
      <trkpt lat="49.73806" lon="2.31467">
        <ele>106.5</ele>
        <time>2023-03-01T14:12:16Z</time>
      </trkpt>
      <trkpt lat="49.73807" lon="2.31467">
        <ele>106.5</ele>
        <time>2023-03-01T14:12:17Z</time>
      </trkpt>
      <trkpt lat="49.73808" lon="2.31466">
        <ele>106.6</ele>
        <time>2023-03-01T14:12:18Z</time>
      </trkpt>
      <trkpt lat="49.7381" lon="2.31467">
        <ele>106.6</ele>
        <time>2023-03-01T14:12:19Z</time>
      </trkpt>
      <trkpt lat="49.73811" lon="2.31467">
        <ele>106.7</ele>
        <time>2023-03-01T14:12:21Z</time>
      </trkpt>
      <trkpt lat="49.73812" lon="2.31467">
        <ele>106.7</ele>
        <time>2023-03-01T14:12:22Z</time>
      </trkpt>
      <trkpt lat="49.73813" lon="2.31467">
        <ele>106.8</ele>
        <time>2023-03-01T14:12:23Z</time>
      </trkpt>
      <trkpt lat="49.73815" lon="2.31467">
        <ele>106.9</ele>
        <time>2023-03-01T14:12:24Z</time>
      </trkpt>
      <trkpt lat="49.73817" lon="2.31467">
        <ele>106.9</ele>
        <time>2023-03-01T14:12:25Z</time>
      </trkpt>
      <trkpt lat="49.73818" lon="2.31467">
        <ele>107</ele>
        <time>2023-03-01T14:12:27Z</time>
      </trkpt>
      <trkpt lat="49.73819" lon="2.31467">
        <ele>107</ele>
        <time>2023-03-01T14:12:29Z</time>
      </trkpt>
      <trkpt lat="49.73821" lon="2.31467">
        <ele>107.1</ele>
        <time>2023-03-01T14:12:30Z</time>
      </trkpt>
      <trkpt lat="49.73821" lon="2.31467">
        <ele>107.1</ele>
        <time>2023-03-01T14:12:31Z</time>
      </trkpt>
      <trkpt lat="49.73822" lon="2.31467">
        <ele>107.1</ele>
        <time>2023-03-01T14:12:32Z</time>
      </trkpt>
      <trkpt lat="49.73823" lon="2.31468">
        <ele>107.2</ele>
        <time>2023-03-01T14:12:33Z</time>
      </trkpt>
      <trkpt lat="49.73825" lon="2.31468">
        <ele>107.2</ele>
        <time>2023-03-01T14:12:34Z</time>
      </trkpt>
      <trkpt lat="49.73826" lon="2.31468">
        <ele>107.3</ele>
        <time>2023-03-01T14:12:35Z</time>
      </trkpt>
      <trkpt lat="49.73827" lon="2.31468">
        <ele>107.3</ele>
        <time>2023-03-01T14:12:37Z</time>
      </trkpt>
      <trkpt lat="49.73829" lon="2.31468">
        <ele>107.4</ele>
        <time>2023-03-01T14:12:38Z</time>
      </trkpt>
      <trkpt lat="49.7383" lon="2.31468">
        <ele>107.4</ele>
        <time>2023-03-01T14:12:39Z</time>
      </trkpt>
      <trkpt lat="49.73831" lon="2.31468">
        <ele>107.5</ele>
        <time>2023-03-01T14:12:40Z</time>
      </trkpt>
      <trkpt lat="49.73832" lon="2.31468">
        <ele>107.5</ele>
        <time>2023-03-01T14:12:41Z</time>
      </trkpt>
      <trkpt lat="49.73833" lon="2.31468">
        <ele>107.6</ele>
        <time>2023-03-01T14:12:42Z</time>
      </trkpt>
      <trkpt lat="49.73835" lon="2.31467">
        <ele>107.7</ele>
        <time>2023-03-01T14:12:43Z</time>
      </trkpt>
      <trkpt lat="49.73836" lon="2.31467">
        <ele>107.7</ele>
        <time>2023-03-01T14:12:45Z</time>
      </trkpt>
      <trkpt lat="49.73837" lon="2.31467">
        <ele>107.7</ele>
        <time>2023-03-01T14:12:46Z</time>
      </trkpt>
      <trkpt lat="49.73838" lon="2.31467">
        <ele>107.8</ele>
        <time>2023-03-01T14:12:47Z</time>
      </trkpt>
      <trkpt lat="49.73839" lon="2.31466">
        <ele>107.8</ele>
        <time>2023-03-01T14:12:48Z</time>
      </trkpt>
      <trkpt lat="49.7384" lon="2.31466">
        <ele>107.9</ele>
        <time>2023-03-01T14:12:49Z</time>
      </trkpt>
      <trkpt lat="49.73842" lon="2.31465">
        <ele>108</ele>
        <time>2023-03-01T14:12:50Z</time>
      </trkpt>
      <trkpt lat="49.73843" lon="2.31464">
        <ele>108</ele>
        <time>2023-03-01T14:12:52Z</time>
      </trkpt>
      <trkpt lat="49.73844" lon="2.31464">
        <ele>108</ele>
        <time>2023-03-01T14:12:53Z</time>
      </trkpt>
      <trkpt lat="49.73846" lon="2.31463">
        <ele>108.1</ele>
        <time>2023-03-01T14:12:54Z</time>
      </trkpt>
      <trkpt lat="49.73847" lon="2.31463">
        <ele>108.2</ele>
        <time>2023-03-01T14:12:55Z</time>
      </trkpt>
      <trkpt lat="49.73848" lon="2.31463">
        <ele>108.2</ele>
        <time>2023-03-01T14:12:56Z</time>
      </trkpt>
      <trkpt lat="49.73849" lon="2.31462">
        <ele>108.3</ele>
        <time>2023-03-01T14:12:57Z</time>
      </trkpt>
      <trkpt lat="49.7385" lon="2.31462">
        <ele>108.3</ele>
        <time>2023-03-01T14:12:58Z</time>
      </trkpt>
      <trkpt lat="49.73851" lon="2.31462">
        <ele>108.4</ele>
        <time>2023-03-01T14:13:00Z</time>
      </trkpt>
      <trkpt lat="49.73853" lon="2.31461">
        <ele>108.5</ele>
        <time>2023-03-01T14:13:01Z</time>
      </trkpt>
      <trkpt lat="49.73854" lon="2.3146">
        <ele>108.5</ele>
        <time>2023-03-01T14:13:02Z</time>
      </trkpt>
      <trkpt lat="49.73856" lon="2.31459">
        <ele>108.6</ele>
        <time>2023-03-01T14:13:03Z</time>
      </trkpt>
      <trkpt lat="49.73857" lon="2.31459">
        <ele>108.6</ele>
        <time>2023-03-01T14:13:04Z</time>
      </trkpt>
      <trkpt lat="49.73858" lon="2.31458">
        <ele>108.7</ele>
        <time>2023-03-01T14:13:05Z</time>
      </trkpt>
      <trkpt lat="49.73859" lon="2.31458">
        <ele>108.7</ele>
        <time>2023-03-01T14:13:06Z</time>
      </trkpt>
      <trkpt lat="49.7386" lon="2.31458">
        <ele>108.8</ele>
        <time>2023-03-01T14:13:08Z</time>
      </trkpt>
      <trkpt lat="49.73861" lon="2.31457">
        <ele>108.8</ele>
        <time>2023-03-01T14:13:09Z</time>
      </trkpt>
      <trkpt lat="49.73862" lon="2.31457">
        <ele>108.9</ele>
        <time>2023-03-01T14:13:10Z</time>
      </trkpt>
      <trkpt lat="49.73863" lon="2.31456">
        <ele>108.9</ele>
        <time>2023-03-01T14:13:11Z</time>
      </trkpt>
      <trkpt lat="49.73864" lon="2.31456">
        <ele>109</ele>
        <time>2023-03-01T14:13:12Z</time>
      </trkpt>
      <trkpt lat="49.73865" lon="2.31455">
        <ele>109</ele>
        <time>2023-03-01T14:13:13Z</time>
      </trkpt>
      <trkpt lat="49.73866" lon="2.31455">
        <ele>109.1</ele>
        <time>2023-03-01T14:13:15Z</time>
      </trkpt>
      <trkpt lat="49.73868" lon="2.31455">
        <ele>109.1</ele>
        <time>2023-03-01T14:13:16Z</time>
      </trkpt>
      <trkpt lat="49.73868" lon="2.31455">
        <ele>109.2</ele>
        <time>2023-03-01T14:13:17Z</time>
      </trkpt>
      <trkpt lat="49.73869" lon="2.31455">
        <ele>109.2</ele>
        <time>2023-03-01T14:13:18Z</time>
      </trkpt>
      <trkpt lat="49.73871" lon="2.31455">
        <ele>109.3</ele>
        <time>2023-03-01T14:13:19Z</time>
      </trkpt>
      <trkpt lat="49.73872" lon="2.31455">
        <ele>109.3</ele>
        <time>2023-03-01T14:13:20Z</time>
      </trkpt>
      <trkpt lat="49.73873" lon="2.31455">
        <ele>109.4</ele>
        <time>2023-03-01T14:13:22Z</time>
      </trkpt>
      <trkpt lat="49.73875" lon="2.31455">
        <ele>109.5</ele>
        <time>2023-03-01T14:13:23Z</time>
      </trkpt>
      <trkpt lat="49.73876" lon="2.31455">
        <ele>109.5</ele>
        <time>2023-03-01T14:13:24Z</time>
      </trkpt>
      <trkpt lat="49.73877" lon="2.31455">
        <ele>109.6</ele>
        <time>2023-03-01T14:13:25Z</time>
      </trkpt>
      <trkpt lat="49.73878" lon="2.31454">
        <ele>109.7</ele>
        <time>2023-03-01T14:13:26Z</time>
      </trkpt>
      <trkpt lat="49.73879" lon="2.31454">
        <ele>109.7</ele>
        <time>2023-03-01T14:13:28Z</time>
      </trkpt>
      <trkpt lat="49.7388" lon="2.31454">
        <ele>109.8</ele>
        <time>2023-03-01T14:13:29Z</time>
      </trkpt>
      <trkpt lat="49.73881" lon="2.31453">
        <ele>109.8</ele>
        <time>2023-03-01T14:13:30Z</time>
      </trkpt>
      <trkpt lat="49.73882" lon="2.31453">
        <ele>109.9</ele>
        <time>2023-03-01T14:13:31Z</time>
      </trkpt>
      <trkpt lat="49.73883" lon="2.31452">
        <ele>109.9</ele>
        <time>2023-03-01T14:13:32Z</time>
      </trkpt>
      <trkpt lat="49.73885" lon="2.31452">
        <ele>110</ele>
        <time>2023-03-01T14:13:33Z</time>
      </trkpt>
      <trkpt lat="49.73886" lon="2.31452">
        <ele>110.1</ele>
        <time>2023-03-01T14:13:35Z</time>
      </trkpt>
      <trkpt lat="49.73887" lon="2.31452">
        <ele>110.1</ele>
        <time>2023-03-01T14:13:36Z</time>
      </trkpt>
      <trkpt lat="49.73888" lon="2.31452">
        <ele>110.2</ele>
        <time>2023-03-01T14:13:37Z</time>
      </trkpt>
      <trkpt lat="49.73889" lon="2.31452">
        <ele>110.2</ele>
        <time>2023-03-01T14:13:38Z</time>
      </trkpt>
      <trkpt lat="49.7389" lon="2.31452">
        <ele>110.3</ele>
        <time>2023-03-01T14:13:39Z</time>
      </trkpt>
      <trkpt lat="49.73891" lon="2.31451">
        <ele>110.3</ele>
        <time>2023-03-01T14:13:41Z</time>
      </trkpt>
      <trkpt lat="49.73893" lon="2.31451">
        <ele>110.4</ele>
        <time>2023-03-01T14:13:42Z</time>
      </trkpt>
      <trkpt lat="49.73894" lon="2.31451">
        <ele>110.5</ele>
        <time>2023-03-01T14:13:43Z</time>
      </trkpt>
      <trkpt lat="49.73895" lon="2.31451">
        <ele>110.5</ele>
        <time>2023-03-01T14:13:44Z</time>
      </trkpt>
      <trkpt lat="49.73896" lon="2.31451">
        <ele>110.6</ele>
        <time>2023-03-01T14:13:45Z</time>
      </trkpt>
      <trkpt lat="49.73897" lon="2.3145">
        <ele>110.6</ele>
        <time>2023-03-01T14:13:46Z</time>
      </trkpt>
      <trkpt lat="49.73898" lon="2.3145">
        <ele>110.7</ele>
        <time>2023-03-01T14:13:48Z</time>
      </trkpt>
      <trkpt lat="49.73899" lon="2.3145">
        <ele>110.7</ele>
        <time>2023-03-01T14:13:49Z</time>
      </trkpt>
      <trkpt lat="49.739" lon="2.3145">
        <ele>110.8</ele>
        <time>2023-03-01T14:13:50Z</time>
      </trkpt>
      <trkpt lat="49.73902" lon="2.3145">
        <ele>110.9</ele>
        <time>2023-03-01T14:13:51Z</time>
      </trkpt>
      <trkpt lat="49.73903" lon="2.3145">
        <ele>110.9</ele>
        <time>2023-03-01T14:13:52Z</time>
      </trkpt>
      <trkpt lat="49.73903" lon="2.3145">
        <ele>111</ele>
        <time>2023-03-01T14:13:53Z</time>
      </trkpt>
      <trkpt lat="49.73905" lon="2.3145">
        <ele>111.1</ele>
        <time>2023-03-01T14:13:55Z</time>
      </trkpt>
      <trkpt lat="49.73906" lon="2.3145">
        <ele>111.1</ele>
        <time>2023-03-01T14:13:56Z</time>
      </trkpt>
      <trkpt lat="49.73907" lon="2.3145">
        <ele>111.1</ele>
        <time>2023-03-01T14:13:57Z</time>
      </trkpt>
      <trkpt lat="49.73908" lon="2.3145">
        <ele>111.2</ele>
        <time>2023-03-01T14:13:58Z</time>
      </trkpt>
      <trkpt lat="49.73909" lon="2.3145">
        <ele>111.2</ele>
        <time>2023-03-01T14:13:59Z</time>
      </trkpt>
      <trkpt lat="49.7391" lon="2.3145">
        <ele>111.3</ele>
        <time>2023-03-01T14:14:00Z</time>
      </trkpt>
      <trkpt lat="49.73912" lon="2.31449">
        <ele>111.4</ele>
        <time>2023-03-01T14:14:01Z</time>
      </trkpt>
      <trkpt lat="49.73913" lon="2.31449">
        <ele>111.4</ele>
        <time>2023-03-01T14:14:02Z</time>
      </trkpt>
      <trkpt lat="49.73914" lon="2.31449">
        <ele>111.5</ele>
        <time>2023-03-01T14:14:04Z</time>
      </trkpt>
      <trkpt lat="49.73915" lon="2.31449">
        <ele>111.6</ele>
        <time>2023-03-01T14:14:05Z</time>
      </trkpt>
      <trkpt lat="49.73916" lon="2.31449">
        <ele>111.6</ele>
        <time>2023-03-01T14:14:06Z</time>
      </trkpt>
      <trkpt lat="49.73918" lon="2.31449">
        <ele>111.7</ele>
        <time>2023-03-01T14:14:07Z</time>
      </trkpt>
      <trkpt lat="49.73919" lon="2.31449">
        <ele>111.7</ele>
        <time>2023-03-01T14:14:08Z</time>
      </trkpt>
      <trkpt lat="49.7392" lon="2.31449">
        <ele>111.8</ele>
        <time>2023-03-01T14:14:09Z</time>
      </trkpt>
      <trkpt lat="49.73921" lon="2.31449">
        <ele>111.8</ele>
        <time>2023-03-01T14:14:10Z</time>
      </trkpt>
      <trkpt lat="49.73923" lon="2.31449">
        <ele>111.9</ele>
        <time>2023-03-01T14:14:12Z</time>
      </trkpt>
      <trkpt lat="49.73924" lon="2.31448">
        <ele>112</ele>
        <time>2023-03-01T14:14:13Z</time>
      </trkpt>
      <trkpt lat="49.73926" lon="2.31447">
        <ele>112.1</ele>
        <time>2023-03-01T14:14:14Z</time>
      </trkpt>
      <trkpt lat="49.73927" lon="2.31447">
        <ele>112.2</ele>
        <time>2023-03-01T14:14:15Z</time>
      </trkpt>
      <trkpt lat="49.73928" lon="2.31447">
        <ele>112.2</ele>
        <time>2023-03-01T14:14:16Z</time>
      </trkpt>
      <trkpt lat="49.73929" lon="2.31446">
        <ele>112.3</ele>
        <time>2023-03-01T14:14:17Z</time>
      </trkpt>
      <trkpt lat="49.7393" lon="2.31446">
        <ele>112.3</ele>
        <time>2023-03-01T14:14:19Z</time>
      </trkpt>
      <trkpt lat="49.73931" lon="2.31446">
        <ele>112.4</ele>
        <time>2023-03-01T14:14:20Z</time>
      </trkpt>
      <trkpt lat="49.73933" lon="2.31445">
        <ele>112.5</ele>
        <time>2023-03-01T14:14:21Z</time>
      </trkpt>
      <trkpt lat="49.73934" lon="2.31445">
        <ele>112.6</ele>
        <time>2023-03-01T14:14:22Z</time>
      </trkpt>
      <trkpt lat="49.73935" lon="2.31445">
        <ele>112.6</ele>
        <time>2023-03-01T14:14:23Z</time>
      </trkpt>
      <trkpt lat="49.73937" lon="2.31444">
        <ele>112.7</ele>
        <time>2023-03-01T14:14:24Z</time>
      </trkpt>
      <trkpt lat="49.73938" lon="2.31444">
        <ele>112.8</ele>
        <time>2023-03-01T14:14:26Z</time>
      </trkpt>
      <trkpt lat="49.73939" lon="2.31444">
        <ele>112.8</ele>
        <time>2023-03-01T14:14:27Z</time>
      </trkpt>
      <trkpt lat="49.73939" lon="2.31443">
        <ele>112.9</ele>
        <time>2023-03-01T14:14:28Z</time>
      </trkpt>
      <trkpt lat="49.7394" lon="2.31443">
        <ele>113</ele>
        <time>2023-03-01T14:14:29Z</time>
      </trkpt>
      <trkpt lat="49.73942" lon="2.31443">
        <ele>113</ele>
        <time>2023-03-01T14:14:30Z</time>
      </trkpt>
      <trkpt lat="49.73943" lon="2.31443">
        <ele>113.1</ele>
        <time>2023-03-01T14:14:31Z</time>
      </trkpt>
      <trkpt lat="49.73944" lon="2.31443">
        <ele>113.2</ele>
        <time>2023-03-01T14:14:33Z</time>
      </trkpt>
      <trkpt lat="49.73945" lon="2.31443">
        <ele>113.2</ele>
        <time>2023-03-01T14:14:34Z</time>
      </trkpt>
      <trkpt lat="49.73946" lon="2.31443">
        <ele>113.3</ele>
        <time>2023-03-01T14:14:35Z</time>
      </trkpt>
      <trkpt lat="49.73947" lon="2.31443">
        <ele>113.4</ele>
        <time>2023-03-01T14:14:36Z</time>
      </trkpt>
      <trkpt lat="49.73948" lon="2.31442">
        <ele>113.5</ele>
        <time>2023-03-01T14:14:37Z</time>
      </trkpt>
      <trkpt lat="49.7395" lon="2.31442">
        <ele>113.6</ele>
        <time>2023-03-01T14:14:39Z</time>
      </trkpt>
      <trkpt lat="49.73951" lon="2.31442">
        <ele>113.6</ele>
        <time>2023-03-01T14:14:40Z</time>
      </trkpt>
      <trkpt lat="49.73952" lon="2.31441">
        <ele>113.7</ele>
        <time>2023-03-01T14:14:41Z</time>
      </trkpt>
      <trkpt lat="49.73952" lon="2.31441">
        <ele>113.7</ele>
        <time>2023-03-01T14:14:42Z</time>
      </trkpt>
      <trkpt lat="49.73953" lon="2.31441">
        <ele>113.8</ele>
        <time>2023-03-01T14:14:43Z</time>
      </trkpt>
      <trkpt lat="49.73954" lon="2.31441">
        <ele>113.9</ele>
        <time>2023-03-01T14:14:44Z</time>
      </trkpt>
      <trkpt lat="49.73956" lon="2.31441">
        <ele>114</ele>
        <time>2023-03-01T14:14:46Z</time>
      </trkpt>
      <trkpt lat="49.73957" lon="2.31441">
        <ele>114</ele>
        <time>2023-03-01T14:14:47Z</time>
      </trkpt>
      <trkpt lat="49.73958" lon="2.31441">
        <ele>114.1</ele>
        <time>2023-03-01T14:14:48Z</time>
      </trkpt>
      <trkpt lat="49.73959" lon="2.31441">
        <ele>114.2</ele>
        <time>2023-03-01T14:14:49Z</time>
      </trkpt>
      <trkpt lat="49.7396" lon="2.31441">
        <ele>114.2</ele>
        <time>2023-03-01T14:14:50Z</time>
      </trkpt>
      <trkpt lat="49.73962" lon="2.31441">
        <ele>114.3</ele>
        <time>2023-03-01T14:14:52Z</time>
      </trkpt>
      <trkpt lat="49.73963" lon="2.3144">
        <ele>114.4</ele>
        <time>2023-03-01T14:14:53Z</time>
      </trkpt>
      <trkpt lat="49.73965" lon="2.3144">
        <ele>114.5</ele>
        <time>2023-03-01T14:14:54Z</time>
      </trkpt>
      <trkpt lat="49.73965" lon="2.3144">
        <ele>114.6</ele>
        <time>2023-03-01T14:14:55Z</time>
      </trkpt>
      <trkpt lat="49.73966" lon="2.3144">
        <ele>114.7</ele>
        <time>2023-03-01T14:14:56Z</time>
      </trkpt>
      <trkpt lat="49.73967" lon="2.3144">
        <ele>114.7</ele>
        <time>2023-03-01T14:14:58Z</time>
      </trkpt>
      <trkpt lat="49.73968" lon="2.31439">
        <ele>114.8</ele>
        <time>2023-03-01T14:14:59Z</time>
      </trkpt>
      <trkpt lat="49.73969" lon="2.31439">
        <ele>114.8</ele>
        <time>2023-03-01T14:15:00Z</time>
      </trkpt>
      <trkpt lat="49.7397" lon="2.31439">
        <ele>114.9</ele>
        <time>2023-03-01T14:15:01Z</time>
      </trkpt>
      <trkpt lat="49.73971" lon="2.31439">
        <ele>115</ele>
        <time>2023-03-01T14:15:02Z</time>
      </trkpt>
      <trkpt lat="49.73972" lon="2.31439">
        <ele>115.1</ele>
        <time>2023-03-01T14:15:03Z</time>
      </trkpt>
      <trkpt lat="49.73973" lon="2.31439">
        <ele>115.2</ele>
        <time>2023-03-01T14:15:04Z</time>
      </trkpt>
      <trkpt lat="49.73975" lon="2.31439">
        <ele>115.3</ele>
        <time>2023-03-01T14:15:05Z</time>
      </trkpt>
      <trkpt lat="49.73976" lon="2.31439">
        <ele>115.4</ele>
        <time>2023-03-01T14:15:07Z</time>
      </trkpt>
      <trkpt lat="49.73977" lon="2.31439">
        <ele>115.4</ele>
        <time>2023-03-01T14:15:08Z</time>
      </trkpt>
      <trkpt lat="49.73978" lon="2.31439">
        <ele>115.6</ele>
        <time>2023-03-01T14:15:09Z</time>
      </trkpt>
      <trkpt lat="49.73979" lon="2.31439">
        <ele>115.6</ele>
        <time>2023-03-01T14:15:10Z</time>
      </trkpt>
      <trkpt lat="49.73981" lon="2.3144">
        <ele>115.8</ele>
        <time>2023-03-01T14:15:12Z</time>
      </trkpt>
      <trkpt lat="49.73982" lon="2.3144">
        <ele>115.9</ele>
        <time>2023-03-01T14:15:13Z</time>
      </trkpt>
      <trkpt lat="49.73983" lon="2.3144">
        <ele>115.9</ele>
        <time>2023-03-01T14:15:14Z</time>
      </trkpt>
      <trkpt lat="49.73984" lon="2.3144">
        <ele>116</ele>
        <time>2023-03-01T14:15:15Z</time>
      </trkpt>
      <trkpt lat="49.73985" lon="2.3144">
        <ele>116.1</ele>
        <time>2023-03-01T14:15:16Z</time>
      </trkpt>
      <trkpt lat="49.73987" lon="2.3144">
        <ele>116.2</ele>
        <time>2023-03-01T14:15:17Z</time>
      </trkpt>
      <trkpt lat="49.73988" lon="2.3144">
        <ele>116.3</ele>
        <time>2023-03-01T14:15:18Z</time>
      </trkpt>
      <trkpt lat="49.7399" lon="2.31439">
        <ele>116.5</ele>
        <time>2023-03-01T14:15:20Z</time>
      </trkpt>
      <trkpt lat="49.7399" lon="2.31439">
        <ele>116.6</ele>
        <time>2023-03-01T14:15:21Z</time>
      </trkpt>
      <trkpt lat="49.73991" lon="2.31439">
        <ele>116.6</ele>
        <time>2023-03-01T14:15:22Z</time>
      </trkpt>
      <trkpt lat="49.73992" lon="2.31439">
        <ele>116.7</ele>
        <time>2023-03-01T14:15:23Z</time>
      </trkpt>
      <trkpt lat="49.73993" lon="2.31439">
        <ele>116.8</ele>
        <time>2023-03-01T14:15:24Z</time>
      </trkpt>
      <trkpt lat="49.73994" lon="2.31438">
        <ele>116.9</ele>
        <time>2023-03-01T14:15:25Z</time>
      </trkpt>
      <trkpt lat="49.73995" lon="2.31438">
        <ele>117</ele>
        <time>2023-03-01T14:15:26Z</time>
      </trkpt>
      <trkpt lat="49.73996" lon="2.31438">
        <ele>117.1</ele>
        <time>2023-03-01T14:15:27Z</time>
      </trkpt>
      <trkpt lat="49.73997" lon="2.31438">
        <ele>117.2</ele>
        <time>2023-03-01T14:15:29Z</time>
      </trkpt>
      <trkpt lat="49.73998" lon="2.31438">
        <ele>117.3</ele>
        <time>2023-03-01T14:15:30Z</time>
      </trkpt>
      <trkpt lat="49.73999" lon="2.31437">
        <ele>117.4</ele>
        <time>2023-03-01T14:15:31Z</time>
      </trkpt>
      <trkpt lat="49.74001" lon="2.31437">
        <ele>117.4</ele>
        <time>2023-03-01T14:15:32Z</time>
      </trkpt>
      <trkpt lat="49.74001" lon="2.31437">
        <ele>117.5</ele>
        <time>2023-03-01T14:15:33Z</time>
      </trkpt>
      <trkpt lat="49.74002" lon="2.31436">
        <ele>117.6</ele>
        <time>2023-03-01T14:15:34Z</time>
      </trkpt>
      <trkpt lat="49.74003" lon="2.31436">
        <ele>117.7</ele>
        <time>2023-03-01T14:15:36Z</time>
      </trkpt>
      <trkpt lat="49.74005" lon="2.31435">
        <ele>117.8</ele>
        <time>2023-03-01T14:15:37Z</time>
      </trkpt>
      <trkpt lat="49.74006" lon="2.31435">
        <ele>117.9</ele>
        <time>2023-03-01T14:15:38Z</time>
      </trkpt>
      <trkpt lat="49.74007" lon="2.31435">
        <ele>118</ele>
        <time>2023-03-01T14:15:40Z</time>
      </trkpt>
      <trkpt lat="49.74008" lon="2.31435">
        <ele>118.1</ele>
        <time>2023-03-01T14:15:41Z</time>
      </trkpt>
      <trkpt lat="49.74009" lon="2.31435">
        <ele>118.3</ele>
        <time>2023-03-01T14:15:42Z</time>
      </trkpt>
      <trkpt lat="49.7401" lon="2.31435">
        <ele>118.3</ele>
        <time>2023-03-01T14:15:43Z</time>
      </trkpt>
      <trkpt lat="49.74011" lon="2.31435">
        <ele>118.4</ele>
        <time>2023-03-01T14:15:45Z</time>
      </trkpt>
      <trkpt lat="49.74012" lon="2.31435">
        <ele>118.5</ele>
        <time>2023-03-01T14:15:46Z</time>
      </trkpt>
      <trkpt lat="49.74013" lon="2.31435">
        <ele>118.6</ele>
        <time>2023-03-01T14:15:47Z</time>
      </trkpt>
      <trkpt lat="49.74014" lon="2.31435">
        <ele>118.6</ele>
        <time>2023-03-01T14:15:48Z</time>
      </trkpt>
      <trkpt lat="49.74015" lon="2.31435">
        <ele>118.7</ele>
        <time>2023-03-01T14:15:49Z</time>
      </trkpt>
      <trkpt lat="49.74016" lon="2.31435">
        <ele>118.8</ele>
        <time>2023-03-01T14:15:50Z</time>
      </trkpt>
      <trkpt lat="49.74018" lon="2.31434">
        <ele>118.9</ele>
        <time>2023-03-01T14:15:52Z</time>
      </trkpt>
      <trkpt lat="49.74018" lon="2.31434">
        <ele>118.9</ele>
        <time>2023-03-01T14:15:53Z</time>
      </trkpt>
      <trkpt lat="49.7402" lon="2.31434">
        <ele>119</ele>
        <time>2023-03-01T14:15:54Z</time>
      </trkpt>
      <trkpt lat="49.74021" lon="2.31434">
        <ele>119</ele>
        <time>2023-03-01T14:15:55Z</time>
      </trkpt>
      <trkpt lat="49.74022" lon="2.31434">
        <ele>119.1</ele>
        <time>2023-03-01T14:15:56Z</time>
      </trkpt>
      <trkpt lat="49.74023" lon="2.31434">
        <ele>119.2</ele>
        <time>2023-03-01T14:15:57Z</time>
      </trkpt>
      <trkpt lat="49.74025" lon="2.31434">
        <ele>119.3</ele>
        <time>2023-03-01T14:15:59Z</time>
      </trkpt>
      <trkpt lat="49.74026" lon="2.31434">
        <ele>119.3</ele>
        <time>2023-03-01T14:16:00Z</time>
      </trkpt>
      <trkpt lat="49.74027" lon="2.31435">
        <ele>119.4</ele>
        <time>2023-03-01T14:16:02Z</time>
      </trkpt>
      <trkpt lat="49.74028" lon="2.31435">
        <ele>119.5</ele>
        <time>2023-03-01T14:16:03Z</time>
      </trkpt>
      <trkpt lat="49.74029" lon="2.31435">
        <ele>119.5</ele>
        <time>2023-03-01T14:16:04Z</time>
      </trkpt>
      <trkpt lat="49.7403" lon="2.31434">
        <ele>119.6</ele>
        <time>2023-03-01T14:16:05Z</time>
      </trkpt>
      <trkpt lat="49.74031" lon="2.31434">
        <ele>119.7</ele>
        <time>2023-03-01T14:16:07Z</time>
      </trkpt>
      <trkpt lat="49.74032" lon="2.31434">
        <ele>119.7</ele>
        <time>2023-03-01T14:16:08Z</time>
      </trkpt>
      <trkpt lat="49.74032" lon="2.31433">
        <ele>119.8</ele>
        <time>2023-03-01T14:16:09Z</time>
      </trkpt>
      <trkpt lat="49.74034" lon="2.31433">
        <ele>119.9</ele>
        <time>2023-03-01T14:16:10Z</time>
      </trkpt>
      <trkpt lat="49.74034" lon="2.31432">
        <ele>119.9</ele>
        <time>2023-03-01T14:16:11Z</time>
      </trkpt>
      <trkpt lat="49.74036" lon="2.31432">
        <ele>120</ele>
        <time>2023-03-01T14:16:13Z</time>
      </trkpt>
      <trkpt lat="49.74037" lon="2.31432">
        <ele>120.1</ele>
        <time>2023-03-01T14:16:14Z</time>
      </trkpt>
      <trkpt lat="49.74038" lon="2.31432">
        <ele>120.2</ele>
        <time>2023-03-01T14:16:15Z</time>
      </trkpt>
      <trkpt lat="49.74038" lon="2.31432">
        <ele>120.2</ele>
        <time>2023-03-01T14:16:16Z</time>
      </trkpt>
      <trkpt lat="49.7404" lon="2.31431">
        <ele>120.3</ele>
        <time>2023-03-01T14:16:18Z</time>
      </trkpt>
      <trkpt lat="49.7404" lon="2.31431">
        <ele>120.3</ele>
        <time>2023-03-01T14:16:19Z</time>
      </trkpt>
      <trkpt lat="49.74041" lon="2.31431">
        <ele>120.4</ele>
        <time>2023-03-01T14:16:20Z</time>
      </trkpt>
      <trkpt lat="49.74042" lon="2.31431">
        <ele>120.5</ele>
        <time>2023-03-01T14:16:21Z</time>
      </trkpt>
      <trkpt lat="49.74044" lon="2.31431">
        <ele>120.6</ele>
        <time>2023-03-01T14:16:22Z</time>
      </trkpt>
      <trkpt lat="49.74044" lon="2.31431">
        <ele>120.6</ele>
        <time>2023-03-01T14:16:23Z</time>
      </trkpt>
      <trkpt lat="49.74046" lon="2.3143">
        <ele>120.7</ele>
        <time>2023-03-01T14:16:24Z</time>
      </trkpt>
      <trkpt lat="49.74047" lon="2.3143">
        <ele>120.8</ele>
        <time>2023-03-01T14:16:25Z</time>
      </trkpt>
      <trkpt lat="49.74047" lon="2.3143">
        <ele>120.9</ele>
        <time>2023-03-01T14:16:27Z</time>
      </trkpt>
      <trkpt lat="49.74048" lon="2.31429">
        <ele>120.9</ele>
        <time>2023-03-01T14:16:28Z</time>
      </trkpt>
      <trkpt lat="49.7405" lon="2.31428">
        <ele>121</ele>
        <time>2023-03-01T14:16:29Z</time>
      </trkpt>
      <trkpt lat="49.7405" lon="2.31428">
        <ele>121.1</ele>
        <time>2023-03-01T14:16:30Z</time>
      </trkpt>
      <trkpt lat="49.74051" lon="2.31428">
        <ele>121.1</ele>
        <time>2023-03-01T14:16:31Z</time>
      </trkpt>
      <trkpt lat="49.74052" lon="2.31427">
        <ele>121.2</ele>
        <time>2023-03-01T14:16:32Z</time>
      </trkpt>
      <trkpt lat="49.74052" lon="2.31427">
        <ele>121.2</ele>
        <time>2023-03-01T14:16:33Z</time>
      </trkpt>
      <trkpt lat="49.74053" lon="2.31426">
        <ele>121.3</ele>
        <time>2023-03-01T14:16:34Z</time>
      </trkpt>
      <trkpt lat="49.74054" lon="2.31426">
        <ele>121.3</ele>
        <time>2023-03-01T14:16:36Z</time>
      </trkpt>
      <trkpt lat="49.74054" lon="2.31426">
        <ele>121.4</ele>
        <time>2023-03-01T14:16:37Z</time>
      </trkpt>
      <trkpt lat="49.74055" lon="2.31426">
        <ele>121.5</ele>
        <time>2023-03-01T14:16:38Z</time>
      </trkpt>
      <trkpt lat="49.74056" lon="2.31426">
        <ele>121.5</ele>
        <time>2023-03-01T14:16:39Z</time>
      </trkpt>
      <trkpt lat="49.74057" lon="2.31426">
        <ele>121.6</ele>
        <time>2023-03-01T14:16:40Z</time>
      </trkpt>
      <trkpt lat="49.74057" lon="2.31426">
        <ele>121.6</ele>
        <time>2023-03-01T14:16:41Z</time>
      </trkpt>
      <trkpt lat="49.74058" lon="2.31425">
        <ele>121.6</ele>
        <time>2023-03-01T14:16:42Z</time>
      </trkpt>
      <trkpt lat="49.74058" lon="2.31425">
        <ele>121.7</ele>
        <time>2023-03-01T14:16:43Z</time>
      </trkpt>
      <trkpt lat="49.74058" lon="2.31425">
        <ele>121.7</ele>
        <time>2023-03-01T14:16:44Z</time>
      </trkpt>
      <trkpt lat="49.74059" lon="2.31425">
        <ele>121.7</ele>
        <time>2023-03-01T14:16:46Z</time>
      </trkpt>
      <trkpt lat="49.74059" lon="2.31426">
        <ele>121.8</ele>
        <time>2023-03-01T14:16:47Z</time>
      </trkpt>
      <trkpt lat="49.7406" lon="2.31426">
        <ele>121.8</ele>
        <time>2023-03-01T14:16:48Z</time>
      </trkpt>
      <trkpt lat="49.74061" lon="2.31426">
        <ele>121.9</ele>
        <time>2023-03-01T14:16:49Z</time>
      </trkpt>
      <trkpt lat="49.74061" lon="2.31426">
        <ele>121.9</ele>
        <time>2023-03-01T14:16:50Z</time>
      </trkpt>
      <trkpt lat="49.74062" lon="2.31426">
        <ele>122</ele>
        <time>2023-03-01T14:16:52Z</time>
      </trkpt>
      <trkpt lat="49.74063" lon="2.31425">
        <ele>122.1</ele>
        <time>2023-03-01T14:16:53Z</time>
      </trkpt>
      <trkpt lat="49.74064" lon="2.31425">
        <ele>122.1</ele>
        <time>2023-03-01T14:16:54Z</time>
      </trkpt>
      <trkpt lat="49.74065" lon="2.31425">
        <ele>122.2</ele>
        <time>2023-03-01T14:16:56Z</time>
      </trkpt>
      <trkpt lat="49.74066" lon="2.31425">
        <ele>122.2</ele>
        <time>2023-03-01T14:16:57Z</time>
      </trkpt>
      <trkpt lat="49.74067" lon="2.31425">
        <ele>122.3</ele>
        <time>2023-03-01T14:16:58Z</time>
      </trkpt>
      <trkpt lat="49.74068" lon="2.31424">
        <ele>122.4</ele>
        <time>2023-03-01T14:16:59Z</time>
      </trkpt>
      <trkpt lat="49.74069" lon="2.31424">
        <ele>122.5</ele>
        <time>2023-03-01T14:17:00Z</time>
      </trkpt>
      <trkpt lat="49.7407" lon="2.31424">
        <ele>122.5</ele>
        <time>2023-03-01T14:17:01Z</time>
      </trkpt>
      <trkpt lat="49.74071" lon="2.31424">
        <ele>122.6</ele>
        <time>2023-03-01T14:17:03Z</time>
      </trkpt>
      <trkpt lat="49.74071" lon="2.31424">
        <ele>122.6</ele>
        <time>2023-03-01T14:17:04Z</time>
      </trkpt>
      <trkpt lat="49.74072" lon="2.31424">
        <ele>122.7</ele>
        <time>2023-03-01T14:17:05Z</time>
      </trkpt>
      <trkpt lat="49.74073" lon="2.31424">
        <ele>122.8</ele>
        <time>2023-03-01T14:17:06Z</time>
      </trkpt>
      <trkpt lat="49.74074" lon="2.31424">
        <ele>122.8</ele>
        <time>2023-03-01T14:17:07Z</time>
      </trkpt>
      <trkpt lat="49.74075" lon="2.31424">
        <ele>122.9</ele>
        <time>2023-03-01T14:17:08Z</time>
      </trkpt>
      <trkpt lat="49.74076" lon="2.31424">
        <ele>122.9</ele>
        <time>2023-03-01T14:17:09Z</time>
      </trkpt>
      <trkpt lat="49.74076" lon="2.31424">
        <ele>123</ele>
        <time>2023-03-01T14:17:11Z</time>
      </trkpt>
      <trkpt lat="49.74077" lon="2.31424">
        <ele>123</ele>
        <time>2023-03-01T14:17:12Z</time>
      </trkpt>
      <trkpt lat="49.74078" lon="2.31424">
        <ele>123.1</ele>
        <time>2023-03-01T14:17:13Z</time>
      </trkpt>
      <trkpt lat="49.74079" lon="2.31424">
        <ele>123.2</ele>
        <time>2023-03-01T14:17:14Z</time>
      </trkpt>
      <trkpt lat="49.7408" lon="2.31423">
        <ele>123.3</ele>
        <time>2023-03-01T14:17:15Z</time>
      </trkpt>
      <trkpt lat="49.74081" lon="2.31423">
        <ele>123.3</ele>
        <time>2023-03-01T14:17:16Z</time>
      </trkpt>
      <trkpt lat="49.74082" lon="2.31423">
        <ele>123.4</ele>
        <time>2023-03-01T14:17:17Z</time>
      </trkpt>
      <trkpt lat="49.74083" lon="2.31423">
        <ele>123.4</ele>
        <time>2023-03-01T14:17:19Z</time>
      </trkpt>
      <trkpt lat="49.74084" lon="2.31423">
        <ele>123.5</ele>
        <time>2023-03-01T14:17:20Z</time>
      </trkpt>
      <trkpt lat="49.74085" lon="2.31423">
        <ele>123.6</ele>
        <time>2023-03-01T14:17:21Z</time>
      </trkpt>
      <trkpt lat="49.74086" lon="2.31423">
        <ele>123.6</ele>
        <time>2023-03-01T14:17:23Z</time>
      </trkpt>
      <trkpt lat="49.74087" lon="2.31423">
        <ele>123.7</ele>
        <time>2023-03-01T14:17:24Z</time>
      </trkpt>
      <trkpt lat="49.74089" lon="2.31423">
        <ele>123.8</ele>
        <time>2023-03-01T14:17:26Z</time>
      </trkpt>
      <trkpt lat="49.74091" lon="2.31423">
        <ele>123.9</ele>
        <time>2023-03-01T14:17:27Z</time>
      </trkpt>
      <trkpt lat="49.74091" lon="2.31423">
        <ele>123.9</ele>
        <time>2023-03-01T14:17:28Z</time>
      </trkpt>
      <trkpt lat="49.74092" lon="2.31422">
        <ele>124</ele>
        <time>2023-03-01T14:17:29Z</time>
      </trkpt>
      <trkpt lat="49.74093" lon="2.31422">
        <ele>124</ele>
        <time>2023-03-01T14:17:31Z</time>
      </trkpt>
      <trkpt lat="49.74094" lon="2.31422">
        <ele>124.1</ele>
        <time>2023-03-01T14:17:32Z</time>
      </trkpt>
      <trkpt lat="49.74096" lon="2.31422">
        <ele>124.2</ele>
        <time>2023-03-01T14:17:33Z</time>
      </trkpt>
      <trkpt lat="49.74097" lon="2.31422">
        <ele>124.2</ele>
        <time>2023-03-01T14:17:34Z</time>
      </trkpt>
      <trkpt lat="49.74097" lon="2.31422">
        <ele>124.3</ele>
        <time>2023-03-01T14:17:36Z</time>
      </trkpt>
      <trkpt lat="49.74099" lon="2.31422">
        <ele>124.3</ele>
        <time>2023-03-01T14:17:37Z</time>
      </trkpt>
      <trkpt lat="49.741" lon="2.31422">
        <ele>124.4</ele>
        <time>2023-03-01T14:17:38Z</time>
      </trkpt>
      <trkpt lat="49.741" lon="2.31422">
        <ele>124.4</ele>
        <time>2023-03-01T14:17:39Z</time>
      </trkpt>
      <trkpt lat="49.74102" lon="2.31422">
        <ele>124.5</ele>
        <time>2023-03-01T14:17:40Z</time>
      </trkpt>
      <trkpt lat="49.74103" lon="2.31422">
        <ele>124.5</ele>
        <time>2023-03-01T14:17:41Z</time>
      </trkpt>
      <trkpt lat="49.74104" lon="2.31421">
        <ele>124.6</ele>
        <time>2023-03-01T14:17:43Z</time>
      </trkpt>
      <trkpt lat="49.74104" lon="2.31421">
        <ele>124.6</ele>
        <time>2023-03-01T14:17:44Z</time>
      </trkpt>
      <trkpt lat="49.74105" lon="2.3142">
        <ele>124.6</ele>
        <time>2023-03-01T14:17:45Z</time>
      </trkpt>
      <trkpt lat="49.74106" lon="2.3142">
        <ele>124.7</ele>
        <time>2023-03-01T14:17:46Z</time>
      </trkpt>
      <trkpt lat="49.74107" lon="2.3142">
        <ele>124.7</ele>
        <time>2023-03-01T14:17:47Z</time>
      </trkpt>
      <trkpt lat="49.74107" lon="2.31419">
        <ele>124.7</ele>
        <time>2023-03-01T14:17:49Z</time>
      </trkpt>
      <trkpt lat="49.74108" lon="2.31419">
        <ele>124.8</ele>
        <time>2023-03-01T14:17:50Z</time>
      </trkpt>
      <trkpt lat="49.74109" lon="2.31418">
        <ele>124.8</ele>
        <time>2023-03-01T14:17:51Z</time>
      </trkpt>
      <trkpt lat="49.7411" lon="2.31418">
        <ele>124.8</ele>
        <time>2023-03-01T14:17:52Z</time>
      </trkpt>
      <trkpt lat="49.74111" lon="2.31417">
        <ele>124.9</ele>
        <time>2023-03-01T14:17:53Z</time>
      </trkpt>
      <trkpt lat="49.74112" lon="2.31417">
        <ele>124.9</ele>
        <time>2023-03-01T14:17:54Z</time>
      </trkpt>
      <trkpt lat="49.74113" lon="2.31417">
        <ele>125</ele>
        <time>2023-03-01T14:17:56Z</time>
      </trkpt>
      <trkpt lat="49.74115" lon="2.31416">
        <ele>125</ele>
        <time>2023-03-01T14:17:57Z</time>
      </trkpt>
      <trkpt lat="49.74116" lon="2.31416">
        <ele>125.1</ele>
        <time>2023-03-01T14:17:58Z</time>
      </trkpt>
      <trkpt lat="49.74117" lon="2.31416">
        <ele>125.1</ele>
        <time>2023-03-01T14:17:59Z</time>
      </trkpt>
      <trkpt lat="49.74118" lon="2.31416">
        <ele>125.1</ele>
        <time>2023-03-01T14:18:00Z</time>
      </trkpt>
      <trkpt lat="49.74119" lon="2.31416">
        <ele>125.2</ele>
        <time>2023-03-01T14:18:01Z</time>
      </trkpt>
      <trkpt lat="49.7412" lon="2.31416">
        <ele>125.2</ele>
        <time>2023-03-01T14:18:02Z</time>
      </trkpt>
      <trkpt lat="49.74121" lon="2.31416">
        <ele>125.2</ele>
        <time>2023-03-01T14:18:04Z</time>
      </trkpt>
      <trkpt lat="49.74122" lon="2.31416">
        <ele>125.2</ele>
        <time>2023-03-01T14:18:05Z</time>
      </trkpt>
      <trkpt lat="49.74123" lon="2.31415">
        <ele>125.3</ele>
        <time>2023-03-01T14:18:06Z</time>
      </trkpt>
      <trkpt lat="49.74125" lon="2.31415">
        <ele>125.3</ele>
        <time>2023-03-01T14:18:07Z</time>
      </trkpt>
      <trkpt lat="49.74126" lon="2.31415">
        <ele>125.3</ele>
        <time>2023-03-01T14:18:08Z</time>
      </trkpt>
      <trkpt lat="49.74127" lon="2.31415">
        <ele>125.4</ele>
        <time>2023-03-01T14:18:09Z</time>
      </trkpt>
      <trkpt lat="49.74129" lon="2.31415">
        <ele>125.4</ele>
        <time>2023-03-01T14:18:10Z</time>
      </trkpt>
      <trkpt lat="49.7413" lon="2.31415">
        <ele>125.4</ele>
        <time>2023-03-01T14:18:12Z</time>
      </trkpt>
      <trkpt lat="49.74131" lon="2.31415">
        <ele>125.4</ele>
        <time>2023-03-01T14:18:13Z</time>
      </trkpt>
      <trkpt lat="49.74132" lon="2.31414">
        <ele>125.4</ele>
        <time>2023-03-01T14:18:14Z</time>
      </trkpt>
      <trkpt lat="49.74133" lon="2.31414">
        <ele>125.5</ele>
        <time>2023-03-01T14:18:15Z</time>
      </trkpt>
      <trkpt lat="49.74134" lon="2.31414">
        <ele>125.5</ele>
        <time>2023-03-01T14:18:16Z</time>
      </trkpt>
      <trkpt lat="49.74137" lon="2.31413">
        <ele>125.5</ele>
        <time>2023-03-01T14:18:17Z</time>
      </trkpt>
      <trkpt lat="49.74138" lon="2.31413">
        <ele>125.5</ele>
        <time>2023-03-01T14:18:18Z</time>
      </trkpt>
      <trkpt lat="49.74139" lon="2.31413">
        <ele>125.5</ele>
        <time>2023-03-01T14:18:20Z</time>
      </trkpt>
      <trkpt lat="49.7414" lon="2.31412">
        <ele>125.6</ele>
        <time>2023-03-01T14:18:21Z</time>
      </trkpt>
      <trkpt lat="49.74141" lon="2.31412">
        <ele>125.6</ele>
        <time>2023-03-01T14:18:22Z</time>
      </trkpt>
      <trkpt lat="49.74142" lon="2.31412">
        <ele>125.6</ele>
        <time>2023-03-01T14:18:23Z</time>
      </trkpt>
      <trkpt lat="49.74143" lon="2.31412">
        <ele>125.6</ele>
        <time>2023-03-01T14:18:24Z</time>
      </trkpt>
      <trkpt lat="49.74144" lon="2.31412">
        <ele>125.6</ele>
        <time>2023-03-01T14:18:25Z</time>
      </trkpt>
      <trkpt lat="49.74145" lon="2.31412">
        <ele>125.6</ele>
        <time>2023-03-01T14:18:26Z</time>
      </trkpt>
      <trkpt lat="49.74147" lon="2.31412">
        <ele>125.7</ele>
        <time>2023-03-01T14:18:28Z</time>
      </trkpt>
      <trkpt lat="49.74148" lon="2.31413">
        <ele>125.7</ele>
        <time>2023-03-01T14:18:29Z</time>
      </trkpt>
      <trkpt lat="49.74149" lon="2.31414">
        <ele>125.7</ele>
        <time>2023-03-01T14:18:30Z</time>
      </trkpt>
      <trkpt lat="49.74151" lon="2.31414">
        <ele>125.7</ele>
        <time>2023-03-01T14:18:31Z</time>
      </trkpt>
      <trkpt lat="49.74151" lon="2.31414">
        <ele>125.7</ele>
        <time>2023-03-01T14:18:32Z</time>
      </trkpt>
      <trkpt lat="49.74152" lon="2.31414">
        <ele>125.7</ele>
        <time>2023-03-01T14:18:33Z</time>
      </trkpt>
      <trkpt lat="49.74153" lon="2.31414">
        <ele>125.7</ele>
        <time>2023-03-01T14:18:34Z</time>
      </trkpt>
      <trkpt lat="49.74154" lon="2.31414">
        <ele>125.7</ele>
        <time>2023-03-01T14:18:36Z</time>
      </trkpt>
      <trkpt lat="49.74155" lon="2.31414">
        <ele>125.7</ele>
        <time>2023-03-01T14:18:37Z</time>
      </trkpt>
      <trkpt lat="49.74157" lon="2.31414">
        <ele>125.7</ele>
        <time>2023-03-01T14:18:38Z</time>
      </trkpt>
      <trkpt lat="49.74158" lon="2.31414">
        <ele>125.8</ele>
        <time>2023-03-01T14:18:39Z</time>
      </trkpt>
      <trkpt lat="49.7416" lon="2.31413">
        <ele>125.8</ele>
        <time>2023-03-01T14:18:40Z</time>
      </trkpt>
      <trkpt lat="49.74161" lon="2.31413">
        <ele>125.8</ele>
        <time>2023-03-01T14:18:41Z</time>
      </trkpt>
      <trkpt lat="49.74162" lon="2.31413">
        <ele>125.8</ele>
        <time>2023-03-01T14:18:42Z</time>
      </trkpt>
      <trkpt lat="49.74163" lon="2.31412">
        <ele>125.8</ele>
        <time>2023-03-01T14:18:44Z</time>
      </trkpt>
      <trkpt lat="49.74164" lon="2.31412">
        <ele>125.8</ele>
        <time>2023-03-01T14:18:45Z</time>
      </trkpt>
      <trkpt lat="49.74165" lon="2.31411">
        <ele>125.8</ele>
        <time>2023-03-01T14:18:46Z</time>
      </trkpt>
      <trkpt lat="49.74167" lon="2.3141">
        <ele>125.8</ele>
        <time>2023-03-01T14:18:47Z</time>
      </trkpt>
      <trkpt lat="49.74168" lon="2.3141">
        <ele>125.8</ele>
        <time>2023-03-01T14:18:48Z</time>
      </trkpt>
      <trkpt lat="49.74169" lon="2.3141">
        <ele>125.8</ele>
        <time>2023-03-01T14:18:49Z</time>
      </trkpt>
      <trkpt lat="49.74171" lon="2.31409">
        <ele>125.8</ele>
        <time>2023-03-01T14:18:50Z</time>
      </trkpt>
      <trkpt lat="49.74172" lon="2.31409">
        <ele>125.8</ele>
        <time>2023-03-01T14:18:52Z</time>
      </trkpt>
      <trkpt lat="49.74172" lon="2.31409">
        <ele>125.8</ele>
        <time>2023-03-01T14:18:53Z</time>
      </trkpt>
      <trkpt lat="49.74173" lon="2.31409">
        <ele>125.8</ele>
        <time>2023-03-01T14:18:54Z</time>
      </trkpt>
      <trkpt lat="49.74174" lon="2.31408">
        <ele>125.8</ele>
        <time>2023-03-01T14:18:55Z</time>
      </trkpt>
      <trkpt lat="49.74175" lon="2.31408">
        <ele>125.8</ele>
        <time>2023-03-01T14:18:56Z</time>
      </trkpt>
      <trkpt lat="49.74176" lon="2.31408">
        <ele>125.8</ele>
        <time>2023-03-01T14:18:57Z</time>
      </trkpt>
      <trkpt lat="49.74178" lon="2.31407">
        <ele>125.8</ele>
        <time>2023-03-01T14:18:58Z</time>
      </trkpt>
      <trkpt lat="49.74178" lon="2.31407">
        <ele>125.8</ele>
        <time>2023-03-01T14:18:59Z</time>
      </trkpt>
      <trkpt lat="49.74179" lon="2.31407">
        <ele>125.8</ele>
        <time>2023-03-01T14:19:01Z</time>
      </trkpt>
      <trkpt lat="49.7418" lon="2.31407">
        <ele>125.8</ele>
        <time>2023-03-01T14:19:02Z</time>
      </trkpt>
      <trkpt lat="49.74181" lon="2.31408">
        <ele>125.8</ele>
        <time>2023-03-01T14:19:03Z</time>
      </trkpt>
      <trkpt lat="49.74182" lon="2.31408">
        <ele>125.8</ele>
        <time>2023-03-01T14:19:04Z</time>
      </trkpt>
      <trkpt lat="49.74183" lon="2.31409">
        <ele>125.8</ele>
        <time>2023-03-01T14:19:05Z</time>
      </trkpt>
      <trkpt lat="49.74184" lon="2.31409">
        <ele>125.8</ele>
        <time>2023-03-01T14:19:06Z</time>
      </trkpt>
      <trkpt lat="49.74185" lon="2.31409">
        <ele>125.8</ele>
        <time>2023-03-01T14:19:07Z</time>
      </trkpt>
      <trkpt lat="49.74187" lon="2.31409">
        <ele>125.8</ele>
        <time>2023-03-01T14:19:08Z</time>
      </trkpt>
      <trkpt lat="49.74188" lon="2.31409">
        <ele>125.8</ele>
        <time>2023-03-01T14:19:09Z</time>
      </trkpt>
      <trkpt lat="49.7419" lon="2.31409">
        <ele>125.8</ele>
        <time>2023-03-01T14:19:11Z</time>
      </trkpt>
      <trkpt lat="49.74191" lon="2.31409">
        <ele>125.8</ele>
        <time>2023-03-01T14:19:12Z</time>
      </trkpt>
      <trkpt lat="49.74192" lon="2.31409">
        <ele>125.8</ele>
        <time>2023-03-01T14:19:13Z</time>
      </trkpt>
      <trkpt lat="49.74193" lon="2.31409">
        <ele>125.8</ele>
        <time>2023-03-01T14:19:14Z</time>
      </trkpt>
      <trkpt lat="49.74194" lon="2.31408">
        <ele>125.8</ele>
        <time>2023-03-01T14:19:15Z</time>
      </trkpt>
      <trkpt lat="49.74195" lon="2.31408">
        <ele>125.8</ele>
        <time>2023-03-01T14:19:16Z</time>
      </trkpt>
      <trkpt lat="49.74197" lon="2.31408">
        <ele>125.8</ele>
        <time>2023-03-01T14:19:17Z</time>
      </trkpt>
      <trkpt lat="49.74198" lon="2.31408">
        <ele>125.8</ele>
        <time>2023-03-01T14:19:18Z</time>
      </trkpt>
      <trkpt lat="49.74199" lon="2.31408">
        <ele>125.8</ele>
        <time>2023-03-01T14:19:20Z</time>
      </trkpt>
      <trkpt lat="49.742" lon="2.31408">
        <ele>125.8</ele>
        <time>2023-03-01T14:19:21Z</time>
      </trkpt>
      <trkpt lat="49.74201" lon="2.31408">
        <ele>125.8</ele>
        <time>2023-03-01T14:19:22Z</time>
      </trkpt>
      <trkpt lat="49.74202" lon="2.31407">
        <ele>125.8</ele>
        <time>2023-03-01T14:19:23Z</time>
      </trkpt>
      <trkpt lat="49.74204" lon="2.31407">
        <ele>125.8</ele>
        <time>2023-03-01T14:19:24Z</time>
      </trkpt>
      <trkpt lat="49.74205" lon="2.31407">
        <ele>125.8</ele>
        <time>2023-03-01T14:19:25Z</time>
      </trkpt>
      <trkpt lat="49.74206" lon="2.31407">
        <ele>125.8</ele>
        <time>2023-03-01T14:19:27Z</time>
      </trkpt>
      <trkpt lat="49.74207" lon="2.31407">
        <ele>125.8</ele>
        <time>2023-03-01T14:19:28Z</time>
      </trkpt>
      <trkpt lat="49.74208" lon="2.31406">
        <ele>125.8</ele>
        <time>2023-03-01T14:19:29Z</time>
      </trkpt>
      <trkpt lat="49.74209" lon="2.31406">
        <ele>125.8</ele>
        <time>2023-03-01T14:19:30Z</time>
      </trkpt>
      <trkpt lat="49.7421" lon="2.31406">
        <ele>125.7</ele>
        <time>2023-03-01T14:19:31Z</time>
      </trkpt>
      <trkpt lat="49.74211" lon="2.31406">
        <ele>125.7</ele>
        <time>2023-03-01T14:19:32Z</time>
      </trkpt>
      <trkpt lat="49.74212" lon="2.31405">
        <ele>125.7</ele>
        <time>2023-03-01T14:19:34Z</time>
      </trkpt>
      <trkpt lat="49.74213" lon="2.31405">
        <ele>125.7</ele>
        <time>2023-03-01T14:19:35Z</time>
      </trkpt>
      <trkpt lat="49.74214" lon="2.31405">
        <ele>125.7</ele>
        <time>2023-03-01T14:19:36Z</time>
      </trkpt>
      <trkpt lat="49.74216" lon="2.31405">
        <ele>125.7</ele>
        <time>2023-03-01T14:19:37Z</time>
      </trkpt>
      <trkpt lat="49.74217" lon="2.31405">
        <ele>125.7</ele>
        <time>2023-03-01T14:19:38Z</time>
      </trkpt>
      <trkpt lat="49.74218" lon="2.31405">
        <ele>125.7</ele>
        <time>2023-03-01T14:19:39Z</time>
      </trkpt>
      <trkpt lat="49.74221" lon="2.31405">
        <ele>125.7</ele>
        <time>2023-03-01T14:19:40Z</time>
      </trkpt>
      <trkpt lat="49.74222" lon="2.31405">
        <ele>125.7</ele>
        <time>2023-03-01T14:19:41Z</time>
      </trkpt>
      <trkpt lat="49.74223" lon="2.31405">
        <ele>125.7</ele>
        <time>2023-03-01T14:19:43Z</time>
      </trkpt>
      <trkpt lat="49.74224" lon="2.31405">
        <ele>125.7</ele>
        <time>2023-03-01T14:19:44Z</time>
      </trkpt>
      <trkpt lat="49.74225" lon="2.31404">
        <ele>125.6</ele>
        <time>2023-03-01T14:19:45Z</time>
      </trkpt>
      <trkpt lat="49.74226" lon="2.31404">
        <ele>125.6</ele>
        <time>2023-03-01T14:19:46Z</time>
      </trkpt>
      <trkpt lat="49.74227" lon="2.31404">
        <ele>125.6</ele>
        <time>2023-03-01T14:19:47Z</time>
      </trkpt>
      <trkpt lat="49.74229" lon="2.31403">
        <ele>125.6</ele>
        <time>2023-03-01T14:19:48Z</time>
      </trkpt>
      <trkpt lat="49.74231" lon="2.31402">
        <ele>125.6</ele>
        <time>2023-03-01T14:19:49Z</time>
      </trkpt>
      <trkpt lat="49.74232" lon="2.31402">
        <ele>125.6</ele>
        <time>2023-03-01T14:19:50Z</time>
      </trkpt>
      <trkpt lat="49.74233" lon="2.31402">
        <ele>125.6</ele>
        <time>2023-03-01T14:19:52Z</time>
      </trkpt>
      <trkpt lat="49.74234" lon="2.31401">
        <ele>125.5</ele>
        <time>2023-03-01T14:19:53Z</time>
      </trkpt>
      <trkpt lat="49.74234" lon="2.31401">
        <ele>125.5</ele>
        <time>2023-03-01T14:19:54Z</time>
      </trkpt>
      <trkpt lat="49.74235" lon="2.31401">
        <ele>125.5</ele>
        <time>2023-03-01T14:19:55Z</time>
      </trkpt>
      <trkpt lat="49.74236" lon="2.314">
        <ele>125.5</ele>
        <time>2023-03-01T14:19:56Z</time>
      </trkpt>
      <trkpt lat="49.74238" lon="2.314">
        <ele>125.5</ele>
        <time>2023-03-01T14:19:57Z</time>
      </trkpt>
      <trkpt lat="49.74239" lon="2.314">
        <ele>125.5</ele>
        <time>2023-03-01T14:19:59Z</time>
      </trkpt>
      <trkpt lat="49.7424" lon="2.314">
        <ele>125.5</ele>
        <time>2023-03-01T14:20:00Z</time>
      </trkpt>
      <trkpt lat="49.74241" lon="2.31399">
        <ele>125.5</ele>
        <time>2023-03-01T14:20:01Z</time>
      </trkpt>
      <trkpt lat="49.74242" lon="2.31399">
        <ele>125.4</ele>
        <time>2023-03-01T14:20:02Z</time>
      </trkpt>
      <trkpt lat="49.74244" lon="2.31398">
        <ele>125.4</ele>
        <time>2023-03-01T14:20:03Z</time>
      </trkpt>
      <trkpt lat="49.74245" lon="2.31398">
        <ele>125.4</ele>
        <time>2023-03-01T14:20:04Z</time>
      </trkpt>
      <trkpt lat="49.74246" lon="2.31398">
        <ele>125.4</ele>
        <time>2023-03-01T14:20:05Z</time>
      </trkpt>
      <trkpt lat="49.74247" lon="2.31397">
        <ele>125.4</ele>
        <time>2023-03-01T14:20:06Z</time>
      </trkpt>
      <trkpt lat="49.74248" lon="2.31397">
        <ele>125.4</ele>
        <time>2023-03-01T14:20:08Z</time>
      </trkpt>
      <trkpt lat="49.74249" lon="2.31398">
        <ele>125.4</ele>
        <time>2023-03-01T14:20:09Z</time>
      </trkpt>
      <trkpt lat="49.74251" lon="2.31398">
        <ele>125.3</ele>
        <time>2023-03-01T14:20:10Z</time>
      </trkpt>
      <trkpt lat="49.74252" lon="2.31398">
        <ele>125.3</ele>
        <time>2023-03-01T14:20:11Z</time>
      </trkpt>
      <trkpt lat="49.74253" lon="2.31397">
        <ele>125.3</ele>
        <time>2023-03-01T14:20:12Z</time>
      </trkpt>
      <trkpt lat="49.74254" lon="2.31398">
        <ele>125.3</ele>
        <time>2023-03-01T14:20:13Z</time>
      </trkpt>
      <trkpt lat="49.74255" lon="2.31398">
        <ele>125.3</ele>
        <time>2023-03-01T14:20:15Z</time>
      </trkpt>
      <trkpt lat="49.74256" lon="2.31398">
        <ele>125.3</ele>
        <time>2023-03-01T14:20:16Z</time>
      </trkpt>
      <trkpt lat="49.74256" lon="2.31399">
        <ele>125.3</ele>
        <time>2023-03-01T14:20:18Z</time>
      </trkpt>
      <trkpt lat="49.74257" lon="2.31401">
        <ele>125.3</ele>
        <time>2023-03-01T14:20:19Z</time>
      </trkpt>
      <trkpt lat="49.74256" lon="2.31402">
        <ele>125.2</ele>
        <time>2023-03-01T14:20:20Z</time>
      </trkpt>
      <trkpt lat="49.74255" lon="2.31403">
        <ele>125.2</ele>
        <time>2023-03-01T14:20:23Z</time>
      </trkpt>
      <trkpt lat="49.74255" lon="2.31403">
        <ele>125.2</ele>
        <time>2023-03-01T14:20:24Z</time>
      </trkpt>
      <trkpt lat="49.74255" lon="2.31403">
        <ele>125.2</ele>
        <time>2023-03-01T14:20:26Z</time>
      </trkpt>
      <trkpt lat="49.74255" lon="2.31403">
        <ele>125.2</ele>
        <time>2023-03-01T14:20:27Z</time>
      </trkpt>
      <trkpt lat="49.74255" lon="2.31403">
        <ele>125.2</ele>
        <time>2023-03-01T14:20:28Z</time>
      </trkpt>
      <trkpt lat="49.74255" lon="2.31403">
        <ele>125.2</ele>
        <time>2023-03-01T14:20:31Z</time>
      </trkpt>
      <trkpt lat="49.74255" lon="2.31403">
        <ele>125.2</ele>
        <time>2023-03-01T14:20:33Z</time>
      </trkpt>
      <trkpt lat="49.74255" lon="2.31403">
        <ele>125.2</ele>
        <time>2023-03-01T14:20:35Z</time>
      </trkpt>
      <trkpt lat="49.74255" lon="2.31404">
        <ele>125.2</ele>
        <time>2023-03-01T14:20:36Z</time>
      </trkpt>
      <trkpt lat="49.74254" lon="2.31403">
        <ele>125.2</ele>
        <time>2023-03-01T14:20:38Z</time>
      </trkpt>
      <trkpt lat="49.74254" lon="2.31403">
        <ele>125.2</ele>
        <time>2023-03-01T14:20:39Z</time>
      </trkpt>
      <trkpt lat="49.74254" lon="2.31402">
        <ele>125.2</ele>
        <time>2023-03-01T14:20:40Z</time>
      </trkpt>
      <trkpt lat="49.74255" lon="2.31398">
        <ele>125.2</ele>
        <time>2023-03-01T14:20:42Z</time>
      </trkpt>
      <trkpt lat="49.74255" lon="2.31396">
        <ele>125.2</ele>
        <time>2023-03-01T14:20:43Z</time>
      </trkpt>
      <trkpt lat="49.74255" lon="2.31396">
        <ele>125.2</ele>
        <time>2023-03-01T14:20:44Z</time>
      </trkpt>
      <trkpt lat="49.74255" lon="2.31396">
        <ele>125.2</ele>
        <time>2023-03-01T14:20:45Z</time>
      </trkpt>
      <trkpt lat="49.74255" lon="2.31396">
        <ele>125.2</ele>
        <time>2023-03-01T14:20:46Z</time>
      </trkpt>
      <trkpt lat="49.74255" lon="2.31396">
        <ele>125.2</ele>
        <time>2023-03-01T14:20:47Z</time>
      </trkpt>
      <trkpt lat="49.74255" lon="2.31396">
        <ele>125.2</ele>
        <time>2023-03-01T14:20:48Z</time>
      </trkpt>
      <trkpt lat="49.74255" lon="2.31396">
        <ele>125.2</ele>
        <time>2023-03-01T14:20:50Z</time>
      </trkpt>
      <trkpt lat="49.74255" lon="2.31396">
        <ele>125.2</ele>
        <time>2023-03-01T14:20:51Z</time>
      </trkpt>
      <trkpt lat="49.74255" lon="2.31396">
        <ele>125.2</ele>
        <time>2023-03-01T14:20:52Z</time>
      </trkpt>
      <trkpt lat="49.74255" lon="2.31398">
        <ele>125.2</ele>
        <time>2023-03-01T14:20:53Z</time>
      </trkpt>
      <trkpt lat="49.74255" lon="2.31397">
        <ele>125.2</ele>
        <time>2023-03-01T14:20:54Z</time>
      </trkpt>
      <trkpt lat="49.74255" lon="2.31397">
        <ele>125.2</ele>
        <time>2023-03-01T14:20:55Z</time>
      </trkpt>
      <trkpt lat="49.74255" lon="2.31398">
        <ele>125.2</ele>
        <time>2023-03-01T14:20:57Z</time>
      </trkpt>
      <trkpt lat="49.74256" lon="2.31398">
        <ele>125.2</ele>
        <time>2023-03-01T14:20:58Z</time>
      </trkpt>
      <trkpt lat="49.74256" lon="2.31399">
        <ele>125.1</ele>
        <time>2023-03-01T14:20:59Z</time>
      </trkpt>
      <trkpt lat="49.74255" lon="2.31399">
        <ele>125.1</ele>
        <time>2023-03-01T14:21:01Z</time>
      </trkpt>
      <trkpt lat="49.74255" lon="2.31398">
        <ele>125.1</ele>
        <time>2023-03-01T14:21:03Z</time>
      </trkpt>
      <trkpt lat="49.74255" lon="2.31397">
        <ele>125.1</ele>
        <time>2023-03-01T14:21:04Z</time>
      </trkpt>
      <trkpt lat="49.74255" lon="2.31397">
        <ele>125.1</ele>
        <time>2023-03-01T14:21:05Z</time>
      </trkpt>
      <trkpt lat="49.74255" lon="2.31397">
        <ele>125.1</ele>
        <time>2023-03-01T14:21:06Z</time>
      </trkpt>
      <trkpt lat="49.74255" lon="2.31398">
        <ele>125.1</ele>
        <time>2023-03-01T14:21:08Z</time>
      </trkpt>
      <trkpt lat="49.74255" lon="2.31398">
        <ele>125.1</ele>
        <time>2023-03-01T14:21:09Z</time>
      </trkpt>
      <trkpt lat="49.74255" lon="2.31398">
        <ele>125.1</ele>
        <time>2023-03-01T14:21:10Z</time>
      </trkpt>
      <trkpt lat="49.74255" lon="2.31398">
        <ele>125.1</ele>
        <time>2023-03-01T14:21:11Z</time>
      </trkpt>
      <trkpt lat="49.74255" lon="2.31397">
        <ele>125.1</ele>
        <time>2023-03-01T14:21:12Z</time>
      </trkpt>
      <trkpt lat="49.74255" lon="2.31397">
        <ele>125.1</ele>
        <time>2023-03-01T14:21:13Z</time>
      </trkpt>
      <trkpt lat="49.74255" lon="2.31397">
        <ele>125.1</ele>
        <time>2023-03-01T14:21:15Z</time>
      </trkpt>
      <trkpt lat="49.74255" lon="2.31397">
        <ele>125.1</ele>
        <time>2023-03-01T14:21:16Z</time>
      </trkpt>
      <trkpt lat="49.74255" lon="2.31396">
        <ele>125.1</ele>
        <time>2023-03-01T14:21:18Z</time>
      </trkpt>
      <trkpt lat="49.74255" lon="2.31397">
        <ele>125.1</ele>
        <time>2023-03-01T14:21:19Z</time>
      </trkpt>
      <trkpt lat="49.74255" lon="2.31397">
        <ele>125.1</ele>
        <time>2023-03-01T14:21:20Z</time>
      </trkpt>
      <trkpt lat="49.74255" lon="2.31397">
        <ele>125.1</ele>
        <time>2023-03-01T14:21:22Z</time>
      </trkpt>
      <trkpt lat="49.74255" lon="2.31397">
        <ele>125.1</ele>
        <time>2023-03-01T14:21:23Z</time>
      </trkpt>
      <trkpt lat="49.74254" lon="2.31397">
        <ele>125.1</ele>
        <time>2023-03-01T14:21:24Z</time>
      </trkpt>
      <trkpt lat="49.74254" lon="2.31397">
        <ele>125.1</ele>
        <time>2023-03-01T14:21:25Z</time>
      </trkpt>
      <trkpt lat="49.74254" lon="2.31397">
        <ele>125.1</ele>
        <time>2023-03-01T14:21:27Z</time>
      </trkpt>
      <trkpt lat="49.74254" lon="2.31397">
        <ele>125.1</ele>
        <time>2023-03-01T14:21:28Z</time>
      </trkpt>
      <trkpt lat="49.74254" lon="2.31397">
        <ele>125.1</ele>
        <time>2023-03-01T14:21:30Z</time>
      </trkpt>
      <trkpt lat="49.74254" lon="2.31398">
        <ele>125.1</ele>
        <time>2023-03-01T14:21:31Z</time>
      </trkpt>
      <trkpt lat="49.74254" lon="2.31398">
        <ele>125.1</ele>
        <time>2023-03-01T14:21:32Z</time>
      </trkpt>
      <trkpt lat="49.74254" lon="2.31398">
        <ele>125.1</ele>
        <time>2023-03-01T14:21:33Z</time>
      </trkpt>
      <trkpt lat="49.74254" lon="2.31398">
        <ele>125.1</ele>
        <time>2023-03-01T14:21:34Z</time>
      </trkpt>
      <trkpt lat="49.74254" lon="2.31398">
        <ele>125.1</ele>
        <time>2023-03-01T14:21:35Z</time>
      </trkpt>
      <trkpt lat="49.74254" lon="2.31398">
        <ele>125.1</ele>
        <time>2023-03-01T14:21:37Z</time>
      </trkpt>
      <trkpt lat="49.74254" lon="2.31398">
        <ele>125.1</ele>
        <time>2023-03-01T14:21:38Z</time>
      </trkpt>
      <trkpt lat="49.74254" lon="2.31398">
        <ele>125.1</ele>
        <time>2023-03-01T14:21:39Z</time>
      </trkpt>
      <trkpt lat="49.74254" lon="2.31398">
        <ele>125.1</ele>
        <time>2023-03-01T14:21:40Z</time>
      </trkpt>
      <trkpt lat="49.74254" lon="2.31398">
        <ele>125.1</ele>
        <time>2023-03-01T14:21:41Z</time>
      </trkpt>
      <trkpt lat="49.74254" lon="2.31398">
        <ele>125.1</ele>
        <time>2023-03-01T14:21:42Z</time>
      </trkpt>
      <trkpt lat="49.74254" lon="2.31398">
        <ele>125.1</ele>
        <time>2023-03-01T14:21:43Z</time>
      </trkpt>
      <trkpt lat="49.74254" lon="2.31398">
        <ele>125.1</ele>
        <time>2023-03-01T14:21:45Z</time>
      </trkpt>
      <trkpt lat="49.74254" lon="2.31398">
        <ele>125.1</ele>
        <time>2023-03-01T14:21:47Z</time>
      </trkpt>
      <trkpt lat="49.74254" lon="2.31398">
        <ele>125.1</ele>
        <time>2023-03-01T14:21:49Z</time>
      </trkpt>
      <trkpt lat="49.74254" lon="2.31398">
        <ele>125.1</ele>
        <time>2023-03-01T14:21:50Z</time>
      </trkpt>
      <trkpt lat="49.74254" lon="2.31398">
        <ele>125.1</ele>
        <time>2023-03-01T14:21:52Z</time>
      </trkpt>
      <trkpt lat="49.74254" lon="2.31398">
        <ele>125.1</ele>
        <time>2023-03-01T14:21:53Z</time>
      </trkpt>
      <trkpt lat="49.74254" lon="2.31398">
        <ele>125.1</ele>
        <time>2023-03-01T14:21:54Z</time>
      </trkpt>
      <trkpt lat="49.74254" lon="2.31398">
        <ele>125.1</ele>
        <time>2023-03-01T14:21:55Z</time>
      </trkpt>
      <trkpt lat="49.74254" lon="2.31398">
        <ele>125.1</ele>
        <time>2023-03-01T14:21:56Z</time>
      </trkpt>
      <trkpt lat="49.74254" lon="2.31398">
        <ele>125.1</ele>
        <time>2023-03-01T14:21:57Z</time>
      </trkpt>
      <trkpt lat="49.74254" lon="2.31398">
        <ele>125.1</ele>
        <time>2023-03-01T14:21:59Z</time>
      </trkpt>
      <trkpt lat="49.74254" lon="2.31398">
        <ele>125.1</ele>
        <time>2023-03-01T14:22:01Z</time>
      </trkpt>
      <trkpt lat="49.74254" lon="2.31398">
        <ele>125.1</ele>
        <time>2023-03-01T14:22:02Z</time>
      </trkpt>
      <trkpt lat="49.74254" lon="2.31398">
        <ele>125.1</ele>
        <time>2023-03-01T14:22:04Z</time>
      </trkpt>
      <trkpt lat="49.74254" lon="2.31398">
        <ele>125.1</ele>
        <time>2023-03-01T14:22:05Z</time>
      </trkpt>
      <trkpt lat="49.74254" lon="2.31398">
        <ele>125.1</ele>
        <time>2023-03-01T14:22:06Z</time>
      </trkpt>
      <trkpt lat="49.74254" lon="2.31398">
        <ele>125.1</ele>
        <time>2023-03-01T14:22:08Z</time>
      </trkpt>
      <trkpt lat="49.74254" lon="2.31398">
        <ele>125.1</ele>
        <time>2023-03-01T14:22:09Z</time>
      </trkpt>
      <trkpt lat="49.74254" lon="2.31398">
        <ele>125.1</ele>
        <time>2023-03-01T14:22:10Z</time>
      </trkpt>
      <trkpt lat="49.74254" lon="2.31398">
        <ele>125.1</ele>
        <time>2023-03-01T14:22:11Z</time>
      </trkpt>
      <trkpt lat="49.74254" lon="2.31398">
        <ele>125.1</ele>
        <time>2023-03-01T14:22:12Z</time>
      </trkpt>
      <trkpt lat="49.74254" lon="2.31398">
        <ele>125.1</ele>
        <time>2023-03-01T14:22:13Z</time>
      </trkpt>
      <trkpt lat="49.74254" lon="2.31398">
        <ele>125.1</ele>
        <time>2023-03-01T14:22:14Z</time>
      </trkpt>
      <trkpt lat="49.74254" lon="2.31398">
        <ele>125.1</ele>
        <time>2023-03-01T14:22:15Z</time>
      </trkpt>
      <trkpt lat="49.74254" lon="2.31398">
        <ele>125.1</ele>
        <time>2023-03-01T14:22:16Z</time>
      </trkpt>
      <trkpt lat="49.74254" lon="2.31398">
        <ele>125.1</ele>
        <time>2023-03-01T14:22:17Z</time>
      </trkpt>
      <trkpt lat="49.74254" lon="2.31398">
        <ele>125.1</ele>
        <time>2023-03-01T14:22:18Z</time>
      </trkpt>
      <trkpt lat="49.74254" lon="2.31398">
        <ele>125.1</ele>
        <time>2023-03-01T14:22:19Z</time>
      </trkpt>
      <trkpt lat="49.74254" lon="2.31398">
        <ele>125.1</ele>
        <time>2023-03-01T14:22:20Z</time>
      </trkpt>
      <trkpt lat="49.74254" lon="2.31398">
        <ele>125.1</ele>
        <time>2023-03-01T14:22:22Z</time>
      </trkpt>
      <trkpt lat="49.74254" lon="2.31398">
        <ele>125.1</ele>
        <time>2023-03-01T14:22:23Z</time>
      </trkpt>
      <trkpt lat="49.74254" lon="2.31398">
        <ele>125.1</ele>
        <time>2023-03-01T14:22:24Z</time>
      </trkpt>
      <trkpt lat="49.74254" lon="2.31398">
        <ele>125.1</ele>
        <time>2023-03-01T14:22:25Z</time>
      </trkpt>
      <trkpt lat="49.74254" lon="2.31398">
        <ele>125.1</ele>
        <time>2023-03-01T14:22:26Z</time>
      </trkpt>
      <trkpt lat="49.74254" lon="2.31398">
        <ele>125.1</ele>
        <time>2023-03-01T14:22:27Z</time>
      </trkpt>
      <trkpt lat="49.74254" lon="2.31398">
        <ele>125.1</ele>
        <time>2023-03-01T14:22:28Z</time>
      </trkpt>
      <trkpt lat="49.74254" lon="2.31398">
        <ele>125.1</ele>
        <time>2023-03-01T14:22:29Z</time>
      </trkpt>
      <trkpt lat="49.74254" lon="2.31398">
        <ele>125.1</ele>
        <time>2023-03-01T14:22:30Z</time>
      </trkpt>
      <trkpt lat="49.74254" lon="2.31398">
        <ele>125.1</ele>
        <time>2023-03-01T14:22:31Z</time>
      </trkpt>
      <trkpt lat="49.74254" lon="2.31398">
        <ele>125.1</ele>
        <time>2023-03-01T14:22:32Z</time>
      </trkpt>
      <trkpt lat="49.74254" lon="2.31398">
        <ele>125.1</ele>
        <time>2023-03-01T14:22:33Z</time>
      </trkpt>
      <trkpt lat="49.74254" lon="2.31398">
        <ele>125.1</ele>
        <time>2023-03-01T14:22:34Z</time>
      </trkpt>
      <trkpt lat="49.74254" lon="2.31398">
        <ele>125.1</ele>
        <time>2023-03-01T14:22:36Z</time>
      </trkpt>
      <trkpt lat="49.74254" lon="2.31398">
        <ele>125.1</ele>
        <time>2023-03-01T14:22:37Z</time>
      </trkpt>
      <trkpt lat="49.74254" lon="2.31398">
        <ele>125.1</ele>
        <time>2023-03-01T14:22:38Z</time>
      </trkpt>
      <trkpt lat="49.74254" lon="2.31398">
        <ele>125.1</ele>
        <time>2023-03-01T14:22:39Z</time>
      </trkpt>
      <trkpt lat="49.74254" lon="2.31398">
        <ele>125.1</ele>
        <time>2023-03-01T14:22:40Z</time>
      </trkpt>
      <trkpt lat="49.74254" lon="2.31398">
        <ele>125.1</ele>
        <time>2023-03-01T14:22:41Z</time>
      </trkpt>
      <trkpt lat="49.74254" lon="2.31398">
        <ele>125.1</ele>
        <time>2023-03-01T14:22:42Z</time>
      </trkpt>
      <trkpt lat="49.74254" lon="2.31398">
        <ele>125.1</ele>
        <time>2023-03-01T14:22:43Z</time>
      </trkpt>
      <trkpt lat="49.74254" lon="2.31398">
        <ele>125.1</ele>
        <time>2023-03-01T14:22:44Z</time>
      </trkpt>
      <trkpt lat="49.74254" lon="2.31398">
        <ele>125.1</ele>
        <time>2023-03-01T14:22:45Z</time>
      </trkpt>
      <trkpt lat="49.74254" lon="2.31398">
        <ele>125.1</ele>
        <time>2023-03-01T14:22:46Z</time>
      </trkpt>
      <trkpt lat="49.74254" lon="2.31398">
        <ele>125.1</ele>
        <time>2023-03-01T14:22:47Z</time>
      </trkpt>
      <trkpt lat="49.74254" lon="2.31398">
        <ele>125.1</ele>
        <time>2023-03-01T14:22:48Z</time>
      </trkpt>
      <trkpt lat="49.74254" lon="2.31398">
        <ele>125.1</ele>
        <time>2023-03-01T14:22:49Z</time>
      </trkpt>
      <trkpt lat="49.74254" lon="2.31398">
        <ele>125.1</ele>
        <time>2023-03-01T14:22:50Z</time>
      </trkpt>
      <trkpt lat="49.74254" lon="2.31398">
        <ele>125.1</ele>
        <time>2023-03-01T14:22:51Z</time>
      </trkpt>
      <trkpt lat="49.74254" lon="2.31398">
        <ele>125.1</ele>
        <time>2023-03-01T14:22:52Z</time>
      </trkpt>
      <trkpt lat="49.74254" lon="2.31398">
        <ele>125.1</ele>
        <time>2023-03-01T14:22:53Z</time>
      </trkpt>
      <trkpt lat="49.74254" lon="2.31398">
        <ele>125.1</ele>
        <time>2023-03-01T14:22:54Z</time>
      </trkpt>
      <trkpt lat="49.74254" lon="2.31398">
        <ele>125.1</ele>
        <time>2023-03-01T14:22:55Z</time>
      </trkpt>
      <trkpt lat="49.74254" lon="2.31398">
        <ele>125.1</ele>
        <time>2023-03-01T14:22:56Z</time>
      </trkpt>
      <trkpt lat="49.74254" lon="2.31398">
        <ele>125.1</ele>
        <time>2023-03-01T14:22:57Z</time>
      </trkpt>
      <trkpt lat="49.74254" lon="2.31398">
        <ele>125.1</ele>
        <time>2023-03-01T14:22:58Z</time>
      </trkpt>
      <trkpt lat="49.74254" lon="2.31398">
        <ele>125.1</ele>
        <time>2023-03-01T14:23:00Z</time>
      </trkpt>
      <trkpt lat="49.74254" lon="2.31398">
        <ele>125.1</ele>
        <time>2023-03-01T14:23:01Z</time>
      </trkpt>
      <trkpt lat="49.74254" lon="2.31398">
        <ele>125.1</ele>
        <time>2023-03-01T14:23:02Z</time>
      </trkpt>
      <trkpt lat="49.74254" lon="2.31398">
        <ele>125.1</ele>
        <time>2023-03-01T14:23:03Z</time>
      </trkpt>
      <trkpt lat="49.74254" lon="2.31398">
        <ele>125.1</ele>
        <time>2023-03-01T14:23:04Z</time>
      </trkpt>
      <trkpt lat="49.74254" lon="2.31398">
        <ele>125.1</ele>
        <time>2023-03-01T14:23:06Z</time>
      </trkpt>
      <trkpt lat="49.74254" lon="2.31398">
        <ele>125.1</ele>
        <time>2023-03-01T14:23:07Z</time>
      </trkpt>
      <trkpt lat="49.74254" lon="2.31398">
        <ele>125.1</ele>
        <time>2023-03-01T14:23:08Z</time>
      </trkpt>
      <trkpt lat="49.74254" lon="2.31398">
        <ele>125.1</ele>
        <time>2023-03-01T14:23:09Z</time>
      </trkpt>
      <trkpt lat="49.74254" lon="2.31398">
        <ele>125.1</ele>
        <time>2023-03-01T14:23:10Z</time>
      </trkpt>
      <trkpt lat="49.74254" lon="2.31398">
        <ele>125.1</ele>
        <time>2023-03-01T14:23:11Z</time>
      </trkpt>
      <trkpt lat="49.74253" lon="2.31398">
        <ele>125.1</ele>
        <time>2023-03-01T14:23:12Z</time>
      </trkpt>
      <trkpt lat="49.74253" lon="2.31398">
        <ele>125.1</ele>
        <time>2023-03-01T14:23:13Z</time>
      </trkpt>
      <trkpt lat="49.74253" lon="2.31398">
        <ele>125.1</ele>
        <time>2023-03-01T14:23:14Z</time>
      </trkpt>
      <trkpt lat="49.74253" lon="2.31399">
        <ele>125.1</ele>
        <time>2023-03-01T14:23:15Z</time>
      </trkpt>
      <trkpt lat="49.74253" lon="2.31399">
        <ele>125.1</ele>
        <time>2023-03-01T14:23:16Z</time>
      </trkpt>
      <trkpt lat="49.74253" lon="2.31399">
        <ele>125.1</ele>
        <time>2023-03-01T14:23:17Z</time>
      </trkpt>
      <trkpt lat="49.74253" lon="2.31399">
        <ele>125.1</ele>
        <time>2023-03-01T14:23:18Z</time>
      </trkpt>
      <trkpt lat="49.74253" lon="2.31399">
        <ele>125.1</ele>
        <time>2023-03-01T14:23:20Z</time>
      </trkpt>
      <trkpt lat="49.74254" lon="2.31398">
        <ele>125.1</ele>
        <time>2023-03-01T14:23:21Z</time>
      </trkpt>
      <trkpt lat="49.74255" lon="2.31398">
        <ele>125.1</ele>
        <time>2023-03-01T14:23:22Z</time>
      </trkpt>
      <trkpt lat="49.74255" lon="2.31398">
        <ele>125.1</ele>
        <time>2023-03-01T14:23:23Z</time>
      </trkpt>
      <trkpt lat="49.74256" lon="2.31398">
        <ele>125.1</ele>
        <time>2023-03-01T14:23:24Z</time>
      </trkpt>
      <trkpt lat="49.74257" lon="2.31399">
        <ele>125.1</ele>
        <time>2023-03-01T14:23:25Z</time>
      </trkpt>
      <trkpt lat="49.74258" lon="2.31399">
        <ele>125.1</ele>
        <time>2023-03-01T14:23:27Z</time>
      </trkpt>
      <trkpt lat="49.74259" lon="2.31399">
        <ele>125</ele>
        <time>2023-03-01T14:23:28Z</time>
      </trkpt>
      <trkpt lat="49.7426" lon="2.31399">
        <ele>125</ele>
        <time>2023-03-01T14:23:29Z</time>
      </trkpt>
      <trkpt lat="49.74261" lon="2.314">
        <ele>125</ele>
        <time>2023-03-01T14:23:30Z</time>
      </trkpt>
      <trkpt lat="49.74262" lon="2.314">
        <ele>125</ele>
        <time>2023-03-01T14:23:31Z</time>
      </trkpt>
      <trkpt lat="49.74263" lon="2.314">
        <ele>125</ele>
        <time>2023-03-01T14:23:32Z</time>
      </trkpt>
      <trkpt lat="49.74264" lon="2.314">
        <ele>125</ele>
        <time>2023-03-01T14:23:33Z</time>
      </trkpt>
      <trkpt lat="49.74265" lon="2.314">
        <ele>125</ele>
        <time>2023-03-01T14:23:35Z</time>
      </trkpt>
      <trkpt lat="49.74266" lon="2.314">
        <ele>125</ele>
        <time>2023-03-01T14:23:36Z</time>
      </trkpt>
      <trkpt lat="49.74266" lon="2.314">
        <ele>125</ele>
        <time>2023-03-01T14:23:37Z</time>
      </trkpt>
      <trkpt lat="49.74267" lon="2.314">
        <ele>125</ele>
        <time>2023-03-01T14:23:39Z</time>
      </trkpt>
      <trkpt lat="49.74268" lon="2.314">
        <ele>125</ele>
        <time>2023-03-01T14:23:40Z</time>
      </trkpt>
      <trkpt lat="49.74269" lon="2.314">
        <ele>125</ele>
        <time>2023-03-01T14:23:41Z</time>
      </trkpt>
      <trkpt lat="49.7427" lon="2.314">
        <ele>125</ele>
        <time>2023-03-01T14:23:42Z</time>
      </trkpt>
      <trkpt lat="49.74271" lon="2.314">
        <ele>125</ele>
        <time>2023-03-01T14:23:43Z</time>
      </trkpt>
      <trkpt lat="49.74273" lon="2.314">
        <ele>124.9</ele>
        <time>2023-03-01T14:23:44Z</time>
      </trkpt>
      <trkpt lat="49.74274" lon="2.314">
        <ele>124.9</ele>
        <time>2023-03-01T14:23:45Z</time>
      </trkpt>
      <trkpt lat="49.74275" lon="2.314">
        <ele>124.9</ele>
        <time>2023-03-01T14:23:47Z</time>
      </trkpt>
      <trkpt lat="49.74276" lon="2.314">
        <ele>124.9</ele>
        <time>2023-03-01T14:23:48Z</time>
      </trkpt>
      <trkpt lat="49.74277" lon="2.314">
        <ele>124.9</ele>
        <time>2023-03-01T14:23:49Z</time>
      </trkpt>
      <trkpt lat="49.74277" lon="2.314">
        <ele>124.9</ele>
        <time>2023-03-01T14:23:50Z</time>
      </trkpt>
      <trkpt lat="49.74278" lon="2.314">
        <ele>124.9</ele>
        <time>2023-03-01T14:23:51Z</time>
      </trkpt>
      <trkpt lat="49.74279" lon="2.314">
        <ele>124.9</ele>
        <time>2023-03-01T14:23:52Z</time>
      </trkpt>
      <trkpt lat="49.74281" lon="2.314">
        <ele>124.9</ele>
        <time>2023-03-01T14:23:54Z</time>
      </trkpt>
      <trkpt lat="49.74282" lon="2.314">
        <ele>124.9</ele>
        <time>2023-03-01T14:23:55Z</time>
      </trkpt>
      <trkpt lat="49.74284" lon="2.31399">
        <ele>124.9</ele>
        <time>2023-03-01T14:23:56Z</time>
      </trkpt>
      <trkpt lat="49.74284" lon="2.31399">
        <ele>124.9</ele>
        <time>2023-03-01T14:23:58Z</time>
      </trkpt>
      <trkpt lat="49.74285" lon="2.31399">
        <ele>124.9</ele>
        <time>2023-03-01T14:23:59Z</time>
      </trkpt>
      <trkpt lat="49.74287" lon="2.31399">
        <ele>124.8</ele>
        <time>2023-03-01T14:24:00Z</time>
      </trkpt>
      <trkpt lat="49.74287" lon="2.31399">
        <ele>124.8</ele>
        <time>2023-03-01T14:24:01Z</time>
      </trkpt>
      <trkpt lat="49.74288" lon="2.31398">
        <ele>124.8</ele>
        <time>2023-03-01T14:24:02Z</time>
      </trkpt>
      <trkpt lat="49.74289" lon="2.31398">
        <ele>124.8</ele>
        <time>2023-03-01T14:24:03Z</time>
      </trkpt>
      <trkpt lat="49.74291" lon="2.31398">
        <ele>124.8</ele>
        <time>2023-03-01T14:24:05Z</time>
      </trkpt>
      <trkpt lat="49.74292" lon="2.31398">
        <ele>124.8</ele>
        <time>2023-03-01T14:24:06Z</time>
      </trkpt>
      <trkpt lat="49.74293" lon="2.31397">
        <ele>124.8</ele>
        <time>2023-03-01T14:24:07Z</time>
      </trkpt>
      <trkpt lat="49.74294" lon="2.31397">
        <ele>124.8</ele>
        <time>2023-03-01T14:24:08Z</time>
      </trkpt>
      <trkpt lat="49.74296" lon="2.31397">
        <ele>124.8</ele>
        <time>2023-03-01T14:24:09Z</time>
      </trkpt>
      <trkpt lat="49.74297" lon="2.31396">
        <ele>124.8</ele>
        <time>2023-03-01T14:24:10Z</time>
      </trkpt>
      <trkpt lat="49.74298" lon="2.31396">
        <ele>124.7</ele>
        <time>2023-03-01T14:24:12Z</time>
      </trkpt>
      <trkpt lat="49.74299" lon="2.31396">
        <ele>124.7</ele>
        <time>2023-03-01T14:24:13Z</time>
      </trkpt>
      <trkpt lat="49.743" lon="2.31396">
        <ele>124.7</ele>
        <time>2023-03-01T14:24:14Z</time>
      </trkpt>
      <trkpt lat="49.74301" lon="2.31396">
        <ele>124.7</ele>
        <time>2023-03-01T14:24:15Z</time>
      </trkpt>
      <trkpt lat="49.74302" lon="2.31396">
        <ele>124.7</ele>
        <time>2023-03-01T14:24:16Z</time>
      </trkpt>
      <trkpt lat="49.74303" lon="2.31396">
        <ele>124.7</ele>
        <time>2023-03-01T14:24:18Z</time>
      </trkpt>
      <trkpt lat="49.74305" lon="2.31396">
        <ele>124.7</ele>
        <time>2023-03-01T14:24:19Z</time>
      </trkpt>
      <trkpt lat="49.74306" lon="2.31396">
        <ele>124.6</ele>
        <time>2023-03-01T14:24:20Z</time>
      </trkpt>
      <trkpt lat="49.74308" lon="2.31396">
        <ele>124.6</ele>
        <time>2023-03-01T14:24:21Z</time>
      </trkpt>
      <trkpt lat="49.74309" lon="2.31396">
        <ele>124.6</ele>
        <time>2023-03-01T14:24:22Z</time>
      </trkpt>
      <trkpt lat="49.74311" lon="2.31396">
        <ele>124.6</ele>
        <time>2023-03-01T14:24:24Z</time>
      </trkpt>
      <trkpt lat="49.74313" lon="2.31397">
        <ele>124.6</ele>
        <time>2023-03-01T14:24:25Z</time>
      </trkpt>
      <trkpt lat="49.74314" lon="2.31397">
        <ele>124.6</ele>
        <time>2023-03-01T14:24:26Z</time>
      </trkpt>
      <trkpt lat="49.74316" lon="2.31398">
        <ele>124.5</ele>
        <time>2023-03-01T14:24:27Z</time>
      </trkpt>
      <trkpt lat="49.74317" lon="2.31398">
        <ele>124.5</ele>
        <time>2023-03-01T14:24:28Z</time>
      </trkpt>
      <trkpt lat="49.74318" lon="2.31398">
        <ele>124.5</ele>
        <time>2023-03-01T14:24:29Z</time>
      </trkpt>
      <trkpt lat="49.74319" lon="2.31398">
        <ele>124.5</ele>
        <time>2023-03-01T14:24:30Z</time>
      </trkpt>
      <trkpt lat="49.7432" lon="2.31398">
        <ele>124.5</ele>
        <time>2023-03-01T14:24:31Z</time>
      </trkpt>
      <trkpt lat="49.74321" lon="2.31398">
        <ele>124.5</ele>
        <time>2023-03-01T14:24:33Z</time>
      </trkpt>
      <trkpt lat="49.74323" lon="2.31397">
        <ele>124.5</ele>
        <time>2023-03-01T14:24:34Z</time>
      </trkpt>
      <trkpt lat="49.74325" lon="2.31397">
        <ele>124.4</ele>
        <time>2023-03-01T14:24:35Z</time>
      </trkpt>
      <trkpt lat="49.74326" lon="2.31397">
        <ele>124.4</ele>
        <time>2023-03-01T14:24:36Z</time>
      </trkpt>
      <trkpt lat="49.74327" lon="2.31397">
        <ele>124.4</ele>
        <time>2023-03-01T14:24:37Z</time>
      </trkpt>
      <trkpt lat="49.74328" lon="2.31397">
        <ele>124.4</ele>
        <time>2023-03-01T14:24:38Z</time>
      </trkpt>
      <trkpt lat="49.7433" lon="2.31397">
        <ele>124.4</ele>
        <time>2023-03-01T14:24:39Z</time>
      </trkpt>
      <trkpt lat="49.74331" lon="2.31397">
        <ele>124.4</ele>
        <time>2023-03-01T14:24:41Z</time>
      </trkpt>
      <trkpt lat="49.74332" lon="2.31397">
        <ele>124.4</ele>
        <time>2023-03-01T14:24:42Z</time>
      </trkpt>
      <trkpt lat="49.74333" lon="2.31397">
        <ele>124.4</ele>
        <time>2023-03-01T14:24:43Z</time>
      </trkpt>
      <trkpt lat="49.74335" lon="2.31397">
        <ele>124.3</ele>
        <time>2023-03-01T14:24:44Z</time>
      </trkpt>
      <trkpt lat="49.74336" lon="2.31397">
        <ele>124.3</ele>
        <time>2023-03-01T14:24:45Z</time>
      </trkpt>
      <trkpt lat="49.74338" lon="2.31396">
        <ele>124.3</ele>
        <time>2023-03-01T14:24:46Z</time>
      </trkpt>
      <trkpt lat="49.7434" lon="2.31395">
        <ele>124.3</ele>
        <time>2023-03-01T14:24:48Z</time>
      </trkpt>
      <trkpt lat="49.74341" lon="2.31395">
        <ele>124.3</ele>
        <time>2023-03-01T14:24:49Z</time>
      </trkpt>
      <trkpt lat="49.74342" lon="2.31395">
        <ele>124.3</ele>
        <time>2023-03-01T14:24:50Z</time>
      </trkpt>
      <trkpt lat="49.74344" lon="2.31394">
        <ele>124.2</ele>
        <time>2023-03-01T14:24:51Z</time>
      </trkpt>
      <trkpt lat="49.74344" lon="2.31394">
        <ele>124.2</ele>
        <time>2023-03-01T14:24:52Z</time>
      </trkpt>
      <trkpt lat="49.74345" lon="2.31394">
        <ele>124.2</ele>
        <time>2023-03-01T14:24:53Z</time>
      </trkpt>
      <trkpt lat="49.74347" lon="2.31394">
        <ele>124.2</ele>
        <time>2023-03-01T14:24:54Z</time>
      </trkpt>
      <trkpt lat="49.74348" lon="2.31393">
        <ele>124.2</ele>
        <time>2023-03-01T14:24:55Z</time>
      </trkpt>
      <trkpt lat="49.7435" lon="2.31393">
        <ele>124.1</ele>
        <time>2023-03-01T14:24:56Z</time>
      </trkpt>
      <trkpt lat="49.74351" lon="2.31392">
        <ele>124.1</ele>
        <time>2023-03-01T14:24:58Z</time>
      </trkpt>
      <trkpt lat="49.74352" lon="2.31392">
        <ele>124.1</ele>
        <time>2023-03-01T14:24:59Z</time>
      </trkpt>
      <trkpt lat="49.74354" lon="2.31392">
        <ele>124.1</ele>
        <time>2023-03-01T14:25:00Z</time>
      </trkpt>
      <trkpt lat="49.74354" lon="2.31391">
        <ele>124.1</ele>
        <time>2023-03-01T14:25:01Z</time>
      </trkpt>
      <trkpt lat="49.74355" lon="2.31391">
        <ele>124.1</ele>
        <time>2023-03-01T14:25:02Z</time>
      </trkpt>
      <trkpt lat="49.74356" lon="2.3139">
        <ele>124.1</ele>
        <time>2023-03-01T14:25:03Z</time>
      </trkpt>
      <trkpt lat="49.74357" lon="2.3139">
        <ele>124</ele>
        <time>2023-03-01T14:25:05Z</time>
      </trkpt>
      <trkpt lat="49.74359" lon="2.3139">
        <ele>124</ele>
        <time>2023-03-01T14:25:06Z</time>
      </trkpt>
      <trkpt lat="49.7436" lon="2.31389">
        <ele>124</ele>
        <time>2023-03-01T14:25:07Z</time>
      </trkpt>
      <trkpt lat="49.74361" lon="2.31389">
        <ele>124</ele>
        <time>2023-03-01T14:25:08Z</time>
      </trkpt>
      <trkpt lat="49.74362" lon="2.31389">
        <ele>124</ele>
        <time>2023-03-01T14:25:09Z</time>
      </trkpt>
      <trkpt lat="49.74364" lon="2.31388">
        <ele>123.9</ele>
        <time>2023-03-01T14:25:10Z</time>
      </trkpt>
      <trkpt lat="49.74364" lon="2.31388">
        <ele>123.9</ele>
        <time>2023-03-01T14:25:12Z</time>
      </trkpt>
      <trkpt lat="49.74365" lon="2.31389">
        <ele>123.9</ele>
        <time>2023-03-01T14:25:13Z</time>
      </trkpt>
      <trkpt lat="49.74366" lon="2.31389">
        <ele>123.9</ele>
        <time>2023-03-01T14:25:14Z</time>
      </trkpt>
      <trkpt lat="49.74368" lon="2.31389">
        <ele>123.9</ele>
        <time>2023-03-01T14:25:15Z</time>
      </trkpt>
      <trkpt lat="49.74368" lon="2.31389">
        <ele>123.9</ele>
        <time>2023-03-01T14:25:16Z</time>
      </trkpt>
      <trkpt lat="49.7437" lon="2.31389">
        <ele>123.8</ele>
        <time>2023-03-01T14:25:17Z</time>
      </trkpt>
      <trkpt lat="49.74371" lon="2.31389">
        <ele>123.8</ele>
        <time>2023-03-01T14:25:18Z</time>
      </trkpt>
      <trkpt lat="49.74371" lon="2.31389">
        <ele>123.8</ele>
        <time>2023-03-01T14:25:19Z</time>
      </trkpt>
      <trkpt lat="49.74372" lon="2.31389">
        <ele>123.8</ele>
        <time>2023-03-01T14:25:20Z</time>
      </trkpt>
      <trkpt lat="49.74374" lon="2.31389">
        <ele>123.8</ele>
        <time>2023-03-01T14:25:21Z</time>
      </trkpt>
      <trkpt lat="49.74374" lon="2.31389">
        <ele>123.8</ele>
        <time>2023-03-01T14:25:23Z</time>
      </trkpt>
      <trkpt lat="49.74375" lon="2.31389">
        <ele>123.8</ele>
        <time>2023-03-01T14:25:24Z</time>
      </trkpt>
      <trkpt lat="49.74376" lon="2.31389">
        <ele>123.8</ele>
        <time>2023-03-01T14:25:25Z</time>
      </trkpt>
      <trkpt lat="49.74377" lon="2.31388">
        <ele>123.7</ele>
        <time>2023-03-01T14:25:26Z</time>
      </trkpt>
      <trkpt lat="49.74378" lon="2.31388">
        <ele>123.7</ele>
        <time>2023-03-01T14:25:27Z</time>
      </trkpt>
      <trkpt lat="49.74379" lon="2.31388">
        <ele>123.7</ele>
        <time>2023-03-01T14:25:28Z</time>
      </trkpt>
      <trkpt lat="49.74381" lon="2.31388">
        <ele>123.7</ele>
        <time>2023-03-01T14:25:29Z</time>
      </trkpt>
      <trkpt lat="49.74382" lon="2.31388">
        <ele>123.7</ele>
        <time>2023-03-01T14:25:30Z</time>
      </trkpt>
      <trkpt lat="49.74383" lon="2.31388">
        <ele>123.6</ele>
        <time>2023-03-01T14:25:32Z</time>
      </trkpt>
      <trkpt lat="49.74384" lon="2.31388">
        <ele>123.6</ele>
        <time>2023-03-01T14:25:33Z</time>
      </trkpt>
      <trkpt lat="49.74385" lon="2.31388">
        <ele>123.6</ele>
        <time>2023-03-01T14:25:34Z</time>
      </trkpt>
      <trkpt lat="49.74386" lon="2.31388">
        <ele>123.6</ele>
        <time>2023-03-01T14:25:35Z</time>
      </trkpt>
      <trkpt lat="49.74387" lon="2.31388">
        <ele>123.6</ele>
        <time>2023-03-01T14:25:36Z</time>
      </trkpt>
      <trkpt lat="49.74388" lon="2.31388">
        <ele>123.6</ele>
        <time>2023-03-01T14:25:37Z</time>
      </trkpt>
      <trkpt lat="49.7439" lon="2.31388">
        <ele>123.5</ele>
        <time>2023-03-01T14:25:38Z</time>
      </trkpt>
      <trkpt lat="49.74391" lon="2.31387">
        <ele>123.5</ele>
        <time>2023-03-01T14:25:40Z</time>
      </trkpt>
      <trkpt lat="49.74392" lon="2.31387">
        <ele>123.5</ele>
        <time>2023-03-01T14:25:41Z</time>
      </trkpt>
      <trkpt lat="49.74393" lon="2.31387">
        <ele>123.5</ele>
        <time>2023-03-01T14:25:42Z</time>
      </trkpt>
      <trkpt lat="49.74394" lon="2.31387">
        <ele>123.5</ele>
        <time>2023-03-01T14:25:43Z</time>
      </trkpt>
      <trkpt lat="49.74395" lon="2.31387">
        <ele>123.5</ele>
        <time>2023-03-01T14:25:44Z</time>
      </trkpt>
      <trkpt lat="49.74397" lon="2.31387">
        <ele>123.5</ele>
        <time>2023-03-01T14:25:45Z</time>
      </trkpt>
      <trkpt lat="49.74398" lon="2.31386">
        <ele>123.4</ele>
        <time>2023-03-01T14:25:47Z</time>
      </trkpt>
      <trkpt lat="49.744" lon="2.31385">
        <ele>123.4</ele>
        <time>2023-03-01T14:25:49Z</time>
      </trkpt>
      <trkpt lat="49.74401" lon="2.31385">
        <ele>123.4</ele>
        <time>2023-03-01T14:25:50Z</time>
      </trkpt>
      <trkpt lat="49.74402" lon="2.31384">
        <ele>123.4</ele>
        <time>2023-03-01T14:25:51Z</time>
      </trkpt>
      <trkpt lat="49.74403" lon="2.31383">
        <ele>123.4</ele>
        <time>2023-03-01T14:25:52Z</time>
      </trkpt>
      <trkpt lat="49.74404" lon="2.31383">
        <ele>123.4</ele>
        <time>2023-03-01T14:25:53Z</time>
      </trkpt>
      <trkpt lat="49.74404" lon="2.31383">
        <ele>123.4</ele>
        <time>2023-03-01T14:25:54Z</time>
      </trkpt>
      <trkpt lat="49.74405" lon="2.31382">
        <ele>123.4</ele>
        <time>2023-03-01T14:25:56Z</time>
      </trkpt>
      <trkpt lat="49.74406" lon="2.31382">
        <ele>123.3</ele>
        <time>2023-03-01T14:25:57Z</time>
      </trkpt>
      <trkpt lat="49.74407" lon="2.31381">
        <ele>123.3</ele>
        <time>2023-03-01T14:25:58Z</time>
      </trkpt>
      <trkpt lat="49.74407" lon="2.31381">
        <ele>123.3</ele>
        <time>2023-03-01T14:25:59Z</time>
      </trkpt>
      <trkpt lat="49.74408" lon="2.3138">
        <ele>123.3</ele>
        <time>2023-03-01T14:26:00Z</time>
      </trkpt>
      <trkpt lat="49.74409" lon="2.3138">
        <ele>123.3</ele>
        <time>2023-03-01T14:26:02Z</time>
      </trkpt>
      <trkpt lat="49.7441" lon="2.31379">
        <ele>123.3</ele>
        <time>2023-03-01T14:26:03Z</time>
      </trkpt>
      <trkpt lat="49.7441" lon="2.31379">
        <ele>123.3</ele>
        <time>2023-03-01T14:26:04Z</time>
      </trkpt>
      <trkpt lat="49.74411" lon="2.31379">
        <ele>123.3</ele>
        <time>2023-03-01T14:26:05Z</time>
      </trkpt>
      <trkpt lat="49.74412" lon="2.31378">
        <ele>123.3</ele>
        <time>2023-03-01T14:26:06Z</time>
      </trkpt>
      <trkpt lat="49.74413" lon="2.31378">
        <ele>123.3</ele>
        <time>2023-03-01T14:26:07Z</time>
      </trkpt>
      <trkpt lat="49.74414" lon="2.31377">
        <ele>123.2</ele>
        <time>2023-03-01T14:26:08Z</time>
      </trkpt>
      <trkpt lat="49.74415" lon="2.31377">
        <ele>123.2</ele>
        <time>2023-03-01T14:26:09Z</time>
      </trkpt>
      <trkpt lat="49.74416" lon="2.31377">
        <ele>123.2</ele>
        <time>2023-03-01T14:26:10Z</time>
      </trkpt>
      <trkpt lat="49.74417" lon="2.31377">
        <ele>123.2</ele>
        <time>2023-03-01T14:26:12Z</time>
      </trkpt>
      <trkpt lat="49.74418" lon="2.31377">
        <ele>123.2</ele>
        <time>2023-03-01T14:26:13Z</time>
      </trkpt>
      <trkpt lat="49.74419" lon="2.31377">
        <ele>123.2</ele>
        <time>2023-03-01T14:26:14Z</time>
      </trkpt>
      <trkpt lat="49.7442" lon="2.31377">
        <ele>123.1</ele>
        <time>2023-03-01T14:26:15Z</time>
      </trkpt>
      <trkpt lat="49.74422" lon="2.31376">
        <ele>123.1</ele>
        <time>2023-03-01T14:26:16Z</time>
      </trkpt>
      <trkpt lat="49.74423" lon="2.31376">
        <ele>123.1</ele>
        <time>2023-03-01T14:26:17Z</time>
      </trkpt>
      <trkpt lat="49.74425" lon="2.31375">
        <ele>123</ele>
        <time>2023-03-01T14:26:18Z</time>
      </trkpt>
      <trkpt lat="49.74425" lon="2.31374">
        <ele>123</ele>
        <time>2023-03-01T14:26:20Z</time>
      </trkpt>
      <trkpt lat="49.74426" lon="2.31374">
        <ele>123</ele>
        <time>2023-03-01T14:26:21Z</time>
      </trkpt>
      <trkpt lat="49.74427" lon="2.31374">
        <ele>123</ele>
        <time>2023-03-01T14:26:22Z</time>
      </trkpt>
      <trkpt lat="49.74428" lon="2.31373">
        <ele>122.9</ele>
        <time>2023-03-01T14:26:23Z</time>
      </trkpt>
      <trkpt lat="49.74429" lon="2.31372">
        <ele>122.9</ele>
        <time>2023-03-01T14:26:24Z</time>
      </trkpt>
      <trkpt lat="49.74432" lon="2.31372">
        <ele>122.8</ele>
        <time>2023-03-01T14:26:25Z</time>
      </trkpt>
      <trkpt lat="49.74432" lon="2.31371">
        <ele>122.8</ele>
        <time>2023-03-01T14:26:26Z</time>
      </trkpt>
      <trkpt lat="49.74433" lon="2.31371">
        <ele>122.8</ele>
        <time>2023-03-01T14:26:27Z</time>
      </trkpt>
      <trkpt lat="49.74435" lon="2.31371">
        <ele>122.7</ele>
        <time>2023-03-01T14:26:29Z</time>
      </trkpt>
      <trkpt lat="49.74436" lon="2.31371">
        <ele>122.7</ele>
        <time>2023-03-01T14:26:30Z</time>
      </trkpt>
      <trkpt lat="49.74439" lon="2.3137">
        <ele>122.6</ele>
        <time>2023-03-01T14:26:31Z</time>
      </trkpt>
      <trkpt lat="49.7444" lon="2.31369">
        <ele>122.6</ele>
        <time>2023-03-01T14:26:32Z</time>
      </trkpt>
      <trkpt lat="49.74442" lon="2.31368">
        <ele>122.5</ele>
        <time>2023-03-01T14:26:33Z</time>
      </trkpt>
      <trkpt lat="49.74443" lon="2.31367">
        <ele>122.5</ele>
        <time>2023-03-01T14:26:34Z</time>
      </trkpt>
      <trkpt lat="49.74444" lon="2.31367">
        <ele>122.4</ele>
        <time>2023-03-01T14:26:35Z</time>
      </trkpt>
      <trkpt lat="49.74446" lon="2.31365">
        <ele>122.3</ele>
        <time>2023-03-01T14:26:37Z</time>
      </trkpt>
      <trkpt lat="49.74446" lon="2.31365">
        <ele>122.3</ele>
        <time>2023-03-01T14:26:38Z</time>
      </trkpt>
      <trkpt lat="49.74447" lon="2.31364">
        <ele>122.3</ele>
        <time>2023-03-01T14:26:39Z</time>
      </trkpt>
      <trkpt lat="49.74448" lon="2.31363">
        <ele>122.2</ele>
        <time>2023-03-01T14:26:40Z</time>
      </trkpt>
      <trkpt lat="49.7445" lon="2.31362">
        <ele>122.2</ele>
        <time>2023-03-01T14:26:41Z</time>
      </trkpt>
      <trkpt lat="49.74451" lon="2.31362">
        <ele>122.2</ele>
        <time>2023-03-01T14:26:42Z</time>
      </trkpt>
      <trkpt lat="49.74452" lon="2.31362">
        <ele>122.1</ele>
        <time>2023-03-01T14:26:43Z</time>
      </trkpt>
      <trkpt lat="49.74453" lon="2.31361">
        <ele>122.1</ele>
        <time>2023-03-01T14:26:45Z</time>
      </trkpt>
      <trkpt lat="49.74454" lon="2.31361">
        <ele>122</ele>
        <time>2023-03-01T14:26:46Z</time>
      </trkpt>
      <trkpt lat="49.74455" lon="2.3136">
        <ele>122</ele>
        <time>2023-03-01T14:26:47Z</time>
      </trkpt>
      <trkpt lat="49.74456" lon="2.31359">
        <ele>122</ele>
        <time>2023-03-01T14:26:48Z</time>
      </trkpt>
      <trkpt lat="49.74457" lon="2.31358">
        <ele>121.9</ele>
        <time>2023-03-01T14:26:49Z</time>
      </trkpt>
      <trkpt lat="49.74458" lon="2.31357">
        <ele>121.9</ele>
        <time>2023-03-01T14:26:50Z</time>
      </trkpt>
      <trkpt lat="49.74459" lon="2.31357">
        <ele>121.9</ele>
        <time>2023-03-01T14:26:51Z</time>
      </trkpt>
      <trkpt lat="49.7446" lon="2.31356">
        <ele>121.8</ele>
        <time>2023-03-01T14:26:53Z</time>
      </trkpt>
      <trkpt lat="49.74461" lon="2.31356">
        <ele>121.8</ele>
        <time>2023-03-01T14:26:54Z</time>
      </trkpt>
      <trkpt lat="49.74461" lon="2.31355">
        <ele>121.8</ele>
        <time>2023-03-01T14:26:55Z</time>
      </trkpt>
      <trkpt lat="49.74462" lon="2.31355">
        <ele>121.8</ele>
        <time>2023-03-01T14:26:56Z</time>
      </trkpt>
      <trkpt lat="49.74463" lon="2.31354">
        <ele>121.8</ele>
        <time>2023-03-01T14:26:57Z</time>
      </trkpt>
      <trkpt lat="49.74464" lon="2.31353">
        <ele>121.8</ele>
        <time>2023-03-01T14:26:58Z</time>
      </trkpt>
      <trkpt lat="49.74464" lon="2.31352">
        <ele>121.7</ele>
        <time>2023-03-01T14:27:00Z</time>
      </trkpt>
      <trkpt lat="49.74464" lon="2.31351">
        <ele>121.7</ele>
        <time>2023-03-01T14:27:01Z</time>
      </trkpt>
      <trkpt lat="49.74465" lon="2.3135">
        <ele>121.7</ele>
        <time>2023-03-01T14:27:02Z</time>
      </trkpt>
      <trkpt lat="49.74465" lon="2.3135">
        <ele>121.7</ele>
        <time>2023-03-01T14:27:03Z</time>
      </trkpt>
      <trkpt lat="49.74466" lon="2.31349">
        <ele>121.7</ele>
        <time>2023-03-01T14:27:04Z</time>
      </trkpt>
      <trkpt lat="49.74466" lon="2.31348">
        <ele>121.6</ele>
        <time>2023-03-01T14:27:05Z</time>
      </trkpt>
      <trkpt lat="49.74467" lon="2.31346">
        <ele>121.6</ele>
        <time>2023-03-01T14:27:06Z</time>
      </trkpt>
      <trkpt lat="49.74467" lon="2.31345">
        <ele>121.6</ele>
        <time>2023-03-01T14:27:07Z</time>
      </trkpt>
      <trkpt lat="49.74468" lon="2.31343">
        <ele>121.5</ele>
        <time>2023-03-01T14:27:08Z</time>
      </trkpt>
      <trkpt lat="49.74469" lon="2.31342">
        <ele>121.5</ele>
        <time>2023-03-01T14:27:10Z</time>
      </trkpt>
      <trkpt lat="49.74469" lon="2.3134">
        <ele>121.4</ele>
        <time>2023-03-01T14:27:11Z</time>
      </trkpt>
      <trkpt lat="49.7447" lon="2.31339">
        <ele>121.4</ele>
        <time>2023-03-01T14:27:12Z</time>
      </trkpt>
      <trkpt lat="49.74471" lon="2.31337">
        <ele>121.4</ele>
        <time>2023-03-01T14:27:13Z</time>
      </trkpt>
      <trkpt lat="49.74471" lon="2.31335">
        <ele>121.3</ele>
        <time>2023-03-01T14:27:15Z</time>
      </trkpt>
      <trkpt lat="49.74472" lon="2.31333">
        <ele>121.3</ele>
        <time>2023-03-01T14:27:16Z</time>
      </trkpt>
      <trkpt lat="49.74473" lon="2.31332">
        <ele>121.2</ele>
        <time>2023-03-01T14:27:17Z</time>
      </trkpt>
      <trkpt lat="49.74474" lon="2.31329">
        <ele>121.1</ele>
        <time>2023-03-01T14:27:18Z</time>
      </trkpt>
      <trkpt lat="49.74475" lon="2.31328">
        <ele>121.1</ele>
        <time>2023-03-01T14:27:19Z</time>
      </trkpt>
      <trkpt lat="49.74475" lon="2.31327">
        <ele>121.1</ele>
        <time>2023-03-01T14:27:20Z</time>
      </trkpt>
      <trkpt lat="49.74476" lon="2.31324">
        <ele>121</ele>
        <time>2023-03-01T14:27:22Z</time>
      </trkpt>
      <trkpt lat="49.74477" lon="2.31322">
        <ele>120.9</ele>
        <time>2023-03-01T14:27:23Z</time>
      </trkpt>
      <trkpt lat="49.74478" lon="2.31319">
        <ele>120.8</ele>
        <time>2023-03-01T14:27:24Z</time>
      </trkpt>
      <trkpt lat="49.74478" lon="2.31318">
        <ele>120.8</ele>
        <time>2023-03-01T14:27:25Z</time>
      </trkpt>
      <trkpt lat="49.74479" lon="2.31317">
        <ele>120.8</ele>
        <time>2023-03-01T14:27:26Z</time>
      </trkpt>
      <trkpt lat="49.74479" lon="2.31315">
        <ele>120.7</ele>
        <time>2023-03-01T14:27:27Z</time>
      </trkpt>
      <trkpt lat="49.7448" lon="2.31314">
        <ele>120.7</ele>
        <time>2023-03-01T14:27:28Z</time>
      </trkpt>
      <trkpt lat="49.74481" lon="2.31312">
        <ele>120.6</ele>
        <time>2023-03-01T14:27:29Z</time>
      </trkpt>
      <trkpt lat="49.74482" lon="2.3131">
        <ele>120.5</ele>
        <time>2023-03-01T14:27:31Z</time>
      </trkpt>
      <trkpt lat="49.74482" lon="2.31309">
        <ele>120.5</ele>
        <time>2023-03-01T14:27:32Z</time>
      </trkpt>
      <trkpt lat="49.74483" lon="2.31308">
        <ele>120.5</ele>
        <time>2023-03-01T14:27:33Z</time>
      </trkpt>
      <trkpt lat="49.74483" lon="2.31306">
        <ele>120.5</ele>
        <time>2023-03-01T14:27:34Z</time>
      </trkpt>
      <trkpt lat="49.74484" lon="2.31305">
        <ele>120.5</ele>
        <time>2023-03-01T14:27:35Z</time>
      </trkpt>
      <trkpt lat="49.74484" lon="2.31304">
        <ele>120.4</ele>
        <time>2023-03-01T14:27:36Z</time>
      </trkpt>
      <trkpt lat="49.74485" lon="2.31302">
        <ele>120.4</ele>
        <time>2023-03-01T14:27:37Z</time>
      </trkpt>
      <trkpt lat="49.74485" lon="2.31301">
        <ele>120.3</ele>
        <time>2023-03-01T14:27:39Z</time>
      </trkpt>
      <trkpt lat="49.74486" lon="2.313">
        <ele>120.3</ele>
        <time>2023-03-01T14:27:40Z</time>
      </trkpt>
      <trkpt lat="49.74487" lon="2.31298">
        <ele>120.2</ele>
        <time>2023-03-01T14:27:41Z</time>
      </trkpt>
      <trkpt lat="49.74487" lon="2.31297">
        <ele>120.2</ele>
        <time>2023-03-01T14:27:42Z</time>
      </trkpt>
      <trkpt lat="49.74488" lon="2.31296">
        <ele>120.1</ele>
        <time>2023-03-01T14:27:43Z</time>
      </trkpt>
      <trkpt lat="49.74488" lon="2.31293">
        <ele>120.1</ele>
        <time>2023-03-01T14:27:44Z</time>
      </trkpt>
      <trkpt lat="49.74489" lon="2.31292">
        <ele>120</ele>
        <time>2023-03-01T14:27:45Z</time>
      </trkpt>
      <trkpt lat="49.74489" lon="2.3129">
        <ele>120</ele>
        <time>2023-03-01T14:27:46Z</time>
      </trkpt>
      <trkpt lat="49.7449" lon="2.31289">
        <ele>119.9</ele>
        <time>2023-03-01T14:27:48Z</time>
      </trkpt>
      <trkpt lat="49.7449" lon="2.31288">
        <ele>119.9</ele>
        <time>2023-03-01T14:27:49Z</time>
      </trkpt>
      <trkpt lat="49.7449" lon="2.31286">
        <ele>119.9</ele>
        <time>2023-03-01T14:27:50Z</time>
      </trkpt>
      <trkpt lat="49.74491" lon="2.31283">
        <ele>119.8</ele>
        <time>2023-03-01T14:27:51Z</time>
      </trkpt>
      <trkpt lat="49.74492" lon="2.31282">
        <ele>119.7</ele>
        <time>2023-03-01T14:27:52Z</time>
      </trkpt>
      <trkpt lat="49.74493" lon="2.31279">
        <ele>119.6</ele>
        <time>2023-03-01T14:27:53Z</time>
      </trkpt>
      <trkpt lat="49.74493" lon="2.31278">
        <ele>119.6</ele>
        <time>2023-03-01T14:27:54Z</time>
      </trkpt>
      <trkpt lat="49.74493" lon="2.31277">
        <ele>119.6</ele>
        <time>2023-03-01T14:27:55Z</time>
      </trkpt>
      <trkpt lat="49.74494" lon="2.31274">
        <ele>119.5</ele>
        <time>2023-03-01T14:27:57Z</time>
      </trkpt>
      <trkpt lat="49.74494" lon="2.31273">
        <ele>119.5</ele>
        <time>2023-03-01T14:27:58Z</time>
      </trkpt>
      <trkpt lat="49.74495" lon="2.31269">
        <ele>119.4</ele>
        <time>2023-03-01T14:27:59Z</time>
      </trkpt>
      <trkpt lat="49.74495" lon="2.31268">
        <ele>119.3</ele>
        <time>2023-03-01T14:28:00Z</time>
      </trkpt>
      <trkpt lat="49.74495" lon="2.31266">
        <ele>119.3</ele>
        <time>2023-03-01T14:28:01Z</time>
      </trkpt>
      <trkpt lat="49.74495" lon="2.31265">
        <ele>119.2</ele>
        <time>2023-03-01T14:28:02Z</time>
      </trkpt>
      <trkpt lat="49.74495" lon="2.31263">
        <ele>119.2</ele>
        <time>2023-03-01T14:28:03Z</time>
      </trkpt>
      <trkpt lat="49.74495" lon="2.31261">
        <ele>119.1</ele>
        <time>2023-03-01T14:28:05Z</time>
      </trkpt>
      <trkpt lat="49.74496" lon="2.31259">
        <ele>119.1</ele>
        <time>2023-03-01T14:28:06Z</time>
      </trkpt>
      <trkpt lat="49.74496" lon="2.31256">
        <ele>119</ele>
        <time>2023-03-01T14:28:07Z</time>
      </trkpt>
      <trkpt lat="49.74496" lon="2.31255">
        <ele>119</ele>
        <time>2023-03-01T14:28:08Z</time>
      </trkpt>
      <trkpt lat="49.74496" lon="2.31253">
        <ele>118.9</ele>
        <time>2023-03-01T14:28:09Z</time>
      </trkpt>
      <trkpt lat="49.74497" lon="2.31251">
        <ele>118.9</ele>
        <time>2023-03-01T14:28:10Z</time>
      </trkpt>
      <trkpt lat="49.74497" lon="2.31249">
        <ele>118.9</ele>
        <time>2023-03-01T14:28:11Z</time>
      </trkpt>
      <trkpt lat="49.74498" lon="2.31248">
        <ele>118.9</ele>
        <time>2023-03-01T14:28:12Z</time>
      </trkpt>
      <trkpt lat="49.74498" lon="2.31246">
        <ele>118.8</ele>
        <time>2023-03-01T14:28:13Z</time>
      </trkpt>
      <trkpt lat="49.74499" lon="2.31244">
        <ele>118.8</ele>
        <time>2023-03-01T14:28:15Z</time>
      </trkpt>
      <trkpt lat="49.74499" lon="2.31242">
        <ele>118.7</ele>
        <time>2023-03-01T14:28:16Z</time>
      </trkpt>
      <trkpt lat="49.745" lon="2.31241">
        <ele>118.6</ele>
        <time>2023-03-01T14:28:17Z</time>
      </trkpt>
      <trkpt lat="49.74501" lon="2.3124">
        <ele>118.6</ele>
        <time>2023-03-01T14:28:18Z</time>
      </trkpt>
      <trkpt lat="49.74502" lon="2.31239">
        <ele>118.6</ele>
        <time>2023-03-01T14:28:19Z</time>
      </trkpt>
      <trkpt lat="49.74502" lon="2.31237">
        <ele>118.5</ele>
        <time>2023-03-01T14:28:20Z</time>
      </trkpt>
      <trkpt lat="49.74504" lon="2.31235">
        <ele>118.4</ele>
        <time>2023-03-01T14:28:21Z</time>
      </trkpt>
      <trkpt lat="49.74505" lon="2.31233">
        <ele>118.3</ele>
        <time>2023-03-01T14:28:23Z</time>
      </trkpt>
      <trkpt lat="49.74506" lon="2.31231">
        <ele>118.3</ele>
        <time>2023-03-01T14:28:24Z</time>
      </trkpt>
      <trkpt lat="49.74508" lon="2.31228">
        <ele>118.2</ele>
        <time>2023-03-01T14:28:25Z</time>
      </trkpt>
      <trkpt lat="49.74509" lon="2.31227">
        <ele>118.1</ele>
        <time>2023-03-01T14:28:26Z</time>
      </trkpt>
      <trkpt lat="49.74509" lon="2.31226">
        <ele>118.1</ele>
        <time>2023-03-01T14:28:27Z</time>
      </trkpt>
      <trkpt lat="49.7451" lon="2.31225">
        <ele>118</ele>
        <time>2023-03-01T14:28:28Z</time>
      </trkpt>
      <trkpt lat="49.74511" lon="2.31223">
        <ele>118</ele>
        <time>2023-03-01T14:28:30Z</time>
      </trkpt>
      <trkpt lat="49.74513" lon="2.31222">
        <ele>117.9</ele>
        <time>2023-03-01T14:28:31Z</time>
      </trkpt>
      <trkpt lat="49.74514" lon="2.3122">
        <ele>117.8</ele>
        <time>2023-03-01T14:28:32Z</time>
      </trkpt>
      <trkpt lat="49.74516" lon="2.31219">
        <ele>117.7</ele>
        <time>2023-03-01T14:28:33Z</time>
      </trkpt>
      <trkpt lat="49.74516" lon="2.31218">
        <ele>117.7</ele>
        <time>2023-03-01T14:28:34Z</time>
      </trkpt>
      <trkpt lat="49.74517" lon="2.31217">
        <ele>117.7</ele>
        <time>2023-03-01T14:28:35Z</time>
      </trkpt>
      <trkpt lat="49.74519" lon="2.31216">
        <ele>117.6</ele>
        <time>2023-03-01T14:28:36Z</time>
      </trkpt>
      <trkpt lat="49.74519" lon="2.31215">
        <ele>117.6</ele>
        <time>2023-03-01T14:28:38Z</time>
      </trkpt>
      <trkpt lat="49.7452" lon="2.31214">
        <ele>117.5</ele>
        <time>2023-03-01T14:28:39Z</time>
      </trkpt>
      <trkpt lat="49.7452" lon="2.31213">
        <ele>117.5</ele>
        <time>2023-03-01T14:28:40Z</time>
      </trkpt>
      <trkpt lat="49.74521" lon="2.31212">
        <ele>117.4</ele>
        <time>2023-03-01T14:28:41Z</time>
      </trkpt>
      <trkpt lat="49.74522" lon="2.31211">
        <ele>117.4</ele>
        <time>2023-03-01T14:28:42Z</time>
      </trkpt>
      <trkpt lat="49.74523" lon="2.31211">
        <ele>117.4</ele>
        <time>2023-03-01T14:28:43Z</time>
      </trkpt>
      <trkpt lat="49.74524" lon="2.3121">
        <ele>117.3</ele>
        <time>2023-03-01T14:28:44Z</time>
      </trkpt>
      <trkpt lat="49.74525" lon="2.31209">
        <ele>117.3</ele>
        <time>2023-03-01T14:28:45Z</time>
      </trkpt>
      <trkpt lat="49.74526" lon="2.31207">
        <ele>117.2</ele>
        <time>2023-03-01T14:28:46Z</time>
      </trkpt>
      <trkpt lat="49.74527" lon="2.31207">
        <ele>117.1</ele>
        <time>2023-03-01T14:28:48Z</time>
      </trkpt>
      <trkpt lat="49.74527" lon="2.31206">
        <ele>117.1</ele>
        <time>2023-03-01T14:28:49Z</time>
      </trkpt>
      <trkpt lat="49.74529" lon="2.31204">
        <ele>117</ele>
        <time>2023-03-01T14:28:50Z</time>
      </trkpt>
      <trkpt lat="49.74529" lon="2.31203">
        <ele>117</ele>
        <time>2023-03-01T14:28:51Z</time>
      </trkpt>
      <trkpt lat="49.7453" lon="2.31202">
        <ele>117</ele>
        <time>2023-03-01T14:28:52Z</time>
      </trkpt>
      <trkpt lat="49.74531" lon="2.31199">
        <ele>116.9</ele>
        <time>2023-03-01T14:28:53Z</time>
      </trkpt>
      <trkpt lat="49.74532" lon="2.31198">
        <ele>116.8</ele>
        <time>2023-03-01T14:28:54Z</time>
      </trkpt>
      <trkpt lat="49.74533" lon="2.31197">
        <ele>116.8</ele>
        <time>2023-03-01T14:28:55Z</time>
      </trkpt>
      <trkpt lat="49.74534" lon="2.31194">
        <ele>116.7</ele>
        <time>2023-03-01T14:28:57Z</time>
      </trkpt>
      <trkpt lat="49.74535" lon="2.31194">
        <ele>116.7</ele>
        <time>2023-03-01T14:28:58Z</time>
      </trkpt>
      <trkpt lat="49.74535" lon="2.31193">
        <ele>116.6</ele>
        <time>2023-03-01T14:28:59Z</time>
      </trkpt>
      <trkpt lat="49.74537" lon="2.3119">
        <ele>116.6</ele>
        <time>2023-03-01T14:29:00Z</time>
      </trkpt>
      <trkpt lat="49.74537" lon="2.31189">
        <ele>116.5</ele>
        <time>2023-03-01T14:29:01Z</time>
      </trkpt>
      <trkpt lat="49.74538" lon="2.31188">
        <ele>116.5</ele>
        <time>2023-03-01T14:29:02Z</time>
      </trkpt>
      <trkpt lat="49.7454" lon="2.31186">
        <ele>116.4</ele>
        <time>2023-03-01T14:29:03Z</time>
      </trkpt>
      <trkpt lat="49.7454" lon="2.31185">
        <ele>116.4</ele>
        <time>2023-03-01T14:29:04Z</time>
      </trkpt>
      <trkpt lat="49.74541" lon="2.31183">
        <ele>116.3</ele>
        <time>2023-03-01T14:29:05Z</time>
      </trkpt>
      <trkpt lat="49.74542" lon="2.31181">
        <ele>116.3</ele>
        <time>2023-03-01T14:29:07Z</time>
      </trkpt>
      <trkpt lat="49.74543" lon="2.3118">
        <ele>116.2</ele>
        <time>2023-03-01T14:29:08Z</time>
      </trkpt>
      <trkpt lat="49.74543" lon="2.31178">
        <ele>116.2</ele>
        <time>2023-03-01T14:29:09Z</time>
      </trkpt>
      <trkpt lat="49.74545" lon="2.31176">
        <ele>116.1</ele>
        <time>2023-03-01T14:29:10Z</time>
      </trkpt>
      <trkpt lat="49.74545" lon="2.31175">
        <ele>116.1</ele>
        <time>2023-03-01T14:29:11Z</time>
      </trkpt>
      <trkpt lat="49.74547" lon="2.31173">
        <ele>116</ele>
        <time>2023-03-01T14:29:12Z</time>
      </trkpt>
      <trkpt lat="49.74547" lon="2.31172">
        <ele>115.9</ele>
        <time>2023-03-01T14:29:13Z</time>
      </trkpt>
      <trkpt lat="49.74549" lon="2.31169">
        <ele>115.9</ele>
        <time>2023-03-01T14:29:15Z</time>
      </trkpt>
      <trkpt lat="49.74551" lon="2.31167">
        <ele>115.8</ele>
        <time>2023-03-01T14:29:17Z</time>
      </trkpt>
      <trkpt lat="49.74551" lon="2.31166">
        <ele>115.7</ele>
        <time>2023-03-01T14:29:18Z</time>
      </trkpt>
      <trkpt lat="49.74552" lon="2.31165">
        <ele>115.7</ele>
        <time>2023-03-01T14:29:19Z</time>
      </trkpt>
      <trkpt lat="49.74553" lon="2.31163">
        <ele>115.6</ele>
        <time>2023-03-01T14:29:20Z</time>
      </trkpt>
      <trkpt lat="49.74554" lon="2.31162">
        <ele>115.6</ele>
        <time>2023-03-01T14:29:21Z</time>
      </trkpt>
      <trkpt lat="49.74554" lon="2.31161">
        <ele>115.6</ele>
        <time>2023-03-01T14:29:22Z</time>
      </trkpt>
      <trkpt lat="49.74555" lon="2.3116">
        <ele>115.5</ele>
        <time>2023-03-01T14:29:24Z</time>
      </trkpt>
      <trkpt lat="49.74556" lon="2.31158">
        <ele>115.5</ele>
        <time>2023-03-01T14:29:25Z</time>
      </trkpt>
      <trkpt lat="49.74556" lon="2.31157">
        <ele>115.4</ele>
        <time>2023-03-01T14:29:26Z</time>
      </trkpt>
      <trkpt lat="49.74557" lon="2.31156">
        <ele>115.4</ele>
        <time>2023-03-01T14:29:27Z</time>
      </trkpt>
      <trkpt lat="49.74557" lon="2.31155">
        <ele>115.4</ele>
        <time>2023-03-01T14:29:28Z</time>
      </trkpt>
      <trkpt lat="49.74558" lon="2.31154">
        <ele>115.3</ele>
        <time>2023-03-01T14:29:29Z</time>
      </trkpt>
      <trkpt lat="49.74558" lon="2.31153">
        <ele>115.3</ele>
        <time>2023-03-01T14:29:30Z</time>
      </trkpt>
      <trkpt lat="49.74559" lon="2.31151">
        <ele>115.3</ele>
        <time>2023-03-01T14:29:31Z</time>
      </trkpt>
      <trkpt lat="49.7456" lon="2.31151">
        <ele>115.2</ele>
        <time>2023-03-01T14:29:33Z</time>
      </trkpt>
      <trkpt lat="49.7456" lon="2.3115">
        <ele>115.2</ele>
        <time>2023-03-01T14:29:34Z</time>
      </trkpt>
      <trkpt lat="49.74561" lon="2.31149">
        <ele>115.2</ele>
        <time>2023-03-01T14:29:35Z</time>
      </trkpt>
      <trkpt lat="49.74562" lon="2.31148">
        <ele>115.1</ele>
        <time>2023-03-01T14:29:36Z</time>
      </trkpt>
      <trkpt lat="49.74563" lon="2.31147">
        <ele>115.1</ele>
        <time>2023-03-01T14:29:37Z</time>
      </trkpt>
      <trkpt lat="49.74564" lon="2.31146">
        <ele>115</ele>
        <time>2023-03-01T14:29:38Z</time>
      </trkpt>
      <trkpt lat="49.74565" lon="2.31145">
        <ele>115</ele>
        <time>2023-03-01T14:29:39Z</time>
      </trkpt>
      <trkpt lat="49.74565" lon="2.31144">
        <ele>114.9</ele>
        <time>2023-03-01T14:29:41Z</time>
      </trkpt>
      <trkpt lat="49.74566" lon="2.31142">
        <ele>114.9</ele>
        <time>2023-03-01T14:29:42Z</time>
      </trkpt>
      <trkpt lat="49.74567" lon="2.31141">
        <ele>114.8</ele>
        <time>2023-03-01T14:29:43Z</time>
      </trkpt>
      <trkpt lat="49.74568" lon="2.3114">
        <ele>114.8</ele>
        <time>2023-03-01T14:29:44Z</time>
      </trkpt>
      <trkpt lat="49.74568" lon="2.31138">
        <ele>114.7</ele>
        <time>2023-03-01T14:29:45Z</time>
      </trkpt>
      <trkpt lat="49.74569" lon="2.31138">
        <ele>114.7</ele>
        <time>2023-03-01T14:29:46Z</time>
      </trkpt>
      <trkpt lat="49.7457" lon="2.31136">
        <ele>114.6</ele>
        <time>2023-03-01T14:29:47Z</time>
      </trkpt>
      <trkpt lat="49.74571" lon="2.31135">
        <ele>114.6</ele>
        <time>2023-03-01T14:29:48Z</time>
      </trkpt>
      <trkpt lat="49.74571" lon="2.31135">
        <ele>114.5</ele>
        <time>2023-03-01T14:29:50Z</time>
      </trkpt>
      <trkpt lat="49.74572" lon="2.31134">
        <ele>114.5</ele>
        <time>2023-03-01T14:29:51Z</time>
      </trkpt>
      <trkpt lat="49.74573" lon="2.31133">
        <ele>114.4</ele>
        <time>2023-03-01T14:29:52Z</time>
      </trkpt>
      <trkpt lat="49.74574" lon="2.31132">
        <ele>114.4</ele>
        <time>2023-03-01T14:29:53Z</time>
      </trkpt>
      <trkpt lat="49.74575" lon="2.31132">
        <ele>114.3</ele>
        <time>2023-03-01T14:29:54Z</time>
      </trkpt>
      <trkpt lat="49.74576" lon="2.31131">
        <ele>114.3</ele>
        <time>2023-03-01T14:29:55Z</time>
      </trkpt>
      <trkpt lat="49.74576" lon="2.3113">
        <ele>114.3</ele>
        <time>2023-03-01T14:29:56Z</time>
      </trkpt>
      <trkpt lat="49.74578" lon="2.31129">
        <ele>114.2</ele>
        <time>2023-03-01T14:29:57Z</time>
      </trkpt>
      <trkpt lat="49.74578" lon="2.31128">
        <ele>114.1</ele>
        <time>2023-03-01T14:29:59Z</time>
      </trkpt>
      <trkpt lat="49.74579" lon="2.31127">
        <ele>114.1</ele>
        <time>2023-03-01T14:30:00Z</time>
      </trkpt>
      <trkpt lat="49.7458" lon="2.31126">
        <ele>114</ele>
        <time>2023-03-01T14:30:01Z</time>
      </trkpt>
      <trkpt lat="49.74581" lon="2.31124">
        <ele>114</ele>
        <time>2023-03-01T14:30:02Z</time>
      </trkpt>
      <trkpt lat="49.74582" lon="2.31124">
        <ele>113.9</ele>
        <time>2023-03-01T14:30:03Z</time>
      </trkpt>
      <trkpt lat="49.74582" lon="2.31123">
        <ele>113.9</ele>
        <time>2023-03-01T14:30:04Z</time>
      </trkpt>
      <trkpt lat="49.74583" lon="2.31123">
        <ele>113.9</ele>
        <time>2023-03-01T14:30:05Z</time>
      </trkpt>
      <trkpt lat="49.74584" lon="2.31121">
        <ele>113.8</ele>
        <time>2023-03-01T14:30:06Z</time>
      </trkpt>
      <trkpt lat="49.74585" lon="2.3112">
        <ele>113.7</ele>
        <time>2023-03-01T14:30:08Z</time>
      </trkpt>
      <trkpt lat="49.74585" lon="2.31119">
        <ele>113.7</ele>
        <time>2023-03-01T14:30:09Z</time>
      </trkpt>
      <trkpt lat="49.74586" lon="2.31118">
        <ele>113.6</ele>
        <time>2023-03-01T14:30:10Z</time>
      </trkpt>
      <trkpt lat="49.74587" lon="2.31117">
        <ele>113.6</ele>
        <time>2023-03-01T14:30:11Z</time>
      </trkpt>
      <trkpt lat="49.74589" lon="2.31117">
        <ele>113.5</ele>
        <time>2023-03-01T14:30:12Z</time>
      </trkpt>
      <trkpt lat="49.7459" lon="2.31116">
        <ele>113.4</ele>
        <time>2023-03-01T14:30:13Z</time>
      </trkpt>
      <trkpt lat="49.74591" lon="2.31116">
        <ele>113.3</ele>
        <time>2023-03-01T14:30:14Z</time>
      </trkpt>
      <trkpt lat="49.74592" lon="2.31115">
        <ele>113.3</ele>
        <time>2023-03-01T14:30:15Z</time>
      </trkpt>
      <trkpt lat="49.74594" lon="2.31114">
        <ele>113.2</ele>
        <time>2023-03-01T14:30:17Z</time>
      </trkpt>
      <trkpt lat="49.74595" lon="2.31114">
        <ele>113.1</ele>
        <time>2023-03-01T14:30:18Z</time>
      </trkpt>
      <trkpt lat="49.74596" lon="2.31113">
        <ele>113.1</ele>
        <time>2023-03-01T14:30:19Z</time>
      </trkpt>
      <trkpt lat="49.74597" lon="2.31112">
        <ele>113</ele>
        <time>2023-03-01T14:30:20Z</time>
      </trkpt>
      <trkpt lat="49.74598" lon="2.31111">
        <ele>113</ele>
        <time>2023-03-01T14:30:21Z</time>
      </trkpt>
      <trkpt lat="49.746" lon="2.31109">
        <ele>112.8</ele>
        <time>2023-03-01T14:30:22Z</time>
      </trkpt>
      <trkpt lat="49.746" lon="2.31109">
        <ele>112.8</ele>
        <time>2023-03-01T14:30:23Z</time>
      </trkpt>
      <trkpt lat="49.74601" lon="2.31108">
        <ele>112.7</ele>
        <time>2023-03-01T14:30:24Z</time>
      </trkpt>
      <trkpt lat="49.74602" lon="2.31107">
        <ele>112.7</ele>
        <time>2023-03-01T14:30:25Z</time>
      </trkpt>
      <trkpt lat="49.74603" lon="2.31106">
        <ele>112.6</ele>
        <time>2023-03-01T14:30:27Z</time>
      </trkpt>
      <trkpt lat="49.74604" lon="2.31105">
        <ele>112.5</ele>
        <time>2023-03-01T14:30:28Z</time>
      </trkpt>
      <trkpt lat="49.74605" lon="2.31104">
        <ele>112.5</ele>
        <time>2023-03-01T14:30:29Z</time>
      </trkpt>
      <trkpt lat="49.74605" lon="2.31103">
        <ele>112.4</ele>
        <time>2023-03-01T14:30:30Z</time>
      </trkpt>
      <trkpt lat="49.74607" lon="2.31101">
        <ele>112.3</ele>
        <time>2023-03-01T14:30:32Z</time>
      </trkpt>
      <trkpt lat="49.74608" lon="2.311">
        <ele>112.2</ele>
        <time>2023-03-01T14:30:33Z</time>
      </trkpt>
      <trkpt lat="49.74608" lon="2.31099">
        <ele>112.2</ele>
        <time>2023-03-01T14:30:35Z</time>
      </trkpt>
      <trkpt lat="49.7461" lon="2.31098">
        <ele>112.1</ele>
        <time>2023-03-01T14:30:36Z</time>
      </trkpt>
      <trkpt lat="49.7461" lon="2.31097">
        <ele>112.1</ele>
        <time>2023-03-01T14:30:37Z</time>
      </trkpt>
      <trkpt lat="49.74611" lon="2.31097">
        <ele>112</ele>
        <time>2023-03-01T14:30:38Z</time>
      </trkpt>
      <trkpt lat="49.74612" lon="2.31096">
        <ele>111.9</ele>
        <time>2023-03-01T14:30:39Z</time>
      </trkpt>
      <trkpt lat="49.74613" lon="2.31095">
        <ele>111.9</ele>
        <time>2023-03-01T14:30:40Z</time>
      </trkpt>
      <trkpt lat="49.74614" lon="2.31094">
        <ele>111.8</ele>
        <time>2023-03-01T14:30:41Z</time>
      </trkpt>
      <trkpt lat="49.74615" lon="2.31093">
        <ele>111.8</ele>
        <time>2023-03-01T14:30:43Z</time>
      </trkpt>
      <trkpt lat="49.74616" lon="2.31093">
        <ele>111.7</ele>
        <time>2023-03-01T14:30:44Z</time>
      </trkpt>
      <trkpt lat="49.74617" lon="2.31092">
        <ele>111.6</ele>
        <time>2023-03-01T14:30:45Z</time>
      </trkpt>
      <trkpt lat="49.74618" lon="2.31091">
        <ele>111.6</ele>
        <time>2023-03-01T14:30:46Z</time>
      </trkpt>
      <trkpt lat="49.74618" lon="2.3109">
        <ele>111.5</ele>
        <time>2023-03-01T14:30:47Z</time>
      </trkpt>
      <trkpt lat="49.74619" lon="2.31089">
        <ele>111.5</ele>
        <time>2023-03-01T14:30:48Z</time>
      </trkpt>
      <trkpt lat="49.7462" lon="2.31088">
        <ele>111.4</ele>
        <time>2023-03-01T14:30:49Z</time>
      </trkpt>
      <trkpt lat="49.74621" lon="2.31087">
        <ele>111.3</ele>
        <time>2023-03-01T14:30:50Z</time>
      </trkpt>
      <trkpt lat="49.74622" lon="2.31086">
        <ele>111.3</ele>
        <time>2023-03-01T14:30:52Z</time>
      </trkpt>
      <trkpt lat="49.74622" lon="2.31084">
        <ele>111.2</ele>
        <time>2023-03-01T14:30:53Z</time>
      </trkpt>
      <trkpt lat="49.74623" lon="2.31083">
        <ele>111.1</ele>
        <time>2023-03-01T14:30:54Z</time>
      </trkpt>
      <trkpt lat="49.74624" lon="2.31082">
        <ele>111.1</ele>
        <time>2023-03-01T14:30:55Z</time>
      </trkpt>
      <trkpt lat="49.74625" lon="2.31081">
        <ele>111</ele>
        <time>2023-03-01T14:30:56Z</time>
      </trkpt>
      <trkpt lat="49.74626" lon="2.3108">
        <ele>110.9</ele>
        <time>2023-03-01T14:30:58Z</time>
      </trkpt>
      <trkpt lat="49.74626" lon="2.31079">
        <ele>110.9</ele>
        <time>2023-03-01T14:30:59Z</time>
      </trkpt>
      <trkpt lat="49.74627" lon="2.31079">
        <ele>110.8</ele>
        <time>2023-03-01T14:31:00Z</time>
      </trkpt>
      <trkpt lat="49.74628" lon="2.31079">
        <ele>110.8</ele>
        <time>2023-03-01T14:31:02Z</time>
      </trkpt>
      <trkpt lat="49.74628" lon="2.31079">
        <ele>110.8</ele>
        <time>2023-03-01T14:31:03Z</time>
      </trkpt>
      <trkpt lat="49.74629" lon="2.31079">
        <ele>110.7</ele>
        <time>2023-03-01T14:31:04Z</time>
      </trkpt>
      <trkpt lat="49.74629" lon="2.31079">
        <ele>110.7</ele>
        <time>2023-03-01T14:31:05Z</time>
      </trkpt>
      <trkpt lat="49.7463" lon="2.31079">
        <ele>110.7</ele>
        <time>2023-03-01T14:31:06Z</time>
      </trkpt>
      <trkpt lat="49.74631" lon="2.31079">
        <ele>110.6</ele>
        <time>2023-03-01T14:31:07Z</time>
      </trkpt>
      <trkpt lat="49.74631" lon="2.3108">
        <ele>110.6</ele>
        <time>2023-03-01T14:31:08Z</time>
      </trkpt>
      <trkpt lat="49.74632" lon="2.3108">
        <ele>110.6</ele>
        <time>2023-03-01T14:31:09Z</time>
      </trkpt>
      <trkpt lat="49.74633" lon="2.3108">
        <ele>110.5</ele>
        <time>2023-03-01T14:31:11Z</time>
      </trkpt>
      <trkpt lat="49.74634" lon="2.3108">
        <ele>110.4</ele>
        <time>2023-03-01T14:31:12Z</time>
      </trkpt>
      <trkpt lat="49.74634" lon="2.3108">
        <ele>110.4</ele>
        <time>2023-03-01T14:31:13Z</time>
      </trkpt>
      <trkpt lat="49.74635" lon="2.3108">
        <ele>110.4</ele>
        <time>2023-03-01T14:31:15Z</time>
      </trkpt>
      <trkpt lat="49.74636" lon="2.3108">
        <ele>110.3</ele>
        <time>2023-03-01T14:31:16Z</time>
      </trkpt>
      <trkpt lat="49.74637" lon="2.3108">
        <ele>110.2</ele>
        <time>2023-03-01T14:31:17Z</time>
      </trkpt>
      <trkpt lat="49.74638" lon="2.3108">
        <ele>110.2</ele>
        <time>2023-03-01T14:31:18Z</time>
      </trkpt>
      <trkpt lat="49.74639" lon="2.31079">
        <ele>110.1</ele>
        <time>2023-03-01T14:31:19Z</time>
      </trkpt>
      <trkpt lat="49.7464" lon="2.31079">
        <ele>110.1</ele>
        <time>2023-03-01T14:31:20Z</time>
      </trkpt>
      <trkpt lat="49.74641" lon="2.31078">
        <ele>110</ele>
        <time>2023-03-01T14:31:21Z</time>
      </trkpt>
      <trkpt lat="49.74642" lon="2.31078">
        <ele>110</ele>
        <time>2023-03-01T14:31:23Z</time>
      </trkpt>
      <trkpt lat="49.74642" lon="2.31078">
        <ele>109.9</ele>
        <time>2023-03-01T14:31:24Z</time>
      </trkpt>
      <trkpt lat="49.74643" lon="2.31077">
        <ele>109.9</ele>
        <time>2023-03-01T14:31:25Z</time>
      </trkpt>
      <trkpt lat="49.74643" lon="2.31077">
        <ele>109.8</ele>
        <time>2023-03-01T14:31:26Z</time>
      </trkpt>
      <trkpt lat="49.74645" lon="2.31077">
        <ele>109.8</ele>
        <time>2023-03-01T14:31:27Z</time>
      </trkpt>
      <trkpt lat="49.74645" lon="2.31076">
        <ele>109.7</ele>
        <time>2023-03-01T14:31:28Z</time>
      </trkpt>
      <trkpt lat="49.74646" lon="2.31076">
        <ele>109.7</ele>
        <time>2023-03-01T14:31:30Z</time>
      </trkpt>
      <trkpt lat="49.74647" lon="2.31076">
        <ele>109.6</ele>
        <time>2023-03-01T14:31:32Z</time>
      </trkpt>
      <trkpt lat="49.74648" lon="2.31075">
        <ele>109.6</ele>
        <time>2023-03-01T14:31:33Z</time>
      </trkpt>
      <trkpt lat="49.74648" lon="2.31075">
        <ele>109.5</ele>
        <time>2023-03-01T14:31:34Z</time>
      </trkpt>
      <trkpt lat="49.74649" lon="2.31075">
        <ele>109.5</ele>
        <time>2023-03-01T14:31:35Z</time>
      </trkpt>
      <trkpt lat="49.7465" lon="2.31075">
        <ele>109.4</ele>
        <time>2023-03-01T14:31:36Z</time>
      </trkpt>
      <trkpt lat="49.7465" lon="2.31074">
        <ele>109.4</ele>
        <time>2023-03-01T14:31:38Z</time>
      </trkpt>
      <trkpt lat="49.74651" lon="2.31074">
        <ele>109.3</ele>
        <time>2023-03-01T14:31:39Z</time>
      </trkpt>
      <trkpt lat="49.74652" lon="2.31073">
        <ele>109.3</ele>
        <time>2023-03-01T14:31:41Z</time>
      </trkpt>
      <trkpt lat="49.74653" lon="2.31073">
        <ele>109.2</ele>
        <time>2023-03-01T14:31:42Z</time>
      </trkpt>
      <trkpt lat="49.74653" lon="2.31072">
        <ele>109.2</ele>
        <time>2023-03-01T14:31:43Z</time>
      </trkpt>
      <trkpt lat="49.74654" lon="2.31072">
        <ele>109.2</ele>
        <time>2023-03-01T14:31:44Z</time>
      </trkpt>
      <trkpt lat="49.74655" lon="2.31072">
        <ele>109.1</ele>
        <time>2023-03-01T14:31:46Z</time>
      </trkpt>
      <trkpt lat="49.74655" lon="2.31072">
        <ele>109.1</ele>
        <time>2023-03-01T14:31:47Z</time>
      </trkpt>
      <trkpt lat="49.74656" lon="2.31071">
        <ele>109</ele>
        <time>2023-03-01T14:31:48Z</time>
      </trkpt>
      <trkpt lat="49.74656" lon="2.3107">
        <ele>109</ele>
        <time>2023-03-01T14:31:49Z</time>
      </trkpt>
      <trkpt lat="49.74657" lon="2.3107">
        <ele>109</ele>
        <time>2023-03-01T14:31:50Z</time>
      </trkpt>
      <trkpt lat="49.74657" lon="2.3107">
        <ele>108.9</ele>
        <time>2023-03-01T14:31:51Z</time>
      </trkpt>
      <trkpt lat="49.74658" lon="2.31069">
        <ele>108.9</ele>
        <time>2023-03-01T14:31:52Z</time>
      </trkpt>
      <trkpt lat="49.74658" lon="2.31069">
        <ele>108.9</ele>
        <time>2023-03-01T14:31:53Z</time>
      </trkpt>
      <trkpt lat="49.74659" lon="2.31069">
        <ele>108.8</ele>
        <time>2023-03-01T14:31:55Z</time>
      </trkpt>
      <trkpt lat="49.7466" lon="2.31068">
        <ele>108.8</ele>
        <time>2023-03-01T14:31:56Z</time>
      </trkpt>
      <trkpt lat="49.7466" lon="2.31068">
        <ele>108.7</ele>
        <time>2023-03-01T14:31:57Z</time>
      </trkpt>
      <trkpt lat="49.74661" lon="2.31068">
        <ele>108.7</ele>
        <time>2023-03-01T14:31:58Z</time>
      </trkpt>
      <trkpt lat="49.74662" lon="2.31068">
        <ele>108.6</ele>
        <time>2023-03-01T14:31:59Z</time>
      </trkpt>
      <trkpt lat="49.74662" lon="2.31068">
        <ele>108.6</ele>
        <time>2023-03-01T14:32:00Z</time>
      </trkpt>
      <trkpt lat="49.74663" lon="2.31067">
        <ele>108.6</ele>
        <time>2023-03-01T14:32:01Z</time>
      </trkpt>
      <trkpt lat="49.74663" lon="2.31067">
        <ele>108.5</ele>
        <time>2023-03-01T14:32:03Z</time>
      </trkpt>
      <trkpt lat="49.74664" lon="2.31067">
        <ele>108.5</ele>
        <time>2023-03-01T14:32:04Z</time>
      </trkpt>
      <trkpt lat="49.74665" lon="2.31066">
        <ele>108.4</ele>
        <time>2023-03-01T14:32:05Z</time>
      </trkpt>
      <trkpt lat="49.74666" lon="2.31066">
        <ele>108.4</ele>
        <time>2023-03-01T14:32:06Z</time>
      </trkpt>
      <trkpt lat="49.74667" lon="2.31065">
        <ele>108.3</ele>
        <time>2023-03-01T14:32:07Z</time>
      </trkpt>
      <trkpt lat="49.74668" lon="2.31065">
        <ele>108.2</ele>
        <time>2023-03-01T14:32:08Z</time>
      </trkpt>
      <trkpt lat="49.74669" lon="2.31064">
        <ele>108.2</ele>
        <time>2023-03-01T14:32:10Z</time>
      </trkpt>
      <trkpt lat="49.7467" lon="2.31064">
        <ele>108.1</ele>
        <time>2023-03-01T14:32:11Z</time>
      </trkpt>
      <trkpt lat="49.74671" lon="2.31064">
        <ele>108.1</ele>
        <time>2023-03-01T14:32:12Z</time>
      </trkpt>
      <trkpt lat="49.74672" lon="2.31063">
        <ele>108</ele>
        <time>2023-03-01T14:32:13Z</time>
      </trkpt>
      <trkpt lat="49.74674" lon="2.31063">
        <ele>107.4</ele>
        <time>2023-03-01T14:32:14Z</time>
      </trkpt>
      <trkpt lat="49.74675" lon="2.31063">
        <ele>107.3</ele>
        <time>2023-03-01T14:32:16Z</time>
      </trkpt>
      <trkpt lat="49.74676" lon="2.31062">
        <ele>106.8</ele>
        <time>2023-03-01T14:32:17Z</time>
      </trkpt>
      <trkpt lat="49.74677" lon="2.31062">
        <ele>106.8</ele>
        <time>2023-03-01T14:32:18Z</time>
      </trkpt>
      <trkpt lat="49.74678" lon="2.31062">
        <ele>106.3</ele>
        <time>2023-03-01T14:32:19Z</time>
      </trkpt>
      <trkpt lat="49.74679" lon="2.31062">
        <ele>106.2</ele>
        <time>2023-03-01T14:32:20Z</time>
      </trkpt>
      <trkpt lat="49.74681" lon="2.31061">
        <ele>106.2</ele>
        <time>2023-03-01T14:32:21Z</time>
      </trkpt>
      <trkpt lat="49.74682" lon="2.31061">
        <ele>105.6</ele>
        <time>2023-03-01T14:32:23Z</time>
      </trkpt>
      <trkpt lat="49.74683" lon="2.3106">
        <ele>105.6</ele>
        <time>2023-03-01T14:32:24Z</time>
      </trkpt>
      <trkpt lat="49.74684" lon="2.3106">
        <ele>105.1</ele>
        <time>2023-03-01T14:32:25Z</time>
      </trkpt>
      <trkpt lat="49.74685" lon="2.31059">
        <ele>105</ele>
        <time>2023-03-01T14:32:26Z</time>
      </trkpt>
      <trkpt lat="49.74686" lon="2.31058">
        <ele>105</ele>
        <time>2023-03-01T14:32:27Z</time>
      </trkpt>
      <trkpt lat="49.74687" lon="2.31058">
        <ele>104.4</ele>
        <time>2023-03-01T14:32:29Z</time>
      </trkpt>
      <trkpt lat="49.74688" lon="2.31058">
        <ele>104.4</ele>
        <time>2023-03-01T14:32:30Z</time>
      </trkpt>
      <trkpt lat="49.74688" lon="2.31057">
        <ele>104.3</ele>
        <time>2023-03-01T14:32:31Z</time>
      </trkpt>
      <trkpt lat="49.74689" lon="2.31057">
        <ele>104.3</ele>
        <time>2023-03-01T14:32:32Z</time>
      </trkpt>
      <trkpt lat="49.7469" lon="2.31057">
        <ele>103.7</ele>
        <time>2023-03-01T14:32:33Z</time>
      </trkpt>
      <trkpt lat="49.74691" lon="2.31057">
        <ele>103.7</ele>
        <time>2023-03-01T14:32:34Z</time>
      </trkpt>
      <trkpt lat="49.74692" lon="2.31057">
        <ele>103.6</ele>
        <time>2023-03-01T14:32:35Z</time>
      </trkpt>
      <trkpt lat="49.74693" lon="2.31057">
        <ele>103.1</ele>
        <time>2023-03-01T14:32:36Z</time>
      </trkpt>
      <trkpt lat="49.74694" lon="2.31056">
        <ele>103</ele>
        <time>2023-03-01T14:32:38Z</time>
      </trkpt>
      <trkpt lat="49.74695" lon="2.31056">
        <ele>102.4</ele>
        <time>2023-03-01T14:32:39Z</time>
      </trkpt>
      <trkpt lat="49.74696" lon="2.31056">
        <ele>102.4</ele>
        <time>2023-03-01T14:32:40Z</time>
      </trkpt>
      <trkpt lat="49.74698" lon="2.31055">
        <ele>101.9</ele>
        <time>2023-03-01T14:32:41Z</time>
      </trkpt>
      <trkpt lat="49.74699" lon="2.31055">
        <ele>101.8</ele>
        <time>2023-03-01T14:32:42Z</time>
      </trkpt>
      <trkpt lat="49.747" lon="2.31055">
        <ele>101.8</ele>
        <time>2023-03-01T14:32:43Z</time>
      </trkpt>
      <trkpt lat="49.747" lon="2.31055">
        <ele>101.3</ele>
        <time>2023-03-01T14:32:44Z</time>
      </trkpt>
      <trkpt lat="49.74701" lon="2.31054">
        <ele>101.3</ele>
        <time>2023-03-01T14:32:46Z</time>
      </trkpt>
      <trkpt lat="49.74702" lon="2.31054">
        <ele>101.3</ele>
        <time>2023-03-01T14:32:47Z</time>
      </trkpt>
      <trkpt lat="49.74703" lon="2.31054">
        <ele>101.2</ele>
        <time>2023-03-01T14:32:48Z</time>
      </trkpt>
      <trkpt lat="49.74703" lon="2.31053">
        <ele>101.2</ele>
        <time>2023-03-01T14:32:49Z</time>
      </trkpt>
      <trkpt lat="49.74703" lon="2.31053">
        <ele>100.8</ele>
        <time>2023-03-01T14:32:50Z</time>
      </trkpt>
      <trkpt lat="49.74704" lon="2.31053">
        <ele>100.7</ele>
        <time>2023-03-01T14:32:51Z</time>
      </trkpt>
      <trkpt lat="49.74705" lon="2.31052">
        <ele>100.7</ele>
        <time>2023-03-01T14:32:53Z</time>
      </trkpt>
      <trkpt lat="49.74706" lon="2.31052">
        <ele>100.3</ele>
        <time>2023-03-01T14:32:54Z</time>
      </trkpt>
      <trkpt lat="49.74707" lon="2.31051">
        <ele>100.2</ele>
        <time>2023-03-01T14:32:55Z</time>
      </trkpt>
      <trkpt lat="49.74707" lon="2.31051">
        <ele>100.2</ele>
        <time>2023-03-01T14:32:56Z</time>
      </trkpt>
      <trkpt lat="49.74708" lon="2.3105">
        <ele>100.1</ele>
        <time>2023-03-01T14:32:58Z</time>
      </trkpt>
      <trkpt lat="49.74709" lon="2.3105">
        <ele>99.9</ele>
        <time>2023-03-01T14:32:59Z</time>
      </trkpt>
      <trkpt lat="49.7471" lon="2.3105">
        <ele>99.8</ele>
        <time>2023-03-01T14:33:00Z</time>
      </trkpt>
      <trkpt lat="49.7471" lon="2.3105">
        <ele>99.8</ele>
        <time>2023-03-01T14:33:01Z</time>
      </trkpt>
      <trkpt lat="49.74711" lon="2.3105">
        <ele>99.8</ele>
        <time>2023-03-01T14:33:02Z</time>
      </trkpt>
      <trkpt lat="49.74712" lon="2.31049">
        <ele>99.5</ele>
        <time>2023-03-01T14:33:03Z</time>
      </trkpt>
      <trkpt lat="49.74713" lon="2.31049">
        <ele>99.5</ele>
        <time>2023-03-01T14:33:04Z</time>
      </trkpt>
      <trkpt lat="49.74714" lon="2.31049">
        <ele>99.3</ele>
        <time>2023-03-01T14:33:06Z</time>
      </trkpt>
      <trkpt lat="49.74715" lon="2.31048">
        <ele>99.3</ele>
        <time>2023-03-01T14:33:07Z</time>
      </trkpt>
      <trkpt lat="49.74717" lon="2.31048">
        <ele>99.2</ele>
        <time>2023-03-01T14:33:08Z</time>
      </trkpt>
      <trkpt lat="49.74718" lon="2.31048">
        <ele>99.1</ele>
        <time>2023-03-01T14:33:09Z</time>
      </trkpt>
      <trkpt lat="49.74719" lon="2.31048">
        <ele>99</ele>
        <time>2023-03-01T14:33:10Z</time>
      </trkpt>
      <trkpt lat="49.7472" lon="2.31047">
        <ele>98.9</ele>
        <time>2023-03-01T14:33:11Z</time>
      </trkpt>
      <trkpt lat="49.74721" lon="2.31047">
        <ele>98.9</ele>
        <time>2023-03-01T14:33:13Z</time>
      </trkpt>
      <trkpt lat="49.74722" lon="2.31047">
        <ele>98.8</ele>
        <time>2023-03-01T14:33:14Z</time>
      </trkpt>
      <trkpt lat="49.74723" lon="2.31047">
        <ele>98.7</ele>
        <time>2023-03-01T14:33:15Z</time>
      </trkpt>
      <trkpt lat="49.74724" lon="2.31046">
        <ele>98.7</ele>
        <time>2023-03-01T14:33:16Z</time>
      </trkpt>
      <trkpt lat="49.74725" lon="2.31046">
        <ele>98.6</ele>
        <time>2023-03-01T14:33:17Z</time>
      </trkpt>
      <trkpt lat="49.74727" lon="2.31045">
        <ele>98.6</ele>
        <time>2023-03-01T14:33:18Z</time>
      </trkpt>
      <trkpt lat="49.74728" lon="2.31045">
        <ele>98.5</ele>
        <time>2023-03-01T14:33:19Z</time>
      </trkpt>
      <trkpt lat="49.7473" lon="2.31044">
        <ele>98.5</ele>
        <time>2023-03-01T14:33:21Z</time>
      </trkpt>
      <trkpt lat="49.74731" lon="2.31043">
        <ele>98.5</ele>
        <time>2023-03-01T14:33:22Z</time>
      </trkpt>
      <trkpt lat="49.74732" lon="2.31043">
        <ele>98.5</ele>
        <time>2023-03-01T14:33:23Z</time>
      </trkpt>
      <trkpt lat="49.74733" lon="2.31042">
        <ele>98.5</ele>
        <time>2023-03-01T14:33:24Z</time>
      </trkpt>
      <trkpt lat="49.74734" lon="2.31041">
        <ele>98.5</ele>
        <time>2023-03-01T14:33:25Z</time>
      </trkpt>
      <trkpt lat="49.74736" lon="2.31041">
        <ele>98.4</ele>
        <time>2023-03-01T14:33:26Z</time>
      </trkpt>
      <trkpt lat="49.74737" lon="2.3104">
        <ele>98.4</ele>
        <time>2023-03-01T14:33:27Z</time>
      </trkpt>
      <trkpt lat="49.74738" lon="2.31039">
        <ele>98.4</ele>
        <time>2023-03-01T14:33:29Z</time>
      </trkpt>
      <trkpt lat="49.74739" lon="2.31039">
        <ele>98.4</ele>
        <time>2023-03-01T14:33:30Z</time>
      </trkpt>
      <trkpt lat="49.7474" lon="2.31038">
        <ele>98.4</ele>
        <time>2023-03-01T14:33:31Z</time>
      </trkpt>
      <trkpt lat="49.74741" lon="2.31038">
        <ele>98.3</ele>
        <time>2023-03-01T14:33:32Z</time>
      </trkpt>
      <trkpt lat="49.74742" lon="2.31038">
        <ele>98.3</ele>
        <time>2023-03-01T14:33:33Z</time>
      </trkpt>
      <trkpt lat="49.74743" lon="2.31037">
        <ele>98.3</ele>
        <time>2023-03-01T14:33:34Z</time>
      </trkpt>
      <trkpt lat="49.74744" lon="2.31037">
        <ele>98.2</ele>
        <time>2023-03-01T14:33:35Z</time>
      </trkpt>
      <trkpt lat="49.74745" lon="2.31037">
        <ele>98.1</ele>
        <time>2023-03-01T14:33:36Z</time>
      </trkpt>
      <trkpt lat="49.74746" lon="2.31037">
        <ele>98.1</ele>
        <time>2023-03-01T14:33:38Z</time>
      </trkpt>
      <trkpt lat="49.74747" lon="2.31037">
        <ele>98.1</ele>
        <time>2023-03-01T14:33:39Z</time>
      </trkpt>
      <trkpt lat="49.74748" lon="2.31037">
        <ele>98</ele>
        <time>2023-03-01T14:33:40Z</time>
      </trkpt>
      <trkpt lat="49.74749" lon="2.31037">
        <ele>97.9</ele>
        <time>2023-03-01T14:33:41Z</time>
      </trkpt>
      <trkpt lat="49.74749" lon="2.31037">
        <ele>97.9</ele>
        <time>2023-03-01T14:33:42Z</time>
      </trkpt>
      <trkpt lat="49.7475" lon="2.31037">
        <ele>97.8</ele>
        <time>2023-03-01T14:33:43Z</time>
      </trkpt>
      <trkpt lat="49.7475" lon="2.31037">
        <ele>97.8</ele>
        <time>2023-03-01T14:33:44Z</time>
      </trkpt>
      <trkpt lat="49.74751" lon="2.31037">
        <ele>97.7</ele>
        <time>2023-03-01T14:33:46Z</time>
      </trkpt>
      <trkpt lat="49.74751" lon="2.31038">
        <ele>97.7</ele>
        <time>2023-03-01T14:33:47Z</time>
      </trkpt>
      <trkpt lat="49.74752" lon="2.31038">
        <ele>97.6</ele>
        <time>2023-03-01T14:33:48Z</time>
      </trkpt>
      <trkpt lat="49.74752" lon="2.31038">
        <ele>97.6</ele>
        <time>2023-03-01T14:33:49Z</time>
      </trkpt>
      <trkpt lat="49.74753" lon="2.31038">
        <ele>97.5</ele>
        <time>2023-03-01T14:33:50Z</time>
      </trkpt>
      <trkpt lat="49.74754" lon="2.31038">
        <ele>97.5</ele>
        <time>2023-03-01T14:33:51Z</time>
      </trkpt>
      <trkpt lat="49.74755" lon="2.31038">
        <ele>97.4</ele>
        <time>2023-03-01T14:33:52Z</time>
      </trkpt>
      <trkpt lat="49.74756" lon="2.31038">
        <ele>97.3</ele>
        <time>2023-03-01T14:33:53Z</time>
      </trkpt>
      <trkpt lat="49.74756" lon="2.31038">
        <ele>97.3</ele>
        <time>2023-03-01T14:33:55Z</time>
      </trkpt>
      <trkpt lat="49.74757" lon="2.31038">
        <ele>97.2</ele>
        <time>2023-03-01T14:33:56Z</time>
      </trkpt>
      <trkpt lat="49.74758" lon="2.31038">
        <ele>97.2</ele>
        <time>2023-03-01T14:33:57Z</time>
      </trkpt>
      <trkpt lat="49.7476" lon="2.31037">
        <ele>97.1</ele>
        <time>2023-03-01T14:33:58Z</time>
      </trkpt>
      <trkpt lat="49.7476" lon="2.31037">
        <ele>97.1</ele>
        <time>2023-03-01T14:33:59Z</time>
      </trkpt>
      <trkpt lat="49.74761" lon="2.31037">
        <ele>97</ele>
        <time>2023-03-01T14:34:00Z</time>
      </trkpt>
      <trkpt lat="49.74762" lon="2.31037">
        <ele>97</ele>
        <time>2023-03-01T14:34:01Z</time>
      </trkpt>
      <trkpt lat="49.74763" lon="2.31037">
        <ele>96.9</ele>
        <time>2023-03-01T14:34:02Z</time>
      </trkpt>
      <trkpt lat="49.74764" lon="2.31037">
        <ele>96.9</ele>
        <time>2023-03-01T14:34:03Z</time>
      </trkpt>
      <trkpt lat="49.74765" lon="2.31036">
        <ele>96.9</ele>
        <time>2023-03-01T14:34:05Z</time>
      </trkpt>
      <trkpt lat="49.74766" lon="2.31036">
        <ele>96.8</ele>
        <time>2023-03-01T14:34:06Z</time>
      </trkpt>
      <trkpt lat="49.74766" lon="2.31036">
        <ele>96.8</ele>
        <time>2023-03-01T14:34:07Z</time>
      </trkpt>
      <trkpt lat="49.74767" lon="2.31035">
        <ele>96.7</ele>
        <time>2023-03-01T14:34:08Z</time>
      </trkpt>
      <trkpt lat="49.74768" lon="2.31035">
        <ele>96.7</ele>
        <time>2023-03-01T14:34:09Z</time>
      </trkpt>
      <trkpt lat="49.74769" lon="2.31035">
        <ele>96.8</ele>
        <time>2023-03-01T14:34:10Z</time>
      </trkpt>
      <trkpt lat="49.74769" lon="2.31035">
        <ele>96.7</ele>
        <time>2023-03-01T14:34:11Z</time>
      </trkpt>
      <trkpt lat="49.74771" lon="2.31034">
        <ele>96.7</ele>
        <time>2023-03-01T14:34:12Z</time>
      </trkpt>
      <trkpt lat="49.74772" lon="2.31033">
        <ele>96.7</ele>
        <time>2023-03-01T14:34:14Z</time>
      </trkpt>
      <trkpt lat="49.74773" lon="2.31033">
        <ele>96.6</ele>
        <time>2023-03-01T14:34:15Z</time>
      </trkpt>
      <trkpt lat="49.74774" lon="2.31033">
        <ele>96.6</ele>
        <time>2023-03-01T14:34:16Z</time>
      </trkpt>
      <trkpt lat="49.74776" lon="2.31032">
        <ele>96.5</ele>
        <time>2023-03-01T14:34:17Z</time>
      </trkpt>
      <trkpt lat="49.74777" lon="2.31032">
        <ele>96.5</ele>
        <time>2023-03-01T14:34:18Z</time>
      </trkpt>
      <trkpt lat="49.74778" lon="2.31031">
        <ele>96.4</ele>
        <time>2023-03-01T14:34:19Z</time>
      </trkpt>
      <trkpt lat="49.74779" lon="2.3103">
        <ele>96.5</ele>
        <time>2023-03-01T14:34:20Z</time>
      </trkpt>
      <trkpt lat="49.74779" lon="2.31029">
        <ele>96.4</ele>
        <time>2023-03-01T14:34:22Z</time>
      </trkpt>
      <trkpt lat="49.74779" lon="2.31028">
        <ele>96.4</ele>
        <time>2023-03-01T14:34:24Z</time>
      </trkpt>
      <trkpt lat="49.74779" lon="2.31028">
        <ele>96.3</ele>
        <time>2023-03-01T14:34:25Z</time>
      </trkpt>
      <trkpt lat="49.74779" lon="2.31028">
        <ele>96.3</ele>
        <time>2023-03-01T14:34:27Z</time>
      </trkpt>
      <trkpt lat="49.7478" lon="2.31028">
        <ele>96.3</ele>
        <time>2023-03-01T14:34:28Z</time>
      </trkpt>
      <trkpt lat="49.7478" lon="2.31028">
        <ele>96.2</ele>
        <time>2023-03-01T14:34:29Z</time>
      </trkpt>
      <trkpt lat="49.7478" lon="2.31028">
        <ele>96.2</ele>
        <time>2023-03-01T14:34:30Z</time>
      </trkpt>
      <trkpt lat="49.7478" lon="2.31028">
        <ele>96.1</ele>
        <time>2023-03-01T14:34:33Z</time>
      </trkpt>
      <trkpt lat="49.74781" lon="2.31028">
        <ele>96.1</ele>
        <time>2023-03-01T14:34:35Z</time>
      </trkpt>
      <trkpt lat="49.74781" lon="2.31028">
        <ele>96</ele>
        <time>2023-03-01T14:34:36Z</time>
      </trkpt>
      <trkpt lat="49.74781" lon="2.31028">
        <ele>96</ele>
        <time>2023-03-01T14:34:37Z</time>
      </trkpt>
      <trkpt lat="49.74781" lon="2.31029">
        <ele>96</ele>
        <time>2023-03-01T14:34:38Z</time>
      </trkpt>
      <trkpt lat="49.74781" lon="2.31029">
        <ele>95.9</ele>
        <time>2023-03-01T14:34:39Z</time>
      </trkpt>
      <trkpt lat="49.74781" lon="2.31029">
        <ele>95.9</ele>
        <time>2023-03-01T14:34:40Z</time>
      </trkpt>
      <trkpt lat="49.74781" lon="2.31029">
        <ele>95.8</ele>
        <time>2023-03-01T14:34:41Z</time>
      </trkpt>
      <trkpt lat="49.74781" lon="2.31029">
        <ele>95.8</ele>
        <time>2023-03-01T14:34:42Z</time>
      </trkpt>
      <trkpt lat="49.74781" lon="2.31029">
        <ele>95.7</ele>
        <time>2023-03-01T14:34:43Z</time>
      </trkpt>
      <trkpt lat="49.74781" lon="2.31029">
        <ele>95.7</ele>
        <time>2023-03-01T14:34:44Z</time>
      </trkpt>
      <trkpt lat="49.74781" lon="2.31029">
        <ele>95.7</ele>
        <time>2023-03-01T14:34:45Z</time>
      </trkpt>
      <trkpt lat="49.74781" lon="2.31029">
        <ele>95.6</ele>
        <time>2023-03-01T14:34:46Z</time>
      </trkpt>
      <trkpt lat="49.74781" lon="2.31029">
        <ele>95.6</ele>
        <time>2023-03-01T14:34:47Z</time>
      </trkpt>
      <trkpt lat="49.74781" lon="2.31029">
        <ele>95.5</ele>
        <time>2023-03-01T14:34:48Z</time>
      </trkpt>
      <trkpt lat="49.74781" lon="2.31029">
        <ele>95.5</ele>
        <time>2023-03-01T14:34:49Z</time>
      </trkpt>
      <trkpt lat="49.74781" lon="2.31029">
        <ele>95.4</ele>
        <time>2023-03-01T14:34:50Z</time>
      </trkpt>
      <trkpt lat="49.74781" lon="2.31029">
        <ele>95.4</ele>
        <time>2023-03-01T14:34:51Z</time>
      </trkpt>
      <trkpt lat="49.74781" lon="2.31029">
        <ele>95.4</ele>
        <time>2023-03-01T14:34:52Z</time>
      </trkpt>
      <trkpt lat="49.74781" lon="2.31029">
        <ele>95.3</ele>
        <time>2023-03-01T14:34:53Z</time>
      </trkpt>
      <trkpt lat="49.74781" lon="2.31029">
        <ele>95.3</ele>
        <time>2023-03-01T14:34:54Z</time>
      </trkpt>
      <trkpt lat="49.74781" lon="2.31029">
        <ele>95.2</ele>
        <time>2023-03-01T14:34:55Z</time>
      </trkpt>
      <trkpt lat="49.74781" lon="2.31029">
        <ele>95.2</ele>
        <time>2023-03-01T14:34:56Z</time>
      </trkpt>
      <trkpt lat="49.74781" lon="2.31029">
        <ele>95.1</ele>
        <time>2023-03-01T14:34:57Z</time>
      </trkpt>
      <trkpt lat="49.74781" lon="2.31029">
        <ele>95.1</ele>
        <time>2023-03-01T14:34:58Z</time>
      </trkpt>
      <trkpt lat="49.74781" lon="2.31029">
        <ele>95.1</ele>
        <time>2023-03-01T14:34:59Z</time>
      </trkpt>
      <trkpt lat="49.74781" lon="2.31029">
        <ele>95</ele>
        <time>2023-03-01T14:35:00Z</time>
      </trkpt>
      <trkpt lat="49.74781" lon="2.31029">
        <ele>95</ele>
        <time>2023-03-01T14:35:01Z</time>
      </trkpt>
      <trkpt lat="49.74781" lon="2.31029">
        <ele>94.9</ele>
        <time>2023-03-01T14:35:03Z</time>
      </trkpt>
      <trkpt lat="49.74781" lon="2.31029">
        <ele>94.9</ele>
        <time>2023-03-01T14:35:05Z</time>
      </trkpt>
      <trkpt lat="49.74781" lon="2.31029">
        <ele>94.8</ele>
        <time>2023-03-01T14:35:06Z</time>
      </trkpt>
      <trkpt lat="49.74781" lon="2.31029">
        <ele>94.8</ele>
        <time>2023-03-01T14:35:07Z</time>
      </trkpt>
      <trkpt lat="49.74781" lon="2.31029">
        <ele>94.8</ele>
        <time>2023-03-01T14:35:09Z</time>
      </trkpt>
      <trkpt lat="49.74781" lon="2.31029">
        <ele>94.7</ele>
        <time>2023-03-01T14:35:10Z</time>
      </trkpt>
      <trkpt lat="49.74781" lon="2.31029">
        <ele>94.7</ele>
        <time>2023-03-01T14:35:11Z</time>
      </trkpt>
      <trkpt lat="49.74781" lon="2.31029">
        <ele>94.6</ele>
        <time>2023-03-01T14:35:13Z</time>
      </trkpt>
      <trkpt lat="49.74781" lon="2.31029">
        <ele>94.6</ele>
        <time>2023-03-01T14:35:14Z</time>
      </trkpt>
      <trkpt lat="49.74781" lon="2.31029">
        <ele>94.5</ele>
        <time>2023-03-01T14:35:15Z</time>
      </trkpt>
      <trkpt lat="49.74781" lon="2.31029">
        <ele>94.5</ele>
        <time>2023-03-01T14:35:16Z</time>
      </trkpt>
      <trkpt lat="49.74781" lon="2.31029">
        <ele>94.5</ele>
        <time>2023-03-01T14:35:17Z</time>
      </trkpt>
      <trkpt lat="49.74781" lon="2.31029">
        <ele>94.4</ele>
        <time>2023-03-01T14:35:18Z</time>
      </trkpt>
      <trkpt lat="49.74781" lon="2.31029">
        <ele>94.4</ele>
        <time>2023-03-01T14:35:19Z</time>
      </trkpt>
      <trkpt lat="49.74781" lon="2.31029">
        <ele>94.3</ele>
        <time>2023-03-01T14:35:20Z</time>
      </trkpt>
      <trkpt lat="49.74781" lon="2.31029">
        <ele>94.3</ele>
        <time>2023-03-01T14:35:21Z</time>
      </trkpt>
      <trkpt lat="49.74781" lon="2.31029">
        <ele>94.2</ele>
        <time>2023-03-01T14:35:22Z</time>
      </trkpt>
      <trkpt lat="49.74781" lon="2.31029">
        <ele>94.2</ele>
        <time>2023-03-01T14:35:24Z</time>
      </trkpt>
      <trkpt lat="49.74781" lon="2.31029">
        <ele>94.2</ele>
        <time>2023-03-01T14:35:25Z</time>
      </trkpt>
      <trkpt lat="49.74781" lon="2.31029">
        <ele>94.1</ele>
        <time>2023-03-01T14:35:26Z</time>
      </trkpt>
      <trkpt lat="49.74781" lon="2.31029">
        <ele>94.1</ele>
        <time>2023-03-01T14:35:27Z</time>
      </trkpt>
      <trkpt lat="49.74781" lon="2.31029">
        <ele>94</ele>
        <time>2023-03-01T14:35:28Z</time>
      </trkpt>
      <trkpt lat="49.74781" lon="2.31029">
        <ele>94</ele>
        <time>2023-03-01T14:35:29Z</time>
      </trkpt>
      <trkpt lat="49.74781" lon="2.31029">
        <ele>93.9</ele>
        <time>2023-03-01T14:35:30Z</time>
      </trkpt>
      <trkpt lat="49.74781" lon="2.31029">
        <ele>93.9</ele>
        <time>2023-03-01T14:35:31Z</time>
      </trkpt>
      <trkpt lat="49.74781" lon="2.31029">
        <ele>93.9</ele>
        <time>2023-03-01T14:35:32Z</time>
      </trkpt>
      <trkpt lat="49.74781" lon="2.31029">
        <ele>93.8</ele>
        <time>2023-03-01T14:35:33Z</time>
      </trkpt>
      <trkpt lat="49.74781" lon="2.31029">
        <ele>93.8</ele>
        <time>2023-03-01T14:35:34Z</time>
      </trkpt>
      <trkpt lat="49.74781" lon="2.31029">
        <ele>93.7</ele>
        <time>2023-03-01T14:35:35Z</time>
      </trkpt>
      <trkpt lat="49.74781" lon="2.31029">
        <ele>93.7</ele>
        <time>2023-03-01T14:35:36Z</time>
      </trkpt>
      <trkpt lat="49.74781" lon="2.31029">
        <ele>93.6</ele>
        <time>2023-03-01T14:35:37Z</time>
      </trkpt>
      <trkpt lat="49.74781" lon="2.31029">
        <ele>93.6</ele>
        <time>2023-03-01T14:35:38Z</time>
      </trkpt>
      <trkpt lat="49.74781" lon="2.31029">
        <ele>93.6</ele>
        <time>2023-03-01T14:35:39Z</time>
      </trkpt>
      <trkpt lat="49.74781" lon="2.31029">
        <ele>93.5</ele>
        <time>2023-03-01T14:35:40Z</time>
      </trkpt>
      <trkpt lat="49.74781" lon="2.31029">
        <ele>93.5</ele>
        <time>2023-03-01T14:35:41Z</time>
      </trkpt>
      <trkpt lat="49.74781" lon="2.31029">
        <ele>93.4</ele>
        <time>2023-03-01T14:35:42Z</time>
      </trkpt>
      <trkpt lat="49.74781" lon="2.31029">
        <ele>93.4</ele>
        <time>2023-03-01T14:35:43Z</time>
      </trkpt>
      <trkpt lat="49.74781" lon="2.31029">
        <ele>93.3</ele>
        <time>2023-03-01T14:35:45Z</time>
      </trkpt>
      <trkpt lat="49.74781" lon="2.31029">
        <ele>93.3</ele>
        <time>2023-03-01T14:35:46Z</time>
      </trkpt>
      <trkpt lat="49.74781" lon="2.31029">
        <ele>93.3</ele>
        <time>2023-03-01T14:35:47Z</time>
      </trkpt>
      <trkpt lat="49.74781" lon="2.31029">
        <ele>93.2</ele>
        <time>2023-03-01T14:35:48Z</time>
      </trkpt>
      <trkpt lat="49.74781" lon="2.31029">
        <ele>93.2</ele>
        <time>2023-03-01T14:35:49Z</time>
      </trkpt>
      <trkpt lat="49.74781" lon="2.31029">
        <ele>93.1</ele>
        <time>2023-03-01T14:35:50Z</time>
      </trkpt>
      <trkpt lat="49.74781" lon="2.31029">
        <ele>93.1</ele>
        <time>2023-03-01T14:35:51Z</time>
      </trkpt>
      <trkpt lat="49.74781" lon="2.31029">
        <ele>93</ele>
        <time>2023-03-01T14:35:53Z</time>
      </trkpt>
      <trkpt lat="49.74781" lon="2.31029">
        <ele>93</ele>
        <time>2023-03-01T14:35:54Z</time>
      </trkpt>
      <trkpt lat="49.74781" lon="2.31029">
        <ele>93</ele>
        <time>2023-03-01T14:35:56Z</time>
      </trkpt>
      <trkpt lat="49.74781" lon="2.31029">
        <ele>92.9</ele>
        <time>2023-03-01T14:35:57Z</time>
      </trkpt>
      <trkpt lat="49.74781" lon="2.31029">
        <ele>92.9</ele>
        <time>2023-03-01T14:35:58Z</time>
      </trkpt>
      <trkpt lat="49.74781" lon="2.31029">
        <ele>92.8</ele>
        <time>2023-03-01T14:35:59Z</time>
      </trkpt>
      <trkpt lat="49.74781" lon="2.31029">
        <ele>92.8</ele>
        <time>2023-03-01T14:36:00Z</time>
      </trkpt>
      <trkpt lat="49.74781" lon="2.31029">
        <ele>92.7</ele>
        <time>2023-03-01T14:36:01Z</time>
      </trkpt>
      <trkpt lat="49.74781" lon="2.31029">
        <ele>92.7</ele>
        <time>2023-03-01T14:36:02Z</time>
      </trkpt>
      <trkpt lat="49.74781" lon="2.31029">
        <ele>92.7</ele>
        <time>2023-03-01T14:36:03Z</time>
      </trkpt>
      <trkpt lat="49.74781" lon="2.31029">
        <ele>92.6</ele>
        <time>2023-03-01T14:36:04Z</time>
      </trkpt>
      <trkpt lat="49.74781" lon="2.31029">
        <ele>92.6</ele>
        <time>2023-03-01T14:36:05Z</time>
      </trkpt>
      <trkpt lat="49.74781" lon="2.31029">
        <ele>92.5</ele>
        <time>2023-03-01T14:36:07Z</time>
      </trkpt>
      <trkpt lat="49.74781" lon="2.31029">
        <ele>92.5</ele>
        <time>2023-03-01T14:36:08Z</time>
      </trkpt>
      <trkpt lat="49.74781" lon="2.31029">
        <ele>92.4</ele>
        <time>2023-03-01T14:36:09Z</time>
      </trkpt>
      <trkpt lat="49.74781" lon="2.31029">
        <ele>92.4</ele>
        <time>2023-03-01T14:36:10Z</time>
      </trkpt>
      <trkpt lat="49.74781" lon="2.31029">
        <ele>92.4</ele>
        <time>2023-03-01T14:36:11Z</time>
      </trkpt>
      <trkpt lat="49.74781" lon="2.31029">
        <ele>92.3</ele>
        <time>2023-03-01T14:36:12Z</time>
      </trkpt>
      <trkpt lat="49.74781" lon="2.31029">
        <ele>92.3</ele>
        <time>2023-03-01T14:36:13Z</time>
      </trkpt>
      <trkpt lat="49.74781" lon="2.31029">
        <ele>92.2</ele>
        <time>2023-03-01T14:36:14Z</time>
      </trkpt>
      <trkpt lat="49.74781" lon="2.31029">
        <ele>92.2</ele>
        <time>2023-03-01T14:36:16Z</time>
      </trkpt>
      <trkpt lat="49.74781" lon="2.31029">
        <ele>92.1</ele>
        <time>2023-03-01T14:36:17Z</time>
      </trkpt>
      <trkpt lat="49.74781" lon="2.31029">
        <ele>92.1</ele>
        <time>2023-03-01T14:36:18Z</time>
      </trkpt>
      <trkpt lat="49.74781" lon="2.31029">
        <ele>92.1</ele>
        <time>2023-03-01T14:36:19Z</time>
      </trkpt>
      <trkpt lat="49.74781" lon="2.31029">
        <ele>92</ele>
        <time>2023-03-01T14:36:20Z</time>
      </trkpt>
      <trkpt lat="49.74781" lon="2.31029">
        <ele>92</ele>
        <time>2023-03-01T14:36:21Z</time>
      </trkpt>
      <trkpt lat="49.74782" lon="2.31028">
        <ele>91.9</ele>
        <time>2023-03-01T14:36:23Z</time>
      </trkpt>
      <trkpt lat="49.74783" lon="2.31028">
        <ele>91.9</ele>
        <time>2023-03-01T14:36:24Z</time>
      </trkpt>
      <trkpt lat="49.74784" lon="2.31028">
        <ele>91.8</ele>
        <time>2023-03-01T14:36:25Z</time>
      </trkpt>
      <trkpt lat="49.74785" lon="2.31028">
        <ele>91.7</ele>
        <time>2023-03-01T14:36:27Z</time>
      </trkpt>
      <trkpt lat="49.74786" lon="2.31029">
        <ele>91.7</ele>
        <time>2023-03-01T14:36:28Z</time>
      </trkpt>
      <trkpt lat="49.74787" lon="2.31029">
        <ele>91.7</ele>
        <time>2023-03-01T14:36:29Z</time>
      </trkpt>
      <trkpt lat="49.74788" lon="2.3103">
        <ele>91.7</ele>
        <time>2023-03-01T14:36:30Z</time>
      </trkpt>
      <trkpt lat="49.74789" lon="2.31032">
        <ele>91.6</ele>
        <time>2023-03-01T14:36:31Z</time>
      </trkpt>
      <trkpt lat="49.74789" lon="2.31033">
        <ele>91.6</ele>
        <time>2023-03-01T14:36:32Z</time>
      </trkpt>
      <trkpt lat="49.7479" lon="2.31034">
        <ele>91.6</ele>
        <time>2023-03-01T14:36:33Z</time>
      </trkpt>
      <trkpt lat="49.7479" lon="2.31035">
        <ele>91.6</ele>
        <time>2023-03-01T14:36:34Z</time>
      </trkpt>
      <trkpt lat="49.7479" lon="2.31036">
        <ele>91.6</ele>
        <time>2023-03-01T14:36:35Z</time>
      </trkpt>
      <trkpt lat="49.7479" lon="2.31037">
        <ele>91.6</ele>
        <time>2023-03-01T14:36:36Z</time>
      </trkpt>
      <trkpt lat="49.74791" lon="2.31039">
        <ele>91.6</ele>
        <time>2023-03-01T14:36:37Z</time>
      </trkpt>
      <trkpt lat="49.74791" lon="2.31041">
        <ele>91.5</ele>
        <time>2023-03-01T14:36:38Z</time>
      </trkpt>
      <trkpt lat="49.74792" lon="2.31043">
        <ele>91.5</ele>
        <time>2023-03-01T14:36:39Z</time>
      </trkpt>
      <trkpt lat="49.74793" lon="2.31046">
        <ele>91.5</ele>
        <time>2023-03-01T14:36:40Z</time>
      </trkpt>
      <trkpt lat="49.74793" lon="2.31048">
        <ele>91.5</ele>
        <time>2023-03-01T14:36:41Z</time>
      </trkpt>
      <trkpt lat="49.74794" lon="2.3105">
        <ele>91.5</ele>
        <time>2023-03-01T14:36:42Z</time>
      </trkpt>
      <trkpt lat="49.74795" lon="2.31051">
        <ele>91.4</ele>
        <time>2023-03-01T14:36:44Z</time>
      </trkpt>
      <trkpt lat="49.74795" lon="2.31053">
        <ele>91.4</ele>
        <time>2023-03-01T14:36:46Z</time>
      </trkpt>
      <trkpt lat="49.74796" lon="2.31055">
        <ele>91.4</ele>
        <time>2023-03-01T14:36:47Z</time>
      </trkpt>
      <trkpt lat="49.74797" lon="2.31057">
        <ele>91.4</ele>
        <time>2023-03-01T14:36:48Z</time>
      </trkpt>
      <trkpt lat="49.74797" lon="2.31059">
        <ele>91.4</ele>
        <time>2023-03-01T14:36:49Z</time>
      </trkpt>
      <trkpt lat="49.74797" lon="2.31062">
        <ele>91.4</ele>
        <time>2023-03-01T14:36:51Z</time>
      </trkpt>
      <trkpt lat="49.74797" lon="2.31063">
        <ele>91.4</ele>
        <time>2023-03-01T14:36:52Z</time>
      </trkpt>
      <trkpt lat="49.74797" lon="2.31064">
        <ele>91.3</ele>
        <time>2023-03-01T14:36:53Z</time>
      </trkpt>
      <trkpt lat="49.74798" lon="2.31067">
        <ele>91.3</ele>
        <time>2023-03-01T14:36:54Z</time>
      </trkpt>
      <trkpt lat="49.74798" lon="2.31069">
        <ele>91.3</ele>
        <time>2023-03-01T14:36:55Z</time>
      </trkpt>
      <trkpt lat="49.74799" lon="2.31072">
        <ele>91.3</ele>
        <time>2023-03-01T14:36:57Z</time>
      </trkpt>
      <trkpt lat="49.74799" lon="2.31074">
        <ele>91.3</ele>
        <time>2023-03-01T14:36:58Z</time>
      </trkpt>
      <trkpt lat="49.74799" lon="2.31077">
        <ele>91.3</ele>
        <time>2023-03-01T14:36:59Z</time>
      </trkpt>
      <trkpt lat="49.74799" lon="2.31079">
        <ele>91.3</ele>
        <time>2023-03-01T14:37:00Z</time>
      </trkpt>
      <trkpt lat="49.74799" lon="2.31082">
        <ele>91.3</ele>
        <time>2023-03-01T14:37:01Z</time>
      </trkpt>
      <trkpt lat="49.748" lon="2.31083">
        <ele>91.3</ele>
        <time>2023-03-01T14:37:02Z</time>
      </trkpt>
      <trkpt lat="49.748" lon="2.31084">
        <ele>91.3</ele>
        <time>2023-03-01T14:37:03Z</time>
      </trkpt>
      <trkpt lat="49.748" lon="2.31087">
        <ele>91.3</ele>
        <time>2023-03-01T14:37:05Z</time>
      </trkpt>
      <trkpt lat="49.74799" lon="2.31089">
        <ele>91.3</ele>
        <time>2023-03-01T14:37:06Z</time>
      </trkpt>
      <trkpt lat="49.748" lon="2.31093">
        <ele>91.3</ele>
        <time>2023-03-01T14:37:07Z</time>
      </trkpt>
      <trkpt lat="49.748" lon="2.31094">
        <ele>91.3</ele>
        <time>2023-03-01T14:37:08Z</time>
      </trkpt>
      <trkpt lat="49.748" lon="2.31095">
        <ele>91.3</ele>
        <time>2023-03-01T14:37:09Z</time>
      </trkpt>
      <trkpt lat="49.748" lon="2.31097">
        <ele>91.3</ele>
        <time>2023-03-01T14:37:10Z</time>
      </trkpt>
      <trkpt lat="49.748" lon="2.31099">
        <ele>91.3</ele>
        <time>2023-03-01T14:37:12Z</time>
      </trkpt>
      <trkpt lat="49.74799" lon="2.31101">
        <ele>91.3</ele>
        <time>2023-03-01T14:37:13Z</time>
      </trkpt>
      <trkpt lat="49.74799" lon="2.31103">
        <ele>91.3</ele>
        <time>2023-03-01T14:37:14Z</time>
      </trkpt>
      <trkpt lat="49.74799" lon="2.31104">
        <ele>91.3</ele>
        <time>2023-03-01T14:37:15Z</time>
      </trkpt>
      <trkpt lat="49.74799" lon="2.31105">
        <ele>91.3</ele>
        <time>2023-03-01T14:37:16Z</time>
      </trkpt>
      <trkpt lat="49.74799" lon="2.31106">
        <ele>91.3</ele>
        <time>2023-03-01T14:37:17Z</time>
      </trkpt>
      <trkpt lat="49.74799" lon="2.31108">
        <ele>91.3</ele>
        <time>2023-03-01T14:37:18Z</time>
      </trkpt>
      <trkpt lat="49.74799" lon="2.3111">
        <ele>91.3</ele>
        <time>2023-03-01T14:37:20Z</time>
      </trkpt>
      <trkpt lat="49.74798" lon="2.31111">
        <ele>91.3</ele>
        <time>2023-03-01T14:37:21Z</time>
      </trkpt>
      <trkpt lat="49.74798" lon="2.31113">
        <ele>91.3</ele>
        <time>2023-03-01T14:37:22Z</time>
      </trkpt>
      <trkpt lat="49.74797" lon="2.31114">
        <ele>91.4</ele>
        <time>2023-03-01T14:37:23Z</time>
      </trkpt>
      <trkpt lat="49.74796" lon="2.31115">
        <ele>91.4</ele>
        <time>2023-03-01T14:37:25Z</time>
      </trkpt>
      <trkpt lat="49.74796" lon="2.31116">
        <ele>91.4</ele>
        <time>2023-03-01T14:37:26Z</time>
      </trkpt>
      <trkpt lat="49.74796" lon="2.31118">
        <ele>91.4</ele>
        <time>2023-03-01T14:37:27Z</time>
      </trkpt>
      <trkpt lat="49.74795" lon="2.31119">
        <ele>91.4</ele>
        <time>2023-03-01T14:37:28Z</time>
      </trkpt>
      <trkpt lat="49.74795" lon="2.31121">
        <ele>91.4</ele>
        <time>2023-03-01T14:37:29Z</time>
      </trkpt>
      <trkpt lat="49.74795" lon="2.31123">
        <ele>91.4</ele>
        <time>2023-03-01T14:37:30Z</time>
      </trkpt>
      <trkpt lat="49.74795" lon="2.31124">
        <ele>91.4</ele>
        <time>2023-03-01T14:37:31Z</time>
      </trkpt>
      <trkpt lat="49.74795" lon="2.31126">
        <ele>91.4</ele>
        <time>2023-03-01T14:37:32Z</time>
      </trkpt>
      <trkpt lat="49.74795" lon="2.31127">
        <ele>91.4</ele>
        <time>2023-03-01T14:37:33Z</time>
      </trkpt>
      <trkpt lat="49.74795" lon="2.31129">
        <ele>91.4</ele>
        <time>2023-03-01T14:37:35Z</time>
      </trkpt>
      <trkpt lat="49.74796" lon="2.31131">
        <ele>91.4</ele>
        <time>2023-03-01T14:37:36Z</time>
      </trkpt>
      <trkpt lat="49.74796" lon="2.31133">
        <ele>91.4</ele>
        <time>2023-03-01T14:37:37Z</time>
      </trkpt>
      <trkpt lat="49.74796" lon="2.31135">
        <ele>91.4</ele>
        <time>2023-03-01T14:37:38Z</time>
      </trkpt>
      <trkpt lat="49.74797" lon="2.31137">
        <ele>91.4</ele>
        <time>2023-03-01T14:37:39Z</time>
      </trkpt>
      <trkpt lat="49.74797" lon="2.31138">
        <ele>91.5</ele>
        <time>2023-03-01T14:37:40Z</time>
      </trkpt>
      <trkpt lat="49.74798" lon="2.31141">
        <ele>91.5</ele>
        <time>2023-03-01T14:37:42Z</time>
      </trkpt>
      <trkpt lat="49.74799" lon="2.31143">
        <ele>91.5</ele>
        <time>2023-03-01T14:37:44Z</time>
      </trkpt>
      <trkpt lat="49.748" lon="2.31146">
        <ele>91.5</ele>
        <time>2023-03-01T14:37:45Z</time>
      </trkpt>
      <trkpt lat="49.74801" lon="2.31149">
        <ele>91.5</ele>
        <time>2023-03-01T14:37:46Z</time>
      </trkpt>
      <trkpt lat="49.74801" lon="2.3115">
        <ele>91.5</ele>
        <time>2023-03-01T14:37:47Z</time>
      </trkpt>
      <trkpt lat="49.74801" lon="2.31151">
        <ele>91.6</ele>
        <time>2023-03-01T14:37:48Z</time>
      </trkpt>
      <trkpt lat="49.74802" lon="2.31154">
        <ele>91.6</ele>
        <time>2023-03-01T14:37:49Z</time>
      </trkpt>
      <trkpt lat="49.74802" lon="2.31155">
        <ele>91.6</ele>
        <time>2023-03-01T14:37:50Z</time>
      </trkpt>
      <trkpt lat="49.74803" lon="2.31157">
        <ele>91.6</ele>
        <time>2023-03-01T14:37:52Z</time>
      </trkpt>
      <trkpt lat="49.74803" lon="2.31158">
        <ele>91.6</ele>
        <time>2023-03-01T14:37:53Z</time>
      </trkpt>
      <trkpt lat="49.74804" lon="2.31161">
        <ele>91.6</ele>
        <time>2023-03-01T14:37:54Z</time>
      </trkpt>
      <trkpt lat="49.74804" lon="2.31162">
        <ele>91.7</ele>
        <time>2023-03-01T14:37:55Z</time>
      </trkpt>
      <trkpt lat="49.74804" lon="2.31164">
        <ele>91.7</ele>
        <time>2023-03-01T14:37:56Z</time>
      </trkpt>
      <trkpt lat="49.74805" lon="2.31166">
        <ele>91.7</ele>
        <time>2023-03-01T14:37:57Z</time>
      </trkpt>
      <trkpt lat="49.74805" lon="2.31168">
        <ele>91.7</ele>
        <time>2023-03-01T14:37:58Z</time>
      </trkpt>
      <trkpt lat="49.74805" lon="2.3117">
        <ele>91.7</ele>
        <time>2023-03-01T14:38:00Z</time>
      </trkpt>
      <trkpt lat="49.74805" lon="2.31171">
        <ele>91.7</ele>
        <time>2023-03-01T14:38:01Z</time>
      </trkpt>
      <trkpt lat="49.74806" lon="2.31174">
        <ele>91.8</ele>
        <time>2023-03-01T14:38:02Z</time>
      </trkpt>
      <trkpt lat="49.74806" lon="2.31175">
        <ele>91.8</ele>
        <time>2023-03-01T14:38:03Z</time>
      </trkpt>
      <trkpt lat="49.74806" lon="2.31177">
        <ele>91.8</ele>
        <time>2023-03-01T14:38:04Z</time>
      </trkpt>
      <trkpt lat="49.74807" lon="2.31179">
        <ele>91.8</ele>
        <time>2023-03-01T14:38:05Z</time>
      </trkpt>
      <trkpt lat="49.74807" lon="2.3118">
        <ele>91.8</ele>
        <time>2023-03-01T14:38:06Z</time>
      </trkpt>
      <trkpt lat="49.74807" lon="2.31182">
        <ele>91.8</ele>
        <time>2023-03-01T14:38:07Z</time>
      </trkpt>
      <trkpt lat="49.74808" lon="2.31184">
        <ele>91.9</ele>
        <time>2023-03-01T14:38:09Z</time>
      </trkpt>
      <trkpt lat="49.74808" lon="2.31186">
        <ele>91.9</ele>
        <time>2023-03-01T14:38:10Z</time>
      </trkpt>
      <trkpt lat="49.74808" lon="2.31188">
        <ele>91.9</ele>
        <time>2023-03-01T14:38:11Z</time>
      </trkpt>
      <trkpt lat="49.74808" lon="2.31189">
        <ele>91.9</ele>
        <time>2023-03-01T14:38:12Z</time>
      </trkpt>
      <trkpt lat="49.74808" lon="2.31192">
        <ele>91.9</ele>
        <time>2023-03-01T14:38:13Z</time>
      </trkpt>
      <trkpt lat="49.74808" lon="2.31193">
        <ele>91.9</ele>
        <time>2023-03-01T14:38:14Z</time>
      </trkpt>
      <trkpt lat="49.74809" lon="2.31196">
        <ele>92</ele>
        <time>2023-03-01T14:38:15Z</time>
      </trkpt>
      <trkpt lat="49.74809" lon="2.312">
        <ele>92</ele>
        <time>2023-03-01T14:38:16Z</time>
      </trkpt>
      <trkpt lat="49.74809" lon="2.31202">
        <ele>92</ele>
        <time>2023-03-01T14:38:18Z</time>
      </trkpt>
      <trkpt lat="49.74809" lon="2.31203">
        <ele>92</ele>
        <time>2023-03-01T14:38:20Z</time>
      </trkpt>
      <trkpt lat="49.74809" lon="2.31205">
        <ele>92</ele>
        <time>2023-03-01T14:38:21Z</time>
      </trkpt>
      <trkpt lat="49.7481" lon="2.31207">
        <ele>92</ele>
        <time>2023-03-01T14:38:22Z</time>
      </trkpt>
      <trkpt lat="49.7481" lon="2.31211">
        <ele>92.1</ele>
        <time>2023-03-01T14:38:23Z</time>
      </trkpt>
      <trkpt lat="49.7481" lon="2.31212">
        <ele>92.1</ele>
        <time>2023-03-01T14:38:24Z</time>
      </trkpt>
      <trkpt lat="49.7481" lon="2.31213">
        <ele>92.1</ele>
        <time>2023-03-01T14:38:25Z</time>
      </trkpt>
      <trkpt lat="49.7481" lon="2.31215">
        <ele>92.1</ele>
        <time>2023-03-01T14:38:26Z</time>
      </trkpt>
      <trkpt lat="49.7481" lon="2.31217">
        <ele>92.1</ele>
        <time>2023-03-01T14:38:27Z</time>
      </trkpt>
      <trkpt lat="49.7481" lon="2.31219">
        <ele>92.1</ele>
        <time>2023-03-01T14:38:29Z</time>
      </trkpt>
      <trkpt lat="49.7481" lon="2.31221">
        <ele>92.1</ele>
        <time>2023-03-01T14:38:30Z</time>
      </trkpt>
      <trkpt lat="49.7481" lon="2.31223">
        <ele>92.2</ele>
        <time>2023-03-01T14:38:31Z</time>
      </trkpt>
      <trkpt lat="49.74811" lon="2.31226">
        <ele>92.2</ele>
        <time>2023-03-01T14:38:32Z</time>
      </trkpt>
      <trkpt lat="49.74811" lon="2.31228">
        <ele>92.2</ele>
        <time>2023-03-01T14:38:33Z</time>
      </trkpt>
      <trkpt lat="49.74811" lon="2.31229">
        <ele>92.2</ele>
        <time>2023-03-01T14:38:34Z</time>
      </trkpt>
      <trkpt lat="49.74811" lon="2.31232">
        <ele>92.2</ele>
        <time>2023-03-01T14:38:35Z</time>
      </trkpt>
      <trkpt lat="49.74811" lon="2.31233">
        <ele>92.3</ele>
        <time>2023-03-01T14:38:36Z</time>
      </trkpt>
      <trkpt lat="49.74812" lon="2.31236">
        <ele>92.3</ele>
        <time>2023-03-01T14:38:38Z</time>
      </trkpt>
      <trkpt lat="49.74812" lon="2.31238">
        <ele>92.3</ele>
        <time>2023-03-01T14:38:39Z</time>
      </trkpt>
      <trkpt lat="49.74812" lon="2.31239">
        <ele>92.3</ele>
        <time>2023-03-01T14:38:40Z</time>
      </trkpt>
      <trkpt lat="49.74812" lon="2.31242">
        <ele>92.3</ele>
        <time>2023-03-01T14:38:41Z</time>
      </trkpt>
      <trkpt lat="49.74812" lon="2.31244">
        <ele>92.3</ele>
        <time>2023-03-01T14:38:42Z</time>
      </trkpt>
      <trkpt lat="49.74813" lon="2.31245">
        <ele>92.4</ele>
        <time>2023-03-01T14:38:43Z</time>
      </trkpt>
      <trkpt lat="49.74813" lon="2.31248">
        <ele>92.4</ele>
        <time>2023-03-01T14:38:44Z</time>
      </trkpt>
      <trkpt lat="49.74813" lon="2.31249">
        <ele>92.4</ele>
        <time>2023-03-01T14:38:46Z</time>
      </trkpt>
      <trkpt lat="49.74813" lon="2.31251">
        <ele>92.4</ele>
        <time>2023-03-01T14:38:47Z</time>
      </trkpt>
      <trkpt lat="49.74813" lon="2.31253">
        <ele>92.4</ele>
        <time>2023-03-01T14:38:48Z</time>
      </trkpt>
      <trkpt lat="49.74813" lon="2.31255">
        <ele>92.5</ele>
        <time>2023-03-01T14:38:49Z</time>
      </trkpt>
      <trkpt lat="49.74813" lon="2.31258">
        <ele>92.5</ele>
        <time>2023-03-01T14:38:50Z</time>
      </trkpt>
      <trkpt lat="49.74813" lon="2.31259">
        <ele>92.5</ele>
        <time>2023-03-01T14:38:51Z</time>
      </trkpt>
      <trkpt lat="49.74813" lon="2.31262">
        <ele>92.5</ele>
        <time>2023-03-01T14:38:53Z</time>
      </trkpt>
      <trkpt lat="49.74813" lon="2.31264">
        <ele>92.5</ele>
        <time>2023-03-01T14:38:54Z</time>
      </trkpt>
      <trkpt lat="49.74813" lon="2.31265">
        <ele>92.5</ele>
        <time>2023-03-01T14:38:55Z</time>
      </trkpt>
      <trkpt lat="49.74813" lon="2.31267">
        <ele>92.5</ele>
        <time>2023-03-01T14:38:56Z</time>
      </trkpt>
      <trkpt lat="49.74813" lon="2.31269">
        <ele>92.5</ele>
        <time>2023-03-01T14:38:57Z</time>
      </trkpt>
      <trkpt lat="49.74813" lon="2.31271">
        <ele>92.6</ele>
        <time>2023-03-01T14:38:58Z</time>
      </trkpt>
      <trkpt lat="49.74814" lon="2.31273">
        <ele>92.6</ele>
        <time>2023-03-01T14:38:59Z</time>
      </trkpt>
      <trkpt lat="49.74814" lon="2.31275">
        <ele>92.6</ele>
        <time>2023-03-01T14:39:01Z</time>
      </trkpt>
      <trkpt lat="49.74814" lon="2.31276">
        <ele>92.6</ele>
        <time>2023-03-01T14:39:02Z</time>
      </trkpt>
      <trkpt lat="49.74813" lon="2.31278">
        <ele>92.6</ele>
        <time>2023-03-01T14:39:03Z</time>
      </trkpt>
      <trkpt lat="49.74813" lon="2.3128">
        <ele>92.6</ele>
        <time>2023-03-01T14:39:04Z</time>
      </trkpt>
      <trkpt lat="49.74813" lon="2.31282">
        <ele>92.6</ele>
        <time>2023-03-01T14:39:05Z</time>
      </trkpt>
      <trkpt lat="49.74813" lon="2.31283">
        <ele>92.6</ele>
        <time>2023-03-01T14:39:06Z</time>
      </trkpt>
      <trkpt lat="49.74813" lon="2.31284">
        <ele>92.6</ele>
        <time>2023-03-01T14:39:07Z</time>
      </trkpt>
      <trkpt lat="49.74812" lon="2.31286">
        <ele>92.6</ele>
        <time>2023-03-01T14:39:08Z</time>
      </trkpt>
      <trkpt lat="49.74812" lon="2.31289">
        <ele>92.7</ele>
        <time>2023-03-01T14:39:09Z</time>
      </trkpt>
      <trkpt lat="49.74812" lon="2.3129">
        <ele>92.7</ele>
        <time>2023-03-01T14:39:11Z</time>
      </trkpt>
      <trkpt lat="49.74812" lon="2.31291">
        <ele>92.7</ele>
        <time>2023-03-01T14:39:12Z</time>
      </trkpt>
      <trkpt lat="49.74812" lon="2.31295">
        <ele>92.7</ele>
        <time>2023-03-01T14:39:13Z</time>
      </trkpt>
      <trkpt lat="49.74811" lon="2.31296">
        <ele>92.7</ele>
        <time>2023-03-01T14:39:14Z</time>
      </trkpt>
      <trkpt lat="49.74811" lon="2.31297">
        <ele>92.7</ele>
        <time>2023-03-01T14:39:15Z</time>
      </trkpt>
      <trkpt lat="49.74811" lon="2.313">
        <ele>92.7</ele>
        <time>2023-03-01T14:39:16Z</time>
      </trkpt>
      <trkpt lat="49.74811" lon="2.31302">
        <ele>92.7</ele>
        <time>2023-03-01T14:39:17Z</time>
      </trkpt>
      <trkpt lat="49.74811" lon="2.31303">
        <ele>92.7</ele>
        <time>2023-03-01T14:39:19Z</time>
      </trkpt>
      <trkpt lat="49.74811" lon="2.31305">
        <ele>92.7</ele>
        <time>2023-03-01T14:39:20Z</time>
      </trkpt>
      <trkpt lat="49.74811" lon="2.31307">
        <ele>92.7</ele>
        <time>2023-03-01T14:39:21Z</time>
      </trkpt>
      <trkpt lat="49.74811" lon="2.31308">
        <ele>92.8</ele>
        <time>2023-03-01T14:39:22Z</time>
      </trkpt>
      <trkpt lat="49.74811" lon="2.3131">
        <ele>92.8</ele>
        <time>2023-03-01T14:39:23Z</time>
      </trkpt>
      <trkpt lat="49.74811" lon="2.31312">
        <ele>92.8</ele>
        <time>2023-03-01T14:39:24Z</time>
      </trkpt>
      <trkpt lat="49.74811" lon="2.31314">
        <ele>92.8</ele>
        <time>2023-03-01T14:39:26Z</time>
      </trkpt>
      <trkpt lat="49.74811" lon="2.31315">
        <ele>92.8</ele>
        <time>2023-03-01T14:39:27Z</time>
      </trkpt>
      <trkpt lat="49.74811" lon="2.31317">
        <ele>92.8</ele>
        <time>2023-03-01T14:39:28Z</time>
      </trkpt>
      <trkpt lat="49.74811" lon="2.31319">
        <ele>92.8</ele>
        <time>2023-03-01T14:39:29Z</time>
      </trkpt>
      <trkpt lat="49.74811" lon="2.31321">
        <ele>92.8</ele>
        <time>2023-03-01T14:39:30Z</time>
      </trkpt>
      <trkpt lat="49.74811" lon="2.31322">
        <ele>92.8</ele>
        <time>2023-03-01T14:39:31Z</time>
      </trkpt>
      <trkpt lat="49.7481" lon="2.31324">
        <ele>92.8</ele>
        <time>2023-03-01T14:39:32Z</time>
      </trkpt>
      <trkpt lat="49.7481" lon="2.31326">
        <ele>92.8</ele>
        <time>2023-03-01T14:39:34Z</time>
      </trkpt>
      <trkpt lat="49.7481" lon="2.31328">
        <ele>92.8</ele>
        <time>2023-03-01T14:39:35Z</time>
      </trkpt>
      <trkpt lat="49.7481" lon="2.31329">
        <ele>92.8</ele>
        <time>2023-03-01T14:39:36Z</time>
      </trkpt>
      <trkpt lat="49.7481" lon="2.31331">
        <ele>92.8</ele>
        <time>2023-03-01T14:39:37Z</time>
      </trkpt>
      <trkpt lat="49.74809" lon="2.31333">
        <ele>92.8</ele>
        <time>2023-03-01T14:39:38Z</time>
      </trkpt>
      <trkpt lat="49.74809" lon="2.31334">
        <ele>92.8</ele>
        <time>2023-03-01T14:39:40Z</time>
      </trkpt>
      <trkpt lat="49.74809" lon="2.31336">
        <ele>92.8</ele>
        <time>2023-03-01T14:39:41Z</time>
      </trkpt>
      <trkpt lat="49.74808" lon="2.31338">
        <ele>92.8</ele>
        <time>2023-03-01T14:39:42Z</time>
      </trkpt>
      <trkpt lat="49.74808" lon="2.31339">
        <ele>92.8</ele>
        <time>2023-03-01T14:39:43Z</time>
      </trkpt>
      <trkpt lat="49.74808" lon="2.3134">
        <ele>92.8</ele>
        <time>2023-03-01T14:39:44Z</time>
      </trkpt>
      <trkpt lat="49.74808" lon="2.31342">
        <ele>92.8</ele>
        <time>2023-03-01T14:39:45Z</time>
      </trkpt>
      <trkpt lat="49.74807" lon="2.31343">
        <ele>92.8</ele>
        <time>2023-03-01T14:39:46Z</time>
      </trkpt>
      <trkpt lat="49.74807" lon="2.31345">
        <ele>92.8</ele>
        <time>2023-03-01T14:39:47Z</time>
      </trkpt>
      <trkpt lat="49.74807" lon="2.31346">
        <ele>92.8</ele>
        <time>2023-03-01T14:39:48Z</time>
      </trkpt>
      <trkpt lat="49.74807" lon="2.31348">
        <ele>92.8</ele>
        <time>2023-03-01T14:39:50Z</time>
      </trkpt>
      <trkpt lat="49.74806" lon="2.3135">
        <ele>92.8</ele>
        <time>2023-03-01T14:39:51Z</time>
      </trkpt>
      <trkpt lat="49.74806" lon="2.31352">
        <ele>92.8</ele>
        <time>2023-03-01T14:39:52Z</time>
      </trkpt>
      <trkpt lat="49.74806" lon="2.31353">
        <ele>92.8</ele>
        <time>2023-03-01T14:39:53Z</time>
      </trkpt>
      <trkpt lat="49.74805" lon="2.31354">
        <ele>92.8</ele>
        <time>2023-03-01T14:39:55Z</time>
      </trkpt>
      <trkpt lat="49.74805" lon="2.31356">
        <ele>92.8</ele>
        <time>2023-03-01T14:39:56Z</time>
      </trkpt>
      <trkpt lat="49.74804" lon="2.31357">
        <ele>92.8</ele>
        <time>2023-03-01T14:39:57Z</time>
      </trkpt>
      <trkpt lat="49.74804" lon="2.31359">
        <ele>92.8</ele>
        <time>2023-03-01T14:39:58Z</time>
      </trkpt>
      <trkpt lat="49.74804" lon="2.31361">
        <ele>92.8</ele>
        <time>2023-03-01T14:39:59Z</time>
      </trkpt>
      <trkpt lat="49.74804" lon="2.31363">
        <ele>92.8</ele>
        <time>2023-03-01T14:40:00Z</time>
      </trkpt>
      <trkpt lat="49.74803" lon="2.31364">
        <ele>92.8</ele>
        <time>2023-03-01T14:40:02Z</time>
      </trkpt>
      <trkpt lat="49.74803" lon="2.31366">
        <ele>92.8</ele>
        <time>2023-03-01T14:40:03Z</time>
      </trkpt>
      <trkpt lat="49.74803" lon="2.31368">
        <ele>92.8</ele>
        <time>2023-03-01T14:40:04Z</time>
      </trkpt>
      <trkpt lat="49.74803" lon="2.31371">
        <ele>92.8</ele>
        <time>2023-03-01T14:40:06Z</time>
      </trkpt>
      <trkpt lat="49.74803" lon="2.31373">
        <ele>92.8</ele>
        <time>2023-03-01T14:40:07Z</time>
      </trkpt>
      <trkpt lat="49.74802" lon="2.31374">
        <ele>92.8</ele>
        <time>2023-03-01T14:40:08Z</time>
      </trkpt>
      <trkpt lat="49.74802" lon="2.31376">
        <ele>92.8</ele>
        <time>2023-03-01T14:40:10Z</time>
      </trkpt>
      <trkpt lat="49.74802" lon="2.31379">
        <ele>92.8</ele>
        <time>2023-03-01T14:40:11Z</time>
      </trkpt>
      <trkpt lat="49.74802" lon="2.31382">
        <ele>92.7</ele>
        <time>2023-03-01T14:40:12Z</time>
      </trkpt>
      <trkpt lat="49.74802" lon="2.31384">
        <ele>92.7</ele>
        <time>2023-03-01T14:40:13Z</time>
      </trkpt>
      <trkpt lat="49.74802" lon="2.31385">
        <ele>92.7</ele>
        <time>2023-03-01T14:40:14Z</time>
      </trkpt>
      <trkpt lat="49.74801" lon="2.3139">
        <ele>92.7</ele>
        <time>2023-03-01T14:40:15Z</time>
      </trkpt>
      <trkpt lat="49.74801" lon="2.31391">
        <ele>92.7</ele>
        <time>2023-03-01T14:40:17Z</time>
      </trkpt>
      <trkpt lat="49.74801" lon="2.31393">
        <ele>92.7</ele>
        <time>2023-03-01T14:40:18Z</time>
      </trkpt>
      <trkpt lat="49.74801" lon="2.31395">
        <ele>92.7</ele>
        <time>2023-03-01T14:40:19Z</time>
      </trkpt>
      <trkpt lat="49.74801" lon="2.31397">
        <ele>92.7</ele>
        <time>2023-03-01T14:40:20Z</time>
      </trkpt>
      <trkpt lat="49.748" lon="2.31398">
        <ele>92.7</ele>
        <time>2023-03-01T14:40:21Z</time>
      </trkpt>
      <trkpt lat="49.748" lon="2.314">
        <ele>92.7</ele>
        <time>2023-03-01T14:40:22Z</time>
      </trkpt>
      <trkpt lat="49.748" lon="2.31403">
        <ele>92.6</ele>
        <time>2023-03-01T14:40:24Z</time>
      </trkpt>
      <trkpt lat="49.748" lon="2.31406">
        <ele>92.6</ele>
        <time>2023-03-01T14:40:25Z</time>
      </trkpt>
      <trkpt lat="49.748" lon="2.31408">
        <ele>92.6</ele>
        <time>2023-03-01T14:40:26Z</time>
      </trkpt>
      <trkpt lat="49.748" lon="2.31409">
        <ele>92.6</ele>
        <time>2023-03-01T14:40:27Z</time>
      </trkpt>
      <trkpt lat="49.748" lon="2.3141">
        <ele>92.6</ele>
        <time>2023-03-01T14:40:28Z</time>
      </trkpt>
      <trkpt lat="49.748" lon="2.31412">
        <ele>92.6</ele>
        <time>2023-03-01T14:40:29Z</time>
      </trkpt>
      <trkpt lat="49.748" lon="2.31415">
        <ele>92.6</ele>
        <time>2023-03-01T14:40:31Z</time>
      </trkpt>
      <trkpt lat="49.748" lon="2.31417">
        <ele>92.6</ele>
        <time>2023-03-01T14:40:32Z</time>
      </trkpt>
      <trkpt lat="49.748" lon="2.31418">
        <ele>92.6</ele>
        <time>2023-03-01T14:40:33Z</time>
      </trkpt>
      <trkpt lat="49.748" lon="2.3142">
        <ele>92.5</ele>
        <time>2023-03-01T14:40:34Z</time>
      </trkpt>
      <trkpt lat="49.748" lon="2.31424">
        <ele>92.5</ele>
        <time>2023-03-01T14:40:35Z</time>
      </trkpt>
      <trkpt lat="49.748" lon="2.31425">
        <ele>92.5</ele>
        <time>2023-03-01T14:40:37Z</time>
      </trkpt>
      <trkpt lat="49.748" lon="2.31426">
        <ele>92.5</ele>
        <time>2023-03-01T14:40:38Z</time>
      </trkpt>
      <trkpt lat="49.748" lon="2.31428">
        <ele>92.5</ele>
        <time>2023-03-01T14:40:39Z</time>
      </trkpt>
      <trkpt lat="49.748" lon="2.3143">
        <ele>92.4</ele>
        <time>2023-03-01T14:40:40Z</time>
      </trkpt>
      <trkpt lat="49.748" lon="2.31433">
        <ele>92.4</ele>
        <time>2023-03-01T14:40:41Z</time>
      </trkpt>
      <trkpt lat="49.74799" lon="2.31434">
        <ele>92.4</ele>
        <time>2023-03-01T14:40:42Z</time>
      </trkpt>
      <trkpt lat="49.74799" lon="2.31436">
        <ele>92.4</ele>
        <time>2023-03-01T14:40:44Z</time>
      </trkpt>
      <trkpt lat="49.74799" lon="2.31437">
        <ele>92.4</ele>
        <time>2023-03-01T14:40:45Z</time>
      </trkpt>
      <trkpt lat="49.74798" lon="2.31439">
        <ele>92.3</ele>
        <time>2023-03-01T14:40:46Z</time>
      </trkpt>
      <trkpt lat="49.74798" lon="2.3144">
        <ele>92.3</ele>
        <time>2023-03-01T14:40:47Z</time>
      </trkpt>
      <trkpt lat="49.74797" lon="2.31444">
        <ele>92.3</ele>
        <time>2023-03-01T14:40:48Z</time>
      </trkpt>
      <trkpt lat="49.74797" lon="2.31445">
        <ele>92.2</ele>
        <time>2023-03-01T14:40:50Z</time>
      </trkpt>
      <trkpt lat="49.74797" lon="2.31446">
        <ele>92.2</ele>
        <time>2023-03-01T14:40:51Z</time>
      </trkpt>
      <trkpt lat="49.74796" lon="2.31448">
        <ele>92.2</ele>
        <time>2023-03-01T14:40:52Z</time>
      </trkpt>
      <trkpt lat="49.74796" lon="2.3145">
        <ele>92.2</ele>
        <time>2023-03-01T14:40:53Z</time>
      </trkpt>
      <trkpt lat="49.74796" lon="2.31451">
        <ele>92.1</ele>
        <time>2023-03-01T14:40:54Z</time>
      </trkpt>
      <trkpt lat="49.74795" lon="2.31454">
        <ele>92.1</ele>
        <time>2023-03-01T14:40:55Z</time>
      </trkpt>
      <trkpt lat="49.74795" lon="2.31455">
        <ele>92.1</ele>
        <time>2023-03-01T14:40:56Z</time>
      </trkpt>
      <trkpt lat="49.74795" lon="2.31457">
        <ele>92</ele>
        <time>2023-03-01T14:40:58Z</time>
      </trkpt>
      <trkpt lat="49.74795" lon="2.3146">
        <ele>92</ele>
        <time>2023-03-01T14:40:59Z</time>
      </trkpt>
      <trkpt lat="49.74795" lon="2.31461">
        <ele>92</ele>
        <time>2023-03-01T14:41:00Z</time>
      </trkpt>
      <trkpt lat="49.74795" lon="2.31463">
        <ele>91.9</ele>
        <time>2023-03-01T14:41:01Z</time>
      </trkpt>
      <trkpt lat="49.74795" lon="2.31464">
        <ele>91.9</ele>
        <time>2023-03-01T14:41:02Z</time>
      </trkpt>
      <trkpt lat="49.74795" lon="2.31466">
        <ele>91.9</ele>
        <time>2023-03-01T14:41:03Z</time>
      </trkpt>
      <trkpt lat="49.74795" lon="2.31468">
        <ele>91.8</ele>
        <time>2023-03-01T14:41:04Z</time>
      </trkpt>
      <trkpt lat="49.74794" lon="2.3147">
        <ele>91.8</ele>
        <time>2023-03-01T14:41:06Z</time>
      </trkpt>
      <trkpt lat="49.74794" lon="2.31471">
        <ele>91.8</ele>
        <time>2023-03-01T14:41:07Z</time>
      </trkpt>
      <trkpt lat="49.74794" lon="2.31473">
        <ele>91.7</ele>
        <time>2023-03-01T14:41:08Z</time>
      </trkpt>
      <trkpt lat="49.74794" lon="2.31476">
        <ele>91.6</ele>
        <time>2023-03-01T14:41:09Z</time>
      </trkpt>
      <trkpt lat="49.74794" lon="2.31477">
        <ele>91.6</ele>
        <time>2023-03-01T14:41:10Z</time>
      </trkpt>
      <trkpt lat="49.74793" lon="2.31478">
        <ele>91.6</ele>
        <time>2023-03-01T14:41:11Z</time>
      </trkpt>
      <trkpt lat="49.74793" lon="2.3148">
        <ele>91.6</ele>
        <time>2023-03-01T14:41:12Z</time>
      </trkpt>
      <trkpt lat="49.74793" lon="2.31482">
        <ele>91.5</ele>
        <time>2023-03-01T14:41:13Z</time>
      </trkpt>
      <trkpt lat="49.74793" lon="2.31484">
        <ele>91.5</ele>
        <time>2023-03-01T14:41:14Z</time>
      </trkpt>
      <trkpt lat="49.74793" lon="2.31486">
        <ele>91.4</ele>
        <time>2023-03-01T14:41:16Z</time>
      </trkpt>
      <trkpt lat="49.74793" lon="2.31487">
        <ele>91.4</ele>
        <time>2023-03-01T14:41:17Z</time>
      </trkpt>
      <trkpt lat="49.74793" lon="2.31489">
        <ele>91.4</ele>
        <time>2023-03-01T14:41:18Z</time>
      </trkpt>
      <trkpt lat="49.74793" lon="2.31491">
        <ele>91.3</ele>
        <time>2023-03-01T14:41:19Z</time>
      </trkpt>
      <trkpt lat="49.74793" lon="2.31492">
        <ele>91.3</ele>
        <time>2023-03-01T14:41:20Z</time>
      </trkpt>
      <trkpt lat="49.74793" lon="2.31494">
        <ele>91.3</ele>
        <time>2023-03-01T14:41:21Z</time>
      </trkpt>
      <trkpt lat="49.74793" lon="2.31494">
        <ele>91.3</ele>
        <time>2023-03-01T14:41:22Z</time>
      </trkpt>
      <trkpt lat="49.74793" lon="2.31496">
        <ele>91.2</ele>
        <time>2023-03-01T14:41:23Z</time>
      </trkpt>
      <trkpt lat="49.74792" lon="2.31496">
        <ele>91.2</ele>
        <time>2023-03-01T14:41:24Z</time>
      </trkpt>
      <trkpt lat="49.74792" lon="2.31498">
        <ele>91.2</ele>
        <time>2023-03-01T14:41:26Z</time>
      </trkpt>
      <trkpt lat="49.74791" lon="2.31499">
        <ele>91.2</ele>
        <time>2023-03-01T14:41:27Z</time>
      </trkpt>
      <trkpt lat="49.74791" lon="2.315">
        <ele>91.2</ele>
        <time>2023-03-01T14:41:28Z</time>
      </trkpt>
      <trkpt lat="49.74791" lon="2.31502">
        <ele>91.1</ele>
        <time>2023-03-01T14:41:29Z</time>
      </trkpt>
      <trkpt lat="49.7479" lon="2.31503">
        <ele>91.1</ele>
        <time>2023-03-01T14:41:30Z</time>
      </trkpt>
      <trkpt lat="49.7479" lon="2.31505">
        <ele>91.1</ele>
        <time>2023-03-01T14:41:31Z</time>
      </trkpt>
      <trkpt lat="49.7479" lon="2.31507">
        <ele>91</ele>
        <time>2023-03-01T14:41:32Z</time>
      </trkpt>
      <trkpt lat="49.7479" lon="2.31508">
        <ele>91</ele>
        <time>2023-03-01T14:41:33Z</time>
      </trkpt>
      <trkpt lat="49.7479" lon="2.31511">
        <ele>91</ele>
        <time>2023-03-01T14:41:34Z</time>
      </trkpt>
      <trkpt lat="49.7479" lon="2.31513">
        <ele>91</ele>
        <time>2023-03-01T14:41:35Z</time>
      </trkpt>
      <trkpt lat="49.7479" lon="2.31514">
        <ele>90.9</ele>
        <time>2023-03-01T14:41:36Z</time>
      </trkpt>
      <trkpt lat="49.74789" lon="2.31517">
        <ele>90.9</ele>
        <time>2023-03-01T14:41:38Z</time>
      </trkpt>
      <trkpt lat="49.74789" lon="2.31519">
        <ele>90.9</ele>
        <time>2023-03-01T14:41:39Z</time>
      </trkpt>
      <trkpt lat="49.74789" lon="2.31522">
        <ele>90.8</ele>
        <time>2023-03-01T14:41:40Z</time>
      </trkpt>
      <trkpt lat="49.74789" lon="2.31523">
        <ele>90.8</ele>
        <time>2023-03-01T14:41:41Z</time>
      </trkpt>
      <trkpt lat="49.74789" lon="2.31525">
        <ele>90.8</ele>
        <time>2023-03-01T14:41:42Z</time>
      </trkpt>
      <trkpt lat="49.74789" lon="2.31527">
        <ele>90.7</ele>
        <time>2023-03-01T14:41:43Z</time>
      </trkpt>
      <trkpt lat="49.74789" lon="2.31529">
        <ele>90.7</ele>
        <time>2023-03-01T14:41:44Z</time>
      </trkpt>
      <trkpt lat="49.7479" lon="2.31531">
        <ele>90.7</ele>
        <time>2023-03-01T14:41:46Z</time>
      </trkpt>
      <trkpt lat="49.7479" lon="2.31534">
        <ele>90.6</ele>
        <time>2023-03-01T14:41:47Z</time>
      </trkpt>
      <trkpt lat="49.7479" lon="2.31536">
        <ele>90.6</ele>
        <time>2023-03-01T14:41:48Z</time>
      </trkpt>
      <trkpt lat="49.7479" lon="2.31537">
        <ele>90.6</ele>
        <time>2023-03-01T14:41:49Z</time>
      </trkpt>
      <trkpt lat="49.7479" lon="2.31539">
        <ele>90.6</ele>
        <time>2023-03-01T14:41:50Z</time>
      </trkpt>
      <trkpt lat="49.74791" lon="2.31542">
        <ele>90.5</ele>
        <time>2023-03-01T14:41:51Z</time>
      </trkpt>
      <trkpt lat="49.74791" lon="2.31544">
        <ele>90.5</ele>
        <time>2023-03-01T14:41:52Z</time>
      </trkpt>
      <trkpt lat="49.74791" lon="2.31546">
        <ele>90.4</ele>
        <time>2023-03-01T14:41:53Z</time>
      </trkpt>
      <trkpt lat="49.74791" lon="2.31549">
        <ele>90.4</ele>
        <time>2023-03-01T14:41:54Z</time>
      </trkpt>
      <trkpt lat="49.74792" lon="2.31552">
        <ele>90.4</ele>
        <time>2023-03-01T14:41:56Z</time>
      </trkpt>
      <trkpt lat="49.74792" lon="2.31555">
        <ele>90.3</ele>
        <time>2023-03-01T14:41:57Z</time>
      </trkpt>
      <trkpt lat="49.74793" lon="2.31556">
        <ele>90.3</ele>
        <time>2023-03-01T14:41:58Z</time>
      </trkpt>
      <trkpt lat="49.74793" lon="2.31557">
        <ele>90.3</ele>
        <time>2023-03-01T14:41:59Z</time>
      </trkpt>
      <trkpt lat="49.74793" lon="2.31559">
        <ele>90.3</ele>
        <time>2023-03-01T14:42:00Z</time>
      </trkpt>
      <trkpt lat="49.74793" lon="2.31562">
        <ele>90.2</ele>
        <time>2023-03-01T14:42:01Z</time>
      </trkpt>
      <trkpt lat="49.74794" lon="2.31565">
        <ele>90.2</ele>
        <time>2023-03-01T14:42:02Z</time>
      </trkpt>
      <trkpt lat="49.74794" lon="2.31566">
        <ele>90.2</ele>
        <time>2023-03-01T14:42:04Z</time>
      </trkpt>
      <trkpt lat="49.74794" lon="2.31568">
        <ele>90.1</ele>
        <time>2023-03-01T14:42:05Z</time>
      </trkpt>
      <trkpt lat="49.74795" lon="2.31571">
        <ele>90.1</ele>
        <time>2023-03-01T14:42:06Z</time>
      </trkpt>
      <trkpt lat="49.74795" lon="2.31572">
        <ele>90.1</ele>
        <time>2023-03-01T14:42:07Z</time>
      </trkpt>
      <trkpt lat="49.74795" lon="2.31574">
        <ele>90.1</ele>
        <time>2023-03-01T14:42:08Z</time>
      </trkpt>
      <trkpt lat="49.74795" lon="2.31576">
        <ele>90</ele>
        <time>2023-03-01T14:42:09Z</time>
      </trkpt>
      <trkpt lat="49.74795" lon="2.31578">
        <ele>90</ele>
        <time>2023-03-01T14:42:10Z</time>
      </trkpt>
      <trkpt lat="49.74795" lon="2.31581">
        <ele>90</ele>
        <time>2023-03-01T14:42:12Z</time>
      </trkpt>
      <trkpt lat="49.74795" lon="2.31582">
        <ele>90</ele>
        <time>2023-03-01T14:42:13Z</time>
      </trkpt>
      <trkpt lat="49.74795" lon="2.31583">
        <ele>90</ele>
        <time>2023-03-01T14:42:14Z</time>
      </trkpt>
      <trkpt lat="49.74795" lon="2.31586">
        <ele>90</ele>
        <time>2023-03-01T14:42:15Z</time>
      </trkpt>
      <trkpt lat="49.74795" lon="2.31588">
        <ele>89.9</ele>
        <time>2023-03-01T14:42:16Z</time>
      </trkpt>
      <trkpt lat="49.74795" lon="2.3159">
        <ele>89.9</ele>
        <time>2023-03-01T14:42:17Z</time>
      </trkpt>
      <trkpt lat="49.74795" lon="2.31592">
        <ele>89.9</ele>
        <time>2023-03-01T14:42:18Z</time>
      </trkpt>
      <trkpt lat="49.74795" lon="2.31593">
        <ele>89.9</ele>
        <time>2023-03-01T14:42:19Z</time>
      </trkpt>
      <trkpt lat="49.74796" lon="2.31597">
        <ele>89.9</ele>
        <time>2023-03-01T14:42:21Z</time>
      </trkpt>
      <trkpt lat="49.74796" lon="2.31598">
        <ele>89.9</ele>
        <time>2023-03-01T14:42:22Z</time>
      </trkpt>
      <trkpt lat="49.74796" lon="2.31601">
        <ele>89.9</ele>
        <time>2023-03-01T14:42:23Z</time>
      </trkpt>
      <trkpt lat="49.74796" lon="2.31602">
        <ele>89.9</ele>
        <time>2023-03-01T14:42:24Z</time>
      </trkpt>
      <trkpt lat="49.74796" lon="2.31603">
        <ele>89.8</ele>
        <time>2023-03-01T14:42:25Z</time>
      </trkpt>
      <trkpt lat="49.74796" lon="2.31606">
        <ele>89.8</ele>
        <time>2023-03-01T14:42:26Z</time>
      </trkpt>
      <trkpt lat="49.74796" lon="2.31608">
        <ele>89.8</ele>
        <time>2023-03-01T14:42:27Z</time>
      </trkpt>
      <trkpt lat="49.74796" lon="2.31609">
        <ele>89.8</ele>
        <time>2023-03-01T14:42:28Z</time>
      </trkpt>
      <trkpt lat="49.74796" lon="2.31611">
        <ele>89.8</ele>
        <time>2023-03-01T14:42:29Z</time>
      </trkpt>
      <trkpt lat="49.74796" lon="2.31614">
        <ele>89.8</ele>
        <time>2023-03-01T14:42:31Z</time>
      </trkpt>
      <trkpt lat="49.74796" lon="2.31616">
        <ele>89.8</ele>
        <time>2023-03-01T14:42:32Z</time>
      </trkpt>
      <trkpt lat="49.74796" lon="2.31618">
        <ele>89.8</ele>
        <time>2023-03-01T14:42:33Z</time>
      </trkpt>
      <trkpt lat="49.74796" lon="2.3162">
        <ele>89.8</ele>
        <time>2023-03-01T14:42:34Z</time>
      </trkpt>
      <trkpt lat="49.74796" lon="2.31621">
        <ele>89.8</ele>
        <time>2023-03-01T14:42:35Z</time>
      </trkpt>
      <trkpt lat="49.74796" lon="2.31623">
        <ele>89.8</ele>
        <time>2023-03-01T14:42:36Z</time>
      </trkpt>
      <trkpt lat="49.74796" lon="2.31625">
        <ele>89.7</ele>
        <time>2023-03-01T14:42:37Z</time>
      </trkpt>
      <trkpt lat="49.74796" lon="2.31627">
        <ele>89.7</ele>
        <time>2023-03-01T14:42:38Z</time>
      </trkpt>
      <trkpt lat="49.74796" lon="2.31629">
        <ele>89.7</ele>
        <time>2023-03-01T14:42:39Z</time>
      </trkpt>
      <trkpt lat="49.74796" lon="2.31632">
        <ele>89.7</ele>
        <time>2023-03-01T14:42:41Z</time>
      </trkpt>
      <trkpt lat="49.74796" lon="2.31634">
        <ele>89.7</ele>
        <time>2023-03-01T14:42:42Z</time>
      </trkpt>
      <trkpt lat="49.74796" lon="2.31636">
        <ele>89.7</ele>
        <time>2023-03-01T14:42:43Z</time>
      </trkpt>
      <trkpt lat="49.74796" lon="2.31638">
        <ele>89.7</ele>
        <time>2023-03-01T14:42:44Z</time>
      </trkpt>
      <trkpt lat="49.74797" lon="2.31641">
        <ele>89.7</ele>
        <time>2023-03-01T14:42:45Z</time>
      </trkpt>
      <trkpt lat="49.74797" lon="2.31643">
        <ele>89.7</ele>
        <time>2023-03-01T14:42:46Z</time>
      </trkpt>
      <trkpt lat="49.74797" lon="2.31644">
        <ele>89.7</ele>
        <time>2023-03-01T14:42:48Z</time>
      </trkpt>
      <trkpt lat="49.74797" lon="2.31646">
        <ele>89.7</ele>
        <time>2023-03-01T14:42:49Z</time>
      </trkpt>
      <trkpt lat="49.74797" lon="2.31648">
        <ele>89.7</ele>
        <time>2023-03-01T14:42:50Z</time>
      </trkpt>
      <trkpt lat="49.74797" lon="2.3165">
        <ele>89.7</ele>
        <time>2023-03-01T14:42:51Z</time>
      </trkpt>
      <trkpt lat="49.74798" lon="2.31653">
        <ele>89.7</ele>
        <time>2023-03-01T14:42:52Z</time>
      </trkpt>
      <trkpt lat="49.74798" lon="2.31654">
        <ele>89.7</ele>
        <time>2023-03-01T14:42:53Z</time>
      </trkpt>
      <trkpt lat="49.74799" lon="2.31656">
        <ele>89.6</ele>
        <time>2023-03-01T14:42:55Z</time>
      </trkpt>
      <trkpt lat="49.74799" lon="2.31657">
        <ele>89.6</ele>
        <time>2023-03-01T14:42:56Z</time>
      </trkpt>
      <trkpt lat="49.74799" lon="2.31659">
        <ele>89.6</ele>
        <time>2023-03-01T14:42:57Z</time>
      </trkpt>
      <trkpt lat="49.748" lon="2.3166">
        <ele>89.6</ele>
        <time>2023-03-01T14:42:58Z</time>
      </trkpt>
      <trkpt lat="49.748" lon="2.31662">
        <ele>89.6</ele>
        <time>2023-03-01T14:42:59Z</time>
      </trkpt>
      <trkpt lat="49.748" lon="2.31664">
        <ele>89.6</ele>
        <time>2023-03-01T14:43:00Z</time>
      </trkpt>
      <trkpt lat="49.748" lon="2.31666">
        <ele>89.6</ele>
        <time>2023-03-01T14:43:01Z</time>
      </trkpt>
      <trkpt lat="49.748" lon="2.31669">
        <ele>89.6</ele>
        <time>2023-03-01T14:43:02Z</time>
      </trkpt>
      <trkpt lat="49.748" lon="2.3167">
        <ele>89.6</ele>
        <time>2023-03-01T14:43:04Z</time>
      </trkpt>
      <trkpt lat="49.748" lon="2.31671">
        <ele>89.6</ele>
        <time>2023-03-01T14:43:05Z</time>
      </trkpt>
      <trkpt lat="49.748" lon="2.31673">
        <ele>89.6</ele>
        <time>2023-03-01T14:43:06Z</time>
      </trkpt>
      <trkpt lat="49.748" lon="2.31676">
        <ele>89.6</ele>
        <time>2023-03-01T14:43:07Z</time>
      </trkpt>
      <trkpt lat="49.748" lon="2.31679">
        <ele>89.6</ele>
        <time>2023-03-01T14:43:08Z</time>
      </trkpt>
      <trkpt lat="49.74801" lon="2.31681">
        <ele>89.6</ele>
        <time>2023-03-01T14:43:09Z</time>
      </trkpt>
      <trkpt lat="49.74801" lon="2.31682">
        <ele>89.6</ele>
        <time>2023-03-01T14:43:10Z</time>
      </trkpt>
      <trkpt lat="49.74801" lon="2.31686">
        <ele>89.6</ele>
        <time>2023-03-01T14:43:11Z</time>
      </trkpt>
      <trkpt lat="49.74801" lon="2.31687">
        <ele>89.6</ele>
        <time>2023-03-01T14:43:13Z</time>
      </trkpt>
      <trkpt lat="49.74802" lon="2.31688">
        <ele>89.6</ele>
        <time>2023-03-01T14:43:14Z</time>
      </trkpt>
      <trkpt lat="49.74802" lon="2.3169">
        <ele>89.6</ele>
        <time>2023-03-01T14:43:15Z</time>
      </trkpt>
      <trkpt lat="49.74802" lon="2.31692">
        <ele>89.5</ele>
        <time>2023-03-01T14:43:16Z</time>
      </trkpt>
      <trkpt lat="49.74802" lon="2.31693">
        <ele>89.5</ele>
        <time>2023-03-01T14:43:17Z</time>
      </trkpt>
      <trkpt lat="49.74803" lon="2.31695">
        <ele>89.5</ele>
        <time>2023-03-01T14:43:19Z</time>
      </trkpt>
      <trkpt lat="49.74803" lon="2.31697">
        <ele>89.5</ele>
        <time>2023-03-01T14:43:20Z</time>
      </trkpt>
      <trkpt lat="49.74803" lon="2.31698">
        <ele>89.5</ele>
        <time>2023-03-01T14:43:21Z</time>
      </trkpt>
      <trkpt lat="49.74804" lon="2.31701">
        <ele>89.5</ele>
        <time>2023-03-01T14:43:22Z</time>
      </trkpt>
      <trkpt lat="49.74804" lon="2.31702">
        <ele>89.5</ele>
        <time>2023-03-01T14:43:23Z</time>
      </trkpt>
      <trkpt lat="49.74805" lon="2.31704">
        <ele>89.5</ele>
        <time>2023-03-01T14:43:24Z</time>
      </trkpt>
      <trkpt lat="49.74805" lon="2.31705">
        <ele>89.5</ele>
        <time>2023-03-01T14:43:25Z</time>
      </trkpt>
      <trkpt lat="49.74806" lon="2.31707">
        <ele>89.5</ele>
        <time>2023-03-01T14:43:26Z</time>
      </trkpt>
      <trkpt lat="49.74806" lon="2.31708">
        <ele>89.4</ele>
        <time>2023-03-01T14:43:27Z</time>
      </trkpt>
      <trkpt lat="49.74806" lon="2.31709">
        <ele>89.4</ele>
        <time>2023-03-01T14:43:29Z</time>
      </trkpt>
      <trkpt lat="49.74806" lon="2.31711">
        <ele>89.4</ele>
        <time>2023-03-01T14:43:30Z</time>
      </trkpt>
      <trkpt lat="49.74807" lon="2.31712">
        <ele>89.4</ele>
        <time>2023-03-01T14:43:31Z</time>
      </trkpt>
      <trkpt lat="49.74807" lon="2.31715">
        <ele>89.4</ele>
        <time>2023-03-01T14:43:32Z</time>
      </trkpt>
      <trkpt lat="49.74807" lon="2.31717">
        <ele>89.4</ele>
        <time>2023-03-01T14:43:33Z</time>
      </trkpt>
      <trkpt lat="49.74807" lon="2.3172">
        <ele>89.3</ele>
        <time>2023-03-01T14:43:34Z</time>
      </trkpt>
      <trkpt lat="49.74808" lon="2.31722">
        <ele>89.3</ele>
        <time>2023-03-01T14:43:36Z</time>
      </trkpt>
      <trkpt lat="49.74808" lon="2.31723">
        <ele>89.3</ele>
        <time>2023-03-01T14:43:37Z</time>
      </trkpt>
      <trkpt lat="49.74808" lon="2.31725">
        <ele>89.3</ele>
        <time>2023-03-01T14:43:38Z</time>
      </trkpt>
      <trkpt lat="49.74809" lon="2.31726">
        <ele>89.3</ele>
        <time>2023-03-01T14:43:39Z</time>
      </trkpt>
      <trkpt lat="49.74809" lon="2.31727">
        <ele>89.2</ele>
        <time>2023-03-01T14:43:41Z</time>
      </trkpt>
      <trkpt lat="49.7481" lon="2.31729">
        <ele>89.2</ele>
        <time>2023-03-01T14:43:42Z</time>
      </trkpt>
      <trkpt lat="49.7481" lon="2.3173">
        <ele>89.2</ele>
        <time>2023-03-01T14:43:43Z</time>
      </trkpt>
      <trkpt lat="49.7481" lon="2.31732">
        <ele>89.2</ele>
        <time>2023-03-01T14:43:44Z</time>
      </trkpt>
      <trkpt lat="49.74811" lon="2.31733">
        <ele>89.2</ele>
        <time>2023-03-01T14:43:45Z</time>
      </trkpt>
      <trkpt lat="49.74811" lon="2.31736">
        <ele>89.1</ele>
        <time>2023-03-01T14:43:46Z</time>
      </trkpt>
      <trkpt lat="49.74811" lon="2.31738">
        <ele>89.1</ele>
        <time>2023-03-01T14:43:47Z</time>
      </trkpt>
      <trkpt lat="49.74812" lon="2.31739">
        <ele>89.1</ele>
        <time>2023-03-01T14:43:49Z</time>
      </trkpt>
      <trkpt lat="49.74812" lon="2.31741">
        <ele>89.1</ele>
        <time>2023-03-01T14:43:50Z</time>
      </trkpt>
      <trkpt lat="49.74813" lon="2.31743">
        <ele>89.1</ele>
        <time>2023-03-01T14:43:51Z</time>
      </trkpt>
      <trkpt lat="49.74813" lon="2.31745">
        <ele>89</ele>
        <time>2023-03-01T14:43:52Z</time>
      </trkpt>
      <trkpt lat="49.74814" lon="2.31747">
        <ele>89</ele>
        <time>2023-03-01T14:43:53Z</time>
      </trkpt>
      <trkpt lat="49.74814" lon="2.31748">
        <ele>89</ele>
        <time>2023-03-01T14:43:54Z</time>
      </trkpt>
      <trkpt lat="49.74815" lon="2.3175">
        <ele>89</ele>
        <time>2023-03-01T14:43:55Z</time>
      </trkpt>
      <trkpt lat="49.74815" lon="2.31754">
        <ele>88.9</ele>
        <time>2023-03-01T14:43:56Z</time>
      </trkpt>
      <trkpt lat="49.74815" lon="2.31755">
        <ele>88.9</ele>
        <time>2023-03-01T14:43:58Z</time>
      </trkpt>
      <trkpt lat="49.74816" lon="2.31756">
        <ele>88.9</ele>
        <time>2023-03-01T14:43:59Z</time>
      </trkpt>
      <trkpt lat="49.74816" lon="2.31759">
        <ele>88.8</ele>
        <time>2023-03-01T14:44:00Z</time>
      </trkpt>
      <trkpt lat="49.74816" lon="2.3176">
        <ele>88.8</ele>
        <time>2023-03-01T14:44:01Z</time>
      </trkpt>
      <trkpt lat="49.74817" lon="2.31763">
        <ele>88.8</ele>
        <time>2023-03-01T14:44:02Z</time>
      </trkpt>
      <trkpt lat="49.74817" lon="2.31764">
        <ele>88.7</ele>
        <time>2023-03-01T14:44:03Z</time>
      </trkpt>
      <trkpt lat="49.74818" lon="2.31766">
        <ele>88.7</ele>
        <time>2023-03-01T14:44:05Z</time>
      </trkpt>
      <trkpt lat="49.74819" lon="2.31768">
        <ele>88.7</ele>
        <time>2023-03-01T14:44:06Z</time>
      </trkpt>
      <trkpt lat="49.7482" lon="2.31771">
        <ele>88.6</ele>
        <time>2023-03-01T14:44:07Z</time>
      </trkpt>
      <trkpt lat="49.74821" lon="2.31774">
        <ele>88.6</ele>
        <time>2023-03-01T14:44:08Z</time>
      </trkpt>
      <trkpt lat="49.74821" lon="2.31775">
        <ele>88.5</ele>
        <time>2023-03-01T14:44:09Z</time>
      </trkpt>
      <trkpt lat="49.74821" lon="2.31776">
        <ele>88.5</ele>
        <time>2023-03-01T14:44:10Z</time>
      </trkpt>
      <trkpt lat="49.74822" lon="2.31778">
        <ele>88.5</ele>
        <time>2023-03-01T14:44:11Z</time>
      </trkpt>
      <trkpt lat="49.74823" lon="2.31779">
        <ele>88.4</ele>
        <time>2023-03-01T14:44:13Z</time>
      </trkpt>
      <trkpt lat="49.74823" lon="2.3178">
        <ele>88.4</ele>
        <time>2023-03-01T14:44:14Z</time>
      </trkpt>
      <trkpt lat="49.74824" lon="2.31782">
        <ele>88.4</ele>
        <time>2023-03-01T14:44:15Z</time>
      </trkpt>
      <trkpt lat="49.74825" lon="2.31784">
        <ele>88.3</ele>
        <time>2023-03-01T14:44:16Z</time>
      </trkpt>
      <trkpt lat="49.74826" lon="2.31786">
        <ele>88.3</ele>
        <time>2023-03-01T14:44:17Z</time>
      </trkpt>
      <trkpt lat="49.74826" lon="2.31788">
        <ele>88.2</ele>
        <time>2023-03-01T14:44:18Z</time>
      </trkpt>
      <trkpt lat="49.74827" lon="2.3179">
        <ele>88.2</ele>
        <time>2023-03-01T14:44:19Z</time>
      </trkpt>
      <trkpt lat="49.74827" lon="2.31792">
        <ele>88.2</ele>
        <time>2023-03-01T14:44:20Z</time>
      </trkpt>
      <trkpt lat="49.74828" lon="2.31794">
        <ele>88.1</ele>
        <time>2023-03-01T14:44:22Z</time>
      </trkpt>
      <trkpt lat="49.74829" lon="2.31796">
        <ele>88.1</ele>
        <time>2023-03-01T14:44:23Z</time>
      </trkpt>
      <trkpt lat="49.74829" lon="2.31798">
        <ele>88</ele>
        <time>2023-03-01T14:44:24Z</time>
      </trkpt>
      <trkpt lat="49.74829" lon="2.31799">
        <ele>88</ele>
        <time>2023-03-01T14:44:25Z</time>
      </trkpt>
      <trkpt lat="49.7483" lon="2.31803">
        <ele>87.9</ele>
        <time>2023-03-01T14:44:26Z</time>
      </trkpt>
      <trkpt lat="49.74831" lon="2.31804">
        <ele>87.9</ele>
        <time>2023-03-01T14:44:28Z</time>
      </trkpt>
      <trkpt lat="49.74831" lon="2.31805">
        <ele>87.8</ele>
        <time>2023-03-01T14:44:29Z</time>
      </trkpt>
      <trkpt lat="49.74832" lon="2.31807">
        <ele>87.8</ele>
        <time>2023-03-01T14:44:30Z</time>
      </trkpt>
      <trkpt lat="49.74832" lon="2.31808">
        <ele>87.8</ele>
        <time>2023-03-01T14:44:31Z</time>
      </trkpt>
      <trkpt lat="49.74833" lon="2.31811">
        <ele>87.7</ele>
        <time>2023-03-01T14:44:32Z</time>
      </trkpt>
      <trkpt lat="49.74833" lon="2.31811">
        <ele>87.7</ele>
        <time>2023-03-01T14:44:33Z</time>
      </trkpt>
      <trkpt lat="49.74834" lon="2.31813">
        <ele>87.7</ele>
        <time>2023-03-01T14:44:34Z</time>
      </trkpt>
      <trkpt lat="49.74834" lon="2.31815">
        <ele>87.6</ele>
        <time>2023-03-01T14:44:35Z</time>
      </trkpt>
      <trkpt lat="49.74835" lon="2.31817">
        <ele>87.6</ele>
        <time>2023-03-01T14:44:36Z</time>
      </trkpt>
      <trkpt lat="49.74835" lon="2.31818">
        <ele>87.5</ele>
        <time>2023-03-01T14:44:38Z</time>
      </trkpt>
      <trkpt lat="49.74835" lon="2.3182">
        <ele>87.5</ele>
        <time>2023-03-01T14:44:39Z</time>
      </trkpt>
      <trkpt lat="49.74836" lon="2.31822">
        <ele>87.4</ele>
        <time>2023-03-01T14:44:40Z</time>
      </trkpt>
      <trkpt lat="49.74836" lon="2.31824">
        <ele>87.4</ele>
        <time>2023-03-01T14:44:41Z</time>
      </trkpt>
      <trkpt lat="49.74837" lon="2.31826">
        <ele>87.3</ele>
        <time>2023-03-01T14:44:42Z</time>
      </trkpt>
      <trkpt lat="49.74837" lon="2.31827">
        <ele>87.3</ele>
        <time>2023-03-01T14:44:43Z</time>
      </trkpt>
      <trkpt lat="49.74838" lon="2.3183">
        <ele>87.3</ele>
        <time>2023-03-01T14:44:44Z</time>
      </trkpt>
      <trkpt lat="49.74838" lon="2.31831">
        <ele>87.2</ele>
        <time>2023-03-01T14:44:45Z</time>
      </trkpt>
      <trkpt lat="49.74838" lon="2.31833">
        <ele>87.2</ele>
        <time>2023-03-01T14:44:46Z</time>
      </trkpt>
      <trkpt lat="49.74838" lon="2.31837">
        <ele>87.1</ele>
        <time>2023-03-01T14:44:47Z</time>
      </trkpt>
      <trkpt lat="49.74838" lon="2.31838">
        <ele>87.1</ele>
        <time>2023-03-01T14:44:49Z</time>
      </trkpt>
      <trkpt lat="49.74838" lon="2.3184">
        <ele>87</ele>
        <time>2023-03-01T14:44:50Z</time>
      </trkpt>
      <trkpt lat="49.74839" lon="2.31843">
        <ele>87</ele>
        <time>2023-03-01T14:44:51Z</time>
      </trkpt>
      <trkpt lat="49.74839" lon="2.31844">
        <ele>86.9</ele>
        <time>2023-03-01T14:44:52Z</time>
      </trkpt>
      <trkpt lat="49.74839" lon="2.31846">
        <ele>86.9</ele>
        <time>2023-03-01T14:44:54Z</time>
      </trkpt>
      <trkpt lat="49.74839" lon="2.31848">
        <ele>86.9</ele>
        <time>2023-03-01T14:44:55Z</time>
      </trkpt>
      <trkpt lat="49.74839" lon="2.3185">
        <ele>86.8</ele>
        <time>2023-03-01T14:44:56Z</time>
      </trkpt>
      <trkpt lat="49.7484" lon="2.31851">
        <ele>86.8</ele>
        <time>2023-03-01T14:44:57Z</time>
      </trkpt>
      <trkpt lat="49.7484" lon="2.31853">
        <ele>86.8</ele>
        <time>2023-03-01T14:44:58Z</time>
      </trkpt>
      <trkpt lat="49.7484" lon="2.31855">
        <ele>86.7</ele>
        <time>2023-03-01T14:44:59Z</time>
      </trkpt>
      <trkpt lat="49.7484" lon="2.31856">
        <ele>86.7</ele>
        <time>2023-03-01T14:45:00Z</time>
      </trkpt>
      <trkpt lat="49.7484" lon="2.31858">
        <ele>86.7</ele>
        <time>2023-03-01T14:45:01Z</time>
      </trkpt>
      <trkpt lat="49.7484" lon="2.31861">
        <ele>86.6</ele>
        <time>2023-03-01T14:45:03Z</time>
      </trkpt>
      <trkpt lat="49.74841" lon="2.31862">
        <ele>86.6</ele>
        <time>2023-03-01T14:45:04Z</time>
      </trkpt>
      <trkpt lat="49.74841" lon="2.31864">
        <ele>86.6</ele>
        <time>2023-03-01T14:45:05Z</time>
      </trkpt>
      <trkpt lat="49.74841" lon="2.31866">
        <ele>86.5</ele>
        <time>2023-03-01T14:45:06Z</time>
      </trkpt>
      <trkpt lat="49.74841" lon="2.31871">
        <ele>86.4</ele>
        <time>2023-03-01T14:45:08Z</time>
      </trkpt>
      <trkpt lat="49.74841" lon="2.31872">
        <ele>86.4</ele>
        <time>2023-03-01T14:45:09Z</time>
      </trkpt>
      <trkpt lat="49.74841" lon="2.31874">
        <ele>86.4</ele>
        <time>2023-03-01T14:45:10Z</time>
      </trkpt>
      <trkpt lat="49.74841" lon="2.31876">
        <ele>86.4</ele>
        <time>2023-03-01T14:45:11Z</time>
      </trkpt>
      <trkpt lat="49.74841" lon="2.31879">
        <ele>86.4</ele>
        <time>2023-03-01T14:45:13Z</time>
      </trkpt>
      <trkpt lat="49.74841" lon="2.31882">
        <ele>86.3</ele>
        <time>2023-03-01T14:45:14Z</time>
      </trkpt>
      <trkpt lat="49.74841" lon="2.31883">
        <ele>86.3</ele>
        <time>2023-03-01T14:45:15Z</time>
      </trkpt>
      <trkpt lat="49.74841" lon="2.31884">
        <ele>86.3</ele>
        <time>2023-03-01T14:45:16Z</time>
      </trkpt>
      <trkpt lat="49.74841" lon="2.31887">
        <ele>86.2</ele>
        <time>2023-03-01T14:45:17Z</time>
      </trkpt>
      <trkpt lat="49.74841" lon="2.31888">
        <ele>86.2</ele>
        <time>2023-03-01T14:45:18Z</time>
      </trkpt>
      <trkpt lat="49.74841" lon="2.3189">
        <ele>86.2</ele>
        <time>2023-03-01T14:45:19Z</time>
      </trkpt>
      <trkpt lat="49.7484" lon="2.31893">
        <ele>86.2</ele>
        <time>2023-03-01T14:45:20Z</time>
      </trkpt>
      <trkpt lat="49.7484" lon="2.31895">
        <ele>86.2</ele>
        <time>2023-03-01T14:45:21Z</time>
      </trkpt>
      <trkpt lat="49.7484" lon="2.31896">
        <ele>86.1</ele>
        <time>2023-03-01T14:45:22Z</time>
      </trkpt>
      <trkpt lat="49.7484" lon="2.31899">
        <ele>86.1</ele>
        <time>2023-03-01T14:45:23Z</time>
      </trkpt>
      <trkpt lat="49.7484" lon="2.31901">
        <ele>86.1</ele>
        <time>2023-03-01T14:45:25Z</time>
      </trkpt>
      <trkpt lat="49.7484" lon="2.31902">
        <ele>86.1</ele>
        <time>2023-03-01T14:45:26Z</time>
      </trkpt>
      <trkpt lat="49.74839" lon="2.31904">
        <ele>86.1</ele>
        <time>2023-03-01T14:45:27Z</time>
      </trkpt>
      <trkpt lat="49.74839" lon="2.31906">
        <ele>86.1</ele>
        <time>2023-03-01T14:45:28Z</time>
      </trkpt>
      <trkpt lat="49.74839" lon="2.31907">
        <ele>86.1</ele>
        <time>2023-03-01T14:45:29Z</time>
      </trkpt>
      <trkpt lat="49.74839" lon="2.31908">
        <ele>86.1</ele>
        <time>2023-03-01T14:45:31Z</time>
      </trkpt>
      <trkpt lat="49.74839" lon="2.3191">
        <ele>86</ele>
        <time>2023-03-01T14:45:32Z</time>
      </trkpt>
      <trkpt lat="49.74838" lon="2.31912">
        <ele>86</ele>
        <time>2023-03-01T14:45:33Z</time>
      </trkpt>
      <trkpt lat="49.74838" lon="2.31915">
        <ele>86</ele>
        <time>2023-03-01T14:45:34Z</time>
      </trkpt>
      <trkpt lat="49.74838" lon="2.31916">
        <ele>86</ele>
        <time>2023-03-01T14:45:35Z</time>
      </trkpt>
      <trkpt lat="49.74838" lon="2.31918">
        <ele>86</ele>
        <time>2023-03-01T14:45:36Z</time>
      </trkpt>
      <trkpt lat="49.74837" lon="2.31921">
        <ele>86</ele>
        <time>2023-03-01T14:45:37Z</time>
      </trkpt>
      <trkpt lat="49.74837" lon="2.31922">
        <ele>86</ele>
        <time>2023-03-01T14:45:38Z</time>
      </trkpt>
      <trkpt lat="49.74837" lon="2.31925">
        <ele>86</ele>
        <time>2023-03-01T14:45:39Z</time>
      </trkpt>
      <trkpt lat="49.74837" lon="2.31927">
        <ele>86</ele>
        <time>2023-03-01T14:45:41Z</time>
      </trkpt>
      <trkpt lat="49.74837" lon="2.31928">
        <ele>86</ele>
        <time>2023-03-01T14:45:42Z</time>
      </trkpt>
      <trkpt lat="49.74837" lon="2.3193">
        <ele>86</ele>
        <time>2023-03-01T14:45:43Z</time>
      </trkpt>
      <trkpt lat="49.74836" lon="2.31932">
        <ele>86</ele>
        <time>2023-03-01T14:45:44Z</time>
      </trkpt>
      <trkpt lat="49.74836" lon="2.31934">
        <ele>86</ele>
        <time>2023-03-01T14:45:45Z</time>
      </trkpt>
      <trkpt lat="49.74836" lon="2.31938">
        <ele>85.9</ele>
        <time>2023-03-01T14:45:46Z</time>
      </trkpt>
      <trkpt lat="49.74836" lon="2.31939">
        <ele>85.9</ele>
        <time>2023-03-01T14:45:48Z</time>
      </trkpt>
      <trkpt lat="49.74836" lon="2.31941">
        <ele>85.9</ele>
        <time>2023-03-01T14:45:49Z</time>
      </trkpt>
      <trkpt lat="49.74836" lon="2.31943">
        <ele>85.9</ele>
        <time>2023-03-01T14:45:50Z</time>
      </trkpt>
      <trkpt lat="49.74836" lon="2.31944">
        <ele>85.9</ele>
        <time>2023-03-01T14:45:51Z</time>
      </trkpt>
      <trkpt lat="49.74836" lon="2.31947">
        <ele>85.9</ele>
        <time>2023-03-01T14:45:52Z</time>
      </trkpt>
      <trkpt lat="49.74836" lon="2.31948">
        <ele>85.9</ele>
        <time>2023-03-01T14:45:53Z</time>
      </trkpt>
      <trkpt lat="49.74836" lon="2.31951">
        <ele>85.9</ele>
        <time>2023-03-01T14:45:55Z</time>
      </trkpt>
      <trkpt lat="49.74836" lon="2.31953">
        <ele>85.9</ele>
        <time>2023-03-01T14:45:56Z</time>
      </trkpt>
      <trkpt lat="49.74836" lon="2.31954">
        <ele>85.9</ele>
        <time>2023-03-01T14:45:57Z</time>
      </trkpt>
      <trkpt lat="49.74836" lon="2.31956">
        <ele>85.9</ele>
        <time>2023-03-01T14:45:58Z</time>
      </trkpt>
      <trkpt lat="49.74836" lon="2.31957">
        <ele>85.9</ele>
        <time>2023-03-01T14:45:59Z</time>
      </trkpt>
      <trkpt lat="49.74835" lon="2.31959">
        <ele>86</ele>
        <time>2023-03-01T14:46:00Z</time>
      </trkpt>
      <trkpt lat="49.74835" lon="2.31961">
        <ele>86</ele>
        <time>2023-03-01T14:46:01Z</time>
      </trkpt>
      <trkpt lat="49.74835" lon="2.31963">
        <ele>86</ele>
        <time>2023-03-01T14:46:02Z</time>
      </trkpt>
      <trkpt lat="49.74835" lon="2.31964">
        <ele>86</ele>
        <time>2023-03-01T14:46:03Z</time>
      </trkpt>
      <trkpt lat="49.74836" lon="2.31967">
        <ele>86</ele>
        <time>2023-03-01T14:46:05Z</time>
      </trkpt>
      <trkpt lat="49.74836" lon="2.31969">
        <ele>86</ele>
        <time>2023-03-01T14:46:06Z</time>
      </trkpt>
      <trkpt lat="49.74836" lon="2.3197">
        <ele>86</ele>
        <time>2023-03-01T14:46:07Z</time>
      </trkpt>
      <trkpt lat="49.74836" lon="2.31972">
        <ele>86</ele>
        <time>2023-03-01T14:46:08Z</time>
      </trkpt>
      <trkpt lat="49.74837" lon="2.31973">
        <ele>86</ele>
        <time>2023-03-01T14:46:09Z</time>
      </trkpt>
      <trkpt lat="49.74837" lon="2.31975">
        <ele>86</ele>
        <time>2023-03-01T14:46:10Z</time>
      </trkpt>
      <trkpt lat="49.74837" lon="2.31978">
        <ele>86</ele>
        <time>2023-03-01T14:46:11Z</time>
      </trkpt>
      <trkpt lat="49.74836" lon="2.3198">
        <ele>86</ele>
        <time>2023-03-01T14:46:13Z</time>
      </trkpt>
      <trkpt lat="49.74836" lon="2.31981">
        <ele>86</ele>
        <time>2023-03-01T14:46:14Z</time>
      </trkpt>
      <trkpt lat="49.74836" lon="2.31984">
        <ele>86</ele>
        <time>2023-03-01T14:46:15Z</time>
      </trkpt>
      <trkpt lat="49.74836" lon="2.31986">
        <ele>86</ele>
        <time>2023-03-01T14:46:17Z</time>
      </trkpt>
      <trkpt lat="49.74836" lon="2.31987">
        <ele>86</ele>
        <time>2023-03-01T14:46:18Z</time>
      </trkpt>
      <trkpt lat="49.74836" lon="2.31989">
        <ele>86</ele>
        <time>2023-03-01T14:46:19Z</time>
      </trkpt>
      <trkpt lat="49.74836" lon="2.31991">
        <ele>86</ele>
        <time>2023-03-01T14:46:20Z</time>
      </trkpt>
      <trkpt lat="49.74836" lon="2.31993">
        <ele>86</ele>
        <time>2023-03-01T14:46:21Z</time>
      </trkpt>
      <trkpt lat="49.74836" lon="2.31995">
        <ele>86</ele>
        <time>2023-03-01T14:46:22Z</time>
      </trkpt>
      <trkpt lat="49.74836" lon="2.31997">
        <ele>86</ele>
        <time>2023-03-01T14:46:23Z</time>
      </trkpt>
      <trkpt lat="49.74836" lon="2.31998">
        <ele>86</ele>
        <time>2023-03-01T14:46:24Z</time>
      </trkpt>
      <trkpt lat="49.74835" lon="2.32002">
        <ele>86</ele>
        <time>2023-03-01T14:46:25Z</time>
      </trkpt>
      <trkpt lat="49.74835" lon="2.32003">
        <ele>86</ele>
        <time>2023-03-01T14:46:26Z</time>
      </trkpt>
      <trkpt lat="49.74835" lon="2.32005">
        <ele>86</ele>
        <time>2023-03-01T14:46:27Z</time>
      </trkpt>
      <trkpt lat="49.74835" lon="2.32008">
        <ele>86</ele>
        <time>2023-03-01T14:46:29Z</time>
      </trkpt>
      <trkpt lat="49.74835" lon="2.3201">
        <ele>86</ele>
        <time>2023-03-01T14:46:30Z</time>
      </trkpt>
      <trkpt lat="49.74835" lon="2.32011">
        <ele>86</ele>
        <time>2023-03-01T14:46:31Z</time>
      </trkpt>
      <trkpt lat="49.74835" lon="2.32014">
        <ele>86</ele>
        <time>2023-03-01T14:46:32Z</time>
      </trkpt>
      <trkpt lat="49.74835" lon="2.32015">
        <ele>86</ele>
        <time>2023-03-01T14:46:33Z</time>
      </trkpt>
      <trkpt lat="49.74835" lon="2.32017">
        <ele>86</ele>
        <time>2023-03-01T14:46:35Z</time>
      </trkpt>
      <trkpt lat="49.74834" lon="2.3202">
        <ele>86</ele>
        <time>2023-03-01T14:46:36Z</time>
      </trkpt>
      <trkpt lat="49.74834" lon="2.32021">
        <ele>86</ele>
        <time>2023-03-01T14:46:37Z</time>
      </trkpt>
      <trkpt lat="49.74834" lon="2.32023">
        <ele>86.1</ele>
        <time>2023-03-01T14:46:38Z</time>
      </trkpt>
      <trkpt lat="49.74834" lon="2.32024">
        <ele>86.1</ele>
        <time>2023-03-01T14:46:39Z</time>
      </trkpt>
      <trkpt lat="49.74834" lon="2.32026">
        <ele>86.1</ele>
        <time>2023-03-01T14:46:40Z</time>
      </trkpt>
      <trkpt lat="49.74833" lon="2.32028">
        <ele>86.1</ele>
        <time>2023-03-01T14:46:41Z</time>
      </trkpt>
      <trkpt lat="49.74833" lon="2.3203">
        <ele>86.1</ele>
        <time>2023-03-01T14:46:42Z</time>
      </trkpt>
      <trkpt lat="49.74834" lon="2.32032">
        <ele>86.1</ele>
        <time>2023-03-01T14:46:44Z</time>
      </trkpt>
      <trkpt lat="49.74834" lon="2.32033">
        <ele>86.1</ele>
        <time>2023-03-01T14:46:45Z</time>
      </trkpt>
      <trkpt lat="49.74834" lon="2.32036">
        <ele>86.1</ele>
        <time>2023-03-01T14:46:46Z</time>
      </trkpt>
      <trkpt lat="49.74834" lon="2.32037">
        <ele>86.1</ele>
        <time>2023-03-01T14:46:47Z</time>
      </trkpt>
      <trkpt lat="49.74834" lon="2.32039">
        <ele>86.2</ele>
        <time>2023-03-01T14:46:48Z</time>
      </trkpt>
      <trkpt lat="49.74834" lon="2.32042">
        <ele>86.2</ele>
        <time>2023-03-01T14:46:49Z</time>
      </trkpt>
      <trkpt lat="49.74834" lon="2.32043">
        <ele>86.2</ele>
        <time>2023-03-01T14:46:50Z</time>
      </trkpt>
      <trkpt lat="49.74834" lon="2.32045">
        <ele>86.2</ele>
        <time>2023-03-01T14:46:51Z</time>
      </trkpt>
      <trkpt lat="49.74834" lon="2.32048">
        <ele>86.3</ele>
        <time>2023-03-01T14:46:53Z</time>
      </trkpt>
      <trkpt lat="49.74834" lon="2.32049">
        <ele>86.3</ele>
        <time>2023-03-01T14:46:54Z</time>
      </trkpt>
      <trkpt lat="49.74834" lon="2.32051">
        <ele>86.3</ele>
        <time>2023-03-01T14:46:55Z</time>
      </trkpt>
      <trkpt lat="49.74834" lon="2.32054">
        <ele>86.3</ele>
        <time>2023-03-01T14:46:56Z</time>
      </trkpt>
      <trkpt lat="49.74834" lon="2.32055">
        <ele>86.3</ele>
        <time>2023-03-01T14:46:57Z</time>
      </trkpt>
      <trkpt lat="49.74834" lon="2.32056">
        <ele>86.3</ele>
        <time>2023-03-01T14:46:58Z</time>
      </trkpt>
      <trkpt lat="49.74834" lon="2.3206">
        <ele>86.4</ele>
        <time>2023-03-01T14:46:59Z</time>
      </trkpt>
      <trkpt lat="49.74834" lon="2.32061">
        <ele>86.4</ele>
        <time>2023-03-01T14:47:01Z</time>
      </trkpt>
      <trkpt lat="49.74834" lon="2.32063">
        <ele>86.4</ele>
        <time>2023-03-01T14:47:02Z</time>
      </trkpt>
      <trkpt lat="49.74834" lon="2.32066">
        <ele>86.4</ele>
        <time>2023-03-01T14:47:03Z</time>
      </trkpt>
      <trkpt lat="49.74834" lon="2.32068">
        <ele>86.4</ele>
        <time>2023-03-01T14:47:04Z</time>
      </trkpt>
      <trkpt lat="49.74834" lon="2.32069">
        <ele>86.5</ele>
        <time>2023-03-01T14:47:05Z</time>
      </trkpt>
      <trkpt lat="49.74834" lon="2.32071">
        <ele>86.5</ele>
        <time>2023-03-01T14:47:06Z</time>
      </trkpt>
      <trkpt lat="49.74834" lon="2.32074">
        <ele>86.5</ele>
        <time>2023-03-01T14:47:07Z</time>
      </trkpt>
      <trkpt lat="49.74834" lon="2.32075">
        <ele>86.5</ele>
        <time>2023-03-01T14:47:08Z</time>
      </trkpt>
      <trkpt lat="49.74834" lon="2.32076">
        <ele>86.5</ele>
        <time>2023-03-01T14:47:10Z</time>
      </trkpt>
      <trkpt lat="49.74834" lon="2.32078">
        <ele>86.6</ele>
        <time>2023-03-01T14:47:11Z</time>
      </trkpt>
      <trkpt lat="49.74834" lon="2.3208">
        <ele>86.6</ele>
        <time>2023-03-01T14:47:12Z</time>
      </trkpt>
      <trkpt lat="49.74834" lon="2.32083">
        <ele>86.6</ele>
        <time>2023-03-01T14:47:13Z</time>
      </trkpt>
      <trkpt lat="49.74834" lon="2.32085">
        <ele>86.6</ele>
        <time>2023-03-01T14:47:14Z</time>
      </trkpt>
      <trkpt lat="49.74834" lon="2.32086">
        <ele>86.6</ele>
        <time>2023-03-01T14:47:15Z</time>
      </trkpt>
      <trkpt lat="49.74834" lon="2.32088">
        <ele>86.6</ele>
        <time>2023-03-01T14:47:17Z</time>
      </trkpt>
      <trkpt lat="49.74834" lon="2.3209">
        <ele>86.7</ele>
        <time>2023-03-01T14:47:18Z</time>
      </trkpt>
      <trkpt lat="49.74834" lon="2.32091">
        <ele>86.7</ele>
        <time>2023-03-01T14:47:19Z</time>
      </trkpt>
      <trkpt lat="49.74834" lon="2.32093">
        <ele>86.7</ele>
        <time>2023-03-01T14:47:20Z</time>
      </trkpt>
      <trkpt lat="49.74834" lon="2.32097">
        <ele>86.7</ele>
        <time>2023-03-01T14:47:21Z</time>
      </trkpt>
      <trkpt lat="49.74834" lon="2.32098">
        <ele>86.7</ele>
        <time>2023-03-01T14:47:22Z</time>
      </trkpt>
      <trkpt lat="49.74834" lon="2.321">
        <ele>86.8</ele>
        <time>2023-03-01T14:47:23Z</time>
      </trkpt>
      <trkpt lat="49.74834" lon="2.32101">
        <ele>86.8</ele>
        <time>2023-03-01T14:47:24Z</time>
      </trkpt>
      <trkpt lat="49.74834" lon="2.32103">
        <ele>86.8</ele>
        <time>2023-03-01T14:47:25Z</time>
      </trkpt>
      <trkpt lat="49.74834" lon="2.32105">
        <ele>86.8</ele>
        <time>2023-03-01T14:47:27Z</time>
      </trkpt>
      <trkpt lat="49.74834" lon="2.32107">
        <ele>86.8</ele>
        <time>2023-03-01T14:47:28Z</time>
      </trkpt>
      <trkpt lat="49.74834" lon="2.32109">
        <ele>86.9</ele>
        <time>2023-03-01T14:47:29Z</time>
      </trkpt>
      <trkpt lat="49.74835" lon="2.3211">
        <ele>86.9</ele>
        <time>2023-03-01T14:47:31Z</time>
      </trkpt>
      <trkpt lat="49.74835" lon="2.32111">
        <ele>86.9</ele>
        <time>2023-03-01T14:47:32Z</time>
      </trkpt>
      <trkpt lat="49.74836" lon="2.32113">
        <ele>86.9</ele>
        <time>2023-03-01T14:47:33Z</time>
      </trkpt>
      <trkpt lat="49.74838" lon="2.32114">
        <ele>86.9</ele>
        <time>2023-03-01T14:47:36Z</time>
      </trkpt>
      <trkpt lat="49.74838" lon="2.32114">
        <ele>87</ele>
        <time>2023-03-01T14:47:37Z</time>
      </trkpt>
      <trkpt lat="49.74839" lon="2.32114">
        <ele>87</ele>
        <time>2023-03-01T14:47:39Z</time>
      </trkpt>
      <trkpt lat="49.74839" lon="2.32114">
        <ele>87</ele>
        <time>2023-03-01T14:47:40Z</time>
      </trkpt>
      <trkpt lat="49.74839" lon="2.32114">
        <ele>87</ele>
        <time>2023-03-01T14:47:42Z</time>
      </trkpt>
      <trkpt lat="49.74839" lon="2.32113">
        <ele>87</ele>
        <time>2023-03-01T14:47:43Z</time>
      </trkpt>
      <trkpt lat="49.74839" lon="2.32113">
        <ele>87</ele>
        <time>2023-03-01T14:47:45Z</time>
      </trkpt>
      <trkpt lat="49.74839" lon="2.32113">
        <ele>87</ele>
        <time>2023-03-01T14:47:46Z</time>
      </trkpt>
      <trkpt lat="49.74839" lon="2.32113">
        <ele>87</ele>
        <time>2023-03-01T14:47:47Z</time>
      </trkpt>
      <trkpt lat="49.74839" lon="2.32113">
        <ele>87</ele>
        <time>2023-03-01T14:47:49Z</time>
      </trkpt>
      <trkpt lat="49.74839" lon="2.32112">
        <ele>87</ele>
        <time>2023-03-01T14:47:50Z</time>
      </trkpt>
      <trkpt lat="49.74839" lon="2.32112">
        <ele>87</ele>
        <time>2023-03-01T14:47:51Z</time>
      </trkpt>
      <trkpt lat="49.74838" lon="2.32112">
        <ele>87</ele>
        <time>2023-03-01T14:47:52Z</time>
      </trkpt>
      <trkpt lat="49.74838" lon="2.32112">
        <ele>87</ele>
        <time>2023-03-01T14:47:54Z</time>
      </trkpt>
      <trkpt lat="49.74838" lon="2.32112">
        <ele>87</ele>
        <time>2023-03-01T14:47:55Z</time>
      </trkpt>
      <trkpt lat="49.74838" lon="2.32112">
        <ele>87</ele>
        <time>2023-03-01T14:47:56Z</time>
      </trkpt>
      <trkpt lat="49.74838" lon="2.32112">
        <ele>87</ele>
        <time>2023-03-01T14:47:58Z</time>
      </trkpt>
      <trkpt lat="49.74838" lon="2.32112">
        <ele>87</ele>
        <time>2023-03-01T14:48:00Z</time>
      </trkpt>
      <trkpt lat="49.74838" lon="2.32112">
        <ele>87</ele>
        <time>2023-03-01T14:48:01Z</time>
      </trkpt>
      <trkpt lat="49.74838" lon="2.32112">
        <ele>87</ele>
        <time>2023-03-01T14:48:02Z</time>
      </trkpt>
      <trkpt lat="49.74838" lon="2.32112">
        <ele>87</ele>
        <time>2023-03-01T14:48:03Z</time>
      </trkpt>
      <trkpt lat="49.74838" lon="2.32112">
        <ele>87</ele>
        <time>2023-03-01T14:48:04Z</time>
      </trkpt>
      <trkpt lat="49.74838" lon="2.32112">
        <ele>87</ele>
        <time>2023-03-01T14:48:05Z</time>
      </trkpt>
      <trkpt lat="49.74838" lon="2.32112">
        <ele>87</ele>
        <time>2023-03-01T14:48:06Z</time>
      </trkpt>
      <trkpt lat="49.74838" lon="2.32112">
        <ele>87</ele>
        <time>2023-03-01T14:48:07Z</time>
      </trkpt>
      <trkpt lat="49.74838" lon="2.32112">
        <ele>87</ele>
        <time>2023-03-01T14:48:08Z</time>
      </trkpt>
      <trkpt lat="49.74838" lon="2.32112">
        <ele>87</ele>
        <time>2023-03-01T14:48:09Z</time>
      </trkpt>
      <trkpt lat="49.74838" lon="2.32112">
        <ele>87</ele>
        <time>2023-03-01T14:48:10Z</time>
      </trkpt>
      <trkpt lat="49.74838" lon="2.32112">
        <ele>87</ele>
        <time>2023-03-01T14:48:11Z</time>
      </trkpt>
      <trkpt lat="49.74838" lon="2.32112">
        <ele>87</ele>
        <time>2023-03-01T14:48:13Z</time>
      </trkpt>
      <trkpt lat="49.74838" lon="2.32112">
        <ele>87</ele>
        <time>2023-03-01T14:48:14Z</time>
      </trkpt>
      <trkpt lat="49.74838" lon="2.32112">
        <ele>87</ele>
        <time>2023-03-01T14:48:15Z</time>
      </trkpt>
      <trkpt lat="49.74838" lon="2.32112">
        <ele>87</ele>
        <time>2023-03-01T14:48:16Z</time>
      </trkpt>
      <trkpt lat="49.74838" lon="2.32112">
        <ele>87</ele>
        <time>2023-03-01T14:48:18Z</time>
      </trkpt>
      <trkpt lat="49.74838" lon="2.32112">
        <ele>87</ele>
        <time>2023-03-01T14:48:19Z</time>
      </trkpt>
      <trkpt lat="49.74838" lon="2.32112">
        <ele>87</ele>
        <time>2023-03-01T14:48:20Z</time>
      </trkpt>
      <trkpt lat="49.74838" lon="2.32112">
        <ele>87</ele>
        <time>2023-03-01T14:48:21Z</time>
      </trkpt>
      <trkpt lat="49.74838" lon="2.32112">
        <ele>87</ele>
        <time>2023-03-01T14:48:22Z</time>
      </trkpt>
      <trkpt lat="49.74838" lon="2.32112">
        <ele>87</ele>
        <time>2023-03-01T14:48:23Z</time>
      </trkpt>
      <trkpt lat="49.74838" lon="2.32112">
        <ele>87</ele>
        <time>2023-03-01T14:48:24Z</time>
      </trkpt>
      <trkpt lat="49.74838" lon="2.32112">
        <ele>87</ele>
        <time>2023-03-01T14:48:25Z</time>
      </trkpt>
      <trkpt lat="49.74838" lon="2.32112">
        <ele>87</ele>
        <time>2023-03-01T14:48:26Z</time>
      </trkpt>
      <trkpt lat="49.74838" lon="2.32112">
        <ele>87</ele>
        <time>2023-03-01T14:48:27Z</time>
      </trkpt>
      <trkpt lat="49.74838" lon="2.32112">
        <ele>87</ele>
        <time>2023-03-01T14:48:29Z</time>
      </trkpt>
      <trkpt lat="49.74838" lon="2.32112">
        <ele>87</ele>
        <time>2023-03-01T14:48:30Z</time>
      </trkpt>
      <trkpt lat="49.74838" lon="2.32112">
        <ele>87</ele>
        <time>2023-03-01T14:48:32Z</time>
      </trkpt>
      <trkpt lat="49.74838" lon="2.32112">
        <ele>87</ele>
        <time>2023-03-01T14:48:33Z</time>
      </trkpt>
      <trkpt lat="49.74838" lon="2.32112">
        <ele>87</ele>
        <time>2023-03-01T14:48:34Z</time>
      </trkpt>
      <trkpt lat="49.74838" lon="2.32112">
        <ele>87</ele>
        <time>2023-03-01T14:48:35Z</time>
      </trkpt>
      <trkpt lat="49.74838" lon="2.32112">
        <ele>87</ele>
        <time>2023-03-01T14:48:36Z</time>
      </trkpt>
      <trkpt lat="49.74838" lon="2.32112">
        <ele>87</ele>
        <time>2023-03-01T14:48:37Z</time>
      </trkpt>
      <trkpt lat="49.74838" lon="2.32112">
        <ele>87</ele>
        <time>2023-03-01T14:48:38Z</time>
      </trkpt>
      <trkpt lat="49.74838" lon="2.32112">
        <ele>87</ele>
        <time>2023-03-01T14:48:40Z</time>
      </trkpt>
      <trkpt lat="49.74838" lon="2.32112">
        <ele>87</ele>
        <time>2023-03-01T14:48:41Z</time>
      </trkpt>
      <trkpt lat="49.74838" lon="2.32112">
        <ele>87</ele>
        <time>2023-03-01T14:48:43Z</time>
      </trkpt>
      <trkpt lat="49.74838" lon="2.32112">
        <ele>87</ele>
        <time>2023-03-01T14:48:44Z</time>
      </trkpt>
      <trkpt lat="49.74838" lon="2.32112">
        <ele>87</ele>
        <time>2023-03-01T14:48:46Z</time>
      </trkpt>
      <trkpt lat="49.74838" lon="2.32112">
        <ele>87</ele>
        <time>2023-03-01T14:48:48Z</time>
      </trkpt>
      <trkpt lat="49.74838" lon="2.32112">
        <ele>87</ele>
        <time>2023-03-01T14:48:49Z</time>
      </trkpt>
      <trkpt lat="49.74838" lon="2.32112">
        <ele>87</ele>
        <time>2023-03-01T14:48:50Z</time>
      </trkpt>
      <trkpt lat="49.74838" lon="2.32112">
        <ele>87</ele>
        <time>2023-03-01T14:48:52Z</time>
      </trkpt>
      <trkpt lat="49.74838" lon="2.32112">
        <ele>87</ele>
        <time>2023-03-01T14:48:53Z</time>
      </trkpt>
      <trkpt lat="49.74838" lon="2.32112">
        <ele>87</ele>
        <time>2023-03-01T14:48:54Z</time>
      </trkpt>
      <trkpt lat="49.74838" lon="2.32112">
        <ele>87</ele>
        <time>2023-03-01T14:48:55Z</time>
      </trkpt>
      <trkpt lat="49.74838" lon="2.32112">
        <ele>87</ele>
        <time>2023-03-01T14:48:57Z</time>
      </trkpt>
      <trkpt lat="49.74838" lon="2.32112">
        <ele>87</ele>
        <time>2023-03-01T14:48:58Z</time>
      </trkpt>
      <trkpt lat="49.74838" lon="2.32112">
        <ele>87</ele>
        <time>2023-03-01T14:48:59Z</time>
      </trkpt>
      <trkpt lat="49.74838" lon="2.32112">
        <ele>87</ele>
        <time>2023-03-01T14:49:00Z</time>
      </trkpt>
      <trkpt lat="49.74838" lon="2.32112">
        <ele>87</ele>
        <time>2023-03-01T14:49:02Z</time>
      </trkpt>
      <trkpt lat="49.74838" lon="2.32112">
        <ele>87</ele>
        <time>2023-03-01T14:49:03Z</time>
      </trkpt>
      <trkpt lat="49.74838" lon="2.32112">
        <ele>87</ele>
        <time>2023-03-01T14:49:04Z</time>
      </trkpt>
      <trkpt lat="49.74838" lon="2.32112">
        <ele>87</ele>
        <time>2023-03-01T14:49:05Z</time>
      </trkpt>
      <trkpt lat="49.74838" lon="2.32112">
        <ele>87</ele>
        <time>2023-03-01T14:49:06Z</time>
      </trkpt>
      <trkpt lat="49.74836" lon="2.32108">
        <ele>87.1</ele>
        <time>2023-03-01T14:49:07Z</time>
      </trkpt>
      <trkpt lat="49.74835" lon="2.32108">
        <ele>87.1</ele>
        <time>2023-03-01T14:49:08Z</time>
      </trkpt>
      <trkpt lat="49.74835" lon="2.32108">
        <ele>87.1</ele>
        <time>2023-03-01T14:49:09Z</time>
      </trkpt>
      <trkpt lat="49.74835" lon="2.32109">
        <ele>87.1</ele>
        <time>2023-03-01T14:49:10Z</time>
      </trkpt>
      <trkpt lat="49.74835" lon="2.3211">
        <ele>87.1</ele>
        <time>2023-03-01T14:49:11Z</time>
      </trkpt>
      <trkpt lat="49.74835" lon="2.32112">
        <ele>87.2</ele>
        <time>2023-03-01T14:49:12Z</time>
      </trkpt>
      <trkpt lat="49.74835" lon="2.32113">
        <ele>87.2</ele>
        <time>2023-03-01T14:49:14Z</time>
      </trkpt>
      <trkpt lat="49.74834" lon="2.32114">
        <ele>87.2</ele>
        <time>2023-03-01T14:49:15Z</time>
      </trkpt>
      <trkpt lat="49.74834" lon="2.32115">
        <ele>87.2</ele>
        <time>2023-03-01T14:49:16Z</time>
      </trkpt>
      <trkpt lat="49.74834" lon="2.32117">
        <ele>87.2</ele>
        <time>2023-03-01T14:49:17Z</time>
      </trkpt>
      <trkpt lat="49.74833" lon="2.3212">
        <ele>87.3</ele>
        <time>2023-03-01T14:49:18Z</time>
      </trkpt>
      <trkpt lat="49.74833" lon="2.32122">
        <ele>87.3</ele>
        <time>2023-03-01T14:49:19Z</time>
      </trkpt>
      <trkpt lat="49.74833" lon="2.32124">
        <ele>87.3</ele>
        <time>2023-03-01T14:49:20Z</time>
      </trkpt>
      <trkpt lat="49.74834" lon="2.32127">
        <ele>87.4</ele>
        <time>2023-03-01T14:49:22Z</time>
      </trkpt>
      <trkpt lat="49.74834" lon="2.32129">
        <ele>87.4</ele>
        <time>2023-03-01T14:49:23Z</time>
      </trkpt>
      <trkpt lat="49.74833" lon="2.32131">
        <ele>87.4</ele>
        <time>2023-03-01T14:49:24Z</time>
      </trkpt>
      <trkpt lat="49.74833" lon="2.32134">
        <ele>87.4</ele>
        <time>2023-03-01T14:49:25Z</time>
      </trkpt>
      <trkpt lat="49.74833" lon="2.32137">
        <ele>87.5</ele>
        <time>2023-03-01T14:49:27Z</time>
      </trkpt>
      <trkpt lat="49.74833" lon="2.3214">
        <ele>87.5</ele>
        <time>2023-03-01T14:49:29Z</time>
      </trkpt>
      <trkpt lat="49.74833" lon="2.32142">
        <ele>87.6</ele>
        <time>2023-03-01T14:49:30Z</time>
      </trkpt>
      <trkpt lat="49.74834" lon="2.32144">
        <ele>87.6</ele>
        <time>2023-03-01T14:49:31Z</time>
      </trkpt>
      <trkpt lat="49.74834" lon="2.32146">
        <ele>87.6</ele>
        <time>2023-03-01T14:49:32Z</time>
      </trkpt>
      <trkpt lat="49.74834" lon="2.32148">
        <ele>87.7</ele>
        <time>2023-03-01T14:49:33Z</time>
      </trkpt>
      <trkpt lat="49.74834" lon="2.3215">
        <ele>87.7</ele>
        <time>2023-03-01T14:49:34Z</time>
      </trkpt>
      <trkpt lat="49.74834" lon="2.32152">
        <ele>87.7</ele>
        <time>2023-03-01T14:49:36Z</time>
      </trkpt>
      <trkpt lat="49.74834" lon="2.32154">
        <ele>87.7</ele>
        <time>2023-03-01T14:49:37Z</time>
      </trkpt>
      <trkpt lat="49.74834" lon="2.32156">
        <ele>87.8</ele>
        <time>2023-03-01T14:49:38Z</time>
      </trkpt>
      <trkpt lat="49.74834" lon="2.32158">
        <ele>87.8</ele>
        <time>2023-03-01T14:49:39Z</time>
      </trkpt>
      <trkpt lat="49.74834" lon="2.32159">
        <ele>87.8</ele>
        <time>2023-03-01T14:49:41Z</time>
      </trkpt>
      <trkpt lat="49.74834" lon="2.32161">
        <ele>87.9</ele>
        <time>2023-03-01T14:49:42Z</time>
      </trkpt>
      <trkpt lat="49.74834" lon="2.32162">
        <ele>87.9</ele>
        <time>2023-03-01T14:49:43Z</time>
      </trkpt>
      <trkpt lat="49.74834" lon="2.32164">
        <ele>87.9</ele>
        <time>2023-03-01T14:49:44Z</time>
      </trkpt>
      <trkpt lat="49.74834" lon="2.32166">
        <ele>88</ele>
        <time>2023-03-01T14:49:45Z</time>
      </trkpt>
      <trkpt lat="49.74834" lon="2.32168">
        <ele>88</ele>
        <time>2023-03-01T14:49:46Z</time>
      </trkpt>
      <trkpt lat="49.74834" lon="2.32169">
        <ele>88</ele>
        <time>2023-03-01T14:49:47Z</time>
      </trkpt>
      <trkpt lat="49.74834" lon="2.32171">
        <ele>88.1</ele>
        <time>2023-03-01T14:49:48Z</time>
      </trkpt>
      <trkpt lat="49.74834" lon="2.32172">
        <ele>88.1</ele>
        <time>2023-03-01T14:49:50Z</time>
      </trkpt>
      <trkpt lat="49.74834" lon="2.32174">
        <ele>88.1</ele>
        <time>2023-03-01T14:49:51Z</time>
      </trkpt>
      <trkpt lat="49.74834" lon="2.32175">
        <ele>88.2</ele>
        <time>2023-03-01T14:49:52Z</time>
      </trkpt>
      <trkpt lat="49.74834" lon="2.32179">
        <ele>88.2</ele>
        <time>2023-03-01T14:49:53Z</time>
      </trkpt>
      <trkpt lat="49.74834" lon="2.3218">
        <ele>88.3</ele>
        <time>2023-03-01T14:49:54Z</time>
      </trkpt>
      <trkpt lat="49.74834" lon="2.32181">
        <ele>88.3</ele>
        <time>2023-03-01T14:49:55Z</time>
      </trkpt>
      <trkpt lat="49.74834" lon="2.32183">
        <ele>88.3</ele>
        <time>2023-03-01T14:49:56Z</time>
      </trkpt>
      <trkpt lat="49.74834" lon="2.32184">
        <ele>88.4</ele>
        <time>2023-03-01T14:49:58Z</time>
      </trkpt>
      <trkpt lat="49.74834" lon="2.32186">
        <ele>88.4</ele>
        <time>2023-03-01T14:49:59Z</time>
      </trkpt>
      <trkpt lat="49.74834" lon="2.32188">
        <ele>88.5</ele>
        <time>2023-03-01T14:50:00Z</time>
      </trkpt>
      <trkpt lat="49.74834" lon="2.3219">
        <ele>88.5</ele>
        <time>2023-03-01T14:50:01Z</time>
      </trkpt>
      <trkpt lat="49.74833" lon="2.32193">
        <ele>88.7</ele>
        <time>2023-03-01T14:50:02Z</time>
      </trkpt>
      <trkpt lat="49.74833" lon="2.32195">
        <ele>88.7</ele>
        <time>2023-03-01T14:50:03Z</time>
      </trkpt>
      <trkpt lat="49.74833" lon="2.32196">
        <ele>88.7</ele>
        <time>2023-03-01T14:50:04Z</time>
      </trkpt>
      <trkpt lat="49.74833" lon="2.32197">
        <ele>88.8</ele>
        <time>2023-03-01T14:50:06Z</time>
      </trkpt>
      <trkpt lat="49.74833" lon="2.32199">
        <ele>88.9</ele>
        <time>2023-03-01T14:50:07Z</time>
      </trkpt>
      <trkpt lat="49.74833" lon="2.32201">
        <ele>88.9</ele>
        <time>2023-03-01T14:50:08Z</time>
      </trkpt>
      <trkpt lat="49.74832" lon="2.32205">
        <ele>89.1</ele>
        <time>2023-03-01T14:50:09Z</time>
      </trkpt>
      <trkpt lat="49.74832" lon="2.32206">
        <ele>89.1</ele>
        <time>2023-03-01T14:50:10Z</time>
      </trkpt>
      <trkpt lat="49.74832" lon="2.32207">
        <ele>89.2</ele>
        <time>2023-03-01T14:50:11Z</time>
      </trkpt>
      <trkpt lat="49.74832" lon="2.32209">
        <ele>89.2</ele>
        <time>2023-03-01T14:50:12Z</time>
      </trkpt>
      <trkpt lat="49.74832" lon="2.3221">
        <ele>89.3</ele>
        <time>2023-03-01T14:50:14Z</time>
      </trkpt>
      <trkpt lat="49.74832" lon="2.32212">
        <ele>89.4</ele>
        <time>2023-03-01T14:50:15Z</time>
      </trkpt>
      <trkpt lat="49.74832" lon="2.32214">
        <ele>89.4</ele>
        <time>2023-03-01T14:50:16Z</time>
      </trkpt>
      <trkpt lat="49.74832" lon="2.32216">
        <ele>89.5</ele>
        <time>2023-03-01T14:50:17Z</time>
      </trkpt>
      <trkpt lat="49.74832" lon="2.32218">
        <ele>89.6</ele>
        <time>2023-03-01T14:50:18Z</time>
      </trkpt>
      <trkpt lat="49.74832" lon="2.32221">
        <ele>89.7</ele>
        <time>2023-03-01T14:50:20Z</time>
      </trkpt>
      <trkpt lat="49.74832" lon="2.32222">
        <ele>89.7</ele>
        <time>2023-03-01T14:50:21Z</time>
      </trkpt>
      <trkpt lat="49.74833" lon="2.32223">
        <ele>89.8</ele>
        <time>2023-03-01T14:50:22Z</time>
      </trkpt>
      <trkpt lat="49.74833" lon="2.32227">
        <ele>89.9</ele>
        <time>2023-03-01T14:50:23Z</time>
      </trkpt>
      <trkpt lat="49.74833" lon="2.32228">
        <ele>90</ele>
        <time>2023-03-01T14:50:24Z</time>
      </trkpt>
      <trkpt lat="49.74833" lon="2.32229">
        <ele>90</ele>
        <time>2023-03-01T14:50:25Z</time>
      </trkpt>
      <trkpt lat="49.74833" lon="2.32231">
        <ele>90.1</ele>
        <time>2023-03-01T14:50:27Z</time>
      </trkpt>
      <trkpt lat="49.74834" lon="2.32232">
        <ele>90.2</ele>
        <time>2023-03-01T14:50:28Z</time>
      </trkpt>
      <trkpt lat="49.74834" lon="2.32234">
        <ele>90.2</ele>
        <time>2023-03-01T14:50:29Z</time>
      </trkpt>
      <trkpt lat="49.74834" lon="2.32235">
        <ele>90.3</ele>
        <time>2023-03-01T14:50:30Z</time>
      </trkpt>
      <trkpt lat="49.74834" lon="2.32236">
        <ele>90.4</ele>
        <time>2023-03-01T14:50:31Z</time>
      </trkpt>
      <trkpt lat="49.74834" lon="2.32237">
        <ele>90.4</ele>
        <time>2023-03-01T14:50:32Z</time>
      </trkpt>
      <trkpt lat="49.74834" lon="2.32239">
        <ele>90.5</ele>
        <time>2023-03-01T14:50:34Z</time>
      </trkpt>
      <trkpt lat="49.74834" lon="2.3224">
        <ele>90.5</ele>
        <time>2023-03-01T14:50:35Z</time>
      </trkpt>
      <trkpt lat="49.74834" lon="2.32241">
        <ele>90.6</ele>
        <time>2023-03-01T14:50:36Z</time>
      </trkpt>
      <trkpt lat="49.74834" lon="2.32242">
        <ele>90.6</ele>
        <time>2023-03-01T14:50:37Z</time>
      </trkpt>
      <trkpt lat="49.74834" lon="2.32244">
        <ele>90.7</ele>
        <time>2023-03-01T14:50:38Z</time>
      </trkpt>
      <trkpt lat="49.74834" lon="2.32245">
        <ele>90.7</ele>
        <time>2023-03-01T14:50:39Z</time>
      </trkpt>
      <trkpt lat="49.74834" lon="2.32246">
        <ele>90.8</ele>
        <time>2023-03-01T14:50:40Z</time>
      </trkpt>
      <trkpt lat="49.74834" lon="2.32248">
        <ele>90.9</ele>
        <time>2023-03-01T14:50:42Z</time>
      </trkpt>
      <trkpt lat="49.74834" lon="2.32249">
        <ele>90.9</ele>
        <time>2023-03-01T14:50:43Z</time>
      </trkpt>
      <trkpt lat="49.74835" lon="2.32251">
        <ele>91</ele>
        <time>2023-03-01T14:50:44Z</time>
      </trkpt>
      <trkpt lat="49.74835" lon="2.32252">
        <ele>91</ele>
        <time>2023-03-01T14:50:45Z</time>
      </trkpt>
      <trkpt lat="49.74835" lon="2.32253">
        <ele>91.1</ele>
        <time>2023-03-01T14:50:46Z</time>
      </trkpt>
      <trkpt lat="49.74835" lon="2.32255">
        <ele>91.2</ele>
        <time>2023-03-01T14:50:48Z</time>
      </trkpt>
      <trkpt lat="49.74835" lon="2.32256">
        <ele>91.2</ele>
        <time>2023-03-01T14:50:49Z</time>
      </trkpt>
      <trkpt lat="49.74835" lon="2.32258">
        <ele>91.3</ele>
        <time>2023-03-01T14:50:50Z</time>
      </trkpt>
      <trkpt lat="49.74835" lon="2.32259">
        <ele>91.4</ele>
        <time>2023-03-01T14:50:51Z</time>
      </trkpt>
      <trkpt lat="49.74835" lon="2.32261">
        <ele>91.4</ele>
        <time>2023-03-01T14:50:52Z</time>
      </trkpt>
      <trkpt lat="49.74835" lon="2.32263">
        <ele>91.5</ele>
        <time>2023-03-01T14:50:53Z</time>
      </trkpt>
      <trkpt lat="49.74835" lon="2.32265">
        <ele>91.6</ele>
        <time>2023-03-01T14:50:55Z</time>
      </trkpt>
      <trkpt lat="49.74835" lon="2.32267">
        <ele>91.6</ele>
        <time>2023-03-01T14:50:56Z</time>
      </trkpt>
      <trkpt lat="49.74835" lon="2.32269">
        <ele>91.7</ele>
        <time>2023-03-01T14:50:57Z</time>
      </trkpt>
      <trkpt lat="49.74835" lon="2.32271">
        <ele>91.8</ele>
        <time>2023-03-01T14:50:58Z</time>
      </trkpt>
      <trkpt lat="49.74835" lon="2.32272">
        <ele>91.8</ele>
        <time>2023-03-01T14:50:59Z</time>
      </trkpt>
      <trkpt lat="49.74834" lon="2.32274">
        <ele>91.9</ele>
        <time>2023-03-01T14:51:00Z</time>
      </trkpt>
      <trkpt lat="49.74834" lon="2.32276">
        <ele>91.9</ele>
        <time>2023-03-01T14:51:02Z</time>
      </trkpt>
      <trkpt lat="49.74834" lon="2.32278">
        <ele>92</ele>
        <time>2023-03-01T14:51:03Z</time>
      </trkpt>
      <trkpt lat="49.74834" lon="2.32279">
        <ele>92</ele>
        <time>2023-03-01T14:51:04Z</time>
      </trkpt>
      <trkpt lat="49.74834" lon="2.32281">
        <ele>92.1</ele>
        <time>2023-03-01T14:51:05Z</time>
      </trkpt>
      <trkpt lat="49.74833" lon="2.32282">
        <ele>92.1</ele>
        <time>2023-03-01T14:51:06Z</time>
      </trkpt>
      <trkpt lat="49.74833" lon="2.32283">
        <ele>92.1</ele>
        <time>2023-03-01T14:51:07Z</time>
      </trkpt>
      <trkpt lat="49.74833" lon="2.32285">
        <ele>92.2</ele>
        <time>2023-03-01T14:51:08Z</time>
      </trkpt>
      <trkpt lat="49.74832" lon="2.32286">
        <ele>92.2</ele>
        <time>2023-03-01T14:51:09Z</time>
      </trkpt>
      <trkpt lat="49.74832" lon="2.32287">
        <ele>92.3</ele>
        <time>2023-03-01T14:51:11Z</time>
      </trkpt>
      <trkpt lat="49.74832" lon="2.32289">
        <ele>92.3</ele>
        <time>2023-03-01T14:51:12Z</time>
      </trkpt>
      <trkpt lat="49.74832" lon="2.3229">
        <ele>92.3</ele>
        <time>2023-03-01T14:51:13Z</time>
      </trkpt>
      <trkpt lat="49.74832" lon="2.32293">
        <ele>92.4</ele>
        <time>2023-03-01T14:51:14Z</time>
      </trkpt>
      <trkpt lat="49.74831" lon="2.32295">
        <ele>92.5</ele>
        <time>2023-03-01T14:51:15Z</time>
      </trkpt>
      <trkpt lat="49.74831" lon="2.32296">
        <ele>92.5</ele>
        <time>2023-03-01T14:51:17Z</time>
      </trkpt>
      <trkpt lat="49.74831" lon="2.32298">
        <ele>92.6</ele>
        <time>2023-03-01T14:51:18Z</time>
      </trkpt>
      <trkpt lat="49.74831" lon="2.32299">
        <ele>92.6</ele>
        <time>2023-03-01T14:51:19Z</time>
      </trkpt>
      <trkpt lat="49.7483" lon="2.32301">
        <ele>92.6</ele>
        <time>2023-03-01T14:51:20Z</time>
      </trkpt>
      <trkpt lat="49.7483" lon="2.32303">
        <ele>92.7</ele>
        <time>2023-03-01T14:51:21Z</time>
      </trkpt>
      <trkpt lat="49.7483" lon="2.32305">
        <ele>92.8</ele>
        <time>2023-03-01T14:51:22Z</time>
      </trkpt>
      <trkpt lat="49.7483" lon="2.32307">
        <ele>92.8</ele>
        <time>2023-03-01T14:51:23Z</time>
      </trkpt>
      <trkpt lat="49.7483" lon="2.3231">
        <ele>92.9</ele>
        <time>2023-03-01T14:51:25Z</time>
      </trkpt>
      <trkpt lat="49.7483" lon="2.32312">
        <ele>93</ele>
        <time>2023-03-01T14:51:26Z</time>
      </trkpt>
      <trkpt lat="49.7483" lon="2.32315">
        <ele>93.1</ele>
        <time>2023-03-01T14:51:27Z</time>
      </trkpt>
      <trkpt lat="49.7483" lon="2.32317">
        <ele>93.1</ele>
        <time>2023-03-01T14:51:28Z</time>
      </trkpt>
      <trkpt lat="49.7483" lon="2.32319">
        <ele>93.2</ele>
        <time>2023-03-01T14:51:29Z</time>
      </trkpt>
      <trkpt lat="49.7483" lon="2.32321">
        <ele>93.3</ele>
        <time>2023-03-01T14:51:31Z</time>
      </trkpt>
      <trkpt lat="49.7483" lon="2.32323">
        <ele>93.3</ele>
        <time>2023-03-01T14:51:32Z</time>
      </trkpt>
      <trkpt lat="49.7483" lon="2.32325">
        <ele>93.4</ele>
        <time>2023-03-01T14:51:33Z</time>
      </trkpt>
      <trkpt lat="49.7483" lon="2.32326">
        <ele>93.4</ele>
        <time>2023-03-01T14:51:34Z</time>
      </trkpt>
      <trkpt lat="49.74829" lon="2.32327">
        <ele>93.5</ele>
        <time>2023-03-01T14:51:35Z</time>
      </trkpt>
      <trkpt lat="49.74829" lon="2.32328">
        <ele>93.5</ele>
        <time>2023-03-01T14:51:36Z</time>
      </trkpt>
      <trkpt lat="49.74829" lon="2.3233">
        <ele>93.6</ele>
        <time>2023-03-01T14:51:37Z</time>
      </trkpt>
      <trkpt lat="49.74829" lon="2.32331">
        <ele>93.6</ele>
        <time>2023-03-01T14:51:38Z</time>
      </trkpt>
      <trkpt lat="49.74829" lon="2.32333">
        <ele>93.7</ele>
        <time>2023-03-01T14:51:40Z</time>
      </trkpt>
      <trkpt lat="49.74828" lon="2.32334">
        <ele>93.7</ele>
        <time>2023-03-01T14:51:41Z</time>
      </trkpt>
      <trkpt lat="49.74828" lon="2.32336">
        <ele>93.8</ele>
        <time>2023-03-01T14:51:42Z</time>
      </trkpt>
      <trkpt lat="49.74828" lon="2.32337">
        <ele>93.8</ele>
        <time>2023-03-01T14:51:43Z</time>
      </trkpt>
      <trkpt lat="49.74827" lon="2.32339">
        <ele>93.9</ele>
        <time>2023-03-01T14:51:44Z</time>
      </trkpt>
      <trkpt lat="49.74827" lon="2.3234">
        <ele>93.9</ele>
        <time>2023-03-01T14:51:46Z</time>
      </trkpt>
      <trkpt lat="49.74826" lon="2.32342">
        <ele>94</ele>
        <time>2023-03-01T14:51:47Z</time>
      </trkpt>
      <trkpt lat="49.74826" lon="2.32344">
        <ele>94</ele>
        <time>2023-03-01T14:51:48Z</time>
      </trkpt>
      <trkpt lat="49.74826" lon="2.32345">
        <ele>94.1</ele>
        <time>2023-03-01T14:51:49Z</time>
      </trkpt>
      <trkpt lat="49.74825" lon="2.32349">
        <ele>94.2</ele>
        <time>2023-03-01T14:51:51Z</time>
      </trkpt>
      <trkpt lat="49.74825" lon="2.3235">
        <ele>94.3</ele>
        <time>2023-03-01T14:51:52Z</time>
      </trkpt>
      <trkpt lat="49.74825" lon="2.32351">
        <ele>94.3</ele>
        <time>2023-03-01T14:51:53Z</time>
      </trkpt>
      <trkpt lat="49.74824" lon="2.32353">
        <ele>94.4</ele>
        <time>2023-03-01T14:51:54Z</time>
      </trkpt>
      <trkpt lat="49.74824" lon="2.32355">
        <ele>94.4</ele>
        <time>2023-03-01T14:51:55Z</time>
      </trkpt>
      <trkpt lat="49.74824" lon="2.32357">
        <ele>94.5</ele>
        <time>2023-03-01T14:51:56Z</time>
      </trkpt>
      <trkpt lat="49.74823" lon="2.32359">
        <ele>94.6</ele>
        <time>2023-03-01T14:51:57Z</time>
      </trkpt>
      <trkpt lat="49.74823" lon="2.3236">
        <ele>94.6</ele>
        <time>2023-03-01T14:51:58Z</time>
      </trkpt>
      <trkpt lat="49.74824" lon="2.32362">
        <ele>94.7</ele>
        <time>2023-03-01T14:51:59Z</time>
      </trkpt>
      <trkpt lat="49.74824" lon="2.32364">
        <ele>94.8</ele>
        <time>2023-03-01T14:52:01Z</time>
      </trkpt>
      <trkpt lat="49.74823" lon="2.32366">
        <ele>94.9</ele>
        <time>2023-03-01T14:52:02Z</time>
      </trkpt>
      <trkpt lat="49.74823" lon="2.32369">
        <ele>94.9</ele>
        <time>2023-03-01T14:52:03Z</time>
      </trkpt>
      <trkpt lat="49.74823" lon="2.3237">
        <ele>95</ele>
        <time>2023-03-01T14:52:04Z</time>
      </trkpt>
      <trkpt lat="49.74823" lon="2.32372">
        <ele>95.1</ele>
        <time>2023-03-01T14:52:05Z</time>
      </trkpt>
      <trkpt lat="49.74823" lon="2.32375">
        <ele>95.2</ele>
        <time>2023-03-01T14:52:06Z</time>
      </trkpt>
      <trkpt lat="49.74822" lon="2.32376">
        <ele>95.2</ele>
        <time>2023-03-01T14:52:08Z</time>
      </trkpt>
      <trkpt lat="49.74822" lon="2.32378">
        <ele>95.3</ele>
        <time>2023-03-01T14:52:09Z</time>
      </trkpt>
      <trkpt lat="49.74822" lon="2.3238">
        <ele>95.4</ele>
        <time>2023-03-01T14:52:10Z</time>
      </trkpt>
      <trkpt lat="49.74822" lon="2.32381">
        <ele>95.4</ele>
        <time>2023-03-01T14:52:11Z</time>
      </trkpt>
      <trkpt lat="49.74821" lon="2.32382">
        <ele>95.5</ele>
        <time>2023-03-01T14:52:12Z</time>
      </trkpt>
      <trkpt lat="49.74821" lon="2.32383">
        <ele>95.5</ele>
        <time>2023-03-01T14:52:13Z</time>
      </trkpt>
      <trkpt lat="49.7482" lon="2.32385">
        <ele>95.6</ele>
        <time>2023-03-01T14:52:15Z</time>
      </trkpt>
      <trkpt lat="49.7482" lon="2.32386">
        <ele>95.6</ele>
        <time>2023-03-01T14:52:16Z</time>
      </trkpt>
      <trkpt lat="49.7482" lon="2.32388">
        <ele>95.7</ele>
        <time>2023-03-01T14:52:17Z</time>
      </trkpt>
      <trkpt lat="49.74819" lon="2.32389">
        <ele>95.8</ele>
        <time>2023-03-01T14:52:18Z</time>
      </trkpt>
      <trkpt lat="49.74818" lon="2.32391">
        <ele>95.8</ele>
        <time>2023-03-01T14:52:19Z</time>
      </trkpt>
      <trkpt lat="49.74817" lon="2.32393">
        <ele>95.9</ele>
        <time>2023-03-01T14:52:20Z</time>
      </trkpt>
      <trkpt lat="49.74817" lon="2.32394">
        <ele>95.9</ele>
        <time>2023-03-01T14:52:22Z</time>
      </trkpt>
      <trkpt lat="49.74816" lon="2.32395">
        <ele>96</ele>
        <time>2023-03-01T14:52:23Z</time>
      </trkpt>
      <trkpt lat="49.74815" lon="2.32396">
        <ele>96.1</ele>
        <time>2023-03-01T14:52:24Z</time>
      </trkpt>
      <trkpt lat="49.74814" lon="2.32398">
        <ele>96.1</ele>
        <time>2023-03-01T14:52:25Z</time>
      </trkpt>
      <trkpt lat="49.74814" lon="2.32399">
        <ele>96.1</ele>
        <time>2023-03-01T14:52:26Z</time>
      </trkpt>
      <trkpt lat="49.74813" lon="2.324">
        <ele>96.2</ele>
        <time>2023-03-01T14:52:27Z</time>
      </trkpt>
      <trkpt lat="49.74812" lon="2.32401">
        <ele>96.2</ele>
        <time>2023-03-01T14:52:28Z</time>
      </trkpt>
      <trkpt lat="49.74812" lon="2.32402">
        <ele>96.3</ele>
        <time>2023-03-01T14:52:30Z</time>
      </trkpt>
      <trkpt lat="49.74811" lon="2.32404">
        <ele>96.3</ele>
        <time>2023-03-01T14:52:31Z</time>
      </trkpt>
      <trkpt lat="49.7481" lon="2.32405">
        <ele>96.4</ele>
        <time>2023-03-01T14:52:32Z</time>
      </trkpt>
      <trkpt lat="49.7481" lon="2.32406">
        <ele>96.4</ele>
        <time>2023-03-01T14:52:33Z</time>
      </trkpt>
      <trkpt lat="49.74809" lon="2.32408">
        <ele>96.5</ele>
        <time>2023-03-01T14:52:34Z</time>
      </trkpt>
      <trkpt lat="49.74808" lon="2.32409">
        <ele>96.5</ele>
        <time>2023-03-01T14:52:35Z</time>
      </trkpt>
      <trkpt lat="49.74808" lon="2.32411">
        <ele>96.6</ele>
        <time>2023-03-01T14:52:36Z</time>
      </trkpt>
      <trkpt lat="49.74808" lon="2.32412">
        <ele>96.6</ele>
        <time>2023-03-01T14:52:38Z</time>
      </trkpt>
      <trkpt lat="49.74807" lon="2.32414">
        <ele>96.7</ele>
        <time>2023-03-01T14:52:39Z</time>
      </trkpt>
      <trkpt lat="49.74806" lon="2.32415">
        <ele>96.7</ele>
        <time>2023-03-01T14:52:40Z</time>
      </trkpt>
      <trkpt lat="49.74806" lon="2.32416">
        <ele>96.8</ele>
        <time>2023-03-01T14:52:41Z</time>
      </trkpt>
      <trkpt lat="49.74805" lon="2.32417">
        <ele>96.8</ele>
        <time>2023-03-01T14:52:42Z</time>
      </trkpt>
      <trkpt lat="49.74804" lon="2.32418">
        <ele>96.8</ele>
        <time>2023-03-01T14:52:43Z</time>
      </trkpt>
      <trkpt lat="49.74804" lon="2.32419">
        <ele>96.9</ele>
        <time>2023-03-01T14:52:44Z</time>
      </trkpt>
      <trkpt lat="49.74803" lon="2.3242">
        <ele>96.9</ele>
        <time>2023-03-01T14:52:46Z</time>
      </trkpt>
      <trkpt lat="49.74803" lon="2.32422">
        <ele>97</ele>
        <time>2023-03-01T14:52:47Z</time>
      </trkpt>
      <trkpt lat="49.74802" lon="2.32423">
        <ele>97</ele>
        <time>2023-03-01T14:52:48Z</time>
      </trkpt>
      <trkpt lat="49.74802" lon="2.32424">
        <ele>97</ele>
        <time>2023-03-01T14:52:49Z</time>
      </trkpt>
      <trkpt lat="49.74801" lon="2.32426">
        <ele>97.1</ele>
        <time>2023-03-01T14:52:50Z</time>
      </trkpt>
      <trkpt lat="49.748" lon="2.32427">
        <ele>97.1</ele>
        <time>2023-03-01T14:52:52Z</time>
      </trkpt>
      <trkpt lat="49.748" lon="2.32428">
        <ele>97.2</ele>
        <time>2023-03-01T14:52:53Z</time>
      </trkpt>
      <trkpt lat="49.74799" lon="2.32429">
        <ele>97.2</ele>
        <time>2023-03-01T14:52:54Z</time>
      </trkpt>
      <trkpt lat="49.74799" lon="2.32431">
        <ele>97.3</ele>
        <time>2023-03-01T14:52:55Z</time>
      </trkpt>
      <trkpt lat="49.74798" lon="2.32432">
        <ele>97.3</ele>
        <time>2023-03-01T14:52:56Z</time>
      </trkpt>
      <trkpt lat="49.74797" lon="2.32433">
        <ele>97.4</ele>
        <time>2023-03-01T14:52:57Z</time>
      </trkpt>
      <trkpt lat="49.74796" lon="2.32435">
        <ele>97.4</ele>
        <time>2023-03-01T14:52:58Z</time>
      </trkpt>
      <trkpt lat="49.74796" lon="2.32436">
        <ele>97.5</ele>
        <time>2023-03-01T14:52:59Z</time>
      </trkpt>
      <trkpt lat="49.74795" lon="2.32437">
        <ele>97.5</ele>
        <time>2023-03-01T14:53:01Z</time>
      </trkpt>
      <trkpt lat="49.74794" lon="2.32439">
        <ele>97.6</ele>
        <time>2023-03-01T14:53:02Z</time>
      </trkpt>
      <trkpt lat="49.74794" lon="2.3244">
        <ele>97.6</ele>
        <time>2023-03-01T14:53:03Z</time>
      </trkpt>
      <trkpt lat="49.74793" lon="2.32441">
        <ele>97.7</ele>
        <time>2023-03-01T14:53:04Z</time>
      </trkpt>
      <trkpt lat="49.74792" lon="2.32442">
        <ele>97.7</ele>
        <time>2023-03-01T14:53:05Z</time>
      </trkpt>
      <trkpt lat="49.74792" lon="2.32443">
        <ele>97.8</ele>
        <time>2023-03-01T14:53:06Z</time>
      </trkpt>
      <trkpt lat="49.74792" lon="2.32444">
        <ele>97.8</ele>
        <time>2023-03-01T14:53:07Z</time>
      </trkpt>
      <trkpt lat="49.74791" lon="2.32445">
        <ele>97.9</ele>
        <time>2023-03-01T14:53:09Z</time>
      </trkpt>
      <trkpt lat="49.7479" lon="2.32446">
        <ele>97.9</ele>
        <time>2023-03-01T14:53:10Z</time>
      </trkpt>
      <trkpt lat="49.74789" lon="2.32448">
        <ele>98</ele>
        <time>2023-03-01T14:53:11Z</time>
      </trkpt>
      <trkpt lat="49.74789" lon="2.32449">
        <ele>98</ele>
        <time>2023-03-01T14:53:12Z</time>
      </trkpt>
      <trkpt lat="49.74788" lon="2.3245">
        <ele>98.1</ele>
        <time>2023-03-01T14:53:13Z</time>
      </trkpt>
      <trkpt lat="49.74788" lon="2.32451">
        <ele>98.1</ele>
        <time>2023-03-01T14:53:14Z</time>
      </trkpt>
      <trkpt lat="49.74786" lon="2.32454">
        <ele>98.3</ele>
        <time>2023-03-01T14:53:15Z</time>
      </trkpt>
      <trkpt lat="49.74785" lon="2.32456">
        <ele>98.4</ele>
        <time>2023-03-01T14:53:17Z</time>
      </trkpt>
      <trkpt lat="49.74784" lon="2.32458">
        <ele>98.5</ele>
        <time>2023-03-01T14:53:18Z</time>
      </trkpt>
      <trkpt lat="49.74783" lon="2.32459">
        <ele>98.5</ele>
        <time>2023-03-01T14:53:19Z</time>
      </trkpt>
      <trkpt lat="49.74781" lon="2.32463">
        <ele>98.7</ele>
        <time>2023-03-01T14:53:21Z</time>
      </trkpt>
      <trkpt lat="49.7478" lon="2.32464">
        <ele>98.8</ele>
        <time>2023-03-01T14:53:22Z</time>
      </trkpt>
      <trkpt lat="49.74778" lon="2.32467">
        <ele>98.9</ele>
        <time>2023-03-01T14:53:23Z</time>
      </trkpt>
      <trkpt lat="49.74778" lon="2.32468">
        <ele>99</ele>
        <time>2023-03-01T14:53:24Z</time>
      </trkpt>
      <trkpt lat="49.74776" lon="2.3247">
        <ele>99.1</ele>
        <time>2023-03-01T14:53:25Z</time>
      </trkpt>
      <trkpt lat="49.74775" lon="2.32471">
        <ele>99.2</ele>
        <time>2023-03-01T14:53:26Z</time>
      </trkpt>
      <trkpt lat="49.74774" lon="2.32473">
        <ele>99.3</ele>
        <time>2023-03-01T14:53:27Z</time>
      </trkpt>
      <trkpt lat="49.74773" lon="2.32475">
        <ele>99.4</ele>
        <time>2023-03-01T14:53:29Z</time>
      </trkpt>
      <trkpt lat="49.74772" lon="2.32477">
        <ele>99.5</ele>
        <time>2023-03-01T14:53:30Z</time>
      </trkpt>
      <trkpt lat="49.74771" lon="2.32479">
        <ele>99.6</ele>
        <time>2023-03-01T14:53:31Z</time>
      </trkpt>
      <trkpt lat="49.74769" lon="2.3248">
        <ele>99.6</ele>
        <time>2023-03-01T14:53:32Z</time>
      </trkpt>
      <trkpt lat="49.74769" lon="2.32481">
        <ele>99.7</ele>
        <time>2023-03-01T14:53:33Z</time>
      </trkpt>
      <trkpt lat="49.74767" lon="2.32483">
        <ele>99.8</ele>
        <time>2023-03-01T14:53:35Z</time>
      </trkpt>
      <trkpt lat="49.74766" lon="2.32485">
        <ele>99.8</ele>
        <time>2023-03-01T14:53:36Z</time>
      </trkpt>
      <trkpt lat="49.74765" lon="2.32487">
        <ele>100</ele>
        <time>2023-03-01T14:53:37Z</time>
      </trkpt>
      <trkpt lat="49.74764" lon="2.32488">
        <ele>100</ele>
        <time>2023-03-01T14:53:38Z</time>
      </trkpt>
      <trkpt lat="49.74764" lon="2.32489">
        <ele>100</ele>
        <time>2023-03-01T14:53:39Z</time>
      </trkpt>
      <trkpt lat="49.74763" lon="2.3249">
        <ele>100.1</ele>
        <time>2023-03-01T14:53:40Z</time>
      </trkpt>
      <trkpt lat="49.74762" lon="2.32492">
        <ele>100.2</ele>
        <time>2023-03-01T14:53:42Z</time>
      </trkpt>
      <trkpt lat="49.74761" lon="2.32494">
        <ele>100.2</ele>
        <time>2023-03-01T14:53:43Z</time>
      </trkpt>
      <trkpt lat="49.74759" lon="2.32495">
        <ele>100.3</ele>
        <time>2023-03-01T14:53:44Z</time>
      </trkpt>
      <trkpt lat="49.74759" lon="2.32496">
        <ele>100.3</ele>
        <time>2023-03-01T14:53:45Z</time>
      </trkpt>
      <trkpt lat="49.74758" lon="2.32497">
        <ele>100.4</ele>
        <time>2023-03-01T14:53:46Z</time>
      </trkpt>
      <trkpt lat="49.74757" lon="2.32498">
        <ele>100.4</ele>
        <time>2023-03-01T14:53:47Z</time>
      </trkpt>
      <trkpt lat="49.74756" lon="2.325">
        <ele>100.5</ele>
        <time>2023-03-01T14:53:49Z</time>
      </trkpt>
      <trkpt lat="49.74755" lon="2.32502">
        <ele>100.6</ele>
        <time>2023-03-01T14:53:50Z</time>
      </trkpt>
      <trkpt lat="49.74754" lon="2.32503">
        <ele>100.6</ele>
        <time>2023-03-01T14:53:51Z</time>
      </trkpt>
      <trkpt lat="49.74754" lon="2.32505">
        <ele>100.7</ele>
        <time>2023-03-01T14:53:52Z</time>
      </trkpt>
      <trkpt lat="49.74753" lon="2.32506">
        <ele>100.7</ele>
        <time>2023-03-01T14:53:53Z</time>
      </trkpt>
      <trkpt lat="49.74752" lon="2.32509">
        <ele>100.8</ele>
        <time>2023-03-01T14:53:55Z</time>
      </trkpt>
      <trkpt lat="49.74751" lon="2.3251">
        <ele>100.9</ele>
        <time>2023-03-01T14:53:56Z</time>
      </trkpt>
      <trkpt lat="49.74751" lon="2.32511">
        <ele>100.9</ele>
        <time>2023-03-01T14:53:57Z</time>
      </trkpt>
      <trkpt lat="49.74749" lon="2.32513">
        <ele>101</ele>
        <time>2023-03-01T14:53:58Z</time>
      </trkpt>
      <trkpt lat="49.74749" lon="2.32514">
        <ele>101</ele>
        <time>2023-03-01T14:53:59Z</time>
      </trkpt>
      <trkpt lat="49.74748" lon="2.32515">
        <ele>101.1</ele>
        <time>2023-03-01T14:54:00Z</time>
      </trkpt>
      <trkpt lat="49.74748" lon="2.32516">
        <ele>101.1</ele>
        <time>2023-03-01T14:54:01Z</time>
      </trkpt>
      <trkpt lat="49.74747" lon="2.32517">
        <ele>101.1</ele>
        <time>2023-03-01T14:54:03Z</time>
      </trkpt>
      <trkpt lat="49.74746" lon="2.32519">
        <ele>101.2</ele>
        <time>2023-03-01T14:54:04Z</time>
      </trkpt>
      <trkpt lat="49.74746" lon="2.32521">
        <ele>101.3</ele>
        <time>2023-03-01T14:54:05Z</time>
      </trkpt>
      <trkpt lat="49.74745" lon="2.32522">
        <ele>101.3</ele>
        <time>2023-03-01T14:54:06Z</time>
      </trkpt>
      <trkpt lat="49.74744" lon="2.32523">
        <ele>101.4</ele>
        <time>2023-03-01T14:54:07Z</time>
      </trkpt>
      <trkpt lat="49.74743" lon="2.32525">
        <ele>101.4</ele>
        <time>2023-03-01T14:54:08Z</time>
      </trkpt>
      <trkpt lat="49.74743" lon="2.32526">
        <ele>101.5</ele>
        <time>2023-03-01T14:54:09Z</time>
      </trkpt>
      <trkpt lat="49.74742" lon="2.32528">
        <ele>101.6</ele>
        <time>2023-03-01T14:54:11Z</time>
      </trkpt>
      <trkpt lat="49.74741" lon="2.32529">
        <ele>101.6</ele>
        <time>2023-03-01T14:54:12Z</time>
      </trkpt>
      <trkpt lat="49.7474" lon="2.3253">
        <ele>101.7</ele>
        <time>2023-03-01T14:54:13Z</time>
      </trkpt>
      <trkpt lat="49.7474" lon="2.32532">
        <ele>101.7</ele>
        <time>2023-03-01T14:54:14Z</time>
      </trkpt>
      <trkpt lat="49.74739" lon="2.32534">
        <ele>101.8</ele>
        <time>2023-03-01T14:54:15Z</time>
      </trkpt>
      <trkpt lat="49.74738" lon="2.32536">
        <ele>101.8</ele>
        <time>2023-03-01T14:54:16Z</time>
      </trkpt>
      <trkpt lat="49.74738" lon="2.32537">
        <ele>101.9</ele>
        <time>2023-03-01T14:54:17Z</time>
      </trkpt>
      <trkpt lat="49.74738" lon="2.32538">
        <ele>101.9</ele>
        <time>2023-03-01T14:54:19Z</time>
      </trkpt>
      <trkpt lat="49.74738" lon="2.3254">
        <ele>102</ele>
        <time>2023-03-01T14:54:20Z</time>
      </trkpt>
      <trkpt lat="49.74737" lon="2.32543">
        <ele>102.1</ele>
        <time>2023-03-01T14:54:21Z</time>
      </trkpt>
      <trkpt lat="49.74737" lon="2.32544">
        <ele>102.1</ele>
        <time>2023-03-01T14:54:22Z</time>
      </trkpt>
      <trkpt lat="49.74736" lon="2.32545">
        <ele>102.2</ele>
        <time>2023-03-01T14:54:23Z</time>
      </trkpt>
      <trkpt lat="49.74736" lon="2.32547">
        <ele>102.2</ele>
        <time>2023-03-01T14:54:24Z</time>
      </trkpt>
      <trkpt lat="49.74736" lon="2.32548">
        <ele>102.2</ele>
        <time>2023-03-01T14:54:26Z</time>
      </trkpt>
      <trkpt lat="49.74735" lon="2.3255">
        <ele>102.3</ele>
        <time>2023-03-01T14:54:27Z</time>
      </trkpt>
      <trkpt lat="49.74735" lon="2.32553">
        <ele>102.4</ele>
        <time>2023-03-01T14:54:28Z</time>
      </trkpt>
      <trkpt lat="49.74734" lon="2.32554">
        <ele>102.4</ele>
        <time>2023-03-01T14:54:29Z</time>
      </trkpt>
      <trkpt lat="49.74734" lon="2.32555">
        <ele>102.5</ele>
        <time>2023-03-01T14:54:30Z</time>
      </trkpt>
      <trkpt lat="49.74734" lon="2.32558">
        <ele>102.5</ele>
        <time>2023-03-01T14:54:31Z</time>
      </trkpt>
      <trkpt lat="49.74734" lon="2.32559">
        <ele>102.6</ele>
        <time>2023-03-01T14:54:32Z</time>
      </trkpt>
      <trkpt lat="49.74733" lon="2.3256">
        <ele>102.6</ele>
        <time>2023-03-01T14:54:33Z</time>
      </trkpt>
      <trkpt lat="49.74733" lon="2.32562">
        <ele>102.7</ele>
        <time>2023-03-01T14:54:34Z</time>
      </trkpt>
      <trkpt lat="49.74733" lon="2.32564">
        <ele>102.7</ele>
        <time>2023-03-01T14:54:36Z</time>
      </trkpt>
      <trkpt lat="49.74733" lon="2.32565">
        <ele>102.7</ele>
        <time>2023-03-01T14:54:37Z</time>
      </trkpt>
      <trkpt lat="49.74732" lon="2.32568">
        <ele>102.8</ele>
        <time>2023-03-01T14:54:38Z</time>
      </trkpt>
      <trkpt lat="49.74732" lon="2.3257">
        <ele>102.9</ele>
        <time>2023-03-01T14:54:39Z</time>
      </trkpt>
      <trkpt lat="49.74732" lon="2.32571">
        <ele>102.9</ele>
        <time>2023-03-01T14:54:40Z</time>
      </trkpt>
      <trkpt lat="49.74731" lon="2.32572">
        <ele>102.9</ele>
        <time>2023-03-01T14:54:41Z</time>
      </trkpt>
      <trkpt lat="49.74731" lon="2.32574">
        <ele>103</ele>
        <time>2023-03-01T14:54:42Z</time>
      </trkpt>
      <trkpt lat="49.74731" lon="2.32575">
        <ele>103</ele>
        <time>2023-03-01T14:54:44Z</time>
      </trkpt>
      <trkpt lat="49.7473" lon="2.32577">
        <ele>103.1</ele>
        <time>2023-03-01T14:54:45Z</time>
      </trkpt>
      <trkpt lat="49.7473" lon="2.32579">
        <ele>103.1</ele>
        <time>2023-03-01T14:54:46Z</time>
      </trkpt>
      <trkpt lat="49.74729" lon="2.3258">
        <ele>103.2</ele>
        <time>2023-03-01T14:54:47Z</time>
      </trkpt>
      <trkpt lat="49.74729" lon="2.32583">
        <ele>103.2</ele>
        <time>2023-03-01T14:54:48Z</time>
      </trkpt>
      <trkpt lat="49.74729" lon="2.32585">
        <ele>103.3</ele>
        <time>2023-03-01T14:54:49Z</time>
      </trkpt>
      <trkpt lat="49.74728" lon="2.32586">
        <ele>103.3</ele>
        <time>2023-03-01T14:54:50Z</time>
      </trkpt>
      <trkpt lat="49.74727" lon="2.32589">
        <ele>103.4</ele>
        <time>2023-03-01T14:54:51Z</time>
      </trkpt>
      <trkpt lat="49.74727" lon="2.3259">
        <ele>103.4</ele>
        <time>2023-03-01T14:54:53Z</time>
      </trkpt>
      <trkpt lat="49.74727" lon="2.32591">
        <ele>103.4</ele>
        <time>2023-03-01T14:54:54Z</time>
      </trkpt>
      <trkpt lat="49.74726" lon="2.32593">
        <ele>103.5</ele>
        <time>2023-03-01T14:54:55Z</time>
      </trkpt>
      <trkpt lat="49.74725" lon="2.32595">
        <ele>103.5</ele>
        <time>2023-03-01T14:54:56Z</time>
      </trkpt>
      <trkpt lat="49.74725" lon="2.32597">
        <ele>103.6</ele>
        <time>2023-03-01T14:54:57Z</time>
      </trkpt>
      <trkpt lat="49.74724" lon="2.32599">
        <ele>103.6</ele>
        <time>2023-03-01T14:54:58Z</time>
      </trkpt>
      <trkpt lat="49.74724" lon="2.326">
        <ele>103.7</ele>
        <time>2023-03-01T14:55:00Z</time>
      </trkpt>
      <trkpt lat="49.74723" lon="2.32602">
        <ele>103.7</ele>
        <time>2023-03-01T14:55:01Z</time>
      </trkpt>
      <trkpt lat="49.74723" lon="2.32604">
        <ele>103.7</ele>
        <time>2023-03-01T14:55:02Z</time>
      </trkpt>
      <trkpt lat="49.74722" lon="2.32608">
        <ele>103.8</ele>
        <time>2023-03-01T14:55:03Z</time>
      </trkpt>
      <trkpt lat="49.74722" lon="2.32609">
        <ele>103.8</ele>
        <time>2023-03-01T14:55:05Z</time>
      </trkpt>
      <trkpt lat="49.74721" lon="2.32611">
        <ele>103.9</ele>
        <time>2023-03-01T14:55:06Z</time>
      </trkpt>
      <trkpt lat="49.74721" lon="2.32612">
        <ele>103.9</ele>
        <time>2023-03-01T14:55:07Z</time>
      </trkpt>
      <trkpt lat="49.74721" lon="2.32614">
        <ele>103.9</ele>
        <time>2023-03-01T14:55:08Z</time>
      </trkpt>
      <trkpt lat="49.7472" lon="2.32617">
        <ele>104</ele>
        <time>2023-03-01T14:55:09Z</time>
      </trkpt>
      <trkpt lat="49.7472" lon="2.32618">
        <ele>104</ele>
        <time>2023-03-01T14:55:10Z</time>
      </trkpt>
      <trkpt lat="49.74719" lon="2.32619">
        <ele>104</ele>
        <time>2023-03-01T14:55:11Z</time>
      </trkpt>
      <trkpt lat="49.74718" lon="2.32622">
        <ele>104.1</ele>
        <time>2023-03-01T14:55:12Z</time>
      </trkpt>
      <trkpt lat="49.74718" lon="2.32623">
        <ele>104.1</ele>
        <time>2023-03-01T14:55:14Z</time>
      </trkpt>
      <trkpt lat="49.74717" lon="2.32624">
        <ele>104.1</ele>
        <time>2023-03-01T14:55:15Z</time>
      </trkpt>
      <trkpt lat="49.74716" lon="2.32627">
        <ele>104.2</ele>
        <time>2023-03-01T14:55:16Z</time>
      </trkpt>
      <trkpt lat="49.74716" lon="2.32629">
        <ele>104.2</ele>
        <time>2023-03-01T14:55:17Z</time>
      </trkpt>
      <trkpt lat="49.74715" lon="2.3263">
        <ele>104.2</ele>
        <time>2023-03-01T14:55:18Z</time>
      </trkpt>
      <trkpt lat="49.74715" lon="2.32631">
        <ele>104.2</ele>
        <time>2023-03-01T14:55:20Z</time>
      </trkpt>
      <trkpt lat="49.74714" lon="2.32632">
        <ele>104.3</ele>
        <time>2023-03-01T14:55:21Z</time>
      </trkpt>
      <trkpt lat="49.74714" lon="2.32634">
        <ele>104.3</ele>
        <time>2023-03-01T14:55:22Z</time>
      </trkpt>
      <trkpt lat="49.74713" lon="2.32635">
        <ele>104.3</ele>
        <time>2023-03-01T14:55:23Z</time>
      </trkpt>
      <trkpt lat="49.74713" lon="2.32637">
        <ele>104.3</ele>
        <time>2023-03-01T14:55:24Z</time>
      </trkpt>
      <trkpt lat="49.74712" lon="2.32639">
        <ele>104.3</ele>
        <time>2023-03-01T14:55:25Z</time>
      </trkpt>
      <trkpt lat="49.74712" lon="2.3264">
        <ele>104.4</ele>
        <time>2023-03-01T14:55:26Z</time>
      </trkpt>
      <trkpt lat="49.74711" lon="2.32642">
        <ele>104.4</ele>
        <time>2023-03-01T14:55:27Z</time>
      </trkpt>
      <trkpt lat="49.74711" lon="2.32643">
        <ele>104.4</ele>
        <time>2023-03-01T14:55:29Z</time>
      </trkpt>
      <trkpt lat="49.74711" lon="2.32644">
        <ele>104.4</ele>
        <time>2023-03-01T14:55:30Z</time>
      </trkpt>
      <trkpt lat="49.74711" lon="2.32646">
        <ele>104.4</ele>
        <time>2023-03-01T14:55:31Z</time>
      </trkpt>
      <trkpt lat="49.7471" lon="2.32648">
        <ele>104.4</ele>
        <time>2023-03-01T14:55:32Z</time>
      </trkpt>
      <trkpt lat="49.7471" lon="2.3265">
        <ele>104.5</ele>
        <time>2023-03-01T14:55:33Z</time>
      </trkpt>
      <trkpt lat="49.74709" lon="2.32653">
        <ele>104.5</ele>
        <time>2023-03-01T14:55:34Z</time>
      </trkpt>
      <trkpt lat="49.74709" lon="2.32654">
        <ele>104.5</ele>
        <time>2023-03-01T14:55:35Z</time>
      </trkpt>
      <trkpt lat="49.74708" lon="2.32655">
        <ele>104.5</ele>
        <time>2023-03-01T14:55:36Z</time>
      </trkpt>
      <trkpt lat="49.74708" lon="2.32657">
        <ele>104.5</ele>
        <time>2023-03-01T14:55:37Z</time>
      </trkpt>
      <trkpt lat="49.74708" lon="2.32658">
        <ele>104.5</ele>
        <time>2023-03-01T14:55:39Z</time>
      </trkpt>
      <trkpt lat="49.74707" lon="2.3266">
        <ele>104.5</ele>
        <time>2023-03-01T14:55:40Z</time>
      </trkpt>
      <trkpt lat="49.74707" lon="2.32662">
        <ele>104.6</ele>
        <time>2023-03-01T14:55:41Z</time>
      </trkpt>
      <trkpt lat="49.74706" lon="2.32664">
        <ele>104.6</ele>
        <time>2023-03-01T14:55:42Z</time>
      </trkpt>
      <trkpt lat="49.74706" lon="2.32666">
        <ele>104.6</ele>
        <time>2023-03-01T14:55:43Z</time>
      </trkpt>
      <trkpt lat="49.74705" lon="2.32668">
        <ele>104.6</ele>
        <time>2023-03-01T14:55:44Z</time>
      </trkpt>
      <trkpt lat="49.74705" lon="2.32669">
        <ele>104.6</ele>
        <time>2023-03-01T14:55:46Z</time>
      </trkpt>
      <trkpt lat="49.74705" lon="2.32671">
        <ele>104.6</ele>
        <time>2023-03-01T14:55:47Z</time>
      </trkpt>
      <trkpt lat="49.74704" lon="2.32673">
        <ele>104.6</ele>
        <time>2023-03-01T14:55:48Z</time>
      </trkpt>
      <trkpt lat="49.74704" lon="2.32675">
        <ele>104.6</ele>
        <time>2023-03-01T14:55:49Z</time>
      </trkpt>
      <trkpt lat="49.74704" lon="2.32678">
        <ele>104.6</ele>
        <time>2023-03-01T14:55:50Z</time>
      </trkpt>
      <trkpt lat="49.74703" lon="2.32679">
        <ele>104.6</ele>
        <time>2023-03-01T14:55:51Z</time>
      </trkpt>
      <trkpt lat="49.74703" lon="2.3268">
        <ele>104.6</ele>
        <time>2023-03-01T14:55:52Z</time>
      </trkpt>
      <trkpt lat="49.74703" lon="2.32682">
        <ele>104.6</ele>
        <time>2023-03-01T14:55:53Z</time>
      </trkpt>
      <trkpt lat="49.74703" lon="2.32684">
        <ele>104.6</ele>
        <time>2023-03-01T14:55:55Z</time>
      </trkpt>
      <trkpt lat="49.74703" lon="2.32686">
        <ele>104.5</ele>
        <time>2023-03-01T14:55:56Z</time>
      </trkpt>
      <trkpt lat="49.74702" lon="2.32688">
        <ele>104.5</ele>
        <time>2023-03-01T14:55:57Z</time>
      </trkpt>
      <trkpt lat="49.74702" lon="2.3269">
        <ele>104.5</ele>
        <time>2023-03-01T14:55:58Z</time>
      </trkpt>
      <trkpt lat="49.74701" lon="2.32693">
        <ele>104.4</ele>
        <time>2023-03-01T14:55:59Z</time>
      </trkpt>
      <trkpt lat="49.74701" lon="2.32695">
        <ele>104.4</ele>
        <time>2023-03-01T14:56:00Z</time>
      </trkpt>
      <trkpt lat="49.74701" lon="2.32696">
        <ele>104.4</ele>
        <time>2023-03-01T14:56:01Z</time>
      </trkpt>
      <trkpt lat="49.747" lon="2.32699">
        <ele>104.3</ele>
        <time>2023-03-01T14:56:03Z</time>
      </trkpt>
      <trkpt lat="49.747" lon="2.327">
        <ele>104.3</ele>
        <time>2023-03-01T14:56:04Z</time>
      </trkpt>
      <trkpt lat="49.74699" lon="2.32702">
        <ele>104.3</ele>
        <time>2023-03-01T14:56:05Z</time>
      </trkpt>
      <trkpt lat="49.74699" lon="2.32703">
        <ele>104.2</ele>
        <time>2023-03-01T14:56:06Z</time>
      </trkpt>
      <trkpt lat="49.74698" lon="2.32705">
        <ele>104.2</ele>
        <time>2023-03-01T14:56:07Z</time>
      </trkpt>
      <trkpt lat="49.74698" lon="2.32707">
        <ele>104.2</ele>
        <time>2023-03-01T14:56:09Z</time>
      </trkpt>
      <trkpt lat="49.74698" lon="2.32709">
        <ele>104.1</ele>
        <time>2023-03-01T14:56:10Z</time>
      </trkpt>
      <trkpt lat="49.74697" lon="2.32711">
        <ele>104.1</ele>
        <time>2023-03-01T14:56:11Z</time>
      </trkpt>
      <trkpt lat="49.74697" lon="2.32712">
        <ele>104</ele>
        <time>2023-03-01T14:56:12Z</time>
      </trkpt>
      <trkpt lat="49.74696" lon="2.32714">
        <ele>104</ele>
        <time>2023-03-01T14:56:13Z</time>
      </trkpt>
      <trkpt lat="49.74696" lon="2.32716">
        <ele>103.9</ele>
        <time>2023-03-01T14:56:14Z</time>
      </trkpt>
      <trkpt lat="49.74695" lon="2.32717">
        <ele>103.9</ele>
        <time>2023-03-01T14:56:16Z</time>
      </trkpt>
      <trkpt lat="49.74695" lon="2.32719">
        <ele>103.9</ele>
        <time>2023-03-01T14:56:17Z</time>
      </trkpt>
      <trkpt lat="49.74695" lon="2.32721">
        <ele>103.8</ele>
        <time>2023-03-01T14:56:18Z</time>
      </trkpt>
      <trkpt lat="49.74694" lon="2.32722">
        <ele>103.8</ele>
        <time>2023-03-01T14:56:19Z</time>
      </trkpt>
      <trkpt lat="49.74694" lon="2.32724">
        <ele>103.7</ele>
        <time>2023-03-01T14:56:20Z</time>
      </trkpt>
      <trkpt lat="49.74693" lon="2.32725">
        <ele>103.7</ele>
        <time>2023-03-01T14:56:21Z</time>
      </trkpt>
      <trkpt lat="49.74693" lon="2.32727">
        <ele>103.6</ele>
        <time>2023-03-01T14:56:22Z</time>
      </trkpt>
      <trkpt lat="49.74692" lon="2.32728">
        <ele>103.6</ele>
        <time>2023-03-01T14:56:23Z</time>
      </trkpt>
      <trkpt lat="49.74692" lon="2.32731">
        <ele>103.5</ele>
        <time>2023-03-01T14:56:24Z</time>
      </trkpt>
      <trkpt lat="49.74691" lon="2.32732">
        <ele>103.5</ele>
        <time>2023-03-01T14:56:25Z</time>
      </trkpt>
      <trkpt lat="49.74691" lon="2.32734">
        <ele>103.5</ele>
        <time>2023-03-01T14:56:27Z</time>
      </trkpt>
      <trkpt lat="49.74691" lon="2.32736">
        <ele>103.4</ele>
        <time>2023-03-01T14:56:28Z</time>
      </trkpt>
      <trkpt lat="49.7469" lon="2.32739">
        <ele>103.3</ele>
        <time>2023-03-01T14:56:29Z</time>
      </trkpt>
      <trkpt lat="49.7469" lon="2.3274">
        <ele>103.3</ele>
        <time>2023-03-01T14:56:30Z</time>
      </trkpt>
      <trkpt lat="49.7469" lon="2.32741">
        <ele>103.3</ele>
        <time>2023-03-01T14:56:31Z</time>
      </trkpt>
      <trkpt lat="49.7469" lon="2.32744">
        <ele>103.2</ele>
        <time>2023-03-01T14:56:32Z</time>
      </trkpt>
      <trkpt lat="49.74689" lon="2.32746">
        <ele>103.1</ele>
        <time>2023-03-01T14:56:33Z</time>
      </trkpt>
      <trkpt lat="49.74689" lon="2.32747">
        <ele>103.1</ele>
        <time>2023-03-01T14:56:35Z</time>
      </trkpt>
      <trkpt lat="49.74689" lon="2.32749">
        <ele>103</ele>
        <time>2023-03-01T14:56:36Z</time>
      </trkpt>
      <trkpt lat="49.74689" lon="2.3275">
        <ele>103</ele>
        <time>2023-03-01T14:56:37Z</time>
      </trkpt>
      <trkpt lat="49.74689" lon="2.32752">
        <ele>103</ele>
        <time>2023-03-01T14:56:38Z</time>
      </trkpt>
      <trkpt lat="49.74688" lon="2.32755">
        <ele>102.9</ele>
        <time>2023-03-01T14:56:39Z</time>
      </trkpt>
      <trkpt lat="49.74688" lon="2.32757">
        <ele>102.8</ele>
        <time>2023-03-01T14:56:40Z</time>
      </trkpt>
      <trkpt lat="49.74687" lon="2.32758">
        <ele>102.8</ele>
        <time>2023-03-01T14:56:41Z</time>
      </trkpt>
      <trkpt lat="49.74687" lon="2.3276">
        <ele>102.7</ele>
        <time>2023-03-01T14:56:43Z</time>
      </trkpt>
      <trkpt lat="49.74687" lon="2.32761">
        <ele>102.7</ele>
        <time>2023-03-01T14:56:44Z</time>
      </trkpt>
      <trkpt lat="49.74686" lon="2.32763">
        <ele>102.6</ele>
        <time>2023-03-01T14:56:45Z</time>
      </trkpt>
      <trkpt lat="49.74686" lon="2.32764">
        <ele>102.6</ele>
        <time>2023-03-01T14:56:46Z</time>
      </trkpt>
      <trkpt lat="49.74685" lon="2.32766">
        <ele>102.5</ele>
        <time>2023-03-01T14:56:47Z</time>
      </trkpt>
      <trkpt lat="49.74685" lon="2.32768">
        <ele>102.5</ele>
        <time>2023-03-01T14:56:48Z</time>
      </trkpt>
      <trkpt lat="49.74684" lon="2.3277">
        <ele>102.4</ele>
        <time>2023-03-01T14:56:50Z</time>
      </trkpt>
      <trkpt lat="49.74684" lon="2.32772">
        <ele>102.3</ele>
        <time>2023-03-01T14:56:52Z</time>
      </trkpt>
      <trkpt lat="49.74683" lon="2.32773">
        <ele>102.3</ele>
        <time>2023-03-01T14:56:53Z</time>
      </trkpt>
      <trkpt lat="49.74683" lon="2.32775">
        <ele>102.2</ele>
        <time>2023-03-01T14:56:54Z</time>
      </trkpt>
      <trkpt lat="49.74682" lon="2.32776">
        <ele>102.1</ele>
        <time>2023-03-01T14:56:56Z</time>
      </trkpt>
      <trkpt lat="49.74682" lon="2.32777">
        <ele>102.1</ele>
        <time>2023-03-01T14:56:58Z</time>
      </trkpt>
      <trkpt lat="49.74681" lon="2.32778">
        <ele>102</ele>
        <time>2023-03-01T14:56:59Z</time>
      </trkpt>
      <trkpt lat="49.74681" lon="2.3278">
        <ele>102</ele>
        <time>2023-03-01T14:57:00Z</time>
      </trkpt>
      <trkpt lat="49.74681" lon="2.32781">
        <ele>101.9</ele>
        <time>2023-03-01T14:57:01Z</time>
      </trkpt>
      <trkpt lat="49.74681" lon="2.32781">
        <ele>101.9</ele>
        <time>2023-03-01T14:57:02Z</time>
      </trkpt>
      <trkpt lat="49.74681" lon="2.32782">
        <ele>101.9</ele>
        <time>2023-03-01T14:57:03Z</time>
      </trkpt>
      <trkpt lat="49.74681" lon="2.32782">
        <ele>101.9</ele>
        <time>2023-03-01T14:57:04Z</time>
      </trkpt>
      <trkpt lat="49.74681" lon="2.32782">
        <ele>101.9</ele>
        <time>2023-03-01T14:57:06Z</time>
      </trkpt>
      <trkpt lat="49.74681" lon="2.32783">
        <ele>101.9</ele>
        <time>2023-03-01T14:57:07Z</time>
      </trkpt>
      <trkpt lat="49.74681" lon="2.32783">
        <ele>101.9</ele>
        <time>2023-03-01T14:57:09Z</time>
      </trkpt>
      <trkpt lat="49.7468" lon="2.32783">
        <ele>101.8</ele>
        <time>2023-03-01T14:57:11Z</time>
      </trkpt>
      <trkpt lat="49.7468" lon="2.32783">
        <ele>101.8</ele>
        <time>2023-03-01T14:57:12Z</time>
      </trkpt>
      <trkpt lat="49.7468" lon="2.32784">
        <ele>101.8</ele>
        <time>2023-03-01T14:57:13Z</time>
      </trkpt>
      <trkpt lat="49.7468" lon="2.32784">
        <ele>101.8</ele>
        <time>2023-03-01T14:57:16Z</time>
      </trkpt>
      <trkpt lat="49.7468" lon="2.32784">
        <ele>101.8</ele>
        <time>2023-03-01T14:57:17Z</time>
      </trkpt>
      <trkpt lat="49.7468" lon="2.32785">
        <ele>101.8</ele>
        <time>2023-03-01T14:57:18Z</time>
      </trkpt>
      <trkpt lat="49.7468" lon="2.32785">
        <ele>101.8</ele>
        <time>2023-03-01T14:57:19Z</time>
      </trkpt>
      <trkpt lat="49.7468" lon="2.32785">
        <ele>101.7</ele>
        <time>2023-03-01T14:57:20Z</time>
      </trkpt>
      <trkpt lat="49.7468" lon="2.32786">
        <ele>101.7</ele>
        <time>2023-03-01T14:57:22Z</time>
      </trkpt>
      <trkpt lat="49.7468" lon="2.32786">
        <ele>101.7</ele>
        <time>2023-03-01T14:57:23Z</time>
      </trkpt>
      <trkpt lat="49.7468" lon="2.32786">
        <ele>101.7</ele>
        <time>2023-03-01T14:57:25Z</time>
      </trkpt>
      <trkpt lat="49.7468" lon="2.32787">
        <ele>101.7</ele>
        <time>2023-03-01T14:57:26Z</time>
      </trkpt>
      <trkpt lat="49.7468" lon="2.32787">
        <ele>101.7</ele>
        <time>2023-03-01T14:57:28Z</time>
      </trkpt>
      <trkpt lat="49.7468" lon="2.32787">
        <ele>101.7</ele>
        <time>2023-03-01T14:57:29Z</time>
      </trkpt>
      <trkpt lat="49.7468" lon="2.32787">
        <ele>101.6</ele>
        <time>2023-03-01T14:57:30Z</time>
      </trkpt>
      <trkpt lat="49.7468" lon="2.32788">
        <ele>101.6</ele>
        <time>2023-03-01T14:57:32Z</time>
      </trkpt>
      <trkpt lat="49.7468" lon="2.32788">
        <ele>101.6</ele>
        <time>2023-03-01T14:57:33Z</time>
      </trkpt>
      <trkpt lat="49.7468" lon="2.32788">
        <ele>101.6</ele>
        <time>2023-03-01T14:57:34Z</time>
      </trkpt>
      <trkpt lat="49.74679" lon="2.32789">
        <ele>101.6</ele>
        <time>2023-03-01T14:57:35Z</time>
      </trkpt>
      <trkpt lat="49.74679" lon="2.32789">
        <ele>101.6</ele>
        <time>2023-03-01T14:57:36Z</time>
      </trkpt>
      <trkpt lat="49.74679" lon="2.32789">
        <ele>101.6</ele>
        <time>2023-03-01T14:57:38Z</time>
      </trkpt>
      <trkpt lat="49.74679" lon="2.3279">
        <ele>101.6</ele>
        <time>2023-03-01T14:57:39Z</time>
      </trkpt>
      <trkpt lat="49.74678" lon="2.32792">
        <ele>101.4</ele>
        <time>2023-03-01T14:57:40Z</time>
      </trkpt>
      <trkpt lat="49.74677" lon="2.32794">
        <ele>101.3</ele>
        <time>2023-03-01T14:57:41Z</time>
      </trkpt>
      <trkpt lat="49.74677" lon="2.32796">
        <ele>101.2</ele>
        <time>2023-03-01T14:57:42Z</time>
      </trkpt>
      <trkpt lat="49.74677" lon="2.32797">
        <ele>101.1</ele>
        <time>2023-03-01T14:57:44Z</time>
      </trkpt>
      <trkpt lat="49.74677" lon="2.32798">
        <ele>101</ele>
        <time>2023-03-01T14:57:45Z</time>
      </trkpt>
      <trkpt lat="49.74676" lon="2.328">
        <ele>101</ele>
        <time>2023-03-01T14:57:46Z</time>
      </trkpt>
      <trkpt lat="49.74676" lon="2.32801">
        <ele>100.9</ele>
        <time>2023-03-01T14:57:47Z</time>
      </trkpt>
      <trkpt lat="49.74676" lon="2.32803">
        <ele>100.8</ele>
        <time>2023-03-01T14:57:48Z</time>
      </trkpt>
      <trkpt lat="49.74676" lon="2.32804">
        <ele>100.7</ele>
        <time>2023-03-01T14:57:49Z</time>
      </trkpt>
      <trkpt lat="49.74675" lon="2.32805">
        <ele>100.6</ele>
        <time>2023-03-01T14:57:50Z</time>
      </trkpt>
      <trkpt lat="49.74675" lon="2.32806">
        <ele>100.5</ele>
        <time>2023-03-01T14:57:51Z</time>
      </trkpt>
      <trkpt lat="49.74675" lon="2.32808">
        <ele>100.4</ele>
        <time>2023-03-01T14:57:53Z</time>
      </trkpt>
      <trkpt lat="49.74675" lon="2.32809">
        <ele>100.4</ele>
        <time>2023-03-01T14:57:54Z</time>
      </trkpt>
      <trkpt lat="49.74674" lon="2.32811">
        <ele>100.2</ele>
        <time>2023-03-01T14:57:55Z</time>
      </trkpt>
      <trkpt lat="49.74674" lon="2.32812">
        <ele>100.1</ele>
        <time>2023-03-01T14:57:56Z</time>
      </trkpt>
      <trkpt lat="49.74673" lon="2.32813">
        <ele>100.1</ele>
        <time>2023-03-01T14:57:57Z</time>
      </trkpt>
      <trkpt lat="49.74673" lon="2.32814">
        <ele>100</ele>
        <time>2023-03-01T14:57:58Z</time>
      </trkpt>
      <trkpt lat="49.74673" lon="2.32815">
        <ele>99.9</ele>
        <time>2023-03-01T14:58:00Z</time>
      </trkpt>
      <trkpt lat="49.74672" lon="2.32816">
        <ele>99.8</ele>
        <time>2023-03-01T14:58:01Z</time>
      </trkpt>
      <trkpt lat="49.74672" lon="2.32818">
        <ele>99.8</ele>
        <time>2023-03-01T14:58:02Z</time>
      </trkpt>
      <trkpt lat="49.74672" lon="2.32818">
        <ele>99.7</ele>
        <time>2023-03-01T14:58:03Z</time>
      </trkpt>
      <trkpt lat="49.74672" lon="2.3282">
        <ele>99.6</ele>
        <time>2023-03-01T14:58:04Z</time>
      </trkpt>
      <trkpt lat="49.74672" lon="2.32821">
        <ele>99.6</ele>
        <time>2023-03-01T14:58:05Z</time>
      </trkpt>
      <trkpt lat="49.74672" lon="2.32822">
        <ele>99.5</ele>
        <time>2023-03-01T14:58:07Z</time>
      </trkpt>
      <trkpt lat="49.74672" lon="2.32824">
        <ele>99.4</ele>
        <time>2023-03-01T14:58:08Z</time>
      </trkpt>
      <trkpt lat="49.74672" lon="2.32825">
        <ele>99.3</ele>
        <time>2023-03-01T14:58:09Z</time>
      </trkpt>
      <trkpt lat="49.74672" lon="2.32827">
        <ele>99.2</ele>
        <time>2023-03-01T14:58:10Z</time>
      </trkpt>
      <trkpt lat="49.74672" lon="2.32829">
        <ele>99.1</ele>
        <time>2023-03-01T14:58:12Z</time>
      </trkpt>
      <trkpt lat="49.74672" lon="2.3283">
        <ele>99</ele>
        <time>2023-03-01T14:58:13Z</time>
      </trkpt>
      <trkpt lat="49.74672" lon="2.32832">
        <ele>98.9</ele>
        <time>2023-03-01T14:58:14Z</time>
      </trkpt>
      <trkpt lat="49.74672" lon="2.32834">
        <ele>98.8</ele>
        <time>2023-03-01T14:58:15Z</time>
      </trkpt>
      <trkpt lat="49.74672" lon="2.32837">
        <ele>98.6</ele>
        <time>2023-03-01T14:58:16Z</time>
      </trkpt>
      <trkpt lat="49.74672" lon="2.32838">
        <ele>98.5</ele>
        <time>2023-03-01T14:58:17Z</time>
      </trkpt>
      <trkpt lat="49.74672" lon="2.3284">
        <ele>98.4</ele>
        <time>2023-03-01T14:58:19Z</time>
      </trkpt>
      <trkpt lat="49.74672" lon="2.32841">
        <ele>98.3</ele>
        <time>2023-03-01T14:58:20Z</time>
      </trkpt>
      <trkpt lat="49.74672" lon="2.32843">
        <ele>98.3</ele>
        <time>2023-03-01T14:58:21Z</time>
      </trkpt>
      <trkpt lat="49.74671" lon="2.32844">
        <ele>98.2</ele>
        <time>2023-03-01T14:58:22Z</time>
      </trkpt>
      <trkpt lat="49.74671" lon="2.32846">
        <ele>98.1</ele>
        <time>2023-03-01T14:58:23Z</time>
      </trkpt>
      <trkpt lat="49.74671" lon="2.32848">
        <ele>98</ele>
        <time>2023-03-01T14:58:24Z</time>
      </trkpt>
      <trkpt lat="49.74671" lon="2.32849">
        <ele>97.9</ele>
        <time>2023-03-01T14:58:25Z</time>
      </trkpt>
      <trkpt lat="49.74672" lon="2.32851">
        <ele>97.8</ele>
        <time>2023-03-01T14:58:26Z</time>
      </trkpt>
      <trkpt lat="49.74672" lon="2.32853">
        <ele>97.7</ele>
        <time>2023-03-01T14:58:28Z</time>
      </trkpt>
      <trkpt lat="49.74672" lon="2.32854">
        <ele>97.6</ele>
        <time>2023-03-01T14:58:29Z</time>
      </trkpt>
      <trkpt lat="49.74672" lon="2.32856">
        <ele>97.5</ele>
        <time>2023-03-01T14:58:30Z</time>
      </trkpt>
      <trkpt lat="49.74673" lon="2.32857">
        <ele>97.5</ele>
        <time>2023-03-01T14:58:31Z</time>
      </trkpt>
      <trkpt lat="49.74673" lon="2.32859">
        <ele>97.4</ele>
        <time>2023-03-01T14:58:32Z</time>
      </trkpt>
      <trkpt lat="49.74673" lon="2.32861">
        <ele>97.3</ele>
        <time>2023-03-01T14:58:33Z</time>
      </trkpt>
      <trkpt lat="49.74672" lon="2.32862">
        <ele>97.2</ele>
        <time>2023-03-01T14:58:34Z</time>
      </trkpt>
      <trkpt lat="49.74672" lon="2.32864">
        <ele>97.1</ele>
        <time>2023-03-01T14:58:35Z</time>
      </trkpt>
      <trkpt lat="49.74671" lon="2.32867">
        <ele>97</ele>
        <time>2023-03-01T14:58:37Z</time>
      </trkpt>
      <trkpt lat="49.74671" lon="2.32868">
        <ele>96.9</ele>
        <time>2023-03-01T14:58:38Z</time>
      </trkpt>
      <trkpt lat="49.74671" lon="2.3287">
        <ele>96.8</ele>
        <time>2023-03-01T14:58:39Z</time>
      </trkpt>
      <trkpt lat="49.7467" lon="2.32872">
        <ele>96.7</ele>
        <time>2023-03-01T14:58:40Z</time>
      </trkpt>
      <trkpt lat="49.7467" lon="2.32873">
        <ele>96.6</ele>
        <time>2023-03-01T14:58:41Z</time>
      </trkpt>
      <trkpt lat="49.74669" lon="2.32874">
        <ele>96.6</ele>
        <time>2023-03-01T14:58:42Z</time>
      </trkpt>
      <trkpt lat="49.74669" lon="2.32875">
        <ele>96.5</ele>
        <time>2023-03-01T14:58:43Z</time>
      </trkpt>
      <trkpt lat="49.74668" lon="2.32877">
        <ele>96.4</ele>
        <time>2023-03-01T14:58:45Z</time>
      </trkpt>
      <trkpt lat="49.74668" lon="2.32879">
        <ele>96.3</ele>
        <time>2023-03-01T14:58:46Z</time>
      </trkpt>
      <trkpt lat="49.74667" lon="2.3288">
        <ele>96.3</ele>
        <time>2023-03-01T14:58:47Z</time>
      </trkpt>
      <trkpt lat="49.74666" lon="2.32883">
        <ele>96.1</ele>
        <time>2023-03-01T14:58:48Z</time>
      </trkpt>
      <trkpt lat="49.74666" lon="2.32886">
        <ele>96</ele>
        <time>2023-03-01T14:58:49Z</time>
      </trkpt>
      <trkpt lat="49.74665" lon="2.32887">
        <ele>95.9</ele>
        <time>2023-03-01T14:58:50Z</time>
      </trkpt>
      <trkpt lat="49.74665" lon="2.32888">
        <ele>95.9</ele>
        <time>2023-03-01T14:58:51Z</time>
      </trkpt>
      <trkpt lat="49.74665" lon="2.32892">
        <ele>95.7</ele>
        <time>2023-03-01T14:58:52Z</time>
      </trkpt>
      <trkpt lat="49.74665" lon="2.32893">
        <ele>95.7</ele>
        <time>2023-03-01T14:58:54Z</time>
      </trkpt>
      <trkpt lat="49.74665" lon="2.32894">
        <ele>95.6</ele>
        <time>2023-03-01T14:58:55Z</time>
      </trkpt>
      <trkpt lat="49.74665" lon="2.32897">
        <ele>95.5</ele>
        <time>2023-03-01T14:58:56Z</time>
      </trkpt>
      <trkpt lat="49.74665" lon="2.32899">
        <ele>95.5</ele>
        <time>2023-03-01T14:58:57Z</time>
      </trkpt>
      <trkpt lat="49.74665" lon="2.32901">
        <ele>95.4</ele>
        <time>2023-03-01T14:58:58Z</time>
      </trkpt>
      <trkpt lat="49.74664" lon="2.32905">
        <ele>95.2</ele>
        <time>2023-03-01T14:59:00Z</time>
      </trkpt>
      <trkpt lat="49.74664" lon="2.32908">
        <ele>95.1</ele>
        <time>2023-03-01T14:59:02Z</time>
      </trkpt>
      <trkpt lat="49.74664" lon="2.3291">
        <ele>95</ele>
        <time>2023-03-01T14:59:03Z</time>
      </trkpt>
      <trkpt lat="49.74663" lon="2.32912">
        <ele>94.9</ele>
        <time>2023-03-01T14:59:04Z</time>
      </trkpt>
      <trkpt lat="49.74663" lon="2.32914">
        <ele>94.8</ele>
        <time>2023-03-01T14:59:05Z</time>
      </trkpt>
      <trkpt lat="49.74663" lon="2.32917">
        <ele>94.8</ele>
        <time>2023-03-01T14:59:06Z</time>
      </trkpt>
      <trkpt lat="49.74663" lon="2.32919">
        <ele>94.7</ele>
        <time>2023-03-01T14:59:07Z</time>
      </trkpt>
      <trkpt lat="49.74662" lon="2.32921">
        <ele>94.6</ele>
        <time>2023-03-01T14:59:08Z</time>
      </trkpt>
      <trkpt lat="49.74662" lon="2.32923">
        <ele>94.5</ele>
        <time>2023-03-01T14:59:09Z</time>
      </trkpt>
      <trkpt lat="49.74662" lon="2.32925">
        <ele>94.5</ele>
        <time>2023-03-01T14:59:10Z</time>
      </trkpt>
      <trkpt lat="49.74662" lon="2.32927">
        <ele>94.4</ele>
        <time>2023-03-01T14:59:11Z</time>
      </trkpt>
      <trkpt lat="49.74662" lon="2.32929">
        <ele>94.4</ele>
        <time>2023-03-01T14:59:12Z</time>
      </trkpt>
      <trkpt lat="49.74661" lon="2.32931">
        <ele>94.3</ele>
        <time>2023-03-01T14:59:14Z</time>
      </trkpt>
      <trkpt lat="49.74661" lon="2.32934">
        <ele>94.2</ele>
        <time>2023-03-01T14:59:15Z</time>
      </trkpt>
      <trkpt lat="49.74661" lon="2.32936">
        <ele>94.1</ele>
        <time>2023-03-01T14:59:16Z</time>
      </trkpt>
      <trkpt lat="49.74661" lon="2.32937">
        <ele>94.1</ele>
        <time>2023-03-01T14:59:17Z</time>
      </trkpt>
      <trkpt lat="49.7466" lon="2.3294">
        <ele>94</ele>
        <time>2023-03-01T14:59:18Z</time>
      </trkpt>
      <trkpt lat="49.7466" lon="2.32941">
        <ele>94</ele>
        <time>2023-03-01T14:59:19Z</time>
      </trkpt>
      <trkpt lat="49.7466" lon="2.32944">
        <ele>93.9</ele>
        <time>2023-03-01T14:59:20Z</time>
      </trkpt>
      <trkpt lat="49.74659" lon="2.32945">
        <ele>93.9</ele>
        <time>2023-03-01T14:59:21Z</time>
      </trkpt>
      <trkpt lat="49.74659" lon="2.32947">
        <ele>93.8</ele>
        <time>2023-03-01T14:59:22Z</time>
      </trkpt>
      <trkpt lat="49.74659" lon="2.3295">
        <ele>93.7</ele>
        <time>2023-03-01T14:59:24Z</time>
      </trkpt>
      <trkpt lat="49.74659" lon="2.32951">
        <ele>93.7</ele>
        <time>2023-03-01T14:59:25Z</time>
      </trkpt>
      <trkpt lat="49.74659" lon="2.32952">
        <ele>93.7</ele>
        <time>2023-03-01T14:59:26Z</time>
      </trkpt>
      <trkpt lat="49.74659" lon="2.32956">
        <ele>93.6</ele>
        <time>2023-03-01T14:59:27Z</time>
      </trkpt>
      <trkpt lat="49.74659" lon="2.32957">
        <ele>93.5</ele>
        <time>2023-03-01T14:59:28Z</time>
      </trkpt>
      <trkpt lat="49.74659" lon="2.32958">
        <ele>93.5</ele>
        <time>2023-03-01T14:59:30Z</time>
      </trkpt>
      <trkpt lat="49.74659" lon="2.3296">
        <ele>93.5</ele>
        <time>2023-03-01T14:59:31Z</time>
      </trkpt>
      <trkpt lat="49.74658" lon="2.32962">
        <ele>93.4</ele>
        <time>2023-03-01T14:59:32Z</time>
      </trkpt>
      <trkpt lat="49.74658" lon="2.32965">
        <ele>93.3</ele>
        <time>2023-03-01T14:59:33Z</time>
      </trkpt>
      <trkpt lat="49.74658" lon="2.32966">
        <ele>93.3</ele>
        <time>2023-03-01T14:59:34Z</time>
      </trkpt>
      <trkpt lat="49.74658" lon="2.32967">
        <ele>93.2</ele>
        <time>2023-03-01T14:59:35Z</time>
      </trkpt>
      <trkpt lat="49.74657" lon="2.32969">
        <ele>93.2</ele>
        <time>2023-03-01T14:59:36Z</time>
      </trkpt>
      <trkpt lat="49.74657" lon="2.32971">
        <ele>93.1</ele>
        <time>2023-03-01T14:59:37Z</time>
      </trkpt>
      <trkpt lat="49.74657" lon="2.32972">
        <ele>93.1</ele>
        <time>2023-03-01T14:59:39Z</time>
      </trkpt>
      <trkpt lat="49.74657" lon="2.32974">
        <ele>93.1</ele>
        <time>2023-03-01T14:59:40Z</time>
      </trkpt>
      <trkpt lat="49.74656" lon="2.32975">
        <ele>93</ele>
        <time>2023-03-01T14:59:41Z</time>
      </trkpt>
      <trkpt lat="49.74656" lon="2.32977">
        <ele>93</ele>
        <time>2023-03-01T14:59:42Z</time>
      </trkpt>
      <trkpt lat="49.74655" lon="2.3298">
        <ele>92.9</ele>
        <time>2023-03-01T14:59:43Z</time>
      </trkpt>
      <trkpt lat="49.74655" lon="2.32981">
        <ele>92.9</ele>
        <time>2023-03-01T14:59:44Z</time>
      </trkpt>
      <trkpt lat="49.74655" lon="2.32983">
        <ele>92.9</ele>
        <time>2023-03-01T14:59:45Z</time>
      </trkpt>
      <trkpt lat="49.74655" lon="2.32984">
        <ele>92.8</ele>
        <time>2023-03-01T14:59:46Z</time>
      </trkpt>
      <trkpt lat="49.74655" lon="2.32986">
        <ele>92.8</ele>
        <time>2023-03-01T14:59:48Z</time>
      </trkpt>
      <trkpt lat="49.74654" lon="2.32987">
        <ele>92.7</ele>
        <time>2023-03-01T14:59:49Z</time>
      </trkpt>
      <trkpt lat="49.74654" lon="2.32991">
        <ele>92.7</ele>
        <time>2023-03-01T14:59:50Z</time>
      </trkpt>
      <trkpt lat="49.74653" lon="2.32992">
        <ele>92.6</ele>
        <time>2023-03-01T14:59:51Z</time>
      </trkpt>
      <trkpt lat="49.74653" lon="2.32993">
        <ele>92.6</ele>
        <time>2023-03-01T14:59:52Z</time>
      </trkpt>
      <trkpt lat="49.74652" lon="2.32997">
        <ele>92.5</ele>
        <time>2023-03-01T14:59:53Z</time>
      </trkpt>
      <trkpt lat="49.74652" lon="2.32998">
        <ele>92.5</ele>
        <time>2023-03-01T14:59:54Z</time>
      </trkpt>
      <trkpt lat="49.74652" lon="2.32999">
        <ele>92.5</ele>
        <time>2023-03-01T14:59:55Z</time>
      </trkpt>
      <trkpt lat="49.74652" lon="2.33001">
        <ele>92.4</ele>
        <time>2023-03-01T14:59:56Z</time>
      </trkpt>
      <trkpt lat="49.74651" lon="2.33002">
        <ele>92.4</ele>
        <time>2023-03-01T14:59:58Z</time>
      </trkpt>
      <trkpt lat="49.74651" lon="2.33004">
        <ele>92.4</ele>
        <time>2023-03-01T14:59:59Z</time>
      </trkpt>
      <trkpt lat="49.74651" lon="2.33007">
        <ele>92.3</ele>
        <time>2023-03-01T15:00:00Z</time>
      </trkpt>
      <trkpt lat="49.74651" lon="2.33009">
        <ele>92.3</ele>
        <time>2023-03-01T15:00:01Z</time>
      </trkpt>
      <trkpt lat="49.7465" lon="2.3301">
        <ele>92.3</ele>
        <time>2023-03-01T15:00:02Z</time>
      </trkpt>
      <trkpt lat="49.7465" lon="2.33012">
        <ele>92.2</ele>
        <time>2023-03-01T15:00:03Z</time>
      </trkpt>
      <trkpt lat="49.7465" lon="2.33014">
        <ele>92.2</ele>
        <time>2023-03-01T15:00:04Z</time>
      </trkpt>
      <trkpt lat="49.7465" lon="2.33015">
        <ele>92.2</ele>
        <time>2023-03-01T15:00:06Z</time>
      </trkpt>
      <trkpt lat="49.74649" lon="2.33017">
        <ele>92.1</ele>
        <time>2023-03-01T15:00:07Z</time>
      </trkpt>
      <trkpt lat="49.74649" lon="2.33019">
        <ele>92.1</ele>
        <time>2023-03-01T15:00:08Z</time>
      </trkpt>
      <trkpt lat="49.74649" lon="2.3302">
        <ele>92.1</ele>
        <time>2023-03-01T15:00:09Z</time>
      </trkpt>
      <trkpt lat="49.74649" lon="2.33022">
        <ele>92</ele>
        <time>2023-03-01T15:00:10Z</time>
      </trkpt>
      <trkpt lat="49.74648" lon="2.33024">
        <ele>92</ele>
        <time>2023-03-01T15:00:11Z</time>
      </trkpt>
      <trkpt lat="49.74648" lon="2.33025">
        <ele>92</ele>
        <time>2023-03-01T15:00:12Z</time>
      </trkpt>
      <trkpt lat="49.74648" lon="2.33027">
        <ele>92</ele>
        <time>2023-03-01T15:00:13Z</time>
      </trkpt>
      <trkpt lat="49.74647" lon="2.33028">
        <ele>91.9</ele>
        <time>2023-03-01T15:00:15Z</time>
      </trkpt>
      <trkpt lat="49.74647" lon="2.3303">
        <ele>91.9</ele>
        <time>2023-03-01T15:00:16Z</time>
      </trkpt>
      <trkpt lat="49.74646" lon="2.33033">
        <ele>91.9</ele>
        <time>2023-03-01T15:00:17Z</time>
      </trkpt>
      <trkpt lat="49.74646" lon="2.33034">
        <ele>91.8</ele>
        <time>2023-03-01T15:00:18Z</time>
      </trkpt>
      <trkpt lat="49.74646" lon="2.33036">
        <ele>91.8</ele>
        <time>2023-03-01T15:00:19Z</time>
      </trkpt>
      <trkpt lat="49.74645" lon="2.33039">
        <ele>91.8</ele>
        <time>2023-03-01T15:00:20Z</time>
      </trkpt>
      <trkpt lat="49.74645" lon="2.3304">
        <ele>91.8</ele>
        <time>2023-03-01T15:00:21Z</time>
      </trkpt>
      <trkpt lat="49.74644" lon="2.33042">
        <ele>91.7</ele>
        <time>2023-03-01T15:00:22Z</time>
      </trkpt>
      <trkpt lat="49.74644" lon="2.33043">
        <ele>91.7</ele>
        <time>2023-03-01T15:00:23Z</time>
      </trkpt>
      <trkpt lat="49.74644" lon="2.33045">
        <ele>91.7</ele>
        <time>2023-03-01T15:00:25Z</time>
      </trkpt>
      <trkpt lat="49.74644" lon="2.33047">
        <ele>91.7</ele>
        <time>2023-03-01T15:00:26Z</time>
      </trkpt>
      <trkpt lat="49.74643" lon="2.33049">
        <ele>91.6</ele>
        <time>2023-03-01T15:00:27Z</time>
      </trkpt>
      <trkpt lat="49.74643" lon="2.33051">
        <ele>91.6</ele>
        <time>2023-03-01T15:00:28Z</time>
      </trkpt>
      <trkpt lat="49.74643" lon="2.33054">
        <ele>91.6</ele>
        <time>2023-03-01T15:00:29Z</time>
      </trkpt>
      <trkpt lat="49.74643" lon="2.33056">
        <ele>91.5</ele>
        <time>2023-03-01T15:00:30Z</time>
      </trkpt>
      <trkpt lat="49.74642" lon="2.33057">
        <ele>91.5</ele>
        <time>2023-03-01T15:00:31Z</time>
      </trkpt>
      <trkpt lat="49.74642" lon="2.33061">
        <ele>91.5</ele>
        <time>2023-03-01T15:00:32Z</time>
      </trkpt>
      <trkpt lat="49.74642" lon="2.33062">
        <ele>91.4</ele>
        <time>2023-03-01T15:00:33Z</time>
      </trkpt>
      <trkpt lat="49.74642" lon="2.33064">
        <ele>91.4</ele>
        <time>2023-03-01T15:00:35Z</time>
      </trkpt>
      <trkpt lat="49.74641" lon="2.33065">
        <ele>91.4</ele>
        <time>2023-03-01T15:00:36Z</time>
      </trkpt>
      <trkpt lat="49.74641" lon="2.33066">
        <ele>91.4</ele>
        <time>2023-03-01T15:00:37Z</time>
      </trkpt>
      <trkpt lat="49.74641" lon="2.33068">
        <ele>91.4</ele>
        <time>2023-03-01T15:00:38Z</time>
      </trkpt>
      <trkpt lat="49.74641" lon="2.3307">
        <ele>91.3</ele>
        <time>2023-03-01T15:00:39Z</time>
      </trkpt>
      <trkpt lat="49.7464" lon="2.33071">
        <ele>91.3</ele>
        <time>2023-03-01T15:00:40Z</time>
      </trkpt>
      <trkpt lat="49.7464" lon="2.33073">
        <ele>91.3</ele>
        <time>2023-03-01T15:00:41Z</time>
      </trkpt>
      <trkpt lat="49.7464" lon="2.33075">
        <ele>91.3</ele>
        <time>2023-03-01T15:00:43Z</time>
      </trkpt>
      <trkpt lat="49.74639" lon="2.33076">
        <ele>91.3</ele>
        <time>2023-03-01T15:00:44Z</time>
      </trkpt>
      <trkpt lat="49.74639" lon="2.33078">
        <ele>91.2</ele>
        <time>2023-03-01T15:00:45Z</time>
      </trkpt>
      <trkpt lat="49.74639" lon="2.33079">
        <ele>91.2</ele>
        <time>2023-03-01T15:00:46Z</time>
      </trkpt>
      <trkpt lat="49.74638" lon="2.33081">
        <ele>91.2</ele>
        <time>2023-03-01T15:00:47Z</time>
      </trkpt>
      <trkpt lat="49.74637" lon="2.33084">
        <ele>91.2</ele>
        <time>2023-03-01T15:00:49Z</time>
      </trkpt>
      <trkpt lat="49.74637" lon="2.33085">
        <ele>91.2</ele>
        <time>2023-03-01T15:00:50Z</time>
      </trkpt>
      <trkpt lat="49.74636" lon="2.33087">
        <ele>91.1</ele>
        <time>2023-03-01T15:00:51Z</time>
      </trkpt>
      <trkpt lat="49.74635" lon="2.33088">
        <ele>91.1</ele>
        <time>2023-03-01T15:00:52Z</time>
      </trkpt>
      <trkpt lat="49.74634" lon="2.3309">
        <ele>91.1</ele>
        <time>2023-03-01T15:00:53Z</time>
      </trkpt>
      <trkpt lat="49.74634" lon="2.33091">
        <ele>91.1</ele>
        <time>2023-03-01T15:00:54Z</time>
      </trkpt>
      <trkpt lat="49.74634" lon="2.33093">
        <ele>91</ele>
        <time>2023-03-01T15:00:55Z</time>
      </trkpt>
      <trkpt lat="49.74633" lon="2.33096">
        <ele>91</ele>
        <time>2023-03-01T15:00:56Z</time>
      </trkpt>
      <trkpt lat="49.74633" lon="2.33097">
        <ele>91</ele>
        <time>2023-03-01T15:00:57Z</time>
      </trkpt>
      <trkpt lat="49.74632" lon="2.33099">
        <ele>91</ele>
        <time>2023-03-01T15:00:59Z</time>
      </trkpt>
      <trkpt lat="49.74632" lon="2.331">
        <ele>91</ele>
        <time>2023-03-01T15:01:00Z</time>
      </trkpt>
      <trkpt lat="49.74632" lon="2.33102">
        <ele>90.9</ele>
        <time>2023-03-01T15:01:01Z</time>
      </trkpt>
      <trkpt lat="49.74631" lon="2.33103">
        <ele>90.9</ele>
        <time>2023-03-01T15:01:02Z</time>
      </trkpt>
      <trkpt lat="49.74631" lon="2.33105">
        <ele>90.9</ele>
        <time>2023-03-01T15:01:04Z</time>
      </trkpt>
      <trkpt lat="49.74631" lon="2.33106">
        <ele>90.9</ele>
        <time>2023-03-01T15:01:05Z</time>
      </trkpt>
      <trkpt lat="49.74631" lon="2.33108">
        <ele>90.9</ele>
        <time>2023-03-01T15:01:06Z</time>
      </trkpt>
      <trkpt lat="49.74631" lon="2.3311">
        <ele>90.9</ele>
        <time>2023-03-01T15:01:07Z</time>
      </trkpt>
      <trkpt lat="49.74631" lon="2.33112">
        <ele>90.9</ele>
        <time>2023-03-01T15:01:08Z</time>
      </trkpt>
      <trkpt lat="49.7463" lon="2.33113">
        <ele>90.8</ele>
        <time>2023-03-01T15:01:10Z</time>
      </trkpt>
      <trkpt lat="49.7463" lon="2.33115">
        <ele>90.8</ele>
        <time>2023-03-01T15:01:11Z</time>
      </trkpt>
      <trkpt lat="49.7463" lon="2.33116">
        <ele>90.8</ele>
        <time>2023-03-01T15:01:12Z</time>
      </trkpt>
      <trkpt lat="49.74629" lon="2.33118">
        <ele>90.8</ele>
        <time>2023-03-01T15:01:13Z</time>
      </trkpt>
      <trkpt lat="49.74629" lon="2.3312">
        <ele>90.8</ele>
        <time>2023-03-01T15:01:14Z</time>
      </trkpt>
      <trkpt lat="49.74629" lon="2.33121">
        <ele>90.8</ele>
        <time>2023-03-01T15:01:15Z</time>
      </trkpt>
      <trkpt lat="49.74629" lon="2.33123">
        <ele>90.8</ele>
        <time>2023-03-01T15:01:16Z</time>
      </trkpt>
      <trkpt lat="49.74629" lon="2.33127">
        <ele>90.8</ele>
        <time>2023-03-01T15:01:18Z</time>
      </trkpt>
      <trkpt lat="49.74629" lon="2.33128">
        <ele>90.8</ele>
        <time>2023-03-01T15:01:19Z</time>
      </trkpt>
      <trkpt lat="49.74629" lon="2.33129">
        <ele>90.8</ele>
        <time>2023-03-01T15:01:20Z</time>
      </trkpt>
      <trkpt lat="49.74629" lon="2.33131">
        <ele>90.7</ele>
        <time>2023-03-01T15:01:21Z</time>
      </trkpt>
      <trkpt lat="49.74629" lon="2.33132">
        <ele>90.7</ele>
        <time>2023-03-01T15:01:22Z</time>
      </trkpt>
      <trkpt lat="49.74629" lon="2.33134">
        <ele>90.7</ele>
        <time>2023-03-01T15:01:23Z</time>
      </trkpt>
      <trkpt lat="49.74629" lon="2.33137">
        <ele>90.7</ele>
        <time>2023-03-01T15:01:24Z</time>
      </trkpt>
      <trkpt lat="49.74629" lon="2.33138">
        <ele>90.7</ele>
        <time>2023-03-01T15:01:26Z</time>
      </trkpt>
      <trkpt lat="49.74629" lon="2.33139">
        <ele>90.7</ele>
        <time>2023-03-01T15:01:27Z</time>
      </trkpt>
      <trkpt lat="49.74629" lon="2.3314">
        <ele>90.7</ele>
        <time>2023-03-01T15:01:28Z</time>
      </trkpt>
      <trkpt lat="49.7463" lon="2.33141">
        <ele>90.7</ele>
        <time>2023-03-01T15:01:29Z</time>
      </trkpt>
      <trkpt lat="49.7463" lon="2.33143">
        <ele>90.7</ele>
        <time>2023-03-01T15:01:30Z</time>
      </trkpt>
      <trkpt lat="49.7463" lon="2.33144">
        <ele>90.7</ele>
        <time>2023-03-01T15:01:31Z</time>
      </trkpt>
      <trkpt lat="49.7463" lon="2.33145">
        <ele>90.7</ele>
        <time>2023-03-01T15:01:32Z</time>
      </trkpt>
      <trkpt lat="49.7463" lon="2.33147">
        <ele>90.7</ele>
        <time>2023-03-01T15:01:33Z</time>
      </trkpt>
      <trkpt lat="49.7463" lon="2.33149">
        <ele>90.7</ele>
        <time>2023-03-01T15:01:34Z</time>
      </trkpt>
      <trkpt lat="49.7463" lon="2.33151">
        <ele>90.7</ele>
        <time>2023-03-01T15:01:35Z</time>
      </trkpt>
      <trkpt lat="49.7463" lon="2.33153">
        <ele>90.7</ele>
        <time>2023-03-01T15:01:37Z</time>
      </trkpt>
      <trkpt lat="49.7463" lon="2.33156">
        <ele>90.7</ele>
        <time>2023-03-01T15:01:38Z</time>
      </trkpt>
      <trkpt lat="49.7463" lon="2.33158">
        <ele>90.7</ele>
        <time>2023-03-01T15:01:39Z</time>
      </trkpt>
      <trkpt lat="49.74631" lon="2.3316">
        <ele>90.7</ele>
        <time>2023-03-01T15:01:40Z</time>
      </trkpt>
      <trkpt lat="49.74631" lon="2.33161">
        <ele>90.7</ele>
        <time>2023-03-01T15:01:41Z</time>
      </trkpt>
      <trkpt lat="49.74631" lon="2.33163">
        <ele>90.7</ele>
        <time>2023-03-01T15:01:43Z</time>
      </trkpt>
      <trkpt lat="49.74631" lon="2.33164">
        <ele>90.7</ele>
        <time>2023-03-01T15:01:44Z</time>
      </trkpt>
      <trkpt lat="49.74631" lon="2.33166">
        <ele>90.7</ele>
        <time>2023-03-01T15:01:45Z</time>
      </trkpt>
      <trkpt lat="49.74631" lon="2.33169">
        <ele>90.7</ele>
        <time>2023-03-01T15:01:46Z</time>
      </trkpt>
      <trkpt lat="49.74631" lon="2.3317">
        <ele>90.6</ele>
        <time>2023-03-01T15:01:47Z</time>
      </trkpt>
      <trkpt lat="49.74631" lon="2.33172">
        <ele>90.6</ele>
        <time>2023-03-01T15:01:48Z</time>
      </trkpt>
      <trkpt lat="49.74632" lon="2.33174">
        <ele>90.6</ele>
        <time>2023-03-01T15:01:49Z</time>
      </trkpt>
      <trkpt lat="49.74632" lon="2.33175">
        <ele>90.6</ele>
        <time>2023-03-01T15:01:50Z</time>
      </trkpt>
      <trkpt lat="49.74632" lon="2.33177">
        <ele>90.6</ele>
        <time>2023-03-01T15:01:52Z</time>
      </trkpt>
      <trkpt lat="49.74633" lon="2.33179">
        <ele>90.6</ele>
        <time>2023-03-01T15:01:53Z</time>
      </trkpt>
      <trkpt lat="49.74633" lon="2.33181">
        <ele>90.6</ele>
        <time>2023-03-01T15:01:54Z</time>
      </trkpt>
      <trkpt lat="49.74634" lon="2.33183">
        <ele>90.6</ele>
        <time>2023-03-01T15:01:55Z</time>
      </trkpt>
      <trkpt lat="49.74634" lon="2.33185">
        <ele>90.6</ele>
        <time>2023-03-01T15:01:56Z</time>
      </trkpt>
      <trkpt lat="49.74634" lon="2.33186">
        <ele>90.6</ele>
        <time>2023-03-01T15:01:58Z</time>
      </trkpt>
      <trkpt lat="49.74635" lon="2.3319">
        <ele>90.6</ele>
        <time>2023-03-01T15:01:59Z</time>
      </trkpt>
      <trkpt lat="49.74635" lon="2.33193">
        <ele>90.6</ele>
        <time>2023-03-01T15:02:01Z</time>
      </trkpt>
      <trkpt lat="49.74636" lon="2.33195">
        <ele>90.6</ele>
        <time>2023-03-01T15:02:02Z</time>
      </trkpt>
      <trkpt lat="49.74636" lon="2.33198">
        <ele>90.6</ele>
        <time>2023-03-01T15:02:03Z</time>
      </trkpt>
      <trkpt lat="49.74637" lon="2.33201">
        <ele>90.6</ele>
        <time>2023-03-01T15:02:04Z</time>
      </trkpt>
      <trkpt lat="49.74637" lon="2.33202">
        <ele>90.6</ele>
        <time>2023-03-01T15:02:05Z</time>
      </trkpt>
      <trkpt lat="49.74637" lon="2.33203">
        <ele>90.6</ele>
        <time>2023-03-01T15:02:06Z</time>
      </trkpt>
      <trkpt lat="49.74637" lon="2.33205">
        <ele>90.6</ele>
        <time>2023-03-01T15:02:07Z</time>
      </trkpt>
      <trkpt lat="49.74637" lon="2.33208">
        <ele>90.6</ele>
        <time>2023-03-01T15:02:08Z</time>
      </trkpt>
      <trkpt lat="49.74637" lon="2.33209">
        <ele>90.6</ele>
        <time>2023-03-01T15:02:10Z</time>
      </trkpt>
      <trkpt lat="49.74637" lon="2.33211">
        <ele>90.6</ele>
        <time>2023-03-01T15:02:11Z</time>
      </trkpt>
      <trkpt lat="49.74637" lon="2.33213">
        <ele>90.6</ele>
        <time>2023-03-01T15:02:12Z</time>
      </trkpt>
      <trkpt lat="49.74638" lon="2.33215">
        <ele>90.6</ele>
        <time>2023-03-01T15:02:13Z</time>
      </trkpt>
      <trkpt lat="49.74638" lon="2.33217">
        <ele>90.6</ele>
        <time>2023-03-01T15:02:14Z</time>
      </trkpt>
      <trkpt lat="49.74638" lon="2.3322">
        <ele>90.6</ele>
        <time>2023-03-01T15:02:15Z</time>
      </trkpt>
      <trkpt lat="49.74639" lon="2.33221">
        <ele>90.6</ele>
        <time>2023-03-01T15:02:16Z</time>
      </trkpt>
      <trkpt lat="49.74639" lon="2.33223">
        <ele>90.6</ele>
        <time>2023-03-01T15:02:17Z</time>
      </trkpt>
      <trkpt lat="49.74639" lon="2.33226">
        <ele>90.6</ele>
        <time>2023-03-01T15:02:18Z</time>
      </trkpt>
      <trkpt lat="49.74639" lon="2.33226">
        <ele>90.6</ele>
        <time>2023-03-01T15:02:20Z</time>
      </trkpt>
      <trkpt lat="49.74639" lon="2.33228">
        <ele>90.6</ele>
        <time>2023-03-01T15:02:21Z</time>
      </trkpt>
      <trkpt lat="49.74639" lon="2.33231">
        <ele>90.6</ele>
        <time>2023-03-01T15:02:22Z</time>
      </trkpt>
      <trkpt lat="49.74639" lon="2.33233">
        <ele>90.6</ele>
        <time>2023-03-01T15:02:23Z</time>
      </trkpt>
      <trkpt lat="49.74638" lon="2.33234">
        <ele>90.6</ele>
        <time>2023-03-01T15:02:24Z</time>
      </trkpt>
      <trkpt lat="49.74638" lon="2.33236">
        <ele>90.6</ele>
        <time>2023-03-01T15:02:25Z</time>
      </trkpt>
      <trkpt lat="49.74638" lon="2.33238">
        <ele>90.6</ele>
        <time>2023-03-01T15:02:26Z</time>
      </trkpt>
      <trkpt lat="49.74638" lon="2.33239">
        <ele>90.6</ele>
        <time>2023-03-01T15:02:27Z</time>
      </trkpt>
      <trkpt lat="49.74638" lon="2.33242">
        <ele>90.6</ele>
        <time>2023-03-01T15:02:29Z</time>
      </trkpt>
      <trkpt lat="49.74638" lon="2.33244">
        <ele>90.6</ele>
        <time>2023-03-01T15:02:30Z</time>
      </trkpt>
      <trkpt lat="49.74638" lon="2.33247">
        <ele>90.6</ele>
        <time>2023-03-01T15:02:31Z</time>
      </trkpt>
      <trkpt lat="49.74638" lon="2.33248">
        <ele>90.6</ele>
        <time>2023-03-01T15:02:32Z</time>
      </trkpt>
      <trkpt lat="49.74638" lon="2.3325">
        <ele>90.6</ele>
        <time>2023-03-01T15:02:33Z</time>
      </trkpt>
      <trkpt lat="49.74638" lon="2.33251">
        <ele>90.6</ele>
        <time>2023-03-01T15:02:34Z</time>
      </trkpt>
      <trkpt lat="49.74638" lon="2.33253">
        <ele>90.6</ele>
        <time>2023-03-01T15:02:35Z</time>
      </trkpt>
      <trkpt lat="49.74638" lon="2.33255">
        <ele>90.6</ele>
        <time>2023-03-01T15:02:36Z</time>
      </trkpt>
      <trkpt lat="49.74638" lon="2.33257">
        <ele>90.6</ele>
        <time>2023-03-01T15:02:37Z</time>
      </trkpt>
      <trkpt lat="49.74638" lon="2.33261">
        <ele>90.6</ele>
        <time>2023-03-01T15:02:38Z</time>
      </trkpt>
      <trkpt lat="49.74638" lon="2.33263">
        <ele>90.6</ele>
        <time>2023-03-01T15:02:39Z</time>
      </trkpt>
      <trkpt lat="49.74638" lon="2.33265">
        <ele>90.6</ele>
        <time>2023-03-01T15:02:41Z</time>
      </trkpt>
      <trkpt lat="49.74638" lon="2.33267">
        <ele>90.6</ele>
        <time>2023-03-01T15:02:42Z</time>
      </trkpt>
      <trkpt lat="49.74638" lon="2.33268">
        <ele>90.6</ele>
        <time>2023-03-01T15:02:43Z</time>
      </trkpt>
      <trkpt lat="49.74638" lon="2.33271">
        <ele>90.6</ele>
        <time>2023-03-01T15:02:44Z</time>
      </trkpt>
      <trkpt lat="49.74638" lon="2.33273">
        <ele>90.6</ele>
        <time>2023-03-01T15:02:45Z</time>
      </trkpt>
      <trkpt lat="49.74638" lon="2.33275">
        <ele>90.6</ele>
        <time>2023-03-01T15:02:46Z</time>
      </trkpt>
      <trkpt lat="49.74638" lon="2.33277">
        <ele>90.6</ele>
        <time>2023-03-01T15:02:48Z</time>
      </trkpt>
      <trkpt lat="49.74639" lon="2.33281">
        <ele>90.6</ele>
        <time>2023-03-01T15:02:49Z</time>
      </trkpt>
      <trkpt lat="49.74639" lon="2.33282">
        <ele>90.6</ele>
        <time>2023-03-01T15:02:50Z</time>
      </trkpt>
      <trkpt lat="49.74639" lon="2.33283">
        <ele>90.6</ele>
        <time>2023-03-01T15:02:51Z</time>
      </trkpt>
      <trkpt lat="49.74639" lon="2.33286">
        <ele>90.6</ele>
        <time>2023-03-01T15:02:52Z</time>
      </trkpt>
      <trkpt lat="49.74639" lon="2.33288">
        <ele>90.6</ele>
        <time>2023-03-01T15:02:53Z</time>
      </trkpt>
      <trkpt lat="49.74639" lon="2.33289">
        <ele>90.6</ele>
        <time>2023-03-01T15:02:54Z</time>
      </trkpt>
      <trkpt lat="49.74639" lon="2.33292">
        <ele>90.6</ele>
        <time>2023-03-01T15:02:55Z</time>
      </trkpt>
      <trkpt lat="49.7464" lon="2.33294">
        <ele>90.6</ele>
        <time>2023-03-01T15:02:56Z</time>
      </trkpt>
      <trkpt lat="49.7464" lon="2.33295">
        <ele>90.6</ele>
        <time>2023-03-01T15:02:57Z</time>
      </trkpt>
      <trkpt lat="49.7464" lon="2.33299">
        <ele>90.6</ele>
        <time>2023-03-01T15:02:58Z</time>
      </trkpt>
      <trkpt lat="49.74641" lon="2.333">
        <ele>90.6</ele>
        <time>2023-03-01T15:02:59Z</time>
      </trkpt>
      <trkpt lat="49.74641" lon="2.33302">
        <ele>90.6</ele>
        <time>2023-03-01T15:03:01Z</time>
      </trkpt>
      <trkpt lat="49.74641" lon="2.33303">
        <ele>90.6</ele>
        <time>2023-03-01T15:03:02Z</time>
      </trkpt>
      <trkpt lat="49.74641" lon="2.33305">
        <ele>90.6</ele>
        <time>2023-03-01T15:03:03Z</time>
      </trkpt>
      <trkpt lat="49.74641" lon="2.33306">
        <ele>90.6</ele>
        <time>2023-03-01T15:03:04Z</time>
      </trkpt>
      <trkpt lat="49.74641" lon="2.33308">
        <ele>90.6</ele>
        <time>2023-03-01T15:03:05Z</time>
      </trkpt>
      <trkpt lat="49.74642" lon="2.3331">
        <ele>90.7</ele>
        <time>2023-03-01T15:03:06Z</time>
      </trkpt>
      <trkpt lat="49.74642" lon="2.33312">
        <ele>90.7</ele>
        <time>2023-03-01T15:03:08Z</time>
      </trkpt>
      <trkpt lat="49.74642" lon="2.33315">
        <ele>90.7</ele>
        <time>2023-03-01T15:03:09Z</time>
      </trkpt>
      <trkpt lat="49.74643" lon="2.33318">
        <ele>90.7</ele>
        <time>2023-03-01T15:03:10Z</time>
      </trkpt>
      <trkpt lat="49.74643" lon="2.3332">
        <ele>90.7</ele>
        <time>2023-03-01T15:03:11Z</time>
      </trkpt>
      <trkpt lat="49.74643" lon="2.33322">
        <ele>90.7</ele>
        <time>2023-03-01T15:03:12Z</time>
      </trkpt>
      <trkpt lat="49.74643" lon="2.33324">
        <ele>90.7</ele>
        <time>2023-03-01T15:03:14Z</time>
      </trkpt>
      <trkpt lat="49.74643" lon="2.33325">
        <ele>90.7</ele>
        <time>2023-03-01T15:03:15Z</time>
      </trkpt>
      <trkpt lat="49.74643" lon="2.33327">
        <ele>90.7</ele>
        <time>2023-03-01T15:03:16Z</time>
      </trkpt>
      <trkpt lat="49.74643" lon="2.33329">
        <ele>90.7</ele>
        <time>2023-03-01T15:03:17Z</time>
      </trkpt>
      <trkpt lat="49.74642" lon="2.33331">
        <ele>90.7</ele>
        <time>2023-03-01T15:03:18Z</time>
      </trkpt>
      <trkpt lat="49.74642" lon="2.33333">
        <ele>90.8</ele>
        <time>2023-03-01T15:03:19Z</time>
      </trkpt>
      <trkpt lat="49.74643" lon="2.33336">
        <ele>90.8</ele>
        <time>2023-03-01T15:03:20Z</time>
      </trkpt>
      <trkpt lat="49.74643" lon="2.33338">
        <ele>90.8</ele>
        <time>2023-03-01T15:03:22Z</time>
      </trkpt>
      <trkpt lat="49.74643" lon="2.33339">
        <ele>90.8</ele>
        <time>2023-03-01T15:03:23Z</time>
      </trkpt>
      <trkpt lat="49.74643" lon="2.33342">
        <ele>90.8</ele>
        <time>2023-03-01T15:03:24Z</time>
      </trkpt>
      <trkpt lat="49.74644" lon="2.33343">
        <ele>90.8</ele>
        <time>2023-03-01T15:03:25Z</time>
      </trkpt>
      <trkpt lat="49.74644" lon="2.33345">
        <ele>90.8</ele>
        <time>2023-03-01T15:03:26Z</time>
      </trkpt>
      <trkpt lat="49.74644" lon="2.33347">
        <ele>90.8</ele>
        <time>2023-03-01T15:03:27Z</time>
      </trkpt>
      <trkpt lat="49.74644" lon="2.33349">
        <ele>90.8</ele>
        <time>2023-03-01T15:03:28Z</time>
      </trkpt>
      <trkpt lat="49.74644" lon="2.3335">
        <ele>90.8</ele>
        <time>2023-03-01T15:03:30Z</time>
      </trkpt>
      <trkpt lat="49.74644" lon="2.33352">
        <ele>90.8</ele>
        <time>2023-03-01T15:03:31Z</time>
      </trkpt>
      <trkpt lat="49.74645" lon="2.33355">
        <ele>90.9</ele>
        <time>2023-03-01T15:03:32Z</time>
      </trkpt>
      <trkpt lat="49.74645" lon="2.33357">
        <ele>90.9</ele>
        <time>2023-03-01T15:03:33Z</time>
      </trkpt>
      <trkpt lat="49.74645" lon="2.33358">
        <ele>90.9</ele>
        <time>2023-03-01T15:03:34Z</time>
      </trkpt>
      <trkpt lat="49.74645" lon="2.3336">
        <ele>90.9</ele>
        <time>2023-03-01T15:03:35Z</time>
      </trkpt>
      <trkpt lat="49.74645" lon="2.33362">
        <ele>90.9</ele>
        <time>2023-03-01T15:03:36Z</time>
      </trkpt>
      <trkpt lat="49.74645" lon="2.33364">
        <ele>90.9</ele>
        <time>2023-03-01T15:03:37Z</time>
      </trkpt>
      <trkpt lat="49.74645" lon="2.33366">
        <ele>90.9</ele>
        <time>2023-03-01T15:03:38Z</time>
      </trkpt>
      <trkpt lat="49.74645" lon="2.33368">
        <ele>90.9</ele>
        <time>2023-03-01T15:03:39Z</time>
      </trkpt>
      <trkpt lat="49.74645" lon="2.33371">
        <ele>90.9</ele>
        <time>2023-03-01T15:03:41Z</time>
      </trkpt>
      <trkpt lat="49.74646" lon="2.33372">
        <ele>90.9</ele>
        <time>2023-03-01T15:03:42Z</time>
      </trkpt>
      <trkpt lat="49.74646" lon="2.33374">
        <ele>90.9</ele>
        <time>2023-03-01T15:03:43Z</time>
      </trkpt>
      <trkpt lat="49.74646" lon="2.33376">
        <ele>91</ele>
        <time>2023-03-01T15:03:44Z</time>
      </trkpt>
      <trkpt lat="49.74646" lon="2.33378">
        <ele>91</ele>
        <time>2023-03-01T15:03:45Z</time>
      </trkpt>
      <trkpt lat="49.74647" lon="2.33382">
        <ele>91</ele>
        <time>2023-03-01T15:03:46Z</time>
      </trkpt>
      <trkpt lat="49.74647" lon="2.33383">
        <ele>91</ele>
        <time>2023-03-01T15:03:48Z</time>
      </trkpt>
      <trkpt lat="49.74647" lon="2.33385">
        <ele>91</ele>
        <time>2023-03-01T15:03:49Z</time>
      </trkpt>
      <trkpt lat="49.74648" lon="2.33388">
        <ele>91</ele>
        <time>2023-03-01T15:03:50Z</time>
      </trkpt>
      <trkpt lat="49.74648" lon="2.3339">
        <ele>91</ele>
        <time>2023-03-01T15:03:51Z</time>
      </trkpt>
      <trkpt lat="49.74648" lon="2.33391">
        <ele>91</ele>
        <time>2023-03-01T15:03:53Z</time>
      </trkpt>
      <trkpt lat="49.74648" lon="2.33393">
        <ele>91</ele>
        <time>2023-03-01T15:03:54Z</time>
      </trkpt>
      <trkpt lat="49.74648" lon="2.33394">
        <ele>91</ele>
        <time>2023-03-01T15:03:55Z</time>
      </trkpt>
      <trkpt lat="49.74648" lon="2.33396">
        <ele>91</ele>
        <time>2023-03-01T15:03:56Z</time>
      </trkpt>
      <trkpt lat="49.74648" lon="2.33399">
        <ele>91</ele>
        <time>2023-03-01T15:03:57Z</time>
      </trkpt>
      <trkpt lat="49.74648" lon="2.33401">
        <ele>91</ele>
        <time>2023-03-01T15:03:58Z</time>
      </trkpt>
      <trkpt lat="49.74648" lon="2.33402">
        <ele>91</ele>
        <time>2023-03-01T15:03:59Z</time>
      </trkpt>
      <trkpt lat="49.74648" lon="2.33404">
        <ele>91.1</ele>
        <time>2023-03-01T15:04:00Z</time>
      </trkpt>
      <trkpt lat="49.74649" lon="2.33405">
        <ele>91.1</ele>
        <time>2023-03-01T15:04:02Z</time>
      </trkpt>
      <trkpt lat="49.74649" lon="2.33407">
        <ele>91.1</ele>
        <time>2023-03-01T15:04:03Z</time>
      </trkpt>
      <trkpt lat="49.74649" lon="2.33411">
        <ele>91.1</ele>
        <time>2023-03-01T15:04:04Z</time>
      </trkpt>
      <trkpt lat="49.74649" lon="2.33412">
        <ele>91.1</ele>
        <time>2023-03-01T15:04:05Z</time>
      </trkpt>
      <trkpt lat="49.7465" lon="2.33413">
        <ele>91.1</ele>
        <time>2023-03-01T15:04:06Z</time>
      </trkpt>
      <trkpt lat="49.7465" lon="2.33414">
        <ele>91.1</ele>
        <time>2023-03-01T15:04:07Z</time>
      </trkpt>
      <trkpt lat="49.7465" lon="2.33416">
        <ele>91.1</ele>
        <time>2023-03-01T15:04:08Z</time>
      </trkpt>
      <trkpt lat="49.7465" lon="2.33418">
        <ele>91.1</ele>
        <time>2023-03-01T15:04:09Z</time>
      </trkpt>
      <trkpt lat="49.7465" lon="2.33421">
        <ele>91.1</ele>
        <time>2023-03-01T15:04:10Z</time>
      </trkpt>
      <trkpt lat="49.7465" lon="2.33423">
        <ele>91.1</ele>
        <time>2023-03-01T15:04:11Z</time>
      </trkpt>
      <trkpt lat="49.7465" lon="2.33425">
        <ele>91</ele>
        <time>2023-03-01T15:04:13Z</time>
      </trkpt>
      <trkpt lat="49.74649" lon="2.33427">
        <ele>91</ele>
        <time>2023-03-01T15:04:15Z</time>
      </trkpt>
      <trkpt lat="49.74649" lon="2.33429">
        <ele>91</ele>
        <time>2023-03-01T15:04:16Z</time>
      </trkpt>
      <trkpt lat="49.7465" lon="2.33432">
        <ele>91</ele>
        <time>2023-03-01T15:04:17Z</time>
      </trkpt>
      <trkpt lat="49.7465" lon="2.33434">
        <ele>91</ele>
        <time>2023-03-01T15:04:18Z</time>
      </trkpt>
      <trkpt lat="49.7465" lon="2.33435">
        <ele>91</ele>
        <time>2023-03-01T15:04:19Z</time>
      </trkpt>
      <trkpt lat="49.7465" lon="2.33436">
        <ele>91</ele>
        <time>2023-03-01T15:04:20Z</time>
      </trkpt>
      <trkpt lat="49.7465" lon="2.33437">
        <ele>91</ele>
        <time>2023-03-01T15:04:22Z</time>
      </trkpt>
      <trkpt lat="49.7465" lon="2.33439">
        <ele>91</ele>
        <time>2023-03-01T15:04:23Z</time>
      </trkpt>
      <trkpt lat="49.7465" lon="2.3344">
        <ele>91</ele>
        <time>2023-03-01T15:04:24Z</time>
      </trkpt>
      <trkpt lat="49.7465" lon="2.33442">
        <ele>91</ele>
        <time>2023-03-01T15:04:25Z</time>
      </trkpt>
      <trkpt lat="49.7465" lon="2.33444">
        <ele>91</ele>
        <time>2023-03-01T15:04:26Z</time>
      </trkpt>
      <trkpt lat="49.7465" lon="2.33445">
        <ele>91</ele>
        <time>2023-03-01T15:04:27Z</time>
      </trkpt>
      <trkpt lat="49.74651" lon="2.33447">
        <ele>91</ele>
        <time>2023-03-01T15:04:29Z</time>
      </trkpt>
      <trkpt lat="49.74651" lon="2.33451">
        <ele>90.9</ele>
        <time>2023-03-01T15:04:30Z</time>
      </trkpt>
      <trkpt lat="49.74652" lon="2.33454">
        <ele>90.9</ele>
        <time>2023-03-01T15:04:32Z</time>
      </trkpt>
      <trkpt lat="49.74652" lon="2.33455">
        <ele>90.9</ele>
        <time>2023-03-01T15:04:33Z</time>
      </trkpt>
      <trkpt lat="49.74652" lon="2.33457">
        <ele>90.9</ele>
        <time>2023-03-01T15:04:34Z</time>
      </trkpt>
      <trkpt lat="49.74652" lon="2.33459">
        <ele>90.9</ele>
        <time>2023-03-01T15:04:35Z</time>
      </trkpt>
      <trkpt lat="49.74652" lon="2.3346">
        <ele>90.9</ele>
        <time>2023-03-01T15:04:36Z</time>
      </trkpt>
      <trkpt lat="49.74652" lon="2.33464">
        <ele>90.8</ele>
        <time>2023-03-01T15:04:37Z</time>
      </trkpt>
      <trkpt lat="49.74652" lon="2.33465">
        <ele>90.8</ele>
        <time>2023-03-01T15:04:38Z</time>
      </trkpt>
      <trkpt lat="49.74652" lon="2.33467">
        <ele>90.8</ele>
        <time>2023-03-01T15:04:39Z</time>
      </trkpt>
      <trkpt lat="49.74652" lon="2.3347">
        <ele>90.8</ele>
        <time>2023-03-01T15:04:40Z</time>
      </trkpt>
      <trkpt lat="49.74652" lon="2.33471">
        <ele>90.8</ele>
        <time>2023-03-01T15:04:42Z</time>
      </trkpt>
      <trkpt lat="49.74652" lon="2.33473">
        <ele>90.8</ele>
        <time>2023-03-01T15:04:43Z</time>
      </trkpt>
      <trkpt lat="49.74652" lon="2.33475">
        <ele>90.7</ele>
        <time>2023-03-01T15:04:44Z</time>
      </trkpt>
      <trkpt lat="49.74653" lon="2.33478">
        <ele>90.7</ele>
        <time>2023-03-01T15:04:45Z</time>
      </trkpt>
      <trkpt lat="49.74653" lon="2.3348">
        <ele>90.7</ele>
        <time>2023-03-01T15:04:46Z</time>
      </trkpt>
      <trkpt lat="49.74653" lon="2.33483">
        <ele>90.7</ele>
        <time>2023-03-01T15:04:48Z</time>
      </trkpt>
      <trkpt lat="49.74654" lon="2.33487">
        <ele>90.7</ele>
        <time>2023-03-01T15:04:49Z</time>
      </trkpt>
      <trkpt lat="49.74654" lon="2.3349">
        <ele>90.6</ele>
        <time>2023-03-01T15:04:50Z</time>
      </trkpt>
      <trkpt lat="49.74655" lon="2.33492">
        <ele>90.6</ele>
        <time>2023-03-01T15:04:51Z</time>
      </trkpt>
      <trkpt lat="49.74655" lon="2.33493">
        <ele>90.6</ele>
        <time>2023-03-01T15:04:52Z</time>
      </trkpt>
      <trkpt lat="49.74655" lon="2.33497">
        <ele>90.6</ele>
        <time>2023-03-01T15:04:53Z</time>
      </trkpt>
      <trkpt lat="49.74656" lon="2.33499">
        <ele>90.6</ele>
        <time>2023-03-01T15:04:55Z</time>
      </trkpt>
      <trkpt lat="49.74656" lon="2.33501">
        <ele>90.5</ele>
        <time>2023-03-01T15:04:56Z</time>
      </trkpt>
      <trkpt lat="49.74656" lon="2.33502">
        <ele>90.5</ele>
        <time>2023-03-01T15:04:57Z</time>
      </trkpt>
      <trkpt lat="49.74656" lon="2.33504">
        <ele>90.5</ele>
        <time>2023-03-01T15:04:58Z</time>
      </trkpt>
      <trkpt lat="49.74657" lon="2.33506">
        <ele>90.5</ele>
        <time>2023-03-01T15:04:59Z</time>
      </trkpt>
      <trkpt lat="49.74657" lon="2.33509">
        <ele>90.5</ele>
        <time>2023-03-01T15:05:00Z</time>
      </trkpt>
      <trkpt lat="49.74658" lon="2.33512">
        <ele>90.5</ele>
        <time>2023-03-01T15:05:01Z</time>
      </trkpt>
      <trkpt lat="49.74658" lon="2.33513">
        <ele>90.5</ele>
        <time>2023-03-01T15:05:03Z</time>
      </trkpt>
      <trkpt lat="49.74658" lon="2.33514">
        <ele>90.4</ele>
        <time>2023-03-01T15:05:04Z</time>
      </trkpt>
      <trkpt lat="49.74658" lon="2.33516">
        <ele>90.4</ele>
        <time>2023-03-01T15:05:05Z</time>
      </trkpt>
      <trkpt lat="49.74659" lon="2.33518">
        <ele>90.4</ele>
        <time>2023-03-01T15:05:06Z</time>
      </trkpt>
      <trkpt lat="49.74659" lon="2.33522">
        <ele>90.4</ele>
        <time>2023-03-01T15:05:07Z</time>
      </trkpt>
      <trkpt lat="49.74659" lon="2.33523">
        <ele>90.4</ele>
        <time>2023-03-01T15:05:08Z</time>
      </trkpt>
      <trkpt lat="49.74659" lon="2.33525">
        <ele>90.4</ele>
        <time>2023-03-01T15:05:09Z</time>
      </trkpt>
      <trkpt lat="49.74659" lon="2.33526">
        <ele>90.3</ele>
        <time>2023-03-01T15:05:10Z</time>
      </trkpt>
      <trkpt lat="49.74659" lon="2.33528">
        <ele>90.3</ele>
        <time>2023-03-01T15:05:11Z</time>
      </trkpt>
      <trkpt lat="49.74659" lon="2.3353">
        <ele>90.3</ele>
        <time>2023-03-01T15:05:12Z</time>
      </trkpt>
      <trkpt lat="49.74659" lon="2.33533">
        <ele>90.3</ele>
        <time>2023-03-01T15:05:13Z</time>
      </trkpt>
      <trkpt lat="49.74659" lon="2.33535">
        <ele>90.3</ele>
        <time>2023-03-01T15:05:15Z</time>
      </trkpt>
      <trkpt lat="49.74659" lon="2.33537">
        <ele>90.3</ele>
        <time>2023-03-01T15:05:16Z</time>
      </trkpt>
      <trkpt lat="49.74659" lon="2.33539">
        <ele>90.2</ele>
        <time>2023-03-01T15:05:17Z</time>
      </trkpt>
      <trkpt lat="49.7466" lon="2.3354">
        <ele>90.2</ele>
        <time>2023-03-01T15:05:18Z</time>
      </trkpt>
      <trkpt lat="49.7466" lon="2.33544">
        <ele>90.2</ele>
        <time>2023-03-01T15:05:19Z</time>
      </trkpt>
      <trkpt lat="49.7466" lon="2.33546">
        <ele>90.2</ele>
        <time>2023-03-01T15:05:21Z</time>
      </trkpt>
      <trkpt lat="49.7466" lon="2.33548">
        <ele>90.1</ele>
        <time>2023-03-01T15:05:22Z</time>
      </trkpt>
      <trkpt lat="49.7466" lon="2.3355">
        <ele>90.1</ele>
        <time>2023-03-01T15:05:23Z</time>
      </trkpt>
      <trkpt lat="49.7466" lon="2.33553">
        <ele>90.1</ele>
        <time>2023-03-01T15:05:24Z</time>
      </trkpt>
      <trkpt lat="49.7466" lon="2.33554">
        <ele>90.1</ele>
        <time>2023-03-01T15:05:25Z</time>
      </trkpt>
      <trkpt lat="49.74661" lon="2.33556">
        <ele>90.1</ele>
        <time>2023-03-01T15:05:26Z</time>
      </trkpt>
      <trkpt lat="49.74661" lon="2.33558">
        <ele>90</ele>
        <time>2023-03-01T15:05:27Z</time>
      </trkpt>
      <trkpt lat="49.74661" lon="2.33559">
        <ele>90</ele>
        <time>2023-03-01T15:05:29Z</time>
      </trkpt>
      <trkpt lat="49.74661" lon="2.33561">
        <ele>90</ele>
        <time>2023-03-01T15:05:30Z</time>
      </trkpt>
      <trkpt lat="49.74661" lon="2.33563">
        <ele>90</ele>
        <time>2023-03-01T15:05:31Z</time>
      </trkpt>
      <trkpt lat="49.74661" lon="2.33565">
        <ele>90</ele>
        <time>2023-03-01T15:05:32Z</time>
      </trkpt>
      <trkpt lat="49.74661" lon="2.33568">
        <ele>89.9</ele>
        <time>2023-03-01T15:05:33Z</time>
      </trkpt>
      <trkpt lat="49.74661" lon="2.3357">
        <ele>89.9</ele>
        <time>2023-03-01T15:05:34Z</time>
      </trkpt>
      <trkpt lat="49.74661" lon="2.33572">
        <ele>89.9</ele>
        <time>2023-03-01T15:05:35Z</time>
      </trkpt>
      <trkpt lat="49.74661" lon="2.33575">
        <ele>89.9</ele>
        <time>2023-03-01T15:05:37Z</time>
      </trkpt>
      <trkpt lat="49.74661" lon="2.33577">
        <ele>89.9</ele>
        <time>2023-03-01T15:05:38Z</time>
      </trkpt>
      <trkpt lat="49.74661" lon="2.33578">
        <ele>89.8</ele>
        <time>2023-03-01T15:05:39Z</time>
      </trkpt>
      <trkpt lat="49.74662" lon="2.33581">
        <ele>89.8</ele>
        <time>2023-03-01T15:05:40Z</time>
      </trkpt>
      <trkpt lat="49.74662" lon="2.33583">
        <ele>89.8</ele>
        <time>2023-03-01T15:05:41Z</time>
      </trkpt>
      <trkpt lat="49.74662" lon="2.33586">
        <ele>89.8</ele>
        <time>2023-03-01T15:05:42Z</time>
      </trkpt>
      <trkpt lat="49.74663" lon="2.33587">
        <ele>89.7</ele>
        <time>2023-03-01T15:05:43Z</time>
      </trkpt>
      <trkpt lat="49.74663" lon="2.33589">
        <ele>89.7</ele>
        <time>2023-03-01T15:05:44Z</time>
      </trkpt>
      <trkpt lat="49.74663" lon="2.3359">
        <ele>89.7</ele>
        <time>2023-03-01T15:05:46Z</time>
      </trkpt>
      <trkpt lat="49.74663" lon="2.33591">
        <ele>89.7</ele>
        <time>2023-03-01T15:05:47Z</time>
      </trkpt>
      <trkpt lat="49.74663" lon="2.33593">
        <ele>89.7</ele>
        <time>2023-03-01T15:05:48Z</time>
      </trkpt>
      <trkpt lat="49.74663" lon="2.33595">
        <ele>89.7</ele>
        <time>2023-03-01T15:05:49Z</time>
      </trkpt>
      <trkpt lat="49.74663" lon="2.33597">
        <ele>89.6</ele>
        <time>2023-03-01T15:05:50Z</time>
      </trkpt>
      <trkpt lat="49.74663" lon="2.33598">
        <ele>89.6</ele>
        <time>2023-03-01T15:05:51Z</time>
      </trkpt>
      <trkpt lat="49.74664" lon="2.33602">
        <ele>89.6</ele>
        <time>2023-03-01T15:05:52Z</time>
      </trkpt>
      <trkpt lat="49.74664" lon="2.33603">
        <ele>89.6</ele>
        <time>2023-03-01T15:05:53Z</time>
      </trkpt>
      <trkpt lat="49.74664" lon="2.33604">
        <ele>89.6</ele>
        <time>2023-03-01T15:05:54Z</time>
      </trkpt>
      <trkpt lat="49.74665" lon="2.33605">
        <ele>89.6</ele>
        <time>2023-03-01T15:05:55Z</time>
      </trkpt>
      <trkpt lat="49.74665" lon="2.33606">
        <ele>89.5</ele>
        <time>2023-03-01T15:05:56Z</time>
      </trkpt>
      <trkpt lat="49.74665" lon="2.33608">
        <ele>89.5</ele>
        <time>2023-03-01T15:05:58Z</time>
      </trkpt>
      <trkpt lat="49.74665" lon="2.33609">
        <ele>89.5</ele>
        <time>2023-03-01T15:05:59Z</time>
      </trkpt>
      <trkpt lat="49.74665" lon="2.33613">
        <ele>89.5</ele>
        <time>2023-03-01T15:06:00Z</time>
      </trkpt>
      <trkpt lat="49.74665" lon="2.33614">
        <ele>89.4</ele>
        <time>2023-03-01T15:06:01Z</time>
      </trkpt>
      <trkpt lat="49.74665" lon="2.33615">
        <ele>89.4</ele>
        <time>2023-03-01T15:06:02Z</time>
      </trkpt>
      <trkpt lat="49.74666" lon="2.33618">
        <ele>89.4</ele>
        <time>2023-03-01T15:06:03Z</time>
      </trkpt>
      <trkpt lat="49.74666" lon="2.3362">
        <ele>89.4</ele>
        <time>2023-03-01T15:06:04Z</time>
      </trkpt>
      <trkpt lat="49.74666" lon="2.33622">
        <ele>89.4</ele>
        <time>2023-03-01T15:06:05Z</time>
      </trkpt>
      <trkpt lat="49.74666" lon="2.33623">
        <ele>89.3</ele>
        <time>2023-03-01T15:06:06Z</time>
      </trkpt>
      <trkpt lat="49.74666" lon="2.33625">
        <ele>89.3</ele>
        <time>2023-03-01T15:06:08Z</time>
      </trkpt>
      <trkpt lat="49.74666" lon="2.33627">
        <ele>89.3</ele>
        <time>2023-03-01T15:06:09Z</time>
      </trkpt>
      <trkpt lat="49.74667" lon="2.33628">
        <ele>89.3</ele>
        <time>2023-03-01T15:06:10Z</time>
      </trkpt>
      <trkpt lat="49.74667" lon="2.3363">
        <ele>89.2</ele>
        <time>2023-03-01T15:06:11Z</time>
      </trkpt>
      <trkpt lat="49.74667" lon="2.33632">
        <ele>89.2</ele>
        <time>2023-03-01T15:06:12Z</time>
      </trkpt>
      <trkpt lat="49.74667" lon="2.33633">
        <ele>89.2</ele>
        <time>2023-03-01T15:06:13Z</time>
      </trkpt>
      <trkpt lat="49.74667" lon="2.33635">
        <ele>89.2</ele>
        <time>2023-03-01T15:06:14Z</time>
      </trkpt>
      <trkpt lat="49.74668" lon="2.33641">
        <ele>89.1</ele>
        <time>2023-03-01T15:06:16Z</time>
      </trkpt>
      <trkpt lat="49.74668" lon="2.33643">
        <ele>89</ele>
        <time>2023-03-01T15:06:17Z</time>
      </trkpt>
      <trkpt lat="49.74669" lon="2.33644">
        <ele>89</ele>
        <time>2023-03-01T15:06:19Z</time>
      </trkpt>
      <trkpt lat="49.74669" lon="2.33646">
        <ele>89</ele>
        <time>2023-03-01T15:06:20Z</time>
      </trkpt>
      <trkpt lat="49.74669" lon="2.33649">
        <ele>88.9</ele>
        <time>2023-03-01T15:06:21Z</time>
      </trkpt>
      <trkpt lat="49.74669" lon="2.33651">
        <ele>88.9</ele>
        <time>2023-03-01T15:06:22Z</time>
      </trkpt>
      <trkpt lat="49.74669" lon="2.33652">
        <ele>88.9</ele>
        <time>2023-03-01T15:06:23Z</time>
      </trkpt>
      <trkpt lat="49.74669" lon="2.33654">
        <ele>88.9</ele>
        <time>2023-03-01T15:06:24Z</time>
      </trkpt>
      <trkpt lat="49.7467" lon="2.33656">
        <ele>88.8</ele>
        <time>2023-03-01T15:06:25Z</time>
      </trkpt>
      <trkpt lat="49.7467" lon="2.33657">
        <ele>88.8</ele>
        <time>2023-03-01T15:06:27Z</time>
      </trkpt>
      <trkpt lat="49.74671" lon="2.3366">
        <ele>88.8</ele>
        <time>2023-03-01T15:06:28Z</time>
      </trkpt>
      <trkpt lat="49.74671" lon="2.33662">
        <ele>88.7</ele>
        <time>2023-03-01T15:06:29Z</time>
      </trkpt>
      <trkpt lat="49.74672" lon="2.33665">
        <ele>88.7</ele>
        <time>2023-03-01T15:06:30Z</time>
      </trkpt>
      <trkpt lat="49.74672" lon="2.33667">
        <ele>88.7</ele>
        <time>2023-03-01T15:06:31Z</time>
      </trkpt>
      <trkpt lat="49.74673" lon="2.3367">
        <ele>88.6</ele>
        <time>2023-03-01T15:06:32Z</time>
      </trkpt>
      <trkpt lat="49.74673" lon="2.33671">
        <ele>88.6</ele>
        <time>2023-03-01T15:06:34Z</time>
      </trkpt>
      <trkpt lat="49.74674" lon="2.33673">
        <ele>88.6</ele>
        <time>2023-03-01T15:06:35Z</time>
      </trkpt>
      <trkpt lat="49.74674" lon="2.33674">
        <ele>88.5</ele>
        <time>2023-03-01T15:06:36Z</time>
      </trkpt>
      <trkpt lat="49.74674" lon="2.33676">
        <ele>88.5</ele>
        <time>2023-03-01T15:06:37Z</time>
      </trkpt>
      <trkpt lat="49.74675" lon="2.33678">
        <ele>88.5</ele>
        <time>2023-03-01T15:06:38Z</time>
      </trkpt>
      <trkpt lat="49.74675" lon="2.33679">
        <ele>88.5</ele>
        <time>2023-03-01T15:06:39Z</time>
      </trkpt>
      <trkpt lat="49.74675" lon="2.33682">
        <ele>88.4</ele>
        <time>2023-03-01T15:06:40Z</time>
      </trkpt>
      <trkpt lat="49.74675" lon="2.33683">
        <ele>88.4</ele>
        <time>2023-03-01T15:06:41Z</time>
      </trkpt>
      <trkpt lat="49.74676" lon="2.33684">
        <ele>88.4</ele>
        <time>2023-03-01T15:06:42Z</time>
      </trkpt>
      <trkpt lat="49.74676" lon="2.33686">
        <ele>88.4</ele>
        <time>2023-03-01T15:06:43Z</time>
      </trkpt>
      <trkpt lat="49.74676" lon="2.33688">
        <ele>88.3</ele>
        <time>2023-03-01T15:06:45Z</time>
      </trkpt>
      <trkpt lat="49.74676" lon="2.33691">
        <ele>88.3</ele>
        <time>2023-03-01T15:06:46Z</time>
      </trkpt>
      <trkpt lat="49.74676" lon="2.33693">
        <ele>88.3</ele>
        <time>2023-03-01T15:06:47Z</time>
      </trkpt>
      <trkpt lat="49.74676" lon="2.33696">
        <ele>88.2</ele>
        <time>2023-03-01T15:06:48Z</time>
      </trkpt>
      <trkpt lat="49.74677" lon="2.33697">
        <ele>88.2</ele>
        <time>2023-03-01T15:06:49Z</time>
      </trkpt>
      <trkpt lat="49.74677" lon="2.33699">
        <ele>88.2</ele>
        <time>2023-03-01T15:06:50Z</time>
      </trkpt>
      <trkpt lat="49.74677" lon="2.337">
        <ele>88.1</ele>
        <time>2023-03-01T15:06:52Z</time>
      </trkpt>
      <trkpt lat="49.74677" lon="2.33701">
        <ele>88.1</ele>
        <time>2023-03-01T15:06:53Z</time>
      </trkpt>
      <trkpt lat="49.74677" lon="2.33703">
        <ele>88.1</ele>
        <time>2023-03-01T15:06:54Z</time>
      </trkpt>
      <trkpt lat="49.74677" lon="2.33706">
        <ele>88.1</ele>
        <time>2023-03-01T15:06:55Z</time>
      </trkpt>
      <trkpt lat="49.74677" lon="2.33708">
        <ele>88</ele>
        <time>2023-03-01T15:06:56Z</time>
      </trkpt>
      <trkpt lat="49.74677" lon="2.3371">
        <ele>88</ele>
        <time>2023-03-01T15:06:57Z</time>
      </trkpt>
      <trkpt lat="49.74677" lon="2.33711">
        <ele>88</ele>
        <time>2023-03-01T15:06:58Z</time>
      </trkpt>
      <trkpt lat="49.74678" lon="2.33713">
        <ele>87.9</ele>
        <time>2023-03-01T15:06:59Z</time>
      </trkpt>
      <trkpt lat="49.74678" lon="2.33715">
        <ele>87.9</ele>
        <time>2023-03-01T15:07:00Z</time>
      </trkpt>
      <trkpt lat="49.74679" lon="2.33717">
        <ele>87.9</ele>
        <time>2023-03-01T15:07:01Z</time>
      </trkpt>
      <trkpt lat="49.74679" lon="2.33718">
        <ele>87.9</ele>
        <time>2023-03-01T15:07:03Z</time>
      </trkpt>
      <trkpt lat="49.74679" lon="2.3372">
        <ele>87.8</ele>
        <time>2023-03-01T15:07:04Z</time>
      </trkpt>
      <trkpt lat="49.7468" lon="2.33722">
        <ele>87.8</ele>
        <time>2023-03-01T15:07:05Z</time>
      </trkpt>
      <trkpt lat="49.7468" lon="2.33724">
        <ele>87.8</ele>
        <time>2023-03-01T15:07:06Z</time>
      </trkpt>
      <trkpt lat="49.7468" lon="2.33725">
        <ele>87.7</ele>
        <time>2023-03-01T15:07:07Z</time>
      </trkpt>
      <trkpt lat="49.7468" lon="2.33727">
        <ele>87.7</ele>
        <time>2023-03-01T15:07:08Z</time>
      </trkpt>
      <trkpt lat="49.74681" lon="2.33729">
        <ele>87.7</ele>
        <time>2023-03-01T15:07:09Z</time>
      </trkpt>
      <trkpt lat="49.74681" lon="2.33731">
        <ele>87.7</ele>
        <time>2023-03-01T15:07:10Z</time>
      </trkpt>
      <trkpt lat="49.74681" lon="2.33732">
        <ele>87.6</ele>
        <time>2023-03-01T15:07:11Z</time>
      </trkpt>
      <trkpt lat="49.74681" lon="2.33733">
        <ele>87.6</ele>
        <time>2023-03-01T15:07:13Z</time>
      </trkpt>
      <trkpt lat="49.74681" lon="2.33735">
        <ele>87.6</ele>
        <time>2023-03-01T15:07:14Z</time>
      </trkpt>
      <trkpt lat="49.74681" lon="2.33737">
        <ele>87.6</ele>
        <time>2023-03-01T15:07:15Z</time>
      </trkpt>
      <trkpt lat="49.74681" lon="2.33739">
        <ele>87.5</ele>
        <time>2023-03-01T15:07:16Z</time>
      </trkpt>
      <trkpt lat="49.74682" lon="2.33741">
        <ele>87.5</ele>
        <time>2023-03-01T15:07:17Z</time>
      </trkpt>
      <trkpt lat="49.74682" lon="2.33743">
        <ele>87.5</ele>
        <time>2023-03-01T15:07:18Z</time>
      </trkpt>
      <trkpt lat="49.74682" lon="2.33746">
        <ele>87.4</ele>
        <time>2023-03-01T15:07:19Z</time>
      </trkpt>
      <trkpt lat="49.74682" lon="2.33747">
        <ele>87.4</ele>
        <time>2023-03-01T15:07:20Z</time>
      </trkpt>
      <trkpt lat="49.74682" lon="2.33748">
        <ele>87.4</ele>
        <time>2023-03-01T15:07:21Z</time>
      </trkpt>
      <trkpt lat="49.74683" lon="2.33751">
        <ele>87.3</ele>
        <time>2023-03-01T15:07:22Z</time>
      </trkpt>
      <trkpt lat="49.74683" lon="2.33752">
        <ele>87.3</ele>
        <time>2023-03-01T15:07:24Z</time>
      </trkpt>
      <trkpt lat="49.74683" lon="2.33754">
        <ele>87.3</ele>
        <time>2023-03-01T15:07:25Z</time>
      </trkpt>
      <trkpt lat="49.74684" lon="2.33755">
        <ele>87.3</ele>
        <time>2023-03-01T15:07:26Z</time>
      </trkpt>
      <trkpt lat="49.74684" lon="2.33757">
        <ele>87.3</ele>
        <time>2023-03-01T15:07:27Z</time>
      </trkpt>
      <trkpt lat="49.74684" lon="2.33758">
        <ele>87.2</ele>
        <time>2023-03-01T15:07:28Z</time>
      </trkpt>
      <trkpt lat="49.74685" lon="2.3376">
        <ele>87.2</ele>
        <time>2023-03-01T15:07:29Z</time>
      </trkpt>
      <trkpt lat="49.74685" lon="2.33763">
        <ele>87.2</ele>
        <time>2023-03-01T15:07:30Z</time>
      </trkpt>
      <trkpt lat="49.74685" lon="2.33766">
        <ele>87.1</ele>
        <time>2023-03-01T15:07:32Z</time>
      </trkpt>
      <trkpt lat="49.74685" lon="2.33767">
        <ele>87.1</ele>
        <time>2023-03-01T15:07:33Z</time>
      </trkpt>
      <trkpt lat="49.74685" lon="2.33769">
        <ele>87.1</ele>
        <time>2023-03-01T15:07:34Z</time>
      </trkpt>
      <trkpt lat="49.74686" lon="2.33772">
        <ele>87</ele>
        <time>2023-03-01T15:07:35Z</time>
      </trkpt>
      <trkpt lat="49.74686" lon="2.33773">
        <ele>87</ele>
        <time>2023-03-01T15:07:36Z</time>
      </trkpt>
      <trkpt lat="49.74686" lon="2.33774">
        <ele>87</ele>
        <time>2023-03-01T15:07:37Z</time>
      </trkpt>
      <trkpt lat="49.74686" lon="2.33778">
        <ele>86.9</ele>
        <time>2023-03-01T15:07:38Z</time>
      </trkpt>
      <trkpt lat="49.74687" lon="2.33779">
        <ele>86.9</ele>
        <time>2023-03-01T15:07:39Z</time>
      </trkpt>
      <trkpt lat="49.74687" lon="2.33781">
        <ele>86.9</ele>
        <time>2023-03-01T15:07:40Z</time>
      </trkpt>
      <trkpt lat="49.74687" lon="2.33782">
        <ele>86.8</ele>
        <time>2023-03-01T15:07:41Z</time>
      </trkpt>
      <trkpt lat="49.74687" lon="2.33784">
        <ele>86.8</ele>
        <time>2023-03-01T15:07:43Z</time>
      </trkpt>
      <trkpt lat="49.74687" lon="2.33786">
        <ele>86.8</ele>
        <time>2023-03-01T15:07:44Z</time>
      </trkpt>
      <trkpt lat="49.74687" lon="2.33788">
        <ele>86.7</ele>
        <time>2023-03-01T15:07:45Z</time>
      </trkpt>
      <trkpt lat="49.74688" lon="2.3379">
        <ele>86.7</ele>
        <time>2023-03-01T15:07:46Z</time>
      </trkpt>
      <trkpt lat="49.74688" lon="2.33792">
        <ele>86.7</ele>
        <time>2023-03-01T15:07:47Z</time>
      </trkpt>
      <trkpt lat="49.74688" lon="2.33793">
        <ele>86.6</ele>
        <time>2023-03-01T15:07:48Z</time>
      </trkpt>
      <trkpt lat="49.74688" lon="2.33795">
        <ele>86.6</ele>
        <time>2023-03-01T15:07:49Z</time>
      </trkpt>
      <trkpt lat="49.74688" lon="2.33798">
        <ele>86.5</ele>
        <time>2023-03-01T15:07:50Z</time>
      </trkpt>
      <trkpt lat="49.74688" lon="2.33799">
        <ele>86.5</ele>
        <time>2023-03-01T15:07:51Z</time>
      </trkpt>
      <trkpt lat="49.74688" lon="2.338">
        <ele>86.5</ele>
        <time>2023-03-01T15:07:52Z</time>
      </trkpt>
      <trkpt lat="49.74689" lon="2.33803">
        <ele>86.4</ele>
        <time>2023-03-01T15:07:54Z</time>
      </trkpt>
      <trkpt lat="49.74689" lon="2.33805">
        <ele>86.4</ele>
        <time>2023-03-01T15:07:55Z</time>
      </trkpt>
      <trkpt lat="49.74689" lon="2.33806">
        <ele>86.4</ele>
        <time>2023-03-01T15:07:56Z</time>
      </trkpt>
      <trkpt lat="49.7469" lon="2.33808">
        <ele>86.4</ele>
        <time>2023-03-01T15:07:57Z</time>
      </trkpt>
      <trkpt lat="49.7469" lon="2.3381">
        <ele>86.3</ele>
        <time>2023-03-01T15:07:58Z</time>
      </trkpt>
      <trkpt lat="49.7469" lon="2.33811">
        <ele>86.3</ele>
        <time>2023-03-01T15:07:59Z</time>
      </trkpt>
      <trkpt lat="49.7469" lon="2.33814">
        <ele>86.2</ele>
        <time>2023-03-01T15:08:00Z</time>
      </trkpt>
      <trkpt lat="49.74691" lon="2.33816">
        <ele>86.2</ele>
        <time>2023-03-01T15:08:01Z</time>
      </trkpt>
      <trkpt lat="49.74691" lon="2.33817">
        <ele>86.2</ele>
        <time>2023-03-01T15:08:02Z</time>
      </trkpt>
      <trkpt lat="49.74691" lon="2.3382">
        <ele>86.1</ele>
        <time>2023-03-01T15:08:04Z</time>
      </trkpt>
      <trkpt lat="49.74692" lon="2.33821">
        <ele>86.1</ele>
        <time>2023-03-01T15:08:05Z</time>
      </trkpt>
      <trkpt lat="49.74692" lon="2.33824">
        <ele>86.1</ele>
        <time>2023-03-01T15:08:06Z</time>
      </trkpt>
      <trkpt lat="49.74693" lon="2.33826">
        <ele>86</ele>
        <time>2023-03-01T15:08:07Z</time>
      </trkpt>
      <trkpt lat="49.74693" lon="2.33828">
        <ele>86</ele>
        <time>2023-03-01T15:08:08Z</time>
      </trkpt>
      <trkpt lat="49.74693" lon="2.33829">
        <ele>86</ele>
        <time>2023-03-01T15:08:10Z</time>
      </trkpt>
      <trkpt lat="49.74694" lon="2.33831">
        <ele>86</ele>
        <time>2023-03-01T15:08:11Z</time>
      </trkpt>
      <trkpt lat="49.74694" lon="2.33833">
        <ele>85.9</ele>
        <time>2023-03-01T15:08:12Z</time>
      </trkpt>
      <trkpt lat="49.74694" lon="2.33835">
        <ele>85.9</ele>
        <time>2023-03-01T15:08:13Z</time>
      </trkpt>
      <trkpt lat="49.74694" lon="2.33838">
        <ele>85.8</ele>
        <time>2023-03-01T15:08:14Z</time>
      </trkpt>
      <trkpt lat="49.74694" lon="2.33839">
        <ele>85.8</ele>
        <time>2023-03-01T15:08:15Z</time>
      </trkpt>
      <trkpt lat="49.74695" lon="2.3384">
        <ele>85.8</ele>
        <time>2023-03-01T15:08:16Z</time>
      </trkpt>
      <trkpt lat="49.74695" lon="2.33842">
        <ele>85.8</ele>
        <time>2023-03-01T15:08:17Z</time>
      </trkpt>
      <trkpt lat="49.74695" lon="2.33844">
        <ele>85.7</ele>
        <time>2023-03-01T15:08:18Z</time>
      </trkpt>
      <trkpt lat="49.74695" lon="2.33845">
        <ele>85.7</ele>
        <time>2023-03-01T15:08:19Z</time>
      </trkpt>
      <trkpt lat="49.74696" lon="2.33847">
        <ele>85.7</ele>
        <time>2023-03-01T15:08:21Z</time>
      </trkpt>
      <trkpt lat="49.74696" lon="2.33848">
        <ele>85.7</ele>
        <time>2023-03-01T15:08:22Z</time>
      </trkpt>
      <trkpt lat="49.74696" lon="2.3385">
        <ele>85.6</ele>
        <time>2023-03-01T15:08:23Z</time>
      </trkpt>
      <trkpt lat="49.74696" lon="2.33853">
        <ele>85.6</ele>
        <time>2023-03-01T15:08:24Z</time>
      </trkpt>
      <trkpt lat="49.74696" lon="2.33854">
        <ele>85.6</ele>
        <time>2023-03-01T15:08:25Z</time>
      </trkpt>
      <trkpt lat="49.74697" lon="2.33856">
        <ele>85.5</ele>
        <time>2023-03-01T15:08:26Z</time>
      </trkpt>
      <trkpt lat="49.74697" lon="2.33859">
        <ele>85.5</ele>
        <time>2023-03-01T15:08:27Z</time>
      </trkpt>
      <trkpt lat="49.74697" lon="2.33861">
        <ele>85.5</ele>
        <time>2023-03-01T15:08:29Z</time>
      </trkpt>
      <trkpt lat="49.74697" lon="2.33862">
        <ele>85.4</ele>
        <time>2023-03-01T15:08:30Z</time>
      </trkpt>
      <trkpt lat="49.74698" lon="2.33864">
        <ele>85.4</ele>
        <time>2023-03-01T15:08:31Z</time>
      </trkpt>
      <trkpt lat="49.74698" lon="2.33866">
        <ele>85.4</ele>
        <time>2023-03-01T15:08:32Z</time>
      </trkpt>
      <trkpt lat="49.74698" lon="2.33867">
        <ele>85.4</ele>
        <time>2023-03-01T15:08:33Z</time>
      </trkpt>
      <trkpt lat="49.74699" lon="2.33869">
        <ele>85.3</ele>
        <time>2023-03-01T15:08:34Z</time>
      </trkpt>
      <trkpt lat="49.74699" lon="2.33871">
        <ele>85.3</ele>
        <time>2023-03-01T15:08:35Z</time>
      </trkpt>
      <trkpt lat="49.74699" lon="2.33872">
        <ele>85.3</ele>
        <time>2023-03-01T15:08:36Z</time>
      </trkpt>
      <trkpt lat="49.74699" lon="2.33874">
        <ele>85.2</ele>
        <time>2023-03-01T15:08:38Z</time>
      </trkpt>
      <trkpt lat="49.747" lon="2.33875">
        <ele>85.2</ele>
        <time>2023-03-01T15:08:39Z</time>
      </trkpt>
      <trkpt lat="49.747" lon="2.33877">
        <ele>85.2</ele>
        <time>2023-03-01T15:08:40Z</time>
      </trkpt>
      <trkpt lat="49.747" lon="2.33879">
        <ele>85.2</ele>
        <time>2023-03-01T15:08:41Z</time>
      </trkpt>
      <trkpt lat="49.747" lon="2.3388">
        <ele>85.1</ele>
        <time>2023-03-01T15:08:42Z</time>
      </trkpt>
      <trkpt lat="49.747" lon="2.33882">
        <ele>85.1</ele>
        <time>2023-03-01T15:08:43Z</time>
      </trkpt>
      <trkpt lat="49.747" lon="2.33884">
        <ele>85.1</ele>
        <time>2023-03-01T15:08:44Z</time>
      </trkpt>
      <trkpt lat="49.74701" lon="2.33887">
        <ele>85</ele>
        <time>2023-03-01T15:08:45Z</time>
      </trkpt>
      <trkpt lat="49.74701" lon="2.33888">
        <ele>85</ele>
        <time>2023-03-01T15:08:47Z</time>
      </trkpt>
      <trkpt lat="49.74701" lon="2.3389">
        <ele>85</ele>
        <time>2023-03-01T15:08:48Z</time>
      </trkpt>
      <trkpt lat="49.74701" lon="2.33892">
        <ele>85</ele>
        <time>2023-03-01T15:08:49Z</time>
      </trkpt>
      <trkpt lat="49.74701" lon="2.33895">
        <ele>84.9</ele>
        <time>2023-03-01T15:08:50Z</time>
      </trkpt>
      <trkpt lat="49.74702" lon="2.33897">
        <ele>84.9</ele>
        <time>2023-03-01T15:08:51Z</time>
      </trkpt>
      <trkpt lat="49.74702" lon="2.339">
        <ele>84.8</ele>
        <time>2023-03-01T15:08:52Z</time>
      </trkpt>
      <trkpt lat="49.74702" lon="2.33902">
        <ele>84.8</ele>
        <time>2023-03-01T15:08:54Z</time>
      </trkpt>
      <trkpt lat="49.74702" lon="2.33903">
        <ele>84.8</ele>
        <time>2023-03-01T15:08:55Z</time>
      </trkpt>
      <trkpt lat="49.74702" lon="2.33906">
        <ele>84.7</ele>
        <time>2023-03-01T15:08:56Z</time>
      </trkpt>
      <trkpt lat="49.74702" lon="2.33908">
        <ele>84.7</ele>
        <time>2023-03-01T15:08:57Z</time>
      </trkpt>
      <trkpt lat="49.74703" lon="2.33909">
        <ele>84.7</ele>
        <time>2023-03-01T15:08:58Z</time>
      </trkpt>
      <trkpt lat="49.74703" lon="2.33912">
        <ele>84.6</ele>
        <time>2023-03-01T15:08:59Z</time>
      </trkpt>
      <trkpt lat="49.74703" lon="2.33914">
        <ele>84.6</ele>
        <time>2023-03-01T15:09:00Z</time>
      </trkpt>
      <trkpt lat="49.74703" lon="2.33915">
        <ele>84.6</ele>
        <time>2023-03-01T15:09:01Z</time>
      </trkpt>
      <trkpt lat="49.74704" lon="2.33919">
        <ele>84.5</ele>
        <time>2023-03-01T15:09:02Z</time>
      </trkpt>
      <trkpt lat="49.74704" lon="2.3392">
        <ele>84.5</ele>
        <time>2023-03-01T15:09:04Z</time>
      </trkpt>
      <trkpt lat="49.74704" lon="2.33922">
        <ele>84.5</ele>
        <time>2023-03-01T15:09:05Z</time>
      </trkpt>
      <trkpt lat="49.74704" lon="2.33924">
        <ele>84.4</ele>
        <time>2023-03-01T15:09:06Z</time>
      </trkpt>
      <trkpt lat="49.74705" lon="2.33926">
        <ele>84.4</ele>
        <time>2023-03-01T15:09:07Z</time>
      </trkpt>
      <trkpt lat="49.74705" lon="2.33928">
        <ele>84.4</ele>
        <time>2023-03-01T15:09:08Z</time>
      </trkpt>
      <trkpt lat="49.74705" lon="2.3393">
        <ele>84.4</ele>
        <time>2023-03-01T15:09:09Z</time>
      </trkpt>
      <trkpt lat="49.74705" lon="2.33933">
        <ele>84.3</ele>
        <time>2023-03-01T15:09:11Z</time>
      </trkpt>
      <trkpt lat="49.74705" lon="2.33934">
        <ele>84.3</ele>
        <time>2023-03-01T15:09:12Z</time>
      </trkpt>
      <trkpt lat="49.74705" lon="2.33936">
        <ele>84.3</ele>
        <time>2023-03-01T15:09:13Z</time>
      </trkpt>
      <trkpt lat="49.74705" lon="2.33938">
        <ele>84.3</ele>
        <time>2023-03-01T15:09:14Z</time>
      </trkpt>
      <trkpt lat="49.74705" lon="2.3394">
        <ele>84.3</ele>
        <time>2023-03-01T15:09:15Z</time>
      </trkpt>
      <trkpt lat="49.74705" lon="2.33943">
        <ele>84.2</ele>
        <time>2023-03-01T15:09:16Z</time>
      </trkpt>
      <trkpt lat="49.74705" lon="2.33945">
        <ele>84.2</ele>
        <time>2023-03-01T15:09:17Z</time>
      </trkpt>
      <trkpt lat="49.74705" lon="2.33947">
        <ele>84.2</ele>
        <time>2023-03-01T15:09:18Z</time>
      </trkpt>
      <trkpt lat="49.74705" lon="2.3395">
        <ele>84.2</ele>
        <time>2023-03-01T15:09:20Z</time>
      </trkpt>
      <trkpt lat="49.74705" lon="2.33953">
        <ele>84.1</ele>
        <time>2023-03-01T15:09:21Z</time>
      </trkpt>
      <trkpt lat="49.74704" lon="2.33956">
        <ele>84.1</ele>
        <time>2023-03-01T15:09:22Z</time>
      </trkpt>
      <trkpt lat="49.74704" lon="2.33958">
        <ele>84.1</ele>
        <time>2023-03-01T15:09:23Z</time>
      </trkpt>
      <trkpt lat="49.74704" lon="2.33959">
        <ele>84.1</ele>
        <time>2023-03-01T15:09:24Z</time>
      </trkpt>
      <trkpt lat="49.74704" lon="2.33963">
        <ele>84</ele>
        <time>2023-03-01T15:09:25Z</time>
      </trkpt>
      <trkpt lat="49.74704" lon="2.33964">
        <ele>84</ele>
        <time>2023-03-01T15:09:26Z</time>
      </trkpt>
      <trkpt lat="49.74704" lon="2.33966">
        <ele>84</ele>
        <time>2023-03-01T15:09:28Z</time>
      </trkpt>
      <trkpt lat="49.74704" lon="2.33968">
        <ele>84</ele>
        <time>2023-03-01T15:09:29Z</time>
      </trkpt>
      <trkpt lat="49.74704" lon="2.33969">
        <ele>84</ele>
        <time>2023-03-01T15:09:30Z</time>
      </trkpt>
      <trkpt lat="49.74704" lon="2.33971">
        <ele>84</ele>
        <time>2023-03-01T15:09:31Z</time>
      </trkpt>
      <trkpt lat="49.74704" lon="2.33972">
        <ele>84</ele>
        <time>2023-03-01T15:09:32Z</time>
      </trkpt>
      <trkpt lat="49.74703" lon="2.33974">
        <ele>83.9</ele>
        <time>2023-03-01T15:09:33Z</time>
      </trkpt>
      <trkpt lat="49.74703" lon="2.33976">
        <ele>83.9</ele>
        <time>2023-03-01T15:09:34Z</time>
      </trkpt>
      <trkpt lat="49.74703" lon="2.33979">
        <ele>83.9</ele>
        <time>2023-03-01T15:09:35Z</time>
      </trkpt>
      <trkpt lat="49.74702" lon="2.3398">
        <ele>83.9</ele>
        <time>2023-03-01T15:09:36Z</time>
      </trkpt>
      <trkpt lat="49.74702" lon="2.33981">
        <ele>83.9</ele>
        <time>2023-03-01T15:09:37Z</time>
      </trkpt>
      <trkpt lat="49.74702" lon="2.33983">
        <ele>83.9</ele>
        <time>2023-03-01T15:09:38Z</time>
      </trkpt>
      <trkpt lat="49.74701" lon="2.33984">
        <ele>83.8</ele>
        <time>2023-03-01T15:09:39Z</time>
      </trkpt>
      <trkpt lat="49.74701" lon="2.33986">
        <ele>83.8</ele>
        <time>2023-03-01T15:09:40Z</time>
      </trkpt>
      <trkpt lat="49.74701" lon="2.33987">
        <ele>83.8</ele>
        <time>2023-03-01T15:09:42Z</time>
      </trkpt>
      <trkpt lat="49.74701" lon="2.3399">
        <ele>83.8</ele>
        <time>2023-03-01T15:09:43Z</time>
      </trkpt>
      <trkpt lat="49.74701" lon="2.33992">
        <ele>83.8</ele>
        <time>2023-03-01T15:09:45Z</time>
      </trkpt>
      <trkpt lat="49.74701" lon="2.33994">
        <ele>83.7</ele>
        <time>2023-03-01T15:09:46Z</time>
      </trkpt>
      <trkpt lat="49.74701" lon="2.33997">
        <ele>83.7</ele>
        <time>2023-03-01T15:09:47Z</time>
      </trkpt>
      <trkpt lat="49.74701" lon="2.33999">
        <ele>83.7</ele>
        <time>2023-03-01T15:09:48Z</time>
      </trkpt>
      <trkpt lat="49.747" lon="2.34001">
        <ele>83.7</ele>
        <time>2023-03-01T15:09:49Z</time>
      </trkpt>
      <trkpt lat="49.747" lon="2.34004">
        <ele>83.6</ele>
        <time>2023-03-01T15:09:50Z</time>
      </trkpt>
      <trkpt lat="49.747" lon="2.34006">
        <ele>83.6</ele>
        <time>2023-03-01T15:09:51Z</time>
      </trkpt>
      <trkpt lat="49.747" lon="2.34008">
        <ele>83.6</ele>
        <time>2023-03-01T15:09:52Z</time>
      </trkpt>
      <trkpt lat="49.74699" lon="2.34011">
        <ele>83.6</ele>
        <time>2023-03-01T15:09:54Z</time>
      </trkpt>
      <trkpt lat="49.74699" lon="2.34012">
        <ele>83.6</ele>
        <time>2023-03-01T15:09:55Z</time>
      </trkpt>
      <trkpt lat="49.74699" lon="2.34014">
        <ele>83.6</ele>
        <time>2023-03-01T15:09:56Z</time>
      </trkpt>
      <trkpt lat="49.74699" lon="2.34017">
        <ele>83.5</ele>
        <time>2023-03-01T15:09:57Z</time>
      </trkpt>
      <trkpt lat="49.74699" lon="2.34018">
        <ele>83.5</ele>
        <time>2023-03-01T15:09:58Z</time>
      </trkpt>
      <trkpt lat="49.74698" lon="2.3402">
        <ele>83.5</ele>
        <time>2023-03-01T15:09:59Z</time>
      </trkpt>
      <trkpt lat="49.74698" lon="2.34022">
        <ele>83.5</ele>
        <time>2023-03-01T15:10:01Z</time>
      </trkpt>
      <trkpt lat="49.74698" lon="2.34024">
        <ele>83.4</ele>
        <time>2023-03-01T15:10:02Z</time>
      </trkpt>
      <trkpt lat="49.74698" lon="2.34028">
        <ele>83.4</ele>
        <time>2023-03-01T15:10:03Z</time>
      </trkpt>
      <trkpt lat="49.74698" lon="2.34029">
        <ele>83.4</ele>
        <time>2023-03-01T15:10:04Z</time>
      </trkpt>
      <trkpt lat="49.74698" lon="2.3403">
        <ele>83.3</ele>
        <time>2023-03-01T15:10:05Z</time>
      </trkpt>
      <trkpt lat="49.74698" lon="2.34032">
        <ele>83.3</ele>
        <time>2023-03-01T15:10:06Z</time>
      </trkpt>
      <trkpt lat="49.74698" lon="2.34034">
        <ele>83.3</ele>
        <time>2023-03-01T15:10:07Z</time>
      </trkpt>
      <trkpt lat="49.74697" lon="2.34036">
        <ele>83.3</ele>
        <time>2023-03-01T15:10:09Z</time>
      </trkpt>
      <trkpt lat="49.74697" lon="2.34038">
        <ele>83.2</ele>
        <time>2023-03-01T15:10:10Z</time>
      </trkpt>
      <trkpt lat="49.74696" lon="2.34041">
        <ele>83.2</ele>
        <time>2023-03-01T15:10:11Z</time>
      </trkpt>
      <trkpt lat="49.74695" lon="2.34041">
        <ele>83.2</ele>
        <time>2023-03-01T15:10:12Z</time>
      </trkpt>
      <trkpt lat="49.74695" lon="2.34043">
        <ele>83.2</ele>
        <time>2023-03-01T15:10:13Z</time>
      </trkpt>
      <trkpt lat="49.74695" lon="2.34045">
        <ele>83.1</ele>
        <time>2023-03-01T15:10:15Z</time>
      </trkpt>
      <trkpt lat="49.74694" lon="2.34049">
        <ele>83.1</ele>
        <time>2023-03-01T15:10:16Z</time>
      </trkpt>
      <trkpt lat="49.74693" lon="2.34052">
        <ele>83</ele>
        <time>2023-03-01T15:10:18Z</time>
      </trkpt>
      <trkpt lat="49.74693" lon="2.34055">
        <ele>83</ele>
        <time>2023-03-01T15:10:20Z</time>
      </trkpt>
      <trkpt lat="49.74692" lon="2.34058">
        <ele>83</ele>
        <time>2023-03-01T15:10:21Z</time>
      </trkpt>
      <trkpt lat="49.74692" lon="2.34059">
        <ele>82.9</ele>
        <time>2023-03-01T15:10:22Z</time>
      </trkpt>
      <trkpt lat="49.74692" lon="2.34063">
        <ele>82.9</ele>
        <time>2023-03-01T15:10:23Z</time>
      </trkpt>
      <trkpt lat="49.74692" lon="2.34064">
        <ele>82.9</ele>
        <time>2023-03-01T15:10:24Z</time>
      </trkpt>
      <trkpt lat="49.74691" lon="2.34066">
        <ele>82.9</ele>
        <time>2023-03-01T15:10:25Z</time>
      </trkpt>
      <trkpt lat="49.74691" lon="2.34068">
        <ele>82.8</ele>
        <time>2023-03-01T15:10:26Z</time>
      </trkpt>
      <trkpt lat="49.74691" lon="2.34069">
        <ele>82.8</ele>
        <time>2023-03-01T15:10:27Z</time>
      </trkpt>
      <trkpt lat="49.7469" lon="2.3407">
        <ele>82.8</ele>
        <time>2023-03-01T15:10:29Z</time>
      </trkpt>
      <trkpt lat="49.7469" lon="2.34072">
        <ele>82.8</ele>
        <time>2023-03-01T15:10:30Z</time>
      </trkpt>
      <trkpt lat="49.7469" lon="2.34073">
        <ele>82.8</ele>
        <time>2023-03-01T15:10:31Z</time>
      </trkpt>
      <trkpt lat="49.74689" lon="2.34075">
        <ele>82.7</ele>
        <time>2023-03-01T15:10:32Z</time>
      </trkpt>
      <trkpt lat="49.74689" lon="2.34077">
        <ele>82.7</ele>
        <time>2023-03-01T15:10:33Z</time>
      </trkpt>
      <trkpt lat="49.74688" lon="2.34079">
        <ele>82.7</ele>
        <time>2023-03-01T15:10:34Z</time>
      </trkpt>
      <trkpt lat="49.74688" lon="2.34081">
        <ele>82.7</ele>
        <time>2023-03-01T15:10:35Z</time>
      </trkpt>
      <trkpt lat="49.74687" lon="2.34083">
        <ele>82.6</ele>
        <time>2023-03-01T15:10:36Z</time>
      </trkpt>
      <trkpt lat="49.74687" lon="2.34085">
        <ele>82.6</ele>
        <time>2023-03-01T15:10:37Z</time>
      </trkpt>
      <trkpt lat="49.74686" lon="2.34087">
        <ele>82.6</ele>
        <time>2023-03-01T15:10:39Z</time>
      </trkpt>
      <trkpt lat="49.74686" lon="2.34089">
        <ele>82.6</ele>
        <time>2023-03-01T15:10:40Z</time>
      </trkpt>
      <trkpt lat="49.74685" lon="2.34091">
        <ele>82.5</ele>
        <time>2023-03-01T15:10:41Z</time>
      </trkpt>
      <trkpt lat="49.74685" lon="2.34093">
        <ele>82.5</ele>
        <time>2023-03-01T15:10:42Z</time>
      </trkpt>
      <trkpt lat="49.74684" lon="2.34097">
        <ele>82.4</ele>
        <time>2023-03-01T15:10:43Z</time>
      </trkpt>
      <trkpt lat="49.74683" lon="2.34099">
        <ele>82.4</ele>
        <time>2023-03-01T15:10:45Z</time>
      </trkpt>
      <trkpt lat="49.74683" lon="2.34101">
        <ele>82.4</ele>
        <time>2023-03-01T15:10:46Z</time>
      </trkpt>
      <trkpt lat="49.74683" lon="2.34102">
        <ele>82.4</ele>
        <time>2023-03-01T15:10:47Z</time>
      </trkpt>
      <trkpt lat="49.74682" lon="2.34104">
        <ele>82.3</ele>
        <time>2023-03-01T15:10:48Z</time>
      </trkpt>
      <trkpt lat="49.74682" lon="2.34106">
        <ele>82.3</ele>
        <time>2023-03-01T15:10:49Z</time>
      </trkpt>
      <trkpt lat="49.74682" lon="2.34108">
        <ele>82.3</ele>
        <time>2023-03-01T15:10:50Z</time>
      </trkpt>
      <trkpt lat="49.74681" lon="2.34112">
        <ele>82.2</ele>
        <time>2023-03-01T15:10:51Z</time>
      </trkpt>
      <trkpt lat="49.74681" lon="2.34113">
        <ele>82.2</ele>
        <time>2023-03-01T15:10:53Z</time>
      </trkpt>
      <trkpt lat="49.74681" lon="2.34114">
        <ele>82.2</ele>
        <time>2023-03-01T15:10:54Z</time>
      </trkpt>
      <trkpt lat="49.74681" lon="2.34116">
        <ele>82.1</ele>
        <time>2023-03-01T15:10:55Z</time>
      </trkpt>
      <trkpt lat="49.74681" lon="2.34119">
        <ele>82.1</ele>
        <time>2023-03-01T15:10:56Z</time>
      </trkpt>
      <trkpt lat="49.7468" lon="2.34121">
        <ele>82.1</ele>
        <time>2023-03-01T15:10:57Z</time>
      </trkpt>
      <trkpt lat="49.7468" lon="2.34123">
        <ele>82</ele>
        <time>2023-03-01T15:10:58Z</time>
      </trkpt>
      <trkpt lat="49.74679" lon="2.34128">
        <ele>81.9</ele>
        <time>2023-03-01T15:11:00Z</time>
      </trkpt>
      <trkpt lat="49.74678" lon="2.3413">
        <ele>81.9</ele>
        <time>2023-03-01T15:11:01Z</time>
      </trkpt>
      <trkpt lat="49.74677" lon="2.34132">
        <ele>81.9</ele>
        <time>2023-03-01T15:11:02Z</time>
      </trkpt>
      <trkpt lat="49.74677" lon="2.34134">
        <ele>81.8</ele>
        <time>2023-03-01T15:11:04Z</time>
      </trkpt>
      <trkpt lat="49.74676" lon="2.34136">
        <ele>81.8</ele>
        <time>2023-03-01T15:11:05Z</time>
      </trkpt>
      <trkpt lat="49.74676" lon="2.34137">
        <ele>81.8</ele>
        <time>2023-03-01T15:11:07Z</time>
      </trkpt>
      <trkpt lat="49.74675" lon="2.34139">
        <ele>81.7</ele>
        <time>2023-03-01T15:11:08Z</time>
      </trkpt>
      <trkpt lat="49.74675" lon="2.34141">
        <ele>81.7</ele>
        <time>2023-03-01T15:11:09Z</time>
      </trkpt>
      <trkpt lat="49.74674" lon="2.34143">
        <ele>81.6</ele>
        <time>2023-03-01T15:11:10Z</time>
      </trkpt>
      <trkpt lat="49.74674" lon="2.34145">
        <ele>81.6</ele>
        <time>2023-03-01T15:11:11Z</time>
      </trkpt>
      <trkpt lat="49.74674" lon="2.34146">
        <ele>81.6</ele>
        <time>2023-03-01T15:11:12Z</time>
      </trkpt>
      <trkpt lat="49.74673" lon="2.34148">
        <ele>81.5</ele>
        <time>2023-03-01T15:11:14Z</time>
      </trkpt>
      <trkpt lat="49.74673" lon="2.3415">
        <ele>81.5</ele>
        <time>2023-03-01T15:11:15Z</time>
      </trkpt>
      <trkpt lat="49.74673" lon="2.34151">
        <ele>81.5</ele>
        <time>2023-03-01T15:11:16Z</time>
      </trkpt>
      <trkpt lat="49.74672" lon="2.34153">
        <ele>81.4</ele>
        <time>2023-03-01T15:11:17Z</time>
      </trkpt>
      <trkpt lat="49.74671" lon="2.34154">
        <ele>81.4</ele>
        <time>2023-03-01T15:11:18Z</time>
      </trkpt>
      <trkpt lat="49.74671" lon="2.34155">
        <ele>81.4</ele>
        <time>2023-03-01T15:11:19Z</time>
      </trkpt>
      <trkpt lat="49.7467" lon="2.34157">
        <ele>81.3</ele>
        <time>2023-03-01T15:11:20Z</time>
      </trkpt>
      <trkpt lat="49.74669" lon="2.3416">
        <ele>81.3</ele>
        <time>2023-03-01T15:11:21Z</time>
      </trkpt>
      <trkpt lat="49.74669" lon="2.34161">
        <ele>81.3</ele>
        <time>2023-03-01T15:11:22Z</time>
      </trkpt>
      <trkpt lat="49.74668" lon="2.34162">
        <ele>81.2</ele>
        <time>2023-03-01T15:11:24Z</time>
      </trkpt>
      <trkpt lat="49.74668" lon="2.34163">
        <ele>81.2</ele>
        <time>2023-03-01T15:11:25Z</time>
      </trkpt>
      <trkpt lat="49.74667" lon="2.34164">
        <ele>81.2</ele>
        <time>2023-03-01T15:11:26Z</time>
      </trkpt>
      <trkpt lat="49.74667" lon="2.34165">
        <ele>81.2</ele>
        <time>2023-03-01T15:11:27Z</time>
      </trkpt>
      <trkpt lat="49.74667" lon="2.34165">
        <ele>81.1</ele>
        <time>2023-03-01T15:11:28Z</time>
      </trkpt>
      <trkpt lat="49.74666" lon="2.34168">
        <ele>81.1</ele>
        <time>2023-03-01T15:11:29Z</time>
      </trkpt>
      <trkpt lat="49.74665" lon="2.34169">
        <ele>81.1</ele>
        <time>2023-03-01T15:11:30Z</time>
      </trkpt>
      <trkpt lat="49.74665" lon="2.34171">
        <ele>81</ele>
        <time>2023-03-01T15:11:31Z</time>
      </trkpt>
      <trkpt lat="49.74664" lon="2.34172">
        <ele>81</ele>
        <time>2023-03-01T15:11:32Z</time>
      </trkpt>
      <trkpt lat="49.74664" lon="2.34174">
        <ele>81</ele>
        <time>2023-03-01T15:11:33Z</time>
      </trkpt>
      <trkpt lat="49.74663" lon="2.34175">
        <ele>80.9</ele>
        <time>2023-03-01T15:11:35Z</time>
      </trkpt>
      <trkpt lat="49.74663" lon="2.34177">
        <ele>80.9</ele>
        <time>2023-03-01T15:11:36Z</time>
      </trkpt>
      <trkpt lat="49.74662" lon="2.34179">
        <ele>80.8</ele>
        <time>2023-03-01T15:11:37Z</time>
      </trkpt>
      <trkpt lat="49.74661" lon="2.34182">
        <ele>80.8</ele>
        <time>2023-03-01T15:11:38Z</time>
      </trkpt>
      <trkpt lat="49.74661" lon="2.34183">
        <ele>80.7</ele>
        <time>2023-03-01T15:11:39Z</time>
      </trkpt>
      <trkpt lat="49.74661" lon="2.34184">
        <ele>80.7</ele>
        <time>2023-03-01T15:11:40Z</time>
      </trkpt>
      <trkpt lat="49.74659" lon="2.34189">
        <ele>80.6</ele>
        <time>2023-03-01T15:11:41Z</time>
      </trkpt>
      <trkpt lat="49.74659" lon="2.3419">
        <ele>80.5</ele>
        <time>2023-03-01T15:11:43Z</time>
      </trkpt>
      <trkpt lat="49.74658" lon="2.34191">
        <ele>80.5</ele>
        <time>2023-03-01T15:11:44Z</time>
      </trkpt>
      <trkpt lat="49.74658" lon="2.34192">
        <ele>80.5</ele>
        <time>2023-03-01T15:11:45Z</time>
      </trkpt>
      <trkpt lat="49.74657" lon="2.34193">
        <ele>80.4</ele>
        <time>2023-03-01T15:11:46Z</time>
      </trkpt>
      <trkpt lat="49.74657" lon="2.34195">
        <ele>80.4</ele>
        <time>2023-03-01T15:11:47Z</time>
      </trkpt>
      <trkpt lat="49.74656" lon="2.34197">
        <ele>80.4</ele>
        <time>2023-03-01T15:11:48Z</time>
      </trkpt>
      <trkpt lat="49.74656" lon="2.34198">
        <ele>80.3</ele>
        <time>2023-03-01T15:11:49Z</time>
      </trkpt>
      <trkpt lat="49.74655" lon="2.34201">
        <ele>80.2</ele>
        <time>2023-03-01T15:11:50Z</time>
      </trkpt>
      <trkpt lat="49.74655" lon="2.34202">
        <ele>80.2</ele>
        <time>2023-03-01T15:11:51Z</time>
      </trkpt>
      <trkpt lat="49.74654" lon="2.34203">
        <ele>80.2</ele>
        <time>2023-03-01T15:11:52Z</time>
      </trkpt>
      <trkpt lat="49.74654" lon="2.34206">
        <ele>80.1</ele>
        <time>2023-03-01T15:11:54Z</time>
      </trkpt>
      <trkpt lat="49.74653" lon="2.34207">
        <ele>80</ele>
        <time>2023-03-01T15:11:55Z</time>
      </trkpt>
      <trkpt lat="49.74653" lon="2.34209">
        <ele>80</ele>
        <time>2023-03-01T15:11:56Z</time>
      </trkpt>
      <trkpt lat="49.74653" lon="2.3421">
        <ele>80</ele>
        <time>2023-03-01T15:11:57Z</time>
      </trkpt>
      <trkpt lat="49.74652" lon="2.34212">
        <ele>79.9</ele>
        <time>2023-03-01T15:11:58Z</time>
      </trkpt>
      <trkpt lat="49.74652" lon="2.34213">
        <ele>79.9</ele>
        <time>2023-03-01T15:11:59Z</time>
      </trkpt>
      <trkpt lat="49.74651" lon="2.34214">
        <ele>79.8</ele>
        <time>2023-03-01T15:12:00Z</time>
      </trkpt>
      <trkpt lat="49.74651" lon="2.34216">
        <ele>79.8</ele>
        <time>2023-03-01T15:12:01Z</time>
      </trkpt>
      <trkpt lat="49.7465" lon="2.34217">
        <ele>79.7</ele>
        <time>2023-03-01T15:12:02Z</time>
      </trkpt>
      <trkpt lat="49.74649" lon="2.3422">
        <ele>79.6</ele>
        <time>2023-03-01T15:12:03Z</time>
      </trkpt>
      <trkpt lat="49.74648" lon="2.34221">
        <ele>79.6</ele>
        <time>2023-03-01T15:12:04Z</time>
      </trkpt>
      <trkpt lat="49.74648" lon="2.34223">
        <ele>79.5</ele>
        <time>2023-03-01T15:12:06Z</time>
      </trkpt>
      <trkpt lat="49.74648" lon="2.34224">
        <ele>79.5</ele>
        <time>2023-03-01T15:12:07Z</time>
      </trkpt>
      <trkpt lat="49.74647" lon="2.34226">
        <ele>79.5</ele>
        <time>2023-03-01T15:12:08Z</time>
      </trkpt>
      <trkpt lat="49.74647" lon="2.34227">
        <ele>79.4</ele>
        <time>2023-03-01T15:12:09Z</time>
      </trkpt>
      <trkpt lat="49.74647" lon="2.34228">
        <ele>79.4</ele>
        <time>2023-03-01T15:12:10Z</time>
      </trkpt>
      <trkpt lat="49.74646" lon="2.3423">
        <ele>79.3</ele>
        <time>2023-03-01T15:12:11Z</time>
      </trkpt>
      <trkpt lat="49.74645" lon="2.34233">
        <ele>79.2</ele>
        <time>2023-03-01T15:12:13Z</time>
      </trkpt>
      <trkpt lat="49.74645" lon="2.34235">
        <ele>79.1</ele>
        <time>2023-03-01T15:12:14Z</time>
      </trkpt>
      <trkpt lat="49.74644" lon="2.34237">
        <ele>79.1</ele>
        <time>2023-03-01T15:12:15Z</time>
      </trkpt>
      <trkpt lat="49.74644" lon="2.34239">
        <ele>79</ele>
        <time>2023-03-01T15:12:16Z</time>
      </trkpt>
      <trkpt lat="49.74643" lon="2.34241">
        <ele>78.9</ele>
        <time>2023-03-01T15:12:17Z</time>
      </trkpt>
      <trkpt lat="49.74642" lon="2.34244">
        <ele>78.8</ele>
        <time>2023-03-01T15:12:18Z</time>
      </trkpt>
      <trkpt lat="49.74642" lon="2.34245">
        <ele>78.8</ele>
        <time>2023-03-01T15:12:20Z</time>
      </trkpt>
      <trkpt lat="49.74641" lon="2.34246">
        <ele>78.7</ele>
        <time>2023-03-01T15:12:21Z</time>
      </trkpt>
      <trkpt lat="49.7464" lon="2.34248">
        <ele>78.6</ele>
        <time>2023-03-01T15:12:22Z</time>
      </trkpt>
      <trkpt lat="49.7464" lon="2.3425">
        <ele>78.6</ele>
        <time>2023-03-01T15:12:23Z</time>
      </trkpt>
      <trkpt lat="49.74639" lon="2.34251">
        <ele>78.5</ele>
        <time>2023-03-01T15:12:24Z</time>
      </trkpt>
      <trkpt lat="49.74639" lon="2.34253">
        <ele>78.5</ele>
        <time>2023-03-01T15:12:25Z</time>
      </trkpt>
      <trkpt lat="49.74639" lon="2.34255">
        <ele>78.4</ele>
        <time>2023-03-01T15:12:26Z</time>
      </trkpt>
      <trkpt lat="49.74638" lon="2.34258">
        <ele>78.3</ele>
        <time>2023-03-01T15:12:27Z</time>
      </trkpt>
      <trkpt lat="49.74638" lon="2.34259">
        <ele>78.3</ele>
        <time>2023-03-01T15:12:28Z</time>
      </trkpt>
      <trkpt lat="49.74638" lon="2.3426">
        <ele>78.2</ele>
        <time>2023-03-01T15:12:29Z</time>
      </trkpt>
      <trkpt lat="49.74637" lon="2.34262">
        <ele>78.2</ele>
        <time>2023-03-01T15:12:30Z</time>
      </trkpt>
      <trkpt lat="49.74636" lon="2.34264">
        <ele>78.1</ele>
        <time>2023-03-01T15:12:32Z</time>
      </trkpt>
      <trkpt lat="49.74636" lon="2.34266">
        <ele>78</ele>
        <time>2023-03-01T15:12:33Z</time>
      </trkpt>
      <trkpt lat="49.74635" lon="2.34268">
        <ele>78</ele>
        <time>2023-03-01T15:12:34Z</time>
      </trkpt>
      <trkpt lat="49.74635" lon="2.34269">
        <ele>77.9</ele>
        <time>2023-03-01T15:12:35Z</time>
      </trkpt>
      <trkpt lat="49.74635" lon="2.34271">
        <ele>77.8</ele>
        <time>2023-03-01T15:12:36Z</time>
      </trkpt>
      <trkpt lat="49.74634" lon="2.34272">
        <ele>77.8</ele>
        <time>2023-03-01T15:12:38Z</time>
      </trkpt>
      <trkpt lat="49.74634" lon="2.34274">
        <ele>77.7</ele>
        <time>2023-03-01T15:12:39Z</time>
      </trkpt>
      <trkpt lat="49.74634" lon="2.34275">
        <ele>77.7</ele>
        <time>2023-03-01T15:12:40Z</time>
      </trkpt>
      <trkpt lat="49.74633" lon="2.34277">
        <ele>77.6</ele>
        <time>2023-03-01T15:12:41Z</time>
      </trkpt>
      <trkpt lat="49.74633" lon="2.34279">
        <ele>77.5</ele>
        <time>2023-03-01T15:12:42Z</time>
      </trkpt>
      <trkpt lat="49.74633" lon="2.3428">
        <ele>77.5</ele>
        <time>2023-03-01T15:12:43Z</time>
      </trkpt>
      <trkpt lat="49.74632" lon="2.34281">
        <ele>77.4</ele>
        <time>2023-03-01T15:12:44Z</time>
      </trkpt>
      <trkpt lat="49.74632" lon="2.34283">
        <ele>77.3</ele>
        <time>2023-03-01T15:12:45Z</time>
      </trkpt>
      <trkpt lat="49.74632" lon="2.34284">
        <ele>77.3</ele>
        <time>2023-03-01T15:12:46Z</time>
      </trkpt>
      <trkpt lat="49.74631" lon="2.34285">
        <ele>77.3</ele>
        <time>2023-03-01T15:12:48Z</time>
      </trkpt>
      <trkpt lat="49.74631" lon="2.34286">
        <ele>77.2</ele>
        <time>2023-03-01T15:12:49Z</time>
      </trkpt>
      <trkpt lat="49.74631" lon="2.34288">
        <ele>77.1</ele>
        <time>2023-03-01T15:12:50Z</time>
      </trkpt>
      <trkpt lat="49.7463" lon="2.3429">
        <ele>77.1</ele>
        <time>2023-03-01T15:12:51Z</time>
      </trkpt>
      <trkpt lat="49.7463" lon="2.34292">
        <ele>77</ele>
        <time>2023-03-01T15:12:52Z</time>
      </trkpt>
      <trkpt lat="49.7463" lon="2.34293">
        <ele>76.9</ele>
        <time>2023-03-01T15:12:53Z</time>
      </trkpt>
      <trkpt lat="49.74629" lon="2.34295">
        <ele>76.9</ele>
        <time>2023-03-01T15:12:54Z</time>
      </trkpt>
      <trkpt lat="49.74629" lon="2.34297">
        <ele>76.8</ele>
        <time>2023-03-01T15:12:55Z</time>
      </trkpt>
      <trkpt lat="49.74629" lon="2.34298">
        <ele>76.7</ele>
        <time>2023-03-01T15:12:56Z</time>
      </trkpt>
      <trkpt lat="49.74628" lon="2.343">
        <ele>76.7</ele>
        <time>2023-03-01T15:12:57Z</time>
      </trkpt>
      <trkpt lat="49.74628" lon="2.34301">
        <ele>76.6</ele>
        <time>2023-03-01T15:12:59Z</time>
      </trkpt>
      <trkpt lat="49.74628" lon="2.34303">
        <ele>76.6</ele>
        <time>2023-03-01T15:13:00Z</time>
      </trkpt>
      <trkpt lat="49.74628" lon="2.34304">
        <ele>76.5</ele>
        <time>2023-03-01T15:13:01Z</time>
      </trkpt>
      <trkpt lat="49.74627" lon="2.34307">
        <ele>76.4</ele>
        <time>2023-03-01T15:13:02Z</time>
      </trkpt>
      <trkpt lat="49.74627" lon="2.34308">
        <ele>76.3</ele>
        <time>2023-03-01T15:13:03Z</time>
      </trkpt>
      <trkpt lat="49.74626" lon="2.3431">
        <ele>76.3</ele>
        <time>2023-03-01T15:13:04Z</time>
      </trkpt>
      <trkpt lat="49.74626" lon="2.34312">
        <ele>76.2</ele>
        <time>2023-03-01T15:13:05Z</time>
      </trkpt>
      <trkpt lat="49.74626" lon="2.34314">
        <ele>76.1</ele>
        <time>2023-03-01T15:13:06Z</time>
      </trkpt>
      <trkpt lat="49.74626" lon="2.34316">
        <ele>76</ele>
        <time>2023-03-01T15:13:07Z</time>
      </trkpt>
      <trkpt lat="49.74625" lon="2.34318">
        <ele>76</ele>
        <time>2023-03-01T15:13:08Z</time>
      </trkpt>
      <trkpt lat="49.74625" lon="2.34319">
        <ele>75.9</ele>
        <time>2023-03-01T15:13:10Z</time>
      </trkpt>
      <trkpt lat="49.74625" lon="2.34321">
        <ele>75.9</ele>
        <time>2023-03-01T15:13:11Z</time>
      </trkpt>
      <trkpt lat="49.74624" lon="2.34324">
        <ele>75.8</ele>
        <time>2023-03-01T15:13:12Z</time>
      </trkpt>
      <trkpt lat="49.74624" lon="2.34325">
        <ele>75.7</ele>
        <time>2023-03-01T15:13:13Z</time>
      </trkpt>
      <trkpt lat="49.74624" lon="2.34326">
        <ele>75.7</ele>
        <time>2023-03-01T15:13:14Z</time>
      </trkpt>
      <trkpt lat="49.74624" lon="2.34329">
        <ele>75.6</ele>
        <time>2023-03-01T15:13:15Z</time>
      </trkpt>
      <trkpt lat="49.74623" lon="2.34331">
        <ele>75.5</ele>
        <time>2023-03-01T15:13:16Z</time>
      </trkpt>
      <trkpt lat="49.74623" lon="2.34332">
        <ele>75.5</ele>
        <time>2023-03-01T15:13:17Z</time>
      </trkpt>
      <trkpt lat="49.74623" lon="2.34333">
        <ele>75.4</ele>
        <time>2023-03-01T15:13:19Z</time>
      </trkpt>
      <trkpt lat="49.74623" lon="2.34334">
        <ele>75.4</ele>
        <time>2023-03-01T15:13:20Z</time>
      </trkpt>
      <trkpt lat="49.74623" lon="2.34336">
        <ele>75.3</ele>
        <time>2023-03-01T15:13:21Z</time>
      </trkpt>
      <trkpt lat="49.74622" lon="2.34339">
        <ele>75.2</ele>
        <time>2023-03-01T15:13:22Z</time>
      </trkpt>
      <trkpt lat="49.74622" lon="2.3434">
        <ele>75.2</ele>
        <time>2023-03-01T15:13:23Z</time>
      </trkpt>
      <trkpt lat="49.74622" lon="2.34342">
        <ele>75.1</ele>
        <time>2023-03-01T15:13:24Z</time>
      </trkpt>
      <trkpt lat="49.74622" lon="2.34344">
        <ele>75.1</ele>
        <time>2023-03-01T15:13:25Z</time>
      </trkpt>
      <trkpt lat="49.74621" lon="2.34346">
        <ele>75</ele>
        <time>2023-03-01T15:13:26Z</time>
      </trkpt>
      <trkpt lat="49.74621" lon="2.34348">
        <ele>74.9</ele>
        <time>2023-03-01T15:13:27Z</time>
      </trkpt>
      <trkpt lat="49.74621" lon="2.34349">
        <ele>74.9</ele>
        <time>2023-03-01T15:13:28Z</time>
      </trkpt>
      <trkpt lat="49.74621" lon="2.34351">
        <ele>74.8</ele>
        <time>2023-03-01T15:13:30Z</time>
      </trkpt>
      <trkpt lat="49.74621" lon="2.34353">
        <ele>74.8</ele>
        <time>2023-03-01T15:13:31Z</time>
      </trkpt>
      <trkpt lat="49.7462" lon="2.34356">
        <ele>74.7</ele>
        <time>2023-03-01T15:13:32Z</time>
      </trkpt>
      <trkpt lat="49.7462" lon="2.34358">
        <ele>74.6</ele>
        <time>2023-03-01T15:13:33Z</time>
      </trkpt>
      <trkpt lat="49.7462" lon="2.3436">
        <ele>74.5</ele>
        <time>2023-03-01T15:13:34Z</time>
      </trkpt>
      <trkpt lat="49.7462" lon="2.34361">
        <ele>74.5</ele>
        <time>2023-03-01T15:13:35Z</time>
      </trkpt>
      <trkpt lat="49.7462" lon="2.34363">
        <ele>74.4</ele>
        <time>2023-03-01T15:13:37Z</time>
      </trkpt>
      <trkpt lat="49.74619" lon="2.34366">
        <ele>74.4</ele>
        <time>2023-03-01T15:13:38Z</time>
      </trkpt>
      <trkpt lat="49.74619" lon="2.34369">
        <ele>74.3</ele>
        <time>2023-03-01T15:13:39Z</time>
      </trkpt>
      <trkpt lat="49.74619" lon="2.3437">
        <ele>74.2</ele>
        <time>2023-03-01T15:13:40Z</time>
      </trkpt>
      <trkpt lat="49.74619" lon="2.34371">
        <ele>74.2</ele>
        <time>2023-03-01T15:13:41Z</time>
      </trkpt>
      <trkpt lat="49.74619" lon="2.34375">
        <ele>74.1</ele>
        <time>2023-03-01T15:13:42Z</time>
      </trkpt>
      <trkpt lat="49.74619" lon="2.34376">
        <ele>74.1</ele>
        <time>2023-03-01T15:13:43Z</time>
      </trkpt>
      <trkpt lat="49.74619" lon="2.34377">
        <ele>74</ele>
        <time>2023-03-01T15:13:44Z</time>
      </trkpt>
      <trkpt lat="49.74618" lon="2.34381">
        <ele>73.9</ele>
        <time>2023-03-01T15:13:45Z</time>
      </trkpt>
      <trkpt lat="49.74618" lon="2.34382">
        <ele>73.9</ele>
        <time>2023-03-01T15:13:46Z</time>
      </trkpt>
      <trkpt lat="49.74618" lon="2.34384">
        <ele>73.9</ele>
        <time>2023-03-01T15:13:47Z</time>
      </trkpt>
      <trkpt lat="49.74618" lon="2.34386">
        <ele>73.8</ele>
        <time>2023-03-01T15:13:48Z</time>
      </trkpt>
      <trkpt lat="49.74617" lon="2.34388">
        <ele>73.8</ele>
        <time>2023-03-01T15:13:50Z</time>
      </trkpt>
      <trkpt lat="49.74617" lon="2.3439">
        <ele>73.7</ele>
        <time>2023-03-01T15:13:51Z</time>
      </trkpt>
      <trkpt lat="49.74617" lon="2.34391">
        <ele>73.7</ele>
        <time>2023-03-01T15:13:52Z</time>
      </trkpt>
      <trkpt lat="49.74617" lon="2.34394">
        <ele>73.6</ele>
        <time>2023-03-01T15:13:53Z</time>
      </trkpt>
      <trkpt lat="49.74617" lon="2.34395">
        <ele>73.6</ele>
        <time>2023-03-01T15:13:54Z</time>
      </trkpt>
      <trkpt lat="49.74617" lon="2.34397">
        <ele>73.5</ele>
        <time>2023-03-01T15:13:55Z</time>
      </trkpt>
      <trkpt lat="49.74617" lon="2.34398">
        <ele>73.5</ele>
        <time>2023-03-01T15:13:56Z</time>
      </trkpt>
      <trkpt lat="49.74617" lon="2.34401">
        <ele>73.4</ele>
        <time>2023-03-01T15:13:57Z</time>
      </trkpt>
      <trkpt lat="49.74617" lon="2.34402">
        <ele>73.4</ele>
        <time>2023-03-01T15:13:59Z</time>
      </trkpt>
      <trkpt lat="49.74617" lon="2.34404">
        <ele>73.3</ele>
        <time>2023-03-01T15:14:00Z</time>
      </trkpt>
      <trkpt lat="49.74616" lon="2.34407">
        <ele>73.3</ele>
        <time>2023-03-01T15:14:01Z</time>
      </trkpt>
      <trkpt lat="49.74616" lon="2.3441">
        <ele>73.2</ele>
        <time>2023-03-01T15:14:02Z</time>
      </trkpt>
      <trkpt lat="49.74616" lon="2.34411">
        <ele>73.2</ele>
        <time>2023-03-01T15:14:03Z</time>
      </trkpt>
      <trkpt lat="49.74616" lon="2.34414">
        <ele>73.1</ele>
        <time>2023-03-01T15:14:04Z</time>
      </trkpt>
      <trkpt lat="49.74616" lon="2.34416">
        <ele>73.1</ele>
        <time>2023-03-01T15:14:06Z</time>
      </trkpt>
      <trkpt lat="49.74616" lon="2.34418">
        <ele>73</ele>
        <time>2023-03-01T15:14:07Z</time>
      </trkpt>
      <trkpt lat="49.74616" lon="2.34421">
        <ele>72.9</ele>
        <time>2023-03-01T15:14:08Z</time>
      </trkpt>
      <trkpt lat="49.74616" lon="2.34424">
        <ele>72.8</ele>
        <time>2023-03-01T15:14:09Z</time>
      </trkpt>
      <trkpt lat="49.74616" lon="2.34426">
        <ele>72.8</ele>
        <time>2023-03-01T15:14:11Z</time>
      </trkpt>
      <trkpt lat="49.74616" lon="2.34428">
        <ele>72.8</ele>
        <time>2023-03-01T15:14:12Z</time>
      </trkpt>
      <trkpt lat="49.74617" lon="2.3443">
        <ele>72.7</ele>
        <time>2023-03-01T15:14:14Z</time>
      </trkpt>
      <trkpt lat="49.74617" lon="2.34432">
        <ele>72.6</ele>
        <time>2023-03-01T15:14:15Z</time>
      </trkpt>
      <trkpt lat="49.74617" lon="2.34434">
        <ele>72.6</ele>
        <time>2023-03-01T15:14:16Z</time>
      </trkpt>
      <trkpt lat="49.74617" lon="2.34436">
        <ele>72.5</ele>
        <time>2023-03-01T15:14:17Z</time>
      </trkpt>
      <trkpt lat="49.74617" lon="2.34437">
        <ele>72.5</ele>
        <time>2023-03-01T15:14:18Z</time>
      </trkpt>
      <trkpt lat="49.74617" lon="2.34438">
        <ele>72.5</ele>
        <time>2023-03-01T15:14:20Z</time>
      </trkpt>
      <trkpt lat="49.74617" lon="2.3444">
        <ele>72.4</ele>
        <time>2023-03-01T15:14:21Z</time>
      </trkpt>
      <trkpt lat="49.74617" lon="2.34441">
        <ele>72.4</ele>
        <time>2023-03-01T15:14:22Z</time>
      </trkpt>
      <trkpt lat="49.74617" lon="2.34445">
        <ele>72.3</ele>
        <time>2023-03-01T15:14:23Z</time>
      </trkpt>
      <trkpt lat="49.74617" lon="2.34446">
        <ele>72.3</ele>
        <time>2023-03-01T15:14:24Z</time>
      </trkpt>
      <trkpt lat="49.74617" lon="2.34447">
        <ele>72.3</ele>
        <time>2023-03-01T15:14:25Z</time>
      </trkpt>
      <trkpt lat="49.74616" lon="2.34449">
        <ele>72.2</ele>
        <time>2023-03-01T15:14:26Z</time>
      </trkpt>
      <trkpt lat="49.74616" lon="2.34451">
        <ele>72.1</ele>
        <time>2023-03-01T15:14:27Z</time>
      </trkpt>
      <trkpt lat="49.74616" lon="2.34452">
        <ele>72.1</ele>
        <time>2023-03-01T15:14:29Z</time>
      </trkpt>
      <trkpt lat="49.74616" lon="2.34454">
        <ele>72.1</ele>
        <time>2023-03-01T15:14:30Z</time>
      </trkpt>
      <trkpt lat="49.74615" lon="2.34456">
        <ele>72</ele>
        <time>2023-03-01T15:14:31Z</time>
      </trkpt>
      <trkpt lat="49.74615" lon="2.34459">
        <ele>71.9</ele>
        <time>2023-03-01T15:14:32Z</time>
      </trkpt>
      <trkpt lat="49.74615" lon="2.3446">
        <ele>71.9</ele>
        <time>2023-03-01T15:14:33Z</time>
      </trkpt>
      <trkpt lat="49.74615" lon="2.34462">
        <ele>71.8</ele>
        <time>2023-03-01T15:14:34Z</time>
      </trkpt>
      <trkpt lat="49.74615" lon="2.34465">
        <ele>71.7</ele>
        <time>2023-03-01T15:14:35Z</time>
      </trkpt>
      <trkpt lat="49.74615" lon="2.34466">
        <ele>71.7</ele>
        <time>2023-03-01T15:14:37Z</time>
      </trkpt>
      <trkpt lat="49.74615" lon="2.34467">
        <ele>71.7</ele>
        <time>2023-03-01T15:14:38Z</time>
      </trkpt>
      <trkpt lat="49.74615" lon="2.34469">
        <ele>71.6</ele>
        <time>2023-03-01T15:14:39Z</time>
      </trkpt>
      <trkpt lat="49.74615" lon="2.34472">
        <ele>71.5</ele>
        <time>2023-03-01T15:14:40Z</time>
      </trkpt>
      <trkpt lat="49.74614" lon="2.34474">
        <ele>71.5</ele>
        <time>2023-03-01T15:14:41Z</time>
      </trkpt>
      <trkpt lat="49.74614" lon="2.34476">
        <ele>71.4</ele>
        <time>2023-03-01T15:14:42Z</time>
      </trkpt>
      <trkpt lat="49.74614" lon="2.34478">
        <ele>71.3</ele>
        <time>2023-03-01T15:14:44Z</time>
      </trkpt>
      <trkpt lat="49.74614" lon="2.34481">
        <ele>71.2</ele>
        <time>2023-03-01T15:14:45Z</time>
      </trkpt>
      <trkpt lat="49.74614" lon="2.34483">
        <ele>71.2</ele>
        <time>2023-03-01T15:14:46Z</time>
      </trkpt>
      <trkpt lat="49.74614" lon="2.34484">
        <ele>71.1</ele>
        <time>2023-03-01T15:14:47Z</time>
      </trkpt>
      <trkpt lat="49.74614" lon="2.34486">
        <ele>71.1</ele>
        <time>2023-03-01T15:14:48Z</time>
      </trkpt>
      <trkpt lat="49.74614" lon="2.34487">
        <ele>71.1</ele>
        <time>2023-03-01T15:14:49Z</time>
      </trkpt>
      <trkpt lat="49.74614" lon="2.34489">
        <ele>71</ele>
        <time>2023-03-01T15:14:50Z</time>
      </trkpt>
      <trkpt lat="49.74613" lon="2.34493">
        <ele>70.9</ele>
        <time>2023-03-01T15:14:52Z</time>
      </trkpt>
      <trkpt lat="49.74613" lon="2.34494">
        <ele>70.8</ele>
        <time>2023-03-01T15:14:53Z</time>
      </trkpt>
      <trkpt lat="49.74613" lon="2.34496">
        <ele>70.8</ele>
        <time>2023-03-01T15:14:54Z</time>
      </trkpt>
      <trkpt lat="49.74613" lon="2.34498">
        <ele>70.7</ele>
        <time>2023-03-01T15:14:55Z</time>
      </trkpt>
      <trkpt lat="49.74613" lon="2.34499">
        <ele>70.6</ele>
        <time>2023-03-01T15:14:56Z</time>
      </trkpt>
      <trkpt lat="49.74613" lon="2.345">
        <ele>70.6</ele>
        <time>2023-03-01T15:14:58Z</time>
      </trkpt>
      <trkpt lat="49.74613" lon="2.34502">
        <ele>70.5</ele>
        <time>2023-03-01T15:14:59Z</time>
      </trkpt>
      <trkpt lat="49.74613" lon="2.34504">
        <ele>70.5</ele>
        <time>2023-03-01T15:15:00Z</time>
      </trkpt>
      <trkpt lat="49.74613" lon="2.34505">
        <ele>70.4</ele>
        <time>2023-03-01T15:15:01Z</time>
      </trkpt>
      <trkpt lat="49.74612" lon="2.34507">
        <ele>70.4</ele>
        <time>2023-03-01T15:15:02Z</time>
      </trkpt>
      <trkpt lat="49.74612" lon="2.34509">
        <ele>70.3</ele>
        <time>2023-03-01T15:15:03Z</time>
      </trkpt>
      <trkpt lat="49.74612" lon="2.34511">
        <ele>70.2</ele>
        <time>2023-03-01T15:15:04Z</time>
      </trkpt>
      <trkpt lat="49.74612" lon="2.34513">
        <ele>70.1</ele>
        <time>2023-03-01T15:15:05Z</time>
      </trkpt>
      <trkpt lat="49.74612" lon="2.34515">
        <ele>70.1</ele>
        <time>2023-03-01T15:15:06Z</time>
      </trkpt>
      <trkpt lat="49.74612" lon="2.34518">
        <ele>70</ele>
        <time>2023-03-01T15:15:08Z</time>
      </trkpt>
      <trkpt lat="49.74612" lon="2.3452">
        <ele>69.9</ele>
        <time>2023-03-01T15:15:09Z</time>
      </trkpt>
      <trkpt lat="49.74612" lon="2.34521">
        <ele>69.9</ele>
        <time>2023-03-01T15:15:10Z</time>
      </trkpt>
      <trkpt lat="49.74612" lon="2.34522">
        <ele>69.8</ele>
        <time>2023-03-01T15:15:11Z</time>
      </trkpt>
      <trkpt lat="49.74612" lon="2.34524">
        <ele>69.8</ele>
        <time>2023-03-01T15:15:12Z</time>
      </trkpt>
      <trkpt lat="49.74613" lon="2.34525">
        <ele>69.7</ele>
        <time>2023-03-01T15:15:13Z</time>
      </trkpt>
      <trkpt lat="49.74613" lon="2.34527">
        <ele>69.6</ele>
        <time>2023-03-01T15:15:15Z</time>
      </trkpt>
      <trkpt lat="49.74613" lon="2.3453">
        <ele>69.5</ele>
        <time>2023-03-01T15:15:16Z</time>
      </trkpt>
      <trkpt lat="49.74613" lon="2.34533">
        <ele>69.4</ele>
        <time>2023-03-01T15:15:17Z</time>
      </trkpt>
      <trkpt lat="49.74613" lon="2.34534">
        <ele>69.4</ele>
        <time>2023-03-01T15:15:18Z</time>
      </trkpt>
      <trkpt lat="49.74613" lon="2.34535">
        <ele>69.3</ele>
        <time>2023-03-01T15:15:19Z</time>
      </trkpt>
      <trkpt lat="49.74614" lon="2.34538">
        <ele>69.2</ele>
        <time>2023-03-01T15:15:20Z</time>
      </trkpt>
      <trkpt lat="49.74614" lon="2.34539">
        <ele>69.1</ele>
        <time>2023-03-01T15:15:21Z</time>
      </trkpt>
      <trkpt lat="49.74614" lon="2.34541">
        <ele>69.1</ele>
        <time>2023-03-01T15:15:23Z</time>
      </trkpt>
      <trkpt lat="49.74614" lon="2.34543">
        <ele>69</ele>
        <time>2023-03-01T15:15:24Z</time>
      </trkpt>
      <trkpt lat="49.74614" lon="2.34546">
        <ele>68.9</ele>
        <time>2023-03-01T15:15:25Z</time>
      </trkpt>
      <trkpt lat="49.74614" lon="2.34548">
        <ele>68.8</ele>
        <time>2023-03-01T15:15:26Z</time>
      </trkpt>
      <trkpt lat="49.74614" lon="2.3455">
        <ele>68.7</ele>
        <time>2023-03-01T15:15:27Z</time>
      </trkpt>
      <trkpt lat="49.74614" lon="2.34551">
        <ele>68.7</ele>
        <time>2023-03-01T15:15:28Z</time>
      </trkpt>
      <trkpt lat="49.74615" lon="2.34552">
        <ele>68.6</ele>
        <time>2023-03-01T15:15:29Z</time>
      </trkpt>
      <trkpt lat="49.74615" lon="2.34554">
        <ele>68.5</ele>
        <time>2023-03-01T15:15:30Z</time>
      </trkpt>
      <trkpt lat="49.74615" lon="2.34555">
        <ele>68.5</ele>
        <time>2023-03-01T15:15:31Z</time>
      </trkpt>
      <trkpt lat="49.74615" lon="2.34557">
        <ele>68.4</ele>
        <time>2023-03-01T15:15:33Z</time>
      </trkpt>
      <trkpt lat="49.74615" lon="2.34559">
        <ele>68.3</ele>
        <time>2023-03-01T15:15:34Z</time>
      </trkpt>
      <trkpt lat="49.74615" lon="2.34562">
        <ele>68.2</ele>
        <time>2023-03-01T15:15:35Z</time>
      </trkpt>
      <trkpt lat="49.74616" lon="2.34564">
        <ele>68.1</ele>
        <time>2023-03-01T15:15:36Z</time>
      </trkpt>
      <trkpt lat="49.74616" lon="2.34565">
        <ele>68.1</ele>
        <time>2023-03-01T15:15:37Z</time>
      </trkpt>
      <trkpt lat="49.74616" lon="2.34566">
        <ele>68</ele>
        <time>2023-03-01T15:15:38Z</time>
      </trkpt>
      <trkpt lat="49.74616" lon="2.34567">
        <ele>68</ele>
        <time>2023-03-01T15:15:39Z</time>
      </trkpt>
      <trkpt lat="49.74616" lon="2.3457">
        <ele>67.8</ele>
        <time>2023-03-01T15:15:40Z</time>
      </trkpt>
      <trkpt lat="49.74616" lon="2.34571">
        <ele>67.8</ele>
        <time>2023-03-01T15:15:41Z</time>
      </trkpt>
      <trkpt lat="49.74616" lon="2.34572">
        <ele>67.7</ele>
        <time>2023-03-01T15:15:43Z</time>
      </trkpt>
      <trkpt lat="49.74616" lon="2.34574">
        <ele>67.6</ele>
        <time>2023-03-01T15:15:44Z</time>
      </trkpt>
      <trkpt lat="49.74616" lon="2.34576">
        <ele>67.5</ele>
        <time>2023-03-01T15:15:45Z</time>
      </trkpt>
      <trkpt lat="49.74616" lon="2.34577">
        <ele>67.5</ele>
        <time>2023-03-01T15:15:46Z</time>
      </trkpt>
      <trkpt lat="49.74616" lon="2.34579">
        <ele>67.4</ele>
        <time>2023-03-01T15:15:47Z</time>
      </trkpt>
      <trkpt lat="49.74616" lon="2.3458">
        <ele>67.3</ele>
        <time>2023-03-01T15:15:48Z</time>
      </trkpt>
      <trkpt lat="49.74617" lon="2.34582">
        <ele>67.3</ele>
        <time>2023-03-01T15:15:49Z</time>
      </trkpt>
      <trkpt lat="49.74617" lon="2.34585">
        <ele>67.1</ele>
        <time>2023-03-01T15:15:50Z</time>
      </trkpt>
      <trkpt lat="49.74617" lon="2.34587">
        <ele>67</ele>
        <time>2023-03-01T15:15:52Z</time>
      </trkpt>
      <trkpt lat="49.74617" lon="2.34588">
        <ele>67</ele>
        <time>2023-03-01T15:15:53Z</time>
      </trkpt>
      <trkpt lat="49.74617" lon="2.34591">
        <ele>66.9</ele>
        <time>2023-03-01T15:15:54Z</time>
      </trkpt>
      <trkpt lat="49.74617" lon="2.34593">
        <ele>66.8</ele>
        <time>2023-03-01T15:15:55Z</time>
      </trkpt>
      <trkpt lat="49.74617" lon="2.34595">
        <ele>66.7</ele>
        <time>2023-03-01T15:15:56Z</time>
      </trkpt>
      <trkpt lat="49.74617" lon="2.34596">
        <ele>66.6</ele>
        <time>2023-03-01T15:15:58Z</time>
      </trkpt>
      <trkpt lat="49.74617" lon="2.34597">
        <ele>66.5</ele>
        <time>2023-03-01T15:15:59Z</time>
      </trkpt>
      <trkpt lat="49.74617" lon="2.34599">
        <ele>66.5</ele>
        <time>2023-03-01T15:16:00Z</time>
      </trkpt>
      <trkpt lat="49.74617" lon="2.346">
        <ele>66.4</ele>
        <time>2023-03-01T15:16:01Z</time>
      </trkpt>
      <trkpt lat="49.74618" lon="2.34601">
        <ele>66.4</ele>
        <time>2023-03-01T15:16:02Z</time>
      </trkpt>
      <trkpt lat="49.74618" lon="2.34603">
        <ele>66.3</ele>
        <time>2023-03-01T15:16:03Z</time>
      </trkpt>
      <trkpt lat="49.74618" lon="2.34604">
        <ele>66.3</ele>
        <time>2023-03-01T15:16:04Z</time>
      </trkpt>
      <trkpt lat="49.74618" lon="2.34606">
        <ele>66.2</ele>
        <time>2023-03-01T15:16:06Z</time>
      </trkpt>
      <trkpt lat="49.74618" lon="2.34607">
        <ele>66.1</ele>
        <time>2023-03-01T15:16:07Z</time>
      </trkpt>
      <trkpt lat="49.74618" lon="2.34608">
        <ele>66</ele>
        <time>2023-03-01T15:16:08Z</time>
      </trkpt>
      <trkpt lat="49.74618" lon="2.34609">
        <ele>65.9</ele>
        <time>2023-03-01T15:16:10Z</time>
      </trkpt>
      <trkpt lat="49.74619" lon="2.34611">
        <ele>65.8</ele>
        <time>2023-03-01T15:16:11Z</time>
      </trkpt>
      <trkpt lat="49.74619" lon="2.34612">
        <ele>65.8</ele>
        <time>2023-03-01T15:16:12Z</time>
      </trkpt>
      <trkpt lat="49.74619" lon="2.34613">
        <ele>65.7</ele>
        <time>2023-03-01T15:16:14Z</time>
      </trkpt>
      <trkpt lat="49.74619" lon="2.34614">
        <ele>65.7</ele>
        <time>2023-03-01T15:16:15Z</time>
      </trkpt>
      <trkpt lat="49.74619" lon="2.34614">
        <ele>65.7</ele>
        <time>2023-03-01T15:16:16Z</time>
      </trkpt>
      <trkpt lat="49.74619" lon="2.34614">
        <ele>65.7</ele>
        <time>2023-03-01T15:16:19Z</time>
      </trkpt>
      <trkpt lat="49.74619" lon="2.34614">
        <ele>65.7</ele>
        <time>2023-03-01T15:16:20Z</time>
      </trkpt>
      <trkpt lat="49.74619" lon="2.34614">
        <ele>65.7</ele>
        <time>2023-03-01T15:16:22Z</time>
      </trkpt>
      <trkpt lat="49.74619" lon="2.34614">
        <ele>65.7</ele>
        <time>2023-03-01T15:16:24Z</time>
      </trkpt>
      <trkpt lat="49.74619" lon="2.34614">
        <ele>65.7</ele>
        <time>2023-03-01T15:16:25Z</time>
      </trkpt>
      <trkpt lat="49.74619" lon="2.34614">
        <ele>65.6</ele>
        <time>2023-03-01T15:16:27Z</time>
      </trkpt>
      <trkpt lat="49.74619" lon="2.34614">
        <ele>65.6</ele>
        <time>2023-03-01T15:16:28Z</time>
      </trkpt>
      <trkpt lat="49.74619" lon="2.34613">
        <ele>65.6</ele>
        <time>2023-03-01T15:16:29Z</time>
      </trkpt>
      <trkpt lat="49.74619" lon="2.34612">
        <ele>65.6</ele>
        <time>2023-03-01T15:16:30Z</time>
      </trkpt>
      <trkpt lat="49.74619" lon="2.34612">
        <ele>65.6</ele>
        <time>2023-03-01T15:16:31Z</time>
      </trkpt>
      <trkpt lat="49.74619" lon="2.34612">
        <ele>65.6</ele>
        <time>2023-03-01T15:16:33Z</time>
      </trkpt>
      <trkpt lat="49.74619" lon="2.34612">
        <ele>65.6</ele>
        <time>2023-03-01T15:16:35Z</time>
      </trkpt>
      <trkpt lat="49.74619" lon="2.34612">
        <ele>65.6</ele>
        <time>2023-03-01T15:16:36Z</time>
      </trkpt>
      <trkpt lat="49.74619" lon="2.34612">
        <ele>65.6</ele>
        <time>2023-03-01T15:16:37Z</time>
      </trkpt>
      <trkpt lat="49.74619" lon="2.34612">
        <ele>65.6</ele>
        <time>2023-03-01T15:16:38Z</time>
      </trkpt>
      <trkpt lat="49.74619" lon="2.34612">
        <ele>65.6</ele>
        <time>2023-03-01T15:16:39Z</time>
      </trkpt>
      <trkpt lat="49.74619" lon="2.34612">
        <ele>65.6</ele>
        <time>2023-03-01T15:16:40Z</time>
      </trkpt>
      <trkpt lat="49.74619" lon="2.34612">
        <ele>65.6</ele>
        <time>2023-03-01T15:16:41Z</time>
      </trkpt>
      <trkpt lat="49.74619" lon="2.34612">
        <ele>65.6</ele>
        <time>2023-03-01T15:16:42Z</time>
      </trkpt>
      <trkpt lat="49.74619" lon="2.34612">
        <ele>65.6</ele>
        <time>2023-03-01T15:16:44Z</time>
      </trkpt>
      <trkpt lat="49.74619" lon="2.34612">
        <ele>65.6</ele>
        <time>2023-03-01T15:16:45Z</time>
      </trkpt>
      <trkpt lat="49.74619" lon="2.34612">
        <ele>65.6</ele>
        <time>2023-03-01T15:16:46Z</time>
      </trkpt>
      <trkpt lat="49.74619" lon="2.34612">
        <ele>65.6</ele>
        <time>2023-03-01T15:16:47Z</time>
      </trkpt>
      <trkpt lat="49.74619" lon="2.34612">
        <ele>65.6</ele>
        <time>2023-03-01T15:16:48Z</time>
      </trkpt>
      <trkpt lat="49.74619" lon="2.34612">
        <ele>65.6</ele>
        <time>2023-03-01T15:16:49Z</time>
      </trkpt>
      <trkpt lat="49.74619" lon="2.34612">
        <ele>65.6</ele>
        <time>2023-03-01T15:16:50Z</time>
      </trkpt>
      <trkpt lat="49.74619" lon="2.34612">
        <ele>65.6</ele>
        <time>2023-03-01T15:16:51Z</time>
      </trkpt>
      <trkpt lat="49.74619" lon="2.34612">
        <ele>65.6</ele>
        <time>2023-03-01T15:16:52Z</time>
      </trkpt>
      <trkpt lat="49.74619" lon="2.34612">
        <ele>65.6</ele>
        <time>2023-03-01T15:16:53Z</time>
      </trkpt>
      <trkpt lat="49.74619" lon="2.34612">
        <ele>65.6</ele>
        <time>2023-03-01T15:16:54Z</time>
      </trkpt>
      <trkpt lat="49.74619" lon="2.34612">
        <ele>65.6</ele>
        <time>2023-03-01T15:16:55Z</time>
      </trkpt>
      <trkpt lat="49.74619" lon="2.34612">
        <ele>65.6</ele>
        <time>2023-03-01T15:16:57Z</time>
      </trkpt>
      <trkpt lat="49.74619" lon="2.34612">
        <ele>65.6</ele>
        <time>2023-03-01T15:16:58Z</time>
      </trkpt>
      <trkpt lat="49.74619" lon="2.34612">
        <ele>65.6</ele>
        <time>2023-03-01T15:17:00Z</time>
      </trkpt>
      <trkpt lat="49.74619" lon="2.34612">
        <ele>65.6</ele>
        <time>2023-03-01T15:17:01Z</time>
      </trkpt>
      <trkpt lat="49.74619" lon="2.34612">
        <ele>65.6</ele>
        <time>2023-03-01T15:17:02Z</time>
      </trkpt>
      <trkpt lat="49.74619" lon="2.34612">
        <ele>65.6</ele>
        <time>2023-03-01T15:17:03Z</time>
      </trkpt>
      <trkpt lat="49.74619" lon="2.34612">
        <ele>65.6</ele>
        <time>2023-03-01T15:17:04Z</time>
      </trkpt>
      <trkpt lat="49.74619" lon="2.34612">
        <ele>65.6</ele>
        <time>2023-03-01T15:17:06Z</time>
      </trkpt>
      <trkpt lat="49.74619" lon="2.34612">
        <ele>65.6</ele>
        <time>2023-03-01T15:17:07Z</time>
      </trkpt>
      <trkpt lat="49.74619" lon="2.34612">
        <ele>65.6</ele>
        <time>2023-03-01T15:17:08Z</time>
      </trkpt>
      <trkpt lat="49.74619" lon="2.34612">
        <ele>65.6</ele>
        <time>2023-03-01T15:17:09Z</time>
      </trkpt>
      <trkpt lat="49.74619" lon="2.34612">
        <ele>65.6</ele>
        <time>2023-03-01T15:17:10Z</time>
      </trkpt>
      <trkpt lat="49.74619" lon="2.34612">
        <ele>65.6</ele>
        <time>2023-03-01T15:17:11Z</time>
      </trkpt>
      <trkpt lat="49.74619" lon="2.34612">
        <ele>65.6</ele>
        <time>2023-03-01T15:17:13Z</time>
      </trkpt>
      <trkpt lat="49.74619" lon="2.34612">
        <ele>65.6</ele>
        <time>2023-03-01T15:17:14Z</time>
      </trkpt>
      <trkpt lat="49.74619" lon="2.34612">
        <ele>65.6</ele>
        <time>2023-03-01T15:17:15Z</time>
      </trkpt>
      <trkpt lat="49.74619" lon="2.34612">
        <ele>65.6</ele>
        <time>2023-03-01T15:17:16Z</time>
      </trkpt>
      <trkpt lat="49.74619" lon="2.34612">
        <ele>65.6</ele>
        <time>2023-03-01T15:17:18Z</time>
      </trkpt>
      <trkpt lat="49.74619" lon="2.34612">
        <ele>65.6</ele>
        <time>2023-03-01T15:17:19Z</time>
      </trkpt>
      <trkpt lat="49.74619" lon="2.34612">
        <ele>65.6</ele>
        <time>2023-03-01T15:17:21Z</time>
      </trkpt>
      <trkpt lat="49.74619" lon="2.34612">
        <ele>65.6</ele>
        <time>2023-03-01T15:17:23Z</time>
      </trkpt>
      <trkpt lat="49.74619" lon="2.34612">
        <ele>65.6</ele>
        <time>2023-03-01T15:17:24Z</time>
      </trkpt>
      <trkpt lat="49.74619" lon="2.34612">
        <ele>65.6</ele>
        <time>2023-03-01T15:17:26Z</time>
      </trkpt>
      <trkpt lat="49.74619" lon="2.34612">
        <ele>65.6</ele>
        <time>2023-03-01T15:17:27Z</time>
      </trkpt>
      <trkpt lat="49.74619" lon="2.34612">
        <ele>65.6</ele>
        <time>2023-03-01T15:17:28Z</time>
      </trkpt>
      <trkpt lat="49.74619" lon="2.34612">
        <ele>65.6</ele>
        <time>2023-03-01T15:17:30Z</time>
      </trkpt>
      <trkpt lat="49.74619" lon="2.34612">
        <ele>65.6</ele>
        <time>2023-03-01T15:17:31Z</time>
      </trkpt>
      <trkpt lat="49.74619" lon="2.34612">
        <ele>65.6</ele>
        <time>2023-03-01T15:17:32Z</time>
      </trkpt>
      <trkpt lat="49.74619" lon="2.34612">
        <ele>65.6</ele>
        <time>2023-03-01T15:17:33Z</time>
      </trkpt>
      <trkpt lat="49.74619" lon="2.34606">
        <ele>65.3</ele>
        <time>2023-03-01T15:17:35Z</time>
      </trkpt>
      <trkpt lat="49.74619" lon="2.34606">
        <ele>65.3</ele>
        <time>2023-03-01T15:17:36Z</time>
      </trkpt>
      <trkpt lat="49.74619" lon="2.34606">
        <ele>65.2</ele>
        <time>2023-03-01T15:17:38Z</time>
      </trkpt>
      <trkpt lat="49.74619" lon="2.34608">
        <ele>65.1</ele>
        <time>2023-03-01T15:17:39Z</time>
      </trkpt>
      <trkpt lat="49.74619" lon="2.34609">
        <ele>65.1</ele>
        <time>2023-03-01T15:17:40Z</time>
      </trkpt>
      <trkpt lat="49.7462" lon="2.3461">
        <ele>65</ele>
        <time>2023-03-01T15:17:41Z</time>
      </trkpt>
      <trkpt lat="49.7462" lon="2.34611">
        <ele>65</ele>
        <time>2023-03-01T15:17:42Z</time>
      </trkpt>
      <trkpt lat="49.7462" lon="2.34612">
        <ele>64.9</ele>
        <time>2023-03-01T15:17:43Z</time>
      </trkpt>
      <trkpt lat="49.74621" lon="2.34616">
        <ele>64.7</ele>
        <time>2023-03-01T15:17:44Z</time>
      </trkpt>
      <trkpt lat="49.74621" lon="2.34619">
        <ele>64.6</ele>
        <time>2023-03-01T15:17:46Z</time>
      </trkpt>
      <trkpt lat="49.74622" lon="2.34621">
        <ele>64.5</ele>
        <time>2023-03-01T15:17:48Z</time>
      </trkpt>
      <trkpt lat="49.74622" lon="2.34623">
        <ele>64.4</ele>
        <time>2023-03-01T15:17:49Z</time>
      </trkpt>
      <trkpt lat="49.74622" lon="2.34625">
        <ele>64.3</ele>
        <time>2023-03-01T15:17:50Z</time>
      </trkpt>
      <trkpt lat="49.74622" lon="2.34627">
        <ele>64.2</ele>
        <time>2023-03-01T15:17:51Z</time>
      </trkpt>
      <trkpt lat="49.74622" lon="2.34628">
        <ele>64.1</ele>
        <time>2023-03-01T15:17:52Z</time>
      </trkpt>
      <trkpt lat="49.74622" lon="2.3463">
        <ele>64.1</ele>
        <time>2023-03-01T15:17:53Z</time>
      </trkpt>
      <trkpt lat="49.74621" lon="2.34631">
        <ele>64</ele>
        <time>2023-03-01T15:17:54Z</time>
      </trkpt>
      <trkpt lat="49.74621" lon="2.34633">
        <ele>63.9</ele>
        <time>2023-03-01T15:17:55Z</time>
      </trkpt>
      <trkpt lat="49.74621" lon="2.34634">
        <ele>63.9</ele>
        <time>2023-03-01T15:17:56Z</time>
      </trkpt>
      <trkpt lat="49.74621" lon="2.34636">
        <ele>63.8</ele>
        <time>2023-03-01T15:17:57Z</time>
      </trkpt>
      <trkpt lat="49.7462" lon="2.34637">
        <ele>63.7</ele>
        <time>2023-03-01T15:17:58Z</time>
      </trkpt>
      <trkpt lat="49.7462" lon="2.34638">
        <ele>63.7</ele>
        <time>2023-03-01T15:17:59Z</time>
      </trkpt>
      <trkpt lat="49.7462" lon="2.34639">
        <ele>63.6</ele>
        <time>2023-03-01T15:18:00Z</time>
      </trkpt>
      <trkpt lat="49.74619" lon="2.34641">
        <ele>63.5</ele>
        <time>2023-03-01T15:18:01Z</time>
      </trkpt>
      <trkpt lat="49.74619" lon="2.34642">
        <ele>63.5</ele>
        <time>2023-03-01T15:18:02Z</time>
      </trkpt>
      <trkpt lat="49.74618" lon="2.34643">
        <ele>63.4</ele>
        <time>2023-03-01T15:18:03Z</time>
      </trkpt>
      <trkpt lat="49.74618" lon="2.34645">
        <ele>63.3</ele>
        <time>2023-03-01T15:18:04Z</time>
      </trkpt>
      <trkpt lat="49.74618" lon="2.34646">
        <ele>63.3</ele>
        <time>2023-03-01T15:18:05Z</time>
      </trkpt>
      <trkpt lat="49.74617" lon="2.34647">
        <ele>63.2</ele>
        <time>2023-03-01T15:18:06Z</time>
      </trkpt>
      <trkpt lat="49.74617" lon="2.34647">
        <ele>63.2</ele>
        <time>2023-03-01T15:18:07Z</time>
      </trkpt>
      <trkpt lat="49.74616" lon="2.34648">
        <ele>63.1</ele>
        <time>2023-03-01T15:18:08Z</time>
      </trkpt>
      <trkpt lat="49.74616" lon="2.34649">
        <ele>63.1</ele>
        <time>2023-03-01T15:18:09Z</time>
      </trkpt>
      <trkpt lat="49.74616" lon="2.3465">
        <ele>63</ele>
        <time>2023-03-01T15:18:10Z</time>
      </trkpt>
      <trkpt lat="49.74616" lon="2.34651">
        <ele>63</ele>
        <time>2023-03-01T15:18:11Z</time>
      </trkpt>
      <trkpt lat="49.74615" lon="2.34652">
        <ele>62.9</ele>
        <time>2023-03-01T15:18:12Z</time>
      </trkpt>
      <trkpt lat="49.74615" lon="2.34654">
        <ele>62.8</ele>
        <time>2023-03-01T15:18:13Z</time>
      </trkpt>
      <trkpt lat="49.74615" lon="2.34656">
        <ele>62.8</ele>
        <time>2023-03-01T15:18:14Z</time>
      </trkpt>
      <trkpt lat="49.74615" lon="2.34657">
        <ele>62.7</ele>
        <time>2023-03-01T15:18:15Z</time>
      </trkpt>
      <trkpt lat="49.74614" lon="2.34658">
        <ele>62.7</ele>
        <time>2023-03-01T15:18:16Z</time>
      </trkpt>
      <trkpt lat="49.74613" lon="2.3466">
        <ele>62.6</ele>
        <time>2023-03-01T15:18:18Z</time>
      </trkpt>
      <trkpt lat="49.74613" lon="2.34661">
        <ele>62.5</ele>
        <time>2023-03-01T15:18:19Z</time>
      </trkpt>
      <trkpt lat="49.74613" lon="2.34662">
        <ele>62.5</ele>
        <time>2023-03-01T15:18:20Z</time>
      </trkpt>
      <trkpt lat="49.74612" lon="2.34663">
        <ele>62.4</ele>
        <time>2023-03-01T15:18:21Z</time>
      </trkpt>
      <trkpt lat="49.74612" lon="2.34664">
        <ele>62.3</ele>
        <time>2023-03-01T15:18:22Z</time>
      </trkpt>
      <trkpt lat="49.74611" lon="2.34666">
        <ele>62.3</ele>
        <time>2023-03-01T15:18:23Z</time>
      </trkpt>
      <trkpt lat="49.74611" lon="2.34667">
        <ele>62.2</ele>
        <time>2023-03-01T15:18:25Z</time>
      </trkpt>
      <trkpt lat="49.7461" lon="2.34668">
        <ele>62.2</ele>
        <time>2023-03-01T15:18:26Z</time>
      </trkpt>
      <trkpt lat="49.7461" lon="2.34669">
        <ele>62.1</ele>
        <time>2023-03-01T15:18:27Z</time>
      </trkpt>
      <trkpt lat="49.7461" lon="2.34671">
        <ele>62</ele>
        <time>2023-03-01T15:18:28Z</time>
      </trkpt>
      <trkpt lat="49.74609" lon="2.34672">
        <ele>62</ele>
        <time>2023-03-01T15:18:29Z</time>
      </trkpt>
      <trkpt lat="49.74608" lon="2.34674">
        <ele>61.9</ele>
        <time>2023-03-01T15:18:30Z</time>
      </trkpt>
      <trkpt lat="49.74608" lon="2.34675">
        <ele>61.8</ele>
        <time>2023-03-01T15:18:31Z</time>
      </trkpt>
      <trkpt lat="49.74607" lon="2.34676">
        <ele>61.7</ele>
        <time>2023-03-01T15:18:32Z</time>
      </trkpt>
      <trkpt lat="49.74607" lon="2.34678">
        <ele>61.7</ele>
        <time>2023-03-01T15:18:33Z</time>
      </trkpt>
      <trkpt lat="49.74606" lon="2.34681">
        <ele>61.6</ele>
        <time>2023-03-01T15:18:35Z</time>
      </trkpt>
      <trkpt lat="49.74605" lon="2.34683">
        <ele>61.5</ele>
        <time>2023-03-01T15:18:36Z</time>
      </trkpt>
      <trkpt lat="49.74604" lon="2.34684">
        <ele>61.4</ele>
        <time>2023-03-01T15:18:37Z</time>
      </trkpt>
      <trkpt lat="49.74603" lon="2.34686">
        <ele>61.3</ele>
        <time>2023-03-01T15:18:38Z</time>
      </trkpt>
      <trkpt lat="49.74603" lon="2.34689">
        <ele>61.2</ele>
        <time>2023-03-01T15:18:39Z</time>
      </trkpt>
      <trkpt lat="49.74602" lon="2.3469">
        <ele>61.1</ele>
        <time>2023-03-01T15:18:40Z</time>
      </trkpt>
      <trkpt lat="49.74602" lon="2.34692">
        <ele>61</ele>
        <time>2023-03-01T15:18:41Z</time>
      </trkpt>
      <trkpt lat="49.74601" lon="2.34695">
        <ele>60.9</ele>
        <time>2023-03-01T15:18:42Z</time>
      </trkpt>
      <trkpt lat="49.746" lon="2.34696">
        <ele>60.9</ele>
        <time>2023-03-01T15:18:43Z</time>
      </trkpt>
      <trkpt lat="49.746" lon="2.34698">
        <ele>60.8</ele>
        <time>2023-03-01T15:18:44Z</time>
      </trkpt>
      <trkpt lat="49.74599" lon="2.34699">
        <ele>60.7</ele>
        <time>2023-03-01T15:18:45Z</time>
      </trkpt>
      <trkpt lat="49.74598" lon="2.347">
        <ele>60.7</ele>
        <time>2023-03-01T15:18:47Z</time>
      </trkpt>
      <trkpt lat="49.74598" lon="2.34702">
        <ele>60.6</ele>
        <time>2023-03-01T15:18:48Z</time>
      </trkpt>
      <trkpt lat="49.74597" lon="2.34703">
        <ele>60.6</ele>
        <time>2023-03-01T15:18:49Z</time>
      </trkpt>
      <trkpt lat="49.74597" lon="2.34705">
        <ele>60.5</ele>
        <time>2023-03-01T15:18:50Z</time>
      </trkpt>
      <trkpt lat="49.74597" lon="2.34706">
        <ele>60.5</ele>
        <time>2023-03-01T15:18:51Z</time>
      </trkpt>
      <trkpt lat="49.74597" lon="2.34708">
        <ele>60.4</ele>
        <time>2023-03-01T15:18:52Z</time>
      </trkpt>
      <trkpt lat="49.74596" lon="2.34709">
        <ele>60.4</ele>
        <time>2023-03-01T15:18:53Z</time>
      </trkpt>
      <trkpt lat="49.74596" lon="2.34711">
        <ele>60.3</ele>
        <time>2023-03-01T15:18:54Z</time>
      </trkpt>
      <trkpt lat="49.74595" lon="2.34713">
        <ele>60.2</ele>
        <time>2023-03-01T15:18:56Z</time>
      </trkpt>
      <trkpt lat="49.74594" lon="2.34714">
        <ele>60.2</ele>
        <time>2023-03-01T15:18:57Z</time>
      </trkpt>
      <trkpt lat="49.74594" lon="2.34715">
        <ele>60.1</ele>
        <time>2023-03-01T15:18:58Z</time>
      </trkpt>
      <trkpt lat="49.74593" lon="2.34717">
        <ele>60</ele>
        <time>2023-03-01T15:18:59Z</time>
      </trkpt>
      <trkpt lat="49.74593" lon="2.34719">
        <ele>60</ele>
        <time>2023-03-01T15:19:00Z</time>
      </trkpt>
      <trkpt lat="49.74591" lon="2.34722">
        <ele>59.8</ele>
        <time>2023-03-01T15:19:01Z</time>
      </trkpt>
      <trkpt lat="49.74591" lon="2.34723">
        <ele>59.8</ele>
        <time>2023-03-01T15:19:03Z</time>
      </trkpt>
      <trkpt lat="49.7459" lon="2.34724">
        <ele>59.8</ele>
        <time>2023-03-01T15:19:04Z</time>
      </trkpt>
      <trkpt lat="49.74589" lon="2.34726">
        <ele>59.7</ele>
        <time>2023-03-01T15:19:05Z</time>
      </trkpt>
      <trkpt lat="49.74589" lon="2.34727">
        <ele>59.6</ele>
        <time>2023-03-01T15:19:06Z</time>
      </trkpt>
      <trkpt lat="49.74589" lon="2.34731">
        <ele>59.5</ele>
        <time>2023-03-01T15:19:07Z</time>
      </trkpt>
      <trkpt lat="49.74589" lon="2.34732">
        <ele>59.5</ele>
        <time>2023-03-01T15:19:08Z</time>
      </trkpt>
      <trkpt lat="49.74589" lon="2.34733">
        <ele>59.4</ele>
        <time>2023-03-01T15:19:09Z</time>
      </trkpt>
      <trkpt lat="49.74589" lon="2.34735">
        <ele>59.4</ele>
        <time>2023-03-01T15:19:10Z</time>
      </trkpt>
      <trkpt lat="49.74588" lon="2.34737">
        <ele>59.3</ele>
        <time>2023-03-01T15:19:11Z</time>
      </trkpt>
      <trkpt lat="49.74587" lon="2.34738">
        <ele>59.3</ele>
        <time>2023-03-01T15:19:12Z</time>
      </trkpt>
      <trkpt lat="49.74586" lon="2.3474">
        <ele>59.2</ele>
        <time>2023-03-01T15:19:14Z</time>
      </trkpt>
      <trkpt lat="49.74586" lon="2.34741">
        <ele>59.1</ele>
        <time>2023-03-01T15:19:15Z</time>
      </trkpt>
      <trkpt lat="49.74585" lon="2.34743">
        <ele>59.1</ele>
        <time>2023-03-01T15:19:16Z</time>
      </trkpt>
      <trkpt lat="49.74584" lon="2.34745">
        <ele>59</ele>
        <time>2023-03-01T15:19:17Z</time>
      </trkpt>
      <trkpt lat="49.74583" lon="2.34747">
        <ele>58.9</ele>
        <time>2023-03-01T15:19:18Z</time>
      </trkpt>
      <trkpt lat="49.74583" lon="2.34749">
        <ele>58.9</ele>
        <time>2023-03-01T15:19:19Z</time>
      </trkpt>
      <trkpt lat="49.74582" lon="2.34751">
        <ele>58.8</ele>
        <time>2023-03-01T15:19:21Z</time>
      </trkpt>
      <trkpt lat="49.74581" lon="2.34753">
        <ele>58.7</ele>
        <time>2023-03-01T15:19:22Z</time>
      </trkpt>
      <trkpt lat="49.7458" lon="2.34754">
        <ele>58.7</ele>
        <time>2023-03-01T15:19:23Z</time>
      </trkpt>
      <trkpt lat="49.74579" lon="2.34756">
        <ele>58.6</ele>
        <time>2023-03-01T15:19:24Z</time>
      </trkpt>
      <trkpt lat="49.74579" lon="2.34757">
        <ele>58.6</ele>
        <time>2023-03-01T15:19:25Z</time>
      </trkpt>
      <trkpt lat="49.7458" lon="2.34758">
        <ele>58.5</ele>
        <time>2023-03-01T15:19:27Z</time>
      </trkpt>
      <trkpt lat="49.7458" lon="2.3476">
        <ele>58.5</ele>
        <time>2023-03-01T15:19:28Z</time>
      </trkpt>
      <trkpt lat="49.7458" lon="2.34761">
        <ele>58.4</ele>
        <time>2023-03-01T15:19:29Z</time>
      </trkpt>
      <trkpt lat="49.7458" lon="2.34763">
        <ele>58.4</ele>
        <time>2023-03-01T15:19:30Z</time>
      </trkpt>
      <trkpt lat="49.74579" lon="2.34765">
        <ele>58.3</ele>
        <time>2023-03-01T15:19:31Z</time>
      </trkpt>
      <trkpt lat="49.74578" lon="2.34767">
        <ele>58.3</ele>
        <time>2023-03-01T15:19:33Z</time>
      </trkpt>
      <trkpt lat="49.74578" lon="2.3477">
        <ele>58.2</ele>
        <time>2023-03-01T15:19:34Z</time>
      </trkpt>
      <trkpt lat="49.74578" lon="2.34771">
        <ele>58.1</ele>
        <time>2023-03-01T15:19:35Z</time>
      </trkpt>
      <trkpt lat="49.74577" lon="2.34773">
        <ele>58.1</ele>
        <time>2023-03-01T15:19:36Z</time>
      </trkpt>
      <trkpt lat="49.74577" lon="2.34775">
        <ele>58</ele>
        <time>2023-03-01T15:19:37Z</time>
      </trkpt>
      <trkpt lat="49.74577" lon="2.34777">
        <ele>57.9</ele>
        <time>2023-03-01T15:19:38Z</time>
      </trkpt>
      <trkpt lat="49.74575" lon="2.34781">
        <ele>57.8</ele>
        <time>2023-03-01T15:19:40Z</time>
      </trkpt>
      <trkpt lat="49.74574" lon="2.34782">
        <ele>57.8</ele>
        <time>2023-03-01T15:19:41Z</time>
      </trkpt>
      <trkpt lat="49.74574" lon="2.34783">
        <ele>57.7</ele>
        <time>2023-03-01T15:19:42Z</time>
      </trkpt>
      <trkpt lat="49.74573" lon="2.34785">
        <ele>57.7</ele>
        <time>2023-03-01T15:19:43Z</time>
      </trkpt>
      <trkpt lat="49.74572" lon="2.34786">
        <ele>57.6</ele>
        <time>2023-03-01T15:19:44Z</time>
      </trkpt>
      <trkpt lat="49.74571" lon="2.34789">
        <ele>57.5</ele>
        <time>2023-03-01T15:19:45Z</time>
      </trkpt>
      <trkpt lat="49.7457" lon="2.3479">
        <ele>57.5</ele>
        <time>2023-03-01T15:19:46Z</time>
      </trkpt>
      <trkpt lat="49.7457" lon="2.34792">
        <ele>57.4</ele>
        <time>2023-03-01T15:19:47Z</time>
      </trkpt>
      <trkpt lat="49.74569" lon="2.34793">
        <ele>57.4</ele>
        <time>2023-03-01T15:19:49Z</time>
      </trkpt>
      <trkpt lat="49.74568" lon="2.34794">
        <ele>57.3</ele>
        <time>2023-03-01T15:19:50Z</time>
      </trkpt>
      <trkpt lat="49.74568" lon="2.34795">
        <ele>57.3</ele>
        <time>2023-03-01T15:19:51Z</time>
      </trkpt>
      <trkpt lat="49.74567" lon="2.34796">
        <ele>57.3</ele>
        <time>2023-03-01T15:19:52Z</time>
      </trkpt>
      <trkpt lat="49.74567" lon="2.34798">
        <ele>57.2</ele>
        <time>2023-03-01T15:19:53Z</time>
      </trkpt>
      <trkpt lat="49.74566" lon="2.34799">
        <ele>57.2</ele>
        <time>2023-03-01T15:19:54Z</time>
      </trkpt>
      <trkpt lat="49.74566" lon="2.34801">
        <ele>57.1</ele>
        <time>2023-03-01T15:19:56Z</time>
      </trkpt>
      <trkpt lat="49.74565" lon="2.34804">
        <ele>57</ele>
        <time>2023-03-01T15:19:57Z</time>
      </trkpt>
      <trkpt lat="49.74563" lon="2.34807">
        <ele>57</ele>
        <time>2023-03-01T15:19:58Z</time>
      </trkpt>
      <trkpt lat="49.74563" lon="2.34808">
        <ele>56.9</ele>
        <time>2023-03-01T15:19:59Z</time>
      </trkpt>
      <trkpt lat="49.74562" lon="2.34809">
        <ele>56.9</ele>
        <time>2023-03-01T15:20:00Z</time>
      </trkpt>
      <trkpt lat="49.74561" lon="2.34812">
        <ele>56.8</ele>
        <time>2023-03-01T15:20:01Z</time>
      </trkpt>
      <trkpt lat="49.74561" lon="2.34813">
        <ele>56.8</ele>
        <time>2023-03-01T15:20:02Z</time>
      </trkpt>
      <trkpt lat="49.7456" lon="2.34814">
        <ele>56.7</ele>
        <time>2023-03-01T15:20:03Z</time>
      </trkpt>
      <trkpt lat="49.7456" lon="2.34815">
        <ele>56.7</ele>
        <time>2023-03-01T15:20:05Z</time>
      </trkpt>
      <trkpt lat="49.7456" lon="2.34817">
        <ele>56.7</ele>
        <time>2023-03-01T15:20:06Z</time>
      </trkpt>
      <trkpt lat="49.74559" lon="2.34819">
        <ele>56.6</ele>
        <time>2023-03-01T15:20:07Z</time>
      </trkpt>
      <trkpt lat="49.74559" lon="2.3482">
        <ele>56.6</ele>
        <time>2023-03-01T15:20:08Z</time>
      </trkpt>
      <trkpt lat="49.74558" lon="2.34822">
        <ele>56.5</ele>
        <time>2023-03-01T15:20:09Z</time>
      </trkpt>
      <trkpt lat="49.74558" lon="2.34823">
        <ele>56.5</ele>
        <time>2023-03-01T15:20:10Z</time>
      </trkpt>
      <trkpt lat="49.74557" lon="2.34827">
        <ele>56.4</ele>
        <time>2023-03-01T15:20:11Z</time>
      </trkpt>
      <trkpt lat="49.74557" lon="2.34827">
        <ele>56.4</ele>
        <time>2023-03-01T15:20:12Z</time>
      </trkpt>
      <trkpt lat="49.74557" lon="2.34829">
        <ele>56.3</ele>
        <time>2023-03-01T15:20:13Z</time>
      </trkpt>
      <trkpt lat="49.74556" lon="2.34832">
        <ele>56.2</ele>
        <time>2023-03-01T15:20:15Z</time>
      </trkpt>
      <trkpt lat="49.74556" lon="2.34833">
        <ele>56.2</ele>
        <time>2023-03-01T15:20:16Z</time>
      </trkpt>
      <trkpt lat="49.74556" lon="2.34835">
        <ele>56.2</ele>
        <time>2023-03-01T15:20:18Z</time>
      </trkpt>
      <trkpt lat="49.74556" lon="2.34837">
        <ele>56.1</ele>
        <time>2023-03-01T15:20:19Z</time>
      </trkpt>
      <trkpt lat="49.74555" lon="2.34839">
        <ele>56.1</ele>
        <time>2023-03-01T15:20:20Z</time>
      </trkpt>
      <trkpt lat="49.74554" lon="2.34841">
        <ele>56</ele>
        <time>2023-03-01T15:20:22Z</time>
      </trkpt>
      <trkpt lat="49.74554" lon="2.34843">
        <ele>56</ele>
        <time>2023-03-01T15:20:23Z</time>
      </trkpt>
      <trkpt lat="49.74553" lon="2.34845">
        <ele>55.9</ele>
        <time>2023-03-01T15:20:24Z</time>
      </trkpt>
      <trkpt lat="49.74552" lon="2.34848">
        <ele>55.8</ele>
        <time>2023-03-01T15:20:25Z</time>
      </trkpt>
      <trkpt lat="49.74551" lon="2.3485">
        <ele>55.8</ele>
        <time>2023-03-01T15:20:26Z</time>
      </trkpt>
      <trkpt lat="49.74551" lon="2.34852">
        <ele>55.7</ele>
        <time>2023-03-01T15:20:27Z</time>
      </trkpt>
      <trkpt lat="49.7455" lon="2.34854">
        <ele>55.7</ele>
        <time>2023-03-01T15:20:28Z</time>
      </trkpt>
      <trkpt lat="49.7455" lon="2.34856">
        <ele>55.6</ele>
        <time>2023-03-01T15:20:30Z</time>
      </trkpt>
      <trkpt lat="49.74549" lon="2.34857">
        <ele>55.6</ele>
        <time>2023-03-01T15:20:31Z</time>
      </trkpt>
      <trkpt lat="49.74549" lon="2.34859">
        <ele>55.5</ele>
        <time>2023-03-01T15:20:32Z</time>
      </trkpt>
      <trkpt lat="49.74549" lon="2.3486">
        <ele>55.5</ele>
        <time>2023-03-01T15:20:33Z</time>
      </trkpt>
      <trkpt lat="49.74548" lon="2.34862">
        <ele>55.5</ele>
        <time>2023-03-01T15:20:34Z</time>
      </trkpt>
      <trkpt lat="49.74547" lon="2.34864">
        <ele>55.4</ele>
        <time>2023-03-01T15:20:35Z</time>
      </trkpt>
      <trkpt lat="49.74546" lon="2.34867">
        <ele>55.3</ele>
        <time>2023-03-01T15:20:37Z</time>
      </trkpt>
      <trkpt lat="49.74546" lon="2.34868">
        <ele>55.3</ele>
        <time>2023-03-01T15:20:38Z</time>
      </trkpt>
      <trkpt lat="49.74545" lon="2.34869">
        <ele>55.3</ele>
        <time>2023-03-01T15:20:39Z</time>
      </trkpt>
      <trkpt lat="49.74544" lon="2.34871">
        <ele>55.2</ele>
        <time>2023-03-01T15:20:40Z</time>
      </trkpt>
      <trkpt lat="49.74543" lon="2.34873">
        <ele>55.2</ele>
        <time>2023-03-01T15:20:41Z</time>
      </trkpt>
      <trkpt lat="49.74543" lon="2.34875">
        <ele>55.1</ele>
        <time>2023-03-01T15:20:43Z</time>
      </trkpt>
      <trkpt lat="49.74543" lon="2.34876">
        <ele>55.1</ele>
        <time>2023-03-01T15:20:44Z</time>
      </trkpt>
      <trkpt lat="49.74542" lon="2.34878">
        <ele>55.1</ele>
        <time>2023-03-01T15:20:45Z</time>
      </trkpt>
      <trkpt lat="49.74542" lon="2.34879">
        <ele>55.1</ele>
        <time>2023-03-01T15:20:46Z</time>
      </trkpt>
      <trkpt lat="49.74542" lon="2.34881">
        <ele>55</ele>
        <time>2023-03-01T15:20:47Z</time>
      </trkpt>
      <trkpt lat="49.74541" lon="2.34883">
        <ele>55</ele>
        <time>2023-03-01T15:20:48Z</time>
      </trkpt>
      <trkpt lat="49.74541" lon="2.34885">
        <ele>55</ele>
        <time>2023-03-01T15:20:49Z</time>
      </trkpt>
      <trkpt lat="49.7454" lon="2.34887">
        <ele>54.9</ele>
        <time>2023-03-01T15:20:50Z</time>
      </trkpt>
      <trkpt lat="49.7454" lon="2.34892">
        <ele>54.9</ele>
        <time>2023-03-01T15:20:52Z</time>
      </trkpt>
      <trkpt lat="49.74539" lon="2.34893">
        <ele>54.8</ele>
        <time>2023-03-01T15:20:53Z</time>
      </trkpt>
      <trkpt lat="49.74539" lon="2.34895">
        <ele>54.8</ele>
        <time>2023-03-01T15:20:54Z</time>
      </trkpt>
      <trkpt lat="49.74538" lon="2.34896">
        <ele>54.8</ele>
        <time>2023-03-01T15:20:55Z</time>
      </trkpt>
      <trkpt lat="49.74536" lon="2.34898">
        <ele>54.7</ele>
        <time>2023-03-01T15:20:56Z</time>
      </trkpt>
      <trkpt lat="49.74535" lon="2.34899">
        <ele>54.7</ele>
        <time>2023-03-01T15:20:57Z</time>
      </trkpt>
      <trkpt lat="49.74535" lon="2.349">
        <ele>54.7</ele>
        <time>2023-03-01T15:20:58Z</time>
      </trkpt>
      <trkpt lat="49.74534" lon="2.34902">
        <ele>54.7</ele>
        <time>2023-03-01T15:20:59Z</time>
      </trkpt>
      <trkpt lat="49.74533" lon="2.34903">
        <ele>54.6</ele>
        <time>2023-03-01T15:21:00Z</time>
      </trkpt>
      <trkpt lat="49.74532" lon="2.34905">
        <ele>54.6</ele>
        <time>2023-03-01T15:21:01Z</time>
      </trkpt>
      <trkpt lat="49.74531" lon="2.34906">
        <ele>54.6</ele>
        <time>2023-03-01T15:21:03Z</time>
      </trkpt>
      <trkpt lat="49.7453" lon="2.34908">
        <ele>54.6</ele>
        <time>2023-03-01T15:21:04Z</time>
      </trkpt>
      <trkpt lat="49.7453" lon="2.3491">
        <ele>54.5</ele>
        <time>2023-03-01T15:21:05Z</time>
      </trkpt>
      <trkpt lat="49.74531" lon="2.34915">
        <ele>54.5</ele>
        <time>2023-03-01T15:21:06Z</time>
      </trkpt>
      <trkpt lat="49.74531" lon="2.34916">
        <ele>54.5</ele>
        <time>2023-03-01T15:21:07Z</time>
      </trkpt>
      <trkpt lat="49.74531" lon="2.34918">
        <ele>54.4</ele>
        <time>2023-03-01T15:21:08Z</time>
      </trkpt>
      <trkpt lat="49.74531" lon="2.3492">
        <ele>54.4</ele>
        <time>2023-03-01T15:21:09Z</time>
      </trkpt>
      <trkpt lat="49.74531" lon="2.34921">
        <ele>54.4</ele>
        <time>2023-03-01T15:21:10Z</time>
      </trkpt>
      <trkpt lat="49.74531" lon="2.34923">
        <ele>54.4</ele>
        <time>2023-03-01T15:21:12Z</time>
      </trkpt>
      <trkpt lat="49.74531" lon="2.34924">
        <ele>54.4</ele>
        <time>2023-03-01T15:21:13Z</time>
      </trkpt>
      <trkpt lat="49.74531" lon="2.34927">
        <ele>54.3</ele>
        <time>2023-03-01T15:21:14Z</time>
      </trkpt>
      <trkpt lat="49.74532" lon="2.34927">
        <ele>54.3</ele>
        <time>2023-03-01T15:21:15Z</time>
      </trkpt>
      <trkpt lat="49.74533" lon="2.34928">
        <ele>54.2</ele>
        <time>2023-03-01T15:21:16Z</time>
      </trkpt>
      <trkpt lat="49.74535" lon="2.3493">
        <ele>54.2</ele>
        <time>2023-03-01T15:21:17Z</time>
      </trkpt>
      <trkpt lat="49.74536" lon="2.3493">
        <ele>54.2</ele>
        <time>2023-03-01T15:21:18Z</time>
      </trkpt>
      <trkpt lat="49.74538" lon="2.34931">
        <ele>54.2</ele>
        <time>2023-03-01T15:21:19Z</time>
      </trkpt>
      <trkpt lat="49.74539" lon="2.34931">
        <ele>54.2</ele>
        <time>2023-03-01T15:21:21Z</time>
      </trkpt>
      <trkpt lat="49.74541" lon="2.34932">
        <ele>54.2</ele>
        <time>2023-03-01T15:21:22Z</time>
      </trkpt>
      <trkpt lat="49.74542" lon="2.34932">
        <ele>54.2</ele>
        <time>2023-03-01T15:21:23Z</time>
      </trkpt>
      <trkpt lat="49.74543" lon="2.34933">
        <ele>54.2</ele>
        <time>2023-03-01T15:21:24Z</time>
      </trkpt>
      <trkpt lat="49.74547" lon="2.34936">
        <ele>54.2</ele>
        <time>2023-03-01T15:21:26Z</time>
      </trkpt>
      <trkpt lat="49.74547" lon="2.34936">
        <ele>54.2</ele>
        <time>2023-03-01T15:21:28Z</time>
      </trkpt>
      <trkpt lat="49.74548" lon="2.34937">
        <ele>54.2</ele>
        <time>2023-03-01T15:21:29Z</time>
      </trkpt>
      <trkpt lat="49.74549" lon="2.34938">
        <ele>54.2</ele>
        <time>2023-03-01T15:21:30Z</time>
      </trkpt>
      <trkpt lat="49.7455" lon="2.34938">
        <ele>54.2</ele>
        <time>2023-03-01T15:21:31Z</time>
      </trkpt>
      <trkpt lat="49.74551" lon="2.3494">
        <ele>54.2</ele>
        <time>2023-03-01T15:21:32Z</time>
      </trkpt>
      <trkpt lat="49.74552" lon="2.3494">
        <ele>54.2</ele>
        <time>2023-03-01T15:21:33Z</time>
      </trkpt>
      <trkpt lat="49.74552" lon="2.34942">
        <ele>54.2</ele>
        <time>2023-03-01T15:21:34Z</time>
      </trkpt>
      <trkpt lat="49.74553" lon="2.34945">
        <ele>54.2</ele>
        <time>2023-03-01T15:21:35Z</time>
      </trkpt>
      <trkpt lat="49.74552" lon="2.34947">
        <ele>54.2</ele>
        <time>2023-03-01T15:21:36Z</time>
      </trkpt>
      <trkpt lat="49.74552" lon="2.34949">
        <ele>54.2</ele>
        <time>2023-03-01T15:21:37Z</time>
      </trkpt>
      <trkpt lat="49.7455" lon="2.3495">
        <ele>54.2</ele>
        <time>2023-03-01T15:21:38Z</time>
      </trkpt>
      <trkpt lat="49.74549" lon="2.34952">
        <ele>54.2</ele>
        <time>2023-03-01T15:21:40Z</time>
      </trkpt>
      <trkpt lat="49.74549" lon="2.34954">
        <ele>54.2</ele>
        <time>2023-03-01T15:21:41Z</time>
      </trkpt>
      <trkpt lat="49.74549" lon="2.34956">
        <ele>54.2</ele>
        <time>2023-03-01T15:21:42Z</time>
      </trkpt>
      <trkpt lat="49.74549" lon="2.34959">
        <ele>54.2</ele>
        <time>2023-03-01T15:21:43Z</time>
      </trkpt>
      <trkpt lat="49.7455" lon="2.3496">
        <ele>54.2</ele>
        <time>2023-03-01T15:21:44Z</time>
      </trkpt>
      <trkpt lat="49.7455" lon="2.34961">
        <ele>54.2</ele>
        <time>2023-03-01T15:21:45Z</time>
      </trkpt>
      <trkpt lat="49.74552" lon="2.34963">
        <ele>54.2</ele>
        <time>2023-03-01T15:21:46Z</time>
      </trkpt>
      <trkpt lat="49.74553" lon="2.34964">
        <ele>54.2</ele>
        <time>2023-03-01T15:21:47Z</time>
      </trkpt>
      <trkpt lat="49.74554" lon="2.34965">
        <ele>54.2</ele>
        <time>2023-03-01T15:21:48Z</time>
      </trkpt>
      <trkpt lat="49.74556" lon="2.34966">
        <ele>54.2</ele>
        <time>2023-03-01T15:21:49Z</time>
      </trkpt>
      <trkpt lat="49.74558" lon="2.34967">
        <ele>54.2</ele>
        <time>2023-03-01T15:21:51Z</time>
      </trkpt>
      <trkpt lat="49.74559" lon="2.34968">
        <ele>54.2</ele>
        <time>2023-03-01T15:21:52Z</time>
      </trkpt>
      <trkpt lat="49.7456" lon="2.34969">
        <ele>54.2</ele>
        <time>2023-03-01T15:21:53Z</time>
      </trkpt>
      <trkpt lat="49.74562" lon="2.3497">
        <ele>54.1</ele>
        <time>2023-03-01T15:21:54Z</time>
      </trkpt>
      <trkpt lat="49.74565" lon="2.34972">
        <ele>54.1</ele>
        <time>2023-03-01T15:21:55Z</time>
      </trkpt>
      <trkpt lat="49.74566" lon="2.34973">
        <ele>54.1</ele>
        <time>2023-03-01T15:21:56Z</time>
      </trkpt>
      <trkpt lat="49.74567" lon="2.34973">
        <ele>54.1</ele>
        <time>2023-03-01T15:21:58Z</time>
      </trkpt>
      <trkpt lat="49.74568" lon="2.34974">
        <ele>54.1</ele>
        <time>2023-03-01T15:21:59Z</time>
      </trkpt>
      <trkpt lat="49.74571" lon="2.34974">
        <ele>54</ele>
        <time>2023-03-01T15:22:00Z</time>
      </trkpt>
      <trkpt lat="49.74573" lon="2.34974">
        <ele>54</ele>
        <time>2023-03-01T15:22:01Z</time>
      </trkpt>
      <trkpt lat="49.74574" lon="2.34975">
        <ele>54</ele>
        <time>2023-03-01T15:22:02Z</time>
      </trkpt>
      <trkpt lat="49.74575" lon="2.34976">
        <ele>54</ele>
        <time>2023-03-01T15:22:03Z</time>
      </trkpt>
      <trkpt lat="49.74578" lon="2.34977">
        <ele>54</ele>
        <time>2023-03-01T15:22:05Z</time>
      </trkpt>
      <trkpt lat="49.74579" lon="2.34977">
        <ele>53.9</ele>
        <time>2023-03-01T15:22:06Z</time>
      </trkpt>
      <trkpt lat="49.74581" lon="2.34978">
        <ele>53.9</ele>
        <time>2023-03-01T15:22:07Z</time>
      </trkpt>
      <trkpt lat="49.74582" lon="2.34978">
        <ele>53.9</ele>
        <time>2023-03-01T15:22:08Z</time>
      </trkpt>
      <trkpt lat="49.74583" lon="2.34979">
        <ele>53.9</ele>
        <time>2023-03-01T15:22:09Z</time>
      </trkpt>
      <trkpt lat="49.74585" lon="2.34979">
        <ele>53.9</ele>
        <time>2023-03-01T15:22:10Z</time>
      </trkpt>
      <trkpt lat="49.74585" lon="2.3498">
        <ele>53.9</ele>
        <time>2023-03-01T15:22:11Z</time>
      </trkpt>
      <trkpt lat="49.74587" lon="2.34981">
        <ele>53.9</ele>
        <time>2023-03-01T15:22:13Z</time>
      </trkpt>
      <trkpt lat="49.74588" lon="2.34982">
        <ele>53.8</ele>
        <time>2023-03-01T15:22:14Z</time>
      </trkpt>
      <trkpt lat="49.74591" lon="2.34985">
        <ele>53.8</ele>
        <time>2023-03-01T15:22:15Z</time>
      </trkpt>
      <trkpt lat="49.74592" lon="2.34988">
        <ele>53.8</ele>
        <time>2023-03-01T15:22:16Z</time>
      </trkpt>
      <trkpt lat="49.74593" lon="2.34989">
        <ele>53.8</ele>
        <time>2023-03-01T15:22:17Z</time>
      </trkpt>
      <trkpt lat="49.74594" lon="2.3499">
        <ele>53.8</ele>
        <time>2023-03-01T15:22:19Z</time>
      </trkpt>
      <trkpt lat="49.74595" lon="2.34991">
        <ele>53.8</ele>
        <time>2023-03-01T15:22:20Z</time>
      </trkpt>
      <trkpt lat="49.74596" lon="2.34993">
        <ele>53.8</ele>
        <time>2023-03-01T15:22:21Z</time>
      </trkpt>
      <trkpt lat="49.74598" lon="2.34995">
        <ele>53.7</ele>
        <time>2023-03-01T15:22:22Z</time>
      </trkpt>
      <trkpt lat="49.74599" lon="2.34995">
        <ele>53.7</ele>
        <time>2023-03-01T15:22:23Z</time>
      </trkpt>
      <trkpt lat="49.74599" lon="2.34996">
        <ele>53.7</ele>
        <time>2023-03-01T15:22:24Z</time>
      </trkpt>
      <trkpt lat="49.746" lon="2.34999">
        <ele>53.7</ele>
        <time>2023-03-01T15:22:25Z</time>
      </trkpt>
      <trkpt lat="49.74601" lon="2.35">
        <ele>53.7</ele>
        <time>2023-03-01T15:22:26Z</time>
      </trkpt>
      <trkpt lat="49.74602" lon="2.35001">
        <ele>53.7</ele>
        <time>2023-03-01T15:22:28Z</time>
      </trkpt>
      <trkpt lat="49.74603" lon="2.35003">
        <ele>53.7</ele>
        <time>2023-03-01T15:22:29Z</time>
      </trkpt>
      <trkpt lat="49.74604" lon="2.35007">
        <ele>53.7</ele>
        <time>2023-03-01T15:22:30Z</time>
      </trkpt>
      <trkpt lat="49.74604" lon="2.35008">
        <ele>53.7</ele>
        <time>2023-03-01T15:22:31Z</time>
      </trkpt>
      <trkpt lat="49.74605" lon="2.35008">
        <ele>53.7</ele>
        <time>2023-03-01T15:22:32Z</time>
      </trkpt>
      <trkpt lat="49.74606" lon="2.3501">
        <ele>53.6</ele>
        <time>2023-03-01T15:22:33Z</time>
      </trkpt>
      <trkpt lat="49.74607" lon="2.35012">
        <ele>53.6</ele>
        <time>2023-03-01T15:22:35Z</time>
      </trkpt>
      <trkpt lat="49.74607" lon="2.35013">
        <ele>53.6</ele>
        <time>2023-03-01T15:22:36Z</time>
      </trkpt>
      <trkpt lat="49.74607" lon="2.35015">
        <ele>53.6</ele>
        <time>2023-03-01T15:22:37Z</time>
      </trkpt>
      <trkpt lat="49.74608" lon="2.35018">
        <ele>53.6</ele>
        <time>2023-03-01T15:22:39Z</time>
      </trkpt>
      <trkpt lat="49.74608" lon="2.3502">
        <ele>53.6</ele>
        <time>2023-03-01T15:22:41Z</time>
      </trkpt>
      <trkpt lat="49.74608" lon="2.35022">
        <ele>53.6</ele>
        <time>2023-03-01T15:22:42Z</time>
      </trkpt>
      <trkpt lat="49.7461" lon="2.35025">
        <ele>53.6</ele>
        <time>2023-03-01T15:22:43Z</time>
      </trkpt>
      <trkpt lat="49.74611" lon="2.35026">
        <ele>53.6</ele>
        <time>2023-03-01T15:22:44Z</time>
      </trkpt>
      <trkpt lat="49.74612" lon="2.35028">
        <ele>53.5</ele>
        <time>2023-03-01T15:22:45Z</time>
      </trkpt>
      <trkpt lat="49.74613" lon="2.35029">
        <ele>53.5</ele>
        <time>2023-03-01T15:22:46Z</time>
      </trkpt>
      <trkpt lat="49.74613" lon="2.3503">
        <ele>53.5</ele>
        <time>2023-03-01T15:22:47Z</time>
      </trkpt>
      <trkpt lat="49.74614" lon="2.35031">
        <ele>53.5</ele>
        <time>2023-03-01T15:22:48Z</time>
      </trkpt>
      <trkpt lat="49.74614" lon="2.35032">
        <ele>53.5</ele>
        <time>2023-03-01T15:22:50Z</time>
      </trkpt>
      <trkpt lat="49.74614" lon="2.35033">
        <ele>53.5</ele>
        <time>2023-03-01T15:22:51Z</time>
      </trkpt>
      <trkpt lat="49.74616" lon="2.35035">
        <ele>53.5</ele>
        <time>2023-03-01T15:22:52Z</time>
      </trkpt>
      <trkpt lat="49.74617" lon="2.35036">
        <ele>53.5</ele>
        <time>2023-03-01T15:22:53Z</time>
      </trkpt>
      <trkpt lat="49.74618" lon="2.35037">
        <ele>53.5</ele>
        <time>2023-03-01T15:22:54Z</time>
      </trkpt>
      <trkpt lat="49.74619" lon="2.3504">
        <ele>53.5</ele>
        <time>2023-03-01T15:22:55Z</time>
      </trkpt>
      <trkpt lat="49.7462" lon="2.35042">
        <ele>53.5</ele>
        <time>2023-03-01T15:22:57Z</time>
      </trkpt>
      <trkpt lat="49.74621" lon="2.35043">
        <ele>53.5</ele>
        <time>2023-03-01T15:22:58Z</time>
      </trkpt>
      <trkpt lat="49.74622" lon="2.35044">
        <ele>53.5</ele>
        <time>2023-03-01T15:22:59Z</time>
      </trkpt>
      <trkpt lat="49.74624" lon="2.35045">
        <ele>53.5</ele>
        <time>2023-03-01T15:23:00Z</time>
      </trkpt>
      <trkpt lat="49.74626" lon="2.35045">
        <ele>53.4</ele>
        <time>2023-03-01T15:23:01Z</time>
      </trkpt>
      <trkpt lat="49.74627" lon="2.35046">
        <ele>53.4</ele>
        <time>2023-03-01T15:23:02Z</time>
      </trkpt>
      <trkpt lat="49.74628" lon="2.35047">
        <ele>53.4</ele>
        <time>2023-03-01T15:23:03Z</time>
      </trkpt>
      <trkpt lat="49.7463" lon="2.35048">
        <ele>53.4</ele>
        <time>2023-03-01T15:23:04Z</time>
      </trkpt>
      <trkpt lat="49.74632" lon="2.3505">
        <ele>53.4</ele>
        <time>2023-03-01T15:23:06Z</time>
      </trkpt>
      <trkpt lat="49.74634" lon="2.35052">
        <ele>53.4</ele>
        <time>2023-03-01T15:23:07Z</time>
      </trkpt>
      <trkpt lat="49.74634" lon="2.35052">
        <ele>53.4</ele>
        <time>2023-03-01T15:23:08Z</time>
      </trkpt>
      <trkpt lat="49.74635" lon="2.35053">
        <ele>53.4</ele>
        <time>2023-03-01T15:23:09Z</time>
      </trkpt>
      <trkpt lat="49.74637" lon="2.35056">
        <ele>53.4</ele>
        <time>2023-03-01T15:23:10Z</time>
      </trkpt>
      <trkpt lat="49.74637" lon="2.35057">
        <ele>53.4</ele>
        <time>2023-03-01T15:23:11Z</time>
      </trkpt>
      <trkpt lat="49.74639" lon="2.35057">
        <ele>53.4</ele>
        <time>2023-03-01T15:23:13Z</time>
      </trkpt>
      <trkpt lat="49.7464" lon="2.35057">
        <ele>53.4</ele>
        <time>2023-03-01T15:23:14Z</time>
      </trkpt>
      <trkpt lat="49.74641" lon="2.35058">
        <ele>53.4</ele>
        <time>2023-03-01T15:23:15Z</time>
      </trkpt>
      <trkpt lat="49.74643" lon="2.35058">
        <ele>53.4</ele>
        <time>2023-03-01T15:23:16Z</time>
      </trkpt>
      <trkpt lat="49.74645" lon="2.35058">
        <ele>53.4</ele>
        <time>2023-03-01T15:23:17Z</time>
      </trkpt>
      <trkpt lat="49.74647" lon="2.35059">
        <ele>53.4</ele>
        <time>2023-03-01T15:23:18Z</time>
      </trkpt>
      <trkpt lat="49.74649" lon="2.35059">
        <ele>53.4</ele>
        <time>2023-03-01T15:23:19Z</time>
      </trkpt>
      <trkpt lat="49.7465" lon="2.35059">
        <ele>53.4</ele>
        <time>2023-03-01T15:23:20Z</time>
      </trkpt>
      <trkpt lat="49.74651" lon="2.35059">
        <ele>53.4</ele>
        <time>2023-03-01T15:23:21Z</time>
      </trkpt>
      <trkpt lat="49.74652" lon="2.35059">
        <ele>53.4</ele>
        <time>2023-03-01T15:23:23Z</time>
      </trkpt>
      <trkpt lat="49.74653" lon="2.35059">
        <ele>53.4</ele>
        <time>2023-03-01T15:23:24Z</time>
      </trkpt>
      <trkpt lat="49.74656" lon="2.35061">
        <ele>53.4</ele>
        <time>2023-03-01T15:23:25Z</time>
      </trkpt>
      <trkpt lat="49.74658" lon="2.35061">
        <ele>53.3</ele>
        <time>2023-03-01T15:23:26Z</time>
      </trkpt>
      <trkpt lat="49.74659" lon="2.35062">
        <ele>53.3</ele>
        <time>2023-03-01T15:23:27Z</time>
      </trkpt>
      <trkpt lat="49.7466" lon="2.35062">
        <ele>53.3</ele>
        <time>2023-03-01T15:23:28Z</time>
      </trkpt>
      <trkpt lat="49.74661" lon="2.35063">
        <ele>53.3</ele>
        <time>2023-03-01T15:23:30Z</time>
      </trkpt>
      <trkpt lat="49.74663" lon="2.35064">
        <ele>53.3</ele>
        <time>2023-03-01T15:23:31Z</time>
      </trkpt>
      <trkpt lat="49.74664" lon="2.35064">
        <ele>53.3</ele>
        <time>2023-03-01T15:23:32Z</time>
      </trkpt>
      <trkpt lat="49.74665" lon="2.35065">
        <ele>53.3</ele>
        <time>2023-03-01T15:23:33Z</time>
      </trkpt>
      <trkpt lat="49.74666" lon="2.35066">
        <ele>53.2</ele>
        <time>2023-03-01T15:23:34Z</time>
      </trkpt>
      <trkpt lat="49.74667" lon="2.35067">
        <ele>53.2</ele>
        <time>2023-03-01T15:23:35Z</time>
      </trkpt>
      <trkpt lat="49.74668" lon="2.3507">
        <ele>53.2</ele>
        <time>2023-03-01T15:23:36Z</time>
      </trkpt>
      <trkpt lat="49.74669" lon="2.35071">
        <ele>53.2</ele>
        <time>2023-03-01T15:23:37Z</time>
      </trkpt>
      <trkpt lat="49.74669" lon="2.35075">
        <ele>53.1</ele>
        <time>2023-03-01T15:23:38Z</time>
      </trkpt>
      <trkpt lat="49.74669" lon="2.35076">
        <ele>53.1</ele>
        <time>2023-03-01T15:23:39Z</time>
      </trkpt>
      <trkpt lat="49.7467" lon="2.35078">
        <ele>53.1</ele>
        <time>2023-03-01T15:23:40Z</time>
      </trkpt>
      <trkpt lat="49.7467" lon="2.35078">
        <ele>53.1</ele>
        <time>2023-03-01T15:23:42Z</time>
      </trkpt>
      <trkpt lat="49.7467" lon="2.3508">
        <ele>53</ele>
        <time>2023-03-01T15:23:43Z</time>
      </trkpt>
      <trkpt lat="49.74669" lon="2.35082">
        <ele>53</ele>
        <time>2023-03-01T15:23:44Z</time>
      </trkpt>
      <trkpt lat="49.74667" lon="2.35086">
        <ele>52.9</ele>
        <time>2023-03-01T15:23:45Z</time>
      </trkpt>
      <trkpt lat="49.74665" lon="2.35087">
        <ele>52.9</ele>
        <time>2023-03-01T15:23:46Z</time>
      </trkpt>
      <trkpt lat="49.74664" lon="2.35088">
        <ele>52.9</ele>
        <time>2023-03-01T15:23:47Z</time>
      </trkpt>
      <trkpt lat="49.74663" lon="2.3509">
        <ele>52.8</ele>
        <time>2023-03-01T15:23:48Z</time>
      </trkpt>
      <trkpt lat="49.74662" lon="2.35092">
        <ele>52.8</ele>
        <time>2023-03-01T15:23:49Z</time>
      </trkpt>
      <trkpt lat="49.7466" lon="2.35093">
        <ele>52.8</ele>
        <time>2023-03-01T15:23:51Z</time>
      </trkpt>
      <trkpt lat="49.7466" lon="2.35093">
        <ele>52.8</ele>
        <time>2023-03-01T15:23:52Z</time>
      </trkpt>
      <trkpt lat="49.74659" lon="2.35094">
        <ele>52.8</ele>
        <time>2023-03-01T15:23:53Z</time>
      </trkpt>
      <trkpt lat="49.74658" lon="2.35096">
        <ele>52.7</ele>
        <time>2023-03-01T15:23:54Z</time>
      </trkpt>
      <trkpt lat="49.74657" lon="2.35098">
        <ele>52.7</ele>
        <time>2023-03-01T15:23:55Z</time>
      </trkpt>
      <trkpt lat="49.74657" lon="2.35099">
        <ele>52.7</ele>
        <time>2023-03-01T15:23:56Z</time>
      </trkpt>
      <trkpt lat="49.74656" lon="2.351">
        <ele>52.7</ele>
        <time>2023-03-01T15:23:58Z</time>
      </trkpt>
      <trkpt lat="49.74655" lon="2.35102">
        <ele>52.7</ele>
        <time>2023-03-01T15:23:59Z</time>
      </trkpt>
      <trkpt lat="49.74654" lon="2.35104">
        <ele>52.6</ele>
        <time>2023-03-01T15:24:00Z</time>
      </trkpt>
      <trkpt lat="49.74652" lon="2.35108">
        <ele>52.6</ele>
        <time>2023-03-01T15:24:01Z</time>
      </trkpt>
      <trkpt lat="49.74652" lon="2.35108">
        <ele>52.6</ele>
        <time>2023-03-01T15:24:02Z</time>
      </trkpt>
      <trkpt lat="49.74651" lon="2.3511">
        <ele>52.5</ele>
        <time>2023-03-01T15:24:03Z</time>
      </trkpt>
      <trkpt lat="49.7465" lon="2.35115">
        <ele>52.5</ele>
        <time>2023-03-01T15:24:05Z</time>
      </trkpt>
      <trkpt lat="49.74648" lon="2.35118">
        <ele>52.5</ele>
        <time>2023-03-01T15:24:06Z</time>
      </trkpt>
      <trkpt lat="49.74648" lon="2.35119">
        <ele>52.5</ele>
        <time>2023-03-01T15:24:07Z</time>
      </trkpt>
      <trkpt lat="49.74647" lon="2.35124">
        <ele>52.4</ele>
        <time>2023-03-01T15:24:09Z</time>
      </trkpt>
      <trkpt lat="49.74645" lon="2.35129">
        <ele>52.4</ele>
        <time>2023-03-01T15:24:11Z</time>
      </trkpt>
      <trkpt lat="49.74645" lon="2.3513">
        <ele>52.4</ele>
        <time>2023-03-01T15:24:12Z</time>
      </trkpt>
      <trkpt lat="49.74645" lon="2.35132">
        <ele>52.4</ele>
        <time>2023-03-01T15:24:13Z</time>
      </trkpt>
      <trkpt lat="49.74644" lon="2.35133">
        <ele>52.4</ele>
        <time>2023-03-01T15:24:14Z</time>
      </trkpt>
      <trkpt lat="49.74642" lon="2.35136">
        <ele>52.3</ele>
        <time>2023-03-01T15:24:15Z</time>
      </trkpt>
      <trkpt lat="49.74642" lon="2.35137">
        <ele>52.3</ele>
        <time>2023-03-01T15:24:17Z</time>
      </trkpt>
      <trkpt lat="49.74641" lon="2.35139">
        <ele>52.3</ele>
        <time>2023-03-01T15:24:18Z</time>
      </trkpt>
      <trkpt lat="49.74641" lon="2.35141">
        <ele>52.3</ele>
        <time>2023-03-01T15:24:19Z</time>
      </trkpt>
      <trkpt lat="49.7464" lon="2.35143">
        <ele>52.3</ele>
        <time>2023-03-01T15:24:20Z</time>
      </trkpt>
      <trkpt lat="49.74641" lon="2.35147">
        <ele>52.3</ele>
        <time>2023-03-01T15:24:22Z</time>
      </trkpt>
      <trkpt lat="49.7464" lon="2.35148">
        <ele>52.3</ele>
        <time>2023-03-01T15:24:23Z</time>
      </trkpt>
      <trkpt lat="49.7464" lon="2.3515">
        <ele>52.3</ele>
        <time>2023-03-01T15:24:24Z</time>
      </trkpt>
      <trkpt lat="49.74639" lon="2.35152">
        <ele>52.3</ele>
        <time>2023-03-01T15:24:25Z</time>
      </trkpt>
      <trkpt lat="49.74639" lon="2.35154">
        <ele>52.3</ele>
        <time>2023-03-01T15:24:26Z</time>
      </trkpt>
      <trkpt lat="49.74639" lon="2.35155">
        <ele>52.3</ele>
        <time>2023-03-01T15:24:27Z</time>
      </trkpt>
      <trkpt lat="49.74639" lon="2.35157">
        <ele>52.3</ele>
        <time>2023-03-01T15:24:29Z</time>
      </trkpt>
      <trkpt lat="49.74638" lon="2.35159">
        <ele>52.3</ele>
        <time>2023-03-01T15:24:30Z</time>
      </trkpt>
      <trkpt lat="49.74638" lon="2.35162">
        <ele>52.3</ele>
        <time>2023-03-01T15:24:31Z</time>
      </trkpt>
      <trkpt lat="49.74638" lon="2.35164">
        <ele>52.3</ele>
        <time>2023-03-01T15:24:32Z</time>
      </trkpt>
      <trkpt lat="49.74638" lon="2.35166">
        <ele>52.3</ele>
        <time>2023-03-01T15:24:33Z</time>
      </trkpt>
      <trkpt lat="49.74637" lon="2.35168">
        <ele>52.3</ele>
        <time>2023-03-01T15:24:34Z</time>
      </trkpt>
      <trkpt lat="49.74637" lon="2.3517">
        <ele>52.3</ele>
        <time>2023-03-01T15:24:36Z</time>
      </trkpt>
      <trkpt lat="49.74637" lon="2.35171">
        <ele>52.3</ele>
        <time>2023-03-01T15:24:37Z</time>
      </trkpt>
      <trkpt lat="49.74637" lon="2.35172">
        <ele>52.3</ele>
        <time>2023-03-01T15:24:38Z</time>
      </trkpt>
      <trkpt lat="49.74637" lon="2.35173">
        <ele>52.3</ele>
        <time>2023-03-01T15:24:39Z</time>
      </trkpt>
      <trkpt lat="49.74637" lon="2.35174">
        <ele>52.3</ele>
        <time>2023-03-01T15:24:40Z</time>
      </trkpt>
      <trkpt lat="49.74637" lon="2.35176">
        <ele>52.3</ele>
        <time>2023-03-01T15:24:41Z</time>
      </trkpt>
      <trkpt lat="49.74636" lon="2.35177">
        <ele>52.3</ele>
        <time>2023-03-01T15:24:43Z</time>
      </trkpt>
      <trkpt lat="49.74636" lon="2.35178">
        <ele>52.3</ele>
        <time>2023-03-01T15:24:44Z</time>
      </trkpt>
      <trkpt lat="49.74636" lon="2.3518">
        <ele>52.3</ele>
        <time>2023-03-01T15:24:45Z</time>
      </trkpt>
      <trkpt lat="49.74636" lon="2.35182">
        <ele>52.4</ele>
        <time>2023-03-01T15:24:46Z</time>
      </trkpt>
      <trkpt lat="49.74635" lon="2.35184">
        <ele>52.4</ele>
        <time>2023-03-01T15:24:47Z</time>
      </trkpt>
      <trkpt lat="49.74635" lon="2.35187">
        <ele>52.4</ele>
        <time>2023-03-01T15:24:48Z</time>
      </trkpt>
      <trkpt lat="49.74634" lon="2.35188">
        <ele>52.4</ele>
        <time>2023-03-01T15:24:49Z</time>
      </trkpt>
      <trkpt lat="49.74634" lon="2.35192">
        <ele>52.4</ele>
        <time>2023-03-01T15:24:51Z</time>
      </trkpt>
      <trkpt lat="49.74633" lon="2.35196">
        <ele>52.4</ele>
        <time>2023-03-01T15:24:52Z</time>
      </trkpt>
      <trkpt lat="49.74632" lon="2.35199">
        <ele>52.5</ele>
        <time>2023-03-01T15:24:54Z</time>
      </trkpt>
      <trkpt lat="49.74632" lon="2.35201">
        <ele>52.5</ele>
        <time>2023-03-01T15:24:55Z</time>
      </trkpt>
      <trkpt lat="49.74631" lon="2.35203">
        <ele>52.5</ele>
        <time>2023-03-01T15:24:56Z</time>
      </trkpt>
      <trkpt lat="49.74631" lon="2.35204">
        <ele>52.5</ele>
        <time>2023-03-01T15:24:57Z</time>
      </trkpt>
      <trkpt lat="49.74631" lon="2.35205">
        <ele>52.5</ele>
        <time>2023-03-01T15:24:58Z</time>
      </trkpt>
      <trkpt lat="49.7463" lon="2.35207">
        <ele>52.5</ele>
        <time>2023-03-01T15:24:59Z</time>
      </trkpt>
      <trkpt lat="49.7463" lon="2.35211">
        <ele>52.6</ele>
        <time>2023-03-01T15:25:00Z</time>
      </trkpt>
      <trkpt lat="49.7463" lon="2.35213">
        <ele>52.6</ele>
        <time>2023-03-01T15:25:01Z</time>
      </trkpt>
      <trkpt lat="49.7463" lon="2.35214">
        <ele>52.6</ele>
        <time>2023-03-01T15:25:03Z</time>
      </trkpt>
      <trkpt lat="49.7463" lon="2.35216">
        <ele>52.6</ele>
        <time>2023-03-01T15:25:04Z</time>
      </trkpt>
      <trkpt lat="49.7463" lon="2.35218">
        <ele>52.6</ele>
        <time>2023-03-01T15:25:05Z</time>
      </trkpt>
      <trkpt lat="49.7463" lon="2.3522">
        <ele>52.6</ele>
        <time>2023-03-01T15:25:06Z</time>
      </trkpt>
      <trkpt lat="49.7463" lon="2.35222">
        <ele>52.6</ele>
        <time>2023-03-01T15:25:07Z</time>
      </trkpt>
      <trkpt lat="49.74629" lon="2.35225">
        <ele>52.7</ele>
        <time>2023-03-01T15:25:08Z</time>
      </trkpt>
      <trkpt lat="49.74629" lon="2.35227">
        <ele>52.7</ele>
        <time>2023-03-01T15:25:09Z</time>
      </trkpt>
      <trkpt lat="49.74628" lon="2.35228">
        <ele>52.7</ele>
        <time>2023-03-01T15:25:10Z</time>
      </trkpt>
      <trkpt lat="49.74627" lon="2.35232">
        <ele>52.7</ele>
        <time>2023-03-01T15:25:11Z</time>
      </trkpt>
      <trkpt lat="49.74627" lon="2.35233">
        <ele>52.7</ele>
        <time>2023-03-01T15:25:12Z</time>
      </trkpt>
      <trkpt lat="49.74627" lon="2.35233">
        <ele>52.7</ele>
        <time>2023-03-01T15:25:13Z</time>
      </trkpt>
      <trkpt lat="49.74627" lon="2.35236">
        <ele>52.7</ele>
        <time>2023-03-01T15:25:15Z</time>
      </trkpt>
      <trkpt lat="49.74627" lon="2.35238">
        <ele>52.7</ele>
        <time>2023-03-01T15:25:16Z</time>
      </trkpt>
      <trkpt lat="49.74627" lon="2.35239">
        <ele>52.7</ele>
        <time>2023-03-01T15:25:17Z</time>
      </trkpt>
      <trkpt lat="49.74627" lon="2.35241">
        <ele>52.7</ele>
        <time>2023-03-01T15:25:18Z</time>
      </trkpt>
      <trkpt lat="49.74626" lon="2.35243">
        <ele>52.7</ele>
        <time>2023-03-01T15:25:19Z</time>
      </trkpt>
      <trkpt lat="49.74626" lon="2.35244">
        <ele>52.7</ele>
        <time>2023-03-01T15:25:20Z</time>
      </trkpt>
      <trkpt lat="49.74625" lon="2.35246">
        <ele>52.7</ele>
        <time>2023-03-01T15:25:21Z</time>
      </trkpt>
      <trkpt lat="49.74625" lon="2.35247">
        <ele>52.7</ele>
        <time>2023-03-01T15:25:23Z</time>
      </trkpt>
      <trkpt lat="49.74624" lon="2.35249">
        <ele>52.7</ele>
        <time>2023-03-01T15:25:24Z</time>
      </trkpt>
      <trkpt lat="49.74623" lon="2.3525">
        <ele>52.6</ele>
        <time>2023-03-01T15:25:25Z</time>
      </trkpt>
      <trkpt lat="49.74622" lon="2.35252">
        <ele>52.6</ele>
        <time>2023-03-01T15:25:26Z</time>
      </trkpt>
      <trkpt lat="49.74622" lon="2.35253">
        <ele>52.6</ele>
        <time>2023-03-01T15:25:27Z</time>
      </trkpt>
      <trkpt lat="49.74621" lon="2.35255">
        <ele>52.6</ele>
        <time>2023-03-01T15:25:28Z</time>
      </trkpt>
      <trkpt lat="49.74621" lon="2.35256">
        <ele>52.6</ele>
        <time>2023-03-01T15:25:29Z</time>
      </trkpt>
      <trkpt lat="49.7462" lon="2.3526">
        <ele>52.6</ele>
        <time>2023-03-01T15:25:30Z</time>
      </trkpt>
      <trkpt lat="49.74619" lon="2.35261">
        <ele>52.6</ele>
        <time>2023-03-01T15:25:32Z</time>
      </trkpt>
      <trkpt lat="49.74618" lon="2.35263">
        <ele>52.6</ele>
        <time>2023-03-01T15:25:33Z</time>
      </trkpt>
      <trkpt lat="49.74618" lon="2.35265">
        <ele>52.6</ele>
        <time>2023-03-01T15:25:34Z</time>
      </trkpt>
      <trkpt lat="49.74617" lon="2.35266">
        <ele>52.6</ele>
        <time>2023-03-01T15:25:35Z</time>
      </trkpt>
      <trkpt lat="49.74617" lon="2.35268">
        <ele>52.6</ele>
        <time>2023-03-01T15:25:36Z</time>
      </trkpt>
      <trkpt lat="49.74617" lon="2.35271">
        <ele>52.6</ele>
        <time>2023-03-01T15:25:37Z</time>
      </trkpt>
      <trkpt lat="49.74616" lon="2.35273">
        <ele>52.6</ele>
        <time>2023-03-01T15:25:38Z</time>
      </trkpt>
      <trkpt lat="49.74616" lon="2.35275">
        <ele>52.6</ele>
        <time>2023-03-01T15:25:39Z</time>
      </trkpt>
      <trkpt lat="49.74615" lon="2.35277">
        <ele>52.6</ele>
        <time>2023-03-01T15:25:40Z</time>
      </trkpt>
      <trkpt lat="49.74614" lon="2.3528">
        <ele>52.6</ele>
        <time>2023-03-01T15:25:42Z</time>
      </trkpt>
      <trkpt lat="49.74613" lon="2.35282">
        <ele>52.6</ele>
        <time>2023-03-01T15:25:43Z</time>
      </trkpt>
      <trkpt lat="49.74612" lon="2.35284">
        <ele>52.5</ele>
        <time>2023-03-01T15:25:44Z</time>
      </trkpt>
      <trkpt lat="49.74611" lon="2.35287">
        <ele>52.5</ele>
        <time>2023-03-01T15:25:45Z</time>
      </trkpt>
      <trkpt lat="49.7461" lon="2.35289">
        <ele>52.5</ele>
        <time>2023-03-01T15:25:46Z</time>
      </trkpt>
      <trkpt lat="49.74611" lon="2.35288">
        <ele>52.5</ele>
        <time>2023-03-01T15:25:47Z</time>
      </trkpt>
      <trkpt lat="49.74611" lon="2.35288">
        <ele>52.5</ele>
        <time>2023-03-01T15:25:49Z</time>
      </trkpt>
      <trkpt lat="49.74611" lon="2.35288">
        <ele>52.5</ele>
        <time>2023-03-01T15:25:50Z</time>
      </trkpt>
      <trkpt lat="49.7461" lon="2.35289">
        <ele>52.5</ele>
        <time>2023-03-01T15:25:51Z</time>
      </trkpt>
      <trkpt lat="49.74611" lon="2.35292">
        <ele>52.5</ele>
        <time>2023-03-01T15:25:52Z</time>
      </trkpt>
      <trkpt lat="49.7461" lon="2.35294">
        <ele>52.5</ele>
        <time>2023-03-01T15:25:53Z</time>
      </trkpt>
      <trkpt lat="49.7461" lon="2.35298">
        <ele>52.5</ele>
        <time>2023-03-01T15:25:54Z</time>
      </trkpt>
      <trkpt lat="49.7461" lon="2.353">
        <ele>52.5</ele>
        <time>2023-03-01T15:25:55Z</time>
      </trkpt>
      <trkpt lat="49.7461" lon="2.35303">
        <ele>52.5</ele>
        <time>2023-03-01T15:25:56Z</time>
      </trkpt>
      <trkpt lat="49.7461" lon="2.35305">
        <ele>52.5</ele>
        <time>2023-03-01T15:25:57Z</time>
      </trkpt>
      <trkpt lat="49.7461" lon="2.35306">
        <ele>52.5</ele>
        <time>2023-03-01T15:25:59Z</time>
      </trkpt>
      <trkpt lat="49.7461" lon="2.35307">
        <ele>52.4</ele>
        <time>2023-03-01T15:26:00Z</time>
      </trkpt>
      <trkpt lat="49.74609" lon="2.35309">
        <ele>52.4</ele>
        <time>2023-03-01T15:26:01Z</time>
      </trkpt>
      <trkpt lat="49.74611" lon="2.35313">
        <ele>52.4</ele>
        <time>2023-03-01T15:26:02Z</time>
      </trkpt>
      <trkpt lat="49.7461" lon="2.35315">
        <ele>52.4</ele>
        <time>2023-03-01T15:26:03Z</time>
      </trkpt>
      <trkpt lat="49.7461" lon="2.35316">
        <ele>52.4</ele>
        <time>2023-03-01T15:26:04Z</time>
      </trkpt>
      <trkpt lat="49.7461" lon="2.35318">
        <ele>52.4</ele>
        <time>2023-03-01T15:26:06Z</time>
      </trkpt>
      <trkpt lat="49.7461" lon="2.35322">
        <ele>52.4</ele>
        <time>2023-03-01T15:26:07Z</time>
      </trkpt>
      <trkpt lat="49.74611" lon="2.35324">
        <ele>52.4</ele>
        <time>2023-03-01T15:26:08Z</time>
      </trkpt>
      <trkpt lat="49.7461" lon="2.35328">
        <ele>52.4</ele>
        <time>2023-03-01T15:26:09Z</time>
      </trkpt>
      <trkpt lat="49.74609" lon="2.35329">
        <ele>52.3</ele>
        <time>2023-03-01T15:26:10Z</time>
      </trkpt>
      <trkpt lat="49.74609" lon="2.35331">
        <ele>52.3</ele>
        <time>2023-03-01T15:26:11Z</time>
      </trkpt>
      <trkpt lat="49.74609" lon="2.35331">
        <ele>52.3</ele>
        <time>2023-03-01T15:26:12Z</time>
      </trkpt>
      <trkpt lat="49.74608" lon="2.35333">
        <ele>52.3</ele>
        <time>2023-03-01T15:26:13Z</time>
      </trkpt>
      <trkpt lat="49.74607" lon="2.35334">
        <ele>52.3</ele>
        <time>2023-03-01T15:26:14Z</time>
      </trkpt>
      <trkpt lat="49.74606" lon="2.35335">
        <ele>52.3</ele>
        <time>2023-03-01T15:26:16Z</time>
      </trkpt>
      <trkpt lat="49.74606" lon="2.35338">
        <ele>52.3</ele>
        <time>2023-03-01T15:26:17Z</time>
      </trkpt>
      <trkpt lat="49.74606" lon="2.35339">
        <ele>52.3</ele>
        <time>2023-03-01T15:26:18Z</time>
      </trkpt>
      <trkpt lat="49.74605" lon="2.3534">
        <ele>52.3</ele>
        <time>2023-03-01T15:26:19Z</time>
      </trkpt>
      <trkpt lat="49.74605" lon="2.35341">
        <ele>52.3</ele>
        <time>2023-03-01T15:26:20Z</time>
      </trkpt>
      <trkpt lat="49.74604" lon="2.35342">
        <ele>52.3</ele>
        <time>2023-03-01T15:26:21Z</time>
      </trkpt>
      <trkpt lat="49.74604" lon="2.35345">
        <ele>52.3</ele>
        <time>2023-03-01T15:26:22Z</time>
      </trkpt>
      <trkpt lat="49.74603" lon="2.35346">
        <ele>52.3</ele>
        <time>2023-03-01T15:26:23Z</time>
      </trkpt>
      <trkpt lat="49.74602" lon="2.35347">
        <ele>52.3</ele>
        <time>2023-03-01T15:26:24Z</time>
      </trkpt>
      <trkpt lat="49.74601" lon="2.35349">
        <ele>52.3</ele>
        <time>2023-03-01T15:26:26Z</time>
      </trkpt>
      <trkpt lat="49.746" lon="2.35351">
        <ele>52.1</ele>
        <time>2023-03-01T15:26:27Z</time>
      </trkpt>
      <trkpt lat="49.746" lon="2.35353">
        <ele>52.1</ele>
        <time>2023-03-01T15:26:28Z</time>
      </trkpt>
      <trkpt lat="49.746" lon="2.35354">
        <ele>52.1</ele>
        <time>2023-03-01T15:26:29Z</time>
      </trkpt>
      <trkpt lat="49.74599" lon="2.35355">
        <ele>52.1</ele>
        <time>2023-03-01T15:26:30Z</time>
      </trkpt>
      <trkpt lat="49.74597" lon="2.35356">
        <ele>52.1</ele>
        <time>2023-03-01T15:26:31Z</time>
      </trkpt>
      <trkpt lat="49.74595" lon="2.35354">
        <ele>52.1</ele>
        <time>2023-03-01T15:26:32Z</time>
      </trkpt>
      <trkpt lat="49.74595" lon="2.35355">
        <ele>52.1</ele>
        <time>2023-03-01T15:26:33Z</time>
      </trkpt>
      <trkpt lat="49.74594" lon="2.35358">
        <ele>52.1</ele>
        <time>2023-03-01T15:26:35Z</time>
      </trkpt>
      <trkpt lat="49.74593" lon="2.35359">
        <ele>52.1</ele>
        <time>2023-03-01T15:26:36Z</time>
      </trkpt>
      <trkpt lat="49.74593" lon="2.35361">
        <ele>52.1</ele>
        <time>2023-03-01T15:26:37Z</time>
      </trkpt>
      <trkpt lat="49.74593" lon="2.35362">
        <ele>52.1</ele>
        <time>2023-03-01T15:26:38Z</time>
      </trkpt>
      <trkpt lat="49.74592" lon="2.35364">
        <ele>52.1</ele>
        <time>2023-03-01T15:26:39Z</time>
      </trkpt>
      <trkpt lat="49.74592" lon="2.35365">
        <ele>52</ele>
        <time>2023-03-01T15:26:40Z</time>
      </trkpt>
      <trkpt lat="49.74592" lon="2.35367">
        <ele>52</ele>
        <time>2023-03-01T15:26:41Z</time>
      </trkpt>
      <trkpt lat="49.74592" lon="2.35369">
        <ele>52</ele>
        <time>2023-03-01T15:26:43Z</time>
      </trkpt>
      <trkpt lat="49.74592" lon="2.35371">
        <ele>52</ele>
        <time>2023-03-01T15:26:44Z</time>
      </trkpt>
      <trkpt lat="49.74591" lon="2.35374">
        <ele>52</ele>
        <time>2023-03-01T15:26:45Z</time>
      </trkpt>
      <trkpt lat="49.74591" lon="2.35375">
        <ele>52</ele>
        <time>2023-03-01T15:26:46Z</time>
      </trkpt>
      <trkpt lat="49.74591" lon="2.35376">
        <ele>52</ele>
        <time>2023-03-01T15:26:47Z</time>
      </trkpt>
      <trkpt lat="49.7459" lon="2.35377">
        <ele>52</ele>
        <time>2023-03-01T15:26:48Z</time>
      </trkpt>
      <trkpt lat="49.7459" lon="2.35379">
        <ele>52</ele>
        <time>2023-03-01T15:26:49Z</time>
      </trkpt>
      <trkpt lat="49.7459" lon="2.35381">
        <ele>52</ele>
        <time>2023-03-01T15:26:51Z</time>
      </trkpt>
      <trkpt lat="49.7459" lon="2.35383">
        <ele>52</ele>
        <time>2023-03-01T15:26:52Z</time>
      </trkpt>
      <trkpt lat="49.7459" lon="2.35385">
        <ele>52</ele>
        <time>2023-03-01T15:26:53Z</time>
      </trkpt>
      <trkpt lat="49.7459" lon="2.35386">
        <ele>52</ele>
        <time>2023-03-01T15:26:54Z</time>
      </trkpt>
      <trkpt lat="49.74589" lon="2.35389">
        <ele>52</ele>
        <time>2023-03-01T15:26:55Z</time>
      </trkpt>
      <trkpt lat="49.74589" lon="2.35391">
        <ele>52</ele>
        <time>2023-03-01T15:26:56Z</time>
      </trkpt>
      <trkpt lat="49.74589" lon="2.35392">
        <ele>52</ele>
        <time>2023-03-01T15:26:57Z</time>
      </trkpt>
      <trkpt lat="49.74589" lon="2.35394">
        <ele>51.9</ele>
        <time>2023-03-01T15:26:58Z</time>
      </trkpt>
      <trkpt lat="49.74589" lon="2.35395">
        <ele>51.9</ele>
        <time>2023-03-01T15:27:00Z</time>
      </trkpt>
      <trkpt lat="49.74588" lon="2.35397">
        <ele>51.9</ele>
        <time>2023-03-01T15:27:01Z</time>
      </trkpt>
      <trkpt lat="49.74588" lon="2.35399">
        <ele>51.9</ele>
        <time>2023-03-01T15:27:02Z</time>
      </trkpt>
      <trkpt lat="49.74587" lon="2.354">
        <ele>51.9</ele>
        <time>2023-03-01T15:27:03Z</time>
      </trkpt>
      <trkpt lat="49.74587" lon="2.354">
        <ele>51.9</ele>
        <time>2023-03-01T15:27:04Z</time>
      </trkpt>
      <trkpt lat="49.74585" lon="2.35396">
        <ele>51.9</ele>
        <time>2023-03-01T15:27:06Z</time>
      </trkpt>
      <trkpt lat="49.74584" lon="2.35395">
        <ele>51.9</ele>
        <time>2023-03-01T15:27:07Z</time>
      </trkpt>
      <trkpt lat="49.74583" lon="2.35395">
        <ele>51.9</ele>
        <time>2023-03-01T15:27:09Z</time>
      </trkpt>
      <trkpt lat="49.74583" lon="2.35396">
        <ele>51.9</ele>
        <time>2023-03-01T15:27:10Z</time>
      </trkpt>
      <trkpt lat="49.74584" lon="2.35398">
        <ele>51.9</ele>
        <time>2023-03-01T15:27:11Z</time>
      </trkpt>
      <trkpt lat="49.74584" lon="2.35399">
        <ele>51.9</ele>
        <time>2023-03-01T15:27:13Z</time>
      </trkpt>
      <trkpt lat="49.74583" lon="2.35401">
        <ele>51.9</ele>
        <time>2023-03-01T15:27:14Z</time>
      </trkpt>
      <trkpt lat="49.74582" lon="2.35402">
        <ele>51.9</ele>
        <time>2023-03-01T15:27:15Z</time>
      </trkpt>
      <trkpt lat="49.74582" lon="2.35404">
        <ele>51.9</ele>
        <time>2023-03-01T15:27:16Z</time>
      </trkpt>
      <trkpt lat="49.74581" lon="2.35406">
        <ele>51.9</ele>
        <time>2023-03-01T15:27:17Z</time>
      </trkpt>
      <trkpt lat="49.74582" lon="2.35407">
        <ele>51.9</ele>
        <time>2023-03-01T15:27:19Z</time>
      </trkpt>
      <trkpt lat="49.74583" lon="2.35409">
        <ele>51.8</ele>
        <time>2023-03-01T15:27:20Z</time>
      </trkpt>
      <trkpt lat="49.74583" lon="2.35411">
        <ele>51.8</ele>
        <time>2023-03-01T15:27:21Z</time>
      </trkpt>
      <trkpt lat="49.74585" lon="2.35413">
        <ele>51.8</ele>
        <time>2023-03-01T15:27:22Z</time>
      </trkpt>
      <trkpt lat="49.74585" lon="2.35415">
        <ele>51.8</ele>
        <time>2023-03-01T15:27:24Z</time>
      </trkpt>
      <trkpt lat="49.74585" lon="2.35416">
        <ele>51.8</ele>
        <time>2023-03-01T15:27:25Z</time>
      </trkpt>
      <trkpt lat="49.74585" lon="2.35418">
        <ele>51.8</ele>
        <time>2023-03-01T15:27:26Z</time>
      </trkpt>
      <trkpt lat="49.74585" lon="2.35419">
        <ele>51.8</ele>
        <time>2023-03-01T15:27:28Z</time>
      </trkpt>
      <trkpt lat="49.74584" lon="2.35419">
        <ele>51.8</ele>
        <time>2023-03-01T15:27:29Z</time>
      </trkpt>
      <trkpt lat="49.74584" lon="2.35419">
        <ele>51.8</ele>
        <time>2023-03-01T15:27:30Z</time>
      </trkpt>
      <trkpt lat="49.74584" lon="2.35418">
        <ele>51.8</ele>
        <time>2023-03-01T15:27:32Z</time>
      </trkpt>
      <trkpt lat="49.74584" lon="2.35418">
        <ele>51.8</ele>
        <time>2023-03-01T15:27:33Z</time>
      </trkpt>
      <trkpt lat="49.74584" lon="2.35418">
        <ele>51.8</ele>
        <time>2023-03-01T15:27:34Z</time>
      </trkpt>
      <trkpt lat="49.74584" lon="2.35417">
        <ele>51.8</ele>
        <time>2023-03-01T15:27:37Z</time>
      </trkpt>
      <trkpt lat="49.74584" lon="2.35417">
        <ele>51.8</ele>
        <time>2023-03-01T15:27:39Z</time>
      </trkpt>
      <trkpt lat="49.74584" lon="2.35417">
        <ele>51.8</ele>
        <time>2023-03-01T15:27:41Z</time>
      </trkpt>
      <trkpt lat="49.74584" lon="2.35416">
        <ele>51.8</ele>
        <time>2023-03-01T15:27:43Z</time>
      </trkpt>
      <trkpt lat="49.74584" lon="2.35416">
        <ele>51.8</ele>
        <time>2023-03-01T15:27:44Z</time>
      </trkpt>
      <trkpt lat="49.74584" lon="2.35416">
        <ele>51.8</ele>
        <time>2023-03-01T15:27:46Z</time>
      </trkpt>
      <trkpt lat="49.74585" lon="2.35416">
        <ele>51.8</ele>
        <time>2023-03-01T15:27:47Z</time>
      </trkpt>
      <trkpt lat="49.74585" lon="2.35416">
        <ele>51.8</ele>
        <time>2023-03-01T15:27:48Z</time>
      </trkpt>
      <trkpt lat="49.74585" lon="2.35416">
        <ele>51.8</ele>
        <time>2023-03-01T15:27:50Z</time>
      </trkpt>
      <trkpt lat="49.74585" lon="2.35416">
        <ele>51.8</ele>
        <time>2023-03-01T15:27:51Z</time>
      </trkpt>
      <trkpt lat="49.74585" lon="2.35416">
        <ele>51.8</ele>
        <time>2023-03-01T15:27:53Z</time>
      </trkpt>
      <trkpt lat="49.74585" lon="2.35416">
        <ele>51.8</ele>
        <time>2023-03-01T15:27:54Z</time>
      </trkpt>
      <trkpt lat="49.74585" lon="2.35416">
        <ele>51.8</ele>
        <time>2023-03-01T15:27:55Z</time>
      </trkpt>
      <trkpt lat="49.74585" lon="2.35415">
        <ele>51.8</ele>
        <time>2023-03-01T15:27:56Z</time>
      </trkpt>
      <trkpt lat="49.74586" lon="2.35415">
        <ele>51.8</ele>
        <time>2023-03-01T15:27:57Z</time>
      </trkpt>
      <trkpt lat="49.74586" lon="2.35415">
        <ele>51.8</ele>
        <time>2023-03-01T15:27:58Z</time>
      </trkpt>
      <trkpt lat="49.74586" lon="2.35415">
        <ele>51.8</ele>
        <time>2023-03-01T15:27:59Z</time>
      </trkpt>
      <trkpt lat="49.74587" lon="2.35415">
        <ele>51.8</ele>
        <time>2023-03-01T15:28:00Z</time>
      </trkpt>
      <trkpt lat="49.74587" lon="2.35415">
        <ele>51.8</ele>
        <time>2023-03-01T15:28:01Z</time>
      </trkpt>
      <trkpt lat="49.74588" lon="2.35415">
        <ele>51.8</ele>
        <time>2023-03-01T15:28:02Z</time>
      </trkpt>
      <trkpt lat="49.74588" lon="2.35415">
        <ele>51.8</ele>
        <time>2023-03-01T15:28:03Z</time>
      </trkpt>
      <trkpt lat="49.74589" lon="2.35416">
        <ele>51.8</ele>
        <time>2023-03-01T15:28:05Z</time>
      </trkpt>
      <trkpt lat="49.7459" lon="2.35417">
        <ele>51.8</ele>
        <time>2023-03-01T15:28:07Z</time>
      </trkpt>
      <trkpt lat="49.74589" lon="2.35417">
        <ele>51.8</ele>
        <time>2023-03-01T15:28:09Z</time>
      </trkpt>
      <trkpt lat="49.74589" lon="2.35417">
        <ele>51.8</ele>
        <time>2023-03-01T15:28:10Z</time>
      </trkpt>
      <trkpt lat="49.74589" lon="2.35416">
        <ele>51.8</ele>
        <time>2023-03-01T15:28:12Z</time>
      </trkpt>
      <trkpt lat="49.7459" lon="2.35416">
        <ele>51.8</ele>
        <time>2023-03-01T15:28:13Z</time>
      </trkpt>
      <trkpt lat="49.7459" lon="2.35416">
        <ele>51.8</ele>
        <time>2023-03-01T15:28:15Z</time>
      </trkpt>
      <trkpt lat="49.7459" lon="2.35416">
        <ele>51.8</ele>
        <time>2023-03-01T15:28:17Z</time>
      </trkpt>
      <trkpt lat="49.7459" lon="2.35416">
        <ele>51.8</ele>
        <time>2023-03-01T15:28:19Z</time>
      </trkpt>
      <trkpt lat="49.7459" lon="2.35416">
        <ele>51.8</ele>
        <time>2023-03-01T15:28:20Z</time>
      </trkpt>
      <trkpt lat="49.7459" lon="2.35417">
        <ele>51.8</ele>
        <time>2023-03-01T15:28:21Z</time>
      </trkpt>
      <trkpt lat="49.7459" lon="2.35417">
        <ele>51.8</ele>
        <time>2023-03-01T15:28:23Z</time>
      </trkpt>
      <trkpt lat="49.7459" lon="2.35418">
        <ele>51.8</ele>
        <time>2023-03-01T15:28:25Z</time>
      </trkpt>
      <trkpt lat="49.74589" lon="2.35417">
        <ele>51.8</ele>
        <time>2023-03-01T15:28:27Z</time>
      </trkpt>
      <trkpt lat="49.74589" lon="2.35417">
        <ele>51.8</ele>
        <time>2023-03-01T15:28:29Z</time>
      </trkpt>
      <trkpt lat="49.74589" lon="2.35417">
        <ele>51.8</ele>
        <time>2023-03-01T15:28:30Z</time>
      </trkpt>
      <trkpt lat="49.74588" lon="2.35416">
        <ele>51.8</ele>
        <time>2023-03-01T15:28:32Z</time>
      </trkpt>
      <trkpt lat="49.74588" lon="2.35417">
        <ele>51.8</ele>
        <time>2023-03-01T15:28:33Z</time>
      </trkpt>
      <trkpt lat="49.74588" lon="2.35416">
        <ele>51.8</ele>
        <time>2023-03-01T15:28:35Z</time>
      </trkpt>
      <trkpt lat="49.74588" lon="2.35416">
        <ele>51.8</ele>
        <time>2023-03-01T15:28:36Z</time>
      </trkpt>
      <trkpt lat="49.74588" lon="2.35416">
        <ele>51.8</ele>
        <time>2023-03-01T15:28:37Z</time>
      </trkpt>
      <trkpt lat="49.74587" lon="2.35416">
        <ele>51.8</ele>
        <time>2023-03-01T15:28:38Z</time>
      </trkpt>
      <trkpt lat="49.74587" lon="2.35416">
        <ele>51.8</ele>
        <time>2023-03-01T15:28:40Z</time>
      </trkpt>
      <trkpt lat="49.74587" lon="2.35416">
        <ele>51.8</ele>
        <time>2023-03-01T15:28:42Z</time>
      </trkpt>
      <trkpt lat="49.74587" lon="2.35416">
        <ele>51.8</ele>
        <time>2023-03-01T15:28:43Z</time>
      </trkpt>
      <trkpt lat="49.74587" lon="2.35416">
        <ele>51.8</ele>
        <time>2023-03-01T15:28:45Z</time>
      </trkpt>
      <trkpt lat="49.74587" lon="2.35417">
        <ele>51.8</ele>
        <time>2023-03-01T15:28:47Z</time>
      </trkpt>
      <trkpt lat="49.74587" lon="2.35417">
        <ele>51.8</ele>
        <time>2023-03-01T15:28:49Z</time>
      </trkpt>
      <trkpt lat="49.74588" lon="2.35416">
        <ele>51.8</ele>
        <time>2023-03-01T15:28:50Z</time>
      </trkpt>
      <trkpt lat="49.74588" lon="2.35416">
        <ele>51.8</ele>
        <time>2023-03-01T15:28:51Z</time>
      </trkpt>
      <trkpt lat="49.74588" lon="2.35416">
        <ele>51.8</ele>
        <time>2023-03-01T15:28:53Z</time>
      </trkpt>
      <trkpt lat="49.74588" lon="2.35416">
        <ele>51.8</ele>
        <time>2023-03-01T15:28:55Z</time>
      </trkpt>
      <trkpt lat="49.74588" lon="2.35416">
        <ele>51.8</ele>
        <time>2023-03-01T15:28:56Z</time>
      </trkpt>
      <trkpt lat="49.74588" lon="2.35416">
        <ele>51.8</ele>
        <time>2023-03-01T15:28:57Z</time>
      </trkpt>
      <trkpt lat="49.74588" lon="2.35415">
        <ele>51.8</ele>
        <time>2023-03-01T15:28:59Z</time>
      </trkpt>
      <trkpt lat="49.74588" lon="2.35415">
        <ele>51.8</ele>
        <time>2023-03-01T15:29:00Z</time>
      </trkpt>
      <trkpt lat="49.74588" lon="2.35415">
        <ele>51.8</ele>
        <time>2023-03-01T15:29:01Z</time>
      </trkpt>
      <trkpt lat="49.74588" lon="2.35415">
        <ele>51.8</ele>
        <time>2023-03-01T15:29:02Z</time>
      </trkpt>
      <trkpt lat="49.74588" lon="2.35415">
        <ele>51.8</ele>
        <time>2023-03-01T15:29:04Z</time>
      </trkpt>
      <trkpt lat="49.74588" lon="2.35415">
        <ele>51.8</ele>
        <time>2023-03-01T15:29:05Z</time>
      </trkpt>
      <trkpt lat="49.74588" lon="2.35415">
        <ele>51.8</ele>
        <time>2023-03-01T15:29:06Z</time>
      </trkpt>
      <trkpt lat="49.74588" lon="2.35415">
        <ele>51.8</ele>
        <time>2023-03-01T15:29:07Z</time>
      </trkpt>
      <trkpt lat="49.74588" lon="2.35415">
        <ele>51.8</ele>
        <time>2023-03-01T15:29:08Z</time>
      </trkpt>
      <trkpt lat="49.74588" lon="2.35415">
        <ele>51.8</ele>
        <time>2023-03-01T15:29:09Z</time>
      </trkpt>
      <trkpt lat="49.74588" lon="2.35415">
        <ele>51.8</ele>
        <time>2023-03-01T15:29:11Z</time>
      </trkpt>
      <trkpt lat="49.74588" lon="2.35415">
        <ele>51.8</ele>
        <time>2023-03-01T15:29:12Z</time>
      </trkpt>
      <trkpt lat="49.74588" lon="2.35415">
        <ele>51.8</ele>
        <time>2023-03-01T15:29:14Z</time>
      </trkpt>
      <trkpt lat="49.74588" lon="2.35415">
        <ele>51.8</ele>
        <time>2023-03-01T15:29:16Z</time>
      </trkpt>
      <trkpt lat="49.74588" lon="2.35415">
        <ele>51.8</ele>
        <time>2023-03-01T15:29:17Z</time>
      </trkpt>
      <trkpt lat="49.74588" lon="2.35415">
        <ele>51.8</ele>
        <time>2023-03-01T15:29:19Z</time>
      </trkpt>
      <trkpt lat="49.74588" lon="2.35415">
        <ele>51.8</ele>
        <time>2023-03-01T15:29:20Z</time>
      </trkpt>
      <trkpt lat="49.74588" lon="2.35415">
        <ele>51.8</ele>
        <time>2023-03-01T15:29:22Z</time>
      </trkpt>
      <trkpt lat="49.74588" lon="2.35415">
        <ele>51.8</ele>
        <time>2023-03-01T15:29:23Z</time>
      </trkpt>
      <trkpt lat="49.74588" lon="2.35415">
        <ele>51.8</ele>
        <time>2023-03-01T15:29:24Z</time>
      </trkpt>
      <trkpt lat="49.74588" lon="2.35415">
        <ele>51.8</ele>
        <time>2023-03-01T15:29:25Z</time>
      </trkpt>
      <trkpt lat="49.74588" lon="2.35415">
        <ele>51.8</ele>
        <time>2023-03-01T15:29:27Z</time>
      </trkpt>
      <trkpt lat="49.74588" lon="2.35415">
        <ele>51.8</ele>
        <time>2023-03-01T15:29:28Z</time>
      </trkpt>
      <trkpt lat="49.74588" lon="2.35415">
        <ele>51.8</ele>
        <time>2023-03-01T15:29:29Z</time>
      </trkpt>
      <trkpt lat="49.74588" lon="2.35415">
        <ele>51.8</ele>
        <time>2023-03-01T15:29:30Z</time>
      </trkpt>
      <trkpt lat="49.74588" lon="2.35415">
        <ele>51.8</ele>
        <time>2023-03-01T15:29:31Z</time>
      </trkpt>
      <trkpt lat="49.74588" lon="2.35415">
        <ele>51.8</ele>
        <time>2023-03-01T15:29:32Z</time>
      </trkpt>
      <trkpt lat="49.74588" lon="2.35415">
        <ele>51.8</ele>
        <time>2023-03-01T15:29:34Z</time>
      </trkpt>
      <trkpt lat="49.74588" lon="2.35415">
        <ele>51.8</ele>
        <time>2023-03-01T15:29:35Z</time>
      </trkpt>
      <trkpt lat="49.74588" lon="2.35415">
        <ele>51.8</ele>
        <time>2023-03-01T15:29:36Z</time>
      </trkpt>
      <trkpt lat="49.74588" lon="2.35415">
        <ele>51.8</ele>
        <time>2023-03-01T15:29:37Z</time>
      </trkpt>
      <trkpt lat="49.74588" lon="2.35415">
        <ele>51.8</ele>
        <time>2023-03-01T15:29:38Z</time>
      </trkpt>
      <trkpt lat="49.74588" lon="2.35415">
        <ele>51.8</ele>
        <time>2023-03-01T15:29:39Z</time>
      </trkpt>
      <trkpt lat="49.74588" lon="2.35415">
        <ele>51.8</ele>
        <time>2023-03-01T15:29:40Z</time>
      </trkpt>
      <trkpt lat="49.74588" lon="2.35415">
        <ele>51.8</ele>
        <time>2023-03-01T15:29:42Z</time>
      </trkpt>
      <trkpt lat="49.74588" lon="2.35415">
        <ele>51.8</ele>
        <time>2023-03-01T15:29:43Z</time>
      </trkpt>
      <trkpt lat="49.74588" lon="2.35415">
        <ele>51.8</ele>
        <time>2023-03-01T15:29:44Z</time>
      </trkpt>
      <trkpt lat="49.74588" lon="2.35415">
        <ele>51.8</ele>
        <time>2023-03-01T15:29:45Z</time>
      </trkpt>
      <trkpt lat="49.74588" lon="2.35415">
        <ele>51.8</ele>
        <time>2023-03-01T15:29:46Z</time>
      </trkpt>
      <trkpt lat="49.74588" lon="2.35415">
        <ele>51.8</ele>
        <time>2023-03-01T15:29:47Z</time>
      </trkpt>
      <trkpt lat="49.74588" lon="2.35415">
        <ele>51.8</ele>
        <time>2023-03-01T15:29:48Z</time>
      </trkpt>
      <trkpt lat="49.74588" lon="2.35415">
        <ele>51.8</ele>
        <time>2023-03-01T15:29:49Z</time>
      </trkpt>
      <trkpt lat="49.74588" lon="2.35415">
        <ele>51.8</ele>
        <time>2023-03-01T15:29:50Z</time>
      </trkpt>
      <trkpt lat="49.74588" lon="2.35415">
        <ele>51.8</ele>
        <time>2023-03-01T15:29:51Z</time>
      </trkpt>
      <trkpt lat="49.74588" lon="2.35414">
        <ele>51.8</ele>
        <time>2023-03-01T15:29:52Z</time>
      </trkpt>
      <trkpt lat="49.74588" lon="2.35414">
        <ele>51.8</ele>
        <time>2023-03-01T15:29:53Z</time>
      </trkpt>
      <trkpt lat="49.74588" lon="2.35414">
        <ele>51.8</ele>
        <time>2023-03-01T15:29:54Z</time>
      </trkpt>
      <trkpt lat="49.74588" lon="2.35414">
        <ele>51.8</ele>
        <time>2023-03-01T15:29:56Z</time>
      </trkpt>
      <trkpt lat="49.74588" lon="2.35414">
        <ele>51.8</ele>
        <time>2023-03-01T15:29:57Z</time>
      </trkpt>
      <trkpt lat="49.74588" lon="2.35414">
        <ele>51.8</ele>
        <time>2023-03-01T15:29:59Z</time>
      </trkpt>
      <trkpt lat="49.74588" lon="2.35414">
        <ele>51.8</ele>
        <time>2023-03-01T15:30:00Z</time>
      </trkpt>
      <trkpt lat="49.74588" lon="2.35414">
        <ele>51.8</ele>
        <time>2023-03-01T15:30:01Z</time>
      </trkpt>
      <trkpt lat="49.74588" lon="2.35414">
        <ele>51.8</ele>
        <time>2023-03-01T15:30:02Z</time>
      </trkpt>
      <trkpt lat="49.74588" lon="2.35414">
        <ele>51.8</ele>
        <time>2023-03-01T15:30:03Z</time>
      </trkpt>
      <trkpt lat="49.74588" lon="2.35414">
        <ele>51.8</ele>
        <time>2023-03-01T15:30:05Z</time>
      </trkpt>
      <trkpt lat="49.74588" lon="2.35414">
        <ele>51.8</ele>
        <time>2023-03-01T15:30:06Z</time>
      </trkpt>
      <trkpt lat="49.74589" lon="2.35414">
        <ele>51.8</ele>
        <time>2023-03-01T15:30:07Z</time>
      </trkpt>
      <trkpt lat="49.74589" lon="2.35414">
        <ele>51.8</ele>
        <time>2023-03-01T15:30:08Z</time>
      </trkpt>
      <trkpt lat="49.74589" lon="2.35414">
        <ele>51.8</ele>
        <time>2023-03-01T15:30:09Z</time>
      </trkpt>
      <trkpt lat="49.74589" lon="2.35414">
        <ele>51.8</ele>
        <time>2023-03-01T15:30:10Z</time>
      </trkpt>
      <trkpt lat="49.74589" lon="2.35414">
        <ele>51.8</ele>
        <time>2023-03-01T15:30:11Z</time>
      </trkpt>
      <trkpt lat="49.74589" lon="2.35414">
        <ele>51.8</ele>
        <time>2023-03-01T15:30:13Z</time>
      </trkpt>
      <trkpt lat="49.74589" lon="2.35414">
        <ele>51.8</ele>
        <time>2023-03-01T15:30:14Z</time>
      </trkpt>
      <trkpt lat="49.74589" lon="2.35414">
        <ele>51.8</ele>
        <time>2023-03-01T15:30:16Z</time>
      </trkpt>
      <trkpt lat="49.74589" lon="2.35414">
        <ele>51.7</ele>
        <time>2023-03-01T15:30:18Z</time>
      </trkpt>
      <trkpt lat="49.74589" lon="2.35414">
        <ele>51.7</ele>
        <time>2023-03-01T15:30:19Z</time>
      </trkpt>
      <trkpt lat="49.74589" lon="2.35414">
        <ele>51.7</ele>
        <time>2023-03-01T15:30:21Z</time>
      </trkpt>
      <trkpt lat="49.74589" lon="2.35414">
        <ele>51.7</ele>
        <time>2023-03-01T15:30:23Z</time>
      </trkpt>
      <trkpt lat="49.74589" lon="2.35414">
        <ele>51.7</ele>
        <time>2023-03-01T15:30:24Z</time>
      </trkpt>
      <trkpt lat="49.74589" lon="2.35414">
        <ele>51.7</ele>
        <time>2023-03-01T15:30:25Z</time>
      </trkpt>
      <trkpt lat="49.74589" lon="2.35414">
        <ele>51.7</ele>
        <time>2023-03-01T15:30:27Z</time>
      </trkpt>
      <trkpt lat="49.74588" lon="2.35414">
        <ele>51.7</ele>
        <time>2023-03-01T15:30:29Z</time>
      </trkpt>
      <trkpt lat="49.74588" lon="2.35414">
        <ele>51.7</ele>
        <time>2023-03-01T15:30:30Z</time>
      </trkpt>
      <trkpt lat="49.74588" lon="2.35414">
        <ele>51.7</ele>
        <time>2023-03-01T15:30:31Z</time>
      </trkpt>
      <trkpt lat="49.74589" lon="2.35414">
        <ele>51.7</ele>
        <time>2023-03-01T15:30:32Z</time>
      </trkpt>
      <trkpt lat="49.74589" lon="2.35414">
        <ele>51.7</ele>
        <time>2023-03-01T15:30:33Z</time>
      </trkpt>
      <trkpt lat="49.74588" lon="2.35415">
        <ele>51.7</ele>
        <time>2023-03-01T15:30:34Z</time>
      </trkpt>
      <trkpt lat="49.74588" lon="2.35413">
        <ele>51.7</ele>
        <time>2023-03-01T15:30:36Z</time>
      </trkpt>
      <trkpt lat="49.74589" lon="2.35412">
        <ele>51.7</ele>
        <time>2023-03-01T15:30:38Z</time>
      </trkpt>
      <trkpt lat="49.74589" lon="2.35412">
        <ele>51.7</ele>
        <time>2023-03-01T15:30:40Z</time>
      </trkpt>
      <trkpt lat="49.74589" lon="2.35413">
        <ele>51.7</ele>
        <time>2023-03-01T15:30:41Z</time>
      </trkpt>
      <trkpt lat="49.74589" lon="2.35413">
        <ele>51.7</ele>
        <time>2023-03-01T15:30:42Z</time>
      </trkpt>
      <trkpt lat="49.74589" lon="2.35413">
        <ele>51.7</ele>
        <time>2023-03-01T15:30:44Z</time>
      </trkpt>
      <trkpt lat="49.74589" lon="2.35413">
        <ele>51.7</ele>
        <time>2023-03-01T15:30:45Z</time>
      </trkpt>
      <trkpt lat="49.74589" lon="2.35413">
        <ele>51.7</ele>
        <time>2023-03-01T15:30:47Z</time>
      </trkpt>
      <trkpt lat="49.74588" lon="2.35413">
        <ele>51.7</ele>
        <time>2023-03-01T15:30:48Z</time>
      </trkpt>
      <trkpt lat="49.74588" lon="2.35413">
        <ele>51.7</ele>
        <time>2023-03-01T15:30:50Z</time>
      </trkpt>
      <trkpt lat="49.74589" lon="2.35413">
        <ele>51.7</ele>
        <time>2023-03-01T15:30:51Z</time>
      </trkpt>
      <trkpt lat="49.74589" lon="2.35413">
        <ele>51.7</ele>
        <time>2023-03-01T15:30:52Z</time>
      </trkpt>
      <trkpt lat="49.74589" lon="2.35413">
        <ele>51.7</ele>
        <time>2023-03-01T15:30:54Z</time>
      </trkpt>
      <trkpt lat="49.74589" lon="2.35414">
        <ele>51.7</ele>
        <time>2023-03-01T15:30:55Z</time>
      </trkpt>
      <trkpt lat="49.74589" lon="2.35414">
        <ele>51.7</ele>
        <time>2023-03-01T15:30:57Z</time>
      </trkpt>
      <trkpt lat="49.74589" lon="2.35414">
        <ele>51.7</ele>
        <time>2023-03-01T15:30:58Z</time>
      </trkpt>
      <trkpt lat="49.74589" lon="2.35414">
        <ele>51.7</ele>
        <time>2023-03-01T15:30:59Z</time>
      </trkpt>
      <trkpt lat="49.74589" lon="2.35414">
        <ele>51.7</ele>
        <time>2023-03-01T15:31:00Z</time>
      </trkpt>
      <trkpt lat="49.74589" lon="2.35414">
        <ele>51.7</ele>
        <time>2023-03-01T15:31:01Z</time>
      </trkpt>
      <trkpt lat="49.74589" lon="2.35414">
        <ele>51.7</ele>
        <time>2023-03-01T15:31:02Z</time>
      </trkpt>
      <trkpt lat="49.74589" lon="2.35414">
        <ele>51.7</ele>
        <time>2023-03-01T15:31:03Z</time>
      </trkpt>
      <trkpt lat="49.74589" lon="2.35414">
        <ele>51.7</ele>
        <time>2023-03-01T15:31:04Z</time>
      </trkpt>
      <trkpt lat="49.74589" lon="2.35414">
        <ele>51.7</ele>
        <time>2023-03-01T15:31:05Z</time>
      </trkpt>
      <trkpt lat="49.74589" lon="2.35414">
        <ele>51.7</ele>
        <time>2023-03-01T15:31:06Z</time>
      </trkpt>
      <trkpt lat="49.74589" lon="2.35414">
        <ele>51.7</ele>
        <time>2023-03-01T15:31:07Z</time>
      </trkpt>
      <trkpt lat="49.74589" lon="2.35414">
        <ele>51.7</ele>
        <time>2023-03-01T15:31:09Z</time>
      </trkpt>
      <trkpt lat="49.74589" lon="2.35414">
        <ele>51.7</ele>
        <time>2023-03-01T15:31:10Z</time>
      </trkpt>
      <trkpt lat="49.74589" lon="2.35414">
        <ele>51.7</ele>
        <time>2023-03-01T15:31:11Z</time>
      </trkpt>
      <trkpt lat="49.74589" lon="2.35414">
        <ele>51.7</ele>
        <time>2023-03-01T15:31:12Z</time>
      </trkpt>
      <trkpt lat="49.74589" lon="2.35414">
        <ele>51.7</ele>
        <time>2023-03-01T15:31:13Z</time>
      </trkpt>
      <trkpt lat="49.74589" lon="2.35414">
        <ele>51.7</ele>
        <time>2023-03-01T15:31:14Z</time>
      </trkpt>
      <trkpt lat="49.74589" lon="2.35414">
        <ele>51.7</ele>
        <time>2023-03-01T15:31:15Z</time>
      </trkpt>
      <trkpt lat="49.74589" lon="2.35414">
        <ele>51.7</ele>
        <time>2023-03-01T15:31:16Z</time>
      </trkpt>
      <trkpt lat="49.74589" lon="2.35414">
        <ele>51.7</ele>
        <time>2023-03-01T15:31:17Z</time>
      </trkpt>
      <trkpt lat="49.74589" lon="2.35414">
        <ele>51.7</ele>
        <time>2023-03-01T15:31:18Z</time>
      </trkpt>
      <trkpt lat="49.74589" lon="2.35414">
        <ele>51.7</ele>
        <time>2023-03-01T15:31:19Z</time>
      </trkpt>
      <trkpt lat="49.74589" lon="2.35414">
        <ele>51.7</ele>
        <time>2023-03-01T15:31:20Z</time>
      </trkpt>
      <trkpt lat="49.74589" lon="2.35414">
        <ele>51.7</ele>
        <time>2023-03-01T15:31:21Z</time>
      </trkpt>
      <trkpt lat="49.74589" lon="2.35414">
        <ele>51.7</ele>
        <time>2023-03-01T15:31:22Z</time>
      </trkpt>
      <trkpt lat="49.74589" lon="2.35414">
        <ele>51.7</ele>
        <time>2023-03-01T15:31:23Z</time>
      </trkpt>
      <trkpt lat="49.74589" lon="2.35414">
        <ele>51.7</ele>
        <time>2023-03-01T15:31:24Z</time>
      </trkpt>
      <trkpt lat="49.74589" lon="2.35414">
        <ele>51.7</ele>
        <time>2023-03-01T15:31:25Z</time>
      </trkpt>
      <trkpt lat="49.74589" lon="2.35414">
        <ele>51.7</ele>
        <time>2023-03-01T15:31:26Z</time>
      </trkpt>
      <trkpt lat="49.74589" lon="2.35414">
        <ele>51.7</ele>
        <time>2023-03-01T15:31:27Z</time>
      </trkpt>
      <trkpt lat="49.74589" lon="2.35414">
        <ele>51.7</ele>
        <time>2023-03-01T15:31:28Z</time>
      </trkpt>
      <trkpt lat="49.74589" lon="2.35414">
        <ele>51.7</ele>
        <time>2023-03-01T15:31:29Z</time>
      </trkpt>
      <trkpt lat="49.74589" lon="2.35414">
        <ele>51.7</ele>
        <time>2023-03-01T15:31:30Z</time>
      </trkpt>
      <trkpt lat="49.74589" lon="2.35414">
        <ele>51.7</ele>
        <time>2023-03-01T15:31:31Z</time>
      </trkpt>
      <trkpt lat="49.74589" lon="2.35414">
        <ele>51.7</ele>
        <time>2023-03-01T15:31:32Z</time>
      </trkpt>
      <trkpt lat="49.74589" lon="2.35414">
        <ele>51.7</ele>
        <time>2023-03-01T15:31:34Z</time>
      </trkpt>
      <trkpt lat="49.74589" lon="2.35414">
        <ele>51.7</ele>
        <time>2023-03-01T15:31:35Z</time>
      </trkpt>
      <trkpt lat="49.74589" lon="2.35414">
        <ele>51.7</ele>
        <time>2023-03-01T15:31:36Z</time>
      </trkpt>
      <trkpt lat="49.74589" lon="2.35414">
        <ele>51.7</ele>
        <time>2023-03-01T15:31:37Z</time>
      </trkpt>
      <trkpt lat="49.74589" lon="2.35414">
        <ele>51.7</ele>
        <time>2023-03-01T15:31:38Z</time>
      </trkpt>
      <trkpt lat="49.74589" lon="2.35414">
        <ele>51.7</ele>
        <time>2023-03-01T15:31:39Z</time>
      </trkpt>
      <trkpt lat="49.74589" lon="2.35414">
        <ele>51.7</ele>
        <time>2023-03-01T15:31:40Z</time>
      </trkpt>
    </trkseg>
  </trk>
</gpx>